<?xml version="1.0" encoding="UTF-8"?>
<gpx xmlns:gpxdata="http://www.cluetrust.com/XML/GPXDATA/1/0" xmlns:xsi="http://www.w3.org/2001/XMLSchema-instance" xmlns="http://www.topografix.com/GPX/1/1" version="1.1" creator="http://ridewithgps.com/" xsi:schemaLocation="http://www.topografix.com/GPX/1/1 http://www.topografix.com/GPX/1/1/gpx.xsd http://www.cluetrust.com/XML/GPXDATA/1/0 http://www.cluetrust.com/Schemas/gpxdata10.xsd">
  <metadata>
    <name>12/07/20</name>
    <link href="https://ridewithgps.com/trips/52360684">
      <text>12/07/20</text>
    </link>
    <time>2020-07-12T07:52:09Z</time>
  </metadata>
  <trk>
    <name>12/07/20</name>
    <trkseg>
      <trkpt lat="48.561872" lon="7.808174">
        <ele>184.0</ele>
        <time>2020-07-12T05:52:09Z</time>
      </trkpt>
      <trkpt lat="48.561872" lon="7.808174">
        <ele>184.0</ele>
        <time>2020-07-12T05:52:11Z</time>
      </trkpt>
      <trkpt lat="48.561872" lon="7.808174">
        <ele>184.0</ele>
        <time>2020-07-12T05:52:13Z</time>
      </trkpt>
      <trkpt lat="48.561872" lon="7.808174">
        <ele>184.0</ele>
        <time>2020-07-12T05:52:15Z</time>
      </trkpt>
      <trkpt lat="48.561872" lon="7.808174">
        <ele>184.0</ele>
        <time>2020-07-12T05:52:17Z</time>
      </trkpt>
      <trkpt lat="48.561872" lon="7.808174">
        <ele>184.0</ele>
        <time>2020-07-12T05:52:19Z</time>
      </trkpt>
      <trkpt lat="48.561872" lon="7.808174">
        <ele>184.0</ele>
        <time>2020-07-12T05:52:21Z</time>
      </trkpt>
      <trkpt lat="48.561872" lon="7.808174">
        <ele>184.0</ele>
        <time>2020-07-12T05:52:23Z</time>
      </trkpt>
      <trkpt lat="48.561872" lon="7.808174">
        <ele>184.0</ele>
        <time>2020-07-12T05:52:25Z</time>
      </trkpt>
      <trkpt lat="48.561882" lon="7.808166">
        <ele>185.0</ele>
        <time>2020-07-12T05:52:27Z</time>
      </trkpt>
      <trkpt lat="48.56189" lon="7.808161">
        <ele>185.0</ele>
        <time>2020-07-12T05:52:29Z</time>
      </trkpt>
      <trkpt lat="48.561895" lon="7.808159">
        <ele>186.0</ele>
        <time>2020-07-12T05:52:31Z</time>
      </trkpt>
      <trkpt lat="48.561904" lon="7.808155">
        <ele>187.0</ele>
        <time>2020-07-12T05:52:33Z</time>
      </trkpt>
      <trkpt lat="48.56193" lon="7.808145">
        <ele>187.0</ele>
        <time>2020-07-12T05:52:35Z</time>
      </trkpt>
      <trkpt lat="48.561974" lon="7.808144">
        <ele>187.0</ele>
        <time>2020-07-12T05:52:37Z</time>
      </trkpt>
      <trkpt lat="48.56202" lon="7.808149">
        <ele>188.0</ele>
        <time>2020-07-12T05:52:39Z</time>
      </trkpt>
      <trkpt lat="48.562075" lon="7.808157">
        <ele>188.0</ele>
        <time>2020-07-12T05:52:41Z</time>
      </trkpt>
      <trkpt lat="48.562127" lon="7.808158">
        <ele>188.0</ele>
        <time>2020-07-12T05:52:43Z</time>
      </trkpt>
      <trkpt lat="48.562178" lon="7.808167">
        <ele>188.0</ele>
        <time>2020-07-12T05:52:45Z</time>
      </trkpt>
      <trkpt lat="48.562224" lon="7.808186">
        <ele>188.0</ele>
        <time>2020-07-12T05:52:47Z</time>
      </trkpt>
      <trkpt lat="48.562275" lon="7.808179">
        <ele>187.0</ele>
        <time>2020-07-12T05:52:49Z</time>
      </trkpt>
      <trkpt lat="48.562325" lon="7.808149">
        <ele>187.0</ele>
        <time>2020-07-12T05:52:51Z</time>
      </trkpt>
      <trkpt lat="48.562376" lon="7.80812">
        <ele>187.0</ele>
        <time>2020-07-12T05:52:53Z</time>
      </trkpt>
      <trkpt lat="48.562429" lon="7.808108">
        <ele>186.0</ele>
        <time>2020-07-12T05:52:55Z</time>
      </trkpt>
      <trkpt lat="48.562496" lon="7.808097">
        <ele>186.0</ele>
        <time>2020-07-12T05:52:57Z</time>
      </trkpt>
      <trkpt lat="48.562556" lon="7.808076">
        <ele>185.0</ele>
        <time>2020-07-12T05:52:59Z</time>
      </trkpt>
      <trkpt lat="48.562602" lon="7.808067">
        <ele>184.0</ele>
        <time>2020-07-12T05:53:01Z</time>
      </trkpt>
      <trkpt lat="48.562673" lon="7.808069">
        <ele>182.0</ele>
        <time>2020-07-12T05:53:03Z</time>
      </trkpt>
      <trkpt lat="48.562744" lon="7.808057">
        <ele>182.0</ele>
        <time>2020-07-12T05:53:05Z</time>
      </trkpt>
      <trkpt lat="48.562804" lon="7.808025">
        <ele>182.0</ele>
        <time>2020-07-12T05:53:07Z</time>
      </trkpt>
      <trkpt lat="48.56287" lon="7.808012">
        <ele>182.0</ele>
        <time>2020-07-12T05:53:09Z</time>
      </trkpt>
      <trkpt lat="48.562943" lon="7.807991">
        <ele>181.0</ele>
        <time>2020-07-12T05:53:11Z</time>
      </trkpt>
      <trkpt lat="48.563015" lon="7.807953">
        <ele>181.0</ele>
        <time>2020-07-12T05:53:13Z</time>
      </trkpt>
      <trkpt lat="48.563087" lon="7.807929">
        <ele>181.0</ele>
        <time>2020-07-12T05:53:15Z</time>
      </trkpt>
      <trkpt lat="48.563155" lon="7.807912">
        <ele>181.0</ele>
        <time>2020-07-12T05:53:17Z</time>
      </trkpt>
      <trkpt lat="48.56323" lon="7.807896">
        <ele>183.0</ele>
        <time>2020-07-12T05:53:19Z</time>
      </trkpt>
      <trkpt lat="48.563329" lon="7.807869">
        <ele>189.0</ele>
        <time>2020-07-12T05:53:22Z</time>
      </trkpt>
      <trkpt lat="48.563402" lon="7.807859">
        <ele>189.0</ele>
        <time>2020-07-12T05:53:24Z</time>
      </trkpt>
      <trkpt lat="48.563465" lon="7.807844">
        <ele>189.0</ele>
        <time>2020-07-12T05:53:26Z</time>
      </trkpt>
      <trkpt lat="48.563534" lon="7.807828">
        <ele>190.0</ele>
        <time>2020-07-12T05:53:28Z</time>
      </trkpt>
      <trkpt lat="48.563613" lon="7.807815">
        <ele>189.0</ele>
        <time>2020-07-12T05:53:30Z</time>
      </trkpt>
      <trkpt lat="48.563696" lon="7.807802">
        <ele>189.0</ele>
        <time>2020-07-12T05:53:32Z</time>
      </trkpt>
      <trkpt lat="48.563769" lon="7.807781">
        <ele>189.0</ele>
        <time>2020-07-12T05:53:34Z</time>
      </trkpt>
      <trkpt lat="48.563855" lon="7.807759">
        <ele>188.0</ele>
        <time>2020-07-12T05:53:36Z</time>
      </trkpt>
      <trkpt lat="48.563934" lon="7.807745">
        <ele>188.0</ele>
        <time>2020-07-12T05:53:38Z</time>
      </trkpt>
      <trkpt lat="48.564023" lon="7.807742">
        <ele>188.0</ele>
        <time>2020-07-12T05:53:40Z</time>
      </trkpt>
      <trkpt lat="48.56412" lon="7.807746">
        <ele>187.0</ele>
        <time>2020-07-12T05:53:42Z</time>
      </trkpt>
      <trkpt lat="48.564211" lon="7.807738">
        <ele>187.0</ele>
        <time>2020-07-12T05:53:44Z</time>
      </trkpt>
      <trkpt lat="48.564302" lon="7.807712">
        <ele>186.0</ele>
        <time>2020-07-12T05:53:46Z</time>
      </trkpt>
      <trkpt lat="48.564383" lon="7.807688">
        <ele>186.0</ele>
        <time>2020-07-12T05:53:48Z</time>
      </trkpt>
      <trkpt lat="48.564472" lon="7.807675">
        <ele>185.0</ele>
        <time>2020-07-12T05:53:50Z</time>
      </trkpt>
      <trkpt lat="48.564557" lon="7.807661">
        <ele>186.0</ele>
        <time>2020-07-12T05:53:52Z</time>
      </trkpt>
      <trkpt lat="48.564643" lon="7.807644">
        <ele>186.0</ele>
        <time>2020-07-12T05:53:54Z</time>
      </trkpt>
      <trkpt lat="48.564732" lon="7.807625">
        <ele>186.0</ele>
        <time>2020-07-12T05:53:56Z</time>
      </trkpt>
      <trkpt lat="48.564829" lon="7.807608">
        <ele>185.0</ele>
        <time>2020-07-12T05:53:58Z</time>
      </trkpt>
      <trkpt lat="48.564923" lon="7.807587">
        <ele>185.0</ele>
        <time>2020-07-12T05:54:00Z</time>
      </trkpt>
      <trkpt lat="48.565019" lon="7.807564">
        <ele>185.0</ele>
        <time>2020-07-12T05:54:02Z</time>
      </trkpt>
      <trkpt lat="48.565114" lon="7.807546">
        <ele>186.0</ele>
        <time>2020-07-12T05:54:04Z</time>
      </trkpt>
      <trkpt lat="48.565202" lon="7.807528">
        <ele>186.0</ele>
        <time>2020-07-12T05:54:06Z</time>
      </trkpt>
      <trkpt lat="48.565289" lon="7.807512">
        <ele>186.0</ele>
        <time>2020-07-12T05:54:08Z</time>
      </trkpt>
      <trkpt lat="48.56537" lon="7.807505">
        <ele>186.0</ele>
        <time>2020-07-12T05:54:10Z</time>
      </trkpt>
      <trkpt lat="48.565436" lon="7.807471">
        <ele>186.0</ele>
        <time>2020-07-12T05:54:12Z</time>
      </trkpt>
      <trkpt lat="48.565442" lon="7.807378">
        <ele>186.0</ele>
        <time>2020-07-12T05:54:14Z</time>
      </trkpt>
      <trkpt lat="48.565408" lon="7.807286">
        <ele>185.0</ele>
        <time>2020-07-12T05:54:16Z</time>
      </trkpt>
      <trkpt lat="48.56538" lon="7.807189">
        <ele>186.0</ele>
        <time>2020-07-12T05:54:18Z</time>
      </trkpt>
      <trkpt lat="48.565352" lon="7.807077">
        <ele>186.0</ele>
        <time>2020-07-12T05:54:20Z</time>
      </trkpt>
      <trkpt lat="48.565321" lon="7.806959">
        <ele>186.0</ele>
        <time>2020-07-12T05:54:22Z</time>
      </trkpt>
      <trkpt lat="48.565292" lon="7.806808">
        <ele>186.0</ele>
        <time>2020-07-12T05:54:24Z</time>
      </trkpt>
      <trkpt lat="48.565263" lon="7.806666">
        <ele>187.0</ele>
        <time>2020-07-12T05:54:26Z</time>
      </trkpt>
      <trkpt lat="48.565246" lon="7.80656">
        <ele>187.0</ele>
        <time>2020-07-12T05:54:28Z</time>
      </trkpt>
      <trkpt lat="48.565282" lon="7.806498">
        <ele>187.0</ele>
        <time>2020-07-12T05:54:30Z</time>
      </trkpt>
      <trkpt lat="48.565346" lon="7.806487">
        <ele>187.0</ele>
        <time>2020-07-12T05:54:32Z</time>
      </trkpt>
      <trkpt lat="48.565417" lon="7.806476">
        <ele>187.0</ele>
        <time>2020-07-12T05:54:34Z</time>
      </trkpt>
      <trkpt lat="48.565493" lon="7.806448">
        <ele>188.0</ele>
        <time>2020-07-12T05:54:36Z</time>
      </trkpt>
      <trkpt lat="48.565578" lon="7.806429">
        <ele>187.0</ele>
        <time>2020-07-12T05:54:38Z</time>
      </trkpt>
      <trkpt lat="48.565669" lon="7.806424">
        <ele>187.0</ele>
        <time>2020-07-12T05:54:40Z</time>
      </trkpt>
      <trkpt lat="48.565763" lon="7.806415">
        <ele>187.0</ele>
        <time>2020-07-12T05:54:42Z</time>
      </trkpt>
      <trkpt lat="48.565855" lon="7.806398">
        <ele>187.0</ele>
        <time>2020-07-12T05:54:44Z</time>
      </trkpt>
      <trkpt lat="48.565951" lon="7.806385">
        <ele>187.0</ele>
        <time>2020-07-12T05:54:46Z</time>
      </trkpt>
      <trkpt lat="48.566043" lon="7.806374">
        <ele>187.0</ele>
        <time>2020-07-12T05:54:48Z</time>
      </trkpt>
      <trkpt lat="48.566142" lon="7.806351">
        <ele>187.0</ele>
        <time>2020-07-12T05:54:50Z</time>
      </trkpt>
      <trkpt lat="48.56623" lon="7.806328">
        <ele>187.0</ele>
        <time>2020-07-12T05:54:52Z</time>
      </trkpt>
      <trkpt lat="48.566318" lon="7.806308">
        <ele>187.0</ele>
        <time>2020-07-12T05:54:54Z</time>
      </trkpt>
      <trkpt lat="48.566404" lon="7.806291">
        <ele>186.0</ele>
        <time>2020-07-12T05:54:56Z</time>
      </trkpt>
      <trkpt lat="48.566498" lon="7.806275">
        <ele>186.0</ele>
        <time>2020-07-12T05:54:58Z</time>
      </trkpt>
      <trkpt lat="48.566592" lon="7.806252">
        <ele>186.0</ele>
        <time>2020-07-12T05:55:00Z</time>
      </trkpt>
      <trkpt lat="48.566683" lon="7.806216">
        <ele>186.0</ele>
        <time>2020-07-12T05:55:02Z</time>
      </trkpt>
      <trkpt lat="48.566776" lon="7.806173">
        <ele>186.0</ele>
        <time>2020-07-12T05:55:04Z</time>
      </trkpt>
      <trkpt lat="48.566868" lon="7.806145">
        <ele>186.0</ele>
        <time>2020-07-12T05:55:06Z</time>
      </trkpt>
      <trkpt lat="48.567009" lon="7.806137">
        <ele>186.0</ele>
        <time>2020-07-12T05:55:09Z</time>
      </trkpt>
      <trkpt lat="48.567106" lon="7.806134">
        <ele>186.0</ele>
        <time>2020-07-12T05:55:11Z</time>
      </trkpt>
      <trkpt lat="48.567198" lon="7.806119">
        <ele>187.0</ele>
        <time>2020-07-12T05:55:13Z</time>
      </trkpt>
      <trkpt lat="48.567294" lon="7.806091">
        <ele>186.0</ele>
        <time>2020-07-12T05:55:15Z</time>
      </trkpt>
      <trkpt lat="48.567388" lon="7.806054">
        <ele>186.0</ele>
        <time>2020-07-12T05:55:17Z</time>
      </trkpt>
      <trkpt lat="48.567482" lon="7.806018">
        <ele>187.0</ele>
        <time>2020-07-12T05:55:19Z</time>
      </trkpt>
      <trkpt lat="48.567576" lon="7.805987">
        <ele>187.0</ele>
        <time>2020-07-12T05:55:21Z</time>
      </trkpt>
      <trkpt lat="48.56767" lon="7.805951">
        <ele>187.0</ele>
        <time>2020-07-12T05:55:23Z</time>
      </trkpt>
      <trkpt lat="48.56777" lon="7.805922">
        <ele>187.0</ele>
        <time>2020-07-12T05:55:25Z</time>
      </trkpt>
      <trkpt lat="48.567858" lon="7.805891">
        <ele>187.0</ele>
        <time>2020-07-12T05:55:27Z</time>
      </trkpt>
      <trkpt lat="48.567951" lon="7.805865">
        <ele>187.0</ele>
        <time>2020-07-12T05:55:29Z</time>
      </trkpt>
      <trkpt lat="48.568042" lon="7.805835">
        <ele>187.0</ele>
        <time>2020-07-12T05:55:31Z</time>
      </trkpt>
      <trkpt lat="48.568141" lon="7.805799">
        <ele>188.0</ele>
        <time>2020-07-12T05:55:33Z</time>
      </trkpt>
      <trkpt lat="48.568238" lon="7.805762">
        <ele>188.0</ele>
        <time>2020-07-12T05:55:35Z</time>
      </trkpt>
      <trkpt lat="48.568336" lon="7.805735">
        <ele>187.0</ele>
        <time>2020-07-12T05:55:37Z</time>
      </trkpt>
      <trkpt lat="48.568432" lon="7.805698">
        <ele>188.0</ele>
        <time>2020-07-12T05:55:39Z</time>
      </trkpt>
      <trkpt lat="48.568522" lon="7.805668">
        <ele>188.0</ele>
        <time>2020-07-12T05:55:41Z</time>
      </trkpt>
      <trkpt lat="48.568613" lon="7.805638">
        <ele>188.0</ele>
        <time>2020-07-12T05:55:43Z</time>
      </trkpt>
      <trkpt lat="48.568701" lon="7.805606">
        <ele>188.0</ele>
        <time>2020-07-12T05:55:45Z</time>
      </trkpt>
      <trkpt lat="48.568793" lon="7.805579">
        <ele>188.0</ele>
        <time>2020-07-12T05:55:47Z</time>
      </trkpt>
      <trkpt lat="48.568887" lon="7.805542">
        <ele>188.0</ele>
        <time>2020-07-12T05:55:49Z</time>
      </trkpt>
      <trkpt lat="48.568973" lon="7.805487">
        <ele>188.0</ele>
        <time>2020-07-12T05:55:51Z</time>
      </trkpt>
      <trkpt lat="48.569052" lon="7.805412">
        <ele>188.0</ele>
        <time>2020-07-12T05:55:53Z</time>
      </trkpt>
      <trkpt lat="48.569136" lon="7.805351">
        <ele>188.0</ele>
        <time>2020-07-12T05:55:55Z</time>
      </trkpt>
      <trkpt lat="48.569226" lon="7.805316">
        <ele>188.0</ele>
        <time>2020-07-12T05:55:57Z</time>
      </trkpt>
      <trkpt lat="48.569316" lon="7.805287">
        <ele>189.0</ele>
        <time>2020-07-12T05:55:59Z</time>
      </trkpt>
      <trkpt lat="48.569397" lon="7.805302">
        <ele>189.0</ele>
        <time>2020-07-12T05:56:01Z</time>
      </trkpt>
      <trkpt lat="48.569431" lon="7.805429">
        <ele>189.0</ele>
        <time>2020-07-12T05:56:03Z</time>
      </trkpt>
      <trkpt lat="48.569435" lon="7.805535">
        <ele>189.0</ele>
        <time>2020-07-12T05:56:05Z</time>
      </trkpt>
      <trkpt lat="48.56945" lon="7.805664">
        <ele>189.0</ele>
        <time>2020-07-12T05:56:07Z</time>
      </trkpt>
      <trkpt lat="48.569469" lon="7.805783">
        <ele>188.0</ele>
        <time>2020-07-12T05:56:09Z</time>
      </trkpt>
      <trkpt lat="48.569479" lon="7.805885">
        <ele>188.0</ele>
        <time>2020-07-12T05:56:11Z</time>
      </trkpt>
      <trkpt lat="48.569498" lon="7.80598">
        <ele>188.0</ele>
        <time>2020-07-12T05:56:13Z</time>
      </trkpt>
      <trkpt lat="48.569519" lon="7.806073">
        <ele>188.0</ele>
        <time>2020-07-12T05:56:15Z</time>
      </trkpt>
      <trkpt lat="48.569547" lon="7.806148">
        <ele>188.0</ele>
        <time>2020-07-12T05:56:17Z</time>
      </trkpt>
      <trkpt lat="48.569575" lon="7.806221">
        <ele>188.0</ele>
        <time>2020-07-12T05:56:19Z</time>
      </trkpt>
      <trkpt lat="48.56962" lon="7.806211">
        <ele>188.0</ele>
        <time>2020-07-12T05:56:21Z</time>
      </trkpt>
      <trkpt lat="48.569623" lon="7.806142">
        <ele>188.0</ele>
        <time>2020-07-12T05:56:23Z</time>
      </trkpt>
      <trkpt lat="48.569597" lon="7.80608">
        <ele>188.0</ele>
        <time>2020-07-12T05:56:25Z</time>
      </trkpt>
      <trkpt lat="48.569581" lon="7.806008">
        <ele>188.0</ele>
        <time>2020-07-12T05:56:27Z</time>
      </trkpt>
      <trkpt lat="48.569568" lon="7.805943">
        <ele>189.0</ele>
        <time>2020-07-12T05:56:29Z</time>
      </trkpt>
      <trkpt lat="48.569556" lon="7.80587">
        <ele>189.0</ele>
        <time>2020-07-12T05:56:31Z</time>
      </trkpt>
      <trkpt lat="48.569546" lon="7.805806">
        <ele>189.0</ele>
        <time>2020-07-12T05:56:33Z</time>
      </trkpt>
      <trkpt lat="48.569536" lon="7.80574">
        <ele>189.0</ele>
        <time>2020-07-12T05:56:35Z</time>
      </trkpt>
      <trkpt lat="48.569527" lon="7.805666">
        <ele>189.0</ele>
        <time>2020-07-12T05:56:37Z</time>
      </trkpt>
      <trkpt lat="48.569509" lon="7.805606">
        <ele>189.0</ele>
        <time>2020-07-12T05:56:39Z</time>
      </trkpt>
      <trkpt lat="48.569486" lon="7.805542">
        <ele>189.0</ele>
        <time>2020-07-12T05:56:41Z</time>
      </trkpt>
      <trkpt lat="48.569475" lon="7.80551">
        <ele>189.0</ele>
        <time>2020-07-12T05:56:43Z</time>
      </trkpt>
      <trkpt lat="48.569433" lon="7.805385">
        <ele>191.0</ele>
        <time>2020-07-12T05:56:47Z</time>
      </trkpt>
      <trkpt lat="48.569423" lon="7.805351">
        <ele>191.0</ele>
        <time>2020-07-12T05:56:48Z</time>
      </trkpt>
      <trkpt lat="48.569327" lon="7.805095">
        <ele>193.0</ele>
        <time>2020-07-12T05:56:56Z</time>
      </trkpt>
      <trkpt lat="48.56931" lon="7.805028">
        <ele>193.0</ele>
        <time>2020-07-12T05:56:58Z</time>
      </trkpt>
      <trkpt lat="48.569293" lon="7.804965">
        <ele>194.0</ele>
        <time>2020-07-12T05:57:00Z</time>
      </trkpt>
      <trkpt lat="48.569271" lon="7.804898">
        <ele>194.0</ele>
        <time>2020-07-12T05:57:02Z</time>
      </trkpt>
      <trkpt lat="48.569252" lon="7.804822">
        <ele>194.0</ele>
        <time>2020-07-12T05:57:04Z</time>
      </trkpt>
      <trkpt lat="48.569232" lon="7.804754">
        <ele>194.0</ele>
        <time>2020-07-12T05:57:06Z</time>
      </trkpt>
      <trkpt lat="48.569212" lon="7.804684">
        <ele>194.0</ele>
        <time>2020-07-12T05:57:08Z</time>
      </trkpt>
      <trkpt lat="48.569191" lon="7.804618">
        <ele>195.0</ele>
        <time>2020-07-12T05:57:10Z</time>
      </trkpt>
      <trkpt lat="48.569179" lon="7.804549">
        <ele>195.0</ele>
        <time>2020-07-12T05:57:12Z</time>
      </trkpt>
      <trkpt lat="48.569166" lon="7.804481">
        <ele>195.0</ele>
        <time>2020-07-12T05:57:14Z</time>
      </trkpt>
      <trkpt lat="48.569148" lon="7.804405">
        <ele>196.0</ele>
        <time>2020-07-12T05:57:16Z</time>
      </trkpt>
      <trkpt lat="48.569129" lon="7.804337">
        <ele>195.0</ele>
        <time>2020-07-12T05:57:18Z</time>
      </trkpt>
      <trkpt lat="48.569115" lon="7.804271">
        <ele>196.0</ele>
        <time>2020-07-12T05:57:20Z</time>
      </trkpt>
      <trkpt lat="48.5691" lon="7.804202">
        <ele>196.0</ele>
        <time>2020-07-12T05:57:22Z</time>
      </trkpt>
      <trkpt lat="48.569084" lon="7.80413">
        <ele>196.0</ele>
        <time>2020-07-12T05:57:24Z</time>
      </trkpt>
      <trkpt lat="48.569067" lon="7.80405">
        <ele>196.0</ele>
        <time>2020-07-12T05:57:26Z</time>
      </trkpt>
      <trkpt lat="48.569052" lon="7.803964">
        <ele>197.0</ele>
        <time>2020-07-12T05:57:28Z</time>
      </trkpt>
      <trkpt lat="48.569046" lon="7.80389">
        <ele>197.0</ele>
        <time>2020-07-12T05:57:30Z</time>
      </trkpt>
      <trkpt lat="48.56903" lon="7.803812">
        <ele>197.0</ele>
        <time>2020-07-12T05:57:32Z</time>
      </trkpt>
      <trkpt lat="48.569013" lon="7.803731">
        <ele>197.0</ele>
        <time>2020-07-12T05:57:34Z</time>
      </trkpt>
      <trkpt lat="48.568998" lon="7.803643">
        <ele>197.0</ele>
        <time>2020-07-12T05:57:36Z</time>
      </trkpt>
      <trkpt lat="48.56898" lon="7.803546">
        <ele>196.0</ele>
        <time>2020-07-12T05:57:38Z</time>
      </trkpt>
      <trkpt lat="48.568967" lon="7.803437">
        <ele>196.0</ele>
        <time>2020-07-12T05:57:40Z</time>
      </trkpt>
      <trkpt lat="48.56895" lon="7.803314">
        <ele>196.0</ele>
        <time>2020-07-12T05:57:42Z</time>
      </trkpt>
      <trkpt lat="48.568941" lon="7.80319">
        <ele>197.0</ele>
        <time>2020-07-12T05:57:44Z</time>
      </trkpt>
      <trkpt lat="48.568928" lon="7.803058">
        <ele>198.0</ele>
        <time>2020-07-12T05:57:46Z</time>
      </trkpt>
      <trkpt lat="48.568917" lon="7.802929">
        <ele>198.0</ele>
        <time>2020-07-12T05:57:48Z</time>
      </trkpt>
      <trkpt lat="48.568902" lon="7.802788">
        <ele>197.0</ele>
        <time>2020-07-12T05:57:50Z</time>
      </trkpt>
      <trkpt lat="48.568891" lon="7.802631">
        <ele>197.0</ele>
        <time>2020-07-12T05:57:52Z</time>
      </trkpt>
      <trkpt lat="48.568885" lon="7.802462">
        <ele>197.0</ele>
        <time>2020-07-12T05:57:54Z</time>
      </trkpt>
      <trkpt lat="48.568876" lon="7.802297">
        <ele>197.0</ele>
        <time>2020-07-12T05:57:56Z</time>
      </trkpt>
      <trkpt lat="48.56887" lon="7.802147">
        <ele>196.0</ele>
        <time>2020-07-12T05:57:58Z</time>
      </trkpt>
      <trkpt lat="48.568866" lon="7.801986">
        <ele>196.0</ele>
        <time>2020-07-12T05:58:00Z</time>
      </trkpt>
      <trkpt lat="48.568866" lon="7.801836">
        <ele>196.0</ele>
        <time>2020-07-12T05:58:02Z</time>
      </trkpt>
      <trkpt lat="48.568875" lon="7.801722">
        <ele>195.0</ele>
        <time>2020-07-12T05:58:04Z</time>
      </trkpt>
      <trkpt lat="48.568867" lon="7.801615">
        <ele>194.0</ele>
        <time>2020-07-12T05:58:06Z</time>
      </trkpt>
      <trkpt lat="48.568844" lon="7.801486">
        <ele>193.0</ele>
        <time>2020-07-12T05:58:08Z</time>
      </trkpt>
      <trkpt lat="48.568821" lon="7.801332">
        <ele>191.0</ele>
        <time>2020-07-12T05:58:10Z</time>
      </trkpt>
      <trkpt lat="48.568789" lon="7.801171">
        <ele>190.0</ele>
        <time>2020-07-12T05:58:12Z</time>
      </trkpt>
      <trkpt lat="48.56876" lon="7.800991">
        <ele>190.0</ele>
        <time>2020-07-12T05:58:14Z</time>
      </trkpt>
      <trkpt lat="48.568732" lon="7.800804">
        <ele>190.0</ele>
        <time>2020-07-12T05:58:16Z</time>
      </trkpt>
      <trkpt lat="48.568696" lon="7.800632">
        <ele>189.0</ele>
        <time>2020-07-12T05:58:18Z</time>
      </trkpt>
      <trkpt lat="48.568672" lon="7.800482">
        <ele>188.0</ele>
        <time>2020-07-12T05:58:20Z</time>
      </trkpt>
      <trkpt lat="48.568676" lon="7.800328">
        <ele>187.0</ele>
        <time>2020-07-12T05:58:22Z</time>
      </trkpt>
      <trkpt lat="48.568704" lon="7.800162">
        <ele>187.0</ele>
        <time>2020-07-12T05:58:24Z</time>
      </trkpt>
      <trkpt lat="48.568702" lon="7.800013">
        <ele>188.0</ele>
        <time>2020-07-12T05:58:26Z</time>
      </trkpt>
      <trkpt lat="48.568678" lon="7.799873">
        <ele>188.0</ele>
        <time>2020-07-12T05:58:28Z</time>
      </trkpt>
      <trkpt lat="48.568651" lon="7.799738">
        <ele>188.0</ele>
        <time>2020-07-12T05:58:30Z</time>
      </trkpt>
      <trkpt lat="48.568625" lon="7.799599">
        <ele>188.0</ele>
        <time>2020-07-12T05:58:32Z</time>
      </trkpt>
      <trkpt lat="48.568599" lon="7.799455">
        <ele>188.0</ele>
        <time>2020-07-12T05:58:34Z</time>
      </trkpt>
      <trkpt lat="48.568581" lon="7.799311">
        <ele>188.0</ele>
        <time>2020-07-12T05:58:36Z</time>
      </trkpt>
      <trkpt lat="48.56856" lon="7.79917">
        <ele>188.0</ele>
        <time>2020-07-12T05:58:38Z</time>
      </trkpt>
      <trkpt lat="48.56854" lon="7.799027">
        <ele>188.0</ele>
        <time>2020-07-12T05:58:40Z</time>
      </trkpt>
      <trkpt lat="48.568517" lon="7.798881">
        <ele>187.0</ele>
        <time>2020-07-12T05:58:42Z</time>
      </trkpt>
      <trkpt lat="48.568497" lon="7.798744">
        <ele>187.0</ele>
        <time>2020-07-12T05:58:44Z</time>
      </trkpt>
      <trkpt lat="48.568473" lon="7.798607">
        <ele>187.0</ele>
        <time>2020-07-12T05:58:46Z</time>
      </trkpt>
      <trkpt lat="48.568453" lon="7.798466">
        <ele>187.0</ele>
        <time>2020-07-12T05:58:48Z</time>
      </trkpt>
      <trkpt lat="48.568433" lon="7.798324">
        <ele>187.0</ele>
        <time>2020-07-12T05:58:50Z</time>
      </trkpt>
      <trkpt lat="48.568406" lon="7.79818">
        <ele>187.0</ele>
        <time>2020-07-12T05:58:52Z</time>
      </trkpt>
      <trkpt lat="48.568376" lon="7.798042">
        <ele>187.0</ele>
        <time>2020-07-12T05:58:54Z</time>
      </trkpt>
      <trkpt lat="48.568354" lon="7.797895">
        <ele>187.0</ele>
        <time>2020-07-12T05:58:56Z</time>
      </trkpt>
      <trkpt lat="48.568334" lon="7.797761">
        <ele>186.0</ele>
        <time>2020-07-12T05:58:58Z</time>
      </trkpt>
      <trkpt lat="48.568309" lon="7.797617">
        <ele>186.0</ele>
        <time>2020-07-12T05:59:00Z</time>
      </trkpt>
      <trkpt lat="48.568285" lon="7.79747">
        <ele>186.0</ele>
        <time>2020-07-12T05:59:02Z</time>
      </trkpt>
      <trkpt lat="48.568259" lon="7.797333">
        <ele>186.0</ele>
        <time>2020-07-12T05:59:04Z</time>
      </trkpt>
      <trkpt lat="48.568235" lon="7.797199">
        <ele>186.0</ele>
        <time>2020-07-12T05:59:06Z</time>
      </trkpt>
      <trkpt lat="48.568212" lon="7.79705">
        <ele>187.0</ele>
        <time>2020-07-12T05:59:08Z</time>
      </trkpt>
      <trkpt lat="48.568184" lon="7.796897">
        <ele>187.0</ele>
        <time>2020-07-12T05:59:10Z</time>
      </trkpt>
      <trkpt lat="48.568167" lon="7.796751">
        <ele>187.0</ele>
        <time>2020-07-12T05:59:12Z</time>
      </trkpt>
      <trkpt lat="48.568151" lon="7.796614">
        <ele>186.0</ele>
        <time>2020-07-12T05:59:14Z</time>
      </trkpt>
      <trkpt lat="48.568135" lon="7.79649">
        <ele>186.0</ele>
        <time>2020-07-12T05:59:16Z</time>
      </trkpt>
      <trkpt lat="48.568119" lon="7.796368">
        <ele>186.0</ele>
        <time>2020-07-12T05:59:18Z</time>
      </trkpt>
      <trkpt lat="48.568087" lon="7.796277">
        <ele>186.0</ele>
        <time>2020-07-12T05:59:20Z</time>
      </trkpt>
      <trkpt lat="48.568037" lon="7.796214">
        <ele>186.0</ele>
        <time>2020-07-12T05:59:22Z</time>
      </trkpt>
      <trkpt lat="48.567987" lon="7.796155">
        <ele>186.0</ele>
        <time>2020-07-12T05:59:24Z</time>
      </trkpt>
      <trkpt lat="48.567969" lon="7.796087">
        <ele>187.0</ele>
        <time>2020-07-12T05:59:26Z</time>
      </trkpt>
      <trkpt lat="48.567953" lon="7.796023">
        <ele>187.0</ele>
        <time>2020-07-12T05:59:28Z</time>
      </trkpt>
      <trkpt lat="48.567934" lon="7.795954">
        <ele>187.0</ele>
        <time>2020-07-12T05:59:30Z</time>
      </trkpt>
      <trkpt lat="48.567924" lon="7.795886">
        <ele>187.0</ele>
        <time>2020-07-12T05:59:32Z</time>
      </trkpt>
      <trkpt lat="48.567899" lon="7.79579">
        <ele>188.0</ele>
        <time>2020-07-12T05:59:35Z</time>
      </trkpt>
      <trkpt lat="48.567883" lon="7.795722">
        <ele>188.0</ele>
        <time>2020-07-12T05:59:37Z</time>
      </trkpt>
      <trkpt lat="48.567875" lon="7.795652">
        <ele>189.0</ele>
        <time>2020-07-12T05:59:39Z</time>
      </trkpt>
      <trkpt lat="48.567867" lon="7.795584">
        <ele>189.0</ele>
        <time>2020-07-12T05:59:41Z</time>
      </trkpt>
      <trkpt lat="48.567866" lon="7.795529">
        <ele>189.0</ele>
        <time>2020-07-12T05:59:43Z</time>
      </trkpt>
      <trkpt lat="48.567856" lon="7.795467">
        <ele>189.0</ele>
        <time>2020-07-12T05:59:45Z</time>
      </trkpt>
      <trkpt lat="48.567852" lon="7.795406">
        <ele>189.0</ele>
        <time>2020-07-12T05:59:47Z</time>
      </trkpt>
      <trkpt lat="48.567838" lon="7.795364">
        <ele>189.0</ele>
        <time>2020-07-12T05:59:49Z</time>
      </trkpt>
      <trkpt lat="48.567828" lon="7.79538">
        <ele>189.0</ele>
        <time>2020-07-12T05:59:51Z</time>
      </trkpt>
      <trkpt lat="48.567839" lon="7.795408">
        <ele>189.0</ele>
        <time>2020-07-12T05:59:53Z</time>
      </trkpt>
      <trkpt lat="48.567862" lon="7.795456">
        <ele>189.0</ele>
        <time>2020-07-12T05:59:55Z</time>
      </trkpt>
      <trkpt lat="48.5679" lon="7.795506">
        <ele>189.0</ele>
        <time>2020-07-12T05:59:57Z</time>
      </trkpt>
      <trkpt lat="48.567952" lon="7.795514">
        <ele>189.0</ele>
        <time>2020-07-12T05:59:59Z</time>
      </trkpt>
      <trkpt lat="48.568029" lon="7.795493">
        <ele>189.0</ele>
        <time>2020-07-12T06:00:01Z</time>
      </trkpt>
      <trkpt lat="48.568114" lon="7.795471">
        <ele>189.0</ele>
        <time>2020-07-12T06:00:03Z</time>
      </trkpt>
      <trkpt lat="48.568195" lon="7.795457">
        <ele>189.0</ele>
        <time>2020-07-12T06:00:05Z</time>
      </trkpt>
      <trkpt lat="48.568277" lon="7.795452">
        <ele>190.0</ele>
        <time>2020-07-12T06:00:07Z</time>
      </trkpt>
      <trkpt lat="48.56837" lon="7.795448">
        <ele>189.0</ele>
        <time>2020-07-12T06:00:09Z</time>
      </trkpt>
      <trkpt lat="48.568457" lon="7.795438">
        <ele>190.0</ele>
        <time>2020-07-12T06:00:11Z</time>
      </trkpt>
      <trkpt lat="48.568557" lon="7.795422">
        <ele>190.0</ele>
        <time>2020-07-12T06:00:13Z</time>
      </trkpt>
      <trkpt lat="48.56865" lon="7.795414">
        <ele>191.0</ele>
        <time>2020-07-12T06:00:15Z</time>
      </trkpt>
      <trkpt lat="48.568744" lon="7.795402">
        <ele>190.0</ele>
        <time>2020-07-12T06:00:17Z</time>
      </trkpt>
      <trkpt lat="48.568826" lon="7.795405">
        <ele>190.0</ele>
        <time>2020-07-12T06:00:19Z</time>
      </trkpt>
      <trkpt lat="48.568914" lon="7.795411">
        <ele>189.0</ele>
        <time>2020-07-12T06:00:21Z</time>
      </trkpt>
      <trkpt lat="48.569" lon="7.795425">
        <ele>189.0</ele>
        <time>2020-07-12T06:00:23Z</time>
      </trkpt>
      <trkpt lat="48.569094" lon="7.795436">
        <ele>189.0</ele>
        <time>2020-07-12T06:00:25Z</time>
      </trkpt>
      <trkpt lat="48.569178" lon="7.795442">
        <ele>188.0</ele>
        <time>2020-07-12T06:00:27Z</time>
      </trkpt>
      <trkpt lat="48.569253" lon="7.795483">
        <ele>188.0</ele>
        <time>2020-07-12T06:00:29Z</time>
      </trkpt>
      <trkpt lat="48.569294" lon="7.795579">
        <ele>188.0</ele>
        <time>2020-07-12T06:00:31Z</time>
      </trkpt>
      <trkpt lat="48.569335" lon="7.79565">
        <ele>188.0</ele>
        <time>2020-07-12T06:00:33Z</time>
      </trkpt>
      <trkpt lat="48.569396" lon="7.79568">
        <ele>188.0</ele>
        <time>2020-07-12T06:00:35Z</time>
      </trkpt>
      <trkpt lat="48.569456" lon="7.795699">
        <ele>188.0</ele>
        <time>2020-07-12T06:00:37Z</time>
      </trkpt>
      <trkpt lat="48.569499" lon="7.79578">
        <ele>188.0</ele>
        <time>2020-07-12T06:00:39Z</time>
      </trkpt>
      <trkpt lat="48.569537" lon="7.795869">
        <ele>188.0</ele>
        <time>2020-07-12T06:00:41Z</time>
      </trkpt>
      <trkpt lat="48.569598" lon="7.795981">
        <ele>188.0</ele>
        <time>2020-07-12T06:00:43Z</time>
      </trkpt>
      <trkpt lat="48.569653" lon="7.796088">
        <ele>187.0</ele>
        <time>2020-07-12T06:00:45Z</time>
      </trkpt>
      <trkpt lat="48.569707" lon="7.796191">
        <ele>187.0</ele>
        <time>2020-07-12T06:00:47Z</time>
      </trkpt>
      <trkpt lat="48.569765" lon="7.79629">
        <ele>187.0</ele>
        <time>2020-07-12T06:00:49Z</time>
      </trkpt>
      <trkpt lat="48.569822" lon="7.796382">
        <ele>188.0</ele>
        <time>2020-07-12T06:00:51Z</time>
      </trkpt>
      <trkpt lat="48.569889" lon="7.796415">
        <ele>188.0</ele>
        <time>2020-07-12T06:00:53Z</time>
      </trkpt>
      <trkpt lat="48.569953" lon="7.796389">
        <ele>188.0</ele>
        <time>2020-07-12T06:00:55Z</time>
      </trkpt>
      <trkpt lat="48.570026" lon="7.796336">
        <ele>188.0</ele>
        <time>2020-07-12T06:00:57Z</time>
      </trkpt>
      <trkpt lat="48.5701" lon="7.796284">
        <ele>187.0</ele>
        <time>2020-07-12T06:00:59Z</time>
      </trkpt>
      <trkpt lat="48.57017" lon="7.796225">
        <ele>188.0</ele>
        <time>2020-07-12T06:01:01Z</time>
      </trkpt>
      <trkpt lat="48.570244" lon="7.796172">
        <ele>188.0</ele>
        <time>2020-07-12T06:01:03Z</time>
      </trkpt>
      <trkpt lat="48.570397" lon="7.796074">
        <ele>189.0</ele>
        <time>2020-07-12T06:01:07Z</time>
      </trkpt>
      <trkpt lat="48.570473" lon="7.79603">
        <ele>189.0</ele>
        <time>2020-07-12T06:01:09Z</time>
      </trkpt>
      <trkpt lat="48.570581" lon="7.795959">
        <ele>189.0</ele>
        <time>2020-07-12T06:01:12Z</time>
      </trkpt>
      <trkpt lat="48.570642" lon="7.795927">
        <ele>189.0</ele>
        <time>2020-07-12T06:01:14Z</time>
      </trkpt>
      <trkpt lat="48.570709" lon="7.795874">
        <ele>190.0</ele>
        <time>2020-07-12T06:01:16Z</time>
      </trkpt>
      <trkpt lat="48.570771" lon="7.795829">
        <ele>191.0</ele>
        <time>2020-07-12T06:01:18Z</time>
      </trkpt>
      <trkpt lat="48.570825" lon="7.795795">
        <ele>191.0</ele>
        <time>2020-07-12T06:01:20Z</time>
      </trkpt>
      <trkpt lat="48.570869" lon="7.795772">
        <ele>191.0</ele>
        <time>2020-07-12T06:01:22Z</time>
      </trkpt>
      <trkpt lat="48.570906" lon="7.795745">
        <ele>191.0</ele>
        <time>2020-07-12T06:01:24Z</time>
      </trkpt>
      <trkpt lat="48.570952" lon="7.795727">
        <ele>192.0</ele>
        <time>2020-07-12T06:01:26Z</time>
      </trkpt>
      <trkpt lat="48.571007" lon="7.795703">
        <ele>192.0</ele>
        <time>2020-07-12T06:01:28Z</time>
      </trkpt>
      <trkpt lat="48.571063" lon="7.795675">
        <ele>192.0</ele>
        <time>2020-07-12T06:01:30Z</time>
      </trkpt>
      <trkpt lat="48.571121" lon="7.795645">
        <ele>192.0</ele>
        <time>2020-07-12T06:01:32Z</time>
      </trkpt>
      <trkpt lat="48.571177" lon="7.795609">
        <ele>192.0</ele>
        <time>2020-07-12T06:01:34Z</time>
      </trkpt>
      <trkpt lat="48.57124" lon="7.795542">
        <ele>192.0</ele>
        <time>2020-07-12T06:01:36Z</time>
      </trkpt>
      <trkpt lat="48.571299" lon="7.795473">
        <ele>191.0</ele>
        <time>2020-07-12T06:01:38Z</time>
      </trkpt>
      <trkpt lat="48.571338" lon="7.795368">
        <ele>191.0</ele>
        <time>2020-07-12T06:01:40Z</time>
      </trkpt>
      <trkpt lat="48.571339" lon="7.795255">
        <ele>191.0</ele>
        <time>2020-07-12T06:01:42Z</time>
      </trkpt>
      <trkpt lat="48.571327" lon="7.795128">
        <ele>191.0</ele>
        <time>2020-07-12T06:01:44Z</time>
      </trkpt>
      <trkpt lat="48.571332" lon="7.795003">
        <ele>192.0</ele>
        <time>2020-07-12T06:01:46Z</time>
      </trkpt>
      <trkpt lat="48.571346" lon="7.794884">
        <ele>192.0</ele>
        <time>2020-07-12T06:01:48Z</time>
      </trkpt>
      <trkpt lat="48.571363" lon="7.794772">
        <ele>193.0</ele>
        <time>2020-07-12T06:01:50Z</time>
      </trkpt>
      <trkpt lat="48.57139" lon="7.794659">
        <ele>192.0</ele>
        <time>2020-07-12T06:01:52Z</time>
      </trkpt>
      <trkpt lat="48.571432" lon="7.794522">
        <ele>192.0</ele>
        <time>2020-07-12T06:01:54Z</time>
      </trkpt>
      <trkpt lat="48.571473" lon="7.794394">
        <ele>192.0</ele>
        <time>2020-07-12T06:01:56Z</time>
      </trkpt>
      <trkpt lat="48.571534" lon="7.794264">
        <ele>191.0</ele>
        <time>2020-07-12T06:01:58Z</time>
      </trkpt>
      <trkpt lat="48.571689" lon="7.794006">
        <ele>190.0</ele>
        <time>2020-07-12T06:02:02Z</time>
      </trkpt>
      <trkpt lat="48.571827" lon="7.793838">
        <ele>190.0</ele>
        <time>2020-07-12T06:02:05Z</time>
      </trkpt>
      <trkpt lat="48.571912" lon="7.793733">
        <ele>190.0</ele>
        <time>2020-07-12T06:02:07Z</time>
      </trkpt>
      <trkpt lat="48.571955" lon="7.793697">
        <ele>189.0</ele>
        <time>2020-07-12T06:02:08Z</time>
      </trkpt>
      <trkpt lat="48.572067" lon="7.793498">
        <ele>191.0</ele>
        <time>2020-07-12T06:02:11Z</time>
      </trkpt>
      <trkpt lat="48.572159" lon="7.793412">
        <ele>191.0</ele>
        <time>2020-07-12T06:02:13Z</time>
      </trkpt>
      <trkpt lat="48.572245" lon="7.793317">
        <ele>191.0</ele>
        <time>2020-07-12T06:02:15Z</time>
      </trkpt>
      <trkpt lat="48.572324" lon="7.793216">
        <ele>193.0</ele>
        <time>2020-07-12T06:02:17Z</time>
      </trkpt>
      <trkpt lat="48.572389" lon="7.79313">
        <ele>195.0</ele>
        <time>2020-07-12T06:02:19Z</time>
      </trkpt>
      <trkpt lat="48.572455" lon="7.793052">
        <ele>195.0</ele>
        <time>2020-07-12T06:02:21Z</time>
      </trkpt>
      <trkpt lat="48.572536" lon="7.792981">
        <ele>195.0</ele>
        <time>2020-07-12T06:02:23Z</time>
      </trkpt>
      <trkpt lat="48.572624" lon="7.792938">
        <ele>195.0</ele>
        <time>2020-07-12T06:02:25Z</time>
      </trkpt>
      <trkpt lat="48.572698" lon="7.792899">
        <ele>194.0</ele>
        <time>2020-07-12T06:02:27Z</time>
      </trkpt>
      <trkpt lat="48.572741" lon="7.792846">
        <ele>194.0</ele>
        <time>2020-07-12T06:02:29Z</time>
      </trkpt>
      <trkpt lat="48.572752" lon="7.792774">
        <ele>193.0</ele>
        <time>2020-07-12T06:02:31Z</time>
      </trkpt>
      <trkpt lat="48.572757" lon="7.792724">
        <ele>192.0</ele>
        <time>2020-07-12T06:02:33Z</time>
      </trkpt>
      <trkpt lat="48.572728" lon="7.792683">
        <ele>192.0</ele>
        <time>2020-07-12T06:02:35Z</time>
      </trkpt>
      <trkpt lat="48.572692" lon="7.792645">
        <ele>193.0</ele>
        <time>2020-07-12T06:02:37Z</time>
      </trkpt>
      <trkpt lat="48.572644" lon="7.792604">
        <ele>193.0</ele>
        <time>2020-07-12T06:02:39Z</time>
      </trkpt>
      <trkpt lat="48.572605" lon="7.792573">
        <ele>192.0</ele>
        <time>2020-07-12T06:02:41Z</time>
      </trkpt>
      <trkpt lat="48.572565" lon="7.792549">
        <ele>192.0</ele>
        <time>2020-07-12T06:02:43Z</time>
      </trkpt>
      <trkpt lat="48.572512" lon="7.79251">
        <ele>191.0</ele>
        <time>2020-07-12T06:02:45Z</time>
      </trkpt>
      <trkpt lat="48.572487" lon="7.792477">
        <ele>191.0</ele>
        <time>2020-07-12T06:02:46Z</time>
      </trkpt>
      <trkpt lat="48.57241" lon="7.792376">
        <ele>191.0</ele>
        <time>2020-07-12T06:02:49Z</time>
      </trkpt>
      <trkpt lat="48.572367" lon="7.792294">
        <ele>192.0</ele>
        <time>2020-07-12T06:02:51Z</time>
      </trkpt>
      <trkpt lat="48.57233" lon="7.79221">
        <ele>192.0</ele>
        <time>2020-07-12T06:02:53Z</time>
      </trkpt>
      <trkpt lat="48.572292" lon="7.792137">
        <ele>192.0</ele>
        <time>2020-07-12T06:02:55Z</time>
      </trkpt>
      <trkpt lat="48.572264" lon="7.792073">
        <ele>192.0</ele>
        <time>2020-07-12T06:02:57Z</time>
      </trkpt>
      <trkpt lat="48.57225" lon="7.792032">
        <ele>192.0</ele>
        <time>2020-07-12T06:02:59Z</time>
      </trkpt>
      <trkpt lat="48.572235" lon="7.792057">
        <ele>191.0</ele>
        <time>2020-07-12T06:03:01Z</time>
      </trkpt>
      <trkpt lat="48.572255" lon="7.792088">
        <ele>191.0</ele>
        <time>2020-07-12T06:03:03Z</time>
      </trkpt>
      <trkpt lat="48.572291" lon="7.79213">
        <ele>190.0</ele>
        <time>2020-07-12T06:03:05Z</time>
      </trkpt>
      <trkpt lat="48.572327" lon="7.792193">
        <ele>189.0</ele>
        <time>2020-07-12T06:03:07Z</time>
      </trkpt>
      <trkpt lat="48.572369" lon="7.792265">
        <ele>189.0</ele>
        <time>2020-07-12T06:03:09Z</time>
      </trkpt>
      <trkpt lat="48.572417" lon="7.792348">
        <ele>189.0</ele>
        <time>2020-07-12T06:03:11Z</time>
      </trkpt>
      <trkpt lat="48.572489" lon="7.792469">
        <ele>188.0</ele>
        <time>2020-07-12T06:03:14Z</time>
      </trkpt>
      <trkpt lat="48.572536" lon="7.792546">
        <ele>188.0</ele>
        <time>2020-07-12T06:03:16Z</time>
      </trkpt>
      <trkpt lat="48.572589" lon="7.792582">
        <ele>188.0</ele>
        <time>2020-07-12T06:03:18Z</time>
      </trkpt>
      <trkpt lat="48.572626" lon="7.792587">
        <ele>189.0</ele>
        <time>2020-07-12T06:03:20Z</time>
      </trkpt>
      <trkpt lat="48.572664" lon="7.792613">
        <ele>190.0</ele>
        <time>2020-07-12T06:03:22Z</time>
      </trkpt>
      <trkpt lat="48.572707" lon="7.792641">
        <ele>191.0</ele>
        <time>2020-07-12T06:03:24Z</time>
      </trkpt>
      <trkpt lat="48.572749" lon="7.792672">
        <ele>190.0</ele>
        <time>2020-07-12T06:03:26Z</time>
      </trkpt>
      <trkpt lat="48.572797" lon="7.7927">
        <ele>189.0</ele>
        <time>2020-07-12T06:03:28Z</time>
      </trkpt>
      <trkpt lat="48.57284" lon="7.79271">
        <ele>189.0</ele>
        <time>2020-07-12T06:03:30Z</time>
      </trkpt>
      <trkpt lat="48.572871" lon="7.792662">
        <ele>189.0</ele>
        <time>2020-07-12T06:03:32Z</time>
      </trkpt>
      <trkpt lat="48.572894" lon="7.792603">
        <ele>189.0</ele>
        <time>2020-07-12T06:03:34Z</time>
      </trkpt>
      <trkpt lat="48.572901" lon="7.792572">
        <ele>188.0</ele>
        <time>2020-07-12T06:03:36Z</time>
      </trkpt>
      <trkpt lat="48.572899" lon="7.792571">
        <ele>188.0</ele>
        <time>2020-07-12T06:03:38Z</time>
      </trkpt>
      <trkpt lat="48.572904" lon="7.792574">
        <ele>188.0</ele>
        <time>2020-07-12T06:03:40Z</time>
      </trkpt>
      <trkpt lat="48.572904" lon="7.792574">
        <ele>188.0</ele>
        <time>2020-07-12T06:03:42Z</time>
      </trkpt>
      <trkpt lat="48.572904" lon="7.792574">
        <ele>188.0</ele>
        <time>2020-07-12T06:03:44Z</time>
      </trkpt>
      <trkpt lat="48.57293" lon="7.792608">
        <ele>185.0</ele>
        <time>2020-07-12T06:10:49Z</time>
      </trkpt>
      <trkpt lat="48.57293" lon="7.792608">
        <ele>185.0</ele>
        <time>2020-07-12T06:10:51Z</time>
      </trkpt>
      <trkpt lat="48.57293" lon="7.792608">
        <ele>185.0</ele>
        <time>2020-07-12T06:10:53Z</time>
      </trkpt>
      <trkpt lat="48.57293" lon="7.792608">
        <ele>185.0</ele>
        <time>2020-07-12T06:10:55Z</time>
      </trkpt>
      <trkpt lat="48.57293" lon="7.792608">
        <ele>185.0</ele>
        <time>2020-07-12T06:10:57Z</time>
      </trkpt>
      <trkpt lat="48.57293" lon="7.792608">
        <ele>185.0</ele>
        <time>2020-07-12T06:10:59Z</time>
      </trkpt>
      <trkpt lat="48.57293" lon="7.792608">
        <ele>185.0</ele>
        <time>2020-07-12T06:11:01Z</time>
      </trkpt>
      <trkpt lat="48.57293" lon="7.792608">
        <ele>185.0</ele>
        <time>2020-07-12T06:11:03Z</time>
      </trkpt>
      <trkpt lat="48.57293" lon="7.792608">
        <ele>185.0</ele>
        <time>2020-07-12T06:11:05Z</time>
      </trkpt>
      <trkpt lat="48.57293" lon="7.792608">
        <ele>185.0</ele>
        <time>2020-07-12T06:11:07Z</time>
      </trkpt>
      <trkpt lat="48.57293" lon="7.792608">
        <ele>185.0</ele>
        <time>2020-07-12T06:11:09Z</time>
      </trkpt>
      <trkpt lat="48.57293" lon="7.792608">
        <ele>185.0</ele>
        <time>2020-07-12T06:11:11Z</time>
      </trkpt>
      <trkpt lat="48.572936" lon="7.792586">
        <ele>185.0</ele>
        <time>2020-07-12T06:11:13Z</time>
      </trkpt>
      <trkpt lat="48.572954" lon="7.792539">
        <ele>185.0</ele>
        <time>2020-07-12T06:11:15Z</time>
      </trkpt>
      <trkpt lat="48.572971" lon="7.792459">
        <ele>186.0</ele>
        <time>2020-07-12T06:11:17Z</time>
      </trkpt>
      <trkpt lat="48.572984" lon="7.792363">
        <ele>187.0</ele>
        <time>2020-07-12T06:11:19Z</time>
      </trkpt>
      <trkpt lat="48.573001" lon="7.79223">
        <ele>187.0</ele>
        <time>2020-07-12T06:11:21Z</time>
      </trkpt>
      <trkpt lat="48.573025" lon="7.792106">
        <ele>187.0</ele>
        <time>2020-07-12T06:11:23Z</time>
      </trkpt>
      <trkpt lat="48.573044" lon="7.791979">
        <ele>187.0</ele>
        <time>2020-07-12T06:11:25Z</time>
      </trkpt>
      <trkpt lat="48.573065" lon="7.791838">
        <ele>188.0</ele>
        <time>2020-07-12T06:11:27Z</time>
      </trkpt>
      <trkpt lat="48.573094" lon="7.79169">
        <ele>188.0</ele>
        <time>2020-07-12T06:11:29Z</time>
      </trkpt>
      <trkpt lat="48.573122" lon="7.791539">
        <ele>188.0</ele>
        <time>2020-07-12T06:11:31Z</time>
      </trkpt>
      <trkpt lat="48.573149" lon="7.79139">
        <ele>188.0</ele>
        <time>2020-07-12T06:11:33Z</time>
      </trkpt>
      <trkpt lat="48.573188" lon="7.791251">
        <ele>188.0</ele>
        <time>2020-07-12T06:11:35Z</time>
      </trkpt>
      <trkpt lat="48.573234" lon="7.791091">
        <ele>187.0</ele>
        <time>2020-07-12T06:11:37Z</time>
      </trkpt>
      <trkpt lat="48.573272" lon="7.79094">
        <ele>187.0</ele>
        <time>2020-07-12T06:11:39Z</time>
      </trkpt>
      <trkpt lat="48.573306" lon="7.790791">
        <ele>187.0</ele>
        <time>2020-07-12T06:11:41Z</time>
      </trkpt>
      <trkpt lat="48.573334" lon="7.790647">
        <ele>187.0</ele>
        <time>2020-07-12T06:11:43Z</time>
      </trkpt>
      <trkpt lat="48.573352" lon="7.790552">
        <ele>187.0</ele>
        <time>2020-07-12T06:11:45Z</time>
      </trkpt>
      <trkpt lat="48.573372" lon="7.790485">
        <ele>187.0</ele>
        <time>2020-07-12T06:11:47Z</time>
      </trkpt>
      <trkpt lat="48.573388" lon="7.790419">
        <ele>187.0</ele>
        <time>2020-07-12T06:11:49Z</time>
      </trkpt>
      <trkpt lat="48.573402" lon="7.790321">
        <ele>187.0</ele>
        <time>2020-07-12T06:11:51Z</time>
      </trkpt>
      <trkpt lat="48.573426" lon="7.790205">
        <ele>186.0</ele>
        <time>2020-07-12T06:11:53Z</time>
      </trkpt>
      <trkpt lat="48.573477" lon="7.790098">
        <ele>187.0</ele>
        <time>2020-07-12T06:11:55Z</time>
      </trkpt>
      <trkpt lat="48.573497" lon="7.789975">
        <ele>186.0</ele>
        <time>2020-07-12T06:11:57Z</time>
      </trkpt>
      <trkpt lat="48.573527" lon="7.789842">
        <ele>186.0</ele>
        <time>2020-07-12T06:11:59Z</time>
      </trkpt>
      <trkpt lat="48.573555" lon="7.78971">
        <ele>187.0</ele>
        <time>2020-07-12T06:12:01Z</time>
      </trkpt>
      <trkpt lat="48.573573" lon="7.789589">
        <ele>188.0</ele>
        <time>2020-07-12T06:12:03Z</time>
      </trkpt>
      <trkpt lat="48.573597" lon="7.789523">
        <ele>188.0</ele>
        <time>2020-07-12T06:12:05Z</time>
      </trkpt>
      <trkpt lat="48.57362" lon="7.789456">
        <ele>189.0</ele>
        <time>2020-07-12T06:12:07Z</time>
      </trkpt>
      <trkpt lat="48.57364" lon="7.789374">
        <ele>189.0</ele>
        <time>2020-07-12T06:12:09Z</time>
      </trkpt>
      <trkpt lat="48.573667" lon="7.789297">
        <ele>189.0</ele>
        <time>2020-07-12T06:12:11Z</time>
      </trkpt>
      <trkpt lat="48.573698" lon="7.789206">
        <ele>189.0</ele>
        <time>2020-07-12T06:12:13Z</time>
      </trkpt>
      <trkpt lat="48.573728" lon="7.789114">
        <ele>189.0</ele>
        <time>2020-07-12T06:12:15Z</time>
      </trkpt>
      <trkpt lat="48.573755" lon="7.78902">
        <ele>189.0</ele>
        <time>2020-07-12T06:12:17Z</time>
      </trkpt>
      <trkpt lat="48.573802" lon="7.788877">
        <ele>189.0</ele>
        <time>2020-07-12T06:12:20Z</time>
      </trkpt>
      <trkpt lat="48.573814" lon="7.788832">
        <ele>189.0</ele>
        <time>2020-07-12T06:12:21Z</time>
      </trkpt>
      <trkpt lat="48.573837" lon="7.788745">
        <ele>189.0</ele>
        <time>2020-07-12T06:12:23Z</time>
      </trkpt>
      <trkpt lat="48.573856" lon="7.788652">
        <ele>190.0</ele>
        <time>2020-07-12T06:12:25Z</time>
      </trkpt>
      <trkpt lat="48.573891" lon="7.788525">
        <ele>190.0</ele>
        <time>2020-07-12T06:12:28Z</time>
      </trkpt>
      <trkpt lat="48.573917" lon="7.788439">
        <ele>190.0</ele>
        <time>2020-07-12T06:12:30Z</time>
      </trkpt>
      <trkpt lat="48.573941" lon="7.788355">
        <ele>191.0</ele>
        <time>2020-07-12T06:12:32Z</time>
      </trkpt>
      <trkpt lat="48.573959" lon="7.78827">
        <ele>191.0</ele>
        <time>2020-07-12T06:12:34Z</time>
      </trkpt>
      <trkpt lat="48.573978" lon="7.788186">
        <ele>191.0</ele>
        <time>2020-07-12T06:12:36Z</time>
      </trkpt>
      <trkpt lat="48.574" lon="7.788103">
        <ele>191.0</ele>
        <time>2020-07-12T06:12:38Z</time>
      </trkpt>
      <trkpt lat="48.574017" lon="7.788014">
        <ele>191.0</ele>
        <time>2020-07-12T06:12:40Z</time>
      </trkpt>
      <trkpt lat="48.57404" lon="7.787925">
        <ele>191.0</ele>
        <time>2020-07-12T06:12:42Z</time>
      </trkpt>
      <trkpt lat="48.574057" lon="7.787824">
        <ele>192.0</ele>
        <time>2020-07-12T06:12:44Z</time>
      </trkpt>
      <trkpt lat="48.574079" lon="7.787717">
        <ele>192.0</ele>
        <time>2020-07-12T06:12:46Z</time>
      </trkpt>
      <trkpt lat="48.5741" lon="7.787606">
        <ele>192.0</ele>
        <time>2020-07-12T06:12:48Z</time>
      </trkpt>
      <trkpt lat="48.574113" lon="7.787493">
        <ele>192.0</ele>
        <time>2020-07-12T06:12:50Z</time>
      </trkpt>
      <trkpt lat="48.574131" lon="7.787389">
        <ele>192.0</ele>
        <time>2020-07-12T06:12:52Z</time>
      </trkpt>
      <trkpt lat="48.574143" lon="7.787279">
        <ele>191.0</ele>
        <time>2020-07-12T06:12:54Z</time>
      </trkpt>
      <trkpt lat="48.574165" lon="7.787118">
        <ele>192.0</ele>
        <time>2020-07-12T06:12:57Z</time>
      </trkpt>
      <trkpt lat="48.574178" lon="7.787014">
        <ele>192.0</ele>
        <time>2020-07-12T06:12:59Z</time>
      </trkpt>
      <trkpt lat="48.574192" lon="7.786921">
        <ele>192.0</ele>
        <time>2020-07-12T06:13:01Z</time>
      </trkpt>
      <trkpt lat="48.574195" lon="7.786879">
        <ele>192.0</ele>
        <time>2020-07-12T06:13:02Z</time>
      </trkpt>
      <trkpt lat="48.574199" lon="7.786795">
        <ele>192.0</ele>
        <time>2020-07-12T06:13:04Z</time>
      </trkpt>
      <trkpt lat="48.574205" lon="7.786711">
        <ele>192.0</ele>
        <time>2020-07-12T06:13:06Z</time>
      </trkpt>
      <trkpt lat="48.574207" lon="7.78662">
        <ele>192.0</ele>
        <time>2020-07-12T06:13:08Z</time>
      </trkpt>
      <trkpt lat="48.574207" lon="7.78647">
        <ele>192.0</ele>
        <time>2020-07-12T06:13:11Z</time>
      </trkpt>
      <trkpt lat="48.574209" lon="7.786415">
        <ele>192.0</ele>
        <time>2020-07-12T06:13:12Z</time>
      </trkpt>
      <trkpt lat="48.574217" lon="7.786232">
        <ele>192.0</ele>
        <time>2020-07-12T06:13:15Z</time>
      </trkpt>
      <trkpt lat="48.574223" lon="7.786039">
        <ele>192.0</ele>
        <time>2020-07-12T06:13:18Z</time>
      </trkpt>
      <trkpt lat="48.574226" lon="7.785842">
        <ele>193.0</ele>
        <time>2020-07-12T06:13:21Z</time>
      </trkpt>
      <trkpt lat="48.574222" lon="7.785712">
        <ele>192.0</ele>
        <time>2020-07-12T06:13:23Z</time>
      </trkpt>
      <trkpt lat="48.574213" lon="7.785575">
        <ele>192.0</ele>
        <time>2020-07-12T06:13:25Z</time>
      </trkpt>
      <trkpt lat="48.574203" lon="7.785436">
        <ele>192.0</ele>
        <time>2020-07-12T06:13:27Z</time>
      </trkpt>
      <trkpt lat="48.574192" lon="7.785297">
        <ele>191.0</ele>
        <time>2020-07-12T06:13:29Z</time>
      </trkpt>
      <trkpt lat="48.574172" lon="7.785147">
        <ele>191.0</ele>
        <time>2020-07-12T06:13:31Z</time>
      </trkpt>
      <trkpt lat="48.574152" lon="7.785021">
        <ele>191.0</ele>
        <time>2020-07-12T06:13:33Z</time>
      </trkpt>
      <trkpt lat="48.574143" lon="7.784912">
        <ele>192.0</ele>
        <time>2020-07-12T06:13:35Z</time>
      </trkpt>
      <trkpt lat="48.574138" lon="7.784868">
        <ele>192.0</ele>
        <time>2020-07-12T06:13:36Z</time>
      </trkpt>
      <trkpt lat="48.574125" lon="7.784791">
        <ele>192.0</ele>
        <time>2020-07-12T06:13:39Z</time>
      </trkpt>
      <trkpt lat="48.574126" lon="7.784789">
        <ele>192.0</ele>
        <time>2020-07-12T06:13:41Z</time>
      </trkpt>
      <trkpt lat="48.574118" lon="7.784751">
        <ele>191.0</ele>
        <time>2020-07-12T06:13:43Z</time>
      </trkpt>
      <trkpt lat="48.574114" lon="7.784674">
        <ele>191.0</ele>
        <time>2020-07-12T06:13:45Z</time>
      </trkpt>
      <trkpt lat="48.574103" lon="7.784595">
        <ele>191.0</ele>
        <time>2020-07-12T06:13:47Z</time>
      </trkpt>
      <trkpt lat="48.574089" lon="7.784517">
        <ele>192.0</ele>
        <time>2020-07-12T06:13:49Z</time>
      </trkpt>
      <trkpt lat="48.574074" lon="7.784437">
        <ele>192.0</ele>
        <time>2020-07-12T06:13:51Z</time>
      </trkpt>
      <trkpt lat="48.574063" lon="7.784342">
        <ele>193.0</ele>
        <time>2020-07-12T06:13:53Z</time>
      </trkpt>
      <trkpt lat="48.57405" lon="7.784247">
        <ele>193.0</ele>
        <time>2020-07-12T06:13:55Z</time>
      </trkpt>
      <trkpt lat="48.574027" lon="7.784155">
        <ele>193.0</ele>
        <time>2020-07-12T06:13:57Z</time>
      </trkpt>
      <trkpt lat="48.574008" lon="7.784061">
        <ele>193.0</ele>
        <time>2020-07-12T06:13:59Z</time>
      </trkpt>
      <trkpt lat="48.57399" lon="7.783962">
        <ele>194.0</ele>
        <time>2020-07-12T06:14:01Z</time>
      </trkpt>
      <trkpt lat="48.57397" lon="7.78387">
        <ele>194.0</ele>
        <time>2020-07-12T06:14:03Z</time>
      </trkpt>
      <trkpt lat="48.573946" lon="7.783781">
        <ele>195.0</ele>
        <time>2020-07-12T06:14:05Z</time>
      </trkpt>
      <trkpt lat="48.573922" lon="7.783694">
        <ele>195.0</ele>
        <time>2020-07-12T06:14:07Z</time>
      </trkpt>
      <trkpt lat="48.573898" lon="7.783602">
        <ele>195.0</ele>
        <time>2020-07-12T06:14:09Z</time>
      </trkpt>
      <trkpt lat="48.57387" lon="7.783518">
        <ele>195.0</ele>
        <time>2020-07-12T06:14:11Z</time>
      </trkpt>
      <trkpt lat="48.57384" lon="7.783426">
        <ele>196.0</ele>
        <time>2020-07-12T06:14:13Z</time>
      </trkpt>
      <trkpt lat="48.573814" lon="7.783336">
        <ele>196.0</ele>
        <time>2020-07-12T06:14:15Z</time>
      </trkpt>
      <trkpt lat="48.573787" lon="7.783247">
        <ele>196.0</ele>
        <time>2020-07-12T06:14:17Z</time>
      </trkpt>
      <trkpt lat="48.573759" lon="7.783157">
        <ele>196.0</ele>
        <time>2020-07-12T06:14:19Z</time>
      </trkpt>
      <trkpt lat="48.573733" lon="7.783072">
        <ele>197.0</ele>
        <time>2020-07-12T06:14:21Z</time>
      </trkpt>
      <trkpt lat="48.573707" lon="7.782982">
        <ele>197.0</ele>
        <time>2020-07-12T06:14:23Z</time>
      </trkpt>
      <trkpt lat="48.573675" lon="7.782893">
        <ele>198.0</ele>
        <time>2020-07-12T06:14:25Z</time>
      </trkpt>
      <trkpt lat="48.573648" lon="7.782802">
        <ele>197.0</ele>
        <time>2020-07-12T06:14:27Z</time>
      </trkpt>
      <trkpt lat="48.573623" lon="7.782716">
        <ele>197.0</ele>
        <time>2020-07-12T06:14:29Z</time>
      </trkpt>
      <trkpt lat="48.573598" lon="7.782639">
        <ele>198.0</ele>
        <time>2020-07-12T06:14:31Z</time>
      </trkpt>
      <trkpt lat="48.573568" lon="7.78256">
        <ele>198.0</ele>
        <time>2020-07-12T06:14:33Z</time>
      </trkpt>
      <trkpt lat="48.57354" lon="7.78247">
        <ele>198.0</ele>
        <time>2020-07-12T06:14:35Z</time>
      </trkpt>
      <trkpt lat="48.573508" lon="7.782384">
        <ele>198.0</ele>
        <time>2020-07-12T06:14:37Z</time>
      </trkpt>
      <trkpt lat="48.573483" lon="7.782307">
        <ele>198.0</ele>
        <time>2020-07-12T06:14:39Z</time>
      </trkpt>
      <trkpt lat="48.573435" lon="7.782227">
        <ele>199.0</ele>
        <time>2020-07-12T06:14:41Z</time>
      </trkpt>
      <trkpt lat="48.573394" lon="7.782141">
        <ele>199.0</ele>
        <time>2020-07-12T06:14:43Z</time>
      </trkpt>
      <trkpt lat="48.573336" lon="7.782057">
        <ele>198.0</ele>
        <time>2020-07-12T06:14:45Z</time>
      </trkpt>
      <trkpt lat="48.573304" lon="7.782007">
        <ele>197.0</ele>
        <time>2020-07-12T06:14:46Z</time>
      </trkpt>
      <trkpt lat="48.573235" lon="7.781895">
        <ele>196.0</ele>
        <time>2020-07-12T06:14:48Z</time>
      </trkpt>
      <trkpt lat="48.57316" lon="7.781769">
        <ele>196.0</ele>
        <time>2020-07-12T06:14:50Z</time>
      </trkpt>
      <trkpt lat="48.573082" lon="7.781634">
        <ele>196.0</ele>
        <time>2020-07-12T06:14:52Z</time>
      </trkpt>
      <trkpt lat="48.572994" lon="7.781497">
        <ele>196.0</ele>
        <time>2020-07-12T06:14:54Z</time>
      </trkpt>
      <trkpt lat="48.572943" lon="7.78143">
        <ele>195.0</ele>
        <time>2020-07-12T06:14:55Z</time>
      </trkpt>
      <trkpt lat="48.572895" lon="7.781357">
        <ele>195.0</ele>
        <time>2020-07-12T06:14:56Z</time>
      </trkpt>
      <trkpt lat="48.572602" lon="7.781003">
        <ele>194.0</ele>
        <time>2020-07-12T06:15:01Z</time>
      </trkpt>
      <trkpt lat="48.57247" lon="7.780867">
        <ele>193.0</ele>
        <time>2020-07-12T06:15:03Z</time>
      </trkpt>
      <trkpt lat="48.572337" lon="7.780733">
        <ele>192.0</ele>
        <time>2020-07-12T06:15:05Z</time>
      </trkpt>
      <trkpt lat="48.572195" lon="7.780607">
        <ele>191.0</ele>
        <time>2020-07-12T06:15:07Z</time>
      </trkpt>
      <trkpt lat="48.572048" lon="7.7805">
        <ele>191.0</ele>
        <time>2020-07-12T06:15:09Z</time>
      </trkpt>
      <trkpt lat="48.571921" lon="7.780396">
        <ele>190.0</ele>
        <time>2020-07-12T06:15:11Z</time>
      </trkpt>
      <trkpt lat="48.571826" lon="7.780312">
        <ele>189.0</ele>
        <time>2020-07-12T06:15:13Z</time>
      </trkpt>
      <trkpt lat="48.571768" lon="7.780222">
        <ele>190.0</ele>
        <time>2020-07-12T06:15:15Z</time>
      </trkpt>
      <trkpt lat="48.571698" lon="7.780109">
        <ele>190.0</ele>
        <time>2020-07-12T06:15:17Z</time>
      </trkpt>
      <trkpt lat="48.571651" lon="7.780066">
        <ele>190.0</ele>
        <time>2020-07-12T06:15:18Z</time>
      </trkpt>
      <trkpt lat="48.571492" lon="7.779949">
        <ele>189.0</ele>
        <time>2020-07-12T06:15:21Z</time>
      </trkpt>
      <trkpt lat="48.571398" lon="7.779862">
        <ele>189.0</ele>
        <time>2020-07-12T06:15:23Z</time>
      </trkpt>
      <trkpt lat="48.571291" lon="7.779778">
        <ele>189.0</ele>
        <time>2020-07-12T06:15:25Z</time>
      </trkpt>
      <trkpt lat="48.571179" lon="7.77968">
        <ele>188.0</ele>
        <time>2020-07-12T06:15:27Z</time>
      </trkpt>
      <trkpt lat="48.571076" lon="7.779457">
        <ele>188.0</ele>
        <time>2020-07-12T06:15:30Z</time>
      </trkpt>
      <trkpt lat="48.571026" lon="7.779407">
        <ele>188.0</ele>
        <time>2020-07-12T06:15:31Z</time>
      </trkpt>
      <trkpt lat="48.57093" lon="7.779317">
        <ele>188.0</ele>
        <time>2020-07-12T06:15:33Z</time>
      </trkpt>
      <trkpt lat="48.570839" lon="7.779231">
        <ele>189.0</ele>
        <time>2020-07-12T06:15:35Z</time>
      </trkpt>
      <trkpt lat="48.570753" lon="7.779161">
        <ele>189.0</ele>
        <time>2020-07-12T06:15:37Z</time>
      </trkpt>
      <trkpt lat="48.570668" lon="7.779084">
        <ele>189.0</ele>
        <time>2020-07-12T06:15:39Z</time>
      </trkpt>
      <trkpt lat="48.570591" lon="7.779007">
        <ele>190.0</ele>
        <time>2020-07-12T06:15:41Z</time>
      </trkpt>
      <trkpt lat="48.570551" lon="7.778972">
        <ele>189.0</ele>
        <time>2020-07-12T06:15:42Z</time>
      </trkpt>
      <trkpt lat="48.570419" lon="7.778857">
        <ele>189.0</ele>
        <time>2020-07-12T06:15:45Z</time>
      </trkpt>
      <trkpt lat="48.570335" lon="7.778774">
        <ele>190.0</ele>
        <time>2020-07-12T06:15:47Z</time>
      </trkpt>
      <trkpt lat="48.570247" lon="7.778717">
        <ele>190.0</ele>
        <time>2020-07-12T06:15:49Z</time>
      </trkpt>
      <trkpt lat="48.5701" lon="7.778585">
        <ele>190.0</ele>
        <time>2020-07-12T06:15:53Z</time>
      </trkpt>
      <trkpt lat="48.569996" lon="7.778499">
        <ele>190.0</ele>
        <time>2020-07-12T06:15:56Z</time>
      </trkpt>
      <trkpt lat="48.569855" lon="7.778374">
        <ele>191.0</ele>
        <time>2020-07-12T06:16:00Z</time>
      </trkpt>
      <trkpt lat="48.569819" lon="7.77834">
        <ele>191.0</ele>
        <time>2020-07-12T06:16:01Z</time>
      </trkpt>
      <trkpt lat="48.569785" lon="7.778308">
        <ele>191.0</ele>
        <time>2020-07-12T06:16:02Z</time>
      </trkpt>
      <trkpt lat="48.569648" lon="7.778202">
        <ele>190.0</ele>
        <time>2020-07-12T06:16:06Z</time>
      </trkpt>
      <trkpt lat="48.569574" lon="7.778113">
        <ele>190.0</ele>
        <time>2020-07-12T06:16:09Z</time>
      </trkpt>
      <trkpt lat="48.569519" lon="7.778053">
        <ele>191.0</ele>
        <time>2020-07-12T06:16:11Z</time>
      </trkpt>
      <trkpt lat="48.56949" lon="7.777957">
        <ele>191.0</ele>
        <time>2020-07-12T06:16:13Z</time>
      </trkpt>
      <trkpt lat="48.569386" lon="7.777856">
        <ele>191.0</ele>
        <time>2020-07-12T06:16:16Z</time>
      </trkpt>
      <trkpt lat="48.569329" lon="7.777778">
        <ele>192.0</ele>
        <time>2020-07-12T06:16:18Z</time>
      </trkpt>
      <trkpt lat="48.569281" lon="7.777679">
        <ele>193.0</ele>
        <time>2020-07-12T06:16:20Z</time>
      </trkpt>
      <trkpt lat="48.569229" lon="7.777584">
        <ele>193.0</ele>
        <time>2020-07-12T06:16:22Z</time>
      </trkpt>
      <trkpt lat="48.569187" lon="7.777471">
        <ele>193.0</ele>
        <time>2020-07-12T06:16:24Z</time>
      </trkpt>
      <trkpt lat="48.56915" lon="7.777343">
        <ele>194.0</ele>
        <time>2020-07-12T06:16:26Z</time>
      </trkpt>
      <trkpt lat="48.569108" lon="7.777245">
        <ele>195.0</ele>
        <time>2020-07-12T06:16:28Z</time>
      </trkpt>
      <trkpt lat="48.569062" lon="7.777076">
        <ele>196.0</ele>
        <time>2020-07-12T06:16:31Z</time>
      </trkpt>
      <trkpt lat="48.569023" lon="7.776975">
        <ele>197.0</ele>
        <time>2020-07-12T06:16:33Z</time>
      </trkpt>
      <trkpt lat="48.568986" lon="7.776879">
        <ele>197.0</ele>
        <time>2020-07-12T06:16:35Z</time>
      </trkpt>
      <trkpt lat="48.568937" lon="7.77676">
        <ele>197.0</ele>
        <time>2020-07-12T06:16:37Z</time>
      </trkpt>
      <trkpt lat="48.56889" lon="7.776651">
        <ele>197.0</ele>
        <time>2020-07-12T06:16:39Z</time>
      </trkpt>
      <trkpt lat="48.568842" lon="7.776559">
        <ele>198.0</ele>
        <time>2020-07-12T06:16:41Z</time>
      </trkpt>
      <trkpt lat="48.568781" lon="7.776467">
        <ele>199.0</ele>
        <time>2020-07-12T06:16:43Z</time>
      </trkpt>
      <trkpt lat="48.568726" lon="7.776362">
        <ele>199.0</ele>
        <time>2020-07-12T06:16:45Z</time>
      </trkpt>
      <trkpt lat="48.568662" lon="7.776266">
        <ele>199.0</ele>
        <time>2020-07-12T06:16:47Z</time>
      </trkpt>
      <trkpt lat="48.568602" lon="7.776195">
        <ele>199.0</ele>
        <time>2020-07-12T06:16:49Z</time>
      </trkpt>
      <trkpt lat="48.568512" lon="7.77614">
        <ele>199.0</ele>
        <time>2020-07-12T06:16:51Z</time>
      </trkpt>
      <trkpt lat="48.568422" lon="7.776049">
        <ele>198.0</ele>
        <time>2020-07-12T06:16:53Z</time>
      </trkpt>
      <trkpt lat="48.568356" lon="7.775943">
        <ele>198.0</ele>
        <time>2020-07-12T06:16:55Z</time>
      </trkpt>
      <trkpt lat="48.568302" lon="7.775825">
        <ele>198.0</ele>
        <time>2020-07-12T06:16:57Z</time>
      </trkpt>
      <trkpt lat="48.568221" lon="7.775681">
        <ele>199.0</ele>
        <time>2020-07-12T06:17:00Z</time>
      </trkpt>
      <trkpt lat="48.568183" lon="7.775577">
        <ele>198.0</ele>
        <time>2020-07-12T06:17:02Z</time>
      </trkpt>
      <trkpt lat="48.568135" lon="7.775467">
        <ele>198.0</ele>
        <time>2020-07-12T06:17:04Z</time>
      </trkpt>
      <trkpt lat="48.568081" lon="7.775368">
        <ele>197.0</ele>
        <time>2020-07-12T06:17:06Z</time>
      </trkpt>
      <trkpt lat="48.56804" lon="7.775293">
        <ele>197.0</ele>
        <time>2020-07-12T06:17:08Z</time>
      </trkpt>
      <trkpt lat="48.567994" lon="7.775211">
        <ele>198.0</ele>
        <time>2020-07-12T06:17:10Z</time>
      </trkpt>
      <trkpt lat="48.567954" lon="7.775109">
        <ele>198.0</ele>
        <time>2020-07-12T06:17:12Z</time>
      </trkpt>
      <trkpt lat="48.567909" lon="7.775003">
        <ele>198.0</ele>
        <time>2020-07-12T06:17:14Z</time>
      </trkpt>
      <trkpt lat="48.567888" lon="7.774956">
        <ele>198.0</ele>
        <time>2020-07-12T06:17:15Z</time>
      </trkpt>
      <trkpt lat="48.567838" lon="7.774863">
        <ele>198.0</ele>
        <time>2020-07-12T06:17:17Z</time>
      </trkpt>
      <trkpt lat="48.567766" lon="7.774697">
        <ele>198.0</ele>
        <time>2020-07-12T06:17:20Z</time>
      </trkpt>
      <trkpt lat="48.567713" lon="7.774603">
        <ele>198.0</ele>
        <time>2020-07-12T06:17:22Z</time>
      </trkpt>
      <trkpt lat="48.567639" lon="7.774437">
        <ele>198.0</ele>
        <time>2020-07-12T06:17:25Z</time>
      </trkpt>
      <trkpt lat="48.567593" lon="7.774322">
        <ele>198.0</ele>
        <time>2020-07-12T06:17:27Z</time>
      </trkpt>
      <trkpt lat="48.56754" lon="7.7742">
        <ele>197.0</ele>
        <time>2020-07-12T06:17:29Z</time>
      </trkpt>
      <trkpt lat="48.567479" lon="7.774082">
        <ele>196.0</ele>
        <time>2020-07-12T06:17:31Z</time>
      </trkpt>
      <trkpt lat="48.567429" lon="7.77398">
        <ele>195.0</ele>
        <time>2020-07-12T06:17:33Z</time>
      </trkpt>
      <trkpt lat="48.567409" lon="7.773933">
        <ele>195.0</ele>
        <time>2020-07-12T06:17:34Z</time>
      </trkpt>
      <trkpt lat="48.567372" lon="7.773843">
        <ele>196.0</ele>
        <time>2020-07-12T06:17:36Z</time>
      </trkpt>
      <trkpt lat="48.567328" lon="7.773697">
        <ele>196.0</ele>
        <time>2020-07-12T06:17:39Z</time>
      </trkpt>
      <trkpt lat="48.56732" lon="7.773666">
        <ele>196.0</ele>
        <time>2020-07-12T06:17:40Z</time>
      </trkpt>
      <trkpt lat="48.567308" lon="7.773616">
        <ele>196.0</ele>
        <time>2020-07-12T06:17:42Z</time>
      </trkpt>
      <trkpt lat="48.567304" lon="7.773594">
        <ele>196.0</ele>
        <time>2020-07-12T06:17:43Z</time>
      </trkpt>
      <trkpt lat="48.567295" lon="7.773552">
        <ele>196.0</ele>
        <time>2020-07-12T06:17:45Z</time>
      </trkpt>
      <trkpt lat="48.56729" lon="7.773529">
        <ele>196.0</ele>
        <time>2020-07-12T06:17:46Z</time>
      </trkpt>
      <trkpt lat="48.567265" lon="7.773441">
        <ele>196.0</ele>
        <time>2020-07-12T06:17:49Z</time>
      </trkpt>
      <trkpt lat="48.567242" lon="7.773309">
        <ele>196.0</ele>
        <time>2020-07-12T06:17:52Z</time>
      </trkpt>
      <trkpt lat="48.567225" lon="7.773218">
        <ele>196.0</ele>
        <time>2020-07-12T06:17:54Z</time>
      </trkpt>
      <trkpt lat="48.567215" lon="7.773111">
        <ele>196.0</ele>
        <time>2020-07-12T06:17:56Z</time>
      </trkpt>
      <trkpt lat="48.567229" lon="7.77301">
        <ele>197.0</ele>
        <time>2020-07-12T06:17:58Z</time>
      </trkpt>
      <trkpt lat="48.567224" lon="7.772879">
        <ele>196.0</ele>
        <time>2020-07-12T06:18:00Z</time>
      </trkpt>
      <trkpt lat="48.567207" lon="7.772664">
        <ele>194.0</ele>
        <time>2020-07-12T06:18:03Z</time>
      </trkpt>
      <trkpt lat="48.567251" lon="7.772455">
        <ele>194.0</ele>
        <time>2020-07-12T06:18:06Z</time>
      </trkpt>
      <trkpt lat="48.567265" lon="7.772391">
        <ele>193.0</ele>
        <time>2020-07-12T06:18:07Z</time>
      </trkpt>
      <trkpt lat="48.567315" lon="7.772179">
        <ele>193.0</ele>
        <time>2020-07-12T06:18:10Z</time>
      </trkpt>
      <trkpt lat="48.567348" lon="7.772027">
        <ele>193.0</ele>
        <time>2020-07-12T06:18:12Z</time>
      </trkpt>
      <trkpt lat="48.567382" lon="7.771883">
        <ele>193.0</ele>
        <time>2020-07-12T06:18:14Z</time>
      </trkpt>
      <trkpt lat="48.567418" lon="7.771727">
        <ele>193.0</ele>
        <time>2020-07-12T06:18:16Z</time>
      </trkpt>
      <trkpt lat="48.567448" lon="7.771575">
        <ele>193.0</ele>
        <time>2020-07-12T06:18:18Z</time>
      </trkpt>
      <trkpt lat="48.567474" lon="7.771421">
        <ele>192.0</ele>
        <time>2020-07-12T06:18:20Z</time>
      </trkpt>
      <trkpt lat="48.567508" lon="7.771283">
        <ele>192.0</ele>
        <time>2020-07-12T06:18:22Z</time>
      </trkpt>
      <trkpt lat="48.567558" lon="7.771147">
        <ele>192.0</ele>
        <time>2020-07-12T06:18:24Z</time>
      </trkpt>
      <trkpt lat="48.56761" lon="7.771026">
        <ele>192.0</ele>
        <time>2020-07-12T06:18:26Z</time>
      </trkpt>
      <trkpt lat="48.567636" lon="7.770971">
        <ele>192.0</ele>
        <time>2020-07-12T06:18:27Z</time>
      </trkpt>
      <trkpt lat="48.567716" lon="7.770787">
        <ele>192.0</ele>
        <time>2020-07-12T06:18:30Z</time>
      </trkpt>
      <trkpt lat="48.567806" lon="7.770593">
        <ele>192.0</ele>
        <time>2020-07-12T06:18:33Z</time>
      </trkpt>
      <trkpt lat="48.567856" lon="7.770452">
        <ele>193.0</ele>
        <time>2020-07-12T06:18:35Z</time>
      </trkpt>
      <trkpt lat="48.567897" lon="7.770305">
        <ele>193.0</ele>
        <time>2020-07-12T06:18:37Z</time>
      </trkpt>
      <trkpt lat="48.567934" lon="7.770152">
        <ele>193.0</ele>
        <time>2020-07-12T06:18:39Z</time>
      </trkpt>
      <trkpt lat="48.567966" lon="7.770013">
        <ele>192.0</ele>
        <time>2020-07-12T06:18:41Z</time>
      </trkpt>
      <trkpt lat="48.568004" lon="7.76986">
        <ele>192.0</ele>
        <time>2020-07-12T06:18:43Z</time>
      </trkpt>
      <trkpt lat="48.568034" lon="7.769705">
        <ele>192.0</ele>
        <time>2020-07-12T06:18:45Z</time>
      </trkpt>
      <trkpt lat="48.568067" lon="7.76956">
        <ele>192.0</ele>
        <time>2020-07-12T06:18:47Z</time>
      </trkpt>
      <trkpt lat="48.568084" lon="7.769491">
        <ele>192.0</ele>
        <time>2020-07-12T06:18:48Z</time>
      </trkpt>
      <trkpt lat="48.568096" lon="7.769413">
        <ele>192.0</ele>
        <time>2020-07-12T06:18:49Z</time>
      </trkpt>
      <trkpt lat="48.568144" lon="7.769116">
        <ele>192.0</ele>
        <time>2020-07-12T06:18:53Z</time>
      </trkpt>
      <trkpt lat="48.568173" lon="7.768978">
        <ele>192.0</ele>
        <time>2020-07-12T06:18:55Z</time>
      </trkpt>
      <trkpt lat="48.568185" lon="7.768915">
        <ele>192.0</ele>
        <time>2020-07-12T06:18:56Z</time>
      </trkpt>
      <trkpt lat="48.568219" lon="7.768727">
        <ele>192.0</ele>
        <time>2020-07-12T06:18:59Z</time>
      </trkpt>
      <trkpt lat="48.56823" lon="7.768664">
        <ele>191.0</ele>
        <time>2020-07-12T06:19:00Z</time>
      </trkpt>
      <trkpt lat="48.568262" lon="7.768473">
        <ele>191.0</ele>
        <time>2020-07-12T06:19:03Z</time>
      </trkpt>
      <trkpt lat="48.568299" lon="7.768355">
        <ele>191.0</ele>
        <time>2020-07-12T06:19:05Z</time>
      </trkpt>
      <trkpt lat="48.56834" lon="7.768192">
        <ele>190.0</ele>
        <time>2020-07-12T06:19:08Z</time>
      </trkpt>
      <trkpt lat="48.568416" lon="7.767944">
        <ele>189.0</ele>
        <time>2020-07-12T06:19:12Z</time>
      </trkpt>
      <trkpt lat="48.568438" lon="7.767881">
        <ele>188.0</ele>
        <time>2020-07-12T06:19:13Z</time>
      </trkpt>
      <trkpt lat="48.568457" lon="7.767813">
        <ele>188.0</ele>
        <time>2020-07-12T06:19:14Z</time>
      </trkpt>
      <trkpt lat="48.568514" lon="7.76762">
        <ele>188.0</ele>
        <time>2020-07-12T06:19:17Z</time>
      </trkpt>
      <trkpt lat="48.568549" lon="7.767469">
        <ele>189.0</ele>
        <time>2020-07-12T06:19:19Z</time>
      </trkpt>
      <trkpt lat="48.568567" lon="7.767405">
        <ele>188.0</ele>
        <time>2020-07-12T06:19:20Z</time>
      </trkpt>
      <trkpt lat="48.568584" lon="7.76734">
        <ele>189.0</ele>
        <time>2020-07-12T06:19:21Z</time>
      </trkpt>
      <trkpt lat="48.568604" lon="7.767277">
        <ele>189.0</ele>
        <time>2020-07-12T06:19:22Z</time>
      </trkpt>
      <trkpt lat="48.568686" lon="7.767001">
        <ele>189.0</ele>
        <time>2020-07-12T06:19:26Z</time>
      </trkpt>
      <trkpt lat="48.568703" lon="7.766935">
        <ele>189.0</ele>
        <time>2020-07-12T06:19:27Z</time>
      </trkpt>
      <trkpt lat="48.568721" lon="7.766871">
        <ele>189.0</ele>
        <time>2020-07-12T06:19:28Z</time>
      </trkpt>
      <trkpt lat="48.568758" lon="7.766735">
        <ele>188.0</ele>
        <time>2020-07-12T06:19:30Z</time>
      </trkpt>
      <trkpt lat="48.568792" lon="7.766598">
        <ele>188.0</ele>
        <time>2020-07-12T06:19:32Z</time>
      </trkpt>
      <trkpt lat="48.56887" lon="7.766325">
        <ele>188.0</ele>
        <time>2020-07-12T06:19:36Z</time>
      </trkpt>
      <trkpt lat="48.568888" lon="7.76626">
        <ele>188.0</ele>
        <time>2020-07-12T06:19:37Z</time>
      </trkpt>
      <trkpt lat="48.568938" lon="7.766063">
        <ele>188.0</ele>
        <time>2020-07-12T06:19:40Z</time>
      </trkpt>
      <trkpt lat="48.568961" lon="7.765996">
        <ele>188.0</ele>
        <time>2020-07-12T06:19:41Z</time>
      </trkpt>
      <trkpt lat="48.568996" lon="7.76587">
        <ele>188.0</ele>
        <time>2020-07-12T06:19:43Z</time>
      </trkpt>
      <trkpt lat="48.56903" lon="7.765752">
        <ele>188.0</ele>
        <time>2020-07-12T06:19:45Z</time>
      </trkpt>
      <trkpt lat="48.569047" lon="7.765694">
        <ele>189.0</ele>
        <time>2020-07-12T06:19:46Z</time>
      </trkpt>
      <trkpt lat="48.569065" lon="7.765634">
        <ele>189.0</ele>
        <time>2020-07-12T06:19:47Z</time>
      </trkpt>
      <trkpt lat="48.569115" lon="7.765463">
        <ele>188.0</ele>
        <time>2020-07-12T06:19:50Z</time>
      </trkpt>
      <trkpt lat="48.569141" lon="7.76536">
        <ele>190.0</ele>
        <time>2020-07-12T06:19:52Z</time>
      </trkpt>
      <trkpt lat="48.569203" lon="7.765127">
        <ele>191.0</ele>
        <time>2020-07-12T06:19:56Z</time>
      </trkpt>
      <trkpt lat="48.569217" lon="7.765062">
        <ele>191.0</ele>
        <time>2020-07-12T06:19:57Z</time>
      </trkpt>
      <trkpt lat="48.569268" lon="7.764885">
        <ele>191.0</ele>
        <time>2020-07-12T06:20:00Z</time>
      </trkpt>
      <trkpt lat="48.569321" lon="7.764661">
        <ele>191.0</ele>
        <time>2020-07-12T06:20:04Z</time>
      </trkpt>
      <trkpt lat="48.569356" lon="7.764552">
        <ele>190.0</ele>
        <time>2020-07-12T06:20:06Z</time>
      </trkpt>
      <trkpt lat="48.569374" lon="7.764503">
        <ele>190.0</ele>
        <time>2020-07-12T06:20:07Z</time>
      </trkpt>
      <trkpt lat="48.569435" lon="7.764317">
        <ele>190.0</ele>
        <time>2020-07-12T06:20:11Z</time>
      </trkpt>
      <trkpt lat="48.569468" lon="7.764245">
        <ele>190.0</ele>
        <time>2020-07-12T06:20:13Z</time>
      </trkpt>
      <trkpt lat="48.569489" lon="7.764164">
        <ele>191.0</ele>
        <time>2020-07-12T06:20:16Z</time>
      </trkpt>
      <trkpt lat="48.569488" lon="7.764158">
        <ele>190.0</ele>
        <time>2020-07-12T06:20:18Z</time>
      </trkpt>
      <trkpt lat="48.569488" lon="7.764158">
        <ele>190.0</ele>
        <time>2020-07-12T06:20:21Z</time>
      </trkpt>
      <trkpt lat="48.569488" lon="7.764158">
        <ele>190.0</ele>
        <time>2020-07-12T06:20:23Z</time>
      </trkpt>
      <trkpt lat="48.569488" lon="7.764158">
        <ele>190.0</ele>
        <time>2020-07-12T06:20:25Z</time>
      </trkpt>
      <trkpt lat="48.569488" lon="7.764158">
        <ele>190.0</ele>
        <time>2020-07-12T06:20:28Z</time>
      </trkpt>
      <trkpt lat="48.569488" lon="7.764158">
        <ele>190.0</ele>
        <time>2020-07-12T06:20:30Z</time>
      </trkpt>
      <trkpt lat="48.569488" lon="7.764158">
        <ele>190.0</ele>
        <time>2020-07-12T06:20:32Z</time>
      </trkpt>
      <trkpt lat="48.569488" lon="7.764158">
        <ele>190.0</ele>
        <time>2020-07-12T06:20:34Z</time>
      </trkpt>
      <trkpt lat="48.569488" lon="7.764158">
        <ele>190.0</ele>
        <time>2020-07-12T06:20:36Z</time>
      </trkpt>
      <trkpt lat="48.569488" lon="7.764158">
        <ele>190.0</ele>
        <time>2020-07-12T06:20:38Z</time>
      </trkpt>
      <trkpt lat="48.569488" lon="7.764158">
        <ele>190.0</ele>
        <time>2020-07-12T06:20:39Z</time>
      </trkpt>
      <trkpt lat="48.569488" lon="7.764158">
        <ele>190.0</ele>
        <time>2020-07-12T06:20:42Z</time>
      </trkpt>
      <trkpt lat="48.569488" lon="7.764158">
        <ele>190.0</ele>
        <time>2020-07-12T06:20:43Z</time>
      </trkpt>
      <trkpt lat="48.569488" lon="7.764158">
        <ele>190.0</ele>
        <time>2020-07-12T06:20:45Z</time>
      </trkpt>
      <trkpt lat="48.569488" lon="7.764158">
        <ele>190.0</ele>
        <time>2020-07-12T06:20:47Z</time>
      </trkpt>
      <trkpt lat="48.56949" lon="7.764122">
        <ele>191.0</ele>
        <time>2020-07-12T06:20:49Z</time>
      </trkpt>
      <trkpt lat="48.569502" lon="7.764077">
        <ele>190.0</ele>
        <time>2020-07-12T06:20:51Z</time>
      </trkpt>
      <trkpt lat="48.569516" lon="7.764044">
        <ele>190.0</ele>
        <time>2020-07-12T06:20:52Z</time>
      </trkpt>
      <trkpt lat="48.569567" lon="7.763865">
        <ele>192.0</ele>
        <time>2020-07-12T06:20:56Z</time>
      </trkpt>
      <trkpt lat="48.569631" lon="7.763621">
        <ele>192.0</ele>
        <time>2020-07-12T06:21:01Z</time>
      </trkpt>
      <trkpt lat="48.569693" lon="7.763448">
        <ele>192.0</ele>
        <time>2020-07-12T06:21:05Z</time>
      </trkpt>
      <trkpt lat="48.569712" lon="7.763411">
        <ele>192.0</ele>
        <time>2020-07-12T06:21:06Z</time>
      </trkpt>
      <trkpt lat="48.569764" lon="7.763359">
        <ele>193.0</ele>
        <time>2020-07-12T06:21:08Z</time>
      </trkpt>
      <trkpt lat="48.569792" lon="7.763266">
        <ele>194.0</ele>
        <time>2020-07-12T06:21:11Z</time>
      </trkpt>
      <trkpt lat="48.569803" lon="7.763205">
        <ele>194.0</ele>
        <time>2020-07-12T06:21:13Z</time>
      </trkpt>
      <trkpt lat="48.56979" lon="7.763178">
        <ele>194.0</ele>
        <time>2020-07-12T06:21:14Z</time>
      </trkpt>
      <trkpt lat="48.569768" lon="7.763055">
        <ele>193.0</ele>
        <time>2020-07-12T06:21:17Z</time>
      </trkpt>
      <trkpt lat="48.569781" lon="7.762992">
        <ele>193.0</ele>
        <time>2020-07-12T06:21:18Z</time>
      </trkpt>
      <trkpt lat="48.569835" lon="7.762809">
        <ele>193.0</ele>
        <time>2020-07-12T06:21:21Z</time>
      </trkpt>
      <trkpt lat="48.569874" lon="7.762696">
        <ele>193.0</ele>
        <time>2020-07-12T06:21:23Z</time>
      </trkpt>
      <trkpt lat="48.569928" lon="7.762524">
        <ele>193.0</ele>
        <time>2020-07-12T06:21:26Z</time>
      </trkpt>
      <trkpt lat="48.569968" lon="7.762332">
        <ele>191.0</ele>
        <time>2020-07-12T06:21:29Z</time>
      </trkpt>
      <trkpt lat="48.569987" lon="7.762266">
        <ele>191.0</ele>
        <time>2020-07-12T06:21:30Z</time>
      </trkpt>
      <trkpt lat="48.570019" lon="7.762151">
        <ele>191.0</ele>
        <time>2020-07-12T06:21:32Z</time>
      </trkpt>
      <trkpt lat="48.570064" lon="7.762028">
        <ele>191.0</ele>
        <time>2020-07-12T06:21:34Z</time>
      </trkpt>
      <trkpt lat="48.570087" lon="7.761963">
        <ele>191.0</ele>
        <time>2020-07-12T06:21:35Z</time>
      </trkpt>
      <trkpt lat="48.570122" lon="7.761825">
        <ele>191.0</ele>
        <time>2020-07-12T06:21:37Z</time>
      </trkpt>
      <trkpt lat="48.570146" lon="7.761762">
        <ele>191.0</ele>
        <time>2020-07-12T06:21:38Z</time>
      </trkpt>
      <trkpt lat="48.570262" lon="7.761356">
        <ele>190.0</ele>
        <time>2020-07-12T06:21:44Z</time>
      </trkpt>
      <trkpt lat="48.570281" lon="7.761288">
        <ele>190.0</ele>
        <time>2020-07-12T06:21:45Z</time>
      </trkpt>
      <trkpt lat="48.570359" lon="7.760986">
        <ele>192.0</ele>
        <time>2020-07-12T06:21:50Z</time>
      </trkpt>
      <trkpt lat="48.570425" lon="7.760727">
        <ele>192.0</ele>
        <time>2020-07-12T06:21:54Z</time>
      </trkpt>
      <trkpt lat="48.570483" lon="7.760537">
        <ele>192.0</ele>
        <time>2020-07-12T06:21:57Z</time>
      </trkpt>
      <trkpt lat="48.570523" lon="7.76041">
        <ele>192.0</ele>
        <time>2020-07-12T06:21:59Z</time>
      </trkpt>
      <trkpt lat="48.570559" lon="7.760286">
        <ele>191.0</ele>
        <time>2020-07-12T06:22:01Z</time>
      </trkpt>
      <trkpt lat="48.570577" lon="7.760221">
        <ele>191.0</ele>
        <time>2020-07-12T06:22:02Z</time>
      </trkpt>
      <trkpt lat="48.570617" lon="7.760088">
        <ele>191.0</ele>
        <time>2020-07-12T06:22:04Z</time>
      </trkpt>
      <trkpt lat="48.57064" lon="7.76002">
        <ele>191.0</ele>
        <time>2020-07-12T06:22:05Z</time>
      </trkpt>
      <trkpt lat="48.570657" lon="7.759958">
        <ele>191.0</ele>
        <time>2020-07-12T06:22:06Z</time>
      </trkpt>
      <trkpt lat="48.570693" lon="7.759833">
        <ele>190.0</ele>
        <time>2020-07-12T06:22:08Z</time>
      </trkpt>
      <trkpt lat="48.570748" lon="7.759634">
        <ele>190.0</ele>
        <time>2020-07-12T06:22:11Z</time>
      </trkpt>
      <trkpt lat="48.57077" lon="7.75957">
        <ele>190.0</ele>
        <time>2020-07-12T06:22:12Z</time>
      </trkpt>
      <trkpt lat="48.570787" lon="7.759506">
        <ele>190.0</ele>
        <time>2020-07-12T06:22:13Z</time>
      </trkpt>
      <trkpt lat="48.57082" lon="7.759378">
        <ele>190.0</ele>
        <time>2020-07-12T06:22:15Z</time>
      </trkpt>
      <trkpt lat="48.570852" lon="7.759255">
        <ele>190.0</ele>
        <time>2020-07-12T06:22:17Z</time>
      </trkpt>
      <trkpt lat="48.57087" lon="7.759194">
        <ele>190.0</ele>
        <time>2020-07-12T06:22:18Z</time>
      </trkpt>
      <trkpt lat="48.570889" lon="7.759128">
        <ele>191.0</ele>
        <time>2020-07-12T06:22:19Z</time>
      </trkpt>
      <trkpt lat="48.570906" lon="7.759059">
        <ele>190.0</ele>
        <time>2020-07-12T06:22:20Z</time>
      </trkpt>
      <trkpt lat="48.570942" lon="7.758935">
        <ele>191.0</ele>
        <time>2020-07-12T06:22:22Z</time>
      </trkpt>
      <trkpt lat="48.570961" lon="7.758872">
        <ele>191.0</ele>
        <time>2020-07-12T06:22:23Z</time>
      </trkpt>
      <trkpt lat="48.570975" lon="7.758807">
        <ele>191.0</ele>
        <time>2020-07-12T06:22:24Z</time>
      </trkpt>
      <trkpt lat="48.570999" lon="7.758682">
        <ele>191.0</ele>
        <time>2020-07-12T06:22:26Z</time>
      </trkpt>
      <trkpt lat="48.571086" lon="7.758364">
        <ele>191.0</ele>
        <time>2020-07-12T06:22:31Z</time>
      </trkpt>
      <trkpt lat="48.571195" lon="7.757976">
        <ele>191.0</ele>
        <time>2020-07-12T06:22:37Z</time>
      </trkpt>
      <trkpt lat="48.571225" lon="7.757853">
        <ele>191.0</ele>
        <time>2020-07-12T06:22:39Z</time>
      </trkpt>
      <trkpt lat="48.571258" lon="7.757741">
        <ele>191.0</ele>
        <time>2020-07-12T06:22:41Z</time>
      </trkpt>
      <trkpt lat="48.571276" lon="7.757687">
        <ele>191.0</ele>
        <time>2020-07-12T06:22:42Z</time>
      </trkpt>
      <trkpt lat="48.571328" lon="7.757525">
        <ele>192.0</ele>
        <time>2020-07-12T06:22:45Z</time>
      </trkpt>
      <trkpt lat="48.571372" lon="7.7574">
        <ele>193.0</ele>
        <time>2020-07-12T06:22:47Z</time>
      </trkpt>
      <trkpt lat="48.571429" lon="7.757217">
        <ele>193.0</ele>
        <time>2020-07-12T06:22:50Z</time>
      </trkpt>
      <trkpt lat="48.571502" lon="7.756983">
        <ele>193.0</ele>
        <time>2020-07-12T06:22:54Z</time>
      </trkpt>
      <trkpt lat="48.571588" lon="7.756769">
        <ele>194.0</ele>
        <time>2020-07-12T06:22:58Z</time>
      </trkpt>
      <trkpt lat="48.571641" lon="7.756579">
        <ele>192.0</ele>
        <time>2020-07-12T06:23:01Z</time>
      </trkpt>
      <trkpt lat="48.571672" lon="7.756482">
        <ele>192.0</ele>
        <time>2020-07-12T06:23:03Z</time>
      </trkpt>
      <trkpt lat="48.571699" lon="7.756384">
        <ele>192.0</ele>
        <time>2020-07-12T06:23:05Z</time>
      </trkpt>
      <trkpt lat="48.571716" lon="7.756336">
        <ele>192.0</ele>
        <time>2020-07-12T06:23:06Z</time>
      </trkpt>
      <trkpt lat="48.571747" lon="7.756239">
        <ele>192.0</ele>
        <time>2020-07-12T06:23:08Z</time>
      </trkpt>
      <trkpt lat="48.571773" lon="7.756175">
        <ele>192.0</ele>
        <time>2020-07-12T06:23:10Z</time>
      </trkpt>
      <trkpt lat="48.571756" lon="7.756136">
        <ele>192.0</ele>
        <time>2020-07-12T06:23:13Z</time>
      </trkpt>
      <trkpt lat="48.571697" lon="7.756164">
        <ele>193.0</ele>
        <time>2020-07-12T06:23:15Z</time>
      </trkpt>
      <trkpt lat="48.571551" lon="7.756268">
        <ele>193.0</ele>
        <time>2020-07-12T06:23:20Z</time>
      </trkpt>
      <trkpt lat="48.571514" lon="7.75628">
        <ele>193.0</ele>
        <time>2020-07-12T06:23:21Z</time>
      </trkpt>
      <trkpt lat="48.571448" lon="7.756306">
        <ele>193.0</ele>
        <time>2020-07-12T06:23:23Z</time>
      </trkpt>
      <trkpt lat="48.571426" lon="7.756317">
        <ele>193.0</ele>
        <time>2020-07-12T06:23:24Z</time>
      </trkpt>
      <trkpt lat="48.571407" lon="7.75633">
        <ele>193.0</ele>
        <time>2020-07-12T06:23:26Z</time>
      </trkpt>
      <trkpt lat="48.571398" lon="7.756322">
        <ele>193.0</ele>
        <time>2020-07-12T06:23:29Z</time>
      </trkpt>
      <trkpt lat="48.571398" lon="7.756322">
        <ele>193.0</ele>
        <time>2020-07-12T06:23:31Z</time>
      </trkpt>
      <trkpt lat="48.571398" lon="7.756322">
        <ele>193.0</ele>
        <time>2020-07-12T06:23:33Z</time>
      </trkpt>
      <trkpt lat="48.571398" lon="7.756322">
        <ele>193.0</ele>
        <time>2020-07-12T06:23:36Z</time>
      </trkpt>
      <trkpt lat="48.571398" lon="7.756322">
        <ele>193.0</ele>
        <time>2020-07-12T06:23:39Z</time>
      </trkpt>
      <trkpt lat="48.571398" lon="7.756322">
        <ele>193.0</ele>
        <time>2020-07-12T06:23:40Z</time>
      </trkpt>
      <trkpt lat="48.571398" lon="7.756322">
        <ele>193.0</ele>
        <time>2020-07-12T06:23:41Z</time>
      </trkpt>
      <trkpt lat="48.5714" lon="7.756315">
        <ele>193.0</ele>
        <time>2020-07-12T06:23:43Z</time>
      </trkpt>
      <trkpt lat="48.571402" lon="7.756106">
        <ele>193.0</ele>
        <time>2020-07-12T06:23:48Z</time>
      </trkpt>
      <trkpt lat="48.571408" lon="7.756052">
        <ele>193.0</ele>
        <time>2020-07-12T06:23:49Z</time>
      </trkpt>
      <trkpt lat="48.571423" lon="7.755943">
        <ele>193.0</ele>
        <time>2020-07-12T06:23:51Z</time>
      </trkpt>
      <trkpt lat="48.571448" lon="7.755761">
        <ele>192.0</ele>
        <time>2020-07-12T06:23:54Z</time>
      </trkpt>
      <trkpt lat="48.571476" lon="7.755485">
        <ele>192.0</ele>
        <time>2020-07-12T06:23:58Z</time>
      </trkpt>
      <trkpt lat="48.571494" lon="7.75535">
        <ele>193.0</ele>
        <time>2020-07-12T06:24:00Z</time>
      </trkpt>
      <trkpt lat="48.571518" lon="7.755076">
        <ele>192.0</ele>
        <time>2020-07-12T06:24:04Z</time>
      </trkpt>
      <trkpt lat="48.571528" lon="7.755011">
        <ele>192.0</ele>
        <time>2020-07-12T06:24:05Z</time>
      </trkpt>
      <trkpt lat="48.571534" lon="7.75489">
        <ele>192.0</ele>
        <time>2020-07-12T06:24:07Z</time>
      </trkpt>
      <trkpt lat="48.571537" lon="7.754829">
        <ele>192.0</ele>
        <time>2020-07-12T06:24:08Z</time>
      </trkpt>
      <trkpt lat="48.571538" lon="7.75477">
        <ele>191.0</ele>
        <time>2020-07-12T06:24:09Z</time>
      </trkpt>
      <trkpt lat="48.571563" lon="7.754731">
        <ele>193.0</ele>
        <time>2020-07-12T06:24:10Z</time>
      </trkpt>
      <trkpt lat="48.571571" lon="7.754667">
        <ele>193.0</ele>
        <time>2020-07-12T06:24:11Z</time>
      </trkpt>
      <trkpt lat="48.571608" lon="7.754409">
        <ele>192.0</ele>
        <time>2020-07-12T06:24:15Z</time>
      </trkpt>
      <trkpt lat="48.571613" lon="7.754336">
        <ele>192.0</ele>
        <time>2020-07-12T06:24:16Z</time>
      </trkpt>
      <trkpt lat="48.571658" lon="7.75402">
        <ele>191.0</ele>
        <time>2020-07-12T06:24:21Z</time>
      </trkpt>
      <trkpt lat="48.571623" lon="7.753856">
        <ele>190.0</ele>
        <time>2020-07-12T06:24:24Z</time>
      </trkpt>
      <trkpt lat="48.571578" lon="7.753816">
        <ele>190.0</ele>
        <time>2020-07-12T06:24:25Z</time>
      </trkpt>
      <trkpt lat="48.57147" lon="7.753755">
        <ele>190.0</ele>
        <time>2020-07-12T06:24:27Z</time>
      </trkpt>
      <trkpt lat="48.571327" lon="7.753652">
        <ele>190.0</ele>
        <time>2020-07-12T06:24:30Z</time>
      </trkpt>
      <trkpt lat="48.57118" lon="7.75352">
        <ele>189.0</ele>
        <time>2020-07-12T06:24:33Z</time>
      </trkpt>
      <trkpt lat="48.571131" lon="7.753477">
        <ele>189.0</ele>
        <time>2020-07-12T06:24:34Z</time>
      </trkpt>
      <trkpt lat="48.57093" lon="7.753318">
        <ele>187.0</ele>
        <time>2020-07-12T06:24:38Z</time>
      </trkpt>
      <trkpt lat="48.570841" lon="7.753238">
        <ele>187.0</ele>
        <time>2020-07-12T06:24:40Z</time>
      </trkpt>
      <trkpt lat="48.570756" lon="7.753156">
        <ele>187.0</ele>
        <time>2020-07-12T06:24:42Z</time>
      </trkpt>
      <trkpt lat="48.570663" lon="7.753081">
        <ele>187.0</ele>
        <time>2020-07-12T06:24:44Z</time>
      </trkpt>
      <trkpt lat="48.570619" lon="7.753047">
        <ele>187.0</ele>
        <time>2020-07-12T06:24:45Z</time>
      </trkpt>
      <trkpt lat="48.570443" lon="7.752905">
        <ele>187.0</ele>
        <time>2020-07-12T06:24:49Z</time>
      </trkpt>
      <trkpt lat="48.57027" lon="7.752756">
        <ele>187.0</ele>
        <time>2020-07-12T06:24:53Z</time>
      </trkpt>
      <trkpt lat="48.570005" lon="7.752543">
        <ele>186.0</ele>
        <time>2020-07-12T06:24:59Z</time>
      </trkpt>
      <trkpt lat="48.569755" lon="7.752337">
        <ele>185.0</ele>
        <time>2020-07-12T06:25:05Z</time>
      </trkpt>
      <trkpt lat="48.56963" lon="7.752234">
        <ele>185.0</ele>
        <time>2020-07-12T06:25:08Z</time>
      </trkpt>
      <trkpt lat="48.569551" lon="7.752166">
        <ele>185.0</ele>
        <time>2020-07-12T06:25:10Z</time>
      </trkpt>
      <trkpt lat="48.569463" lon="7.752109">
        <ele>185.0</ele>
        <time>2020-07-12T06:25:12Z</time>
      </trkpt>
      <trkpt lat="48.56925" lon="7.751972">
        <ele>187.0</ele>
        <time>2020-07-12T06:25:17Z</time>
      </trkpt>
      <trkpt lat="48.569114" lon="7.751911">
        <ele>188.0</ele>
        <time>2020-07-12T06:25:21Z</time>
      </trkpt>
      <trkpt lat="48.568922" lon="7.751819">
        <ele>189.0</ele>
        <time>2020-07-12T06:25:27Z</time>
      </trkpt>
      <trkpt lat="48.568872" lon="7.75177">
        <ele>189.0</ele>
        <time>2020-07-12T06:25:30Z</time>
      </trkpt>
      <trkpt lat="48.568834" lon="7.751403">
        <ele>191.0</ele>
        <time>2020-07-12T06:25:40Z</time>
      </trkpt>
      <trkpt lat="48.568676" lon="7.751423">
        <ele>192.0</ele>
        <time>2020-07-12T06:25:44Z</time>
      </trkpt>
      <trkpt lat="48.568631" lon="7.75142">
        <ele>193.0</ele>
        <time>2020-07-12T06:25:45Z</time>
      </trkpt>
      <trkpt lat="48.568499" lon="7.751446">
        <ele>193.0</ele>
        <time>2020-07-12T06:25:48Z</time>
      </trkpt>
      <trkpt lat="48.568404" lon="7.751457">
        <ele>194.0</ele>
        <time>2020-07-12T06:25:50Z</time>
      </trkpt>
      <trkpt lat="48.568311" lon="7.75148">
        <ele>194.0</ele>
        <time>2020-07-12T06:25:52Z</time>
      </trkpt>
      <trkpt lat="48.56827" lon="7.751495">
        <ele>194.0</ele>
        <time>2020-07-12T06:25:53Z</time>
      </trkpt>
      <trkpt lat="48.568075" lon="7.751526">
        <ele>193.0</ele>
        <time>2020-07-12T06:25:57Z</time>
      </trkpt>
      <trkpt lat="48.568026" lon="7.75154">
        <ele>193.0</ele>
        <time>2020-07-12T06:25:58Z</time>
      </trkpt>
      <trkpt lat="48.567933" lon="7.751558">
        <ele>194.0</ele>
        <time>2020-07-12T06:26:00Z</time>
      </trkpt>
      <trkpt lat="48.567746" lon="7.751633">
        <ele>195.0</ele>
        <time>2020-07-12T06:26:04Z</time>
      </trkpt>
      <trkpt lat="48.567619" lon="7.751684">
        <ele>196.0</ele>
        <time>2020-07-12T06:26:07Z</time>
      </trkpt>
      <trkpt lat="48.567279" lon="7.751745">
        <ele>198.0</ele>
        <time>2020-07-12T06:26:14Z</time>
      </trkpt>
      <trkpt lat="48.567229" lon="7.751746">
        <ele>198.0</ele>
        <time>2020-07-12T06:26:15Z</time>
      </trkpt>
      <trkpt lat="48.567176" lon="7.751755">
        <ele>197.0</ele>
        <time>2020-07-12T06:26:16Z</time>
      </trkpt>
      <trkpt lat="48.567078" lon="7.751773">
        <ele>197.0</ele>
        <time>2020-07-12T06:26:18Z</time>
      </trkpt>
      <trkpt lat="48.566941" lon="7.751804">
        <ele>198.0</ele>
        <time>2020-07-12T06:26:21Z</time>
      </trkpt>
      <trkpt lat="48.56689" lon="7.751813">
        <ele>197.0</ele>
        <time>2020-07-12T06:26:22Z</time>
      </trkpt>
      <trkpt lat="48.566789" lon="7.751823">
        <ele>198.0</ele>
        <time>2020-07-12T06:26:24Z</time>
      </trkpt>
      <trkpt lat="48.566641" lon="7.751841">
        <ele>198.0</ele>
        <time>2020-07-12T06:26:27Z</time>
      </trkpt>
      <trkpt lat="48.566443" lon="7.751872">
        <ele>199.0</ele>
        <time>2020-07-12T06:26:31Z</time>
      </trkpt>
      <trkpt lat="48.565918" lon="7.751961">
        <ele>198.0</ele>
        <time>2020-07-12T06:26:41Z</time>
      </trkpt>
      <trkpt lat="48.565866" lon="7.751969">
        <ele>198.0</ele>
        <time>2020-07-12T06:26:42Z</time>
      </trkpt>
      <trkpt lat="48.565771" lon="7.751984">
        <ele>197.0</ele>
        <time>2020-07-12T06:26:44Z</time>
      </trkpt>
      <trkpt lat="48.565718" lon="7.752002">
        <ele>197.0</ele>
        <time>2020-07-12T06:26:45Z</time>
      </trkpt>
      <trkpt lat="48.565663" lon="7.752013">
        <ele>197.0</ele>
        <time>2020-07-12T06:26:46Z</time>
      </trkpt>
      <trkpt lat="48.565421" lon="7.752063">
        <ele>197.0</ele>
        <time>2020-07-12T06:26:51Z</time>
      </trkpt>
      <trkpt lat="48.565145" lon="7.752095">
        <ele>195.0</ele>
        <time>2020-07-12T06:26:56Z</time>
      </trkpt>
      <trkpt lat="48.565081" lon="7.752101">
        <ele>195.0</ele>
        <time>2020-07-12T06:26:57Z</time>
      </trkpt>
      <trkpt lat="48.564852" lon="7.752147">
        <ele>192.0</ele>
        <time>2020-07-12T06:27:01Z</time>
      </trkpt>
      <trkpt lat="48.564798" lon="7.752158">
        <ele>192.0</ele>
        <time>2020-07-12T06:27:02Z</time>
      </trkpt>
      <trkpt lat="48.564619" lon="7.752142">
        <ele>192.0</ele>
        <time>2020-07-12T06:27:06Z</time>
      </trkpt>
      <trkpt lat="48.564521" lon="7.752159">
        <ele>193.0</ele>
        <time>2020-07-12T06:27:09Z</time>
      </trkpt>
      <trkpt lat="48.564481" lon="7.752167">
        <ele>192.0</ele>
        <time>2020-07-12T06:27:10Z</time>
      </trkpt>
      <trkpt lat="48.564387" lon="7.752177">
        <ele>192.0</ele>
        <time>2020-07-12T06:27:12Z</time>
      </trkpt>
      <trkpt lat="48.564337" lon="7.752189">
        <ele>192.0</ele>
        <time>2020-07-12T06:27:13Z</time>
      </trkpt>
      <trkpt lat="48.564288" lon="7.752203">
        <ele>192.0</ele>
        <time>2020-07-12T06:27:14Z</time>
      </trkpt>
      <trkpt lat="48.563973" lon="7.752294">
        <ele>194.0</ele>
        <time>2020-07-12T06:27:21Z</time>
      </trkpt>
      <trkpt lat="48.563922" lon="7.752306">
        <ele>194.0</ele>
        <time>2020-07-12T06:27:22Z</time>
      </trkpt>
      <trkpt lat="48.563615" lon="7.752343">
        <ele>195.0</ele>
        <time>2020-07-12T06:27:29Z</time>
      </trkpt>
      <trkpt lat="48.562982" lon="7.752522">
        <ele>199.0</ele>
        <time>2020-07-12T06:27:42Z</time>
      </trkpt>
      <trkpt lat="48.562718" lon="7.752486">
        <ele>196.0</ele>
        <time>2020-07-12T06:27:48Z</time>
      </trkpt>
      <trkpt lat="48.562443" lon="7.752428">
        <ele>197.0</ele>
        <time>2020-07-12T06:27:54Z</time>
      </trkpt>
      <trkpt lat="48.562395" lon="7.75241">
        <ele>196.0</ele>
        <time>2020-07-12T06:27:55Z</time>
      </trkpt>
      <trkpt lat="48.562348" lon="7.752391">
        <ele>196.0</ele>
        <time>2020-07-12T06:27:56Z</time>
      </trkpt>
      <trkpt lat="48.562122" lon="7.75221">
        <ele>194.0</ele>
        <time>2020-07-12T06:28:01Z</time>
      </trkpt>
      <trkpt lat="48.562088" lon="7.752171">
        <ele>194.0</ele>
        <time>2020-07-12T06:28:02Z</time>
      </trkpt>
      <trkpt lat="48.562056" lon="7.752128">
        <ele>194.0</ele>
        <time>2020-07-12T06:28:03Z</time>
      </trkpt>
      <trkpt lat="48.561861" lon="7.751908">
        <ele>194.0</ele>
        <time>2020-07-12T06:28:08Z</time>
      </trkpt>
      <trkpt lat="48.561783" lon="7.751819">
        <ele>194.0</ele>
        <time>2020-07-12T06:28:10Z</time>
      </trkpt>
      <trkpt lat="48.561668" lon="7.751686">
        <ele>193.0</ele>
        <time>2020-07-12T06:28:13Z</time>
      </trkpt>
      <trkpt lat="48.561624" lon="7.751634">
        <ele>193.0</ele>
        <time>2020-07-12T06:28:14Z</time>
      </trkpt>
      <trkpt lat="48.561584" lon="7.751588">
        <ele>193.0</ele>
        <time>2020-07-12T06:28:15Z</time>
      </trkpt>
      <trkpt lat="48.561418" lon="7.751418">
        <ele>191.0</ele>
        <time>2020-07-12T06:28:19Z</time>
      </trkpt>
      <trkpt lat="48.561262" lon="7.751261">
        <ele>191.0</ele>
        <time>2020-07-12T06:28:23Z</time>
      </trkpt>
      <trkpt lat="48.561174" lon="7.75118">
        <ele>192.0</ele>
        <time>2020-07-12T06:28:26Z</time>
      </trkpt>
      <trkpt lat="48.561098" lon="7.751112">
        <ele>191.0</ele>
        <time>2020-07-12T06:28:28Z</time>
      </trkpt>
      <trkpt lat="48.561029" lon="7.751036">
        <ele>191.0</ele>
        <time>2020-07-12T06:28:30Z</time>
      </trkpt>
      <trkpt lat="48.560987" lon="7.750999">
        <ele>191.0</ele>
        <time>2020-07-12T06:28:31Z</time>
      </trkpt>
      <trkpt lat="48.560903" lon="7.750918">
        <ele>191.0</ele>
        <time>2020-07-12T06:28:33Z</time>
      </trkpt>
      <trkpt lat="48.56086" lon="7.750874">
        <ele>191.0</ele>
        <time>2020-07-12T06:28:34Z</time>
      </trkpt>
      <trkpt lat="48.560776" lon="7.750784">
        <ele>191.0</ele>
        <time>2020-07-12T06:28:36Z</time>
      </trkpt>
      <trkpt lat="48.560738" lon="7.750741">
        <ele>191.0</ele>
        <time>2020-07-12T06:28:37Z</time>
      </trkpt>
      <trkpt lat="48.560433" lon="7.750456">
        <ele>190.0</ele>
        <time>2020-07-12T06:28:44Z</time>
      </trkpt>
      <trkpt lat="48.560277" lon="7.750287">
        <ele>191.0</ele>
        <time>2020-07-12T06:28:48Z</time>
      </trkpt>
      <trkpt lat="48.560194" lon="7.750201">
        <ele>191.0</ele>
        <time>2020-07-12T06:28:50Z</time>
      </trkpt>
      <trkpt lat="48.560151" lon="7.75016">
        <ele>191.0</ele>
        <time>2020-07-12T06:28:51Z</time>
      </trkpt>
      <trkpt lat="48.560013" lon="7.750033">
        <ele>190.0</ele>
        <time>2020-07-12T06:28:54Z</time>
      </trkpt>
      <trkpt lat="48.559917" lon="7.749949">
        <ele>189.0</ele>
        <time>2020-07-12T06:28:56Z</time>
      </trkpt>
      <trkpt lat="48.559517" lon="7.749537">
        <ele>190.0</ele>
        <time>2020-07-12T06:29:05Z</time>
      </trkpt>
      <trkpt lat="48.559286" lon="7.749323">
        <ele>191.0</ele>
        <time>2020-07-12T06:29:10Z</time>
      </trkpt>
      <trkpt lat="48.559117" lon="7.749147">
        <ele>191.0</ele>
        <time>2020-07-12T06:29:14Z</time>
      </trkpt>
      <trkpt lat="48.558949" lon="7.748981">
        <ele>191.0</ele>
        <time>2020-07-12T06:29:18Z</time>
      </trkpt>
      <trkpt lat="48.5587" lon="7.748762">
        <ele>191.0</ele>
        <time>2020-07-12T06:29:24Z</time>
      </trkpt>
      <trkpt lat="48.558597" lon="7.74863">
        <ele>191.0</ele>
        <time>2020-07-12T06:29:27Z</time>
      </trkpt>
      <trkpt lat="48.558508" lon="7.748575">
        <ele>191.0</ele>
        <time>2020-07-12T06:29:29Z</time>
      </trkpt>
      <trkpt lat="48.558406" lon="7.748544">
        <ele>191.0</ele>
        <time>2020-07-12T06:29:31Z</time>
      </trkpt>
      <trkpt lat="48.55823" lon="7.74841">
        <ele>189.0</ele>
        <time>2020-07-12T06:29:35Z</time>
      </trkpt>
      <trkpt lat="48.558191" lon="7.748367">
        <ele>189.0</ele>
        <time>2020-07-12T06:29:36Z</time>
      </trkpt>
      <trkpt lat="48.558069" lon="7.74823">
        <ele>188.0</ele>
        <time>2020-07-12T06:29:39Z</time>
      </trkpt>
      <trkpt lat="48.558028" lon="7.748189">
        <ele>188.0</ele>
        <time>2020-07-12T06:29:40Z</time>
      </trkpt>
      <trkpt lat="48.557862" lon="7.748018">
        <ele>188.0</ele>
        <time>2020-07-12T06:29:44Z</time>
      </trkpt>
      <trkpt lat="48.557782" lon="7.747938">
        <ele>188.0</ele>
        <time>2020-07-12T06:29:46Z</time>
      </trkpt>
      <trkpt lat="48.557524" lon="7.747676">
        <ele>188.0</ele>
        <time>2020-07-12T06:29:52Z</time>
      </trkpt>
      <trkpt lat="48.557481" lon="7.747631">
        <ele>188.0</ele>
        <time>2020-07-12T06:29:53Z</time>
      </trkpt>
      <trkpt lat="48.557322" lon="7.747453">
        <ele>188.0</ele>
        <time>2020-07-12T06:29:57Z</time>
      </trkpt>
      <trkpt lat="48.557238" lon="7.747367">
        <ele>187.0</ele>
        <time>2020-07-12T06:29:59Z</time>
      </trkpt>
      <trkpt lat="48.55707" lon="7.74719">
        <ele>187.0</ele>
        <time>2020-07-12T06:30:03Z</time>
      </trkpt>
      <trkpt lat="48.556944" lon="7.747066">
        <ele>187.0</ele>
        <time>2020-07-12T06:30:06Z</time>
      </trkpt>
      <trkpt lat="48.556723" lon="7.746874">
        <ele>188.0</ele>
        <time>2020-07-12T06:30:11Z</time>
      </trkpt>
      <trkpt lat="48.556681" lon="7.746828">
        <ele>187.0</ele>
        <time>2020-07-12T06:30:12Z</time>
      </trkpt>
      <trkpt lat="48.556636" lon="7.746776">
        <ele>187.0</ele>
        <time>2020-07-12T06:30:13Z</time>
      </trkpt>
      <trkpt lat="48.556592" lon="7.746729">
        <ele>186.0</ele>
        <time>2020-07-12T06:30:14Z</time>
      </trkpt>
      <trkpt lat="48.556461" lon="7.746602">
        <ele>186.0</ele>
        <time>2020-07-12T06:30:17Z</time>
      </trkpt>
      <trkpt lat="48.55633" lon="7.746476">
        <ele>186.0</ele>
        <time>2020-07-12T06:30:20Z</time>
      </trkpt>
      <trkpt lat="48.556054" lon="7.74624">
        <ele>186.0</ele>
        <time>2020-07-12T06:30:26Z</time>
      </trkpt>
      <trkpt lat="48.555915" lon="7.746138">
        <ele>186.0</ele>
        <time>2020-07-12T06:30:29Z</time>
      </trkpt>
      <trkpt lat="48.555871" lon="7.746095">
        <ele>186.0</ele>
        <time>2020-07-12T06:30:30Z</time>
      </trkpt>
      <trkpt lat="48.555761" lon="7.745979">
        <ele>186.0</ele>
        <time>2020-07-12T06:30:33Z</time>
      </trkpt>
      <trkpt lat="48.555688" lon="7.745894">
        <ele>185.0</ele>
        <time>2020-07-12T06:30:35Z</time>
      </trkpt>
      <trkpt lat="48.555602" lon="7.745796">
        <ele>185.0</ele>
        <time>2020-07-12T06:30:37Z</time>
      </trkpt>
      <trkpt lat="48.555521" lon="7.745712">
        <ele>185.0</ele>
        <time>2020-07-12T06:30:39Z</time>
      </trkpt>
      <trkpt lat="48.555474" lon="7.745667">
        <ele>185.0</ele>
        <time>2020-07-12T06:30:40Z</time>
      </trkpt>
      <trkpt lat="48.555281" lon="7.745536">
        <ele>186.0</ele>
        <time>2020-07-12T06:30:44Z</time>
      </trkpt>
      <trkpt lat="48.554895" lon="7.745265">
        <ele>187.0</ele>
        <time>2020-07-12T06:30:52Z</time>
      </trkpt>
      <trkpt lat="48.554395" lon="7.74488">
        <ele>188.0</ele>
        <time>2020-07-12T06:31:02Z</time>
      </trkpt>
      <trkpt lat="48.553519" lon="7.744304">
        <ele>191.0</ele>
        <time>2020-07-12T06:31:20Z</time>
      </trkpt>
      <trkpt lat="48.552604" lon="7.743658">
        <ele>192.0</ele>
        <time>2020-07-12T06:31:39Z</time>
      </trkpt>
      <trkpt lat="48.552557" lon="7.743629">
        <ele>192.0</ele>
        <time>2020-07-12T06:31:40Z</time>
      </trkpt>
      <trkpt lat="48.552319" lon="7.743491">
        <ele>191.0</ele>
        <time>2020-07-12T06:31:45Z</time>
      </trkpt>
      <trkpt lat="48.552226" lon="7.743427">
        <ele>191.0</ele>
        <time>2020-07-12T06:31:47Z</time>
      </trkpt>
      <trkpt lat="48.552182" lon="7.74338">
        <ele>192.0</ele>
        <time>2020-07-12T06:31:48Z</time>
      </trkpt>
      <trkpt lat="48.552133" lon="7.743343">
        <ele>192.0</ele>
        <time>2020-07-12T06:31:49Z</time>
      </trkpt>
      <trkpt lat="48.551975" lon="7.743257">
        <ele>192.0</ele>
        <time>2020-07-12T06:31:52Z</time>
      </trkpt>
      <trkpt lat="48.551659" lon="7.743043">
        <ele>191.0</ele>
        <time>2020-07-12T06:31:58Z</time>
      </trkpt>
      <trkpt lat="48.551607" lon="7.743005">
        <ele>191.0</ele>
        <time>2020-07-12T06:31:59Z</time>
      </trkpt>
      <trkpt lat="48.551471" lon="7.742881">
        <ele>191.0</ele>
        <time>2020-07-12T06:32:02Z</time>
      </trkpt>
      <trkpt lat="48.551284" lon="7.742737">
        <ele>191.0</ele>
        <time>2020-07-12T06:32:06Z</time>
      </trkpt>
      <trkpt lat="48.551236" lon="7.742704">
        <ele>191.0</ele>
        <time>2020-07-12T06:32:07Z</time>
      </trkpt>
      <trkpt lat="48.551025" lon="7.742579">
        <ele>191.0</ele>
        <time>2020-07-12T06:32:11Z</time>
      </trkpt>
      <trkpt lat="48.550679" lon="7.742339">
        <ele>190.0</ele>
        <time>2020-07-12T06:32:18Z</time>
      </trkpt>
      <trkpt lat="48.550629" lon="7.742306">
        <ele>190.0</ele>
        <time>2020-07-12T06:32:19Z</time>
      </trkpt>
      <trkpt lat="48.550523" lon="7.742231">
        <ele>189.0</ele>
        <time>2020-07-12T06:32:21Z</time>
      </trkpt>
      <trkpt lat="48.550474" lon="7.742196">
        <ele>189.0</ele>
        <time>2020-07-12T06:32:22Z</time>
      </trkpt>
      <trkpt lat="48.550425" lon="7.742164">
        <ele>189.0</ele>
        <time>2020-07-12T06:32:23Z</time>
      </trkpt>
      <trkpt lat="48.550377" lon="7.742135">
        <ele>189.0</ele>
        <time>2020-07-12T06:32:24Z</time>
      </trkpt>
      <trkpt lat="48.550328" lon="7.742106">
        <ele>189.0</ele>
        <time>2020-07-12T06:32:25Z</time>
      </trkpt>
      <trkpt lat="48.550276" lon="7.742074">
        <ele>189.0</ele>
        <time>2020-07-12T06:32:26Z</time>
      </trkpt>
      <trkpt lat="48.550227" lon="7.742038">
        <ele>189.0</ele>
        <time>2020-07-12T06:32:27Z</time>
      </trkpt>
      <trkpt lat="48.549943" lon="7.741831">
        <ele>189.0</ele>
        <time>2020-07-12T06:32:33Z</time>
      </trkpt>
      <trkpt lat="48.549759" lon="7.74171">
        <ele>189.0</ele>
        <time>2020-07-12T06:32:37Z</time>
      </trkpt>
      <trkpt lat="48.549377" lon="7.74144">
        <ele>189.0</ele>
        <time>2020-07-12T06:32:45Z</time>
      </trkpt>
      <trkpt lat="48.549184" lon="7.741314">
        <ele>189.0</ele>
        <time>2020-07-12T06:32:49Z</time>
      </trkpt>
      <trkpt lat="48.548649" lon="7.740987">
        <ele>191.0</ele>
        <time>2020-07-12T06:33:00Z</time>
      </trkpt>
      <trkpt lat="48.548456" lon="7.740846">
        <ele>191.0</ele>
        <time>2020-07-12T06:33:04Z</time>
      </trkpt>
      <trkpt lat="48.548169" lon="7.74064">
        <ele>188.0</ele>
        <time>2020-07-12T06:33:10Z</time>
      </trkpt>
      <trkpt lat="48.548119" lon="7.740604">
        <ele>188.0</ele>
        <time>2020-07-12T06:33:11Z</time>
      </trkpt>
      <trkpt lat="48.547927" lon="7.74048">
        <ele>189.0</ele>
        <time>2020-07-12T06:33:15Z</time>
      </trkpt>
      <trkpt lat="48.547782" lon="7.74038">
        <ele>190.0</ele>
        <time>2020-07-12T06:33:18Z</time>
      </trkpt>
      <trkpt lat="48.547734" lon="7.74034">
        <ele>190.0</ele>
        <time>2020-07-12T06:33:19Z</time>
      </trkpt>
      <trkpt lat="48.547406" lon="7.74007">
        <ele>190.0</ele>
        <time>2020-07-12T06:33:26Z</time>
      </trkpt>
      <trkpt lat="48.546774" lon="7.73954">
        <ele>189.0</ele>
        <time>2020-07-12T06:33:40Z</time>
      </trkpt>
      <trkpt lat="48.546648" lon="7.739424">
        <ele>189.0</ele>
        <time>2020-07-12T06:33:43Z</time>
      </trkpt>
      <trkpt lat="48.546574" lon="7.739341">
        <ele>189.0</ele>
        <time>2020-07-12T06:33:45Z</time>
      </trkpt>
      <trkpt lat="48.546435" lon="7.739187">
        <ele>189.0</ele>
        <time>2020-07-12T06:33:49Z</time>
      </trkpt>
      <trkpt lat="48.546369" lon="7.739114">
        <ele>190.0</ele>
        <time>2020-07-12T06:33:51Z</time>
      </trkpt>
      <trkpt lat="48.546343" lon="7.739064">
        <ele>190.0</ele>
        <time>2020-07-12T06:33:52Z</time>
      </trkpt>
      <trkpt lat="48.546299" lon="7.738967">
        <ele>191.0</ele>
        <time>2020-07-12T06:33:54Z</time>
      </trkpt>
      <trkpt lat="48.546167" lon="7.738792">
        <ele>191.0</ele>
        <time>2020-07-12T06:33:58Z</time>
      </trkpt>
      <trkpt lat="48.546052" lon="7.738579">
        <ele>191.0</ele>
        <time>2020-07-12T06:34:02Z</time>
      </trkpt>
      <trkpt lat="48.546029" lon="7.738562">
        <ele>191.0</ele>
        <time>2020-07-12T06:34:05Z</time>
      </trkpt>
      <trkpt lat="48.546027" lon="7.738567">
        <ele>191.0</ele>
        <time>2020-07-12T06:34:08Z</time>
      </trkpt>
      <trkpt lat="48.546027" lon="7.738567">
        <ele>191.0</ele>
        <time>2020-07-12T06:34:09Z</time>
      </trkpt>
      <trkpt lat="48.546027" lon="7.738567">
        <ele>191.0</ele>
        <time>2020-07-12T06:34:10Z</time>
      </trkpt>
      <trkpt lat="48.546027" lon="7.738567">
        <ele>191.0</ele>
        <time>2020-07-12T06:34:11Z</time>
      </trkpt>
      <trkpt lat="48.546027" lon="7.738567">
        <ele>191.0</ele>
        <time>2020-07-12T06:34:13Z</time>
      </trkpt>
      <trkpt lat="48.546027" lon="7.738567">
        <ele>191.0</ele>
        <time>2020-07-12T06:34:14Z</time>
      </trkpt>
      <trkpt lat="48.546027" lon="7.738567">
        <ele>191.0</ele>
        <time>2020-07-12T06:34:17Z</time>
      </trkpt>
      <trkpt lat="48.546027" lon="7.738567">
        <ele>191.0</ele>
        <time>2020-07-12T06:34:24Z</time>
      </trkpt>
      <trkpt lat="48.546016" lon="7.738544">
        <ele>191.0</ele>
        <time>2020-07-12T06:34:36Z</time>
      </trkpt>
      <trkpt lat="48.545978" lon="7.738465">
        <ele>191.0</ele>
        <time>2020-07-12T06:34:39Z</time>
      </trkpt>
      <trkpt lat="48.545926" lon="7.738337">
        <ele>192.0</ele>
        <time>2020-07-12T06:34:42Z</time>
      </trkpt>
      <trkpt lat="48.545903" lon="7.738245">
        <ele>192.0</ele>
        <time>2020-07-12T06:34:44Z</time>
      </trkpt>
      <trkpt lat="48.545871" lon="7.738139">
        <ele>192.0</ele>
        <time>2020-07-12T06:34:46Z</time>
      </trkpt>
      <trkpt lat="48.545856" lon="7.738084">
        <ele>192.0</ele>
        <time>2020-07-12T06:34:47Z</time>
      </trkpt>
      <trkpt lat="48.545825" lon="7.737971">
        <ele>191.0</ele>
        <time>2020-07-12T06:34:49Z</time>
      </trkpt>
      <trkpt lat="48.54581" lon="7.737919">
        <ele>191.0</ele>
        <time>2020-07-12T06:34:50Z</time>
      </trkpt>
      <trkpt lat="48.545795" lon="7.737868">
        <ele>192.0</ele>
        <time>2020-07-12T06:34:51Z</time>
      </trkpt>
      <trkpt lat="48.545744" lon="7.737699">
        <ele>191.0</ele>
        <time>2020-07-12T06:34:54Z</time>
      </trkpt>
      <trkpt lat="48.545651" lon="7.737301">
        <ele>191.0</ele>
        <time>2020-07-12T06:35:01Z</time>
      </trkpt>
      <trkpt lat="48.54563" lon="7.737075">
        <ele>191.0</ele>
        <time>2020-07-12T06:35:05Z</time>
      </trkpt>
      <trkpt lat="48.545643" lon="7.736973">
        <ele>191.0</ele>
        <time>2020-07-12T06:35:07Z</time>
      </trkpt>
      <trkpt lat="48.54567" lon="7.736875">
        <ele>192.0</ele>
        <time>2020-07-12T06:35:09Z</time>
      </trkpt>
      <trkpt lat="48.545677" lon="7.73682">
        <ele>192.0</ele>
        <time>2020-07-12T06:35:10Z</time>
      </trkpt>
      <trkpt lat="48.545683" lon="7.736764">
        <ele>192.0</ele>
        <time>2020-07-12T06:35:11Z</time>
      </trkpt>
      <trkpt lat="48.545689" lon="7.736697">
        <ele>192.0</ele>
        <time>2020-07-12T06:35:12Z</time>
      </trkpt>
      <trkpt lat="48.545733" lon="7.736444">
        <ele>192.0</ele>
        <time>2020-07-12T06:35:16Z</time>
      </trkpt>
      <trkpt lat="48.545742" lon="7.736381">
        <ele>192.0</ele>
        <time>2020-07-12T06:35:17Z</time>
      </trkpt>
      <trkpt lat="48.545751" lon="7.736324">
        <ele>192.0</ele>
        <time>2020-07-12T06:35:18Z</time>
      </trkpt>
      <trkpt lat="48.545761" lon="7.736254">
        <ele>192.0</ele>
        <time>2020-07-12T06:35:19Z</time>
      </trkpt>
      <trkpt lat="48.545782" lon="7.736125">
        <ele>192.0</ele>
        <time>2020-07-12T06:35:21Z</time>
      </trkpt>
      <trkpt lat="48.545818" lon="7.735928">
        <ele>193.0</ele>
        <time>2020-07-12T06:35:24Z</time>
      </trkpt>
      <trkpt lat="48.545931" lon="7.735481">
        <ele>191.0</ele>
        <time>2020-07-12T06:35:32Z</time>
      </trkpt>
      <trkpt lat="48.546" lon="7.734785">
        <ele>191.0</ele>
        <time>2020-07-12T06:35:42Z</time>
      </trkpt>
      <trkpt lat="48.546049" lon="7.734305">
        <ele>191.0</ele>
        <time>2020-07-12T06:35:49Z</time>
      </trkpt>
      <trkpt lat="48.546061" lon="7.734104">
        <ele>191.0</ele>
        <time>2020-07-12T06:35:52Z</time>
      </trkpt>
      <trkpt lat="48.546069" lon="7.733898">
        <ele>191.0</ele>
        <time>2020-07-12T06:35:55Z</time>
      </trkpt>
      <trkpt lat="48.546072" lon="7.733693">
        <ele>191.0</ele>
        <time>2020-07-12T06:35:58Z</time>
      </trkpt>
      <trkpt lat="48.546074" lon="7.733644">
        <ele>190.0</ele>
        <time>2020-07-12T06:35:59Z</time>
      </trkpt>
      <trkpt lat="48.546075" lon="7.733384">
        <ele>192.0</ele>
        <time>2020-07-12T06:36:06Z</time>
      </trkpt>
      <trkpt lat="48.54608" lon="7.732912">
        <ele>190.0</ele>
        <time>2020-07-12T06:36:14Z</time>
      </trkpt>
      <trkpt lat="48.546124" lon="7.732031">
        <ele>192.0</ele>
        <time>2020-07-12T06:36:28Z</time>
      </trkpt>
      <trkpt lat="48.546092" lon="7.731061">
        <ele>191.0</ele>
        <time>2020-07-12T06:36:42Z</time>
      </trkpt>
      <trkpt lat="48.546068" lon="7.730988">
        <ele>191.0</ele>
        <time>2020-07-12T06:36:43Z</time>
      </trkpt>
      <trkpt lat="48.545996" lon="7.730851">
        <ele>192.0</ele>
        <time>2020-07-12T06:36:45Z</time>
      </trkpt>
      <trkpt lat="48.545898" lon="7.730728">
        <ele>192.0</ele>
        <time>2020-07-12T06:36:47Z</time>
      </trkpt>
      <trkpt lat="48.545795" lon="7.730634">
        <ele>192.0</ele>
        <time>2020-07-12T06:36:49Z</time>
      </trkpt>
      <trkpt lat="48.545487" lon="7.730477">
        <ele>190.0</ele>
        <time>2020-07-12T06:36:54Z</time>
      </trkpt>
      <trkpt lat="48.545431" lon="7.730451">
        <ele>190.0</ele>
        <time>2020-07-12T06:36:55Z</time>
      </trkpt>
      <trkpt lat="48.545376" lon="7.730429">
        <ele>190.0</ele>
        <time>2020-07-12T06:36:56Z</time>
      </trkpt>
      <trkpt lat="48.545322" lon="7.730403">
        <ele>190.0</ele>
        <time>2020-07-12T06:36:57Z</time>
      </trkpt>
      <trkpt lat="48.545271" lon="7.730376">
        <ele>190.0</ele>
        <time>2020-07-12T06:36:58Z</time>
      </trkpt>
      <trkpt lat="48.545218" lon="7.730349">
        <ele>190.0</ele>
        <time>2020-07-12T06:36:59Z</time>
      </trkpt>
      <trkpt lat="48.545162" lon="7.730322">
        <ele>190.0</ele>
        <time>2020-07-12T06:37:00Z</time>
      </trkpt>
      <trkpt lat="48.545054" lon="7.730271">
        <ele>189.0</ele>
        <time>2020-07-12T06:37:02Z</time>
      </trkpt>
      <trkpt lat="48.544789" lon="7.730271">
        <ele>189.0</ele>
        <time>2020-07-12T06:37:10Z</time>
      </trkpt>
      <trkpt lat="48.544749" lon="7.730416">
        <ele>190.0</ele>
        <time>2020-07-12T06:37:13Z</time>
      </trkpt>
      <trkpt lat="48.544697" lon="7.730615">
        <ele>190.0</ele>
        <time>2020-07-12T06:37:16Z</time>
      </trkpt>
      <trkpt lat="48.544558" lon="7.731123">
        <ele>190.0</ele>
        <time>2020-07-12T06:37:23Z</time>
      </trkpt>
      <trkpt lat="48.54449" lon="7.731327">
        <ele>191.0</ele>
        <time>2020-07-12T06:37:26Z</time>
      </trkpt>
      <trkpt lat="48.544438" lon="7.731523">
        <ele>191.0</ele>
        <time>2020-07-12T06:37:29Z</time>
      </trkpt>
      <trkpt lat="48.544427" lon="7.731545">
        <ele>191.0</ele>
        <time>2020-07-12T06:37:30Z</time>
      </trkpt>
      <trkpt lat="48.544373" lon="7.731527">
        <ele>191.0</ele>
        <time>2020-07-12T06:37:33Z</time>
      </trkpt>
      <trkpt lat="48.544339" lon="7.731513">
        <ele>190.0</ele>
        <time>2020-07-12T06:37:34Z</time>
      </trkpt>
      <trkpt lat="48.544165" lon="7.731385">
        <ele>189.0</ele>
        <time>2020-07-12T06:37:37Z</time>
      </trkpt>
      <trkpt lat="48.543977" lon="7.731309">
        <ele>188.0</ele>
        <time>2020-07-12T06:37:40Z</time>
      </trkpt>
      <trkpt lat="48.543907" lon="7.731316">
        <ele>188.0</ele>
        <time>2020-07-12T06:37:41Z</time>
      </trkpt>
      <trkpt lat="48.543677" lon="7.731325">
        <ele>187.0</ele>
        <time>2020-07-12T06:37:45Z</time>
      </trkpt>
      <trkpt lat="48.543566" lon="7.731308">
        <ele>186.0</ele>
        <time>2020-07-12T06:37:47Z</time>
      </trkpt>
      <trkpt lat="48.543508" lon="7.731301">
        <ele>187.0</ele>
        <time>2020-07-12T06:37:48Z</time>
      </trkpt>
      <trkpt lat="48.543235" lon="7.731284">
        <ele>187.0</ele>
        <time>2020-07-12T06:37:53Z</time>
      </trkpt>
      <trkpt lat="48.543183" lon="7.731272">
        <ele>187.0</ele>
        <time>2020-07-12T06:37:54Z</time>
      </trkpt>
      <trkpt lat="48.543128" lon="7.731263">
        <ele>186.0</ele>
        <time>2020-07-12T06:37:55Z</time>
      </trkpt>
      <trkpt lat="48.542966" lon="7.731248">
        <ele>186.0</ele>
        <time>2020-07-12T06:37:58Z</time>
      </trkpt>
      <trkpt lat="48.542632" lon="7.731203">
        <ele>187.0</ele>
        <time>2020-07-12T06:38:04Z</time>
      </trkpt>
      <trkpt lat="48.542412" lon="7.731152">
        <ele>187.0</ele>
        <time>2020-07-12T06:38:08Z</time>
      </trkpt>
      <trkpt lat="48.542357" lon="7.731148">
        <ele>187.0</ele>
        <time>2020-07-12T06:38:09Z</time>
      </trkpt>
      <trkpt lat="48.542242" lon="7.731131">
        <ele>187.0</ele>
        <time>2020-07-12T06:38:11Z</time>
      </trkpt>
      <trkpt lat="48.542073" lon="7.731117">
        <ele>187.0</ele>
        <time>2020-07-12T06:38:14Z</time>
      </trkpt>
      <trkpt lat="48.541959" lon="7.731097">
        <ele>186.0</ele>
        <time>2020-07-12T06:38:16Z</time>
      </trkpt>
      <trkpt lat="48.54173" lon="7.731064">
        <ele>186.0</ele>
        <time>2020-07-12T06:38:20Z</time>
      </trkpt>
      <trkpt lat="48.541567" lon="7.731054">
        <ele>185.0</ele>
        <time>2020-07-12T06:38:23Z</time>
      </trkpt>
      <trkpt lat="48.541448" lon="7.731039">
        <ele>185.0</ele>
        <time>2020-07-12T06:38:25Z</time>
      </trkpt>
      <trkpt lat="48.541155" lon="7.731008">
        <ele>185.0</ele>
        <time>2020-07-12T06:38:30Z</time>
      </trkpt>
      <trkpt lat="48.541094" lon="7.730998">
        <ele>184.0</ele>
        <time>2020-07-12T06:38:31Z</time>
      </trkpt>
      <trkpt lat="48.541032" lon="7.730988">
        <ele>185.0</ele>
        <time>2020-07-12T06:38:32Z</time>
      </trkpt>
      <trkpt lat="48.540864" lon="7.730966">
        <ele>185.0</ele>
        <time>2020-07-12T06:38:35Z</time>
      </trkpt>
      <trkpt lat="48.540754" lon="7.730947">
        <ele>185.0</ele>
        <time>2020-07-12T06:38:37Z</time>
      </trkpt>
      <trkpt lat="48.540705" lon="7.730934">
        <ele>186.0</ele>
        <time>2020-07-12T06:38:38Z</time>
      </trkpt>
      <trkpt lat="48.540657" lon="7.730908">
        <ele>186.0</ele>
        <time>2020-07-12T06:38:39Z</time>
      </trkpt>
      <trkpt lat="48.540483" lon="7.730942">
        <ele>186.0</ele>
        <time>2020-07-12T06:38:43Z</time>
      </trkpt>
      <trkpt lat="48.540448" lon="7.730956">
        <ele>187.0</ele>
        <time>2020-07-12T06:38:44Z</time>
      </trkpt>
      <trkpt lat="48.540417" lon="7.730962">
        <ele>187.0</ele>
        <time>2020-07-12T06:38:45Z</time>
      </trkpt>
      <trkpt lat="48.540381" lon="7.73096">
        <ele>187.0</ele>
        <time>2020-07-12T06:38:46Z</time>
      </trkpt>
      <trkpt lat="48.54034" lon="7.730949">
        <ele>187.0</ele>
        <time>2020-07-12T06:38:47Z</time>
      </trkpt>
      <trkpt lat="48.540256" lon="7.730939">
        <ele>188.0</ele>
        <time>2020-07-12T06:38:49Z</time>
      </trkpt>
      <trkpt lat="48.540064" lon="7.730906">
        <ele>188.0</ele>
        <time>2020-07-12T06:38:53Z</time>
      </trkpt>
      <trkpt lat="48.539964" lon="7.730885">
        <ele>189.0</ele>
        <time>2020-07-12T06:38:55Z</time>
      </trkpt>
      <trkpt lat="48.53985" lon="7.730865">
        <ele>189.0</ele>
        <time>2020-07-12T06:38:57Z</time>
      </trkpt>
      <trkpt lat="48.539736" lon="7.730847">
        <ele>190.0</ele>
        <time>2020-07-12T06:38:59Z</time>
      </trkpt>
      <trkpt lat="48.539496" lon="7.730829">
        <ele>190.0</ele>
        <time>2020-07-12T06:39:03Z</time>
      </trkpt>
      <trkpt lat="48.539364" lon="7.730816">
        <ele>189.0</ele>
        <time>2020-07-12T06:39:05Z</time>
      </trkpt>
      <trkpt lat="48.539034" lon="7.730762">
        <ele>189.0</ele>
        <time>2020-07-12T06:39:11Z</time>
      </trkpt>
      <trkpt lat="48.538983" lon="7.730754">
        <ele>189.0</ele>
        <time>2020-07-12T06:39:12Z</time>
      </trkpt>
      <trkpt lat="48.538787" lon="7.730688">
        <ele>187.0</ele>
        <time>2020-07-12T06:39:15Z</time>
      </trkpt>
      <trkpt lat="48.538664" lon="7.730655">
        <ele>187.0</ele>
        <time>2020-07-12T06:39:17Z</time>
      </trkpt>
      <trkpt lat="48.538482" lon="7.730539">
        <ele>188.0</ele>
        <time>2020-07-12T06:39:21Z</time>
      </trkpt>
      <trkpt lat="48.538409" lon="7.730541">
        <ele>188.0</ele>
        <time>2020-07-12T06:39:23Z</time>
      </trkpt>
      <trkpt lat="48.538418" lon="7.730636">
        <ele>189.0</ele>
        <time>2020-07-12T06:39:25Z</time>
      </trkpt>
      <trkpt lat="48.538432" lon="7.73068">
        <ele>189.0</ele>
        <time>2020-07-12T06:39:26Z</time>
      </trkpt>
      <trkpt lat="48.538381" lon="7.730767">
        <ele>189.0</ele>
        <time>2020-07-12T06:39:31Z</time>
      </trkpt>
      <trkpt lat="48.53824" lon="7.730767">
        <ele>190.0</ele>
        <time>2020-07-12T06:39:35Z</time>
      </trkpt>
      <trkpt lat="48.53818" lon="7.730779">
        <ele>191.0</ele>
        <time>2020-07-12T06:39:36Z</time>
      </trkpt>
      <trkpt lat="48.53794" lon="7.730787">
        <ele>193.0</ele>
        <time>2020-07-12T06:39:41Z</time>
      </trkpt>
      <trkpt lat="48.537888" lon="7.730783">
        <ele>193.0</ele>
        <time>2020-07-12T06:39:42Z</time>
      </trkpt>
      <trkpt lat="48.537837" lon="7.730777">
        <ele>193.0</ele>
        <time>2020-07-12T06:39:43Z</time>
      </trkpt>
      <trkpt lat="48.537788" lon="7.730758">
        <ele>193.0</ele>
        <time>2020-07-12T06:39:44Z</time>
      </trkpt>
      <trkpt lat="48.537674" lon="7.730707">
        <ele>192.0</ele>
        <time>2020-07-12T06:39:47Z</time>
      </trkpt>
      <trkpt lat="48.537638" lon="7.730698">
        <ele>192.0</ele>
        <time>2020-07-12T06:39:48Z</time>
      </trkpt>
      <trkpt lat="48.537605" lon="7.730689">
        <ele>192.0</ele>
        <time>2020-07-12T06:39:49Z</time>
      </trkpt>
      <trkpt lat="48.53757" lon="7.730681">
        <ele>192.0</ele>
        <time>2020-07-12T06:39:50Z</time>
      </trkpt>
      <trkpt lat="48.537534" lon="7.730671">
        <ele>192.0</ele>
        <time>2020-07-12T06:39:51Z</time>
      </trkpt>
      <trkpt lat="48.537407" lon="7.730604">
        <ele>192.0</ele>
        <time>2020-07-12T06:39:54Z</time>
      </trkpt>
      <trkpt lat="48.537346" lon="7.730577">
        <ele>192.0</ele>
        <time>2020-07-12T06:39:55Z</time>
      </trkpt>
      <trkpt lat="48.537277" lon="7.730553">
        <ele>192.0</ele>
        <time>2020-07-12T06:39:56Z</time>
      </trkpt>
      <trkpt lat="48.537209" lon="7.730545">
        <ele>191.0</ele>
        <time>2020-07-12T06:39:57Z</time>
      </trkpt>
      <trkpt lat="48.537097" lon="7.73053">
        <ele>189.0</ele>
        <time>2020-07-12T06:39:59Z</time>
      </trkpt>
      <trkpt lat="48.536939" lon="7.730522">
        <ele>189.0</ele>
        <time>2020-07-12T06:40:02Z</time>
      </trkpt>
      <trkpt lat="48.536889" lon="7.73052">
        <ele>189.0</ele>
        <time>2020-07-12T06:40:03Z</time>
      </trkpt>
      <trkpt lat="48.536839" lon="7.730516">
        <ele>189.0</ele>
        <time>2020-07-12T06:40:04Z</time>
      </trkpt>
      <trkpt lat="48.536559" lon="7.730501">
        <ele>189.0</ele>
        <time>2020-07-12T06:40:10Z</time>
      </trkpt>
      <trkpt lat="48.536514" lon="7.730488">
        <ele>188.0</ele>
        <time>2020-07-12T06:40:11Z</time>
      </trkpt>
      <trkpt lat="48.536466" lon="7.73048">
        <ele>188.0</ele>
        <time>2020-07-12T06:40:12Z</time>
      </trkpt>
      <trkpt lat="48.536364" lon="7.730463">
        <ele>188.0</ele>
        <time>2020-07-12T06:40:14Z</time>
      </trkpt>
      <trkpt lat="48.536216" lon="7.730441">
        <ele>188.0</ele>
        <time>2020-07-12T06:40:17Z</time>
      </trkpt>
      <trkpt lat="48.536164" lon="7.730435">
        <ele>188.0</ele>
        <time>2020-07-12T06:40:18Z</time>
      </trkpt>
      <trkpt lat="48.536004" lon="7.730405">
        <ele>188.0</ele>
        <time>2020-07-12T06:40:21Z</time>
      </trkpt>
      <trkpt lat="48.535842" lon="7.730388">
        <ele>188.0</ele>
        <time>2020-07-12T06:40:24Z</time>
      </trkpt>
      <trkpt lat="48.535784" lon="7.73038">
        <ele>188.0</ele>
        <time>2020-07-12T06:40:25Z</time>
      </trkpt>
      <trkpt lat="48.535723" lon="7.730371">
        <ele>188.0</ele>
        <time>2020-07-12T06:40:26Z</time>
      </trkpt>
      <trkpt lat="48.535555" lon="7.730367">
        <ele>187.0</ele>
        <time>2020-07-12T06:40:29Z</time>
      </trkpt>
      <trkpt lat="48.535184" lon="7.730284">
        <ele>189.0</ele>
        <time>2020-07-12T06:40:36Z</time>
      </trkpt>
      <trkpt lat="48.534922" lon="7.730262">
        <ele>189.0</ele>
        <time>2020-07-12T06:40:41Z</time>
      </trkpt>
      <trkpt lat="48.534778" lon="7.730226">
        <ele>189.0</ele>
        <time>2020-07-12T06:40:44Z</time>
      </trkpt>
      <trkpt lat="48.534552" lon="7.730221">
        <ele>190.0</ele>
        <time>2020-07-12T06:40:48Z</time>
      </trkpt>
      <trkpt lat="48.534447" lon="7.730207">
        <ele>190.0</ele>
        <time>2020-07-12T06:40:50Z</time>
      </trkpt>
      <trkpt lat="48.534227" lon="7.730178">
        <ele>189.0</ele>
        <time>2020-07-12T06:40:54Z</time>
      </trkpt>
      <trkpt lat="48.534165" lon="7.730171">
        <ele>189.0</ele>
        <time>2020-07-12T06:40:55Z</time>
      </trkpt>
      <trkpt lat="48.533925" lon="7.730144">
        <ele>190.0</ele>
        <time>2020-07-12T06:40:59Z</time>
      </trkpt>
      <trkpt lat="48.53374" lon="7.730119">
        <ele>189.0</ele>
        <time>2020-07-12T06:41:02Z</time>
      </trkpt>
      <trkpt lat="48.533683" lon="7.730113">
        <ele>189.0</ele>
        <time>2020-07-12T06:41:03Z</time>
      </trkpt>
      <trkpt lat="48.533116" lon="7.730038">
        <ele>190.0</ele>
        <time>2020-07-12T06:41:13Z</time>
      </trkpt>
      <trkpt lat="48.532198" lon="7.729919">
        <ele>190.0</ele>
        <time>2020-07-12T06:41:30Z</time>
      </trkpt>
      <trkpt lat="48.53172" lon="7.729846">
        <ele>192.0</ele>
        <time>2020-07-12T06:41:39Z</time>
      </trkpt>
      <trkpt lat="48.531172" lon="7.729768">
        <ele>192.0</ele>
        <time>2020-07-12T06:41:48Z</time>
      </trkpt>
      <trkpt lat="48.530774" lon="7.729723">
        <ele>190.0</ele>
        <time>2020-07-12T06:41:54Z</time>
      </trkpt>
      <trkpt lat="48.529983" lon="7.729591">
        <ele>191.0</ele>
        <time>2020-07-12T06:42:08Z</time>
      </trkpt>
      <trkpt lat="48.529422" lon="7.72955">
        <ele>190.0</ele>
        <time>2020-07-12T06:42:18Z</time>
      </trkpt>
      <trkpt lat="48.529264" lon="7.729562">
        <ele>190.0</ele>
        <time>2020-07-12T06:42:21Z</time>
      </trkpt>
      <trkpt lat="48.528911" lon="7.72956">
        <ele>189.0</ele>
        <time>2020-07-12T06:42:30Z</time>
      </trkpt>
      <trkpt lat="48.528302" lon="7.729428">
        <ele>190.0</ele>
        <time>2020-07-12T06:42:39Z</time>
      </trkpt>
      <trkpt lat="48.527955" lon="7.729347">
        <ele>191.0</ele>
        <time>2020-07-12T06:42:45Z</time>
      </trkpt>
      <trkpt lat="48.527894" lon="7.729333">
        <ele>191.0</ele>
        <time>2020-07-12T06:42:46Z</time>
      </trkpt>
      <trkpt lat="48.527278" lon="7.729263">
        <ele>192.0</ele>
        <time>2020-07-12T06:42:57Z</time>
      </trkpt>
      <trkpt lat="48.526665" lon="7.729125">
        <ele>190.0</ele>
        <time>2020-07-12T06:43:07Z</time>
      </trkpt>
      <trkpt lat="48.525966" lon="7.729055">
        <ele>192.0</ele>
        <time>2020-07-12T06:43:19Z</time>
      </trkpt>
      <trkpt lat="48.525605" lon="7.728984">
        <ele>190.0</ele>
        <time>2020-07-12T06:43:25Z</time>
      </trkpt>
      <trkpt lat="48.525117" lon="7.728952">
        <ele>190.0</ele>
        <time>2020-07-12T06:43:33Z</time>
      </trkpt>
      <trkpt lat="48.525061" lon="7.728944">
        <ele>190.0</ele>
        <time>2020-07-12T06:43:34Z</time>
      </trkpt>
      <trkpt lat="48.524955" lon="7.728942">
        <ele>189.0</ele>
        <time>2020-07-12T06:43:36Z</time>
      </trkpt>
      <trkpt lat="48.524838" lon="7.728938">
        <ele>189.0</ele>
        <time>2020-07-12T06:43:38Z</time>
      </trkpt>
      <trkpt lat="48.524783" lon="7.728932">
        <ele>189.0</ele>
        <time>2020-07-12T06:43:39Z</time>
      </trkpt>
      <trkpt lat="48.524611" lon="7.728913">
        <ele>189.0</ele>
        <time>2020-07-12T06:43:42Z</time>
      </trkpt>
      <trkpt lat="48.524553" lon="7.728911">
        <ele>189.0</ele>
        <time>2020-07-12T06:43:43Z</time>
      </trkpt>
      <trkpt lat="48.524495" lon="7.728902">
        <ele>189.0</ele>
        <time>2020-07-12T06:43:44Z</time>
      </trkpt>
      <trkpt lat="48.524438" lon="7.728896">
        <ele>189.0</ele>
        <time>2020-07-12T06:43:45Z</time>
      </trkpt>
      <trkpt lat="48.524257" lon="7.728875">
        <ele>189.0</ele>
        <time>2020-07-12T06:43:48Z</time>
      </trkpt>
      <trkpt lat="48.52415" lon="7.728865">
        <ele>190.0</ele>
        <time>2020-07-12T06:43:50Z</time>
      </trkpt>
      <trkpt lat="48.524099" lon="7.728862">
        <ele>190.0</ele>
        <time>2020-07-12T06:43:51Z</time>
      </trkpt>
      <trkpt lat="48.524052" lon="7.728856">
        <ele>190.0</ele>
        <time>2020-07-12T06:43:52Z</time>
      </trkpt>
      <trkpt lat="48.524" lon="7.728844">
        <ele>190.0</ele>
        <time>2020-07-12T06:43:53Z</time>
      </trkpt>
      <trkpt lat="48.523725" lon="7.728814">
        <ele>190.0</ele>
        <time>2020-07-12T06:43:58Z</time>
      </trkpt>
      <trkpt lat="48.523669" lon="7.728809">
        <ele>190.0</ele>
        <time>2020-07-12T06:43:59Z</time>
      </trkpt>
      <trkpt lat="48.523617" lon="7.728802">
        <ele>190.0</ele>
        <time>2020-07-12T06:44:00Z</time>
      </trkpt>
      <trkpt lat="48.523562" lon="7.728792">
        <ele>190.0</ele>
        <time>2020-07-12T06:44:01Z</time>
      </trkpt>
      <trkpt lat="48.523507" lon="7.728785">
        <ele>190.0</ele>
        <time>2020-07-12T06:44:02Z</time>
      </trkpt>
      <trkpt lat="48.523456" lon="7.728784">
        <ele>190.0</ele>
        <time>2020-07-12T06:44:03Z</time>
      </trkpt>
      <trkpt lat="48.523401" lon="7.728771">
        <ele>190.0</ele>
        <time>2020-07-12T06:44:04Z</time>
      </trkpt>
      <trkpt lat="48.523344" lon="7.728757">
        <ele>190.0</ele>
        <time>2020-07-12T06:44:05Z</time>
      </trkpt>
      <trkpt lat="48.523283" lon="7.728745">
        <ele>190.0</ele>
        <time>2020-07-12T06:44:06Z</time>
      </trkpt>
      <trkpt lat="48.523223" lon="7.728734">
        <ele>190.0</ele>
        <time>2020-07-12T06:44:07Z</time>
      </trkpt>
      <trkpt lat="48.523167" lon="7.728721">
        <ele>190.0</ele>
        <time>2020-07-12T06:44:08Z</time>
      </trkpt>
      <trkpt lat="48.523113" lon="7.728708">
        <ele>190.0</ele>
        <time>2020-07-12T06:44:09Z</time>
      </trkpt>
      <trkpt lat="48.523054" lon="7.728696">
        <ele>190.0</ele>
        <time>2020-07-12T06:44:10Z</time>
      </trkpt>
      <trkpt lat="48.523" lon="7.728683">
        <ele>189.0</ele>
        <time>2020-07-12T06:44:11Z</time>
      </trkpt>
      <trkpt lat="48.522838" lon="7.728663">
        <ele>189.0</ele>
        <time>2020-07-12T06:44:14Z</time>
      </trkpt>
      <trkpt lat="48.522782" lon="7.728657">
        <ele>189.0</ele>
        <time>2020-07-12T06:44:15Z</time>
      </trkpt>
      <trkpt lat="48.522727" lon="7.728653">
        <ele>189.0</ele>
        <time>2020-07-12T06:44:16Z</time>
      </trkpt>
      <trkpt lat="48.522669" lon="7.72864">
        <ele>189.0</ele>
        <time>2020-07-12T06:44:17Z</time>
      </trkpt>
      <trkpt lat="48.522608" lon="7.728626">
        <ele>190.0</ele>
        <time>2020-07-12T06:44:18Z</time>
      </trkpt>
      <trkpt lat="48.52254" lon="7.728611">
        <ele>189.0</ele>
        <time>2020-07-12T06:44:19Z</time>
      </trkpt>
      <trkpt lat="48.522341" lon="7.728584">
        <ele>190.0</ele>
        <time>2020-07-12T06:44:22Z</time>
      </trkpt>
      <trkpt lat="48.522222" lon="7.728567">
        <ele>190.0</ele>
        <time>2020-07-12T06:44:24Z</time>
      </trkpt>
      <trkpt lat="48.522101" lon="7.728552">
        <ele>189.0</ele>
        <time>2020-07-12T06:44:26Z</time>
      </trkpt>
      <trkpt lat="48.522043" lon="7.728545">
        <ele>189.0</ele>
        <time>2020-07-12T06:44:27Z</time>
      </trkpt>
      <trkpt lat="48.521867" lon="7.728522">
        <ele>190.0</ele>
        <time>2020-07-12T06:44:30Z</time>
      </trkpt>
      <trkpt lat="48.521808" lon="7.728512">
        <ele>190.0</ele>
        <time>2020-07-12T06:44:31Z</time>
      </trkpt>
      <trkpt lat="48.521631" lon="7.728481">
        <ele>190.0</ele>
        <time>2020-07-12T06:44:34Z</time>
      </trkpt>
      <trkpt lat="48.5214" lon="7.728456">
        <ele>191.0</ele>
        <time>2020-07-12T06:44:38Z</time>
      </trkpt>
      <trkpt lat="48.521344" lon="7.728448">
        <ele>191.0</ele>
        <time>2020-07-12T06:44:39Z</time>
      </trkpt>
      <trkpt lat="48.521294" lon="7.728441">
        <ele>191.0</ele>
        <time>2020-07-12T06:44:40Z</time>
      </trkpt>
      <trkpt lat="48.521126" lon="7.728427">
        <ele>191.0</ele>
        <time>2020-07-12T06:44:43Z</time>
      </trkpt>
      <trkpt lat="48.521069" lon="7.72843">
        <ele>191.0</ele>
        <time>2020-07-12T06:44:44Z</time>
      </trkpt>
      <trkpt lat="48.521008" lon="7.728437">
        <ele>191.0</ele>
        <time>2020-07-12T06:44:45Z</time>
      </trkpt>
      <trkpt lat="48.520888" lon="7.728459">
        <ele>191.0</ele>
        <time>2020-07-12T06:44:47Z</time>
      </trkpt>
      <trkpt lat="48.520832" lon="7.728474">
        <ele>191.0</ele>
        <time>2020-07-12T06:44:48Z</time>
      </trkpt>
      <trkpt lat="48.520775" lon="7.728489">
        <ele>191.0</ele>
        <time>2020-07-12T06:44:49Z</time>
      </trkpt>
      <trkpt lat="48.52072" lon="7.728504">
        <ele>190.0</ele>
        <time>2020-07-12T06:44:50Z</time>
      </trkpt>
      <trkpt lat="48.520667" lon="7.728512">
        <ele>190.0</ele>
        <time>2020-07-12T06:44:51Z</time>
      </trkpt>
      <trkpt lat="48.52061" lon="7.728518">
        <ele>190.0</ele>
        <time>2020-07-12T06:44:52Z</time>
      </trkpt>
      <trkpt lat="48.520389" lon="7.728557">
        <ele>190.0</ele>
        <time>2020-07-12T06:44:56Z</time>
      </trkpt>
      <trkpt lat="48.520331" lon="7.728525">
        <ele>190.0</ele>
        <time>2020-07-12T06:44:57Z</time>
      </trkpt>
      <trkpt lat="48.519883" lon="7.728331">
        <ele>189.0</ele>
        <time>2020-07-12T06:45:05Z</time>
      </trkpt>
      <trkpt lat="48.519831" lon="7.728305">
        <ele>189.0</ele>
        <time>2020-07-12T06:45:06Z</time>
      </trkpt>
      <trkpt lat="48.519665" lon="7.728284">
        <ele>189.0</ele>
        <time>2020-07-12T06:45:09Z</time>
      </trkpt>
      <trkpt lat="48.519441" lon="7.728252">
        <ele>190.0</ele>
        <time>2020-07-12T06:45:13Z</time>
      </trkpt>
      <trkpt lat="48.519385" lon="7.728252">
        <ele>190.0</ele>
        <time>2020-07-12T06:45:14Z</time>
      </trkpt>
      <trkpt lat="48.519325" lon="7.728254">
        <ele>190.0</ele>
        <time>2020-07-12T06:45:15Z</time>
      </trkpt>
      <trkpt lat="48.519213" lon="7.728241">
        <ele>190.0</ele>
        <time>2020-07-12T06:45:17Z</time>
      </trkpt>
      <trkpt lat="48.519156" lon="7.728234">
        <ele>190.0</ele>
        <time>2020-07-12T06:45:18Z</time>
      </trkpt>
      <trkpt lat="48.519097" lon="7.728229">
        <ele>190.0</ele>
        <time>2020-07-12T06:45:19Z</time>
      </trkpt>
      <trkpt lat="48.51898" lon="7.728217">
        <ele>190.0</ele>
        <time>2020-07-12T06:45:21Z</time>
      </trkpt>
      <trkpt lat="48.51886" lon="7.728198">
        <ele>190.0</ele>
        <time>2020-07-12T06:45:23Z</time>
      </trkpt>
      <trkpt lat="48.518541" lon="7.728134">
        <ele>191.0</ele>
        <time>2020-07-12T06:45:29Z</time>
      </trkpt>
      <trkpt lat="48.518491" lon="7.728129">
        <ele>191.0</ele>
        <time>2020-07-12T06:45:30Z</time>
      </trkpt>
      <trkpt lat="48.518226" lon="7.728098">
        <ele>191.0</ele>
        <time>2020-07-12T06:45:35Z</time>
      </trkpt>
      <trkpt lat="48.518027" lon="7.728071">
        <ele>189.0</ele>
        <time>2020-07-12T06:45:38Z</time>
      </trkpt>
      <trkpt lat="48.517547" lon="7.728006">
        <ele>189.0</ele>
        <time>2020-07-12T06:45:45Z</time>
      </trkpt>
      <trkpt lat="48.517001" lon="7.727949">
        <ele>188.0</ele>
        <time>2020-07-12T06:45:54Z</time>
      </trkpt>
      <trkpt lat="48.516133" lon="7.727847">
        <ele>189.0</ele>
        <time>2020-07-12T06:46:09Z</time>
      </trkpt>
      <trkpt lat="48.515851" lon="7.727799">
        <ele>189.0</ele>
        <time>2020-07-12T06:46:14Z</time>
      </trkpt>
      <trkpt lat="48.515057" lon="7.727685">
        <ele>190.0</ele>
        <time>2020-07-12T06:46:28Z</time>
      </trkpt>
      <trkpt lat="48.514319" lon="7.727551">
        <ele>190.0</ele>
        <time>2020-07-12T06:46:41Z</time>
      </trkpt>
      <trkpt lat="48.514004" lon="7.727494">
        <ele>191.0</ele>
        <time>2020-07-12T06:46:48Z</time>
      </trkpt>
      <trkpt lat="48.513408" lon="7.727374">
        <ele>192.0</ele>
        <time>2020-07-12T06:46:59Z</time>
      </trkpt>
      <trkpt lat="48.51258" lon="7.727297">
        <ele>191.0</ele>
        <time>2020-07-12T06:47:12Z</time>
      </trkpt>
      <trkpt lat="48.511608" lon="7.727221">
        <ele>191.0</ele>
        <time>2020-07-12T06:47:30Z</time>
      </trkpt>
      <trkpt lat="48.51102" lon="7.72721">
        <ele>190.0</ele>
        <time>2020-07-12T06:47:40Z</time>
      </trkpt>
      <trkpt lat="48.510342" lon="7.727186">
        <ele>192.0</ele>
        <time>2020-07-12T06:47:55Z</time>
      </trkpt>
      <trkpt lat="48.509943" lon="7.727146">
        <ele>192.0</ele>
        <time>2020-07-12T06:48:03Z</time>
      </trkpt>
      <trkpt lat="48.509582" lon="7.727084">
        <ele>191.0</ele>
        <time>2020-07-12T06:48:10Z</time>
      </trkpt>
      <trkpt lat="48.509523" lon="7.727081">
        <ele>191.0</ele>
        <time>2020-07-12T06:48:11Z</time>
      </trkpt>
      <trkpt lat="48.50888" lon="7.726945">
        <ele>193.0</ele>
        <time>2020-07-12T06:48:23Z</time>
      </trkpt>
      <trkpt lat="48.508712" lon="7.726904">
        <ele>193.0</ele>
        <time>2020-07-12T06:48:26Z</time>
      </trkpt>
      <trkpt lat="48.507505" lon="7.726735">
        <ele>194.0</ele>
        <time>2020-07-12T06:48:47Z</time>
      </trkpt>
      <trkpt lat="48.506591" lon="7.726601">
        <ele>195.0</ele>
        <time>2020-07-12T06:49:02Z</time>
      </trkpt>
      <trkpt lat="48.50529" lon="7.726352">
        <ele>195.0</ele>
        <time>2020-07-12T06:49:25Z</time>
      </trkpt>
      <trkpt lat="48.504422" lon="7.726282">
        <ele>193.0</ele>
        <time>2020-07-12T06:49:40Z</time>
      </trkpt>
      <trkpt lat="48.503438" lon="7.726208">
        <ele>193.0</ele>
        <time>2020-07-12T06:49:56Z</time>
      </trkpt>
      <trkpt lat="48.503234" lon="7.726181">
        <ele>194.0</ele>
        <time>2020-07-12T06:50:00Z</time>
      </trkpt>
      <trkpt lat="48.502362" lon="7.726092">
        <ele>194.0</ele>
        <time>2020-07-12T06:50:14Z</time>
      </trkpt>
      <trkpt lat="48.502302" lon="7.726108">
        <ele>194.0</ele>
        <time>2020-07-12T06:50:15Z</time>
      </trkpt>
      <trkpt lat="48.50162" lon="7.725999">
        <ele>195.0</ele>
        <time>2020-07-12T06:50:27Z</time>
      </trkpt>
      <trkpt lat="48.500935" lon="7.725919">
        <ele>194.0</ele>
        <time>2020-07-12T06:50:38Z</time>
      </trkpt>
      <trkpt lat="48.5007" lon="7.725888">
        <ele>195.0</ele>
        <time>2020-07-12T06:50:42Z</time>
      </trkpt>
      <trkpt lat="48.500642" lon="7.725876">
        <ele>195.0</ele>
        <time>2020-07-12T06:50:43Z</time>
      </trkpt>
      <trkpt lat="48.49934" lon="7.7257">
        <ele>193.0</ele>
        <time>2020-07-12T06:51:06Z</time>
      </trkpt>
      <trkpt lat="48.499186" lon="7.725658">
        <ele>193.0</ele>
        <time>2020-07-12T06:51:09Z</time>
      </trkpt>
      <trkpt lat="48.497932" lon="7.725468">
        <ele>194.0</ele>
        <time>2020-07-12T06:51:30Z</time>
      </trkpt>
      <trkpt lat="48.497061" lon="7.725377">
        <ele>194.0</ele>
        <time>2020-07-12T06:51:45Z</time>
      </trkpt>
      <trkpt lat="48.495925" lon="7.725247">
        <ele>194.0</ele>
        <time>2020-07-12T06:52:04Z</time>
      </trkpt>
      <trkpt lat="48.494497" lon="7.725044">
        <ele>194.0</ele>
        <time>2020-07-12T06:52:28Z</time>
      </trkpt>
      <trkpt lat="48.493856" lon="7.724985">
        <ele>194.0</ele>
        <time>2020-07-12T06:52:39Z</time>
      </trkpt>
      <trkpt lat="48.493268" lon="7.72487">
        <ele>194.0</ele>
        <time>2020-07-12T06:52:49Z</time>
      </trkpt>
      <trkpt lat="48.49321" lon="7.724859">
        <ele>194.0</ele>
        <time>2020-07-12T06:52:50Z</time>
      </trkpt>
      <trkpt lat="48.493156" lon="7.724843">
        <ele>195.0</ele>
        <time>2020-07-12T06:52:51Z</time>
      </trkpt>
      <trkpt lat="48.492603" lon="7.72477">
        <ele>196.0</ele>
        <time>2020-07-12T06:53:01Z</time>
      </trkpt>
      <trkpt lat="48.491973" lon="7.724564">
        <ele>194.0</ele>
        <time>2020-07-12T06:53:13Z</time>
      </trkpt>
      <trkpt lat="48.491918" lon="7.724549">
        <ele>194.0</ele>
        <time>2020-07-12T06:53:14Z</time>
      </trkpt>
      <trkpt lat="48.491234" lon="7.724283">
        <ele>195.0</ele>
        <time>2020-07-12T06:53:26Z</time>
      </trkpt>
      <trkpt lat="48.48969" lon="7.723654">
        <ele>195.0</ele>
        <time>2020-07-12T06:53:54Z</time>
      </trkpt>
      <trkpt lat="48.488481" lon="7.723422">
        <ele>196.0</ele>
        <time>2020-07-12T06:54:14Z</time>
      </trkpt>
      <trkpt lat="48.487146" lon="7.722839">
        <ele>194.0</ele>
        <time>2020-07-12T06:54:40Z</time>
      </trkpt>
      <trkpt lat="48.485627" lon="7.722173">
        <ele>191.0</ele>
        <time>2020-07-12T06:55:07Z</time>
      </trkpt>
      <trkpt lat="48.484029" lon="7.721561">
        <ele>192.0</ele>
        <time>2020-07-12T06:55:35Z</time>
      </trkpt>
      <trkpt lat="48.482423" lon="7.72111">
        <ele>194.0</ele>
        <time>2020-07-12T06:56:03Z</time>
      </trkpt>
      <trkpt lat="48.480957" lon="7.720461">
        <ele>194.0</ele>
        <time>2020-07-12T06:56:31Z</time>
      </trkpt>
      <trkpt lat="48.479476" lon="7.71989">
        <ele>195.0</ele>
        <time>2020-07-12T06:56:56Z</time>
      </trkpt>
      <trkpt lat="48.47791" lon="7.719288">
        <ele>195.0</ele>
        <time>2020-07-12T06:57:23Z</time>
      </trkpt>
      <trkpt lat="48.476336" lon="7.718688">
        <ele>196.0</ele>
        <time>2020-07-12T06:57:50Z</time>
      </trkpt>
      <trkpt lat="48.475051" lon="7.718136">
        <ele>196.0</ele>
        <time>2020-07-12T06:58:14Z</time>
      </trkpt>
      <trkpt lat="48.475056" lon="7.718139">
        <ele>196.0</ele>
        <time>2020-07-12T06:58:37Z</time>
      </trkpt>
      <trkpt lat="48.474622" lon="7.717984">
        <ele>197.0</ele>
        <time>2020-07-12T06:58:59Z</time>
      </trkpt>
      <trkpt lat="48.473174" lon="7.717441">
        <ele>196.0</ele>
        <time>2020-07-12T06:59:25Z</time>
      </trkpt>
      <trkpt lat="48.47151" lon="7.716785">
        <ele>195.0</ele>
        <time>2020-07-12T06:59:54Z</time>
      </trkpt>
      <trkpt lat="48.469869" lon="7.716163">
        <ele>194.0</ele>
        <time>2020-07-12T07:00:22Z</time>
      </trkpt>
      <trkpt lat="48.468143" lon="7.715507">
        <ele>195.0</ele>
        <time>2020-07-12T07:00:51Z</time>
      </trkpt>
      <trkpt lat="48.466476" lon="7.714853">
        <ele>196.0</ele>
        <time>2020-07-12T07:01:18Z</time>
      </trkpt>
      <trkpt lat="48.464803" lon="7.714194">
        <ele>195.0</ele>
        <time>2020-07-12T07:01:45Z</time>
      </trkpt>
      <trkpt lat="48.463055" lon="7.713537">
        <ele>194.0</ele>
        <time>2020-07-12T07:02:13Z</time>
      </trkpt>
      <trkpt lat="48.461358" lon="7.712894">
        <ele>194.0</ele>
        <time>2020-07-12T07:02:40Z</time>
      </trkpt>
      <trkpt lat="48.459609" lon="7.712169">
        <ele>196.0</ele>
        <time>2020-07-12T07:03:09Z</time>
      </trkpt>
      <trkpt lat="48.458141" lon="7.711591">
        <ele>196.0</ele>
        <time>2020-07-12T07:03:33Z</time>
      </trkpt>
      <trkpt lat="48.45641" lon="7.710926">
        <ele>196.0</ele>
        <time>2020-07-12T07:04:02Z</time>
      </trkpt>
      <trkpt lat="48.454706" lon="7.710281">
        <ele>195.0</ele>
        <time>2020-07-12T07:04:32Z</time>
      </trkpt>
      <trkpt lat="48.453553" lon="7.709837">
        <ele>197.0</ele>
        <time>2020-07-12T07:04:59Z</time>
      </trkpt>
      <trkpt lat="48.451859" lon="7.70925">
        <ele>196.0</ele>
        <time>2020-07-12T07:05:28Z</time>
      </trkpt>
      <trkpt lat="48.451119" lon="7.708509">
        <ele>197.0</ele>
        <time>2020-07-12T07:05:57Z</time>
      </trkpt>
      <trkpt lat="48.451086" lon="7.708523">
        <ele>200.0</ele>
        <time>2020-07-12T07:30:43Z</time>
      </trkpt>
      <trkpt lat="48.451079" lon="7.708518">
        <ele>201.0</ele>
        <time>2020-07-12T07:30:49Z</time>
      </trkpt>
      <trkpt lat="48.451072" lon="7.708489">
        <ele>201.0</ele>
        <time>2020-07-12T07:30:52Z</time>
      </trkpt>
      <trkpt lat="48.451077" lon="7.708489">
        <ele>201.0</ele>
        <time>2020-07-12T07:30:54Z</time>
      </trkpt>
      <trkpt lat="48.451077" lon="7.708489">
        <ele>201.0</ele>
        <time>2020-07-12T07:30:58Z</time>
      </trkpt>
      <trkpt lat="48.451077" lon="7.708489">
        <ele>201.0</ele>
        <time>2020-07-12T07:31:02Z</time>
      </trkpt>
      <trkpt lat="48.451077" lon="7.708489">
        <ele>201.0</ele>
        <time>2020-07-12T07:31:04Z</time>
      </trkpt>
      <trkpt lat="48.451077" lon="7.708489">
        <ele>201.0</ele>
        <time>2020-07-12T07:31:06Z</time>
      </trkpt>
      <trkpt lat="48.451065" lon="7.708464">
        <ele>198.0</ele>
        <time>2020-07-12T07:31:08Z</time>
      </trkpt>
      <trkpt lat="48.451046" lon="7.708489">
        <ele>198.0</ele>
        <time>2020-07-12T07:31:10Z</time>
      </trkpt>
      <trkpt lat="48.451047" lon="7.708526">
        <ele>198.0</ele>
        <time>2020-07-12T07:31:12Z</time>
      </trkpt>
      <trkpt lat="48.451049" lon="7.708568">
        <ele>197.0</ele>
        <time>2020-07-12T07:31:14Z</time>
      </trkpt>
      <trkpt lat="48.451049" lon="7.708608">
        <ele>197.0</ele>
        <time>2020-07-12T07:31:16Z</time>
      </trkpt>
      <trkpt lat="48.451055" lon="7.70865">
        <ele>197.0</ele>
        <time>2020-07-12T07:31:18Z</time>
      </trkpt>
      <trkpt lat="48.451054" lon="7.70868">
        <ele>197.0</ele>
        <time>2020-07-12T07:31:20Z</time>
      </trkpt>
      <trkpt lat="48.451052" lon="7.708698">
        <ele>197.0</ele>
        <time>2020-07-12T07:31:22Z</time>
      </trkpt>
      <trkpt lat="48.451056" lon="7.708701">
        <ele>197.0</ele>
        <time>2020-07-12T07:31:24Z</time>
      </trkpt>
      <trkpt lat="48.451046" lon="7.708726">
        <ele>197.0</ele>
        <time>2020-07-12T07:31:26Z</time>
      </trkpt>
      <trkpt lat="48.451038" lon="7.708771">
        <ele>197.0</ele>
        <time>2020-07-12T07:31:28Z</time>
      </trkpt>
      <trkpt lat="48.451018" lon="7.708807">
        <ele>197.0</ele>
        <time>2020-07-12T07:31:30Z</time>
      </trkpt>
      <trkpt lat="48.450976" lon="7.708815">
        <ele>197.0</ele>
        <time>2020-07-12T07:31:32Z</time>
      </trkpt>
      <trkpt lat="48.450917" lon="7.708819">
        <ele>197.0</ele>
        <time>2020-07-12T07:31:34Z</time>
      </trkpt>
      <trkpt lat="48.450858" lon="7.708832">
        <ele>197.0</ele>
        <time>2020-07-12T07:31:36Z</time>
      </trkpt>
      <trkpt lat="48.450806" lon="7.708812">
        <ele>197.0</ele>
        <time>2020-07-12T07:31:38Z</time>
      </trkpt>
      <trkpt lat="48.450739" lon="7.70876">
        <ele>197.0</ele>
        <time>2020-07-12T07:31:40Z</time>
      </trkpt>
      <trkpt lat="48.450679" lon="7.708696">
        <ele>200.0</ele>
        <time>2020-07-12T07:31:42Z</time>
      </trkpt>
      <trkpt lat="48.450624" lon="7.708629">
        <ele>201.0</ele>
        <time>2020-07-12T07:31:44Z</time>
      </trkpt>
      <trkpt lat="48.450558" lon="7.708574">
        <ele>200.0</ele>
        <time>2020-07-12T07:31:46Z</time>
      </trkpt>
      <trkpt lat="48.450492" lon="7.708508">
        <ele>200.0</ele>
        <time>2020-07-12T07:31:48Z</time>
      </trkpt>
      <trkpt lat="48.450427" lon="7.708454">
        <ele>201.0</ele>
        <time>2020-07-12T07:31:50Z</time>
      </trkpt>
      <trkpt lat="48.450354" lon="7.708403">
        <ele>201.0</ele>
        <time>2020-07-12T07:31:52Z</time>
      </trkpt>
      <trkpt lat="48.450275" lon="7.708362">
        <ele>202.0</ele>
        <time>2020-07-12T07:31:54Z</time>
      </trkpt>
      <trkpt lat="48.450181" lon="7.708319">
        <ele>202.0</ele>
        <time>2020-07-12T07:31:56Z</time>
      </trkpt>
      <trkpt lat="48.45009" lon="7.708287">
        <ele>202.0</ele>
        <time>2020-07-12T07:31:58Z</time>
      </trkpt>
      <trkpt lat="48.450011" lon="7.708265">
        <ele>202.0</ele>
        <time>2020-07-12T07:32:00Z</time>
      </trkpt>
      <trkpt lat="48.449927" lon="7.708236">
        <ele>203.0</ele>
        <time>2020-07-12T07:32:02Z</time>
      </trkpt>
      <trkpt lat="48.449836" lon="7.708202">
        <ele>204.0</ele>
        <time>2020-07-12T07:32:04Z</time>
      </trkpt>
      <trkpt lat="48.449731" lon="7.708178">
        <ele>204.0</ele>
        <time>2020-07-12T07:32:06Z</time>
      </trkpt>
      <trkpt lat="48.449625" lon="7.708132">
        <ele>203.0</ele>
        <time>2020-07-12T07:32:08Z</time>
      </trkpt>
      <trkpt lat="48.449519" lon="7.708108">
        <ele>203.0</ele>
        <time>2020-07-12T07:32:10Z</time>
      </trkpt>
      <trkpt lat="48.44942" lon="7.708068">
        <ele>203.0</ele>
        <time>2020-07-12T07:32:12Z</time>
      </trkpt>
      <trkpt lat="48.449318" lon="7.708043">
        <ele>202.0</ele>
        <time>2020-07-12T07:32:14Z</time>
      </trkpt>
      <trkpt lat="48.449216" lon="7.707999">
        <ele>202.0</ele>
        <time>2020-07-12T07:32:16Z</time>
      </trkpt>
      <trkpt lat="48.449106" lon="7.707941">
        <ele>202.0</ele>
        <time>2020-07-12T07:32:18Z</time>
      </trkpt>
      <trkpt lat="48.449002" lon="7.707878">
        <ele>202.0</ele>
        <time>2020-07-12T07:32:20Z</time>
      </trkpt>
      <trkpt lat="48.448894" lon="7.707825">
        <ele>202.0</ele>
        <time>2020-07-12T07:32:22Z</time>
      </trkpt>
      <trkpt lat="48.44878" lon="7.707768">
        <ele>202.0</ele>
        <time>2020-07-12T07:32:24Z</time>
      </trkpt>
      <trkpt lat="48.448662" lon="7.707723">
        <ele>202.0</ele>
        <time>2020-07-12T07:32:26Z</time>
      </trkpt>
      <trkpt lat="48.448547" lon="7.70767">
        <ele>202.0</ele>
        <time>2020-07-12T07:32:28Z</time>
      </trkpt>
      <trkpt lat="48.448417" lon="7.707634">
        <ele>201.0</ele>
        <time>2020-07-12T07:32:30Z</time>
      </trkpt>
      <trkpt lat="48.448288" lon="7.707597">
        <ele>201.0</ele>
        <time>2020-07-12T07:32:32Z</time>
      </trkpt>
      <trkpt lat="48.448177" lon="7.707558">
        <ele>200.0</ele>
        <time>2020-07-12T07:32:34Z</time>
      </trkpt>
      <trkpt lat="48.448053" lon="7.707525">
        <ele>200.0</ele>
        <time>2020-07-12T07:32:36Z</time>
      </trkpt>
      <trkpt lat="48.447946" lon="7.707477">
        <ele>200.0</ele>
        <time>2020-07-12T07:32:38Z</time>
      </trkpt>
      <trkpt lat="48.447833" lon="7.707443">
        <ele>199.0</ele>
        <time>2020-07-12T07:32:40Z</time>
      </trkpt>
      <trkpt lat="48.44772" lon="7.70741">
        <ele>199.0</ele>
        <time>2020-07-12T07:32:42Z</time>
      </trkpt>
      <trkpt lat="48.447598" lon="7.707368">
        <ele>198.0</ele>
        <time>2020-07-12T07:32:44Z</time>
      </trkpt>
      <trkpt lat="48.447484" lon="7.707304">
        <ele>197.0</ele>
        <time>2020-07-12T07:32:46Z</time>
      </trkpt>
      <trkpt lat="48.447385" lon="7.707251">
        <ele>196.0</ele>
        <time>2020-07-12T07:32:48Z</time>
      </trkpt>
      <trkpt lat="48.44729" lon="7.707196">
        <ele>196.0</ele>
        <time>2020-07-12T07:32:50Z</time>
      </trkpt>
      <trkpt lat="48.447211" lon="7.707157">
        <ele>197.0</ele>
        <time>2020-07-12T07:32:52Z</time>
      </trkpt>
      <trkpt lat="48.447122" lon="7.707116">
        <ele>197.0</ele>
        <time>2020-07-12T07:32:54Z</time>
      </trkpt>
      <trkpt lat="48.44701" lon="7.707091">
        <ele>198.0</ele>
        <time>2020-07-12T07:32:56Z</time>
      </trkpt>
      <trkpt lat="48.446899" lon="7.70705">
        <ele>197.0</ele>
        <time>2020-07-12T07:32:58Z</time>
      </trkpt>
      <trkpt lat="48.446795" lon="7.706993">
        <ele>198.0</ele>
        <time>2020-07-12T07:33:00Z</time>
      </trkpt>
      <trkpt lat="48.446696" lon="7.706929">
        <ele>197.0</ele>
        <time>2020-07-12T07:33:02Z</time>
      </trkpt>
      <trkpt lat="48.446597" lon="7.706858">
        <ele>197.0</ele>
        <time>2020-07-12T07:33:04Z</time>
      </trkpt>
      <trkpt lat="48.446511" lon="7.706809">
        <ele>197.0</ele>
        <time>2020-07-12T07:33:06Z</time>
      </trkpt>
      <trkpt lat="48.446444" lon="7.706744">
        <ele>197.0</ele>
        <time>2020-07-12T07:33:08Z</time>
      </trkpt>
      <trkpt lat="48.446344" lon="7.706693">
        <ele>197.0</ele>
        <time>2020-07-12T07:33:10Z</time>
      </trkpt>
      <trkpt lat="48.446245" lon="7.706637">
        <ele>197.0</ele>
        <time>2020-07-12T07:33:12Z</time>
      </trkpt>
      <trkpt lat="48.44613" lon="7.706587">
        <ele>197.0</ele>
        <time>2020-07-12T07:33:14Z</time>
      </trkpt>
      <trkpt lat="48.446021" lon="7.706542">
        <ele>197.0</ele>
        <time>2020-07-12T07:33:16Z</time>
      </trkpt>
      <trkpt lat="48.445921" lon="7.706515">
        <ele>196.0</ele>
        <time>2020-07-12T07:33:18Z</time>
      </trkpt>
      <trkpt lat="48.445806" lon="7.706498">
        <ele>195.0</ele>
        <time>2020-07-12T07:33:20Z</time>
      </trkpt>
      <trkpt lat="48.445694" lon="7.706477">
        <ele>195.0</ele>
        <time>2020-07-12T07:33:22Z</time>
      </trkpt>
      <trkpt lat="48.445576" lon="7.706437">
        <ele>194.0</ele>
        <time>2020-07-12T07:33:24Z</time>
      </trkpt>
      <trkpt lat="48.445457" lon="7.706392">
        <ele>193.0</ele>
        <time>2020-07-12T07:33:26Z</time>
      </trkpt>
      <trkpt lat="48.445339" lon="7.706351">
        <ele>192.0</ele>
        <time>2020-07-12T07:33:28Z</time>
      </trkpt>
      <trkpt lat="48.445206" lon="7.706317">
        <ele>192.0</ele>
        <time>2020-07-12T07:33:30Z</time>
      </trkpt>
      <trkpt lat="48.445089" lon="7.706274">
        <ele>192.0</ele>
        <time>2020-07-12T07:33:32Z</time>
      </trkpt>
      <trkpt lat="48.445005" lon="7.70622">
        <ele>193.0</ele>
        <time>2020-07-12T07:33:34Z</time>
      </trkpt>
      <trkpt lat="48.444912" lon="7.706187">
        <ele>193.0</ele>
        <time>2020-07-12T07:33:36Z</time>
      </trkpt>
      <trkpt lat="48.44479" lon="7.706149">
        <ele>193.0</ele>
        <time>2020-07-12T07:33:38Z</time>
      </trkpt>
      <trkpt lat="48.444675" lon="7.70612">
        <ele>195.0</ele>
        <time>2020-07-12T07:33:40Z</time>
      </trkpt>
      <trkpt lat="48.444556" lon="7.706074">
        <ele>194.0</ele>
        <time>2020-07-12T07:33:42Z</time>
      </trkpt>
      <trkpt lat="48.444437" lon="7.706024">
        <ele>194.0</ele>
        <time>2020-07-12T07:33:44Z</time>
      </trkpt>
      <trkpt lat="48.44433" lon="7.70596">
        <ele>195.0</ele>
        <time>2020-07-12T07:33:46Z</time>
      </trkpt>
      <trkpt lat="48.444231" lon="7.705897">
        <ele>195.0</ele>
        <time>2020-07-12T07:33:48Z</time>
      </trkpt>
      <trkpt lat="48.444139" lon="7.70585">
        <ele>196.0</ele>
        <time>2020-07-12T07:33:50Z</time>
      </trkpt>
      <trkpt lat="48.444053" lon="7.705815">
        <ele>196.0</ele>
        <time>2020-07-12T07:33:52Z</time>
      </trkpt>
      <trkpt lat="48.443951" lon="7.705779">
        <ele>197.0</ele>
        <time>2020-07-12T07:33:54Z</time>
      </trkpt>
      <trkpt lat="48.443835" lon="7.705731">
        <ele>197.0</ele>
        <time>2020-07-12T07:33:56Z</time>
      </trkpt>
      <trkpt lat="48.443715" lon="7.705686">
        <ele>197.0</ele>
        <time>2020-07-12T07:33:58Z</time>
      </trkpt>
      <trkpt lat="48.443589" lon="7.705639">
        <ele>197.0</ele>
        <time>2020-07-12T07:34:00Z</time>
      </trkpt>
      <trkpt lat="48.443492" lon="7.70558">
        <ele>197.0</ele>
        <time>2020-07-12T07:34:02Z</time>
      </trkpt>
      <trkpt lat="48.443385" lon="7.705533">
        <ele>197.0</ele>
        <time>2020-07-12T07:34:04Z</time>
      </trkpt>
      <trkpt lat="48.443272" lon="7.705484">
        <ele>197.0</ele>
        <time>2020-07-12T07:34:06Z</time>
      </trkpt>
      <trkpt lat="48.443152" lon="7.705434">
        <ele>197.0</ele>
        <time>2020-07-12T07:34:08Z</time>
      </trkpt>
      <trkpt lat="48.44297" lon="7.70538">
        <ele>198.0</ele>
        <time>2020-07-12T07:34:11Z</time>
      </trkpt>
      <trkpt lat="48.442852" lon="7.705345">
        <ele>197.0</ele>
        <time>2020-07-12T07:34:13Z</time>
      </trkpt>
      <trkpt lat="48.442746" lon="7.705298">
        <ele>197.0</ele>
        <time>2020-07-12T07:34:15Z</time>
      </trkpt>
      <trkpt lat="48.442627" lon="7.705259">
        <ele>196.0</ele>
        <time>2020-07-12T07:34:17Z</time>
      </trkpt>
      <trkpt lat="48.442491" lon="7.705237">
        <ele>196.0</ele>
        <time>2020-07-12T07:34:19Z</time>
      </trkpt>
      <trkpt lat="48.44236" lon="7.705218">
        <ele>196.0</ele>
        <time>2020-07-12T07:34:21Z</time>
      </trkpt>
      <trkpt lat="48.442233" lon="7.705198">
        <ele>197.0</ele>
        <time>2020-07-12T07:34:23Z</time>
      </trkpt>
      <trkpt lat="48.442101" lon="7.705186">
        <ele>197.0</ele>
        <time>2020-07-12T07:34:25Z</time>
      </trkpt>
      <trkpt lat="48.441975" lon="7.705169">
        <ele>197.0</ele>
        <time>2020-07-12T07:34:27Z</time>
      </trkpt>
      <trkpt lat="48.441842" lon="7.705179">
        <ele>198.0</ele>
        <time>2020-07-12T07:34:29Z</time>
      </trkpt>
      <trkpt lat="48.441723" lon="7.705183">
        <ele>199.0</ele>
        <time>2020-07-12T07:34:31Z</time>
      </trkpt>
      <trkpt lat="48.441626" lon="7.705159">
        <ele>198.0</ele>
        <time>2020-07-12T07:34:33Z</time>
      </trkpt>
      <trkpt lat="48.441524" lon="7.705118">
        <ele>198.0</ele>
        <time>2020-07-12T07:34:35Z</time>
      </trkpt>
      <trkpt lat="48.441413" lon="7.705077">
        <ele>199.0</ele>
        <time>2020-07-12T07:34:37Z</time>
      </trkpt>
      <trkpt lat="48.441311" lon="7.705038">
        <ele>199.0</ele>
        <time>2020-07-12T07:34:39Z</time>
      </trkpt>
      <trkpt lat="48.441216" lon="7.705005">
        <ele>198.0</ele>
        <time>2020-07-12T07:34:41Z</time>
      </trkpt>
      <trkpt lat="48.441095" lon="7.704959">
        <ele>198.0</ele>
        <time>2020-07-12T07:34:43Z</time>
      </trkpt>
      <trkpt lat="48.440979" lon="7.704926">
        <ele>198.0</ele>
        <time>2020-07-12T07:34:45Z</time>
      </trkpt>
      <trkpt lat="48.440868" lon="7.704887">
        <ele>198.0</ele>
        <time>2020-07-12T07:34:47Z</time>
      </trkpt>
      <trkpt lat="48.44076" lon="7.704852">
        <ele>198.0</ele>
        <time>2020-07-12T07:34:49Z</time>
      </trkpt>
      <trkpt lat="48.440645" lon="7.704815">
        <ele>198.0</ele>
        <time>2020-07-12T07:34:51Z</time>
      </trkpt>
      <trkpt lat="48.440538" lon="7.704775">
        <ele>199.0</ele>
        <time>2020-07-12T07:34:53Z</time>
      </trkpt>
      <trkpt lat="48.440429" lon="7.70473">
        <ele>198.0</ele>
        <time>2020-07-12T07:34:55Z</time>
      </trkpt>
      <trkpt lat="48.440326" lon="7.704693">
        <ele>198.0</ele>
        <time>2020-07-12T07:34:57Z</time>
      </trkpt>
      <trkpt lat="48.440213" lon="7.704647">
        <ele>198.0</ele>
        <time>2020-07-12T07:34:59Z</time>
      </trkpt>
      <trkpt lat="48.440099" lon="7.704607">
        <ele>197.0</ele>
        <time>2020-07-12T07:35:01Z</time>
      </trkpt>
      <trkpt lat="48.439984" lon="7.704566">
        <ele>197.0</ele>
        <time>2020-07-12T07:35:03Z</time>
      </trkpt>
      <trkpt lat="48.439871" lon="7.704519">
        <ele>198.0</ele>
        <time>2020-07-12T07:35:05Z</time>
      </trkpt>
      <trkpt lat="48.439757" lon="7.704477">
        <ele>198.0</ele>
        <time>2020-07-12T07:35:07Z</time>
      </trkpt>
      <trkpt lat="48.439644" lon="7.704428">
        <ele>197.0</ele>
        <time>2020-07-12T07:35:09Z</time>
      </trkpt>
      <trkpt lat="48.439532" lon="7.704381">
        <ele>198.0</ele>
        <time>2020-07-12T07:35:11Z</time>
      </trkpt>
      <trkpt lat="48.439418" lon="7.70431">
        <ele>198.0</ele>
        <time>2020-07-12T07:35:13Z</time>
      </trkpt>
      <trkpt lat="48.439313" lon="7.704223">
        <ele>198.0</ele>
        <time>2020-07-12T07:35:15Z</time>
      </trkpt>
      <trkpt lat="48.439209" lon="7.704146">
        <ele>199.0</ele>
        <time>2020-07-12T07:35:17Z</time>
      </trkpt>
      <trkpt lat="48.439104" lon="7.704085">
        <ele>199.0</ele>
        <time>2020-07-12T07:35:19Z</time>
      </trkpt>
      <trkpt lat="48.438991" lon="7.704024">
        <ele>200.0</ele>
        <time>2020-07-12T07:35:21Z</time>
      </trkpt>
      <trkpt lat="48.43888" lon="7.703964">
        <ele>200.0</ele>
        <time>2020-07-12T07:35:23Z</time>
      </trkpt>
      <trkpt lat="48.438766" lon="7.703906">
        <ele>200.0</ele>
        <time>2020-07-12T07:35:25Z</time>
      </trkpt>
      <trkpt lat="48.438659" lon="7.703846">
        <ele>201.0</ele>
        <time>2020-07-12T07:35:27Z</time>
      </trkpt>
      <trkpt lat="48.438557" lon="7.703789">
        <ele>201.0</ele>
        <time>2020-07-12T07:35:29Z</time>
      </trkpt>
      <trkpt lat="48.43846" lon="7.703741">
        <ele>201.0</ele>
        <time>2020-07-12T07:35:31Z</time>
      </trkpt>
      <trkpt lat="48.438367" lon="7.703684">
        <ele>202.0</ele>
        <time>2020-07-12T07:35:33Z</time>
      </trkpt>
      <trkpt lat="48.438266" lon="7.703635">
        <ele>201.0</ele>
        <time>2020-07-12T07:35:35Z</time>
      </trkpt>
      <trkpt lat="48.438151" lon="7.703619">
        <ele>200.0</ele>
        <time>2020-07-12T07:35:37Z</time>
      </trkpt>
      <trkpt lat="48.438029" lon="7.703576">
        <ele>199.0</ele>
        <time>2020-07-12T07:35:39Z</time>
      </trkpt>
      <trkpt lat="48.43791" lon="7.703519">
        <ele>198.0</ele>
        <time>2020-07-12T07:35:41Z</time>
      </trkpt>
      <trkpt lat="48.437783" lon="7.703472">
        <ele>197.0</ele>
        <time>2020-07-12T07:35:43Z</time>
      </trkpt>
      <trkpt lat="48.437652" lon="7.703441">
        <ele>198.0</ele>
        <time>2020-07-12T07:35:45Z</time>
      </trkpt>
      <trkpt lat="48.437523" lon="7.703428">
        <ele>199.0</ele>
        <time>2020-07-12T07:35:47Z</time>
      </trkpt>
      <trkpt lat="48.437402" lon="7.70342">
        <ele>199.0</ele>
        <time>2020-07-12T07:35:49Z</time>
      </trkpt>
      <trkpt lat="48.437299" lon="7.70338">
        <ele>200.0</ele>
        <time>2020-07-12T07:35:51Z</time>
      </trkpt>
      <trkpt lat="48.437196" lon="7.703343">
        <ele>200.0</ele>
        <time>2020-07-12T07:35:53Z</time>
      </trkpt>
      <trkpt lat="48.437099" lon="7.703301">
        <ele>202.0</ele>
        <time>2020-07-12T07:35:55Z</time>
      </trkpt>
      <trkpt lat="48.436984" lon="7.703264">
        <ele>201.0</ele>
        <time>2020-07-12T07:35:57Z</time>
      </trkpt>
      <trkpt lat="48.436864" lon="7.703221">
        <ele>201.0</ele>
        <time>2020-07-12T07:35:59Z</time>
      </trkpt>
      <trkpt lat="48.436743" lon="7.703178">
        <ele>201.0</ele>
        <time>2020-07-12T07:36:01Z</time>
      </trkpt>
      <trkpt lat="48.436625" lon="7.703138">
        <ele>200.0</ele>
        <time>2020-07-12T07:36:03Z</time>
      </trkpt>
      <trkpt lat="48.43652" lon="7.703093">
        <ele>200.0</ele>
        <time>2020-07-12T07:36:05Z</time>
      </trkpt>
      <trkpt lat="48.436411" lon="7.70306">
        <ele>200.0</ele>
        <time>2020-07-12T07:36:07Z</time>
      </trkpt>
      <trkpt lat="48.436307" lon="7.703012">
        <ele>200.0</ele>
        <time>2020-07-12T07:36:09Z</time>
      </trkpt>
      <trkpt lat="48.436212" lon="7.702976">
        <ele>200.0</ele>
        <time>2020-07-12T07:36:11Z</time>
      </trkpt>
      <trkpt lat="48.436135" lon="7.702921">
        <ele>201.0</ele>
        <time>2020-07-12T07:36:13Z</time>
      </trkpt>
      <trkpt lat="48.436048" lon="7.702869">
        <ele>201.0</ele>
        <time>2020-07-12T07:36:15Z</time>
      </trkpt>
      <trkpt lat="48.435965" lon="7.702822">
        <ele>201.0</ele>
        <time>2020-07-12T07:36:17Z</time>
      </trkpt>
      <trkpt lat="48.435873" lon="7.702768">
        <ele>201.0</ele>
        <time>2020-07-12T07:36:19Z</time>
      </trkpt>
      <trkpt lat="48.435773" lon="7.702727">
        <ele>201.0</ele>
        <time>2020-07-12T07:36:21Z</time>
      </trkpt>
      <trkpt lat="48.435627" lon="7.702654">
        <ele>201.0</ele>
        <time>2020-07-12T07:36:24Z</time>
      </trkpt>
      <trkpt lat="48.435513" lon="7.702631">
        <ele>200.0</ele>
        <time>2020-07-12T07:36:26Z</time>
      </trkpt>
      <trkpt lat="48.435408" lon="7.702622">
        <ele>200.0</ele>
        <time>2020-07-12T07:36:28Z</time>
      </trkpt>
      <trkpt lat="48.435295" lon="7.70259">
        <ele>200.0</ele>
        <time>2020-07-12T07:36:30Z</time>
      </trkpt>
      <trkpt lat="48.435167" lon="7.702558">
        <ele>200.0</ele>
        <time>2020-07-12T07:36:32Z</time>
      </trkpt>
      <trkpt lat="48.43505" lon="7.702526">
        <ele>201.0</ele>
        <time>2020-07-12T07:36:34Z</time>
      </trkpt>
      <trkpt lat="48.434923" lon="7.702485">
        <ele>202.0</ele>
        <time>2020-07-12T07:36:36Z</time>
      </trkpt>
      <trkpt lat="48.434796" lon="7.702446">
        <ele>203.0</ele>
        <time>2020-07-12T07:36:38Z</time>
      </trkpt>
      <trkpt lat="48.434659" lon="7.702402">
        <ele>204.0</ele>
        <time>2020-07-12T07:36:40Z</time>
      </trkpt>
      <trkpt lat="48.434535" lon="7.702369">
        <ele>205.0</ele>
        <time>2020-07-12T07:36:42Z</time>
      </trkpt>
      <trkpt lat="48.434412" lon="7.702339">
        <ele>205.0</ele>
        <time>2020-07-12T07:36:44Z</time>
      </trkpt>
      <trkpt lat="48.434298" lon="7.702289">
        <ele>205.0</ele>
        <time>2020-07-12T07:36:46Z</time>
      </trkpt>
      <trkpt lat="48.434179" lon="7.702249">
        <ele>205.0</ele>
        <time>2020-07-12T07:36:48Z</time>
      </trkpt>
      <trkpt lat="48.434007" lon="7.702197">
        <ele>205.0</ele>
        <time>2020-07-12T07:36:51Z</time>
      </trkpt>
      <trkpt lat="48.433889" lon="7.702151">
        <ele>205.0</ele>
        <time>2020-07-12T07:36:53Z</time>
      </trkpt>
      <trkpt lat="48.433775" lon="7.702094">
        <ele>205.0</ele>
        <time>2020-07-12T07:36:55Z</time>
      </trkpt>
      <trkpt lat="48.433655" lon="7.702052">
        <ele>205.0</ele>
        <time>2020-07-12T07:36:57Z</time>
      </trkpt>
      <trkpt lat="48.433542" lon="7.702007">
        <ele>206.0</ele>
        <time>2020-07-12T07:36:59Z</time>
      </trkpt>
      <trkpt lat="48.433423" lon="7.701964">
        <ele>205.0</ele>
        <time>2020-07-12T07:37:01Z</time>
      </trkpt>
      <trkpt lat="48.43331" lon="7.701921">
        <ele>204.0</ele>
        <time>2020-07-12T07:37:03Z</time>
      </trkpt>
      <trkpt lat="48.433201" lon="7.701864">
        <ele>204.0</ele>
        <time>2020-07-12T07:37:05Z</time>
      </trkpt>
      <trkpt lat="48.433092" lon="7.701817">
        <ele>205.0</ele>
        <time>2020-07-12T07:37:07Z</time>
      </trkpt>
      <trkpt lat="48.432971" lon="7.70178">
        <ele>204.0</ele>
        <time>2020-07-12T07:37:09Z</time>
      </trkpt>
      <trkpt lat="48.432849" lon="7.701737">
        <ele>204.0</ele>
        <time>2020-07-12T07:37:11Z</time>
      </trkpt>
      <trkpt lat="48.432724" lon="7.701689">
        <ele>203.0</ele>
        <time>2020-07-12T07:37:13Z</time>
      </trkpt>
      <trkpt lat="48.43261" lon="7.701652">
        <ele>203.0</ele>
        <time>2020-07-12T07:37:15Z</time>
      </trkpt>
      <trkpt lat="48.432493" lon="7.70161">
        <ele>203.0</ele>
        <time>2020-07-12T07:37:17Z</time>
      </trkpt>
      <trkpt lat="48.432368" lon="7.701579">
        <ele>203.0</ele>
        <time>2020-07-12T07:37:19Z</time>
      </trkpt>
      <trkpt lat="48.432247" lon="7.701528">
        <ele>203.0</ele>
        <time>2020-07-12T07:37:21Z</time>
      </trkpt>
      <trkpt lat="48.43213" lon="7.701476">
        <ele>203.0</ele>
        <time>2020-07-12T07:37:23Z</time>
      </trkpt>
      <trkpt lat="48.432018" lon="7.701436">
        <ele>203.0</ele>
        <time>2020-07-12T07:37:25Z</time>
      </trkpt>
      <trkpt lat="48.4319" lon="7.701381">
        <ele>203.0</ele>
        <time>2020-07-12T07:37:27Z</time>
      </trkpt>
      <trkpt lat="48.43178" lon="7.701338">
        <ele>203.0</ele>
        <time>2020-07-12T07:37:29Z</time>
      </trkpt>
      <trkpt lat="48.431658" lon="7.701285">
        <ele>203.0</ele>
        <time>2020-07-12T07:37:31Z</time>
      </trkpt>
      <trkpt lat="48.431541" lon="7.701234">
        <ele>203.0</ele>
        <time>2020-07-12T07:37:33Z</time>
      </trkpt>
      <trkpt lat="48.431417" lon="7.701185">
        <ele>202.0</ele>
        <time>2020-07-12T07:37:35Z</time>
      </trkpt>
      <trkpt lat="48.431295" lon="7.701144">
        <ele>202.0</ele>
        <time>2020-07-12T07:37:37Z</time>
      </trkpt>
      <trkpt lat="48.431171" lon="7.701106">
        <ele>201.0</ele>
        <time>2020-07-12T07:37:39Z</time>
      </trkpt>
      <trkpt lat="48.431049" lon="7.701066">
        <ele>201.0</ele>
        <time>2020-07-12T07:37:41Z</time>
      </trkpt>
      <trkpt lat="48.430933" lon="7.701026">
        <ele>201.0</ele>
        <time>2020-07-12T07:37:43Z</time>
      </trkpt>
      <trkpt lat="48.430816" lon="7.700986">
        <ele>201.0</ele>
        <time>2020-07-12T07:37:45Z</time>
      </trkpt>
      <trkpt lat="48.430697" lon="7.700939">
        <ele>201.0</ele>
        <time>2020-07-12T07:37:47Z</time>
      </trkpt>
      <trkpt lat="48.430575" lon="7.700891">
        <ele>200.0</ele>
        <time>2020-07-12T07:37:49Z</time>
      </trkpt>
      <trkpt lat="48.430452" lon="7.700851">
        <ele>200.0</ele>
        <time>2020-07-12T07:37:51Z</time>
      </trkpt>
      <trkpt lat="48.430333" lon="7.700811">
        <ele>200.0</ele>
        <time>2020-07-12T07:37:53Z</time>
      </trkpt>
      <trkpt lat="48.430215" lon="7.700762">
        <ele>201.0</ele>
        <time>2020-07-12T07:37:55Z</time>
      </trkpt>
      <trkpt lat="48.4301" lon="7.700695">
        <ele>202.0</ele>
        <time>2020-07-12T07:37:57Z</time>
      </trkpt>
      <trkpt lat="48.429988" lon="7.700637">
        <ele>202.0</ele>
        <time>2020-07-12T07:37:59Z</time>
      </trkpt>
      <trkpt lat="48.429873" lon="7.700587">
        <ele>201.0</ele>
        <time>2020-07-12T07:38:01Z</time>
      </trkpt>
      <trkpt lat="48.429761" lon="7.700547">
        <ele>202.0</ele>
        <time>2020-07-12T07:38:03Z</time>
      </trkpt>
      <trkpt lat="48.42964" lon="7.700502">
        <ele>202.0</ele>
        <time>2020-07-12T07:38:05Z</time>
      </trkpt>
      <trkpt lat="48.429516" lon="7.700458">
        <ele>201.0</ele>
        <time>2020-07-12T07:38:07Z</time>
      </trkpt>
      <trkpt lat="48.429395" lon="7.70041">
        <ele>202.0</ele>
        <time>2020-07-12T07:38:09Z</time>
      </trkpt>
      <trkpt lat="48.429274" lon="7.700366">
        <ele>202.0</ele>
        <time>2020-07-12T07:38:11Z</time>
      </trkpt>
      <trkpt lat="48.429155" lon="7.700322">
        <ele>202.0</ele>
        <time>2020-07-12T07:38:13Z</time>
      </trkpt>
      <trkpt lat="48.429024" lon="7.700271">
        <ele>201.0</ele>
        <time>2020-07-12T07:38:15Z</time>
      </trkpt>
      <trkpt lat="48.428898" lon="7.700233">
        <ele>201.0</ele>
        <time>2020-07-12T07:38:17Z</time>
      </trkpt>
      <trkpt lat="48.428778" lon="7.700187">
        <ele>201.0</ele>
        <time>2020-07-12T07:38:19Z</time>
      </trkpt>
      <trkpt lat="48.428659" lon="7.700141">
        <ele>201.0</ele>
        <time>2020-07-12T07:38:21Z</time>
      </trkpt>
      <trkpt lat="48.42854" lon="7.700098">
        <ele>201.0</ele>
        <time>2020-07-12T07:38:23Z</time>
      </trkpt>
      <trkpt lat="48.428417" lon="7.700049">
        <ele>200.0</ele>
        <time>2020-07-12T07:38:25Z</time>
      </trkpt>
      <trkpt lat="48.428294" lon="7.70001">
        <ele>200.0</ele>
        <time>2020-07-12T07:38:27Z</time>
      </trkpt>
      <trkpt lat="48.428173" lon="7.699963">
        <ele>200.0</ele>
        <time>2020-07-12T07:38:29Z</time>
      </trkpt>
      <trkpt lat="48.428051" lon="7.699914">
        <ele>200.0</ele>
        <time>2020-07-12T07:38:31Z</time>
      </trkpt>
      <trkpt lat="48.427929" lon="7.699854">
        <ele>200.0</ele>
        <time>2020-07-12T07:38:33Z</time>
      </trkpt>
      <trkpt lat="48.427798" lon="7.699817">
        <ele>200.0</ele>
        <time>2020-07-12T07:38:35Z</time>
      </trkpt>
      <trkpt lat="48.427671" lon="7.699764">
        <ele>200.0</ele>
        <time>2020-07-12T07:38:37Z</time>
      </trkpt>
      <trkpt lat="48.427555" lon="7.699718">
        <ele>200.0</ele>
        <time>2020-07-12T07:38:39Z</time>
      </trkpt>
      <trkpt lat="48.427431" lon="7.699667">
        <ele>200.0</ele>
        <time>2020-07-12T07:38:41Z</time>
      </trkpt>
      <trkpt lat="48.427299" lon="7.699621">
        <ele>200.0</ele>
        <time>2020-07-12T07:38:43Z</time>
      </trkpt>
      <trkpt lat="48.427176" lon="7.699571">
        <ele>200.0</ele>
        <time>2020-07-12T07:38:45Z</time>
      </trkpt>
      <trkpt lat="48.427055" lon="7.69952">
        <ele>199.0</ele>
        <time>2020-07-12T07:38:47Z</time>
      </trkpt>
      <trkpt lat="48.426927" lon="7.699475">
        <ele>199.0</ele>
        <time>2020-07-12T07:38:49Z</time>
      </trkpt>
      <trkpt lat="48.426803" lon="7.699426">
        <ele>199.0</ele>
        <time>2020-07-12T07:38:51Z</time>
      </trkpt>
      <trkpt lat="48.426671" lon="7.699381">
        <ele>199.0</ele>
        <time>2020-07-12T07:38:53Z</time>
      </trkpt>
      <trkpt lat="48.426544" lon="7.699327">
        <ele>199.0</ele>
        <time>2020-07-12T07:38:55Z</time>
      </trkpt>
      <trkpt lat="48.426417" lon="7.699275">
        <ele>199.0</ele>
        <time>2020-07-12T07:38:57Z</time>
      </trkpt>
      <trkpt lat="48.426292" lon="7.699227">
        <ele>200.0</ele>
        <time>2020-07-12T07:38:59Z</time>
      </trkpt>
      <trkpt lat="48.426169" lon="7.699177">
        <ele>200.0</ele>
        <time>2020-07-12T07:39:01Z</time>
      </trkpt>
      <trkpt lat="48.426051" lon="7.699118">
        <ele>200.0</ele>
        <time>2020-07-12T07:39:03Z</time>
      </trkpt>
      <trkpt lat="48.425931" lon="7.699063">
        <ele>200.0</ele>
        <time>2020-07-12T07:39:05Z</time>
      </trkpt>
      <trkpt lat="48.425816" lon="7.699018">
        <ele>200.0</ele>
        <time>2020-07-12T07:39:07Z</time>
      </trkpt>
      <trkpt lat="48.425702" lon="7.698974">
        <ele>201.0</ele>
        <time>2020-07-12T07:39:09Z</time>
      </trkpt>
      <trkpt lat="48.425589" lon="7.698932">
        <ele>201.0</ele>
        <time>2020-07-12T07:39:11Z</time>
      </trkpt>
      <trkpt lat="48.425475" lon="7.698903">
        <ele>201.0</ele>
        <time>2020-07-12T07:39:13Z</time>
      </trkpt>
      <trkpt lat="48.425354" lon="7.698886">
        <ele>201.0</ele>
        <time>2020-07-12T07:39:15Z</time>
      </trkpt>
      <trkpt lat="48.425229" lon="7.698841">
        <ele>201.0</ele>
        <time>2020-07-12T07:39:17Z</time>
      </trkpt>
      <trkpt lat="48.425125" lon="7.698777">
        <ele>201.0</ele>
        <time>2020-07-12T07:39:19Z</time>
      </trkpt>
      <trkpt lat="48.425023" lon="7.698708">
        <ele>201.0</ele>
        <time>2020-07-12T07:39:21Z</time>
      </trkpt>
      <trkpt lat="48.424923" lon="7.698657">
        <ele>201.0</ele>
        <time>2020-07-12T07:39:23Z</time>
      </trkpt>
      <trkpt lat="48.424815" lon="7.698605">
        <ele>201.0</ele>
        <time>2020-07-12T07:39:25Z</time>
      </trkpt>
      <trkpt lat="48.424697" lon="7.698576">
        <ele>201.0</ele>
        <time>2020-07-12T07:39:27Z</time>
      </trkpt>
      <trkpt lat="48.42458" lon="7.698547">
        <ele>201.0</ele>
        <time>2020-07-12T07:39:29Z</time>
      </trkpt>
      <trkpt lat="48.424469" lon="7.698503">
        <ele>201.0</ele>
        <time>2020-07-12T07:39:31Z</time>
      </trkpt>
      <trkpt lat="48.424354" lon="7.698469">
        <ele>202.0</ele>
        <time>2020-07-12T07:39:33Z</time>
      </trkpt>
      <trkpt lat="48.424236" lon="7.69843">
        <ele>202.0</ele>
        <time>2020-07-12T07:39:35Z</time>
      </trkpt>
      <trkpt lat="48.424118" lon="7.698388">
        <ele>203.0</ele>
        <time>2020-07-12T07:39:37Z</time>
      </trkpt>
      <trkpt lat="48.423997" lon="7.698346">
        <ele>203.0</ele>
        <time>2020-07-12T07:39:39Z</time>
      </trkpt>
      <trkpt lat="48.423882" lon="7.698298">
        <ele>203.0</ele>
        <time>2020-07-12T07:39:41Z</time>
      </trkpt>
      <trkpt lat="48.423769" lon="7.69825">
        <ele>203.0</ele>
        <time>2020-07-12T07:39:43Z</time>
      </trkpt>
      <trkpt lat="48.423655" lon="7.698196">
        <ele>203.0</ele>
        <time>2020-07-12T07:39:45Z</time>
      </trkpt>
      <trkpt lat="48.423538" lon="7.698143">
        <ele>203.0</ele>
        <time>2020-07-12T07:39:47Z</time>
      </trkpt>
      <trkpt lat="48.423426" lon="7.698094">
        <ele>203.0</ele>
        <time>2020-07-12T07:39:49Z</time>
      </trkpt>
      <trkpt lat="48.42331" lon="7.698029">
        <ele>203.0</ele>
        <time>2020-07-12T07:39:51Z</time>
      </trkpt>
      <trkpt lat="48.423199" lon="7.697967">
        <ele>203.0</ele>
        <time>2020-07-12T07:39:53Z</time>
      </trkpt>
      <trkpt lat="48.423083" lon="7.697923">
        <ele>203.0</ele>
        <time>2020-07-12T07:39:55Z</time>
      </trkpt>
      <trkpt lat="48.422967" lon="7.69788">
        <ele>203.0</ele>
        <time>2020-07-12T07:39:57Z</time>
      </trkpt>
      <trkpt lat="48.422847" lon="7.697852">
        <ele>204.0</ele>
        <time>2020-07-12T07:39:59Z</time>
      </trkpt>
      <trkpt lat="48.422732" lon="7.697817">
        <ele>204.0</ele>
        <time>2020-07-12T07:40:01Z</time>
      </trkpt>
      <trkpt lat="48.422618" lon="7.697785">
        <ele>204.0</ele>
        <time>2020-07-12T07:40:03Z</time>
      </trkpt>
      <trkpt lat="48.422511" lon="7.697749">
        <ele>204.0</ele>
        <time>2020-07-12T07:40:05Z</time>
      </trkpt>
      <trkpt lat="48.422399" lon="7.697699">
        <ele>203.0</ele>
        <time>2020-07-12T07:40:07Z</time>
      </trkpt>
      <trkpt lat="48.422287" lon="7.697657">
        <ele>203.0</ele>
        <time>2020-07-12T07:40:09Z</time>
      </trkpt>
      <trkpt lat="48.422181" lon="7.697596">
        <ele>203.0</ele>
        <time>2020-07-12T07:40:11Z</time>
      </trkpt>
      <trkpt lat="48.422095" lon="7.697502">
        <ele>203.0</ele>
        <time>2020-07-12T07:40:13Z</time>
      </trkpt>
      <trkpt lat="48.421997" lon="7.697423">
        <ele>203.0</ele>
        <time>2020-07-12T07:40:15Z</time>
      </trkpt>
      <trkpt lat="48.421904" lon="7.697345">
        <ele>204.0</ele>
        <time>2020-07-12T07:40:17Z</time>
      </trkpt>
      <trkpt lat="48.421826" lon="7.697259">
        <ele>204.0</ele>
        <time>2020-07-12T07:40:19Z</time>
      </trkpt>
      <trkpt lat="48.421744" lon="7.697191">
        <ele>203.0</ele>
        <time>2020-07-12T07:40:21Z</time>
      </trkpt>
      <trkpt lat="48.421652" lon="7.697156">
        <ele>203.0</ele>
        <time>2020-07-12T07:40:23Z</time>
      </trkpt>
      <trkpt lat="48.421568" lon="7.697142">
        <ele>203.0</ele>
        <time>2020-07-12T07:40:25Z</time>
      </trkpt>
      <trkpt lat="48.42151" lon="7.697145">
        <ele>204.0</ele>
        <time>2020-07-12T07:40:27Z</time>
      </trkpt>
      <trkpt lat="48.421474" lon="7.697139">
        <ele>204.0</ele>
        <time>2020-07-12T07:40:29Z</time>
      </trkpt>
      <trkpt lat="48.421444" lon="7.69714">
        <ele>203.0</ele>
        <time>2020-07-12T07:40:31Z</time>
      </trkpt>
      <trkpt lat="48.421405" lon="7.697122">
        <ele>203.0</ele>
        <time>2020-07-12T07:40:33Z</time>
      </trkpt>
      <trkpt lat="48.42136" lon="7.697115">
        <ele>204.0</ele>
        <time>2020-07-12T07:40:35Z</time>
      </trkpt>
      <trkpt lat="48.421294" lon="7.697108">
        <ele>204.0</ele>
        <time>2020-07-12T07:40:37Z</time>
      </trkpt>
      <trkpt lat="48.421222" lon="7.69711">
        <ele>203.0</ele>
        <time>2020-07-12T07:40:39Z</time>
      </trkpt>
      <trkpt lat="48.421145" lon="7.69711">
        <ele>202.0</ele>
        <time>2020-07-12T07:40:41Z</time>
      </trkpt>
      <trkpt lat="48.421055" lon="7.697088">
        <ele>203.0</ele>
        <time>2020-07-12T07:40:43Z</time>
      </trkpt>
      <trkpt lat="48.420955" lon="7.697068">
        <ele>202.0</ele>
        <time>2020-07-12T07:40:45Z</time>
      </trkpt>
      <trkpt lat="48.420866" lon="7.697073">
        <ele>202.0</ele>
        <time>2020-07-12T07:40:47Z</time>
      </trkpt>
      <trkpt lat="48.420788" lon="7.697062">
        <ele>202.0</ele>
        <time>2020-07-12T07:40:49Z</time>
      </trkpt>
      <trkpt lat="48.420734" lon="7.697058">
        <ele>202.0</ele>
        <time>2020-07-12T07:40:51Z</time>
      </trkpt>
      <trkpt lat="48.420721" lon="7.697046">
        <ele>202.0</ele>
        <time>2020-07-12T07:40:53Z</time>
      </trkpt>
      <trkpt lat="48.42072" lon="7.697036">
        <ele>201.0</ele>
        <time>2020-07-12T07:40:55Z</time>
      </trkpt>
      <trkpt lat="48.420706" lon="7.697034">
        <ele>201.0</ele>
        <time>2020-07-12T07:40:57Z</time>
      </trkpt>
      <trkpt lat="48.420698" lon="7.697042">
        <ele>201.0</ele>
        <time>2020-07-12T07:40:59Z</time>
      </trkpt>
      <trkpt lat="48.420677" lon="7.697031">
        <ele>199.0</ele>
        <time>2020-07-12T07:43:52Z</time>
      </trkpt>
      <trkpt lat="48.420677" lon="7.697031">
        <ele>199.0</ele>
        <time>2020-07-12T07:43:54Z</time>
      </trkpt>
      <trkpt lat="48.420677" lon="7.697031">
        <ele>199.0</ele>
        <time>2020-07-12T07:43:56Z</time>
      </trkpt>
      <trkpt lat="48.420677" lon="7.697031">
        <ele>199.0</ele>
        <time>2020-07-12T07:43:58Z</time>
      </trkpt>
      <trkpt lat="48.420677" lon="7.697031">
        <ele>199.0</ele>
        <time>2020-07-12T07:44:00Z</time>
      </trkpt>
      <trkpt lat="48.420677" lon="7.697031">
        <ele>199.0</ele>
        <time>2020-07-12T07:44:02Z</time>
      </trkpt>
      <trkpt lat="48.420673" lon="7.697044">
        <ele>199.0</ele>
        <time>2020-07-12T07:44:04Z</time>
      </trkpt>
      <trkpt lat="48.42066" lon="7.697037">
        <ele>199.0</ele>
        <time>2020-07-12T07:44:06Z</time>
      </trkpt>
      <trkpt lat="48.420666" lon="7.69704">
        <ele>199.0</ele>
        <time>2020-07-12T07:44:08Z</time>
      </trkpt>
      <trkpt lat="48.42067" lon="7.697039">
        <ele>200.0</ele>
        <time>2020-07-12T07:44:10Z</time>
      </trkpt>
      <trkpt lat="48.420667" lon="7.69704">
        <ele>200.0</ele>
        <time>2020-07-12T07:44:12Z</time>
      </trkpt>
      <trkpt lat="48.420667" lon="7.69704">
        <ele>200.0</ele>
        <time>2020-07-12T07:44:14Z</time>
      </trkpt>
      <trkpt lat="48.420661" lon="7.697036">
        <ele>200.0</ele>
        <time>2020-07-12T07:44:16Z</time>
      </trkpt>
      <trkpt lat="48.420643" lon="7.697016">
        <ele>200.0</ele>
        <time>2020-07-12T07:44:18Z</time>
      </trkpt>
      <trkpt lat="48.420613" lon="7.696999">
        <ele>201.0</ele>
        <time>2020-07-12T07:44:20Z</time>
      </trkpt>
      <trkpt lat="48.420557" lon="7.696989">
        <ele>201.0</ele>
        <time>2020-07-12T07:44:22Z</time>
      </trkpt>
      <trkpt lat="48.420477" lon="7.696957">
        <ele>201.0</ele>
        <time>2020-07-12T07:44:24Z</time>
      </trkpt>
      <trkpt lat="48.420392" lon="7.696911">
        <ele>200.0</ele>
        <time>2020-07-12T07:44:26Z</time>
      </trkpt>
      <trkpt lat="48.420292" lon="7.69686">
        <ele>200.0</ele>
        <time>2020-07-12T07:44:28Z</time>
      </trkpt>
      <trkpt lat="48.420189" lon="7.696829">
        <ele>201.0</ele>
        <time>2020-07-12T07:44:30Z</time>
      </trkpt>
      <trkpt lat="48.420096" lon="7.696795">
        <ele>201.0</ele>
        <time>2020-07-12T07:44:32Z</time>
      </trkpt>
      <trkpt lat="48.419989" lon="7.69676">
        <ele>200.0</ele>
        <time>2020-07-12T07:44:34Z</time>
      </trkpt>
      <trkpt lat="48.419881" lon="7.696728">
        <ele>201.0</ele>
        <time>2020-07-12T07:44:36Z</time>
      </trkpt>
      <trkpt lat="48.419781" lon="7.696689">
        <ele>202.0</ele>
        <time>2020-07-12T07:44:38Z</time>
      </trkpt>
      <trkpt lat="48.41967" lon="7.69663">
        <ele>202.0</ele>
        <time>2020-07-12T07:44:40Z</time>
      </trkpt>
      <trkpt lat="48.419563" lon="7.696583">
        <ele>203.0</ele>
        <time>2020-07-12T07:44:42Z</time>
      </trkpt>
      <trkpt lat="48.419446" lon="7.696541">
        <ele>202.0</ele>
        <time>2020-07-12T07:44:44Z</time>
      </trkpt>
      <trkpt lat="48.419337" lon="7.696511">
        <ele>203.0</ele>
        <time>2020-07-12T07:44:46Z</time>
      </trkpt>
      <trkpt lat="48.419219" lon="7.696465">
        <ele>203.0</ele>
        <time>2020-07-12T07:44:48Z</time>
      </trkpt>
      <trkpt lat="48.419089" lon="7.696402">
        <ele>202.0</ele>
        <time>2020-07-12T07:44:50Z</time>
      </trkpt>
      <trkpt lat="48.418971" lon="7.696349">
        <ele>202.0</ele>
        <time>2020-07-12T07:44:52Z</time>
      </trkpt>
      <trkpt lat="48.418848" lon="7.696301">
        <ele>202.0</ele>
        <time>2020-07-12T07:44:54Z</time>
      </trkpt>
      <trkpt lat="48.418725" lon="7.696251">
        <ele>201.0</ele>
        <time>2020-07-12T07:44:56Z</time>
      </trkpt>
      <trkpt lat="48.418597" lon="7.696211">
        <ele>201.0</ele>
        <time>2020-07-12T07:44:58Z</time>
      </trkpt>
      <trkpt lat="48.418472" lon="7.696161">
        <ele>200.0</ele>
        <time>2020-07-12T07:45:00Z</time>
      </trkpt>
      <trkpt lat="48.418345" lon="7.696116">
        <ele>199.0</ele>
        <time>2020-07-12T07:45:02Z</time>
      </trkpt>
      <trkpt lat="48.418245" lon="7.696088">
        <ele>199.0</ele>
        <time>2020-07-12T07:45:04Z</time>
      </trkpt>
      <trkpt lat="48.418148" lon="7.696051">
        <ele>199.0</ele>
        <time>2020-07-12T07:45:06Z</time>
      </trkpt>
      <trkpt lat="48.418036" lon="7.696005">
        <ele>198.0</ele>
        <time>2020-07-12T07:45:08Z</time>
      </trkpt>
      <trkpt lat="48.417915" lon="7.695958">
        <ele>198.0</ele>
        <time>2020-07-12T07:45:10Z</time>
      </trkpt>
      <trkpt lat="48.417787" lon="7.695911">
        <ele>197.0</ele>
        <time>2020-07-12T07:45:12Z</time>
      </trkpt>
      <trkpt lat="48.417656" lon="7.695862">
        <ele>197.0</ele>
        <time>2020-07-12T07:45:14Z</time>
      </trkpt>
      <trkpt lat="48.417528" lon="7.695829">
        <ele>197.0</ele>
        <time>2020-07-12T07:45:16Z</time>
      </trkpt>
      <trkpt lat="48.41741" lon="7.695772">
        <ele>198.0</ele>
        <time>2020-07-12T07:45:18Z</time>
      </trkpt>
      <trkpt lat="48.41729" lon="7.695724">
        <ele>198.0</ele>
        <time>2020-07-12T07:45:20Z</time>
      </trkpt>
      <trkpt lat="48.417167" lon="7.695695">
        <ele>199.0</ele>
        <time>2020-07-12T07:45:22Z</time>
      </trkpt>
      <trkpt lat="48.417039" lon="7.695706">
        <ele>199.0</ele>
        <time>2020-07-12T07:45:24Z</time>
      </trkpt>
      <trkpt lat="48.416932" lon="7.69567">
        <ele>199.0</ele>
        <time>2020-07-12T07:45:26Z</time>
      </trkpt>
      <trkpt lat="48.416835" lon="7.695602">
        <ele>200.0</ele>
        <time>2020-07-12T07:45:28Z</time>
      </trkpt>
      <trkpt lat="48.416743" lon="7.695553">
        <ele>200.0</ele>
        <time>2020-07-12T07:45:30Z</time>
      </trkpt>
      <trkpt lat="48.41665" lon="7.695498">
        <ele>200.0</ele>
        <time>2020-07-12T07:45:32Z</time>
      </trkpt>
      <trkpt lat="48.416536" lon="7.695445">
        <ele>200.0</ele>
        <time>2020-07-12T07:45:34Z</time>
      </trkpt>
      <trkpt lat="48.41643" lon="7.695388">
        <ele>200.0</ele>
        <time>2020-07-12T07:45:36Z</time>
      </trkpt>
      <trkpt lat="48.416317" lon="7.695347">
        <ele>200.0</ele>
        <time>2020-07-12T07:45:38Z</time>
      </trkpt>
      <trkpt lat="48.416207" lon="7.695304">
        <ele>200.0</ele>
        <time>2020-07-12T07:45:40Z</time>
      </trkpt>
      <trkpt lat="48.416098" lon="7.695242">
        <ele>200.0</ele>
        <time>2020-07-12T07:45:42Z</time>
      </trkpt>
      <trkpt lat="48.415982" lon="7.695188">
        <ele>201.0</ele>
        <time>2020-07-12T07:45:44Z</time>
      </trkpt>
      <trkpt lat="48.415866" lon="7.695132">
        <ele>202.0</ele>
        <time>2020-07-12T07:45:46Z</time>
      </trkpt>
      <trkpt lat="48.415705" lon="7.695058">
        <ele>203.0</ele>
        <time>2020-07-12T07:45:49Z</time>
      </trkpt>
      <trkpt lat="48.415589" lon="7.695007">
        <ele>203.0</ele>
        <time>2020-07-12T07:45:51Z</time>
      </trkpt>
      <trkpt lat="48.41547" lon="7.694958">
        <ele>204.0</ele>
        <time>2020-07-12T07:45:53Z</time>
      </trkpt>
      <trkpt lat="48.415368" lon="7.694915">
        <ele>204.0</ele>
        <time>2020-07-12T07:45:55Z</time>
      </trkpt>
      <trkpt lat="48.415278" lon="7.69488">
        <ele>204.0</ele>
        <time>2020-07-12T07:45:57Z</time>
      </trkpt>
      <trkpt lat="48.415162" lon="7.694838">
        <ele>204.0</ele>
        <time>2020-07-12T07:45:59Z</time>
      </trkpt>
      <trkpt lat="48.415041" lon="7.694787">
        <ele>203.0</ele>
        <time>2020-07-12T07:46:01Z</time>
      </trkpt>
      <trkpt lat="48.414918" lon="7.694736">
        <ele>203.0</ele>
        <time>2020-07-12T07:46:03Z</time>
      </trkpt>
      <trkpt lat="48.414792" lon="7.694688">
        <ele>203.0</ele>
        <time>2020-07-12T07:46:05Z</time>
      </trkpt>
      <trkpt lat="48.414674" lon="7.694644">
        <ele>204.0</ele>
        <time>2020-07-12T07:46:07Z</time>
      </trkpt>
      <trkpt lat="48.414553" lon="7.694594">
        <ele>204.0</ele>
        <time>2020-07-12T07:46:09Z</time>
      </trkpt>
      <trkpt lat="48.414439" lon="7.69454">
        <ele>204.0</ele>
        <time>2020-07-12T07:46:11Z</time>
      </trkpt>
      <trkpt lat="48.414311" lon="7.694484">
        <ele>204.0</ele>
        <time>2020-07-12T07:46:13Z</time>
      </trkpt>
      <trkpt lat="48.414196" lon="7.694433">
        <ele>204.0</ele>
        <time>2020-07-12T07:46:15Z</time>
      </trkpt>
      <trkpt lat="48.41408" lon="7.694388">
        <ele>204.0</ele>
        <time>2020-07-12T07:46:17Z</time>
      </trkpt>
      <trkpt lat="48.413965" lon="7.694338">
        <ele>204.0</ele>
        <time>2020-07-12T07:46:19Z</time>
      </trkpt>
      <trkpt lat="48.413857" lon="7.694302">
        <ele>204.0</ele>
        <time>2020-07-12T07:46:21Z</time>
      </trkpt>
      <trkpt lat="48.413743" lon="7.694257">
        <ele>204.0</ele>
        <time>2020-07-12T07:46:23Z</time>
      </trkpt>
      <trkpt lat="48.413628" lon="7.694222">
        <ele>204.0</ele>
        <time>2020-07-12T07:46:25Z</time>
      </trkpt>
      <trkpt lat="48.413512" lon="7.694184">
        <ele>205.0</ele>
        <time>2020-07-12T07:46:27Z</time>
      </trkpt>
      <trkpt lat="48.41339" lon="7.694147">
        <ele>205.0</ele>
        <time>2020-07-12T07:46:29Z</time>
      </trkpt>
      <trkpt lat="48.41328" lon="7.69411">
        <ele>204.0</ele>
        <time>2020-07-12T07:46:31Z</time>
      </trkpt>
      <trkpt lat="48.41316" lon="7.694062">
        <ele>204.0</ele>
        <time>2020-07-12T07:46:33Z</time>
      </trkpt>
      <trkpt lat="48.413046" lon="7.694021">
        <ele>204.0</ele>
        <time>2020-07-12T07:46:35Z</time>
      </trkpt>
      <trkpt lat="48.412939" lon="7.693977">
        <ele>203.0</ele>
        <time>2020-07-12T07:46:37Z</time>
      </trkpt>
      <trkpt lat="48.412834" lon="7.693941">
        <ele>203.0</ele>
        <time>2020-07-12T07:46:39Z</time>
      </trkpt>
      <trkpt lat="48.412719" lon="7.693893">
        <ele>203.0</ele>
        <time>2020-07-12T07:46:41Z</time>
      </trkpt>
      <trkpt lat="48.412614" lon="7.693849">
        <ele>202.0</ele>
        <time>2020-07-12T07:46:43Z</time>
      </trkpt>
      <trkpt lat="48.41251" lon="7.693824">
        <ele>202.0</ele>
        <time>2020-07-12T07:46:45Z</time>
      </trkpt>
      <trkpt lat="48.412397" lon="7.693787">
        <ele>202.0</ele>
        <time>2020-07-12T07:46:47Z</time>
      </trkpt>
      <trkpt lat="48.412278" lon="7.693757">
        <ele>202.0</ele>
        <time>2020-07-12T07:46:49Z</time>
      </trkpt>
      <trkpt lat="48.412161" lon="7.693722">
        <ele>202.0</ele>
        <time>2020-07-12T07:46:51Z</time>
      </trkpt>
      <trkpt lat="48.412049" lon="7.69368">
        <ele>202.0</ele>
        <time>2020-07-12T07:46:53Z</time>
      </trkpt>
      <trkpt lat="48.411936" lon="7.693646">
        <ele>202.0</ele>
        <time>2020-07-12T07:46:55Z</time>
      </trkpt>
      <trkpt lat="48.411818" lon="7.693615">
        <ele>202.0</ele>
        <time>2020-07-12T07:46:57Z</time>
      </trkpt>
      <trkpt lat="48.411706" lon="7.693576">
        <ele>202.0</ele>
        <time>2020-07-12T07:46:59Z</time>
      </trkpt>
      <trkpt lat="48.411592" lon="7.693536">
        <ele>202.0</ele>
        <time>2020-07-12T07:47:01Z</time>
      </trkpt>
      <trkpt lat="48.411484" lon="7.693507">
        <ele>203.0</ele>
        <time>2020-07-12T07:47:03Z</time>
      </trkpt>
      <trkpt lat="48.411374" lon="7.693469">
        <ele>203.0</ele>
        <time>2020-07-12T07:47:05Z</time>
      </trkpt>
      <trkpt lat="48.411263" lon="7.693424">
        <ele>203.0</ele>
        <time>2020-07-12T07:47:07Z</time>
      </trkpt>
      <trkpt lat="48.411171" lon="7.693357">
        <ele>203.0</ele>
        <time>2020-07-12T07:47:09Z</time>
      </trkpt>
      <trkpt lat="48.411079" lon="7.693284">
        <ele>203.0</ele>
        <time>2020-07-12T07:47:11Z</time>
      </trkpt>
      <trkpt lat="48.410971" lon="7.693205">
        <ele>201.0</ele>
        <time>2020-07-12T07:47:13Z</time>
      </trkpt>
      <trkpt lat="48.410852" lon="7.693151">
        <ele>201.0</ele>
        <time>2020-07-12T07:47:15Z</time>
      </trkpt>
      <trkpt lat="48.410739" lon="7.6931">
        <ele>201.0</ele>
        <time>2020-07-12T07:47:17Z</time>
      </trkpt>
      <trkpt lat="48.410625" lon="7.693054">
        <ele>201.0</ele>
        <time>2020-07-12T07:47:19Z</time>
      </trkpt>
      <trkpt lat="48.410514" lon="7.693006">
        <ele>200.0</ele>
        <time>2020-07-12T07:47:21Z</time>
      </trkpt>
      <trkpt lat="48.410389" lon="7.692964">
        <ele>201.0</ele>
        <time>2020-07-12T07:47:23Z</time>
      </trkpt>
      <trkpt lat="48.410275" lon="7.692934">
        <ele>201.0</ele>
        <time>2020-07-12T07:47:25Z</time>
      </trkpt>
      <trkpt lat="48.410158" lon="7.692894">
        <ele>201.0</ele>
        <time>2020-07-12T07:47:27Z</time>
      </trkpt>
      <trkpt lat="48.410036" lon="7.692849">
        <ele>201.0</ele>
        <time>2020-07-12T07:47:29Z</time>
      </trkpt>
      <trkpt lat="48.409915" lon="7.692813">
        <ele>201.0</ele>
        <time>2020-07-12T07:47:31Z</time>
      </trkpt>
      <trkpt lat="48.409793" lon="7.692772">
        <ele>201.0</ele>
        <time>2020-07-12T07:47:33Z</time>
      </trkpt>
      <trkpt lat="48.409674" lon="7.69272">
        <ele>201.0</ele>
        <time>2020-07-12T07:47:35Z</time>
      </trkpt>
      <trkpt lat="48.409548" lon="7.692671">
        <ele>201.0</ele>
        <time>2020-07-12T07:47:37Z</time>
      </trkpt>
      <trkpt lat="48.409426" lon="7.692616">
        <ele>200.0</ele>
        <time>2020-07-12T07:47:39Z</time>
      </trkpt>
      <trkpt lat="48.409309" lon="7.692566">
        <ele>201.0</ele>
        <time>2020-07-12T07:47:41Z</time>
      </trkpt>
      <trkpt lat="48.409188" lon="7.692505">
        <ele>201.0</ele>
        <time>2020-07-12T07:47:43Z</time>
      </trkpt>
      <trkpt lat="48.409063" lon="7.692453">
        <ele>202.0</ele>
        <time>2020-07-12T07:47:45Z</time>
      </trkpt>
      <trkpt lat="48.408929" lon="7.692399">
        <ele>202.0</ele>
        <time>2020-07-12T07:47:47Z</time>
      </trkpt>
      <trkpt lat="48.408809" lon="7.692346">
        <ele>202.0</ele>
        <time>2020-07-12T07:47:49Z</time>
      </trkpt>
      <trkpt lat="48.408687" lon="7.692281">
        <ele>202.0</ele>
        <time>2020-07-12T07:47:51Z</time>
      </trkpt>
      <trkpt lat="48.408567" lon="7.692241">
        <ele>201.0</ele>
        <time>2020-07-12T07:47:53Z</time>
      </trkpt>
      <trkpt lat="48.408442" lon="7.692191">
        <ele>201.0</ele>
        <time>2020-07-12T07:47:55Z</time>
      </trkpt>
      <trkpt lat="48.408315" lon="7.692136">
        <ele>201.0</ele>
        <time>2020-07-12T07:47:57Z</time>
      </trkpt>
      <trkpt lat="48.408203" lon="7.692087">
        <ele>201.0</ele>
        <time>2020-07-12T07:47:59Z</time>
      </trkpt>
      <trkpt lat="48.40809" lon="7.692055">
        <ele>201.0</ele>
        <time>2020-07-12T07:48:01Z</time>
      </trkpt>
      <trkpt lat="48.407961" lon="7.692004">
        <ele>201.0</ele>
        <time>2020-07-12T07:48:03Z</time>
      </trkpt>
      <trkpt lat="48.407846" lon="7.691938">
        <ele>200.0</ele>
        <time>2020-07-12T07:48:05Z</time>
      </trkpt>
      <trkpt lat="48.407728" lon="7.691922">
        <ele>200.0</ele>
        <time>2020-07-12T07:48:07Z</time>
      </trkpt>
      <trkpt lat="48.407596" lon="7.691935">
        <ele>200.0</ele>
        <time>2020-07-12T07:48:09Z</time>
      </trkpt>
      <trkpt lat="48.407474" lon="7.691912">
        <ele>200.0</ele>
        <time>2020-07-12T07:48:11Z</time>
      </trkpt>
      <trkpt lat="48.407347" lon="7.69189">
        <ele>201.0</ele>
        <time>2020-07-12T07:48:13Z</time>
      </trkpt>
      <trkpt lat="48.407234" lon="7.691843">
        <ele>200.0</ele>
        <time>2020-07-12T07:48:15Z</time>
      </trkpt>
      <trkpt lat="48.407112" lon="7.691803">
        <ele>200.0</ele>
        <time>2020-07-12T07:48:17Z</time>
      </trkpt>
      <trkpt lat="48.407" lon="7.691751">
        <ele>200.0</ele>
        <time>2020-07-12T07:48:19Z</time>
      </trkpt>
      <trkpt lat="48.406884" lon="7.691683">
        <ele>200.0</ele>
        <time>2020-07-12T07:48:21Z</time>
      </trkpt>
      <trkpt lat="48.406765" lon="7.691624">
        <ele>200.0</ele>
        <time>2020-07-12T07:48:23Z</time>
      </trkpt>
      <trkpt lat="48.406645" lon="7.691576">
        <ele>200.0</ele>
        <time>2020-07-12T07:48:25Z</time>
      </trkpt>
      <trkpt lat="48.406516" lon="7.691535">
        <ele>201.0</ele>
        <time>2020-07-12T07:48:27Z</time>
      </trkpt>
      <trkpt lat="48.406402" lon="7.69149">
        <ele>201.0</ele>
        <time>2020-07-12T07:48:29Z</time>
      </trkpt>
      <trkpt lat="48.406289" lon="7.691452">
        <ele>201.0</ele>
        <time>2020-07-12T07:48:31Z</time>
      </trkpt>
      <trkpt lat="48.406186" lon="7.691413">
        <ele>201.0</ele>
        <time>2020-07-12T07:48:33Z</time>
      </trkpt>
      <trkpt lat="48.406071" lon="7.691361">
        <ele>202.0</ele>
        <time>2020-07-12T07:48:35Z</time>
      </trkpt>
      <trkpt lat="48.405949" lon="7.691314">
        <ele>202.0</ele>
        <time>2020-07-12T07:48:37Z</time>
      </trkpt>
      <trkpt lat="48.405825" lon="7.691261">
        <ele>202.0</ele>
        <time>2020-07-12T07:48:39Z</time>
      </trkpt>
      <trkpt lat="48.405709" lon="7.691205">
        <ele>202.0</ele>
        <time>2020-07-12T07:48:41Z</time>
      </trkpt>
      <trkpt lat="48.405598" lon="7.691146">
        <ele>203.0</ele>
        <time>2020-07-12T07:48:43Z</time>
      </trkpt>
      <trkpt lat="48.405488" lon="7.691101">
        <ele>203.0</ele>
        <time>2020-07-12T07:48:45Z</time>
      </trkpt>
      <trkpt lat="48.405365" lon="7.691059">
        <ele>202.0</ele>
        <time>2020-07-12T07:48:47Z</time>
      </trkpt>
      <trkpt lat="48.405245" lon="7.691022">
        <ele>202.0</ele>
        <time>2020-07-12T07:48:49Z</time>
      </trkpt>
      <trkpt lat="48.405127" lon="7.690989">
        <ele>203.0</ele>
        <time>2020-07-12T07:48:51Z</time>
      </trkpt>
      <trkpt lat="48.405009" lon="7.690968">
        <ele>203.0</ele>
        <time>2020-07-12T07:48:53Z</time>
      </trkpt>
      <trkpt lat="48.404896" lon="7.690937">
        <ele>203.0</ele>
        <time>2020-07-12T07:48:55Z</time>
      </trkpt>
      <trkpt lat="48.404775" lon="7.690884">
        <ele>204.0</ele>
        <time>2020-07-12T07:48:57Z</time>
      </trkpt>
      <trkpt lat="48.404656" lon="7.690833">
        <ele>205.0</ele>
        <time>2020-07-12T07:48:59Z</time>
      </trkpt>
      <trkpt lat="48.404533" lon="7.690783">
        <ele>205.0</ele>
        <time>2020-07-12T07:49:01Z</time>
      </trkpt>
      <trkpt lat="48.404414" lon="7.690729">
        <ele>205.0</ele>
        <time>2020-07-12T07:49:03Z</time>
      </trkpt>
      <trkpt lat="48.40431" lon="7.690687">
        <ele>204.0</ele>
        <time>2020-07-12T07:49:05Z</time>
      </trkpt>
      <trkpt lat="48.404187" lon="7.690617">
        <ele>204.0</ele>
        <time>2020-07-12T07:49:07Z</time>
      </trkpt>
      <trkpt lat="48.404073" lon="7.690555">
        <ele>204.0</ele>
        <time>2020-07-12T07:49:09Z</time>
      </trkpt>
      <trkpt lat="48.403963" lon="7.690518">
        <ele>204.0</ele>
        <time>2020-07-12T07:49:11Z</time>
      </trkpt>
      <trkpt lat="48.403844" lon="7.690467">
        <ele>204.0</ele>
        <time>2020-07-12T07:49:13Z</time>
      </trkpt>
      <trkpt lat="48.403736" lon="7.690404">
        <ele>205.0</ele>
        <time>2020-07-12T07:49:15Z</time>
      </trkpt>
      <trkpt lat="48.403624" lon="7.690346">
        <ele>205.0</ele>
        <time>2020-07-12T07:49:17Z</time>
      </trkpt>
      <trkpt lat="48.403505" lon="7.690312">
        <ele>205.0</ele>
        <time>2020-07-12T07:49:19Z</time>
      </trkpt>
      <trkpt lat="48.40338" lon="7.690286">
        <ele>204.0</ele>
        <time>2020-07-12T07:49:21Z</time>
      </trkpt>
      <trkpt lat="48.403255" lon="7.69025">
        <ele>204.0</ele>
        <time>2020-07-12T07:49:23Z</time>
      </trkpt>
      <trkpt lat="48.403141" lon="7.690207">
        <ele>204.0</ele>
        <time>2020-07-12T07:49:25Z</time>
      </trkpt>
      <trkpt lat="48.403032" lon="7.69016">
        <ele>205.0</ele>
        <time>2020-07-12T07:49:27Z</time>
      </trkpt>
      <trkpt lat="48.402914" lon="7.690121">
        <ele>205.0</ele>
        <time>2020-07-12T07:49:29Z</time>
      </trkpt>
      <trkpt lat="48.402789" lon="7.690077">
        <ele>205.0</ele>
        <time>2020-07-12T07:49:31Z</time>
      </trkpt>
      <trkpt lat="48.402672" lon="7.690018">
        <ele>205.0</ele>
        <time>2020-07-12T07:49:33Z</time>
      </trkpt>
      <trkpt lat="48.40256" lon="7.689954">
        <ele>205.0</ele>
        <time>2020-07-12T07:49:35Z</time>
      </trkpt>
      <trkpt lat="48.402443" lon="7.689906">
        <ele>205.0</ele>
        <time>2020-07-12T07:49:37Z</time>
      </trkpt>
      <trkpt lat="48.402322" lon="7.689849">
        <ele>205.0</ele>
        <time>2020-07-12T07:49:39Z</time>
      </trkpt>
      <trkpt lat="48.402206" lon="7.689809">
        <ele>205.0</ele>
        <time>2020-07-12T07:49:41Z</time>
      </trkpt>
      <trkpt lat="48.402088" lon="7.689759">
        <ele>205.0</ele>
        <time>2020-07-12T07:49:43Z</time>
      </trkpt>
      <trkpt lat="48.40198" lon="7.689711">
        <ele>205.0</ele>
        <time>2020-07-12T07:49:45Z</time>
      </trkpt>
      <trkpt lat="48.40186" lon="7.689678">
        <ele>205.0</ele>
        <time>2020-07-12T07:49:47Z</time>
      </trkpt>
      <trkpt lat="48.401741" lon="7.689651">
        <ele>204.0</ele>
        <time>2020-07-12T07:49:49Z</time>
      </trkpt>
      <trkpt lat="48.401626" lon="7.689632">
        <ele>204.0</ele>
        <time>2020-07-12T07:49:51Z</time>
      </trkpt>
      <trkpt lat="48.401507" lon="7.689603">
        <ele>203.0</ele>
        <time>2020-07-12T07:49:53Z</time>
      </trkpt>
      <trkpt lat="48.401371" lon="7.689568">
        <ele>202.0</ele>
        <time>2020-07-12T07:49:55Z</time>
      </trkpt>
      <trkpt lat="48.401245" lon="7.689531">
        <ele>201.0</ele>
        <time>2020-07-12T07:49:57Z</time>
      </trkpt>
      <trkpt lat="48.401124" lon="7.68948">
        <ele>201.0</ele>
        <time>2020-07-12T07:49:59Z</time>
      </trkpt>
      <trkpt lat="48.401018" lon="7.689429">
        <ele>201.0</ele>
        <time>2020-07-12T07:50:01Z</time>
      </trkpt>
      <trkpt lat="48.400912" lon="7.689383">
        <ele>201.0</ele>
        <time>2020-07-12T07:50:03Z</time>
      </trkpt>
      <trkpt lat="48.40079" lon="7.689329">
        <ele>201.0</ele>
        <time>2020-07-12T07:50:05Z</time>
      </trkpt>
      <trkpt lat="48.400656" lon="7.68928">
        <ele>201.0</ele>
        <time>2020-07-12T07:50:07Z</time>
      </trkpt>
      <trkpt lat="48.400532" lon="7.689225">
        <ele>201.0</ele>
        <time>2020-07-12T07:50:09Z</time>
      </trkpt>
      <trkpt lat="48.400405" lon="7.68918">
        <ele>201.0</ele>
        <time>2020-07-12T07:50:11Z</time>
      </trkpt>
      <trkpt lat="48.400285" lon="7.689142">
        <ele>200.0</ele>
        <time>2020-07-12T07:50:13Z</time>
      </trkpt>
      <trkpt lat="48.400171" lon="7.68911">
        <ele>201.0</ele>
        <time>2020-07-12T07:50:15Z</time>
      </trkpt>
      <trkpt lat="48.40006" lon="7.689072">
        <ele>201.0</ele>
        <time>2020-07-12T07:50:17Z</time>
      </trkpt>
      <trkpt lat="48.399941" lon="7.689031">
        <ele>201.0</ele>
        <time>2020-07-12T07:50:19Z</time>
      </trkpt>
      <trkpt lat="48.39982" lon="7.688985">
        <ele>201.0</ele>
        <time>2020-07-12T07:50:21Z</time>
      </trkpt>
      <trkpt lat="48.3997" lon="7.68894">
        <ele>200.0</ele>
        <time>2020-07-12T07:50:23Z</time>
      </trkpt>
      <trkpt lat="48.399575" lon="7.688897">
        <ele>200.0</ele>
        <time>2020-07-12T07:50:25Z</time>
      </trkpt>
      <trkpt lat="48.399456" lon="7.688852">
        <ele>200.0</ele>
        <time>2020-07-12T07:50:27Z</time>
      </trkpt>
      <trkpt lat="48.399291" lon="7.688777">
        <ele>199.0</ele>
        <time>2020-07-12T07:50:30Z</time>
      </trkpt>
      <trkpt lat="48.399185" lon="7.688731">
        <ele>199.0</ele>
        <time>2020-07-12T07:50:32Z</time>
      </trkpt>
      <trkpt lat="48.399074" lon="7.688682">
        <ele>199.0</ele>
        <time>2020-07-12T07:50:34Z</time>
      </trkpt>
      <trkpt lat="48.398966" lon="7.688635">
        <ele>199.0</ele>
        <time>2020-07-12T07:50:36Z</time>
      </trkpt>
      <trkpt lat="48.398852" lon="7.688586">
        <ele>200.0</ele>
        <time>2020-07-12T07:50:38Z</time>
      </trkpt>
      <trkpt lat="48.398731" lon="7.688537">
        <ele>200.0</ele>
        <time>2020-07-12T07:50:40Z</time>
      </trkpt>
      <trkpt lat="48.398613" lon="7.688487">
        <ele>200.0</ele>
        <time>2020-07-12T07:50:42Z</time>
      </trkpt>
      <trkpt lat="48.398503" lon="7.688461">
        <ele>200.0</ele>
        <time>2020-07-12T07:50:44Z</time>
      </trkpt>
      <trkpt lat="48.398393" lon="7.688436">
        <ele>201.0</ele>
        <time>2020-07-12T07:50:46Z</time>
      </trkpt>
      <trkpt lat="48.398295" lon="7.688392">
        <ele>202.0</ele>
        <time>2020-07-12T07:50:48Z</time>
      </trkpt>
      <trkpt lat="48.398197" lon="7.688339">
        <ele>202.0</ele>
        <time>2020-07-12T07:50:50Z</time>
      </trkpt>
      <trkpt lat="48.398093" lon="7.688295">
        <ele>202.0</ele>
        <time>2020-07-12T07:50:52Z</time>
      </trkpt>
      <trkpt lat="48.397983" lon="7.688249">
        <ele>202.0</ele>
        <time>2020-07-12T07:50:54Z</time>
      </trkpt>
      <trkpt lat="48.397878" lon="7.688195">
        <ele>202.0</ele>
        <time>2020-07-12T07:50:56Z</time>
      </trkpt>
      <trkpt lat="48.397768" lon="7.688137">
        <ele>202.0</ele>
        <time>2020-07-12T07:50:58Z</time>
      </trkpt>
      <trkpt lat="48.397658" lon="7.688101">
        <ele>203.0</ele>
        <time>2020-07-12T07:51:00Z</time>
      </trkpt>
      <trkpt lat="48.397538" lon="7.688061">
        <ele>203.0</ele>
        <time>2020-07-12T07:51:02Z</time>
      </trkpt>
      <trkpt lat="48.397419" lon="7.688013">
        <ele>202.0</ele>
        <time>2020-07-12T07:51:04Z</time>
      </trkpt>
      <trkpt lat="48.397301" lon="7.687969">
        <ele>202.0</ele>
        <time>2020-07-12T07:51:06Z</time>
      </trkpt>
      <trkpt lat="48.397186" lon="7.687924">
        <ele>202.0</ele>
        <time>2020-07-12T07:51:08Z</time>
      </trkpt>
      <trkpt lat="48.397069" lon="7.687877">
        <ele>202.0</ele>
        <time>2020-07-12T07:51:10Z</time>
      </trkpt>
      <trkpt lat="48.396948" lon="7.687836">
        <ele>201.0</ele>
        <time>2020-07-12T07:51:12Z</time>
      </trkpt>
      <trkpt lat="48.396818" lon="7.68779">
        <ele>202.0</ele>
        <time>2020-07-12T07:51:14Z</time>
      </trkpt>
      <trkpt lat="48.396694" lon="7.687751">
        <ele>202.0</ele>
        <time>2020-07-12T07:51:16Z</time>
      </trkpt>
      <trkpt lat="48.396574" lon="7.687707">
        <ele>201.0</ele>
        <time>2020-07-12T07:51:18Z</time>
      </trkpt>
      <trkpt lat="48.396457" lon="7.687676">
        <ele>201.0</ele>
        <time>2020-07-12T07:51:20Z</time>
      </trkpt>
      <trkpt lat="48.396346" lon="7.687634">
        <ele>200.0</ele>
        <time>2020-07-12T07:51:22Z</time>
      </trkpt>
      <trkpt lat="48.396222" lon="7.68759">
        <ele>200.0</ele>
        <time>2020-07-12T07:51:24Z</time>
      </trkpt>
      <trkpt lat="48.396092" lon="7.687548">
        <ele>199.0</ele>
        <time>2020-07-12T07:51:26Z</time>
      </trkpt>
      <trkpt lat="48.395982" lon="7.687489">
        <ele>199.0</ele>
        <time>2020-07-12T07:51:28Z</time>
      </trkpt>
      <trkpt lat="48.395869" lon="7.687447">
        <ele>199.0</ele>
        <time>2020-07-12T07:51:30Z</time>
      </trkpt>
      <trkpt lat="48.395745" lon="7.687396">
        <ele>198.0</ele>
        <time>2020-07-12T07:51:32Z</time>
      </trkpt>
      <trkpt lat="48.395633" lon="7.687349">
        <ele>199.0</ele>
        <time>2020-07-12T07:51:34Z</time>
      </trkpt>
      <trkpt lat="48.395526" lon="7.68732">
        <ele>200.0</ele>
        <time>2020-07-12T07:51:36Z</time>
      </trkpt>
      <trkpt lat="48.395408" lon="7.687282">
        <ele>200.0</ele>
        <time>2020-07-12T07:51:38Z</time>
      </trkpt>
      <trkpt lat="48.395287" lon="7.68724">
        <ele>201.0</ele>
        <time>2020-07-12T07:51:40Z</time>
      </trkpt>
      <trkpt lat="48.395168" lon="7.687194">
        <ele>201.0</ele>
        <time>2020-07-12T07:51:42Z</time>
      </trkpt>
      <trkpt lat="48.395058" lon="7.687137">
        <ele>201.0</ele>
        <time>2020-07-12T07:51:44Z</time>
      </trkpt>
      <trkpt lat="48.394946" lon="7.687089">
        <ele>201.0</ele>
        <time>2020-07-12T07:51:46Z</time>
      </trkpt>
      <trkpt lat="48.394832" lon="7.687055">
        <ele>201.0</ele>
        <time>2020-07-12T07:51:48Z</time>
      </trkpt>
      <trkpt lat="48.394719" lon="7.687016">
        <ele>201.0</ele>
        <time>2020-07-12T07:51:50Z</time>
      </trkpt>
      <trkpt lat="48.394594" lon="7.686983">
        <ele>200.0</ele>
        <time>2020-07-12T07:51:52Z</time>
      </trkpt>
      <trkpt lat="48.394471" lon="7.686928">
        <ele>200.0</ele>
        <time>2020-07-12T07:51:54Z</time>
      </trkpt>
      <trkpt lat="48.394359" lon="7.686884">
        <ele>199.0</ele>
        <time>2020-07-12T07:51:56Z</time>
      </trkpt>
      <trkpt lat="48.394249" lon="7.68683">
        <ele>199.0</ele>
        <time>2020-07-12T07:51:58Z</time>
      </trkpt>
      <trkpt lat="48.39414" lon="7.686787">
        <ele>199.0</ele>
        <time>2020-07-12T07:52:00Z</time>
      </trkpt>
      <trkpt lat="48.394031" lon="7.686765">
        <ele>199.0</ele>
        <time>2020-07-12T07:52:02Z</time>
      </trkpt>
      <trkpt lat="48.393915" lon="7.686711">
        <ele>199.0</ele>
        <time>2020-07-12T07:52:04Z</time>
      </trkpt>
      <trkpt lat="48.393798" lon="7.686652">
        <ele>198.0</ele>
        <time>2020-07-12T07:52:06Z</time>
      </trkpt>
      <trkpt lat="48.393678" lon="7.686601">
        <ele>198.0</ele>
        <time>2020-07-12T07:52:08Z</time>
      </trkpt>
      <trkpt lat="48.39356" lon="7.686565">
        <ele>199.0</ele>
        <time>2020-07-12T07:52:10Z</time>
      </trkpt>
      <trkpt lat="48.393438" lon="7.68652">
        <ele>198.0</ele>
        <time>2020-07-12T07:52:12Z</time>
      </trkpt>
      <trkpt lat="48.393319" lon="7.686471">
        <ele>198.0</ele>
        <time>2020-07-12T07:52:14Z</time>
      </trkpt>
      <trkpt lat="48.39321" lon="7.686427">
        <ele>198.0</ele>
        <time>2020-07-12T07:52:16Z</time>
      </trkpt>
      <trkpt lat="48.393105" lon="7.686381">
        <ele>198.0</ele>
        <time>2020-07-12T07:52:18Z</time>
      </trkpt>
      <trkpt lat="48.392993" lon="7.686345">
        <ele>198.0</ele>
        <time>2020-07-12T07:52:20Z</time>
      </trkpt>
      <trkpt lat="48.392871" lon="7.686306">
        <ele>198.0</ele>
        <time>2020-07-12T07:52:22Z</time>
      </trkpt>
      <trkpt lat="48.392755" lon="7.686273">
        <ele>198.0</ele>
        <time>2020-07-12T07:52:24Z</time>
      </trkpt>
      <trkpt lat="48.392641" lon="7.686224">
        <ele>199.0</ele>
        <time>2020-07-12T07:52:26Z</time>
      </trkpt>
      <trkpt lat="48.392529" lon="7.686179">
        <ele>199.0</ele>
        <time>2020-07-12T07:52:28Z</time>
      </trkpt>
      <trkpt lat="48.392417" lon="7.686132">
        <ele>199.0</ele>
        <time>2020-07-12T07:52:30Z</time>
      </trkpt>
      <trkpt lat="48.392301" lon="7.68609">
        <ele>200.0</ele>
        <time>2020-07-12T07:52:32Z</time>
      </trkpt>
      <trkpt lat="48.392182" lon="7.68605">
        <ele>200.0</ele>
        <time>2020-07-12T07:52:34Z</time>
      </trkpt>
      <trkpt lat="48.392069" lon="7.686004">
        <ele>199.0</ele>
        <time>2020-07-12T07:52:36Z</time>
      </trkpt>
      <trkpt lat="48.391948" lon="7.685966">
        <ele>199.0</ele>
        <time>2020-07-12T07:52:38Z</time>
      </trkpt>
      <trkpt lat="48.391824" lon="7.685927">
        <ele>200.0</ele>
        <time>2020-07-12T07:52:40Z</time>
      </trkpt>
      <trkpt lat="48.391707" lon="7.685884">
        <ele>201.0</ele>
        <time>2020-07-12T07:52:42Z</time>
      </trkpt>
      <trkpt lat="48.391598" lon="7.685835">
        <ele>200.0</ele>
        <time>2020-07-12T07:52:44Z</time>
      </trkpt>
      <trkpt lat="48.391486" lon="7.685786">
        <ele>200.0</ele>
        <time>2020-07-12T07:52:46Z</time>
      </trkpt>
      <trkpt lat="48.391372" lon="7.68574">
        <ele>200.0</ele>
        <time>2020-07-12T07:52:48Z</time>
      </trkpt>
      <trkpt lat="48.391256" lon="7.685694">
        <ele>200.0</ele>
        <time>2020-07-12T07:52:50Z</time>
      </trkpt>
      <trkpt lat="48.391147" lon="7.685652">
        <ele>200.0</ele>
        <time>2020-07-12T07:52:52Z</time>
      </trkpt>
      <trkpt lat="48.391039" lon="7.68561">
        <ele>200.0</ele>
        <time>2020-07-12T07:52:54Z</time>
      </trkpt>
      <trkpt lat="48.390931" lon="7.685564">
        <ele>200.0</ele>
        <time>2020-07-12T07:52:56Z</time>
      </trkpt>
      <trkpt lat="48.390832" lon="7.685526">
        <ele>200.0</ele>
        <time>2020-07-12T07:52:58Z</time>
      </trkpt>
      <trkpt lat="48.390739" lon="7.685489">
        <ele>201.0</ele>
        <time>2020-07-12T07:53:00Z</time>
      </trkpt>
      <trkpt lat="48.390659" lon="7.685458">
        <ele>201.0</ele>
        <time>2020-07-12T07:53:02Z</time>
      </trkpt>
      <trkpt lat="48.390584" lon="7.685424">
        <ele>202.0</ele>
        <time>2020-07-12T07:53:04Z</time>
      </trkpt>
      <trkpt lat="48.390511" lon="7.685395">
        <ele>202.0</ele>
        <time>2020-07-12T07:53:06Z</time>
      </trkpt>
      <trkpt lat="48.390449" lon="7.685374">
        <ele>203.0</ele>
        <time>2020-07-12T07:53:08Z</time>
      </trkpt>
      <trkpt lat="48.39039" lon="7.685357">
        <ele>203.0</ele>
        <time>2020-07-12T07:53:10Z</time>
      </trkpt>
      <trkpt lat="48.390323" lon="7.685349">
        <ele>203.0</ele>
        <time>2020-07-12T07:53:12Z</time>
      </trkpt>
      <trkpt lat="48.390241" lon="7.685322">
        <ele>203.0</ele>
        <time>2020-07-12T07:53:14Z</time>
      </trkpt>
      <trkpt lat="48.390135" lon="7.685281">
        <ele>203.0</ele>
        <time>2020-07-12T07:53:16Z</time>
      </trkpt>
      <trkpt lat="48.39002" lon="7.685231">
        <ele>202.0</ele>
        <time>2020-07-12T07:53:18Z</time>
      </trkpt>
      <trkpt lat="48.389911" lon="7.68516">
        <ele>202.0</ele>
        <time>2020-07-12T07:53:20Z</time>
      </trkpt>
      <trkpt lat="48.389797" lon="7.685095">
        <ele>202.0</ele>
        <time>2020-07-12T07:53:22Z</time>
      </trkpt>
      <trkpt lat="48.38968" lon="7.685048">
        <ele>202.0</ele>
        <time>2020-07-12T07:53:24Z</time>
      </trkpt>
      <trkpt lat="48.389561" lon="7.685004">
        <ele>203.0</ele>
        <time>2020-07-12T07:53:26Z</time>
      </trkpt>
      <trkpt lat="48.389432" lon="7.684947">
        <ele>203.0</ele>
        <time>2020-07-12T07:53:28Z</time>
      </trkpt>
      <trkpt lat="48.38932" lon="7.684905">
        <ele>202.0</ele>
        <time>2020-07-12T07:53:30Z</time>
      </trkpt>
      <trkpt lat="48.389207" lon="7.684862">
        <ele>202.0</ele>
        <time>2020-07-12T07:53:32Z</time>
      </trkpt>
      <trkpt lat="48.389091" lon="7.684824">
        <ele>201.0</ele>
        <time>2020-07-12T07:53:34Z</time>
      </trkpt>
      <trkpt lat="48.388973" lon="7.68479">
        <ele>201.0</ele>
        <time>2020-07-12T07:53:36Z</time>
      </trkpt>
      <trkpt lat="48.388859" lon="7.684744">
        <ele>201.0</ele>
        <time>2020-07-12T07:53:38Z</time>
      </trkpt>
      <trkpt lat="48.38874" lon="7.684709">
        <ele>201.0</ele>
        <time>2020-07-12T07:53:40Z</time>
      </trkpt>
      <trkpt lat="48.388619" lon="7.684665">
        <ele>201.0</ele>
        <time>2020-07-12T07:53:42Z</time>
      </trkpt>
      <trkpt lat="48.388504" lon="7.68462">
        <ele>201.0</ele>
        <time>2020-07-12T07:53:44Z</time>
      </trkpt>
      <trkpt lat="48.388391" lon="7.684579">
        <ele>201.0</ele>
        <time>2020-07-12T07:53:46Z</time>
      </trkpt>
      <trkpt lat="48.388277" lon="7.684536">
        <ele>201.0</ele>
        <time>2020-07-12T07:53:48Z</time>
      </trkpt>
      <trkpt lat="48.388167" lon="7.684491">
        <ele>202.0</ele>
        <time>2020-07-12T07:53:50Z</time>
      </trkpt>
      <trkpt lat="48.388059" lon="7.684443">
        <ele>202.0</ele>
        <time>2020-07-12T07:53:52Z</time>
      </trkpt>
      <trkpt lat="48.387944" lon="7.68441">
        <ele>202.0</ele>
        <time>2020-07-12T07:53:54Z</time>
      </trkpt>
      <trkpt lat="48.387831" lon="7.684364">
        <ele>202.0</ele>
        <time>2020-07-12T07:53:56Z</time>
      </trkpt>
      <trkpt lat="48.387718" lon="7.684313">
        <ele>202.0</ele>
        <time>2020-07-12T07:53:58Z</time>
      </trkpt>
      <trkpt lat="48.387614" lon="7.684258">
        <ele>202.0</ele>
        <time>2020-07-12T07:54:00Z</time>
      </trkpt>
      <trkpt lat="48.387512" lon="7.684211">
        <ele>202.0</ele>
        <time>2020-07-12T07:54:02Z</time>
      </trkpt>
      <trkpt lat="48.387397" lon="7.684163">
        <ele>201.0</ele>
        <time>2020-07-12T07:54:04Z</time>
      </trkpt>
      <trkpt lat="48.387227" lon="7.6841">
        <ele>201.0</ele>
        <time>2020-07-12T07:54:07Z</time>
      </trkpt>
      <trkpt lat="48.387123" lon="7.684058">
        <ele>201.0</ele>
        <time>2020-07-12T07:54:09Z</time>
      </trkpt>
      <trkpt lat="48.387017" lon="7.684026">
        <ele>201.0</ele>
        <time>2020-07-12T07:54:11Z</time>
      </trkpt>
      <trkpt lat="48.386907" lon="7.683981">
        <ele>201.0</ele>
        <time>2020-07-12T07:54:13Z</time>
      </trkpt>
      <trkpt lat="48.386795" lon="7.683942">
        <ele>201.0</ele>
        <time>2020-07-12T07:54:15Z</time>
      </trkpt>
      <trkpt lat="48.386681" lon="7.683896">
        <ele>201.0</ele>
        <time>2020-07-12T07:54:17Z</time>
      </trkpt>
      <trkpt lat="48.386581" lon="7.683893">
        <ele>201.0</ele>
        <time>2020-07-12T07:54:19Z</time>
      </trkpt>
      <trkpt lat="48.38647" lon="7.683865">
        <ele>201.0</ele>
        <time>2020-07-12T07:54:21Z</time>
      </trkpt>
      <trkpt lat="48.386383" lon="7.683794">
        <ele>201.0</ele>
        <time>2020-07-12T07:54:23Z</time>
      </trkpt>
      <trkpt lat="48.386272" lon="7.683731">
        <ele>201.0</ele>
        <time>2020-07-12T07:54:25Z</time>
      </trkpt>
      <trkpt lat="48.386151" lon="7.683691">
        <ele>201.0</ele>
        <time>2020-07-12T07:54:27Z</time>
      </trkpt>
      <trkpt lat="48.386028" lon="7.68365">
        <ele>202.0</ele>
        <time>2020-07-12T07:54:29Z</time>
      </trkpt>
      <trkpt lat="48.385906" lon="7.68362">
        <ele>201.0</ele>
        <time>2020-07-12T07:54:31Z</time>
      </trkpt>
      <trkpt lat="48.385786" lon="7.683583">
        <ele>201.0</ele>
        <time>2020-07-12T07:54:33Z</time>
      </trkpt>
      <trkpt lat="48.385673" lon="7.683539">
        <ele>201.0</ele>
        <time>2020-07-12T07:54:35Z</time>
      </trkpt>
      <trkpt lat="48.385558" lon="7.683498">
        <ele>200.0</ele>
        <time>2020-07-12T07:54:37Z</time>
      </trkpt>
      <trkpt lat="48.38545" lon="7.683434">
        <ele>200.0</ele>
        <time>2020-07-12T07:54:39Z</time>
      </trkpt>
      <trkpt lat="48.385334" lon="7.683369">
        <ele>200.0</ele>
        <time>2020-07-12T07:54:41Z</time>
      </trkpt>
      <trkpt lat="48.385221" lon="7.683318">
        <ele>200.0</ele>
        <time>2020-07-12T07:54:43Z</time>
      </trkpt>
      <trkpt lat="48.385106" lon="7.683266">
        <ele>200.0</ele>
        <time>2020-07-12T07:54:45Z</time>
      </trkpt>
      <trkpt lat="48.384987" lon="7.683228">
        <ele>199.0</ele>
        <time>2020-07-12T07:54:47Z</time>
      </trkpt>
      <trkpt lat="48.384879" lon="7.683173">
        <ele>198.0</ele>
        <time>2020-07-12T07:54:49Z</time>
      </trkpt>
      <trkpt lat="48.384768" lon="7.683131">
        <ele>198.0</ele>
        <time>2020-07-12T07:54:51Z</time>
      </trkpt>
      <trkpt lat="48.384669" lon="7.683098">
        <ele>198.0</ele>
        <time>2020-07-12T07:54:53Z</time>
      </trkpt>
      <trkpt lat="48.384571" lon="7.683063">
        <ele>198.0</ele>
        <time>2020-07-12T07:54:55Z</time>
      </trkpt>
      <trkpt lat="48.384464" lon="7.683032">
        <ele>198.0</ele>
        <time>2020-07-12T07:54:57Z</time>
      </trkpt>
      <trkpt lat="48.384352" lon="7.68299">
        <ele>198.0</ele>
        <time>2020-07-12T07:54:59Z</time>
      </trkpt>
      <trkpt lat="48.384251" lon="7.682943">
        <ele>198.0</ele>
        <time>2020-07-12T07:55:01Z</time>
      </trkpt>
      <trkpt lat="48.384148" lon="7.682907">
        <ele>199.0</ele>
        <time>2020-07-12T07:55:03Z</time>
      </trkpt>
      <trkpt lat="48.384044" lon="7.682865">
        <ele>199.0</ele>
        <time>2020-07-12T07:55:05Z</time>
      </trkpt>
      <trkpt lat="48.38394" lon="7.682845">
        <ele>198.0</ele>
        <time>2020-07-12T07:55:07Z</time>
      </trkpt>
      <trkpt lat="48.383827" lon="7.682812">
        <ele>198.0</ele>
        <time>2020-07-12T07:55:09Z</time>
      </trkpt>
      <trkpt lat="48.383726" lon="7.682774">
        <ele>198.0</ele>
        <time>2020-07-12T07:55:11Z</time>
      </trkpt>
      <trkpt lat="48.383627" lon="7.682726">
        <ele>198.0</ele>
        <time>2020-07-12T07:55:13Z</time>
      </trkpt>
      <trkpt lat="48.383516" lon="7.682681">
        <ele>198.0</ele>
        <time>2020-07-12T07:55:15Z</time>
      </trkpt>
      <trkpt lat="48.383404" lon="7.682647">
        <ele>197.0</ele>
        <time>2020-07-12T07:55:17Z</time>
      </trkpt>
      <trkpt lat="48.383289" lon="7.682604">
        <ele>197.0</ele>
        <time>2020-07-12T07:55:19Z</time>
      </trkpt>
      <trkpt lat="48.383173" lon="7.682566">
        <ele>197.0</ele>
        <time>2020-07-12T07:55:21Z</time>
      </trkpt>
      <trkpt lat="48.38305" lon="7.682516">
        <ele>196.0</ele>
        <time>2020-07-12T07:55:23Z</time>
      </trkpt>
      <trkpt lat="48.382942" lon="7.682461">
        <ele>196.0</ele>
        <time>2020-07-12T07:55:25Z</time>
      </trkpt>
      <trkpt lat="48.382829" lon="7.682424">
        <ele>197.0</ele>
        <time>2020-07-12T07:55:27Z</time>
      </trkpt>
      <trkpt lat="48.382715" lon="7.682378">
        <ele>197.0</ele>
        <time>2020-07-12T07:55:29Z</time>
      </trkpt>
      <trkpt lat="48.382601" lon="7.682323">
        <ele>198.0</ele>
        <time>2020-07-12T07:55:31Z</time>
      </trkpt>
      <trkpt lat="48.382496" lon="7.682276">
        <ele>198.0</ele>
        <time>2020-07-12T07:55:33Z</time>
      </trkpt>
      <trkpt lat="48.382388" lon="7.68223">
        <ele>198.0</ele>
        <time>2020-07-12T07:55:35Z</time>
      </trkpt>
      <trkpt lat="48.382268" lon="7.682185">
        <ele>199.0</ele>
        <time>2020-07-12T07:55:37Z</time>
      </trkpt>
      <trkpt lat="48.382159" lon="7.682148">
        <ele>200.0</ele>
        <time>2020-07-12T07:55:39Z</time>
      </trkpt>
      <trkpt lat="48.382047" lon="7.682099">
        <ele>200.0</ele>
        <time>2020-07-12T07:55:41Z</time>
      </trkpt>
      <trkpt lat="48.381928" lon="7.682048">
        <ele>200.0</ele>
        <time>2020-07-12T07:55:43Z</time>
      </trkpt>
      <trkpt lat="48.381802" lon="7.682007">
        <ele>200.0</ele>
        <time>2020-07-12T07:55:45Z</time>
      </trkpt>
      <trkpt lat="48.381678" lon="7.681977">
        <ele>201.0</ele>
        <time>2020-07-12T07:55:47Z</time>
      </trkpt>
      <trkpt lat="48.381557" lon="7.681943">
        <ele>201.0</ele>
        <time>2020-07-12T07:55:49Z</time>
      </trkpt>
      <trkpt lat="48.381425" lon="7.681904">
        <ele>201.0</ele>
        <time>2020-07-12T07:55:51Z</time>
      </trkpt>
      <trkpt lat="48.381307" lon="7.681853">
        <ele>201.0</ele>
        <time>2020-07-12T07:55:53Z</time>
      </trkpt>
      <trkpt lat="48.381195" lon="7.681804">
        <ele>201.0</ele>
        <time>2020-07-12T07:55:55Z</time>
      </trkpt>
      <trkpt lat="48.381085" lon="7.681751">
        <ele>201.0</ele>
        <time>2020-07-12T07:55:57Z</time>
      </trkpt>
      <trkpt lat="48.380965" lon="7.681692">
        <ele>201.0</ele>
        <time>2020-07-12T07:55:59Z</time>
      </trkpt>
      <trkpt lat="48.380851" lon="7.681633">
        <ele>201.0</ele>
        <time>2020-07-12T07:56:01Z</time>
      </trkpt>
      <trkpt lat="48.380729" lon="7.681595">
        <ele>201.0</ele>
        <time>2020-07-12T07:56:03Z</time>
      </trkpt>
      <trkpt lat="48.380609" lon="7.681547">
        <ele>201.0</ele>
        <time>2020-07-12T07:56:05Z</time>
      </trkpt>
      <trkpt lat="48.380485" lon="7.681509">
        <ele>201.0</ele>
        <time>2020-07-12T07:56:07Z</time>
      </trkpt>
      <trkpt lat="48.380373" lon="7.681479">
        <ele>201.0</ele>
        <time>2020-07-12T07:56:09Z</time>
      </trkpt>
      <trkpt lat="48.380252" lon="7.681434">
        <ele>201.0</ele>
        <time>2020-07-12T07:56:11Z</time>
      </trkpt>
      <trkpt lat="48.38013" lon="7.681372">
        <ele>201.0</ele>
        <time>2020-07-12T07:56:13Z</time>
      </trkpt>
      <trkpt lat="48.380024" lon="7.681321">
        <ele>202.0</ele>
        <time>2020-07-12T07:56:15Z</time>
      </trkpt>
      <trkpt lat="48.379912" lon="7.681267">
        <ele>201.0</ele>
        <time>2020-07-12T07:56:17Z</time>
      </trkpt>
      <trkpt lat="48.3798" lon="7.681235">
        <ele>201.0</ele>
        <time>2020-07-12T07:56:19Z</time>
      </trkpt>
      <trkpt lat="48.379705" lon="7.681198">
        <ele>202.0</ele>
        <time>2020-07-12T07:56:21Z</time>
      </trkpt>
      <trkpt lat="48.379596" lon="7.681141">
        <ele>202.0</ele>
        <time>2020-07-12T07:56:23Z</time>
      </trkpt>
      <trkpt lat="48.379482" lon="7.681094">
        <ele>202.0</ele>
        <time>2020-07-12T07:56:25Z</time>
      </trkpt>
      <trkpt lat="48.379372" lon="7.68105">
        <ele>201.0</ele>
        <time>2020-07-12T07:56:27Z</time>
      </trkpt>
      <trkpt lat="48.379261" lon="7.680989">
        <ele>201.0</ele>
        <time>2020-07-12T07:56:29Z</time>
      </trkpt>
      <trkpt lat="48.379148" lon="7.68095">
        <ele>200.0</ele>
        <time>2020-07-12T07:56:31Z</time>
      </trkpt>
      <trkpt lat="48.37903" lon="7.680915">
        <ele>199.0</ele>
        <time>2020-07-12T07:56:33Z</time>
      </trkpt>
      <trkpt lat="48.378872" lon="7.680888">
        <ele>201.0</ele>
        <time>2020-07-12T07:56:35Z</time>
      </trkpt>
      <trkpt lat="48.378707" lon="7.680858">
        <ele>203.0</ele>
        <time>2020-07-12T07:56:37Z</time>
      </trkpt>
      <trkpt lat="48.378568" lon="7.680822">
        <ele>204.0</ele>
        <time>2020-07-12T07:56:39Z</time>
      </trkpt>
      <trkpt lat="48.378441" lon="7.680784">
        <ele>205.0</ele>
        <time>2020-07-12T07:56:41Z</time>
      </trkpt>
      <trkpt lat="48.378314" lon="7.680716">
        <ele>206.0</ele>
        <time>2020-07-12T07:56:43Z</time>
      </trkpt>
      <trkpt lat="48.378186" lon="7.680652">
        <ele>208.0</ele>
        <time>2020-07-12T07:56:45Z</time>
      </trkpt>
      <trkpt lat="48.378066" lon="7.680589">
        <ele>208.0</ele>
        <time>2020-07-12T07:56:47Z</time>
      </trkpt>
      <trkpt lat="48.377947" lon="7.680545">
        <ele>209.0</ele>
        <time>2020-07-12T07:56:49Z</time>
      </trkpt>
      <trkpt lat="48.377828" lon="7.680507">
        <ele>209.0</ele>
        <time>2020-07-12T07:56:51Z</time>
      </trkpt>
      <trkpt lat="48.377715" lon="7.680482">
        <ele>209.0</ele>
        <time>2020-07-12T07:56:53Z</time>
      </trkpt>
      <trkpt lat="48.377612" lon="7.680456">
        <ele>209.0</ele>
        <time>2020-07-12T07:56:55Z</time>
      </trkpt>
      <trkpt lat="48.377508" lon="7.68041">
        <ele>210.0</ele>
        <time>2020-07-12T07:56:57Z</time>
      </trkpt>
      <trkpt lat="48.377399" lon="7.680352">
        <ele>210.0</ele>
        <time>2020-07-12T07:56:59Z</time>
      </trkpt>
      <trkpt lat="48.377289" lon="7.680305">
        <ele>210.0</ele>
        <time>2020-07-12T07:57:01Z</time>
      </trkpt>
      <trkpt lat="48.377179" lon="7.680252">
        <ele>210.0</ele>
        <time>2020-07-12T07:57:03Z</time>
      </trkpt>
      <trkpt lat="48.377056" lon="7.680212">
        <ele>209.0</ele>
        <time>2020-07-12T07:57:05Z</time>
      </trkpt>
      <trkpt lat="48.376917" lon="7.680182">
        <ele>208.0</ele>
        <time>2020-07-12T07:57:07Z</time>
      </trkpt>
      <trkpt lat="48.37679" lon="7.68015">
        <ele>207.0</ele>
        <time>2020-07-12T07:57:09Z</time>
      </trkpt>
      <trkpt lat="48.376685" lon="7.680112">
        <ele>207.0</ele>
        <time>2020-07-12T07:57:11Z</time>
      </trkpt>
      <trkpt lat="48.376565" lon="7.680076">
        <ele>207.0</ele>
        <time>2020-07-12T07:57:13Z</time>
      </trkpt>
      <trkpt lat="48.376454" lon="7.680024">
        <ele>207.0</ele>
        <time>2020-07-12T07:57:15Z</time>
      </trkpt>
      <trkpt lat="48.37634" lon="7.679941">
        <ele>206.0</ele>
        <time>2020-07-12T07:57:17Z</time>
      </trkpt>
      <trkpt lat="48.37622" lon="7.679891">
        <ele>206.0</ele>
        <time>2020-07-12T07:57:19Z</time>
      </trkpt>
      <trkpt lat="48.376106" lon="7.679838">
        <ele>206.0</ele>
        <time>2020-07-12T07:57:21Z</time>
      </trkpt>
      <trkpt lat="48.375993" lon="7.679808">
        <ele>206.0</ele>
        <time>2020-07-12T07:57:23Z</time>
      </trkpt>
      <trkpt lat="48.375868" lon="7.679763">
        <ele>206.0</ele>
        <time>2020-07-12T07:57:25Z</time>
      </trkpt>
      <trkpt lat="48.375729" lon="7.679717">
        <ele>205.0</ele>
        <time>2020-07-12T07:57:27Z</time>
      </trkpt>
      <trkpt lat="48.37559" lon="7.679665">
        <ele>205.0</ele>
        <time>2020-07-12T07:57:29Z</time>
      </trkpt>
      <trkpt lat="48.375481" lon="7.67961">
        <ele>204.0</ele>
        <time>2020-07-12T07:57:31Z</time>
      </trkpt>
      <trkpt lat="48.375376" lon="7.679567">
        <ele>204.0</ele>
        <time>2020-07-12T07:57:33Z</time>
      </trkpt>
      <trkpt lat="48.3752" lon="7.679486">
        <ele>203.0</ele>
        <time>2020-07-12T07:57:36Z</time>
      </trkpt>
      <trkpt lat="48.375081" lon="7.679428">
        <ele>203.0</ele>
        <time>2020-07-12T07:57:38Z</time>
      </trkpt>
      <trkpt lat="48.374971" lon="7.679366">
        <ele>203.0</ele>
        <time>2020-07-12T07:57:40Z</time>
      </trkpt>
      <trkpt lat="48.374873" lon="7.679341">
        <ele>202.0</ele>
        <time>2020-07-12T07:57:42Z</time>
      </trkpt>
      <trkpt lat="48.37481" lon="7.679329">
        <ele>202.0</ele>
        <time>2020-07-12T07:57:44Z</time>
      </trkpt>
      <trkpt lat="48.374793" lon="7.679315">
        <ele>202.0</ele>
        <time>2020-07-12T07:57:46Z</time>
      </trkpt>
      <trkpt lat="48.37478" lon="7.679298">
        <ele>202.0</ele>
        <time>2020-07-12T07:57:48Z</time>
      </trkpt>
      <trkpt lat="48.374758" lon="7.679288">
        <ele>202.0</ele>
        <time>2020-07-12T07:57:50Z</time>
      </trkpt>
      <trkpt lat="48.374742" lon="7.679291">
        <ele>203.0</ele>
        <time>2020-07-12T07:57:52Z</time>
      </trkpt>
      <trkpt lat="48.374739" lon="7.679302">
        <ele>203.0</ele>
        <time>2020-07-12T07:57:54Z</time>
      </trkpt>
      <trkpt lat="48.374738" lon="7.679299">
        <ele>203.0</ele>
        <time>2020-07-12T07:57:56Z</time>
      </trkpt>
      <trkpt lat="48.374752" lon="7.67931">
        <ele>202.0</ele>
        <time>2020-07-12T07:57:58Z</time>
      </trkpt>
      <trkpt lat="48.374791" lon="7.679338">
        <ele>202.0</ele>
        <time>2020-07-12T07:58:00Z</time>
      </trkpt>
      <trkpt lat="48.374837" lon="7.67937">
        <ele>203.0</ele>
        <time>2020-07-12T07:58:02Z</time>
      </trkpt>
      <trkpt lat="48.374886" lon="7.679391">
        <ele>203.0</ele>
        <time>2020-07-12T07:58:04Z</time>
      </trkpt>
      <trkpt lat="48.374928" lon="7.679361">
        <ele>203.0</ele>
        <time>2020-07-12T07:58:06Z</time>
      </trkpt>
      <trkpt lat="48.374933" lon="7.679279">
        <ele>203.0</ele>
        <time>2020-07-12T07:58:08Z</time>
      </trkpt>
      <trkpt lat="48.374948" lon="7.679182">
        <ele>203.0</ele>
        <time>2020-07-12T07:58:10Z</time>
      </trkpt>
      <trkpt lat="48.374917" lon="7.679112">
        <ele>203.0</ele>
        <time>2020-07-12T07:58:12Z</time>
      </trkpt>
      <trkpt lat="48.374853" lon="7.679091">
        <ele>203.0</ele>
        <time>2020-07-12T07:58:14Z</time>
      </trkpt>
      <trkpt lat="48.374792" lon="7.67908">
        <ele>202.0</ele>
        <time>2020-07-12T07:58:16Z</time>
      </trkpt>
      <trkpt lat="48.374737" lon="7.679071">
        <ele>202.0</ele>
        <time>2020-07-12T07:58:18Z</time>
      </trkpt>
      <trkpt lat="48.37467" lon="7.67903">
        <ele>202.0</ele>
        <time>2020-07-12T07:58:20Z</time>
      </trkpt>
      <trkpt lat="48.374584" lon="7.679002">
        <ele>202.0</ele>
        <time>2020-07-12T07:58:22Z</time>
      </trkpt>
      <trkpt lat="48.374477" lon="7.678953">
        <ele>201.0</ele>
        <time>2020-07-12T07:58:24Z</time>
      </trkpt>
      <trkpt lat="48.37436" lon="7.678917">
        <ele>201.0</ele>
        <time>2020-07-12T07:58:26Z</time>
      </trkpt>
      <trkpt lat="48.374249" lon="7.678877">
        <ele>201.0</ele>
        <time>2020-07-12T07:58:28Z</time>
      </trkpt>
      <trkpt lat="48.374134" lon="7.678838">
        <ele>201.0</ele>
        <time>2020-07-12T07:58:30Z</time>
      </trkpt>
      <trkpt lat="48.374035" lon="7.678791">
        <ele>202.0</ele>
        <time>2020-07-12T07:58:32Z</time>
      </trkpt>
      <trkpt lat="48.373927" lon="7.678746">
        <ele>202.0</ele>
        <time>2020-07-12T07:58:34Z</time>
      </trkpt>
      <trkpt lat="48.373817" lon="7.678724">
        <ele>202.0</ele>
        <time>2020-07-12T07:58:36Z</time>
      </trkpt>
      <trkpt lat="48.373716" lon="7.678708">
        <ele>202.0</ele>
        <time>2020-07-12T07:58:38Z</time>
      </trkpt>
      <trkpt lat="48.373604" lon="7.678686">
        <ele>203.0</ele>
        <time>2020-07-12T07:58:40Z</time>
      </trkpt>
      <trkpt lat="48.373492" lon="7.678639">
        <ele>204.0</ele>
        <time>2020-07-12T07:58:42Z</time>
      </trkpt>
      <trkpt lat="48.373406" lon="7.678559">
        <ele>203.0</ele>
        <time>2020-07-12T07:58:44Z</time>
      </trkpt>
      <trkpt lat="48.373333" lon="7.67847">
        <ele>204.0</ele>
        <time>2020-07-12T07:58:46Z</time>
      </trkpt>
      <trkpt lat="48.373259" lon="7.678358">
        <ele>204.0</ele>
        <time>2020-07-12T07:58:48Z</time>
      </trkpt>
      <trkpt lat="48.373197" lon="7.678231">
        <ele>204.0</ele>
        <time>2020-07-12T07:58:50Z</time>
      </trkpt>
      <trkpt lat="48.373139" lon="7.678087">
        <ele>204.0</ele>
        <time>2020-07-12T07:58:52Z</time>
      </trkpt>
      <trkpt lat="48.373098" lon="7.677941">
        <ele>204.0</ele>
        <time>2020-07-12T07:58:54Z</time>
      </trkpt>
      <trkpt lat="48.373045" lon="7.677784">
        <ele>203.0</ele>
        <time>2020-07-12T07:58:56Z</time>
      </trkpt>
      <trkpt lat="48.372993" lon="7.677623">
        <ele>203.0</ele>
        <time>2020-07-12T07:58:58Z</time>
      </trkpt>
      <trkpt lat="48.372949" lon="7.677471">
        <ele>203.0</ele>
        <time>2020-07-12T07:59:00Z</time>
      </trkpt>
      <trkpt lat="48.372903" lon="7.677307">
        <ele>202.0</ele>
        <time>2020-07-12T07:59:02Z</time>
      </trkpt>
      <trkpt lat="48.372848" lon="7.677133">
        <ele>202.0</ele>
        <time>2020-07-12T07:59:04Z</time>
      </trkpt>
      <trkpt lat="48.372797" lon="7.676966">
        <ele>202.0</ele>
        <time>2020-07-12T07:59:06Z</time>
      </trkpt>
      <trkpt lat="48.372751" lon="7.676805">
        <ele>203.0</ele>
        <time>2020-07-12T07:59:08Z</time>
      </trkpt>
      <trkpt lat="48.372699" lon="7.676647">
        <ele>203.0</ele>
        <time>2020-07-12T07:59:10Z</time>
      </trkpt>
      <trkpt lat="48.372646" lon="7.676486">
        <ele>204.0</ele>
        <time>2020-07-12T07:59:12Z</time>
      </trkpt>
      <trkpt lat="48.372595" lon="7.676325">
        <ele>204.0</ele>
        <time>2020-07-12T07:59:14Z</time>
      </trkpt>
      <trkpt lat="48.372543" lon="7.676172">
        <ele>204.0</ele>
        <time>2020-07-12T07:59:16Z</time>
      </trkpt>
      <trkpt lat="48.372494" lon="7.676014">
        <ele>204.0</ele>
        <time>2020-07-12T07:59:18Z</time>
      </trkpt>
      <trkpt lat="48.372438" lon="7.675854">
        <ele>204.0</ele>
        <time>2020-07-12T07:59:20Z</time>
      </trkpt>
      <trkpt lat="48.37239" lon="7.675708">
        <ele>204.0</ele>
        <time>2020-07-12T07:59:22Z</time>
      </trkpt>
      <trkpt lat="48.372344" lon="7.675585">
        <ele>204.0</ele>
        <time>2020-07-12T07:59:24Z</time>
      </trkpt>
      <trkpt lat="48.372301" lon="7.675458">
        <ele>204.0</ele>
        <time>2020-07-12T07:59:26Z</time>
      </trkpt>
      <trkpt lat="48.372251" lon="7.675342">
        <ele>204.0</ele>
        <time>2020-07-12T07:59:28Z</time>
      </trkpt>
      <trkpt lat="48.37219" lon="7.675212">
        <ele>204.0</ele>
        <time>2020-07-12T07:59:30Z</time>
      </trkpt>
      <trkpt lat="48.372135" lon="7.67509">
        <ele>205.0</ele>
        <time>2020-07-12T07:59:32Z</time>
      </trkpt>
      <trkpt lat="48.372081" lon="7.674955">
        <ele>204.0</ele>
        <time>2020-07-12T07:59:34Z</time>
      </trkpt>
      <trkpt lat="48.372016" lon="7.674821">
        <ele>204.0</ele>
        <time>2020-07-12T07:59:36Z</time>
      </trkpt>
      <trkpt lat="48.371951" lon="7.674684">
        <ele>202.0</ele>
        <time>2020-07-12T07:59:38Z</time>
      </trkpt>
      <trkpt lat="48.371867" lon="7.674539">
        <ele>203.0</ele>
        <time>2020-07-12T07:59:40Z</time>
      </trkpt>
      <trkpt lat="48.371781" lon="7.674393">
        <ele>202.0</ele>
        <time>2020-07-12T07:59:42Z</time>
      </trkpt>
      <trkpt lat="48.371717" lon="7.674264">
        <ele>203.0</ele>
        <time>2020-07-12T07:59:44Z</time>
      </trkpt>
      <trkpt lat="48.371646" lon="7.674138">
        <ele>203.0</ele>
        <time>2020-07-12T07:59:46Z</time>
      </trkpt>
      <trkpt lat="48.371574" lon="7.674009">
        <ele>203.0</ele>
        <time>2020-07-12T07:59:48Z</time>
      </trkpt>
      <trkpt lat="48.371502" lon="7.673877">
        <ele>203.0</ele>
        <time>2020-07-12T07:59:50Z</time>
      </trkpt>
      <trkpt lat="48.37144" lon="7.673738">
        <ele>204.0</ele>
        <time>2020-07-12T07:59:52Z</time>
      </trkpt>
      <trkpt lat="48.371377" lon="7.673597">
        <ele>204.0</ele>
        <time>2020-07-12T07:59:54Z</time>
      </trkpt>
      <trkpt lat="48.371311" lon="7.673463">
        <ele>203.0</ele>
        <time>2020-07-12T07:59:56Z</time>
      </trkpt>
      <trkpt lat="48.371263" lon="7.673344">
        <ele>203.0</ele>
        <time>2020-07-12T07:59:58Z</time>
      </trkpt>
      <trkpt lat="48.37121" lon="7.673216">
        <ele>203.0</ele>
        <time>2020-07-12T08:00:00Z</time>
      </trkpt>
      <trkpt lat="48.37115" lon="7.673084">
        <ele>203.0</ele>
        <time>2020-07-12T08:00:02Z</time>
      </trkpt>
      <trkpt lat="48.371062" lon="7.672951">
        <ele>203.0</ele>
        <time>2020-07-12T08:00:04Z</time>
      </trkpt>
      <trkpt lat="48.370961" lon="7.672838">
        <ele>203.0</ele>
        <time>2020-07-12T08:00:06Z</time>
      </trkpt>
      <trkpt lat="48.370854" lon="7.672732">
        <ele>202.0</ele>
        <time>2020-07-12T08:00:08Z</time>
      </trkpt>
      <trkpt lat="48.370768" lon="7.672629">
        <ele>202.0</ele>
        <time>2020-07-12T08:00:10Z</time>
      </trkpt>
      <trkpt lat="48.370663" lon="7.672522">
        <ele>203.0</ele>
        <time>2020-07-12T08:00:12Z</time>
      </trkpt>
      <trkpt lat="48.370558" lon="7.672419">
        <ele>203.0</ele>
        <time>2020-07-12T08:00:14Z</time>
      </trkpt>
      <trkpt lat="48.370452" lon="7.672313">
        <ele>203.0</ele>
        <time>2020-07-12T08:00:16Z</time>
      </trkpt>
      <trkpt lat="48.37036" lon="7.672208">
        <ele>202.0</ele>
        <time>2020-07-12T08:00:18Z</time>
      </trkpt>
      <trkpt lat="48.370271" lon="7.672101">
        <ele>202.0</ele>
        <time>2020-07-12T08:00:20Z</time>
      </trkpt>
      <trkpt lat="48.370174" lon="7.672003">
        <ele>202.0</ele>
        <time>2020-07-12T08:00:22Z</time>
      </trkpt>
      <trkpt lat="48.370088" lon="7.671896">
        <ele>202.0</ele>
        <time>2020-07-12T08:00:24Z</time>
      </trkpt>
      <trkpt lat="48.369998" lon="7.671797">
        <ele>202.0</ele>
        <time>2020-07-12T08:00:26Z</time>
      </trkpt>
      <trkpt lat="48.369903" lon="7.671682">
        <ele>202.0</ele>
        <time>2020-07-12T08:00:28Z</time>
      </trkpt>
      <trkpt lat="48.369811" lon="7.671567">
        <ele>202.0</ele>
        <time>2020-07-12T08:00:30Z</time>
      </trkpt>
      <trkpt lat="48.369717" lon="7.671462">
        <ele>201.0</ele>
        <time>2020-07-12T08:00:32Z</time>
      </trkpt>
      <trkpt lat="48.369623" lon="7.671352">
        <ele>201.0</ele>
        <time>2020-07-12T08:00:34Z</time>
      </trkpt>
      <trkpt lat="48.369517" lon="7.67125">
        <ele>201.0</ele>
        <time>2020-07-12T08:00:36Z</time>
      </trkpt>
      <trkpt lat="48.369417" lon="7.671138">
        <ele>202.0</ele>
        <time>2020-07-12T08:00:38Z</time>
      </trkpt>
      <trkpt lat="48.369327" lon="7.671036">
        <ele>201.0</ele>
        <time>2020-07-12T08:00:40Z</time>
      </trkpt>
      <trkpt lat="48.369241" lon="7.670923">
        <ele>201.0</ele>
        <time>2020-07-12T08:00:42Z</time>
      </trkpt>
      <trkpt lat="48.369156" lon="7.670817">
        <ele>201.0</ele>
        <time>2020-07-12T08:00:44Z</time>
      </trkpt>
      <trkpt lat="48.369062" lon="7.67071">
        <ele>201.0</ele>
        <time>2020-07-12T08:00:46Z</time>
      </trkpt>
      <trkpt lat="48.368964" lon="7.670608">
        <ele>201.0</ele>
        <time>2020-07-12T08:00:48Z</time>
      </trkpt>
      <trkpt lat="48.368863" lon="7.670493">
        <ele>201.0</ele>
        <time>2020-07-12T08:00:50Z</time>
      </trkpt>
      <trkpt lat="48.368762" lon="7.670381">
        <ele>202.0</ele>
        <time>2020-07-12T08:00:52Z</time>
      </trkpt>
      <trkpt lat="48.368657" lon="7.670274">
        <ele>202.0</ele>
        <time>2020-07-12T08:00:54Z</time>
      </trkpt>
      <trkpt lat="48.36855" lon="7.670186">
        <ele>202.0</ele>
        <time>2020-07-12T08:00:56Z</time>
      </trkpt>
      <trkpt lat="48.368438" lon="7.670118">
        <ele>202.0</ele>
        <time>2020-07-12T08:00:58Z</time>
      </trkpt>
      <trkpt lat="48.368319" lon="7.670058">
        <ele>202.0</ele>
        <time>2020-07-12T08:01:00Z</time>
      </trkpt>
      <trkpt lat="48.368203" lon="7.670005">
        <ele>202.0</ele>
        <time>2020-07-12T08:01:02Z</time>
      </trkpt>
      <trkpt lat="48.368088" lon="7.669959">
        <ele>203.0</ele>
        <time>2020-07-12T08:01:04Z</time>
      </trkpt>
      <trkpt lat="48.367967" lon="7.669918">
        <ele>203.0</ele>
        <time>2020-07-12T08:01:06Z</time>
      </trkpt>
      <trkpt lat="48.367857" lon="7.669867">
        <ele>203.0</ele>
        <time>2020-07-12T08:01:08Z</time>
      </trkpt>
      <trkpt lat="48.367738" lon="7.669823">
        <ele>203.0</ele>
        <time>2020-07-12T08:01:10Z</time>
      </trkpt>
      <trkpt lat="48.367621" lon="7.669781">
        <ele>203.0</ele>
        <time>2020-07-12T08:01:12Z</time>
      </trkpt>
      <trkpt lat="48.367505" lon="7.669738">
        <ele>203.0</ele>
        <time>2020-07-12T08:01:14Z</time>
      </trkpt>
      <trkpt lat="48.36739" lon="7.669689">
        <ele>203.0</ele>
        <time>2020-07-12T08:01:16Z</time>
      </trkpt>
      <trkpt lat="48.367282" lon="7.669649">
        <ele>202.0</ele>
        <time>2020-07-12T08:01:18Z</time>
      </trkpt>
      <trkpt lat="48.367177" lon="7.669614">
        <ele>202.0</ele>
        <time>2020-07-12T08:01:20Z</time>
      </trkpt>
      <trkpt lat="48.367075" lon="7.669584">
        <ele>202.0</ele>
        <time>2020-07-12T08:01:22Z</time>
      </trkpt>
      <trkpt lat="48.36697" lon="7.669549">
        <ele>202.0</ele>
        <time>2020-07-12T08:01:24Z</time>
      </trkpt>
      <trkpt lat="48.36687" lon="7.669503">
        <ele>202.0</ele>
        <time>2020-07-12T08:01:26Z</time>
      </trkpt>
      <trkpt lat="48.366769" lon="7.669459">
        <ele>201.0</ele>
        <time>2020-07-12T08:01:28Z</time>
      </trkpt>
      <trkpt lat="48.366682" lon="7.669423">
        <ele>201.0</ele>
        <time>2020-07-12T08:01:30Z</time>
      </trkpt>
      <trkpt lat="48.366608" lon="7.669402">
        <ele>201.0</ele>
        <time>2020-07-12T08:01:32Z</time>
      </trkpt>
      <trkpt lat="48.36654" lon="7.669384">
        <ele>201.0</ele>
        <time>2020-07-12T08:01:34Z</time>
      </trkpt>
      <trkpt lat="48.36649" lon="7.669357">
        <ele>201.0</ele>
        <time>2020-07-12T08:01:36Z</time>
      </trkpt>
      <trkpt lat="48.366458" lon="7.669334">
        <ele>202.0</ele>
        <time>2020-07-12T08:01:38Z</time>
      </trkpt>
      <trkpt lat="48.366462" lon="7.669338">
        <ele>202.0</ele>
        <time>2020-07-12T08:01:40Z</time>
      </trkpt>
      <trkpt lat="48.366461" lon="7.669337">
        <ele>202.0</ele>
        <time>2020-07-12T08:01:42Z</time>
      </trkpt>
      <trkpt lat="48.366461" lon="7.669337">
        <ele>202.0</ele>
        <time>2020-07-12T08:01:44Z</time>
      </trkpt>
      <trkpt lat="48.366461" lon="7.669337">
        <ele>202.0</ele>
        <time>2020-07-12T08:01:47Z</time>
      </trkpt>
      <trkpt lat="48.366433" lon="7.669335">
        <ele>203.0</ele>
        <time>2020-07-12T08:05:46Z</time>
      </trkpt>
      <trkpt lat="48.366437" lon="7.669328">
        <ele>203.0</ele>
        <time>2020-07-12T08:05:49Z</time>
      </trkpt>
      <trkpt lat="48.366437" lon="7.669328">
        <ele>203.0</ele>
        <time>2020-07-12T08:05:51Z</time>
      </trkpt>
      <trkpt lat="48.366437" lon="7.669328">
        <ele>203.0</ele>
        <time>2020-07-12T08:05:53Z</time>
      </trkpt>
      <trkpt lat="48.366437" lon="7.669328">
        <ele>203.0</ele>
        <time>2020-07-12T08:05:55Z</time>
      </trkpt>
      <trkpt lat="48.366436" lon="7.669337">
        <ele>203.0</ele>
        <time>2020-07-12T08:05:57Z</time>
      </trkpt>
      <trkpt lat="48.366436" lon="7.669337">
        <ele>203.0</ele>
        <time>2020-07-12T08:05:59Z</time>
      </trkpt>
      <trkpt lat="48.366436" lon="7.669337">
        <ele>203.0</ele>
        <time>2020-07-12T08:06:01Z</time>
      </trkpt>
      <trkpt lat="48.366436" lon="7.669337">
        <ele>203.0</ele>
        <time>2020-07-12T08:06:03Z</time>
      </trkpt>
      <trkpt lat="48.366436" lon="7.669337">
        <ele>203.0</ele>
        <time>2020-07-12T08:06:05Z</time>
      </trkpt>
      <trkpt lat="48.366436" lon="7.669337">
        <ele>203.0</ele>
        <time>2020-07-12T08:06:07Z</time>
      </trkpt>
      <trkpt lat="48.366436" lon="7.669337">
        <ele>203.0</ele>
        <time>2020-07-12T08:06:09Z</time>
      </trkpt>
      <trkpt lat="48.36642" lon="7.669328">
        <ele>203.0</ele>
        <time>2020-07-12T08:06:11Z</time>
      </trkpt>
      <trkpt lat="48.366385" lon="7.669328">
        <ele>204.0</ele>
        <time>2020-07-12T08:06:13Z</time>
      </trkpt>
      <trkpt lat="48.36633" lon="7.669321">
        <ele>204.0</ele>
        <time>2020-07-12T08:06:15Z</time>
      </trkpt>
      <trkpt lat="48.366261" lon="7.669285">
        <ele>203.0</ele>
        <time>2020-07-12T08:06:17Z</time>
      </trkpt>
      <trkpt lat="48.366172" lon="7.669266">
        <ele>203.0</ele>
        <time>2020-07-12T08:06:19Z</time>
      </trkpt>
      <trkpt lat="48.366082" lon="7.66924">
        <ele>204.0</ele>
        <time>2020-07-12T08:06:21Z</time>
      </trkpt>
      <trkpt lat="48.365995" lon="7.669199">
        <ele>203.0</ele>
        <time>2020-07-12T08:06:23Z</time>
      </trkpt>
      <trkpt lat="48.3659" lon="7.669163">
        <ele>203.0</ele>
        <time>2020-07-12T08:06:25Z</time>
      </trkpt>
      <trkpt lat="48.365804" lon="7.669118">
        <ele>203.0</ele>
        <time>2020-07-12T08:06:27Z</time>
      </trkpt>
      <trkpt lat="48.365705" lon="7.669074">
        <ele>202.0</ele>
        <time>2020-07-12T08:06:29Z</time>
      </trkpt>
      <trkpt lat="48.365605" lon="7.669033">
        <ele>202.0</ele>
        <time>2020-07-12T08:06:31Z</time>
      </trkpt>
      <trkpt lat="48.365508" lon="7.668987">
        <ele>202.0</ele>
        <time>2020-07-12T08:06:33Z</time>
      </trkpt>
      <trkpt lat="48.365409" lon="7.668945">
        <ele>202.0</ele>
        <time>2020-07-12T08:06:35Z</time>
      </trkpt>
      <trkpt lat="48.365304" lon="7.668909">
        <ele>203.0</ele>
        <time>2020-07-12T08:06:37Z</time>
      </trkpt>
      <trkpt lat="48.365202" lon="7.668874">
        <ele>203.0</ele>
        <time>2020-07-12T08:06:39Z</time>
      </trkpt>
      <trkpt lat="48.365096" lon="7.668841">
        <ele>203.0</ele>
        <time>2020-07-12T08:06:41Z</time>
      </trkpt>
      <trkpt lat="48.364994" lon="7.66881">
        <ele>204.0</ele>
        <time>2020-07-12T08:06:43Z</time>
      </trkpt>
      <trkpt lat="48.364894" lon="7.668773">
        <ele>204.0</ele>
        <time>2020-07-12T08:06:45Z</time>
      </trkpt>
      <trkpt lat="48.364794" lon="7.668727">
        <ele>204.0</ele>
        <time>2020-07-12T08:06:47Z</time>
      </trkpt>
      <trkpt lat="48.3647" lon="7.668684">
        <ele>204.0</ele>
        <time>2020-07-12T08:06:49Z</time>
      </trkpt>
      <trkpt lat="48.3646" lon="7.668641">
        <ele>205.0</ele>
        <time>2020-07-12T08:06:51Z</time>
      </trkpt>
      <trkpt lat="48.3645" lon="7.668593">
        <ele>205.0</ele>
        <time>2020-07-12T08:06:53Z</time>
      </trkpt>
      <trkpt lat="48.364392" lon="7.668543">
        <ele>205.0</ele>
        <time>2020-07-12T08:06:55Z</time>
      </trkpt>
      <trkpt lat="48.364283" lon="7.668464">
        <ele>205.0</ele>
        <time>2020-07-12T08:06:57Z</time>
      </trkpt>
      <trkpt lat="48.364188" lon="7.668371">
        <ele>205.0</ele>
        <time>2020-07-12T08:06:59Z</time>
      </trkpt>
      <trkpt lat="48.364098" lon="7.668269">
        <ele>204.0</ele>
        <time>2020-07-12T08:07:01Z</time>
      </trkpt>
      <trkpt lat="48.364019" lon="7.668165">
        <ele>204.0</ele>
        <time>2020-07-12T08:07:03Z</time>
      </trkpt>
      <trkpt lat="48.363935" lon="7.668055">
        <ele>204.0</ele>
        <time>2020-07-12T08:07:05Z</time>
      </trkpt>
      <trkpt lat="48.363855" lon="7.667947">
        <ele>205.0</ele>
        <time>2020-07-12T08:07:07Z</time>
      </trkpt>
      <trkpt lat="48.363776" lon="7.667845">
        <ele>204.0</ele>
        <time>2020-07-12T08:07:09Z</time>
      </trkpt>
      <trkpt lat="48.363695" lon="7.667737">
        <ele>204.0</ele>
        <time>2020-07-12T08:07:11Z</time>
      </trkpt>
      <trkpt lat="48.363613" lon="7.667623">
        <ele>204.0</ele>
        <time>2020-07-12T08:07:13Z</time>
      </trkpt>
      <trkpt lat="48.363535" lon="7.667515">
        <ele>203.0</ele>
        <time>2020-07-12T08:07:15Z</time>
      </trkpt>
      <trkpt lat="48.363461" lon="7.667403">
        <ele>203.0</ele>
        <time>2020-07-12T08:07:17Z</time>
      </trkpt>
      <trkpt lat="48.363378" lon="7.667305">
        <ele>203.0</ele>
        <time>2020-07-12T08:07:19Z</time>
      </trkpt>
      <trkpt lat="48.363291" lon="7.667199">
        <ele>203.0</ele>
        <time>2020-07-12T08:07:21Z</time>
      </trkpt>
      <trkpt lat="48.363205" lon="7.667081">
        <ele>203.0</ele>
        <time>2020-07-12T08:07:23Z</time>
      </trkpt>
      <trkpt lat="48.363115" lon="7.666975">
        <ele>203.0</ele>
        <time>2020-07-12T08:07:25Z</time>
      </trkpt>
      <trkpt lat="48.36303" lon="7.666868">
        <ele>203.0</ele>
        <time>2020-07-12T08:07:27Z</time>
      </trkpt>
      <trkpt lat="48.362948" lon="7.666767">
        <ele>203.0</ele>
        <time>2020-07-12T08:07:29Z</time>
      </trkpt>
      <trkpt lat="48.362866" lon="7.66666">
        <ele>203.0</ele>
        <time>2020-07-12T08:07:31Z</time>
      </trkpt>
      <trkpt lat="48.362786" lon="7.666557">
        <ele>202.0</ele>
        <time>2020-07-12T08:07:33Z</time>
      </trkpt>
      <trkpt lat="48.362701" lon="7.666454">
        <ele>202.0</ele>
        <time>2020-07-12T08:07:35Z</time>
      </trkpt>
      <trkpt lat="48.362611" lon="7.666344">
        <ele>201.0</ele>
        <time>2020-07-12T08:07:37Z</time>
      </trkpt>
      <trkpt lat="48.362529" lon="7.666235">
        <ele>201.0</ele>
        <time>2020-07-12T08:07:39Z</time>
      </trkpt>
      <trkpt lat="48.362446" lon="7.666123">
        <ele>201.0</ele>
        <time>2020-07-12T08:07:41Z</time>
      </trkpt>
      <trkpt lat="48.362362" lon="7.666021">
        <ele>202.0</ele>
        <time>2020-07-12T08:07:43Z</time>
      </trkpt>
      <trkpt lat="48.362283" lon="7.665923">
        <ele>202.0</ele>
        <time>2020-07-12T08:07:45Z</time>
      </trkpt>
      <trkpt lat="48.362204" lon="7.665823">
        <ele>201.0</ele>
        <time>2020-07-12T08:07:47Z</time>
      </trkpt>
      <trkpt lat="48.362124" lon="7.665722">
        <ele>202.0</ele>
        <time>2020-07-12T08:07:49Z</time>
      </trkpt>
      <trkpt lat="48.362048" lon="7.665622">
        <ele>202.0</ele>
        <time>2020-07-12T08:07:51Z</time>
      </trkpt>
      <trkpt lat="48.361966" lon="7.665526">
        <ele>202.0</ele>
        <time>2020-07-12T08:07:53Z</time>
      </trkpt>
      <trkpt lat="48.361886" lon="7.665429">
        <ele>202.0</ele>
        <time>2020-07-12T08:07:55Z</time>
      </trkpt>
      <trkpt lat="48.36181" lon="7.66533">
        <ele>202.0</ele>
        <time>2020-07-12T08:07:57Z</time>
      </trkpt>
      <trkpt lat="48.361726" lon="7.665258">
        <ele>202.0</ele>
        <time>2020-07-12T08:07:59Z</time>
      </trkpt>
      <trkpt lat="48.361664" lon="7.665271">
        <ele>202.0</ele>
        <time>2020-07-12T08:08:01Z</time>
      </trkpt>
      <trkpt lat="48.361646" lon="7.66534">
        <ele>202.0</ele>
        <time>2020-07-12T08:08:03Z</time>
      </trkpt>
      <trkpt lat="48.361632" lon="7.665398">
        <ele>202.0</ele>
        <time>2020-07-12T08:08:05Z</time>
      </trkpt>
      <trkpt lat="48.361607" lon="7.665455">
        <ele>203.0</ele>
        <time>2020-07-12T08:08:07Z</time>
      </trkpt>
      <trkpt lat="48.361575" lon="7.665529">
        <ele>203.0</ele>
        <time>2020-07-12T08:08:09Z</time>
      </trkpt>
      <trkpt lat="48.36154" lon="7.665634">
        <ele>203.0</ele>
        <time>2020-07-12T08:08:11Z</time>
      </trkpt>
      <trkpt lat="48.361498" lon="7.665735">
        <ele>203.0</ele>
        <time>2020-07-12T08:08:13Z</time>
      </trkpt>
      <trkpt lat="48.361467" lon="7.665858">
        <ele>203.0</ele>
        <time>2020-07-12T08:08:15Z</time>
      </trkpt>
      <trkpt lat="48.361434" lon="7.665998">
        <ele>203.0</ele>
        <time>2020-07-12T08:08:17Z</time>
      </trkpt>
      <trkpt lat="48.361397" lon="7.666141">
        <ele>203.0</ele>
        <time>2020-07-12T08:08:19Z</time>
      </trkpt>
      <trkpt lat="48.361365" lon="7.666281">
        <ele>203.0</ele>
        <time>2020-07-12T08:08:21Z</time>
      </trkpt>
      <trkpt lat="48.361326" lon="7.666415">
        <ele>203.0</ele>
        <time>2020-07-12T08:08:23Z</time>
      </trkpt>
      <trkpt lat="48.361288" lon="7.666555">
        <ele>203.0</ele>
        <time>2020-07-12T08:08:25Z</time>
      </trkpt>
      <trkpt lat="48.361253" lon="7.666704">
        <ele>203.0</ele>
        <time>2020-07-12T08:08:27Z</time>
      </trkpt>
      <trkpt lat="48.361217" lon="7.666851">
        <ele>203.0</ele>
        <time>2020-07-12T08:08:29Z</time>
      </trkpt>
      <trkpt lat="48.361183" lon="7.666998">
        <ele>203.0</ele>
        <time>2020-07-12T08:08:31Z</time>
      </trkpt>
      <trkpt lat="48.36115" lon="7.667134">
        <ele>203.0</ele>
        <time>2020-07-12T08:08:33Z</time>
      </trkpt>
      <trkpt lat="48.361115" lon="7.667266">
        <ele>204.0</ele>
        <time>2020-07-12T08:08:35Z</time>
      </trkpt>
      <trkpt lat="48.361079" lon="7.667387">
        <ele>204.0</ele>
        <time>2020-07-12T08:08:37Z</time>
      </trkpt>
      <trkpt lat="48.361042" lon="7.667516">
        <ele>205.0</ele>
        <time>2020-07-12T08:08:39Z</time>
      </trkpt>
      <trkpt lat="48.361003" lon="7.667649">
        <ele>205.0</ele>
        <time>2020-07-12T08:08:41Z</time>
      </trkpt>
      <trkpt lat="48.36097" lon="7.66778">
        <ele>205.0</ele>
        <time>2020-07-12T08:08:43Z</time>
      </trkpt>
      <trkpt lat="48.360936" lon="7.667917">
        <ele>205.0</ele>
        <time>2020-07-12T08:08:45Z</time>
      </trkpt>
      <trkpt lat="48.360899" lon="7.668059">
        <ele>205.0</ele>
        <time>2020-07-12T08:08:47Z</time>
      </trkpt>
      <trkpt lat="48.360846" lon="7.668278">
        <ele>205.0</ele>
        <time>2020-07-12T08:08:50Z</time>
      </trkpt>
      <trkpt lat="48.36081" lon="7.668422">
        <ele>205.0</ele>
        <time>2020-07-12T08:08:52Z</time>
      </trkpt>
      <trkpt lat="48.360777" lon="7.668572">
        <ele>204.0</ele>
        <time>2020-07-12T08:08:54Z</time>
      </trkpt>
      <trkpt lat="48.360742" lon="7.668729">
        <ele>204.0</ele>
        <time>2020-07-12T08:08:56Z</time>
      </trkpt>
      <trkpt lat="48.360699" lon="7.668875">
        <ele>203.0</ele>
        <time>2020-07-12T08:08:58Z</time>
      </trkpt>
      <trkpt lat="48.360661" lon="7.669024">
        <ele>203.0</ele>
        <time>2020-07-12T08:09:00Z</time>
      </trkpt>
      <trkpt lat="48.360628" lon="7.669175">
        <ele>203.0</ele>
        <time>2020-07-12T08:09:02Z</time>
      </trkpt>
      <trkpt lat="48.360597" lon="7.669309">
        <ele>204.0</ele>
        <time>2020-07-12T08:09:04Z</time>
      </trkpt>
      <trkpt lat="48.360562" lon="7.66945">
        <ele>204.0</ele>
        <time>2020-07-12T08:09:06Z</time>
      </trkpt>
      <trkpt lat="48.360525" lon="7.669588">
        <ele>204.0</ele>
        <time>2020-07-12T08:09:08Z</time>
      </trkpt>
      <trkpt lat="48.36049" lon="7.669739">
        <ele>204.0</ele>
        <time>2020-07-12T08:09:10Z</time>
      </trkpt>
      <trkpt lat="48.360448" lon="7.669885">
        <ele>204.0</ele>
        <time>2020-07-12T08:09:12Z</time>
      </trkpt>
      <trkpt lat="48.360409" lon="7.670029">
        <ele>204.0</ele>
        <time>2020-07-12T08:09:14Z</time>
      </trkpt>
      <trkpt lat="48.360371" lon="7.670167">
        <ele>204.0</ele>
        <time>2020-07-12T08:09:16Z</time>
      </trkpt>
      <trkpt lat="48.360334" lon="7.670307">
        <ele>204.0</ele>
        <time>2020-07-12T08:09:18Z</time>
      </trkpt>
      <trkpt lat="48.360304" lon="7.670468">
        <ele>204.0</ele>
        <time>2020-07-12T08:09:20Z</time>
      </trkpt>
      <trkpt lat="48.360264" lon="7.670599">
        <ele>204.0</ele>
        <time>2020-07-12T08:09:22Z</time>
      </trkpt>
      <trkpt lat="48.360221" lon="7.670741">
        <ele>204.0</ele>
        <time>2020-07-12T08:09:24Z</time>
      </trkpt>
      <trkpt lat="48.360186" lon="7.670894">
        <ele>204.0</ele>
        <time>2020-07-12T08:09:26Z</time>
      </trkpt>
      <trkpt lat="48.360148" lon="7.671038">
        <ele>204.0</ele>
        <time>2020-07-12T08:09:28Z</time>
      </trkpt>
      <trkpt lat="48.360109" lon="7.671179">
        <ele>204.0</ele>
        <time>2020-07-12T08:09:30Z</time>
      </trkpt>
      <trkpt lat="48.360074" lon="7.671324">
        <ele>204.0</ele>
        <time>2020-07-12T08:09:32Z</time>
      </trkpt>
      <trkpt lat="48.360038" lon="7.671468">
        <ele>204.0</ele>
        <time>2020-07-12T08:09:34Z</time>
      </trkpt>
      <trkpt lat="48.359993" lon="7.671609">
        <ele>204.0</ele>
        <time>2020-07-12T08:09:36Z</time>
      </trkpt>
      <trkpt lat="48.359953" lon="7.671746">
        <ele>204.0</ele>
        <time>2020-07-12T08:09:38Z</time>
      </trkpt>
      <trkpt lat="48.35992" lon="7.671875">
        <ele>204.0</ele>
        <time>2020-07-12T08:09:40Z</time>
      </trkpt>
      <trkpt lat="48.35988" lon="7.67199">
        <ele>204.0</ele>
        <time>2020-07-12T08:09:42Z</time>
      </trkpt>
      <trkpt lat="48.359837" lon="7.67208">
        <ele>204.0</ele>
        <time>2020-07-12T08:09:44Z</time>
      </trkpt>
      <trkpt lat="48.359786" lon="7.672181">
        <ele>205.0</ele>
        <time>2020-07-12T08:09:46Z</time>
      </trkpt>
      <trkpt lat="48.359744" lon="7.672307">
        <ele>204.0</ele>
        <time>2020-07-12T08:09:48Z</time>
      </trkpt>
      <trkpt lat="48.359706" lon="7.672426">
        <ele>204.0</ele>
        <time>2020-07-12T08:09:50Z</time>
      </trkpt>
      <trkpt lat="48.359664" lon="7.672566">
        <ele>204.0</ele>
        <time>2020-07-12T08:09:52Z</time>
      </trkpt>
      <trkpt lat="48.359624" lon="7.672711">
        <ele>204.0</ele>
        <time>2020-07-12T08:09:54Z</time>
      </trkpt>
      <trkpt lat="48.359579" lon="7.672851">
        <ele>204.0</ele>
        <time>2020-07-12T08:09:56Z</time>
      </trkpt>
      <trkpt lat="48.359534" lon="7.672988">
        <ele>204.0</ele>
        <time>2020-07-12T08:09:58Z</time>
      </trkpt>
      <trkpt lat="48.359493" lon="7.673121">
        <ele>205.0</ele>
        <time>2020-07-12T08:10:00Z</time>
      </trkpt>
      <trkpt lat="48.359452" lon="7.673241">
        <ele>205.0</ele>
        <time>2020-07-12T08:10:02Z</time>
      </trkpt>
      <trkpt lat="48.359424" lon="7.673343">
        <ele>205.0</ele>
        <time>2020-07-12T08:10:04Z</time>
      </trkpt>
      <trkpt lat="48.359388" lon="7.673417">
        <ele>205.0</ele>
        <time>2020-07-12T08:10:06Z</time>
      </trkpt>
      <trkpt lat="48.359336" lon="7.673452">
        <ele>205.0</ele>
        <time>2020-07-12T08:10:08Z</time>
      </trkpt>
      <trkpt lat="48.359278" lon="7.67343">
        <ele>206.0</ele>
        <time>2020-07-12T08:10:10Z</time>
      </trkpt>
      <trkpt lat="48.359199" lon="7.673402">
        <ele>205.0</ele>
        <time>2020-07-12T08:10:12Z</time>
      </trkpt>
      <trkpt lat="48.359113" lon="7.673355">
        <ele>206.0</ele>
        <time>2020-07-12T08:10:14Z</time>
      </trkpt>
      <trkpt lat="48.359021" lon="7.673294">
        <ele>206.0</ele>
        <time>2020-07-12T08:10:16Z</time>
      </trkpt>
      <trkpt lat="48.358921" lon="7.673249">
        <ele>205.0</ele>
        <time>2020-07-12T08:10:18Z</time>
      </trkpt>
      <trkpt lat="48.358816" lon="7.67321">
        <ele>205.0</ele>
        <time>2020-07-12T08:10:20Z</time>
      </trkpt>
      <trkpt lat="48.358715" lon="7.673181">
        <ele>206.0</ele>
        <time>2020-07-12T08:10:22Z</time>
      </trkpt>
      <trkpt lat="48.358606" lon="7.673137">
        <ele>206.0</ele>
        <time>2020-07-12T08:10:24Z</time>
      </trkpt>
      <trkpt lat="48.358496" lon="7.673089">
        <ele>205.0</ele>
        <time>2020-07-12T08:10:26Z</time>
      </trkpt>
      <trkpt lat="48.358394" lon="7.673041">
        <ele>205.0</ele>
        <time>2020-07-12T08:10:28Z</time>
      </trkpt>
      <trkpt lat="48.358283" lon="7.673">
        <ele>205.0</ele>
        <time>2020-07-12T08:10:30Z</time>
      </trkpt>
      <trkpt lat="48.35817" lon="7.672965">
        <ele>204.0</ele>
        <time>2020-07-12T08:10:32Z</time>
      </trkpt>
      <trkpt lat="48.358055" lon="7.672927">
        <ele>203.0</ele>
        <time>2020-07-12T08:10:34Z</time>
      </trkpt>
      <trkpt lat="48.357944" lon="7.672887">
        <ele>204.0</ele>
        <time>2020-07-12T08:10:36Z</time>
      </trkpt>
      <trkpt lat="48.357835" lon="7.672841">
        <ele>203.0</ele>
        <time>2020-07-12T08:10:38Z</time>
      </trkpt>
      <trkpt lat="48.357727" lon="7.672798">
        <ele>202.0</ele>
        <time>2020-07-12T08:10:40Z</time>
      </trkpt>
      <trkpt lat="48.35761" lon="7.672753">
        <ele>202.0</ele>
        <time>2020-07-12T08:10:42Z</time>
      </trkpt>
      <trkpt lat="48.357496" lon="7.672708">
        <ele>202.0</ele>
        <time>2020-07-12T08:10:44Z</time>
      </trkpt>
      <trkpt lat="48.357385" lon="7.672669">
        <ele>202.0</ele>
        <time>2020-07-12T08:10:46Z</time>
      </trkpt>
      <trkpt lat="48.357278" lon="7.672622">
        <ele>202.0</ele>
        <time>2020-07-12T08:10:48Z</time>
      </trkpt>
      <trkpt lat="48.357168" lon="7.672578">
        <ele>203.0</ele>
        <time>2020-07-12T08:10:50Z</time>
      </trkpt>
      <trkpt lat="48.35706" lon="7.672536">
        <ele>202.0</ele>
        <time>2020-07-12T08:10:52Z</time>
      </trkpt>
      <trkpt lat="48.356948" lon="7.672493">
        <ele>203.0</ele>
        <time>2020-07-12T08:10:54Z</time>
      </trkpt>
      <trkpt lat="48.356838" lon="7.672453">
        <ele>203.0</ele>
        <time>2020-07-12T08:10:56Z</time>
      </trkpt>
      <trkpt lat="48.356721" lon="7.672412">
        <ele>202.0</ele>
        <time>2020-07-12T08:10:58Z</time>
      </trkpt>
      <trkpt lat="48.356607" lon="7.672369">
        <ele>202.0</ele>
        <time>2020-07-12T08:11:00Z</time>
      </trkpt>
      <trkpt lat="48.356491" lon="7.672322">
        <ele>202.0</ele>
        <time>2020-07-12T08:11:02Z</time>
      </trkpt>
      <trkpt lat="48.356375" lon="7.672278">
        <ele>203.0</ele>
        <time>2020-07-12T08:11:04Z</time>
      </trkpt>
      <trkpt lat="48.356259" lon="7.672226">
        <ele>203.0</ele>
        <time>2020-07-12T08:11:06Z</time>
      </trkpt>
      <trkpt lat="48.356139" lon="7.672177">
        <ele>203.0</ele>
        <time>2020-07-12T08:11:08Z</time>
      </trkpt>
      <trkpt lat="48.356025" lon="7.672129">
        <ele>202.0</ele>
        <time>2020-07-12T08:11:10Z</time>
      </trkpt>
      <trkpt lat="48.355907" lon="7.672082">
        <ele>202.0</ele>
        <time>2020-07-12T08:11:12Z</time>
      </trkpt>
      <trkpt lat="48.355795" lon="7.672032">
        <ele>202.0</ele>
        <time>2020-07-12T08:11:14Z</time>
      </trkpt>
      <trkpt lat="48.355684" lon="7.671986">
        <ele>201.0</ele>
        <time>2020-07-12T08:11:16Z</time>
      </trkpt>
      <trkpt lat="48.355569" lon="7.67194">
        <ele>201.0</ele>
        <time>2020-07-12T08:11:18Z</time>
      </trkpt>
      <trkpt lat="48.355458" lon="7.671886">
        <ele>201.0</ele>
        <time>2020-07-12T08:11:20Z</time>
      </trkpt>
      <trkpt lat="48.355345" lon="7.671844">
        <ele>201.0</ele>
        <time>2020-07-12T08:11:22Z</time>
      </trkpt>
      <trkpt lat="48.35523" lon="7.671809">
        <ele>202.0</ele>
        <time>2020-07-12T08:11:24Z</time>
      </trkpt>
      <trkpt lat="48.355117" lon="7.671771">
        <ele>202.0</ele>
        <time>2020-07-12T08:11:26Z</time>
      </trkpt>
      <trkpt lat="48.355" lon="7.671732">
        <ele>202.0</ele>
        <time>2020-07-12T08:11:28Z</time>
      </trkpt>
      <trkpt lat="48.354888" lon="7.671692">
        <ele>203.0</ele>
        <time>2020-07-12T08:11:30Z</time>
      </trkpt>
      <trkpt lat="48.354776" lon="7.671651">
        <ele>203.0</ele>
        <time>2020-07-12T08:11:32Z</time>
      </trkpt>
      <trkpt lat="48.354655" lon="7.671605">
        <ele>203.0</ele>
        <time>2020-07-12T08:11:34Z</time>
      </trkpt>
      <trkpt lat="48.354537" lon="7.671553">
        <ele>202.0</ele>
        <time>2020-07-12T08:11:36Z</time>
      </trkpt>
      <trkpt lat="48.354416" lon="7.671503">
        <ele>202.0</ele>
        <time>2020-07-12T08:11:38Z</time>
      </trkpt>
      <trkpt lat="48.354299" lon="7.671459">
        <ele>202.0</ele>
        <time>2020-07-12T08:11:40Z</time>
      </trkpt>
      <trkpt lat="48.354183" lon="7.671408">
        <ele>202.0</ele>
        <time>2020-07-12T08:11:42Z</time>
      </trkpt>
      <trkpt lat="48.354068" lon="7.671363">
        <ele>202.0</ele>
        <time>2020-07-12T08:11:44Z</time>
      </trkpt>
      <trkpt lat="48.35395" lon="7.671324">
        <ele>202.0</ele>
        <time>2020-07-12T08:11:46Z</time>
      </trkpt>
      <trkpt lat="48.353892" lon="7.671301">
        <ele>202.0</ele>
        <time>2020-07-12T08:11:47Z</time>
      </trkpt>
      <trkpt lat="48.353718" lon="7.671233">
        <ele>203.0</ele>
        <time>2020-07-12T08:11:50Z</time>
      </trkpt>
      <trkpt lat="48.353607" lon="7.671189">
        <ele>203.0</ele>
        <time>2020-07-12T08:11:52Z</time>
      </trkpt>
      <trkpt lat="48.353493" lon="7.671146">
        <ele>204.0</ele>
        <time>2020-07-12T08:11:54Z</time>
      </trkpt>
      <trkpt lat="48.353382" lon="7.671099">
        <ele>204.0</ele>
        <time>2020-07-12T08:11:56Z</time>
      </trkpt>
      <trkpt lat="48.353269" lon="7.671056">
        <ele>204.0</ele>
        <time>2020-07-12T08:11:58Z</time>
      </trkpt>
      <trkpt lat="48.353151" lon="7.671015">
        <ele>204.0</ele>
        <time>2020-07-12T08:12:00Z</time>
      </trkpt>
      <trkpt lat="48.35297" lon="7.670952">
        <ele>204.0</ele>
        <time>2020-07-12T08:12:03Z</time>
      </trkpt>
      <trkpt lat="48.352857" lon="7.670907">
        <ele>203.0</ele>
        <time>2020-07-12T08:12:05Z</time>
      </trkpt>
      <trkpt lat="48.352744" lon="7.670868">
        <ele>203.0</ele>
        <time>2020-07-12T08:12:07Z</time>
      </trkpt>
      <trkpt lat="48.352625" lon="7.670823">
        <ele>203.0</ele>
        <time>2020-07-12T08:12:09Z</time>
      </trkpt>
      <trkpt lat="48.352514" lon="7.670777">
        <ele>203.0</ele>
        <time>2020-07-12T08:12:11Z</time>
      </trkpt>
      <trkpt lat="48.352401" lon="7.670729">
        <ele>203.0</ele>
        <time>2020-07-12T08:12:13Z</time>
      </trkpt>
      <trkpt lat="48.352285" lon="7.670678">
        <ele>203.0</ele>
        <time>2020-07-12T08:12:15Z</time>
      </trkpt>
      <trkpt lat="48.352169" lon="7.670634">
        <ele>203.0</ele>
        <time>2020-07-12T08:12:17Z</time>
      </trkpt>
      <trkpt lat="48.352052" lon="7.670596">
        <ele>203.0</ele>
        <time>2020-07-12T08:12:19Z</time>
      </trkpt>
      <trkpt lat="48.351938" lon="7.67056">
        <ele>203.0</ele>
        <time>2020-07-12T08:12:21Z</time>
      </trkpt>
      <trkpt lat="48.351824" lon="7.670516">
        <ele>203.0</ele>
        <time>2020-07-12T08:12:23Z</time>
      </trkpt>
      <trkpt lat="48.351705" lon="7.670479">
        <ele>203.0</ele>
        <time>2020-07-12T08:12:25Z</time>
      </trkpt>
      <trkpt lat="48.351593" lon="7.670435">
        <ele>203.0</ele>
        <time>2020-07-12T08:12:27Z</time>
      </trkpt>
      <trkpt lat="48.351475" lon="7.670394">
        <ele>203.0</ele>
        <time>2020-07-12T08:12:29Z</time>
      </trkpt>
      <trkpt lat="48.351361" lon="7.670354">
        <ele>204.0</ele>
        <time>2020-07-12T08:12:31Z</time>
      </trkpt>
      <trkpt lat="48.351243" lon="7.670305">
        <ele>204.0</ele>
        <time>2020-07-12T08:12:33Z</time>
      </trkpt>
      <trkpt lat="48.351118" lon="7.670255">
        <ele>204.0</ele>
        <time>2020-07-12T08:12:35Z</time>
      </trkpt>
      <trkpt lat="48.350999" lon="7.670213">
        <ele>204.0</ele>
        <time>2020-07-12T08:12:37Z</time>
      </trkpt>
      <trkpt lat="48.350879" lon="7.670171">
        <ele>204.0</ele>
        <time>2020-07-12T08:12:39Z</time>
      </trkpt>
      <trkpt lat="48.350768" lon="7.670132">
        <ele>205.0</ele>
        <time>2020-07-12T08:12:41Z</time>
      </trkpt>
      <trkpt lat="48.350651" lon="7.67008">
        <ele>205.0</ele>
        <time>2020-07-12T08:12:43Z</time>
      </trkpt>
      <trkpt lat="48.350535" lon="7.670037">
        <ele>205.0</ele>
        <time>2020-07-12T08:12:45Z</time>
      </trkpt>
      <trkpt lat="48.350419" lon="7.669988">
        <ele>205.0</ele>
        <time>2020-07-12T08:12:47Z</time>
      </trkpt>
      <trkpt lat="48.3503" lon="7.669948">
        <ele>206.0</ele>
        <time>2020-07-12T08:12:49Z</time>
      </trkpt>
      <trkpt lat="48.350186" lon="7.669899">
        <ele>205.0</ele>
        <time>2020-07-12T08:12:51Z</time>
      </trkpt>
      <trkpt lat="48.350063" lon="7.669843">
        <ele>204.0</ele>
        <time>2020-07-12T08:12:53Z</time>
      </trkpt>
      <trkpt lat="48.349942" lon="7.669791">
        <ele>204.0</ele>
        <time>2020-07-12T08:12:55Z</time>
      </trkpt>
      <trkpt lat="48.349827" lon="7.669744">
        <ele>204.0</ele>
        <time>2020-07-12T08:12:57Z</time>
      </trkpt>
      <trkpt lat="48.349713" lon="7.669706">
        <ele>204.0</ele>
        <time>2020-07-12T08:12:59Z</time>
      </trkpt>
      <trkpt lat="48.349595" lon="7.669662">
        <ele>203.0</ele>
        <time>2020-07-12T08:13:01Z</time>
      </trkpt>
      <trkpt lat="48.349481" lon="7.669623">
        <ele>204.0</ele>
        <time>2020-07-12T08:13:03Z</time>
      </trkpt>
      <trkpt lat="48.349363" lon="7.669581">
        <ele>203.0</ele>
        <time>2020-07-12T08:13:05Z</time>
      </trkpt>
      <trkpt lat="48.349246" lon="7.669527">
        <ele>203.0</ele>
        <time>2020-07-12T08:13:07Z</time>
      </trkpt>
      <trkpt lat="48.349127" lon="7.669475">
        <ele>203.0</ele>
        <time>2020-07-12T08:13:09Z</time>
      </trkpt>
      <trkpt lat="48.349013" lon="7.669427">
        <ele>204.0</ele>
        <time>2020-07-12T08:13:11Z</time>
      </trkpt>
      <trkpt lat="48.348906" lon="7.669383">
        <ele>204.0</ele>
        <time>2020-07-12T08:13:13Z</time>
      </trkpt>
      <trkpt lat="48.348793" lon="7.66934">
        <ele>204.0</ele>
        <time>2020-07-12T08:13:15Z</time>
      </trkpt>
      <trkpt lat="48.34868" lon="7.669295">
        <ele>205.0</ele>
        <time>2020-07-12T08:13:17Z</time>
      </trkpt>
      <trkpt lat="48.348568" lon="7.669258">
        <ele>205.0</ele>
        <time>2020-07-12T08:13:19Z</time>
      </trkpt>
      <trkpt lat="48.34845" lon="7.669217">
        <ele>206.0</ele>
        <time>2020-07-12T08:13:21Z</time>
      </trkpt>
      <trkpt lat="48.34834" lon="7.669176">
        <ele>205.0</ele>
        <time>2020-07-12T08:13:23Z</time>
      </trkpt>
      <trkpt lat="48.348227" lon="7.669129">
        <ele>205.0</ele>
        <time>2020-07-12T08:13:25Z</time>
      </trkpt>
      <trkpt lat="48.348113" lon="7.669085">
        <ele>205.0</ele>
        <time>2020-07-12T08:13:27Z</time>
      </trkpt>
      <trkpt lat="48.347995" lon="7.669046">
        <ele>205.0</ele>
        <time>2020-07-12T08:13:29Z</time>
      </trkpt>
      <trkpt lat="48.347879" lon="7.669004">
        <ele>205.0</ele>
        <time>2020-07-12T08:13:31Z</time>
      </trkpt>
      <trkpt lat="48.347766" lon="7.668961">
        <ele>205.0</ele>
        <time>2020-07-12T08:13:33Z</time>
      </trkpt>
      <trkpt lat="48.347653" lon="7.66892">
        <ele>205.0</ele>
        <time>2020-07-12T08:13:35Z</time>
      </trkpt>
      <trkpt lat="48.347538" lon="7.668872">
        <ele>205.0</ele>
        <time>2020-07-12T08:13:37Z</time>
      </trkpt>
      <trkpt lat="48.347421" lon="7.668823">
        <ele>205.0</ele>
        <time>2020-07-12T08:13:39Z</time>
      </trkpt>
      <trkpt lat="48.347308" lon="7.668778">
        <ele>205.0</ele>
        <time>2020-07-12T08:13:41Z</time>
      </trkpt>
      <trkpt lat="48.347192" lon="7.66874">
        <ele>206.0</ele>
        <time>2020-07-12T08:13:43Z</time>
      </trkpt>
      <trkpt lat="48.347076" lon="7.668695">
        <ele>206.0</ele>
        <time>2020-07-12T08:13:45Z</time>
      </trkpt>
      <trkpt lat="48.346961" lon="7.668654">
        <ele>206.0</ele>
        <time>2020-07-12T08:13:47Z</time>
      </trkpt>
      <trkpt lat="48.346849" lon="7.668604">
        <ele>205.0</ele>
        <time>2020-07-12T08:13:49Z</time>
      </trkpt>
      <trkpt lat="48.346732" lon="7.668554">
        <ele>205.0</ele>
        <time>2020-07-12T08:13:51Z</time>
      </trkpt>
      <trkpt lat="48.346613" lon="7.668511">
        <ele>205.0</ele>
        <time>2020-07-12T08:13:53Z</time>
      </trkpt>
      <trkpt lat="48.346495" lon="7.668468">
        <ele>205.0</ele>
        <time>2020-07-12T08:13:55Z</time>
      </trkpt>
      <trkpt lat="48.34638" lon="7.668425">
        <ele>205.0</ele>
        <time>2020-07-12T08:13:57Z</time>
      </trkpt>
      <trkpt lat="48.346267" lon="7.668386">
        <ele>205.0</ele>
        <time>2020-07-12T08:13:59Z</time>
      </trkpt>
      <trkpt lat="48.346156" lon="7.668341">
        <ele>205.0</ele>
        <time>2020-07-12T08:14:01Z</time>
      </trkpt>
      <trkpt lat="48.346038" lon="7.668298">
        <ele>204.0</ele>
        <time>2020-07-12T08:14:03Z</time>
      </trkpt>
      <trkpt lat="48.34592" lon="7.668249">
        <ele>205.0</ele>
        <time>2020-07-12T08:14:05Z</time>
      </trkpt>
      <trkpt lat="48.345804" lon="7.668211">
        <ele>205.0</ele>
        <time>2020-07-12T08:14:07Z</time>
      </trkpt>
      <trkpt lat="48.34569" lon="7.668173">
        <ele>205.0</ele>
        <time>2020-07-12T08:14:09Z</time>
      </trkpt>
      <trkpt lat="48.345576" lon="7.668121">
        <ele>205.0</ele>
        <time>2020-07-12T08:14:11Z</time>
      </trkpt>
      <trkpt lat="48.345458" lon="7.668081">
        <ele>205.0</ele>
        <time>2020-07-12T08:14:13Z</time>
      </trkpt>
      <trkpt lat="48.345342" lon="7.668039">
        <ele>205.0</ele>
        <time>2020-07-12T08:14:15Z</time>
      </trkpt>
      <trkpt lat="48.345226" lon="7.668">
        <ele>205.0</ele>
        <time>2020-07-12T08:14:17Z</time>
      </trkpt>
      <trkpt lat="48.345113" lon="7.667957">
        <ele>205.0</ele>
        <time>2020-07-12T08:14:19Z</time>
      </trkpt>
      <trkpt lat="48.344996" lon="7.667903">
        <ele>205.0</ele>
        <time>2020-07-12T08:14:21Z</time>
      </trkpt>
      <trkpt lat="48.344881" lon="7.667853">
        <ele>205.0</ele>
        <time>2020-07-12T08:14:23Z</time>
      </trkpt>
      <trkpt lat="48.344767" lon="7.667816">
        <ele>205.0</ele>
        <time>2020-07-12T08:14:25Z</time>
      </trkpt>
      <trkpt lat="48.344651" lon="7.667773">
        <ele>204.0</ele>
        <time>2020-07-12T08:14:27Z</time>
      </trkpt>
      <trkpt lat="48.344537" lon="7.667728">
        <ele>204.0</ele>
        <time>2020-07-12T08:14:29Z</time>
      </trkpt>
      <trkpt lat="48.344415" lon="7.667673">
        <ele>203.0</ele>
        <time>2020-07-12T08:14:31Z</time>
      </trkpt>
      <trkpt lat="48.344294" lon="7.667631">
        <ele>204.0</ele>
        <time>2020-07-12T08:14:33Z</time>
      </trkpt>
      <trkpt lat="48.344171" lon="7.667595">
        <ele>204.0</ele>
        <time>2020-07-12T08:14:35Z</time>
      </trkpt>
      <trkpt lat="48.344044" lon="7.667548">
        <ele>204.0</ele>
        <time>2020-07-12T08:14:37Z</time>
      </trkpt>
      <trkpt lat="48.343927" lon="7.667492">
        <ele>204.0</ele>
        <time>2020-07-12T08:14:39Z</time>
      </trkpt>
      <trkpt lat="48.34381" lon="7.667441">
        <ele>204.0</ele>
        <time>2020-07-12T08:14:41Z</time>
      </trkpt>
      <trkpt lat="48.3437" lon="7.667393">
        <ele>203.0</ele>
        <time>2020-07-12T08:14:43Z</time>
      </trkpt>
      <trkpt lat="48.343578" lon="7.667357">
        <ele>203.0</ele>
        <time>2020-07-12T08:14:45Z</time>
      </trkpt>
      <trkpt lat="48.343462" lon="7.66731">
        <ele>204.0</ele>
        <time>2020-07-12T08:14:47Z</time>
      </trkpt>
      <trkpt lat="48.343341" lon="7.66726">
        <ele>203.0</ele>
        <time>2020-07-12T08:14:49Z</time>
      </trkpt>
      <trkpt lat="48.343225" lon="7.667206">
        <ele>203.0</ele>
        <time>2020-07-12T08:14:51Z</time>
      </trkpt>
      <trkpt lat="48.343107" lon="7.667158">
        <ele>203.0</ele>
        <time>2020-07-12T08:14:53Z</time>
      </trkpt>
      <trkpt lat="48.342985" lon="7.667107">
        <ele>203.0</ele>
        <time>2020-07-12T08:14:55Z</time>
      </trkpt>
      <trkpt lat="48.342871" lon="7.667069">
        <ele>203.0</ele>
        <time>2020-07-12T08:14:57Z</time>
      </trkpt>
      <trkpt lat="48.342749" lon="7.667038">
        <ele>202.0</ele>
        <time>2020-07-12T08:14:59Z</time>
      </trkpt>
      <trkpt lat="48.342632" lon="7.666997">
        <ele>203.0</ele>
        <time>2020-07-12T08:15:01Z</time>
      </trkpt>
      <trkpt lat="48.342512" lon="7.666947">
        <ele>202.0</ele>
        <time>2020-07-12T08:15:03Z</time>
      </trkpt>
      <trkpt lat="48.342393" lon="7.666894">
        <ele>203.0</ele>
        <time>2020-07-12T08:15:05Z</time>
      </trkpt>
      <trkpt lat="48.342276" lon="7.666851">
        <ele>204.0</ele>
        <time>2020-07-12T08:15:07Z</time>
      </trkpt>
      <trkpt lat="48.342161" lon="7.666802">
        <ele>204.0</ele>
        <time>2020-07-12T08:15:09Z</time>
      </trkpt>
      <trkpt lat="48.342042" lon="7.666748">
        <ele>205.0</ele>
        <time>2020-07-12T08:15:11Z</time>
      </trkpt>
      <trkpt lat="48.341874" lon="7.666675">
        <ele>206.0</ele>
        <time>2020-07-12T08:15:14Z</time>
      </trkpt>
      <trkpt lat="48.341762" lon="7.666634">
        <ele>206.0</ele>
        <time>2020-07-12T08:15:16Z</time>
      </trkpt>
      <trkpt lat="48.341648" lon="7.666596">
        <ele>206.0</ele>
        <time>2020-07-12T08:15:18Z</time>
      </trkpt>
      <trkpt lat="48.34153" lon="7.666547">
        <ele>206.0</ele>
        <time>2020-07-12T08:15:20Z</time>
      </trkpt>
      <trkpt lat="48.341418" lon="7.666504">
        <ele>207.0</ele>
        <time>2020-07-12T08:15:22Z</time>
      </trkpt>
      <trkpt lat="48.341299" lon="7.666455">
        <ele>207.0</ele>
        <time>2020-07-12T08:15:24Z</time>
      </trkpt>
      <trkpt lat="48.341183" lon="7.666401">
        <ele>206.0</ele>
        <time>2020-07-12T08:15:26Z</time>
      </trkpt>
      <trkpt lat="48.341067" lon="7.666359">
        <ele>206.0</ele>
        <time>2020-07-12T08:15:28Z</time>
      </trkpt>
      <trkpt lat="48.34095" lon="7.666309">
        <ele>207.0</ele>
        <time>2020-07-12T08:15:30Z</time>
      </trkpt>
      <trkpt lat="48.340826" lon="7.666255">
        <ele>207.0</ele>
        <time>2020-07-12T08:15:32Z</time>
      </trkpt>
      <trkpt lat="48.340709" lon="7.666196">
        <ele>207.0</ele>
        <time>2020-07-12T08:15:34Z</time>
      </trkpt>
      <trkpt lat="48.340587" lon="7.666131">
        <ele>207.0</ele>
        <time>2020-07-12T08:15:36Z</time>
      </trkpt>
      <trkpt lat="48.340465" lon="7.666066">
        <ele>207.0</ele>
        <time>2020-07-12T08:15:38Z</time>
      </trkpt>
      <trkpt lat="48.340345" lon="7.666001">
        <ele>208.0</ele>
        <time>2020-07-12T08:15:40Z</time>
      </trkpt>
      <trkpt lat="48.340232" lon="7.665926">
        <ele>208.0</ele>
        <time>2020-07-12T08:15:42Z</time>
      </trkpt>
      <trkpt lat="48.340121" lon="7.66585">
        <ele>208.0</ele>
        <time>2020-07-12T08:15:44Z</time>
      </trkpt>
      <trkpt lat="48.340011" lon="7.665774">
        <ele>207.0</ele>
        <time>2020-07-12T08:15:46Z</time>
      </trkpt>
      <trkpt lat="48.3399" lon="7.665688">
        <ele>207.0</ele>
        <time>2020-07-12T08:15:48Z</time>
      </trkpt>
      <trkpt lat="48.339787" lon="7.665605">
        <ele>207.0</ele>
        <time>2020-07-12T08:15:50Z</time>
      </trkpt>
      <trkpt lat="48.339672" lon="7.665517">
        <ele>208.0</ele>
        <time>2020-07-12T08:15:52Z</time>
      </trkpt>
      <trkpt lat="48.339556" lon="7.665435">
        <ele>207.0</ele>
        <time>2020-07-12T08:15:54Z</time>
      </trkpt>
      <trkpt lat="48.339442" lon="7.665349">
        <ele>207.0</ele>
        <time>2020-07-12T08:15:56Z</time>
      </trkpt>
      <trkpt lat="48.339331" lon="7.665259">
        <ele>207.0</ele>
        <time>2020-07-12T08:15:58Z</time>
      </trkpt>
      <trkpt lat="48.339219" lon="7.66517">
        <ele>207.0</ele>
        <time>2020-07-12T08:16:00Z</time>
      </trkpt>
      <trkpt lat="48.339105" lon="7.665085">
        <ele>208.0</ele>
        <time>2020-07-12T08:16:02Z</time>
      </trkpt>
      <trkpt lat="48.338998" lon="7.664998">
        <ele>208.0</ele>
        <time>2020-07-12T08:16:04Z</time>
      </trkpt>
      <trkpt lat="48.338888" lon="7.66491">
        <ele>208.0</ele>
        <time>2020-07-12T08:16:06Z</time>
      </trkpt>
      <trkpt lat="48.338776" lon="7.664818">
        <ele>207.0</ele>
        <time>2020-07-12T08:16:08Z</time>
      </trkpt>
      <trkpt lat="48.338664" lon="7.664723">
        <ele>207.0</ele>
        <time>2020-07-12T08:16:10Z</time>
      </trkpt>
      <trkpt lat="48.338547" lon="7.664637">
        <ele>208.0</ele>
        <time>2020-07-12T08:16:12Z</time>
      </trkpt>
      <trkpt lat="48.338437" lon="7.664535">
        <ele>208.0</ele>
        <time>2020-07-12T08:16:14Z</time>
      </trkpt>
      <trkpt lat="48.33833" lon="7.664451">
        <ele>208.0</ele>
        <time>2020-07-12T08:16:16Z</time>
      </trkpt>
      <trkpt lat="48.338225" lon="7.664373">
        <ele>208.0</ele>
        <time>2020-07-12T08:16:18Z</time>
      </trkpt>
      <trkpt lat="48.338117" lon="7.664295">
        <ele>208.0</ele>
        <time>2020-07-12T08:16:20Z</time>
      </trkpt>
      <trkpt lat="48.338009" lon="7.664216">
        <ele>208.0</ele>
        <time>2020-07-12T08:16:22Z</time>
      </trkpt>
      <trkpt lat="48.337902" lon="7.664146">
        <ele>208.0</ele>
        <time>2020-07-12T08:16:24Z</time>
      </trkpt>
      <trkpt lat="48.337799" lon="7.664077">
        <ele>208.0</ele>
        <time>2020-07-12T08:16:26Z</time>
      </trkpt>
      <trkpt lat="48.337701" lon="7.663992">
        <ele>208.0</ele>
        <time>2020-07-12T08:16:28Z</time>
      </trkpt>
      <trkpt lat="48.337621" lon="7.663883">
        <ele>208.0</ele>
        <time>2020-07-12T08:16:30Z</time>
      </trkpt>
      <trkpt lat="48.337559" lon="7.663761">
        <ele>208.0</ele>
        <time>2020-07-12T08:16:32Z</time>
      </trkpt>
      <trkpt lat="48.337513" lon="7.663681">
        <ele>208.0</ele>
        <time>2020-07-12T08:16:34Z</time>
      </trkpt>
      <trkpt lat="48.337491" lon="7.663644">
        <ele>208.0</ele>
        <time>2020-07-12T08:16:36Z</time>
      </trkpt>
      <trkpt lat="48.337469" lon="7.663616">
        <ele>209.0</ele>
        <time>2020-07-12T08:16:38Z</time>
      </trkpt>
      <trkpt lat="48.337433" lon="7.663616">
        <ele>209.0</ele>
        <time>2020-07-12T08:16:40Z</time>
      </trkpt>
      <trkpt lat="48.337399" lon="7.663651">
        <ele>209.0</ele>
        <time>2020-07-12T08:16:42Z</time>
      </trkpt>
      <trkpt lat="48.337371" lon="7.663722">
        <ele>210.0</ele>
        <time>2020-07-12T08:16:44Z</time>
      </trkpt>
      <trkpt lat="48.337345" lon="7.663805">
        <ele>210.0</ele>
        <time>2020-07-12T08:16:46Z</time>
      </trkpt>
      <trkpt lat="48.337316" lon="7.663888">
        <ele>210.0</ele>
        <time>2020-07-12T08:16:48Z</time>
      </trkpt>
      <trkpt lat="48.337289" lon="7.663982">
        <ele>210.0</ele>
        <time>2020-07-12T08:16:50Z</time>
      </trkpt>
      <trkpt lat="48.337264" lon="7.664084">
        <ele>210.0</ele>
        <time>2020-07-12T08:16:52Z</time>
      </trkpt>
      <trkpt lat="48.337235" lon="7.664172">
        <ele>210.0</ele>
        <time>2020-07-12T08:16:54Z</time>
      </trkpt>
      <trkpt lat="48.3372" lon="7.664275">
        <ele>210.0</ele>
        <time>2020-07-12T08:16:56Z</time>
      </trkpt>
      <trkpt lat="48.337175" lon="7.664387">
        <ele>210.0</ele>
        <time>2020-07-12T08:16:58Z</time>
      </trkpt>
      <trkpt lat="48.337136" lon="7.664512">
        <ele>209.0</ele>
        <time>2020-07-12T08:17:00Z</time>
      </trkpt>
      <trkpt lat="48.337077" lon="7.664638">
        <ele>209.0</ele>
        <time>2020-07-12T08:17:02Z</time>
      </trkpt>
      <trkpt lat="48.337016" lon="7.664747">
        <ele>208.0</ele>
        <time>2020-07-12T08:17:04Z</time>
      </trkpt>
      <trkpt lat="48.336946" lon="7.664877">
        <ele>207.0</ele>
        <time>2020-07-12T08:17:06Z</time>
      </trkpt>
      <trkpt lat="48.336868" lon="7.665023">
        <ele>207.0</ele>
        <time>2020-07-12T08:17:08Z</time>
      </trkpt>
      <trkpt lat="48.336784" lon="7.665179">
        <ele>207.0</ele>
        <time>2020-07-12T08:17:10Z</time>
      </trkpt>
      <trkpt lat="48.336701" lon="7.665342">
        <ele>206.0</ele>
        <time>2020-07-12T08:17:12Z</time>
      </trkpt>
      <trkpt lat="48.336616" lon="7.665495">
        <ele>207.0</ele>
        <time>2020-07-12T08:17:14Z</time>
      </trkpt>
      <trkpt lat="48.33654" lon="7.665641">
        <ele>206.0</ele>
        <time>2020-07-12T08:17:16Z</time>
      </trkpt>
      <trkpt lat="48.336468" lon="7.665777">
        <ele>207.0</ele>
        <time>2020-07-12T08:17:18Z</time>
      </trkpt>
      <trkpt lat="48.336405" lon="7.665932">
        <ele>207.0</ele>
        <time>2020-07-12T08:17:20Z</time>
      </trkpt>
      <trkpt lat="48.336332" lon="7.666096">
        <ele>207.0</ele>
        <time>2020-07-12T08:17:22Z</time>
      </trkpt>
      <trkpt lat="48.336266" lon="7.666248">
        <ele>207.0</ele>
        <time>2020-07-12T08:17:24Z</time>
      </trkpt>
      <trkpt lat="48.336199" lon="7.666405">
        <ele>206.0</ele>
        <time>2020-07-12T08:17:26Z</time>
      </trkpt>
      <trkpt lat="48.336129" lon="7.666562">
        <ele>206.0</ele>
        <time>2020-07-12T08:17:28Z</time>
      </trkpt>
      <trkpt lat="48.33606" lon="7.666722">
        <ele>206.0</ele>
        <time>2020-07-12T08:17:30Z</time>
      </trkpt>
      <trkpt lat="48.33599" lon="7.666867">
        <ele>206.0</ele>
        <time>2020-07-12T08:17:32Z</time>
      </trkpt>
      <trkpt lat="48.335922" lon="7.667015">
        <ele>206.0</ele>
        <time>2020-07-12T08:17:34Z</time>
      </trkpt>
      <trkpt lat="48.335855" lon="7.667168">
        <ele>206.0</ele>
        <time>2020-07-12T08:17:36Z</time>
      </trkpt>
      <trkpt lat="48.335793" lon="7.667312">
        <ele>206.0</ele>
        <time>2020-07-12T08:17:38Z</time>
      </trkpt>
      <trkpt lat="48.335726" lon="7.667462">
        <ele>205.0</ele>
        <time>2020-07-12T08:17:40Z</time>
      </trkpt>
      <trkpt lat="48.335654" lon="7.667608">
        <ele>206.0</ele>
        <time>2020-07-12T08:17:42Z</time>
      </trkpt>
      <trkpt lat="48.335598" lon="7.667756">
        <ele>206.0</ele>
        <time>2020-07-12T08:17:44Z</time>
      </trkpt>
      <trkpt lat="48.335537" lon="7.667901">
        <ele>206.0</ele>
        <time>2020-07-12T08:17:46Z</time>
      </trkpt>
      <trkpt lat="48.335473" lon="7.668034">
        <ele>206.0</ele>
        <time>2020-07-12T08:17:48Z</time>
      </trkpt>
      <trkpt lat="48.335414" lon="7.668162">
        <ele>206.0</ele>
        <time>2020-07-12T08:17:50Z</time>
      </trkpt>
      <trkpt lat="48.335349" lon="7.668301">
        <ele>206.0</ele>
        <time>2020-07-12T08:17:52Z</time>
      </trkpt>
      <trkpt lat="48.33528" lon="7.668433">
        <ele>205.0</ele>
        <time>2020-07-12T08:17:54Z</time>
      </trkpt>
      <trkpt lat="48.335217" lon="7.668578">
        <ele>205.0</ele>
        <time>2020-07-12T08:17:56Z</time>
      </trkpt>
      <trkpt lat="48.335148" lon="7.668725">
        <ele>205.0</ele>
        <time>2020-07-12T08:17:58Z</time>
      </trkpt>
      <trkpt lat="48.335081" lon="7.668865">
        <ele>205.0</ele>
        <time>2020-07-12T08:18:00Z</time>
      </trkpt>
      <trkpt lat="48.33501" lon="7.669005">
        <ele>206.0</ele>
        <time>2020-07-12T08:18:02Z</time>
      </trkpt>
      <trkpt lat="48.334938" lon="7.669159">
        <ele>206.0</ele>
        <time>2020-07-12T08:18:04Z</time>
      </trkpt>
      <trkpt lat="48.334868" lon="7.669314">
        <ele>206.0</ele>
        <time>2020-07-12T08:18:06Z</time>
      </trkpt>
      <trkpt lat="48.334798" lon="7.669463">
        <ele>206.0</ele>
        <time>2020-07-12T08:18:08Z</time>
      </trkpt>
      <trkpt lat="48.334725" lon="7.669608">
        <ele>205.0</ele>
        <time>2020-07-12T08:18:10Z</time>
      </trkpt>
      <trkpt lat="48.334652" lon="7.669756">
        <ele>206.0</ele>
        <time>2020-07-12T08:18:12Z</time>
      </trkpt>
      <trkpt lat="48.334578" lon="7.669902">
        <ele>206.0</ele>
        <time>2020-07-12T08:18:14Z</time>
      </trkpt>
      <trkpt lat="48.3345" lon="7.670046">
        <ele>206.0</ele>
        <time>2020-07-12T08:18:16Z</time>
      </trkpt>
      <trkpt lat="48.334431" lon="7.670183">
        <ele>205.0</ele>
        <time>2020-07-12T08:18:18Z</time>
      </trkpt>
      <trkpt lat="48.334363" lon="7.67031">
        <ele>206.0</ele>
        <time>2020-07-12T08:18:20Z</time>
      </trkpt>
      <trkpt lat="48.334298" lon="7.670436">
        <ele>206.0</ele>
        <time>2020-07-12T08:18:22Z</time>
      </trkpt>
      <trkpt lat="48.33423" lon="7.670564">
        <ele>206.0</ele>
        <time>2020-07-12T08:18:24Z</time>
      </trkpt>
      <trkpt lat="48.334122" lon="7.670759">
        <ele>206.0</ele>
        <time>2020-07-12T08:18:27Z</time>
      </trkpt>
      <trkpt lat="48.334051" lon="7.670897">
        <ele>206.0</ele>
        <time>2020-07-12T08:18:29Z</time>
      </trkpt>
      <trkpt lat="48.333982" lon="7.67103">
        <ele>206.0</ele>
        <time>2020-07-12T08:18:31Z</time>
      </trkpt>
      <trkpt lat="48.333918" lon="7.671166">
        <ele>206.0</ele>
        <time>2020-07-12T08:18:33Z</time>
      </trkpt>
      <trkpt lat="48.333848" lon="7.671296">
        <ele>206.0</ele>
        <time>2020-07-12T08:18:35Z</time>
      </trkpt>
      <trkpt lat="48.333815" lon="7.671354">
        <ele>206.0</ele>
        <time>2020-07-12T08:18:36Z</time>
      </trkpt>
      <trkpt lat="48.333717" lon="7.67154">
        <ele>206.0</ele>
        <time>2020-07-12T08:18:39Z</time>
      </trkpt>
      <trkpt lat="48.333652" lon="7.671661">
        <ele>207.0</ele>
        <time>2020-07-12T08:18:41Z</time>
      </trkpt>
      <trkpt lat="48.333592" lon="7.671787">
        <ele>207.0</ele>
        <time>2020-07-12T08:18:43Z</time>
      </trkpt>
      <trkpt lat="48.333527" lon="7.67191">
        <ele>207.0</ele>
        <time>2020-07-12T08:18:45Z</time>
      </trkpt>
      <trkpt lat="48.333454" lon="7.672029">
        <ele>207.0</ele>
        <time>2020-07-12T08:18:47Z</time>
      </trkpt>
      <trkpt lat="48.333376" lon="7.672133">
        <ele>207.0</ele>
        <time>2020-07-12T08:18:49Z</time>
      </trkpt>
      <trkpt lat="48.333304" lon="7.672238">
        <ele>207.0</ele>
        <time>2020-07-12T08:18:51Z</time>
      </trkpt>
      <trkpt lat="48.333216" lon="7.672337">
        <ele>207.0</ele>
        <time>2020-07-12T08:18:53Z</time>
      </trkpt>
      <trkpt lat="48.333145" lon="7.672436">
        <ele>207.0</ele>
        <time>2020-07-12T08:18:55Z</time>
      </trkpt>
      <trkpt lat="48.333082" lon="7.672567">
        <ele>207.0</ele>
        <time>2020-07-12T08:18:57Z</time>
      </trkpt>
      <trkpt lat="48.333005" lon="7.67271">
        <ele>207.0</ele>
        <time>2020-07-12T08:18:59Z</time>
      </trkpt>
      <trkpt lat="48.332928" lon="7.672844">
        <ele>207.0</ele>
        <time>2020-07-12T08:19:01Z</time>
      </trkpt>
      <trkpt lat="48.332848" lon="7.672974">
        <ele>206.0</ele>
        <time>2020-07-12T08:19:03Z</time>
      </trkpt>
      <trkpt lat="48.332771" lon="7.673111">
        <ele>206.0</ele>
        <time>2020-07-12T08:19:05Z</time>
      </trkpt>
      <trkpt lat="48.3327" lon="7.673252">
        <ele>206.0</ele>
        <time>2020-07-12T08:19:07Z</time>
      </trkpt>
      <trkpt lat="48.33263" lon="7.673392">
        <ele>206.0</ele>
        <time>2020-07-12T08:19:09Z</time>
      </trkpt>
      <trkpt lat="48.332558" lon="7.673537">
        <ele>206.0</ele>
        <time>2020-07-12T08:19:11Z</time>
      </trkpt>
      <trkpt lat="48.332488" lon="7.673691">
        <ele>206.0</ele>
        <time>2020-07-12T08:19:13Z</time>
      </trkpt>
      <trkpt lat="48.332416" lon="7.673833">
        <ele>206.0</ele>
        <time>2020-07-12T08:19:15Z</time>
      </trkpt>
      <trkpt lat="48.332341" lon="7.673973">
        <ele>205.0</ele>
        <time>2020-07-12T08:19:17Z</time>
      </trkpt>
      <trkpt lat="48.332277" lon="7.674119">
        <ele>206.0</ele>
        <time>2020-07-12T08:19:19Z</time>
      </trkpt>
      <trkpt lat="48.332241" lon="7.674289">
        <ele>206.0</ele>
        <time>2020-07-12T08:19:21Z</time>
      </trkpt>
      <trkpt lat="48.332213" lon="7.674475">
        <ele>206.0</ele>
        <time>2020-07-12T08:19:23Z</time>
      </trkpt>
      <trkpt lat="48.332183" lon="7.674655">
        <ele>206.0</ele>
        <time>2020-07-12T08:19:25Z</time>
      </trkpt>
      <trkpt lat="48.332162" lon="7.674831">
        <ele>206.0</ele>
        <time>2020-07-12T08:19:27Z</time>
      </trkpt>
      <trkpt lat="48.332134" lon="7.675015">
        <ele>206.0</ele>
        <time>2020-07-12T08:19:29Z</time>
      </trkpt>
      <trkpt lat="48.332108" lon="7.67519">
        <ele>206.0</ele>
        <time>2020-07-12T08:19:31Z</time>
      </trkpt>
      <trkpt lat="48.332087" lon="7.675346">
        <ele>206.0</ele>
        <time>2020-07-12T08:19:33Z</time>
      </trkpt>
      <trkpt lat="48.332071" lon="7.675498">
        <ele>206.0</ele>
        <time>2020-07-12T08:19:35Z</time>
      </trkpt>
      <trkpt lat="48.332054" lon="7.675648">
        <ele>206.0</ele>
        <time>2020-07-12T08:19:37Z</time>
      </trkpt>
      <trkpt lat="48.332035" lon="7.675802">
        <ele>206.0</ele>
        <time>2020-07-12T08:19:39Z</time>
      </trkpt>
      <trkpt lat="48.332016" lon="7.675962">
        <ele>206.0</ele>
        <time>2020-07-12T08:19:41Z</time>
      </trkpt>
      <trkpt lat="48.332" lon="7.676127">
        <ele>207.0</ele>
        <time>2020-07-12T08:19:43Z</time>
      </trkpt>
      <trkpt lat="48.331983" lon="7.676294">
        <ele>207.0</ele>
        <time>2020-07-12T08:19:45Z</time>
      </trkpt>
      <trkpt lat="48.331966" lon="7.67646">
        <ele>207.0</ele>
        <time>2020-07-12T08:19:47Z</time>
      </trkpt>
      <trkpt lat="48.331942" lon="7.676629">
        <ele>208.0</ele>
        <time>2020-07-12T08:19:49Z</time>
      </trkpt>
      <trkpt lat="48.331918" lon="7.676797">
        <ele>207.0</ele>
        <time>2020-07-12T08:19:51Z</time>
      </trkpt>
      <trkpt lat="48.331894" lon="7.676959">
        <ele>208.0</ele>
        <time>2020-07-12T08:19:53Z</time>
      </trkpt>
      <trkpt lat="48.331871" lon="7.677118">
        <ele>208.0</ele>
        <time>2020-07-12T08:19:55Z</time>
      </trkpt>
      <trkpt lat="48.331852" lon="7.677289">
        <ele>208.0</ele>
        <time>2020-07-12T08:19:57Z</time>
      </trkpt>
      <trkpt lat="48.331829" lon="7.677463">
        <ele>207.0</ele>
        <time>2020-07-12T08:19:59Z</time>
      </trkpt>
      <trkpt lat="48.331804" lon="7.677629">
        <ele>207.0</ele>
        <time>2020-07-12T08:20:01Z</time>
      </trkpt>
      <trkpt lat="48.331785" lon="7.677792">
        <ele>206.0</ele>
        <time>2020-07-12T08:20:03Z</time>
      </trkpt>
      <trkpt lat="48.331767" lon="7.677954">
        <ele>207.0</ele>
        <time>2020-07-12T08:20:05Z</time>
      </trkpt>
      <trkpt lat="48.331751" lon="7.678117">
        <ele>207.0</ele>
        <time>2020-07-12T08:20:07Z</time>
      </trkpt>
      <trkpt lat="48.331732" lon="7.678276">
        <ele>207.0</ele>
        <time>2020-07-12T08:20:09Z</time>
      </trkpt>
      <trkpt lat="48.331713" lon="7.678426">
        <ele>207.0</ele>
        <time>2020-07-12T08:20:11Z</time>
      </trkpt>
      <trkpt lat="48.331707" lon="7.678587">
        <ele>207.0</ele>
        <time>2020-07-12T08:20:13Z</time>
      </trkpt>
      <trkpt lat="48.331722" lon="7.678743">
        <ele>207.0</ele>
        <time>2020-07-12T08:20:15Z</time>
      </trkpt>
      <trkpt lat="48.331743" lon="7.678889">
        <ele>207.0</ele>
        <time>2020-07-12T08:20:17Z</time>
      </trkpt>
      <trkpt lat="48.331767" lon="7.679045">
        <ele>207.0</ele>
        <time>2020-07-12T08:20:19Z</time>
      </trkpt>
      <trkpt lat="48.331798" lon="7.67919">
        <ele>208.0</ele>
        <time>2020-07-12T08:20:21Z</time>
      </trkpt>
      <trkpt lat="48.331828" lon="7.679345">
        <ele>208.0</ele>
        <time>2020-07-12T08:20:23Z</time>
      </trkpt>
      <trkpt lat="48.331856" lon="7.679492">
        <ele>208.0</ele>
        <time>2020-07-12T08:20:25Z</time>
      </trkpt>
      <trkpt lat="48.331881" lon="7.679635">
        <ele>208.0</ele>
        <time>2020-07-12T08:20:27Z</time>
      </trkpt>
      <trkpt lat="48.331917" lon="7.679788">
        <ele>208.0</ele>
        <time>2020-07-12T08:20:29Z</time>
      </trkpt>
      <trkpt lat="48.331947" lon="7.67994">
        <ele>208.0</ele>
        <time>2020-07-12T08:20:31Z</time>
      </trkpt>
      <trkpt lat="48.331977" lon="7.680081">
        <ele>208.0</ele>
        <time>2020-07-12T08:20:33Z</time>
      </trkpt>
      <trkpt lat="48.332023" lon="7.680225">
        <ele>208.0</ele>
        <time>2020-07-12T08:20:35Z</time>
      </trkpt>
      <trkpt lat="48.332085" lon="7.680331">
        <ele>208.0</ele>
        <time>2020-07-12T08:20:37Z</time>
      </trkpt>
      <trkpt lat="48.33215" lon="7.680438">
        <ele>208.0</ele>
        <time>2020-07-12T08:20:39Z</time>
      </trkpt>
      <trkpt lat="48.332216" lon="7.680543">
        <ele>208.0</ele>
        <time>2020-07-12T08:20:41Z</time>
      </trkpt>
      <trkpt lat="48.332255" lon="7.680681">
        <ele>209.0</ele>
        <time>2020-07-12T08:20:43Z</time>
      </trkpt>
      <trkpt lat="48.332262" lon="7.680835">
        <ele>209.0</ele>
        <time>2020-07-12T08:20:45Z</time>
      </trkpt>
      <trkpt lat="48.332252" lon="7.681007">
        <ele>209.0</ele>
        <time>2020-07-12T08:20:47Z</time>
      </trkpt>
      <trkpt lat="48.332234" lon="7.681187">
        <ele>209.0</ele>
        <time>2020-07-12T08:20:49Z</time>
      </trkpt>
      <trkpt lat="48.332202" lon="7.681352">
        <ele>209.0</ele>
        <time>2020-07-12T08:20:51Z</time>
      </trkpt>
      <trkpt lat="48.332157" lon="7.6815">
        <ele>209.0</ele>
        <time>2020-07-12T08:20:53Z</time>
      </trkpt>
      <trkpt lat="48.332118" lon="7.681652">
        <ele>209.0</ele>
        <time>2020-07-12T08:20:55Z</time>
      </trkpt>
      <trkpt lat="48.332079" lon="7.681812">
        <ele>209.0</ele>
        <time>2020-07-12T08:20:57Z</time>
      </trkpt>
      <trkpt lat="48.332048" lon="7.681968">
        <ele>210.0</ele>
        <time>2020-07-12T08:20:59Z</time>
      </trkpt>
      <trkpt lat="48.332013" lon="7.682124">
        <ele>209.0</ele>
        <time>2020-07-12T08:21:01Z</time>
      </trkpt>
      <trkpt lat="48.331969" lon="7.682279">
        <ele>209.0</ele>
        <time>2020-07-12T08:21:03Z</time>
      </trkpt>
      <trkpt lat="48.331933" lon="7.682451">
        <ele>209.0</ele>
        <time>2020-07-12T08:21:05Z</time>
      </trkpt>
      <trkpt lat="48.331904" lon="7.682612">
        <ele>209.0</ele>
        <time>2020-07-12T08:21:07Z</time>
      </trkpt>
      <trkpt lat="48.331868" lon="7.68277">
        <ele>209.0</ele>
        <time>2020-07-12T08:21:09Z</time>
      </trkpt>
      <trkpt lat="48.33183" lon="7.682935">
        <ele>208.0</ele>
        <time>2020-07-12T08:21:11Z</time>
      </trkpt>
      <trkpt lat="48.331792" lon="7.683101">
        <ele>208.0</ele>
        <time>2020-07-12T08:21:13Z</time>
      </trkpt>
      <trkpt lat="48.331746" lon="7.683276">
        <ele>208.0</ele>
        <time>2020-07-12T08:21:15Z</time>
      </trkpt>
      <trkpt lat="48.331703" lon="7.683445">
        <ele>208.0</ele>
        <time>2020-07-12T08:21:17Z</time>
      </trkpt>
      <trkpt lat="48.331661" lon="7.683605">
        <ele>208.0</ele>
        <time>2020-07-12T08:21:19Z</time>
      </trkpt>
      <trkpt lat="48.331614" lon="7.683776">
        <ele>207.0</ele>
        <time>2020-07-12T08:21:21Z</time>
      </trkpt>
      <trkpt lat="48.331571" lon="7.683956">
        <ele>207.0</ele>
        <time>2020-07-12T08:21:23Z</time>
      </trkpt>
      <trkpt lat="48.331531" lon="7.684123">
        <ele>207.0</ele>
        <time>2020-07-12T08:21:25Z</time>
      </trkpt>
      <trkpt lat="48.33148" lon="7.684299">
        <ele>206.0</ele>
        <time>2020-07-12T08:21:27Z</time>
      </trkpt>
      <trkpt lat="48.33143" lon="7.68447">
        <ele>206.0</ele>
        <time>2020-07-12T08:21:29Z</time>
      </trkpt>
      <trkpt lat="48.331378" lon="7.684648">
        <ele>206.0</ele>
        <time>2020-07-12T08:21:31Z</time>
      </trkpt>
      <trkpt lat="48.331318" lon="7.68483">
        <ele>205.0</ele>
        <time>2020-07-12T08:21:33Z</time>
      </trkpt>
      <trkpt lat="48.331262" lon="7.684993">
        <ele>205.0</ele>
        <time>2020-07-12T08:21:35Z</time>
      </trkpt>
      <trkpt lat="48.331216" lon="7.685157">
        <ele>205.0</ele>
        <time>2020-07-12T08:21:37Z</time>
      </trkpt>
      <trkpt lat="48.331157" lon="7.685307">
        <ele>205.0</ele>
        <time>2020-07-12T08:21:39Z</time>
      </trkpt>
      <trkpt lat="48.33111" lon="7.685456">
        <ele>205.0</ele>
        <time>2020-07-12T08:21:41Z</time>
      </trkpt>
      <trkpt lat="48.331062" lon="7.685594">
        <ele>205.0</ele>
        <time>2020-07-12T08:21:43Z</time>
      </trkpt>
      <trkpt lat="48.33101" lon="7.685731">
        <ele>205.0</ele>
        <time>2020-07-12T08:21:45Z</time>
      </trkpt>
      <trkpt lat="48.330951" lon="7.685868">
        <ele>205.0</ele>
        <time>2020-07-12T08:21:47Z</time>
      </trkpt>
      <trkpt lat="48.330869" lon="7.685978">
        <ele>205.0</ele>
        <time>2020-07-12T08:21:49Z</time>
      </trkpt>
      <trkpt lat="48.330778" lon="7.686077">
        <ele>205.0</ele>
        <time>2020-07-12T08:21:51Z</time>
      </trkpt>
      <trkpt lat="48.330684" lon="7.686182">
        <ele>205.0</ele>
        <time>2020-07-12T08:21:53Z</time>
      </trkpt>
      <trkpt lat="48.330589" lon="7.686282">
        <ele>204.0</ele>
        <time>2020-07-12T08:21:55Z</time>
      </trkpt>
      <trkpt lat="48.330499" lon="7.686376">
        <ele>205.0</ele>
        <time>2020-07-12T08:21:57Z</time>
      </trkpt>
      <trkpt lat="48.330413" lon="7.68647">
        <ele>204.0</ele>
        <time>2020-07-12T08:21:59Z</time>
      </trkpt>
      <trkpt lat="48.330324" lon="7.686565">
        <ele>204.0</ele>
        <time>2020-07-12T08:22:01Z</time>
      </trkpt>
      <trkpt lat="48.330228" lon="7.68667">
        <ele>204.0</ele>
        <time>2020-07-12T08:22:03Z</time>
      </trkpt>
      <trkpt lat="48.330137" lon="7.686776">
        <ele>204.0</ele>
        <time>2020-07-12T08:22:05Z</time>
      </trkpt>
      <trkpt lat="48.330048" lon="7.686896">
        <ele>204.0</ele>
        <time>2020-07-12T08:22:07Z</time>
      </trkpt>
      <trkpt lat="48.32996" lon="7.686999">
        <ele>204.0</ele>
        <time>2020-07-12T08:22:09Z</time>
      </trkpt>
      <trkpt lat="48.329854" lon="7.687086">
        <ele>203.0</ele>
        <time>2020-07-12T08:22:11Z</time>
      </trkpt>
      <trkpt lat="48.329746" lon="7.687179">
        <ele>203.0</ele>
        <time>2020-07-12T08:22:13Z</time>
      </trkpt>
      <trkpt lat="48.329634" lon="7.687284">
        <ele>203.0</ele>
        <time>2020-07-12T08:22:15Z</time>
      </trkpt>
      <trkpt lat="48.32953" lon="7.687398">
        <ele>203.0</ele>
        <time>2020-07-12T08:22:17Z</time>
      </trkpt>
      <trkpt lat="48.329424" lon="7.687518">
        <ele>204.0</ele>
        <time>2020-07-12T08:22:19Z</time>
      </trkpt>
      <trkpt lat="48.329318" lon="7.687627">
        <ele>203.0</ele>
        <time>2020-07-12T08:22:21Z</time>
      </trkpt>
      <trkpt lat="48.329225" lon="7.687751">
        <ele>204.0</ele>
        <time>2020-07-12T08:22:23Z</time>
      </trkpt>
      <trkpt lat="48.329114" lon="7.687968">
        <ele>205.0</ele>
        <time>2020-07-12T08:22:26Z</time>
      </trkpt>
      <trkpt lat="48.329084" lon="7.688054">
        <ele>205.0</ele>
        <time>2020-07-12T08:22:27Z</time>
      </trkpt>
      <trkpt lat="48.32899" lon="7.688315">
        <ele>205.0</ele>
        <time>2020-07-12T08:22:30Z</time>
      </trkpt>
      <trkpt lat="48.32893" lon="7.688494">
        <ele>206.0</ele>
        <time>2020-07-12T08:22:32Z</time>
      </trkpt>
      <trkpt lat="48.328877" lon="7.688672">
        <ele>206.0</ele>
        <time>2020-07-12T08:22:34Z</time>
      </trkpt>
      <trkpt lat="48.328822" lon="7.688849">
        <ele>206.0</ele>
        <time>2020-07-12T08:22:36Z</time>
      </trkpt>
      <trkpt lat="48.328768" lon="7.689021">
        <ele>206.0</ele>
        <time>2020-07-12T08:22:38Z</time>
      </trkpt>
      <trkpt lat="48.32871" lon="7.689191">
        <ele>206.0</ele>
        <time>2020-07-12T08:22:40Z</time>
      </trkpt>
      <trkpt lat="48.32865" lon="7.689358">
        <ele>206.0</ele>
        <time>2020-07-12T08:22:42Z</time>
      </trkpt>
      <trkpt lat="48.328594" lon="7.689527">
        <ele>206.0</ele>
        <time>2020-07-12T08:22:44Z</time>
      </trkpt>
      <trkpt lat="48.328539" lon="7.689702">
        <ele>206.0</ele>
        <time>2020-07-12T08:22:46Z</time>
      </trkpt>
      <trkpt lat="48.328495" lon="7.689875">
        <ele>206.0</ele>
        <time>2020-07-12T08:22:48Z</time>
      </trkpt>
      <trkpt lat="48.328445" lon="7.690046">
        <ele>206.0</ele>
        <time>2020-07-12T08:22:50Z</time>
      </trkpt>
      <trkpt lat="48.328391" lon="7.690219">
        <ele>207.0</ele>
        <time>2020-07-12T08:22:52Z</time>
      </trkpt>
      <trkpt lat="48.328337" lon="7.690386">
        <ele>207.0</ele>
        <time>2020-07-12T08:22:54Z</time>
      </trkpt>
      <trkpt lat="48.328283" lon="7.690551">
        <ele>207.0</ele>
        <time>2020-07-12T08:22:56Z</time>
      </trkpt>
      <trkpt lat="48.32823" lon="7.690734">
        <ele>208.0</ele>
        <time>2020-07-12T08:22:58Z</time>
      </trkpt>
      <trkpt lat="48.328185" lon="7.690907">
        <ele>208.0</ele>
        <time>2020-07-12T08:23:00Z</time>
      </trkpt>
      <trkpt lat="48.32813" lon="7.691076">
        <ele>208.0</ele>
        <time>2020-07-12T08:23:02Z</time>
      </trkpt>
      <trkpt lat="48.328076" lon="7.691242">
        <ele>208.0</ele>
        <time>2020-07-12T08:23:04Z</time>
      </trkpt>
      <trkpt lat="48.328024" lon="7.691414">
        <ele>208.0</ele>
        <time>2020-07-12T08:23:06Z</time>
      </trkpt>
      <trkpt lat="48.327974" lon="7.691587">
        <ele>208.0</ele>
        <time>2020-07-12T08:23:08Z</time>
      </trkpt>
      <trkpt lat="48.327929" lon="7.691758">
        <ele>208.0</ele>
        <time>2020-07-12T08:23:10Z</time>
      </trkpt>
      <trkpt lat="48.327882" lon="7.691927">
        <ele>208.0</ele>
        <time>2020-07-12T08:23:12Z</time>
      </trkpt>
      <trkpt lat="48.327842" lon="7.692106">
        <ele>208.0</ele>
        <time>2020-07-12T08:23:14Z</time>
      </trkpt>
      <trkpt lat="48.327796" lon="7.692278">
        <ele>208.0</ele>
        <time>2020-07-12T08:23:16Z</time>
      </trkpt>
      <trkpt lat="48.327749" lon="7.692451">
        <ele>208.0</ele>
        <time>2020-07-12T08:23:18Z</time>
      </trkpt>
      <trkpt lat="48.327703" lon="7.69262">
        <ele>208.0</ele>
        <time>2020-07-12T08:23:20Z</time>
      </trkpt>
      <trkpt lat="48.327652" lon="7.692795">
        <ele>208.0</ele>
        <time>2020-07-12T08:23:22Z</time>
      </trkpt>
      <trkpt lat="48.327592" lon="7.692947">
        <ele>208.0</ele>
        <time>2020-07-12T08:23:24Z</time>
      </trkpt>
      <trkpt lat="48.327527" lon="7.693095">
        <ele>207.0</ele>
        <time>2020-07-12T08:23:26Z</time>
      </trkpt>
      <trkpt lat="48.327446" lon="7.693232">
        <ele>207.0</ele>
        <time>2020-07-12T08:23:28Z</time>
      </trkpt>
      <trkpt lat="48.327369" lon="7.693363">
        <ele>206.0</ele>
        <time>2020-07-12T08:23:30Z</time>
      </trkpt>
      <trkpt lat="48.327295" lon="7.693486">
        <ele>206.0</ele>
        <time>2020-07-12T08:23:32Z</time>
      </trkpt>
      <trkpt lat="48.327213" lon="7.69359">
        <ele>206.0</ele>
        <time>2020-07-12T08:23:34Z</time>
      </trkpt>
      <trkpt lat="48.327125" lon="7.693691">
        <ele>206.0</ele>
        <time>2020-07-12T08:23:36Z</time>
      </trkpt>
      <trkpt lat="48.327059" lon="7.693818">
        <ele>207.0</ele>
        <time>2020-07-12T08:23:38Z</time>
      </trkpt>
      <trkpt lat="48.327001" lon="7.693939">
        <ele>207.0</ele>
        <time>2020-07-12T08:23:40Z</time>
      </trkpt>
      <trkpt lat="48.326944" lon="7.694035">
        <ele>207.0</ele>
        <time>2020-07-12T08:23:42Z</time>
      </trkpt>
      <trkpt lat="48.326878" lon="7.69412">
        <ele>207.0</ele>
        <time>2020-07-12T08:23:44Z</time>
      </trkpt>
      <trkpt lat="48.326817" lon="7.694203">
        <ele>207.0</ele>
        <time>2020-07-12T08:23:46Z</time>
      </trkpt>
      <trkpt lat="48.326757" lon="7.694294">
        <ele>207.0</ele>
        <time>2020-07-12T08:23:48Z</time>
      </trkpt>
      <trkpt lat="48.326701" lon="7.694397">
        <ele>207.0</ele>
        <time>2020-07-12T08:23:50Z</time>
      </trkpt>
      <trkpt lat="48.32664" lon="7.694499">
        <ele>208.0</ele>
        <time>2020-07-12T08:23:52Z</time>
      </trkpt>
      <trkpt lat="48.326573" lon="7.694591">
        <ele>208.0</ele>
        <time>2020-07-12T08:23:54Z</time>
      </trkpt>
      <trkpt lat="48.326514" lon="7.694691">
        <ele>208.0</ele>
        <time>2020-07-12T08:23:56Z</time>
      </trkpt>
      <trkpt lat="48.326466" lon="7.694775">
        <ele>207.0</ele>
        <time>2020-07-12T08:23:58Z</time>
      </trkpt>
      <trkpt lat="48.326414" lon="7.694857">
        <ele>207.0</ele>
        <time>2020-07-12T08:24:00Z</time>
      </trkpt>
      <trkpt lat="48.326345" lon="7.694998">
        <ele>207.0</ele>
        <time>2020-07-12T08:24:03Z</time>
      </trkpt>
      <trkpt lat="48.326301" lon="7.695101">
        <ele>207.0</ele>
        <time>2020-07-12T08:24:05Z</time>
      </trkpt>
      <trkpt lat="48.326242" lon="7.695202">
        <ele>207.0</ele>
        <time>2020-07-12T08:24:07Z</time>
      </trkpt>
      <trkpt lat="48.326176" lon="7.695302">
        <ele>207.0</ele>
        <time>2020-07-12T08:24:09Z</time>
      </trkpt>
      <trkpt lat="48.3261" lon="7.695409">
        <ele>207.0</ele>
        <time>2020-07-12T08:24:11Z</time>
      </trkpt>
      <trkpt lat="48.32602" lon="7.695528">
        <ele>207.0</ele>
        <time>2020-07-12T08:24:13Z</time>
      </trkpt>
      <trkpt lat="48.325938" lon="7.69565">
        <ele>207.0</ele>
        <time>2020-07-12T08:24:15Z</time>
      </trkpt>
      <trkpt lat="48.325864" lon="7.695765">
        <ele>208.0</ele>
        <time>2020-07-12T08:24:17Z</time>
      </trkpt>
      <trkpt lat="48.325793" lon="7.695878">
        <ele>208.0</ele>
        <time>2020-07-12T08:24:19Z</time>
      </trkpt>
      <trkpt lat="48.325705" lon="7.695984">
        <ele>208.0</ele>
        <time>2020-07-12T08:24:21Z</time>
      </trkpt>
      <trkpt lat="48.325609" lon="7.696084">
        <ele>208.0</ele>
        <time>2020-07-12T08:24:23Z</time>
      </trkpt>
      <trkpt lat="48.325515" lon="7.696188">
        <ele>207.0</ele>
        <time>2020-07-12T08:24:25Z</time>
      </trkpt>
      <trkpt lat="48.325431" lon="7.696291">
        <ele>207.0</ele>
        <time>2020-07-12T08:24:27Z</time>
      </trkpt>
      <trkpt lat="48.325347" lon="7.696402">
        <ele>207.0</ele>
        <time>2020-07-12T08:24:29Z</time>
      </trkpt>
      <trkpt lat="48.325259" lon="7.696521">
        <ele>207.0</ele>
        <time>2020-07-12T08:24:31Z</time>
      </trkpt>
      <trkpt lat="48.325159" lon="7.696621">
        <ele>207.0</ele>
        <time>2020-07-12T08:24:33Z</time>
      </trkpt>
      <trkpt lat="48.325053" lon="7.696722">
        <ele>207.0</ele>
        <time>2020-07-12T08:24:35Z</time>
      </trkpt>
      <trkpt lat="48.324958" lon="7.696842">
        <ele>207.0</ele>
        <time>2020-07-12T08:24:37Z</time>
      </trkpt>
      <trkpt lat="48.324863" lon="7.696957">
        <ele>207.0</ele>
        <time>2020-07-12T08:24:39Z</time>
      </trkpt>
      <trkpt lat="48.324764" lon="7.697073">
        <ele>207.0</ele>
        <time>2020-07-12T08:24:41Z</time>
      </trkpt>
      <trkpt lat="48.32466" lon="7.697172">
        <ele>206.0</ele>
        <time>2020-07-12T08:24:43Z</time>
      </trkpt>
      <trkpt lat="48.324555" lon="7.697284">
        <ele>206.0</ele>
        <time>2020-07-12T08:24:45Z</time>
      </trkpt>
      <trkpt lat="48.324457" lon="7.697395">
        <ele>206.0</ele>
        <time>2020-07-12T08:24:47Z</time>
      </trkpt>
      <trkpt lat="48.324354" lon="7.697494">
        <ele>206.0</ele>
        <time>2020-07-12T08:24:49Z</time>
      </trkpt>
      <trkpt lat="48.324253" lon="7.6976">
        <ele>206.0</ele>
        <time>2020-07-12T08:24:51Z</time>
      </trkpt>
      <trkpt lat="48.324158" lon="7.697716">
        <ele>206.0</ele>
        <time>2020-07-12T08:24:53Z</time>
      </trkpt>
      <trkpt lat="48.324063" lon="7.697822">
        <ele>205.0</ele>
        <time>2020-07-12T08:24:55Z</time>
      </trkpt>
      <trkpt lat="48.323954" lon="7.697925">
        <ele>206.0</ele>
        <time>2020-07-12T08:24:57Z</time>
      </trkpt>
      <trkpt lat="48.323861" lon="7.69802">
        <ele>207.0</ele>
        <time>2020-07-12T08:24:59Z</time>
      </trkpt>
      <trkpt lat="48.323765" lon="7.69812">
        <ele>206.0</ele>
        <time>2020-07-12T08:25:01Z</time>
      </trkpt>
      <trkpt lat="48.323669" lon="7.698218">
        <ele>206.0</ele>
        <time>2020-07-12T08:25:03Z</time>
      </trkpt>
      <trkpt lat="48.323576" lon="7.698326">
        <ele>206.0</ele>
        <time>2020-07-12T08:25:05Z</time>
      </trkpt>
      <trkpt lat="48.323478" lon="7.698435">
        <ele>206.0</ele>
        <time>2020-07-12T08:25:07Z</time>
      </trkpt>
      <trkpt lat="48.323382" lon="7.698548">
        <ele>206.0</ele>
        <time>2020-07-12T08:25:09Z</time>
      </trkpt>
      <trkpt lat="48.323286" lon="7.698635">
        <ele>206.0</ele>
        <time>2020-07-12T08:25:11Z</time>
      </trkpt>
      <trkpt lat="48.323187" lon="7.69873">
        <ele>205.0</ele>
        <time>2020-07-12T08:25:13Z</time>
      </trkpt>
      <trkpt lat="48.323077" lon="7.698847">
        <ele>205.0</ele>
        <time>2020-07-12T08:25:15Z</time>
      </trkpt>
      <trkpt lat="48.32298" lon="7.69897">
        <ele>205.0</ele>
        <time>2020-07-12T08:25:17Z</time>
      </trkpt>
      <trkpt lat="48.32287" lon="7.699078">
        <ele>205.0</ele>
        <time>2020-07-12T08:25:19Z</time>
      </trkpt>
      <trkpt lat="48.322771" lon="7.699172">
        <ele>205.0</ele>
        <time>2020-07-12T08:25:21Z</time>
      </trkpt>
      <trkpt lat="48.322678" lon="7.699279">
        <ele>205.0</ele>
        <time>2020-07-12T08:25:23Z</time>
      </trkpt>
      <trkpt lat="48.322589" lon="7.699411">
        <ele>205.0</ele>
        <time>2020-07-12T08:25:25Z</time>
      </trkpt>
      <trkpt lat="48.3225" lon="7.699557">
        <ele>205.0</ele>
        <time>2020-07-12T08:25:27Z</time>
      </trkpt>
      <trkpt lat="48.322412" lon="7.6997">
        <ele>205.0</ele>
        <time>2020-07-12T08:25:29Z</time>
      </trkpt>
      <trkpt lat="48.322325" lon="7.699843">
        <ele>205.0</ele>
        <time>2020-07-12T08:25:31Z</time>
      </trkpt>
      <trkpt lat="48.322232" lon="7.699981">
        <ele>204.0</ele>
        <time>2020-07-12T08:25:33Z</time>
      </trkpt>
      <trkpt lat="48.322148" lon="7.700116">
        <ele>204.0</ele>
        <time>2020-07-12T08:25:35Z</time>
      </trkpt>
      <trkpt lat="48.322064" lon="7.700241">
        <ele>204.0</ele>
        <time>2020-07-12T08:25:37Z</time>
      </trkpt>
      <trkpt lat="48.321981" lon="7.700378">
        <ele>205.0</ele>
        <time>2020-07-12T08:25:39Z</time>
      </trkpt>
      <trkpt lat="48.321898" lon="7.70052">
        <ele>205.0</ele>
        <time>2020-07-12T08:25:41Z</time>
      </trkpt>
      <trkpt lat="48.321815" lon="7.700653">
        <ele>205.0</ele>
        <time>2020-07-12T08:25:43Z</time>
      </trkpt>
      <trkpt lat="48.321727" lon="7.700779">
        <ele>205.0</ele>
        <time>2020-07-12T08:25:45Z</time>
      </trkpt>
      <trkpt lat="48.321641" lon="7.700912">
        <ele>205.0</ele>
        <time>2020-07-12T08:25:47Z</time>
      </trkpt>
      <trkpt lat="48.321554" lon="7.701051">
        <ele>205.0</ele>
        <time>2020-07-12T08:25:49Z</time>
      </trkpt>
      <trkpt lat="48.32147" lon="7.701187">
        <ele>205.0</ele>
        <time>2020-07-12T08:25:51Z</time>
      </trkpt>
      <trkpt lat="48.321379" lon="7.701326">
        <ele>205.0</ele>
        <time>2020-07-12T08:25:53Z</time>
      </trkpt>
      <trkpt lat="48.321295" lon="7.70146">
        <ele>205.0</ele>
        <time>2020-07-12T08:25:55Z</time>
      </trkpt>
      <trkpt lat="48.321208" lon="7.701598">
        <ele>205.0</ele>
        <time>2020-07-12T08:25:57Z</time>
      </trkpt>
      <trkpt lat="48.321123" lon="7.701738">
        <ele>206.0</ele>
        <time>2020-07-12T08:25:59Z</time>
      </trkpt>
      <trkpt lat="48.321046" lon="7.701885">
        <ele>206.0</ele>
        <time>2020-07-12T08:26:01Z</time>
      </trkpt>
      <trkpt lat="48.32097" lon="7.702044">
        <ele>206.0</ele>
        <time>2020-07-12T08:26:03Z</time>
      </trkpt>
      <trkpt lat="48.320891" lon="7.702199">
        <ele>206.0</ele>
        <time>2020-07-12T08:26:05Z</time>
      </trkpt>
      <trkpt lat="48.320822" lon="7.702361">
        <ele>206.0</ele>
        <time>2020-07-12T08:26:07Z</time>
      </trkpt>
      <trkpt lat="48.32075" lon="7.702522">
        <ele>206.0</ele>
        <time>2020-07-12T08:26:09Z</time>
      </trkpt>
      <trkpt lat="48.320673" lon="7.702658">
        <ele>206.0</ele>
        <time>2020-07-12T08:26:11Z</time>
      </trkpt>
      <trkpt lat="48.320597" lon="7.702803">
        <ele>206.0</ele>
        <time>2020-07-12T08:26:13Z</time>
      </trkpt>
      <trkpt lat="48.320524" lon="7.702945">
        <ele>206.0</ele>
        <time>2020-07-12T08:26:15Z</time>
      </trkpt>
      <trkpt lat="48.320447" lon="7.703071">
        <ele>206.0</ele>
        <time>2020-07-12T08:26:17Z</time>
      </trkpt>
      <trkpt lat="48.320361" lon="7.70319">
        <ele>206.0</ele>
        <time>2020-07-12T08:26:19Z</time>
      </trkpt>
      <trkpt lat="48.320275" lon="7.703305">
        <ele>206.0</ele>
        <time>2020-07-12T08:26:21Z</time>
      </trkpt>
      <trkpt lat="48.320181" lon="7.703423">
        <ele>206.0</ele>
        <time>2020-07-12T08:26:23Z</time>
      </trkpt>
      <trkpt lat="48.320089" lon="7.703531">
        <ele>205.0</ele>
        <time>2020-07-12T08:26:25Z</time>
      </trkpt>
      <trkpt lat="48.319996" lon="7.703635">
        <ele>206.0</ele>
        <time>2020-07-12T08:26:27Z</time>
      </trkpt>
      <trkpt lat="48.319894" lon="7.703711">
        <ele>206.0</ele>
        <time>2020-07-12T08:26:29Z</time>
      </trkpt>
      <trkpt lat="48.319788" lon="7.703785">
        <ele>206.0</ele>
        <time>2020-07-12T08:26:31Z</time>
      </trkpt>
      <trkpt lat="48.31967" lon="7.703849">
        <ele>206.0</ele>
        <time>2020-07-12T08:26:33Z</time>
      </trkpt>
      <trkpt lat="48.319559" lon="7.703909">
        <ele>206.0</ele>
        <time>2020-07-12T08:26:35Z</time>
      </trkpt>
      <trkpt lat="48.319451" lon="7.703969">
        <ele>206.0</ele>
        <time>2020-07-12T08:26:37Z</time>
      </trkpt>
      <trkpt lat="48.31934" lon="7.704021">
        <ele>206.0</ele>
        <time>2020-07-12T08:26:39Z</time>
      </trkpt>
      <trkpt lat="48.319226" lon="7.704075">
        <ele>206.0</ele>
        <time>2020-07-12T08:26:41Z</time>
      </trkpt>
      <trkpt lat="48.319105" lon="7.70413">
        <ele>206.0</ele>
        <time>2020-07-12T08:26:43Z</time>
      </trkpt>
      <trkpt lat="48.318988" lon="7.704188">
        <ele>206.0</ele>
        <time>2020-07-12T08:26:45Z</time>
      </trkpt>
      <trkpt lat="48.318873" lon="7.704251">
        <ele>207.0</ele>
        <time>2020-07-12T08:26:47Z</time>
      </trkpt>
      <trkpt lat="48.318758" lon="7.704312">
        <ele>207.0</ele>
        <time>2020-07-12T08:26:49Z</time>
      </trkpt>
      <trkpt lat="48.318645" lon="7.704377">
        <ele>207.0</ele>
        <time>2020-07-12T08:26:51Z</time>
      </trkpt>
      <trkpt lat="48.318536" lon="7.704442">
        <ele>207.0</ele>
        <time>2020-07-12T08:26:53Z</time>
      </trkpt>
      <trkpt lat="48.318425" lon="7.704498">
        <ele>207.0</ele>
        <time>2020-07-12T08:26:55Z</time>
      </trkpt>
      <trkpt lat="48.318325" lon="7.704559">
        <ele>206.0</ele>
        <time>2020-07-12T08:26:57Z</time>
      </trkpt>
      <trkpt lat="48.318223" lon="7.704613">
        <ele>205.0</ele>
        <time>2020-07-12T08:26:59Z</time>
      </trkpt>
      <trkpt lat="48.318122" lon="7.704669">
        <ele>205.0</ele>
        <time>2020-07-12T08:27:01Z</time>
      </trkpt>
      <trkpt lat="48.318012" lon="7.704725">
        <ele>205.0</ele>
        <time>2020-07-12T08:27:03Z</time>
      </trkpt>
      <trkpt lat="48.317906" lon="7.704779">
        <ele>205.0</ele>
        <time>2020-07-12T08:27:05Z</time>
      </trkpt>
      <trkpt lat="48.317801" lon="7.704829">
        <ele>206.0</ele>
        <time>2020-07-12T08:27:07Z</time>
      </trkpt>
      <trkpt lat="48.31769" lon="7.70488">
        <ele>206.0</ele>
        <time>2020-07-12T08:27:09Z</time>
      </trkpt>
      <trkpt lat="48.31757" lon="7.704939">
        <ele>206.0</ele>
        <time>2020-07-12T08:27:11Z</time>
      </trkpt>
      <trkpt lat="48.317455" lon="7.705008">
        <ele>206.0</ele>
        <time>2020-07-12T08:27:13Z</time>
      </trkpt>
      <trkpt lat="48.317345" lon="7.705072">
        <ele>206.0</ele>
        <time>2020-07-12T08:27:15Z</time>
      </trkpt>
      <trkpt lat="48.317238" lon="7.705133">
        <ele>207.0</ele>
        <time>2020-07-12T08:27:17Z</time>
      </trkpt>
      <trkpt lat="48.317131" lon="7.705183">
        <ele>207.0</ele>
        <time>2020-07-12T08:27:19Z</time>
      </trkpt>
      <trkpt lat="48.317023" lon="7.7052">
        <ele>207.0</ele>
        <time>2020-07-12T08:27:21Z</time>
      </trkpt>
      <trkpt lat="48.316931" lon="7.705251">
        <ele>208.0</ele>
        <time>2020-07-12T08:27:23Z</time>
      </trkpt>
      <trkpt lat="48.316897" lon="7.705394">
        <ele>209.0</ele>
        <time>2020-07-12T08:27:25Z</time>
      </trkpt>
      <trkpt lat="48.316951" lon="7.705528">
        <ele>207.0</ele>
        <time>2020-07-12T08:27:27Z</time>
      </trkpt>
      <trkpt lat="48.316992" lon="7.705692">
        <ele>207.0</ele>
        <time>2020-07-12T08:27:29Z</time>
      </trkpt>
      <trkpt lat="48.317022" lon="7.705832">
        <ele>207.0</ele>
        <time>2020-07-12T08:27:31Z</time>
      </trkpt>
      <trkpt lat="48.317061" lon="7.705976">
        <ele>206.0</ele>
        <time>2020-07-12T08:27:33Z</time>
      </trkpt>
      <trkpt lat="48.317119" lon="7.706121">
        <ele>206.0</ele>
        <time>2020-07-12T08:27:35Z</time>
      </trkpt>
      <trkpt lat="48.317177" lon="7.706254">
        <ele>206.0</ele>
        <time>2020-07-12T08:27:37Z</time>
      </trkpt>
      <trkpt lat="48.317225" lon="7.706407">
        <ele>206.0</ele>
        <time>2020-07-12T08:27:39Z</time>
      </trkpt>
      <trkpt lat="48.31727" lon="7.70656">
        <ele>206.0</ele>
        <time>2020-07-12T08:27:41Z</time>
      </trkpt>
      <trkpt lat="48.317305" lon="7.706721">
        <ele>207.0</ele>
        <time>2020-07-12T08:27:43Z</time>
      </trkpt>
      <trkpt lat="48.317323" lon="7.706885">
        <ele>207.0</ele>
        <time>2020-07-12T08:27:45Z</time>
      </trkpt>
      <trkpt lat="48.317318" lon="7.707058">
        <ele>207.0</ele>
        <time>2020-07-12T08:27:47Z</time>
      </trkpt>
      <trkpt lat="48.317315" lon="7.707211">
        <ele>207.0</ele>
        <time>2020-07-12T08:27:49Z</time>
      </trkpt>
      <trkpt lat="48.317296" lon="7.707361">
        <ele>208.0</ele>
        <time>2020-07-12T08:27:51Z</time>
      </trkpt>
      <trkpt lat="48.317272" lon="7.707524">
        <ele>208.0</ele>
        <time>2020-07-12T08:27:53Z</time>
      </trkpt>
      <trkpt lat="48.317251" lon="7.707678">
        <ele>208.0</ele>
        <time>2020-07-12T08:27:55Z</time>
      </trkpt>
      <trkpt lat="48.317218" lon="7.707812">
        <ele>207.0</ele>
        <time>2020-07-12T08:27:57Z</time>
      </trkpt>
      <trkpt lat="48.317156" lon="7.707938">
        <ele>207.0</ele>
        <time>2020-07-12T08:27:59Z</time>
      </trkpt>
      <trkpt lat="48.317092" lon="7.708046">
        <ele>207.0</ele>
        <time>2020-07-12T08:28:01Z</time>
      </trkpt>
      <trkpt lat="48.317021" lon="7.708134">
        <ele>207.0</ele>
        <time>2020-07-12T08:28:03Z</time>
      </trkpt>
      <trkpt lat="48.316948" lon="7.708209">
        <ele>207.0</ele>
        <time>2020-07-12T08:28:05Z</time>
      </trkpt>
      <trkpt lat="48.31684" lon="7.70832">
        <ele>207.0</ele>
        <time>2020-07-12T08:28:08Z</time>
      </trkpt>
      <trkpt lat="48.316776" lon="7.708388">
        <ele>207.0</ele>
        <time>2020-07-12T08:28:10Z</time>
      </trkpt>
      <trkpt lat="48.316706" lon="7.708461">
        <ele>206.0</ele>
        <time>2020-07-12T08:28:12Z</time>
      </trkpt>
      <trkpt lat="48.316634" lon="7.708542">
        <ele>206.0</ele>
        <time>2020-07-12T08:28:14Z</time>
      </trkpt>
      <trkpt lat="48.316565" lon="7.708627">
        <ele>206.0</ele>
        <time>2020-07-12T08:28:16Z</time>
      </trkpt>
      <trkpt lat="48.316496" lon="7.708721">
        <ele>206.0</ele>
        <time>2020-07-12T08:28:18Z</time>
      </trkpt>
      <trkpt lat="48.316421" lon="7.708806">
        <ele>206.0</ele>
        <time>2020-07-12T08:28:20Z</time>
      </trkpt>
      <trkpt lat="48.31634" lon="7.708888">
        <ele>206.0</ele>
        <time>2020-07-12T08:28:22Z</time>
      </trkpt>
      <trkpt lat="48.316257" lon="7.708986">
        <ele>206.0</ele>
        <time>2020-07-12T08:28:24Z</time>
      </trkpt>
      <trkpt lat="48.316177" lon="7.709078">
        <ele>206.0</ele>
        <time>2020-07-12T08:28:26Z</time>
      </trkpt>
      <trkpt lat="48.316092" lon="7.709162">
        <ele>205.0</ele>
        <time>2020-07-12T08:28:28Z</time>
      </trkpt>
      <trkpt lat="48.316006" lon="7.709255">
        <ele>205.0</ele>
        <time>2020-07-12T08:28:30Z</time>
      </trkpt>
      <trkpt lat="48.315923" lon="7.70935">
        <ele>205.0</ele>
        <time>2020-07-12T08:28:32Z</time>
      </trkpt>
      <trkpt lat="48.315846" lon="7.709452">
        <ele>204.0</ele>
        <time>2020-07-12T08:28:34Z</time>
      </trkpt>
      <trkpt lat="48.315755" lon="7.709546">
        <ele>204.0</ele>
        <time>2020-07-12T08:28:36Z</time>
      </trkpt>
      <trkpt lat="48.315659" lon="7.709638">
        <ele>204.0</ele>
        <time>2020-07-12T08:28:38Z</time>
      </trkpt>
      <trkpt lat="48.315559" lon="7.709728">
        <ele>204.0</ele>
        <time>2020-07-12T08:28:40Z</time>
      </trkpt>
      <trkpt lat="48.315468" lon="7.709825">
        <ele>204.0</ele>
        <time>2020-07-12T08:28:42Z</time>
      </trkpt>
      <trkpt lat="48.315371" lon="7.709913">
        <ele>204.0</ele>
        <time>2020-07-12T08:28:44Z</time>
      </trkpt>
      <trkpt lat="48.315283" lon="7.710008">
        <ele>204.0</ele>
        <time>2020-07-12T08:28:46Z</time>
      </trkpt>
      <trkpt lat="48.315191" lon="7.710107">
        <ele>204.0</ele>
        <time>2020-07-12T08:28:48Z</time>
      </trkpt>
      <trkpt lat="48.315102" lon="7.710216">
        <ele>204.0</ele>
        <time>2020-07-12T08:28:50Z</time>
      </trkpt>
      <trkpt lat="48.315017" lon="7.710321">
        <ele>204.0</ele>
        <time>2020-07-12T08:28:52Z</time>
      </trkpt>
      <trkpt lat="48.314926" lon="7.710423">
        <ele>204.0</ele>
        <time>2020-07-12T08:28:54Z</time>
      </trkpt>
      <trkpt lat="48.314837" lon="7.71053">
        <ele>204.0</ele>
        <time>2020-07-12T08:28:56Z</time>
      </trkpt>
      <trkpt lat="48.314749" lon="7.710635">
        <ele>205.0</ele>
        <time>2020-07-12T08:28:58Z</time>
      </trkpt>
      <trkpt lat="48.314664" lon="7.710736">
        <ele>204.0</ele>
        <time>2020-07-12T08:29:00Z</time>
      </trkpt>
      <trkpt lat="48.314576" lon="7.710841">
        <ele>204.0</ele>
        <time>2020-07-12T08:29:02Z</time>
      </trkpt>
      <trkpt lat="48.314482" lon="7.710932">
        <ele>204.0</ele>
        <time>2020-07-12T08:29:04Z</time>
      </trkpt>
      <trkpt lat="48.31439" lon="7.711017">
        <ele>204.0</ele>
        <time>2020-07-12T08:29:06Z</time>
      </trkpt>
      <trkpt lat="48.314298" lon="7.711101">
        <ele>204.0</ele>
        <time>2020-07-12T08:29:08Z</time>
      </trkpt>
      <trkpt lat="48.31421" lon="7.71119">
        <ele>204.0</ele>
        <time>2020-07-12T08:29:10Z</time>
      </trkpt>
      <trkpt lat="48.314131" lon="7.711275">
        <ele>204.0</ele>
        <time>2020-07-12T08:29:12Z</time>
      </trkpt>
      <trkpt lat="48.314048" lon="7.711373">
        <ele>205.0</ele>
        <time>2020-07-12T08:29:14Z</time>
      </trkpt>
      <trkpt lat="48.31397" lon="7.711461">
        <ele>205.0</ele>
        <time>2020-07-12T08:29:16Z</time>
      </trkpt>
      <trkpt lat="48.3139" lon="7.711554">
        <ele>206.0</ele>
        <time>2020-07-12T08:29:18Z</time>
      </trkpt>
      <trkpt lat="48.313829" lon="7.711645">
        <ele>207.0</ele>
        <time>2020-07-12T08:29:20Z</time>
      </trkpt>
      <trkpt lat="48.31377" lon="7.711726">
        <ele>208.0</ele>
        <time>2020-07-12T08:29:22Z</time>
      </trkpt>
      <trkpt lat="48.313736" lon="7.711807">
        <ele>208.0</ele>
        <time>2020-07-12T08:29:24Z</time>
      </trkpt>
      <trkpt lat="48.313729" lon="7.711901">
        <ele>208.0</ele>
        <time>2020-07-12T08:29:26Z</time>
      </trkpt>
      <trkpt lat="48.313711" lon="7.711965">
        <ele>208.0</ele>
        <time>2020-07-12T08:29:28Z</time>
      </trkpt>
      <trkpt lat="48.313691" lon="7.71201">
        <ele>208.0</ele>
        <time>2020-07-12T08:29:30Z</time>
      </trkpt>
      <trkpt lat="48.3137" lon="7.712055">
        <ele>209.0</ele>
        <time>2020-07-12T08:29:32Z</time>
      </trkpt>
      <trkpt lat="48.31372" lon="7.712078">
        <ele>208.0</ele>
        <time>2020-07-12T08:29:34Z</time>
      </trkpt>
      <trkpt lat="48.313731" lon="7.7121">
        <ele>208.0</ele>
        <time>2020-07-12T08:29:36Z</time>
      </trkpt>
      <trkpt lat="48.313733" lon="7.712107">
        <ele>208.0</ele>
        <time>2020-07-12T08:29:38Z</time>
      </trkpt>
      <trkpt lat="48.313734" lon="7.712111">
        <ele>209.0</ele>
        <time>2020-07-12T08:29:40Z</time>
      </trkpt>
      <trkpt lat="48.313734" lon="7.712111">
        <ele>209.0</ele>
        <time>2020-07-12T08:29:42Z</time>
      </trkpt>
      <trkpt lat="48.313734" lon="7.712111">
        <ele>209.0</ele>
        <time>2020-07-12T08:32:21Z</time>
      </trkpt>
      <trkpt lat="48.313734" lon="7.712111">
        <ele>209.0</ele>
        <time>2020-07-12T08:32:23Z</time>
      </trkpt>
      <trkpt lat="48.313734" lon="7.712111">
        <ele>209.0</ele>
        <time>2020-07-12T08:32:25Z</time>
      </trkpt>
      <trkpt lat="48.313734" lon="7.712111">
        <ele>209.0</ele>
        <time>2020-07-12T08:32:27Z</time>
      </trkpt>
      <trkpt lat="48.313734" lon="7.712111">
        <ele>209.0</ele>
        <time>2020-07-12T08:32:29Z</time>
      </trkpt>
      <trkpt lat="48.313734" lon="7.712111">
        <ele>209.0</ele>
        <time>2020-07-12T08:32:31Z</time>
      </trkpt>
      <trkpt lat="48.313734" lon="7.712111">
        <ele>209.0</ele>
        <time>2020-07-12T08:32:33Z</time>
      </trkpt>
      <trkpt lat="48.313734" lon="7.712111">
        <ele>209.0</ele>
        <time>2020-07-12T08:32:35Z</time>
      </trkpt>
      <trkpt lat="48.313734" lon="7.712111">
        <ele>209.0</ele>
        <time>2020-07-12T08:32:37Z</time>
      </trkpt>
      <trkpt lat="48.313734" lon="7.71209">
        <ele>209.0</ele>
        <time>2020-07-12T08:32:39Z</time>
      </trkpt>
      <trkpt lat="48.31372" lon="7.712086">
        <ele>209.0</ele>
        <time>2020-07-12T08:32:41Z</time>
      </trkpt>
      <trkpt lat="48.313706" lon="7.712083">
        <ele>209.0</ele>
        <time>2020-07-12T08:32:43Z</time>
      </trkpt>
      <trkpt lat="48.313693" lon="7.712077">
        <ele>209.0</ele>
        <time>2020-07-12T08:32:45Z</time>
      </trkpt>
      <trkpt lat="48.313669" lon="7.712059">
        <ele>209.0</ele>
        <time>2020-07-12T08:32:47Z</time>
      </trkpt>
      <trkpt lat="48.31364" lon="7.71201">
        <ele>210.0</ele>
        <time>2020-07-12T08:32:49Z</time>
      </trkpt>
      <trkpt lat="48.313602" lon="7.712053">
        <ele>210.0</ele>
        <time>2020-07-12T08:32:51Z</time>
      </trkpt>
      <trkpt lat="48.313573" lon="7.712132">
        <ele>210.0</ele>
        <time>2020-07-12T08:32:53Z</time>
      </trkpt>
      <trkpt lat="48.313534" lon="7.712181">
        <ele>211.0</ele>
        <time>2020-07-12T08:32:55Z</time>
      </trkpt>
      <trkpt lat="48.313506" lon="7.712221">
        <ele>211.0</ele>
        <time>2020-07-12T08:32:57Z</time>
      </trkpt>
      <trkpt lat="48.313473" lon="7.712234">
        <ele>212.0</ele>
        <time>2020-07-12T08:32:59Z</time>
      </trkpt>
      <trkpt lat="48.313442" lon="7.712202">
        <ele>212.0</ele>
        <time>2020-07-12T08:33:01Z</time>
      </trkpt>
      <trkpt lat="48.313415" lon="7.712161">
        <ele>212.0</ele>
        <time>2020-07-12T08:33:03Z</time>
      </trkpt>
      <trkpt lat="48.313395" lon="7.712113">
        <ele>212.0</ele>
        <time>2020-07-12T08:33:05Z</time>
      </trkpt>
      <trkpt lat="48.313382" lon="7.712053">
        <ele>212.0</ele>
        <time>2020-07-12T08:33:07Z</time>
      </trkpt>
      <trkpt lat="48.313359" lon="7.712001">
        <ele>213.0</ele>
        <time>2020-07-12T08:33:09Z</time>
      </trkpt>
      <trkpt lat="48.313326" lon="7.711951">
        <ele>213.0</ele>
        <time>2020-07-12T08:33:11Z</time>
      </trkpt>
      <trkpt lat="48.313295" lon="7.71189">
        <ele>213.0</ele>
        <time>2020-07-12T08:33:13Z</time>
      </trkpt>
      <trkpt lat="48.313263" lon="7.711825">
        <ele>213.0</ele>
        <time>2020-07-12T08:33:15Z</time>
      </trkpt>
      <trkpt lat="48.313239" lon="7.711765">
        <ele>213.0</ele>
        <time>2020-07-12T08:33:17Z</time>
      </trkpt>
      <trkpt lat="48.313215" lon="7.711705">
        <ele>213.0</ele>
        <time>2020-07-12T08:33:19Z</time>
      </trkpt>
      <trkpt lat="48.313182" lon="7.711675">
        <ele>213.0</ele>
        <time>2020-07-12T08:33:21Z</time>
      </trkpt>
      <trkpt lat="48.313165" lon="7.711602">
        <ele>212.0</ele>
        <time>2020-07-12T08:33:23Z</time>
      </trkpt>
      <trkpt lat="48.313149" lon="7.711527">
        <ele>212.0</ele>
        <time>2020-07-12T08:33:25Z</time>
      </trkpt>
      <trkpt lat="48.313127" lon="7.711447">
        <ele>212.0</ele>
        <time>2020-07-12T08:33:27Z</time>
      </trkpt>
      <trkpt lat="48.31311" lon="7.711359">
        <ele>213.0</ele>
        <time>2020-07-12T08:33:29Z</time>
      </trkpt>
      <trkpt lat="48.313082" lon="7.711269">
        <ele>213.0</ele>
        <time>2020-07-12T08:33:31Z</time>
      </trkpt>
      <trkpt lat="48.313063" lon="7.711181">
        <ele>213.0</ele>
        <time>2020-07-12T08:33:33Z</time>
      </trkpt>
      <trkpt lat="48.313041" lon="7.711105">
        <ele>212.0</ele>
        <time>2020-07-12T08:33:35Z</time>
      </trkpt>
      <trkpt lat="48.313022" lon="7.711033">
        <ele>212.0</ele>
        <time>2020-07-12T08:33:37Z</time>
      </trkpt>
      <trkpt lat="48.313002" lon="7.710958">
        <ele>212.0</ele>
        <time>2020-07-12T08:33:39Z</time>
      </trkpt>
      <trkpt lat="48.312988" lon="7.71089">
        <ele>212.0</ele>
        <time>2020-07-12T08:33:41Z</time>
      </trkpt>
      <trkpt lat="48.31297" lon="7.710823">
        <ele>212.0</ele>
        <time>2020-07-12T08:33:43Z</time>
      </trkpt>
      <trkpt lat="48.312951" lon="7.710738">
        <ele>212.0</ele>
        <time>2020-07-12T08:33:45Z</time>
      </trkpt>
      <trkpt lat="48.312931" lon="7.710654">
        <ele>212.0</ele>
        <time>2020-07-12T08:33:47Z</time>
      </trkpt>
      <trkpt lat="48.312908" lon="7.710574">
        <ele>211.0</ele>
        <time>2020-07-12T08:33:49Z</time>
      </trkpt>
      <trkpt lat="48.312871" lon="7.710547">
        <ele>211.0</ele>
        <time>2020-07-12T08:33:51Z</time>
      </trkpt>
      <trkpt lat="48.312867" lon="7.710546">
        <ele>212.0</ele>
        <time>2020-07-12T08:33:53Z</time>
      </trkpt>
      <trkpt lat="48.312872" lon="7.710558">
        <ele>212.0</ele>
        <time>2020-07-12T08:33:55Z</time>
      </trkpt>
      <trkpt lat="48.312872" lon="7.710559">
        <ele>212.0</ele>
        <time>2020-07-12T08:33:57Z</time>
      </trkpt>
      <trkpt lat="48.312872" lon="7.710559">
        <ele>212.0</ele>
        <time>2020-07-12T08:33:59Z</time>
      </trkpt>
      <trkpt lat="48.312872" lon="7.710559">
        <ele>212.0</ele>
        <time>2020-07-12T08:35:40Z</time>
      </trkpt>
      <trkpt lat="48.312872" lon="7.710559">
        <ele>212.0</ele>
        <time>2020-07-12T08:35:42Z</time>
      </trkpt>
      <trkpt lat="48.312872" lon="7.710559">
        <ele>212.0</ele>
        <time>2020-07-12T08:35:44Z</time>
      </trkpt>
      <trkpt lat="48.312872" lon="7.710559">
        <ele>212.0</ele>
        <time>2020-07-12T08:35:46Z</time>
      </trkpt>
      <trkpt lat="48.312872" lon="7.710559">
        <ele>212.0</ele>
        <time>2020-07-12T08:35:48Z</time>
      </trkpt>
      <trkpt lat="48.312872" lon="7.710559">
        <ele>212.0</ele>
        <time>2020-07-12T08:35:50Z</time>
      </trkpt>
      <trkpt lat="48.312872" lon="7.710559">
        <ele>212.0</ele>
        <time>2020-07-12T08:35:52Z</time>
      </trkpt>
      <trkpt lat="48.312872" lon="7.710559">
        <ele>212.0</ele>
        <time>2020-07-12T08:35:54Z</time>
      </trkpt>
      <trkpt lat="48.312872" lon="7.710559">
        <ele>212.0</ele>
        <time>2020-07-12T08:35:56Z</time>
      </trkpt>
      <trkpt lat="48.312872" lon="7.710559">
        <ele>212.0</ele>
        <time>2020-07-12T08:35:58Z</time>
      </trkpt>
      <trkpt lat="48.312872" lon="7.710559">
        <ele>212.0</ele>
        <time>2020-07-12T08:36:00Z</time>
      </trkpt>
      <trkpt lat="48.312872" lon="7.710559">
        <ele>212.0</ele>
        <time>2020-07-12T08:36:02Z</time>
      </trkpt>
      <trkpt lat="48.312872" lon="7.710559">
        <ele>212.0</ele>
        <time>2020-07-12T08:36:04Z</time>
      </trkpt>
      <trkpt lat="48.312878" lon="7.710531">
        <ele>212.0</ele>
        <time>2020-07-12T08:36:06Z</time>
      </trkpt>
      <trkpt lat="48.312886" lon="7.710488">
        <ele>212.0</ele>
        <time>2020-07-12T08:36:08Z</time>
      </trkpt>
      <trkpt lat="48.312875" lon="7.710411">
        <ele>212.0</ele>
        <time>2020-07-12T08:36:10Z</time>
      </trkpt>
      <trkpt lat="48.312846" lon="7.710314">
        <ele>212.0</ele>
        <time>2020-07-12T08:36:12Z</time>
      </trkpt>
      <trkpt lat="48.312818" lon="7.71021">
        <ele>213.0</ele>
        <time>2020-07-12T08:36:14Z</time>
      </trkpt>
      <trkpt lat="48.312794" lon="7.710099">
        <ele>213.0</ele>
        <time>2020-07-12T08:36:16Z</time>
      </trkpt>
      <trkpt lat="48.312763" lon="7.709964">
        <ele>212.0</ele>
        <time>2020-07-12T08:36:18Z</time>
      </trkpt>
      <trkpt lat="48.312735" lon="7.709838">
        <ele>213.0</ele>
        <time>2020-07-12T08:36:20Z</time>
      </trkpt>
      <trkpt lat="48.3127" lon="7.709706">
        <ele>212.0</ele>
        <time>2020-07-12T08:36:22Z</time>
      </trkpt>
      <trkpt lat="48.312662" lon="7.709576">
        <ele>212.0</ele>
        <time>2020-07-12T08:36:24Z</time>
      </trkpt>
      <trkpt lat="48.312627" lon="7.709436">
        <ele>211.0</ele>
        <time>2020-07-12T08:36:26Z</time>
      </trkpt>
      <trkpt lat="48.312595" lon="7.709286">
        <ele>211.0</ele>
        <time>2020-07-12T08:36:28Z</time>
      </trkpt>
      <trkpt lat="48.312559" lon="7.709139">
        <ele>211.0</ele>
        <time>2020-07-12T08:36:30Z</time>
      </trkpt>
      <trkpt lat="48.31252" lon="7.708997">
        <ele>211.0</ele>
        <time>2020-07-12T08:36:32Z</time>
      </trkpt>
      <trkpt lat="48.31248" lon="7.708845">
        <ele>211.0</ele>
        <time>2020-07-12T08:36:34Z</time>
      </trkpt>
      <trkpt lat="48.312445" lon="7.708694">
        <ele>211.0</ele>
        <time>2020-07-12T08:36:36Z</time>
      </trkpt>
      <trkpt lat="48.312409" lon="7.708543">
        <ele>211.0</ele>
        <time>2020-07-12T08:36:38Z</time>
      </trkpt>
      <trkpt lat="48.312372" lon="7.708393">
        <ele>211.0</ele>
        <time>2020-07-12T08:36:40Z</time>
      </trkpt>
      <trkpt lat="48.312339" lon="7.70825">
        <ele>211.0</ele>
        <time>2020-07-12T08:36:42Z</time>
      </trkpt>
      <trkpt lat="48.312302" lon="7.708105">
        <ele>211.0</ele>
        <time>2020-07-12T08:36:44Z</time>
      </trkpt>
      <trkpt lat="48.312267" lon="7.707953">
        <ele>211.0</ele>
        <time>2020-07-12T08:36:46Z</time>
      </trkpt>
      <trkpt lat="48.312229" lon="7.707801">
        <ele>211.0</ele>
        <time>2020-07-12T08:36:48Z</time>
      </trkpt>
      <trkpt lat="48.312191" lon="7.707653">
        <ele>211.0</ele>
        <time>2020-07-12T08:36:50Z</time>
      </trkpt>
      <trkpt lat="48.312151" lon="7.707506">
        <ele>211.0</ele>
        <time>2020-07-12T08:36:52Z</time>
      </trkpt>
      <trkpt lat="48.312115" lon="7.707364">
        <ele>211.0</ele>
        <time>2020-07-12T08:36:54Z</time>
      </trkpt>
      <trkpt lat="48.312079" lon="7.707212">
        <ele>211.0</ele>
        <time>2020-07-12T08:36:56Z</time>
      </trkpt>
      <trkpt lat="48.312038" lon="7.707068">
        <ele>211.0</ele>
        <time>2020-07-12T08:36:58Z</time>
      </trkpt>
      <trkpt lat="48.311998" lon="7.70692">
        <ele>210.0</ele>
        <time>2020-07-12T08:37:00Z</time>
      </trkpt>
      <trkpt lat="48.311961" lon="7.70677">
        <ele>210.0</ele>
        <time>2020-07-12T08:37:02Z</time>
      </trkpt>
      <trkpt lat="48.311929" lon="7.706627">
        <ele>210.0</ele>
        <time>2020-07-12T08:37:04Z</time>
      </trkpt>
      <trkpt lat="48.311888" lon="7.706482">
        <ele>210.0</ele>
        <time>2020-07-12T08:37:06Z</time>
      </trkpt>
      <trkpt lat="48.31186" lon="7.706335">
        <ele>209.0</ele>
        <time>2020-07-12T08:37:08Z</time>
      </trkpt>
      <trkpt lat="48.311831" lon="7.706191">
        <ele>210.0</ele>
        <time>2020-07-12T08:37:10Z</time>
      </trkpt>
      <trkpt lat="48.311815" lon="7.706048">
        <ele>210.0</ele>
        <time>2020-07-12T08:37:12Z</time>
      </trkpt>
      <trkpt lat="48.311802" lon="7.705915">
        <ele>210.0</ele>
        <time>2020-07-12T08:37:14Z</time>
      </trkpt>
      <trkpt lat="48.311784" lon="7.705788">
        <ele>211.0</ele>
        <time>2020-07-12T08:37:16Z</time>
      </trkpt>
      <trkpt lat="48.311767" lon="7.705679">
        <ele>211.0</ele>
        <time>2020-07-12T08:37:18Z</time>
      </trkpt>
      <trkpt lat="48.311746" lon="7.705627">
        <ele>211.0</ele>
        <time>2020-07-12T08:37:20Z</time>
      </trkpt>
      <trkpt lat="48.311745" lon="7.705628">
        <ele>211.0</ele>
        <time>2020-07-12T08:37:22Z</time>
      </trkpt>
      <trkpt lat="48.311746" lon="7.705624">
        <ele>211.0</ele>
        <time>2020-07-12T08:37:24Z</time>
      </trkpt>
      <trkpt lat="48.311746" lon="7.705624">
        <ele>211.0</ele>
        <time>2020-07-12T08:37:26Z</time>
      </trkpt>
      <trkpt lat="48.311729" lon="7.705627">
        <ele>211.0</ele>
        <time>2020-07-12T08:37:28Z</time>
      </trkpt>
      <trkpt lat="48.311717" lon="7.705612">
        <ele>211.0</ele>
        <time>2020-07-12T08:37:30Z</time>
      </trkpt>
      <trkpt lat="48.311709" lon="7.705567">
        <ele>211.0</ele>
        <time>2020-07-12T08:37:32Z</time>
      </trkpt>
      <trkpt lat="48.311721" lon="7.705513">
        <ele>211.0</ele>
        <time>2020-07-12T08:37:34Z</time>
      </trkpt>
      <trkpt lat="48.311756" lon="7.705468">
        <ele>212.0</ele>
        <time>2020-07-12T08:37:36Z</time>
      </trkpt>
      <trkpt lat="48.311809" lon="7.705436">
        <ele>212.0</ele>
        <time>2020-07-12T08:37:38Z</time>
      </trkpt>
      <trkpt lat="48.311863" lon="7.705376">
        <ele>212.0</ele>
        <time>2020-07-12T08:37:40Z</time>
      </trkpt>
      <trkpt lat="48.311881" lon="7.705261">
        <ele>211.0</ele>
        <time>2020-07-12T08:37:42Z</time>
      </trkpt>
      <trkpt lat="48.31185" lon="7.70514">
        <ele>211.0</ele>
        <time>2020-07-12T08:37:44Z</time>
      </trkpt>
      <trkpt lat="48.311782" lon="7.705046">
        <ele>212.0</ele>
        <time>2020-07-12T08:37:46Z</time>
      </trkpt>
      <trkpt lat="48.311703" lon="7.704972">
        <ele>212.0</ele>
        <time>2020-07-12T08:37:48Z</time>
      </trkpt>
      <trkpt lat="48.311648" lon="7.704855">
        <ele>212.0</ele>
        <time>2020-07-12T08:37:50Z</time>
      </trkpt>
      <trkpt lat="48.311595" lon="7.704729">
        <ele>212.0</ele>
        <time>2020-07-12T08:37:52Z</time>
      </trkpt>
      <trkpt lat="48.31152" lon="7.704517">
        <ele>212.0</ele>
        <time>2020-07-12T08:37:55Z</time>
      </trkpt>
      <trkpt lat="48.311478" lon="7.704367">
        <ele>212.0</ele>
        <time>2020-07-12T08:37:57Z</time>
      </trkpt>
      <trkpt lat="48.311442" lon="7.704211">
        <ele>213.0</ele>
        <time>2020-07-12T08:37:59Z</time>
      </trkpt>
      <trkpt lat="48.3114" lon="7.70405">
        <ele>213.0</ele>
        <time>2020-07-12T08:38:01Z</time>
      </trkpt>
      <trkpt lat="48.311364" lon="7.703888">
        <ele>213.0</ele>
        <time>2020-07-12T08:38:03Z</time>
      </trkpt>
      <trkpt lat="48.311324" lon="7.703721">
        <ele>213.0</ele>
        <time>2020-07-12T08:38:05Z</time>
      </trkpt>
      <trkpt lat="48.311283" lon="7.703551">
        <ele>213.0</ele>
        <time>2020-07-12T08:38:07Z</time>
      </trkpt>
      <trkpt lat="48.311239" lon="7.703384">
        <ele>213.0</ele>
        <time>2020-07-12T08:38:09Z</time>
      </trkpt>
      <trkpt lat="48.3112" lon="7.70322">
        <ele>214.0</ele>
        <time>2020-07-12T08:38:11Z</time>
      </trkpt>
      <trkpt lat="48.31116" lon="7.703054">
        <ele>214.0</ele>
        <time>2020-07-12T08:38:13Z</time>
      </trkpt>
      <trkpt lat="48.31112" lon="7.702888">
        <ele>213.0</ele>
        <time>2020-07-12T08:38:15Z</time>
      </trkpt>
      <trkpt lat="48.311079" lon="7.702716">
        <ele>213.0</ele>
        <time>2020-07-12T08:38:17Z</time>
      </trkpt>
      <trkpt lat="48.31104" lon="7.702546">
        <ele>212.0</ele>
        <time>2020-07-12T08:38:19Z</time>
      </trkpt>
      <trkpt lat="48.311004" lon="7.702379">
        <ele>212.0</ele>
        <time>2020-07-12T08:38:21Z</time>
      </trkpt>
      <trkpt lat="48.310967" lon="7.702213">
        <ele>213.0</ele>
        <time>2020-07-12T08:38:23Z</time>
      </trkpt>
      <trkpt lat="48.310927" lon="7.70205">
        <ele>213.0</ele>
        <time>2020-07-12T08:38:25Z</time>
      </trkpt>
      <trkpt lat="48.310887" lon="7.701888">
        <ele>213.0</ele>
        <time>2020-07-12T08:38:27Z</time>
      </trkpt>
      <trkpt lat="48.310855" lon="7.701726">
        <ele>213.0</ele>
        <time>2020-07-12T08:38:29Z</time>
      </trkpt>
      <trkpt lat="48.310817" lon="7.701567">
        <ele>213.0</ele>
        <time>2020-07-12T08:38:31Z</time>
      </trkpt>
      <trkpt lat="48.31078" lon="7.701408">
        <ele>213.0</ele>
        <time>2020-07-12T08:38:33Z</time>
      </trkpt>
      <trkpt lat="48.310741" lon="7.701241">
        <ele>213.0</ele>
        <time>2020-07-12T08:38:35Z</time>
      </trkpt>
      <trkpt lat="48.310701" lon="7.701073">
        <ele>213.0</ele>
        <time>2020-07-12T08:38:37Z</time>
      </trkpt>
      <trkpt lat="48.310654" lon="7.700905">
        <ele>213.0</ele>
        <time>2020-07-12T08:38:39Z</time>
      </trkpt>
      <trkpt lat="48.310618" lon="7.700743">
        <ele>213.0</ele>
        <time>2020-07-12T08:38:41Z</time>
      </trkpt>
      <trkpt lat="48.310585" lon="7.700578">
        <ele>213.0</ele>
        <time>2020-07-12T08:38:43Z</time>
      </trkpt>
      <trkpt lat="48.310546" lon="7.700403">
        <ele>213.0</ele>
        <time>2020-07-12T08:38:45Z</time>
      </trkpt>
      <trkpt lat="48.310505" lon="7.700231">
        <ele>213.0</ele>
        <time>2020-07-12T08:38:47Z</time>
      </trkpt>
      <trkpt lat="48.310463" lon="7.700069">
        <ele>213.0</ele>
        <time>2020-07-12T08:38:49Z</time>
      </trkpt>
      <trkpt lat="48.310423" lon="7.699898">
        <ele>213.0</ele>
        <time>2020-07-12T08:38:51Z</time>
      </trkpt>
      <trkpt lat="48.310381" lon="7.699726">
        <ele>213.0</ele>
        <time>2020-07-12T08:38:53Z</time>
      </trkpt>
      <trkpt lat="48.310346" lon="7.699552">
        <ele>213.0</ele>
        <time>2020-07-12T08:38:55Z</time>
      </trkpt>
      <trkpt lat="48.31031" lon="7.699383">
        <ele>213.0</ele>
        <time>2020-07-12T08:38:57Z</time>
      </trkpt>
      <trkpt lat="48.310272" lon="7.699217">
        <ele>213.0</ele>
        <time>2020-07-12T08:38:59Z</time>
      </trkpt>
      <trkpt lat="48.310227" lon="7.699049">
        <ele>214.0</ele>
        <time>2020-07-12T08:39:01Z</time>
      </trkpt>
      <trkpt lat="48.310187" lon="7.698872">
        <ele>213.0</ele>
        <time>2020-07-12T08:39:03Z</time>
      </trkpt>
      <trkpt lat="48.310151" lon="7.698711">
        <ele>213.0</ele>
        <time>2020-07-12T08:39:05Z</time>
      </trkpt>
      <trkpt lat="48.310115" lon="7.69854">
        <ele>214.0</ele>
        <time>2020-07-12T08:39:07Z</time>
      </trkpt>
      <trkpt lat="48.310076" lon="7.698362">
        <ele>214.0</ele>
        <time>2020-07-12T08:39:09Z</time>
      </trkpt>
      <trkpt lat="48.310036" lon="7.698188">
        <ele>214.0</ele>
        <time>2020-07-12T08:39:11Z</time>
      </trkpt>
      <trkpt lat="48.309995" lon="7.69802">
        <ele>214.0</ele>
        <time>2020-07-12T08:39:13Z</time>
      </trkpt>
      <trkpt lat="48.309955" lon="7.697841">
        <ele>215.0</ele>
        <time>2020-07-12T08:39:15Z</time>
      </trkpt>
      <trkpt lat="48.309914" lon="7.697667">
        <ele>214.0</ele>
        <time>2020-07-12T08:39:17Z</time>
      </trkpt>
      <trkpt lat="48.309867" lon="7.697503">
        <ele>214.0</ele>
        <time>2020-07-12T08:39:19Z</time>
      </trkpt>
      <trkpt lat="48.309818" lon="7.697334">
        <ele>215.0</ele>
        <time>2020-07-12T08:39:21Z</time>
      </trkpt>
      <trkpt lat="48.309775" lon="7.697163">
        <ele>214.0</ele>
        <time>2020-07-12T08:39:23Z</time>
      </trkpt>
      <trkpt lat="48.30973" lon="7.69699">
        <ele>214.0</ele>
        <time>2020-07-12T08:39:25Z</time>
      </trkpt>
      <trkpt lat="48.309688" lon="7.696821">
        <ele>214.0</ele>
        <time>2020-07-12T08:39:27Z</time>
      </trkpt>
      <trkpt lat="48.309643" lon="7.696647">
        <ele>215.0</ele>
        <time>2020-07-12T08:39:29Z</time>
      </trkpt>
      <trkpt lat="48.309599" lon="7.696473">
        <ele>214.0</ele>
        <time>2020-07-12T08:39:31Z</time>
      </trkpt>
      <trkpt lat="48.309554" lon="7.696304">
        <ele>214.0</ele>
        <time>2020-07-12T08:39:33Z</time>
      </trkpt>
      <trkpt lat="48.30951" lon="7.696138">
        <ele>214.0</ele>
        <time>2020-07-12T08:39:35Z</time>
      </trkpt>
      <trkpt lat="48.309467" lon="7.695971">
        <ele>215.0</ele>
        <time>2020-07-12T08:39:37Z</time>
      </trkpt>
      <trkpt lat="48.309423" lon="7.695809">
        <ele>215.0</ele>
        <time>2020-07-12T08:39:39Z</time>
      </trkpt>
      <trkpt lat="48.309379" lon="7.69564">
        <ele>215.0</ele>
        <time>2020-07-12T08:39:41Z</time>
      </trkpt>
      <trkpt lat="48.30933" lon="7.695477">
        <ele>215.0</ele>
        <time>2020-07-12T08:39:43Z</time>
      </trkpt>
      <trkpt lat="48.309282" lon="7.695306">
        <ele>215.0</ele>
        <time>2020-07-12T08:39:45Z</time>
      </trkpt>
      <trkpt lat="48.309236" lon="7.695133">
        <ele>215.0</ele>
        <time>2020-07-12T08:39:47Z</time>
      </trkpt>
      <trkpt lat="48.309181" lon="7.694968">
        <ele>215.0</ele>
        <time>2020-07-12T08:39:49Z</time>
      </trkpt>
      <trkpt lat="48.309135" lon="7.694802">
        <ele>215.0</ele>
        <time>2020-07-12T08:39:51Z</time>
      </trkpt>
      <trkpt lat="48.309082" lon="7.694643">
        <ele>215.0</ele>
        <time>2020-07-12T08:39:53Z</time>
      </trkpt>
      <trkpt lat="48.309031" lon="7.694484">
        <ele>215.0</ele>
        <time>2020-07-12T08:39:55Z</time>
      </trkpt>
      <trkpt lat="48.308977" lon="7.69432">
        <ele>215.0</ele>
        <time>2020-07-12T08:39:57Z</time>
      </trkpt>
      <trkpt lat="48.308925" lon="7.694162">
        <ele>214.0</ele>
        <time>2020-07-12T08:39:59Z</time>
      </trkpt>
      <trkpt lat="48.308878" lon="7.694004">
        <ele>214.0</ele>
        <time>2020-07-12T08:40:01Z</time>
      </trkpt>
      <trkpt lat="48.308823" lon="7.693855">
        <ele>214.0</ele>
        <time>2020-07-12T08:40:03Z</time>
      </trkpt>
      <trkpt lat="48.308766" lon="7.693704">
        <ele>214.0</ele>
        <time>2020-07-12T08:40:05Z</time>
      </trkpt>
      <trkpt lat="48.30872" lon="7.693544">
        <ele>214.0</ele>
        <time>2020-07-12T08:40:07Z</time>
      </trkpt>
      <trkpt lat="48.308667" lon="7.693383">
        <ele>214.0</ele>
        <time>2020-07-12T08:40:09Z</time>
      </trkpt>
      <trkpt lat="48.308608" lon="7.693229">
        <ele>213.0</ele>
        <time>2020-07-12T08:40:11Z</time>
      </trkpt>
      <trkpt lat="48.308553" lon="7.693071">
        <ele>213.0</ele>
        <time>2020-07-12T08:40:13Z</time>
      </trkpt>
      <trkpt lat="48.308493" lon="7.692914">
        <ele>213.0</ele>
        <time>2020-07-12T08:40:15Z</time>
      </trkpt>
      <trkpt lat="48.308431" lon="7.692754">
        <ele>213.0</ele>
        <time>2020-07-12T08:40:17Z</time>
      </trkpt>
      <trkpt lat="48.308368" lon="7.692596">
        <ele>213.0</ele>
        <time>2020-07-12T08:40:19Z</time>
      </trkpt>
      <trkpt lat="48.308304" lon="7.692443">
        <ele>213.0</ele>
        <time>2020-07-12T08:40:21Z</time>
      </trkpt>
      <trkpt lat="48.308244" lon="7.692285">
        <ele>212.0</ele>
        <time>2020-07-12T08:40:23Z</time>
      </trkpt>
      <trkpt lat="48.308184" lon="7.692125">
        <ele>213.0</ele>
        <time>2020-07-12T08:40:25Z</time>
      </trkpt>
      <trkpt lat="48.30812" lon="7.691966">
        <ele>213.0</ele>
        <time>2020-07-12T08:40:27Z</time>
      </trkpt>
      <trkpt lat="48.308054" lon="7.691813">
        <ele>213.0</ele>
        <time>2020-07-12T08:40:29Z</time>
      </trkpt>
      <trkpt lat="48.30799" lon="7.691657">
        <ele>213.0</ele>
        <time>2020-07-12T08:40:31Z</time>
      </trkpt>
      <trkpt lat="48.307924" lon="7.6915">
        <ele>212.0</ele>
        <time>2020-07-12T08:40:33Z</time>
      </trkpt>
      <trkpt lat="48.307858" lon="7.691347">
        <ele>212.0</ele>
        <time>2020-07-12T08:40:35Z</time>
      </trkpt>
      <trkpt lat="48.307791" lon="7.691198">
        <ele>213.0</ele>
        <time>2020-07-12T08:40:37Z</time>
      </trkpt>
      <trkpt lat="48.307723" lon="7.691046">
        <ele>213.0</ele>
        <time>2020-07-12T08:40:39Z</time>
      </trkpt>
      <trkpt lat="48.307651" lon="7.690891">
        <ele>213.0</ele>
        <time>2020-07-12T08:40:41Z</time>
      </trkpt>
      <trkpt lat="48.307585" lon="7.690732">
        <ele>212.0</ele>
        <time>2020-07-12T08:40:43Z</time>
      </trkpt>
      <trkpt lat="48.307516" lon="7.690578">
        <ele>212.0</ele>
        <time>2020-07-12T08:40:45Z</time>
      </trkpt>
      <trkpt lat="48.307443" lon="7.690429">
        <ele>212.0</ele>
        <time>2020-07-12T08:40:47Z</time>
      </trkpt>
      <trkpt lat="48.307374" lon="7.690276">
        <ele>212.0</ele>
        <time>2020-07-12T08:40:49Z</time>
      </trkpt>
      <trkpt lat="48.307301" lon="7.690123">
        <ele>212.0</ele>
        <time>2020-07-12T08:40:51Z</time>
      </trkpt>
      <trkpt lat="48.307222" lon="7.689966">
        <ele>212.0</ele>
        <time>2020-07-12T08:40:53Z</time>
      </trkpt>
      <trkpt lat="48.307103" lon="7.689738">
        <ele>212.0</ele>
        <time>2020-07-12T08:40:56Z</time>
      </trkpt>
      <trkpt lat="48.30703" lon="7.689585">
        <ele>212.0</ele>
        <time>2020-07-12T08:40:58Z</time>
      </trkpt>
      <trkpt lat="48.306955" lon="7.689438">
        <ele>213.0</ele>
        <time>2020-07-12T08:41:00Z</time>
      </trkpt>
      <trkpt lat="48.306876" lon="7.689287">
        <ele>213.0</ele>
        <time>2020-07-12T08:41:02Z</time>
      </trkpt>
      <trkpt lat="48.306793" lon="7.689137">
        <ele>213.0</ele>
        <time>2020-07-12T08:41:04Z</time>
      </trkpt>
      <trkpt lat="48.306713" lon="7.688992">
        <ele>213.0</ele>
        <time>2020-07-12T08:41:06Z</time>
      </trkpt>
      <trkpt lat="48.306635" lon="7.688844">
        <ele>214.0</ele>
        <time>2020-07-12T08:41:08Z</time>
      </trkpt>
      <trkpt lat="48.306554" lon="7.688696">
        <ele>214.0</ele>
        <time>2020-07-12T08:41:10Z</time>
      </trkpt>
      <trkpt lat="48.306475" lon="7.688554">
        <ele>214.0</ele>
        <time>2020-07-12T08:41:12Z</time>
      </trkpt>
      <trkpt lat="48.306394" lon="7.688416">
        <ele>214.0</ele>
        <time>2020-07-12T08:41:14Z</time>
      </trkpt>
      <trkpt lat="48.306313" lon="7.688274">
        <ele>214.0</ele>
        <time>2020-07-12T08:41:16Z</time>
      </trkpt>
      <trkpt lat="48.30623" lon="7.688132">
        <ele>214.0</ele>
        <time>2020-07-12T08:41:18Z</time>
      </trkpt>
      <trkpt lat="48.306149" lon="7.687986">
        <ele>213.0</ele>
        <time>2020-07-12T08:41:20Z</time>
      </trkpt>
      <trkpt lat="48.306072" lon="7.687842">
        <ele>213.0</ele>
        <time>2020-07-12T08:41:22Z</time>
      </trkpt>
      <trkpt lat="48.305992" lon="7.687704">
        <ele>213.0</ele>
        <time>2020-07-12T08:41:24Z</time>
      </trkpt>
      <trkpt lat="48.305908" lon="7.687564">
        <ele>213.0</ele>
        <time>2020-07-12T08:41:26Z</time>
      </trkpt>
      <trkpt lat="48.305827" lon="7.687428">
        <ele>213.0</ele>
        <time>2020-07-12T08:41:28Z</time>
      </trkpt>
      <trkpt lat="48.305746" lon="7.687292">
        <ele>212.0</ele>
        <time>2020-07-12T08:41:30Z</time>
      </trkpt>
      <trkpt lat="48.305666" lon="7.687162">
        <ele>212.0</ele>
        <time>2020-07-12T08:41:32Z</time>
      </trkpt>
      <trkpt lat="48.305577" lon="7.687027">
        <ele>212.0</ele>
        <time>2020-07-12T08:41:34Z</time>
      </trkpt>
      <trkpt lat="48.305497" lon="7.686897">
        <ele>212.0</ele>
        <time>2020-07-12T08:41:36Z</time>
      </trkpt>
      <trkpt lat="48.305412" lon="7.68677">
        <ele>212.0</ele>
        <time>2020-07-12T08:41:38Z</time>
      </trkpt>
      <trkpt lat="48.305323" lon="7.686644">
        <ele>212.0</ele>
        <time>2020-07-12T08:41:40Z</time>
      </trkpt>
      <trkpt lat="48.305233" lon="7.686512">
        <ele>212.0</ele>
        <time>2020-07-12T08:41:42Z</time>
      </trkpt>
      <trkpt lat="48.305144" lon="7.686375">
        <ele>211.0</ele>
        <time>2020-07-12T08:41:44Z</time>
      </trkpt>
      <trkpt lat="48.305051" lon="7.686248">
        <ele>211.0</ele>
        <time>2020-07-12T08:41:46Z</time>
      </trkpt>
      <trkpt lat="48.304962" lon="7.686122">
        <ele>212.0</ele>
        <time>2020-07-12T08:41:48Z</time>
      </trkpt>
      <trkpt lat="48.30487" lon="7.685995">
        <ele>212.0</ele>
        <time>2020-07-12T08:41:50Z</time>
      </trkpt>
      <trkpt lat="48.30478" lon="7.68587">
        <ele>212.0</ele>
        <time>2020-07-12T08:41:52Z</time>
      </trkpt>
      <trkpt lat="48.304691" lon="7.68575">
        <ele>213.0</ele>
        <time>2020-07-12T08:41:54Z</time>
      </trkpt>
      <trkpt lat="48.304604" lon="7.685617">
        <ele>212.0</ele>
        <time>2020-07-12T08:41:56Z</time>
      </trkpt>
      <trkpt lat="48.304512" lon="7.685497">
        <ele>213.0</ele>
        <time>2020-07-12T08:41:58Z</time>
      </trkpt>
      <trkpt lat="48.30442" lon="7.685369">
        <ele>213.0</ele>
        <time>2020-07-12T08:42:00Z</time>
      </trkpt>
      <trkpt lat="48.304323" lon="7.68524">
        <ele>213.0</ele>
        <time>2020-07-12T08:42:02Z</time>
      </trkpt>
      <trkpt lat="48.304227" lon="7.685118">
        <ele>213.0</ele>
        <time>2020-07-12T08:42:04Z</time>
      </trkpt>
      <trkpt lat="48.304135" lon="7.68499">
        <ele>213.0</ele>
        <time>2020-07-12T08:42:06Z</time>
      </trkpt>
      <trkpt lat="48.304037" lon="7.684875">
        <ele>213.0</ele>
        <time>2020-07-12T08:42:08Z</time>
      </trkpt>
      <trkpt lat="48.303937" lon="7.684763">
        <ele>213.0</ele>
        <time>2020-07-12T08:42:10Z</time>
      </trkpt>
      <trkpt lat="48.303837" lon="7.684643">
        <ele>213.0</ele>
        <time>2020-07-12T08:42:12Z</time>
      </trkpt>
      <trkpt lat="48.30374" lon="7.684526">
        <ele>213.0</ele>
        <time>2020-07-12T08:42:14Z</time>
      </trkpt>
      <trkpt lat="48.30364" lon="7.684407">
        <ele>213.0</ele>
        <time>2020-07-12T08:42:16Z</time>
      </trkpt>
      <trkpt lat="48.303539" lon="7.684294">
        <ele>213.0</ele>
        <time>2020-07-12T08:42:18Z</time>
      </trkpt>
      <trkpt lat="48.303442" lon="7.684171">
        <ele>213.0</ele>
        <time>2020-07-12T08:42:20Z</time>
      </trkpt>
      <trkpt lat="48.303341" lon="7.68405">
        <ele>213.0</ele>
        <time>2020-07-12T08:42:22Z</time>
      </trkpt>
      <trkpt lat="48.303238" lon="7.683936">
        <ele>213.0</ele>
        <time>2020-07-12T08:42:24Z</time>
      </trkpt>
      <trkpt lat="48.303134" lon="7.683824">
        <ele>213.0</ele>
        <time>2020-07-12T08:42:26Z</time>
      </trkpt>
      <trkpt lat="48.303031" lon="7.683703">
        <ele>213.0</ele>
        <time>2020-07-12T08:42:28Z</time>
      </trkpt>
      <trkpt lat="48.302931" lon="7.683594">
        <ele>214.0</ele>
        <time>2020-07-12T08:42:30Z</time>
      </trkpt>
      <trkpt lat="48.302829" lon="7.683483">
        <ele>214.0</ele>
        <time>2020-07-12T08:42:32Z</time>
      </trkpt>
      <trkpt lat="48.302722" lon="7.683357">
        <ele>213.0</ele>
        <time>2020-07-12T08:42:34Z</time>
      </trkpt>
      <trkpt lat="48.302617" lon="7.683247">
        <ele>214.0</ele>
        <time>2020-07-12T08:42:36Z</time>
      </trkpt>
      <trkpt lat="48.302505" lon="7.683139">
        <ele>214.0</ele>
        <time>2020-07-12T08:42:38Z</time>
      </trkpt>
      <trkpt lat="48.302394" lon="7.68303">
        <ele>214.0</ele>
        <time>2020-07-12T08:42:40Z</time>
      </trkpt>
      <trkpt lat="48.302277" lon="7.682921">
        <ele>214.0</ele>
        <time>2020-07-12T08:42:42Z</time>
      </trkpt>
      <trkpt lat="48.302157" lon="7.682816">
        <ele>213.0</ele>
        <time>2020-07-12T08:42:44Z</time>
      </trkpt>
      <trkpt lat="48.302041" lon="7.682712">
        <ele>214.0</ele>
        <time>2020-07-12T08:42:46Z</time>
      </trkpt>
      <trkpt lat="48.301925" lon="7.682614">
        <ele>214.0</ele>
        <time>2020-07-12T08:42:48Z</time>
      </trkpt>
      <trkpt lat="48.301808" lon="7.682512">
        <ele>214.0</ele>
        <time>2020-07-12T08:42:50Z</time>
      </trkpt>
      <trkpt lat="48.301691" lon="7.682406">
        <ele>214.0</ele>
        <time>2020-07-12T08:42:52Z</time>
      </trkpt>
      <trkpt lat="48.301575" lon="7.682304">
        <ele>214.0</ele>
        <time>2020-07-12T08:42:54Z</time>
      </trkpt>
      <trkpt lat="48.30146" lon="7.682202">
        <ele>214.0</ele>
        <time>2020-07-12T08:42:56Z</time>
      </trkpt>
      <trkpt lat="48.301349" lon="7.682102">
        <ele>214.0</ele>
        <time>2020-07-12T08:42:58Z</time>
      </trkpt>
      <trkpt lat="48.301234" lon="7.682009">
        <ele>214.0</ele>
        <time>2020-07-12T08:43:00Z</time>
      </trkpt>
      <trkpt lat="48.301115" lon="7.681913">
        <ele>215.0</ele>
        <time>2020-07-12T08:43:02Z</time>
      </trkpt>
      <trkpt lat="48.301009" lon="7.681811">
        <ele>215.0</ele>
        <time>2020-07-12T08:43:04Z</time>
      </trkpt>
      <trkpt lat="48.300893" lon="7.681723">
        <ele>214.0</ele>
        <time>2020-07-12T08:43:06Z</time>
      </trkpt>
      <trkpt lat="48.300778" lon="7.681627">
        <ele>214.0</ele>
        <time>2020-07-12T08:43:08Z</time>
      </trkpt>
      <trkpt lat="48.300665" lon="7.681525">
        <ele>214.0</ele>
        <time>2020-07-12T08:43:10Z</time>
      </trkpt>
      <trkpt lat="48.300563" lon="7.681422">
        <ele>214.0</ele>
        <time>2020-07-12T08:43:12Z</time>
      </trkpt>
      <trkpt lat="48.300453" lon="7.68134">
        <ele>214.0</ele>
        <time>2020-07-12T08:43:14Z</time>
      </trkpt>
      <trkpt lat="48.300337" lon="7.681249">
        <ele>214.0</ele>
        <time>2020-07-12T08:43:16Z</time>
      </trkpt>
      <trkpt lat="48.30022" lon="7.681167">
        <ele>214.0</ele>
        <time>2020-07-12T08:43:18Z</time>
      </trkpt>
      <trkpt lat="48.300102" lon="7.681081">
        <ele>213.0</ele>
        <time>2020-07-12T08:43:20Z</time>
      </trkpt>
      <trkpt lat="48.299979" lon="7.681002">
        <ele>213.0</ele>
        <time>2020-07-12T08:43:22Z</time>
      </trkpt>
      <trkpt lat="48.299857" lon="7.680921">
        <ele>213.0</ele>
        <time>2020-07-12T08:43:24Z</time>
      </trkpt>
      <trkpt lat="48.29974" lon="7.680836">
        <ele>212.0</ele>
        <time>2020-07-12T08:43:26Z</time>
      </trkpt>
      <trkpt lat="48.299627" lon="7.680751">
        <ele>212.0</ele>
        <time>2020-07-12T08:43:28Z</time>
      </trkpt>
      <trkpt lat="48.299513" lon="7.680667">
        <ele>211.0</ele>
        <time>2020-07-12T08:43:30Z</time>
      </trkpt>
      <trkpt lat="48.299399" lon="7.680603">
        <ele>212.0</ele>
        <time>2020-07-12T08:43:32Z</time>
      </trkpt>
      <trkpt lat="48.299287" lon="7.680531">
        <ele>211.0</ele>
        <time>2020-07-12T08:43:34Z</time>
      </trkpt>
      <trkpt lat="48.299172" lon="7.680462">
        <ele>212.0</ele>
        <time>2020-07-12T08:43:36Z</time>
      </trkpt>
      <trkpt lat="48.299058" lon="7.680386">
        <ele>212.0</ele>
        <time>2020-07-12T08:43:38Z</time>
      </trkpt>
      <trkpt lat="48.298961" lon="7.680327">
        <ele>213.0</ele>
        <time>2020-07-12T08:43:40Z</time>
      </trkpt>
      <trkpt lat="48.298861" lon="7.680307">
        <ele>212.0</ele>
        <time>2020-07-12T08:43:42Z</time>
      </trkpt>
      <trkpt lat="48.298763" lon="7.680294">
        <ele>213.0</ele>
        <time>2020-07-12T08:43:44Z</time>
      </trkpt>
      <trkpt lat="48.298671" lon="7.680261">
        <ele>213.0</ele>
        <time>2020-07-12T08:43:46Z</time>
      </trkpt>
      <trkpt lat="48.298576" lon="7.680233">
        <ele>212.0</ele>
        <time>2020-07-12T08:43:48Z</time>
      </trkpt>
      <trkpt lat="48.298475" lon="7.680199">
        <ele>212.0</ele>
        <time>2020-07-12T08:43:50Z</time>
      </trkpt>
      <trkpt lat="48.298383" lon="7.680132">
        <ele>212.0</ele>
        <time>2020-07-12T08:43:52Z</time>
      </trkpt>
      <trkpt lat="48.298299" lon="7.680046">
        <ele>212.0</ele>
        <time>2020-07-12T08:43:54Z</time>
      </trkpt>
      <trkpt lat="48.29822" lon="7.679966">
        <ele>212.0</ele>
        <time>2020-07-12T08:43:56Z</time>
      </trkpt>
      <trkpt lat="48.298131" lon="7.679906">
        <ele>212.0</ele>
        <time>2020-07-12T08:43:58Z</time>
      </trkpt>
      <trkpt lat="48.298033" lon="7.67986">
        <ele>212.0</ele>
        <time>2020-07-12T08:44:00Z</time>
      </trkpt>
      <trkpt lat="48.29793" lon="7.67981">
        <ele>212.0</ele>
        <time>2020-07-12T08:44:02Z</time>
      </trkpt>
      <trkpt lat="48.297828" lon="7.679771">
        <ele>212.0</ele>
        <time>2020-07-12T08:44:04Z</time>
      </trkpt>
      <trkpt lat="48.297734" lon="7.679736">
        <ele>213.0</ele>
        <time>2020-07-12T08:44:06Z</time>
      </trkpt>
      <trkpt lat="48.29764" lon="7.679685">
        <ele>213.0</ele>
        <time>2020-07-12T08:44:08Z</time>
      </trkpt>
      <trkpt lat="48.29755" lon="7.679634">
        <ele>213.0</ele>
        <time>2020-07-12T08:44:10Z</time>
      </trkpt>
      <trkpt lat="48.297459" lon="7.679578">
        <ele>213.0</ele>
        <time>2020-07-12T08:44:12Z</time>
      </trkpt>
      <trkpt lat="48.297372" lon="7.679525">
        <ele>213.0</ele>
        <time>2020-07-12T08:44:14Z</time>
      </trkpt>
      <trkpt lat="48.297294" lon="7.679492">
        <ele>213.0</ele>
        <time>2020-07-12T08:44:16Z</time>
      </trkpt>
      <trkpt lat="48.297215" lon="7.679446">
        <ele>212.0</ele>
        <time>2020-07-12T08:44:18Z</time>
      </trkpt>
      <trkpt lat="48.29713" lon="7.679405">
        <ele>212.0</ele>
        <time>2020-07-12T08:44:20Z</time>
      </trkpt>
      <trkpt lat="48.297046" lon="7.679369">
        <ele>212.0</ele>
        <time>2020-07-12T08:44:22Z</time>
      </trkpt>
      <trkpt lat="48.296959" lon="7.679335">
        <ele>212.0</ele>
        <time>2020-07-12T08:44:24Z</time>
      </trkpt>
      <trkpt lat="48.296871" lon="7.679296">
        <ele>212.0</ele>
        <time>2020-07-12T08:44:26Z</time>
      </trkpt>
      <trkpt lat="48.296785" lon="7.679269">
        <ele>212.0</ele>
        <time>2020-07-12T08:44:28Z</time>
      </trkpt>
      <trkpt lat="48.296705" lon="7.679239">
        <ele>212.0</ele>
        <time>2020-07-12T08:44:30Z</time>
      </trkpt>
      <trkpt lat="48.296659" lon="7.679197">
        <ele>212.0</ele>
        <time>2020-07-12T08:44:32Z</time>
      </trkpt>
      <trkpt lat="48.296656" lon="7.679135">
        <ele>212.0</ele>
        <time>2020-07-12T08:44:34Z</time>
      </trkpt>
      <trkpt lat="48.296694" lon="7.679134">
        <ele>212.0</ele>
        <time>2020-07-12T08:44:36Z</time>
      </trkpt>
      <trkpt lat="48.296721" lon="7.679186">
        <ele>212.0</ele>
        <time>2020-07-12T08:44:38Z</time>
      </trkpt>
      <trkpt lat="48.296759" lon="7.679226">
        <ele>212.0</ele>
        <time>2020-07-12T08:44:40Z</time>
      </trkpt>
      <trkpt lat="48.296808" lon="7.679274">
        <ele>212.0</ele>
        <time>2020-07-12T08:44:42Z</time>
      </trkpt>
      <trkpt lat="48.296864" lon="7.679307">
        <ele>213.0</ele>
        <time>2020-07-12T08:44:44Z</time>
      </trkpt>
      <trkpt lat="48.296933" lon="7.679326">
        <ele>213.0</ele>
        <time>2020-07-12T08:44:46Z</time>
      </trkpt>
      <trkpt lat="48.297004" lon="7.679342">
        <ele>213.0</ele>
        <time>2020-07-12T08:44:48Z</time>
      </trkpt>
      <trkpt lat="48.297079" lon="7.679381">
        <ele>213.0</ele>
        <time>2020-07-12T08:44:50Z</time>
      </trkpt>
      <trkpt lat="48.297152" lon="7.679421">
        <ele>212.0</ele>
        <time>2020-07-12T08:44:52Z</time>
      </trkpt>
      <trkpt lat="48.297267" lon="7.679493">
        <ele>211.0</ele>
        <time>2020-07-12T08:44:55Z</time>
      </trkpt>
      <trkpt lat="48.297348" lon="7.679528">
        <ele>211.0</ele>
        <time>2020-07-12T08:44:57Z</time>
      </trkpt>
      <trkpt lat="48.297431" lon="7.679566">
        <ele>212.0</ele>
        <time>2020-07-12T08:44:59Z</time>
      </trkpt>
      <trkpt lat="48.297508" lon="7.679598">
        <ele>212.0</ele>
        <time>2020-07-12T08:45:01Z</time>
      </trkpt>
      <trkpt lat="48.297582" lon="7.679639">
        <ele>212.0</ele>
        <time>2020-07-12T08:45:03Z</time>
      </trkpt>
      <trkpt lat="48.297672" lon="7.679684">
        <ele>212.0</ele>
        <time>2020-07-12T08:45:05Z</time>
      </trkpt>
      <trkpt lat="48.297761" lon="7.679738">
        <ele>212.0</ele>
        <time>2020-07-12T08:45:07Z</time>
      </trkpt>
      <trkpt lat="48.297849" lon="7.679776">
        <ele>212.0</ele>
        <time>2020-07-12T08:45:09Z</time>
      </trkpt>
      <trkpt lat="48.297937" lon="7.679813">
        <ele>212.0</ele>
        <time>2020-07-12T08:45:11Z</time>
      </trkpt>
      <trkpt lat="48.298012" lon="7.67986">
        <ele>211.0</ele>
        <time>2020-07-12T08:45:13Z</time>
      </trkpt>
      <trkpt lat="48.298088" lon="7.679917">
        <ele>212.0</ele>
        <time>2020-07-12T08:45:15Z</time>
      </trkpt>
      <trkpt lat="48.298168" lon="7.679966">
        <ele>212.0</ele>
        <time>2020-07-12T08:45:17Z</time>
      </trkpt>
      <trkpt lat="48.298254" lon="7.680018">
        <ele>212.0</ele>
        <time>2020-07-12T08:45:19Z</time>
      </trkpt>
      <trkpt lat="48.298332" lon="7.680056">
        <ele>213.0</ele>
        <time>2020-07-12T08:45:21Z</time>
      </trkpt>
      <trkpt lat="48.298409" lon="7.680109">
        <ele>212.0</ele>
        <time>2020-07-12T08:45:23Z</time>
      </trkpt>
      <trkpt lat="48.29848" lon="7.680171">
        <ele>213.0</ele>
        <time>2020-07-12T08:45:25Z</time>
      </trkpt>
      <trkpt lat="48.298555" lon="7.680216">
        <ele>213.0</ele>
        <time>2020-07-12T08:45:27Z</time>
      </trkpt>
      <trkpt lat="48.298637" lon="7.680256">
        <ele>213.0</ele>
        <time>2020-07-12T08:45:29Z</time>
      </trkpt>
      <trkpt lat="48.298713" lon="7.680306">
        <ele>213.0</ele>
        <time>2020-07-12T08:45:31Z</time>
      </trkpt>
      <trkpt lat="48.298793" lon="7.680334">
        <ele>213.0</ele>
        <time>2020-07-12T08:45:33Z</time>
      </trkpt>
      <trkpt lat="48.298869" lon="7.680308">
        <ele>213.0</ele>
        <time>2020-07-12T08:45:35Z</time>
      </trkpt>
      <trkpt lat="48.298917" lon="7.680292">
        <ele>213.0</ele>
        <time>2020-07-12T08:45:37Z</time>
      </trkpt>
      <trkpt lat="48.298924" lon="7.68027">
        <ele>213.0</ele>
        <time>2020-07-12T08:45:39Z</time>
      </trkpt>
      <trkpt lat="48.298915" lon="7.680267">
        <ele>213.0</ele>
        <time>2020-07-12T08:45:41Z</time>
      </trkpt>
      <trkpt lat="48.298911" lon="7.680274">
        <ele>213.0</ele>
        <time>2020-07-12T08:45:43Z</time>
      </trkpt>
      <trkpt lat="48.298914" lon="7.680259">
        <ele>214.0</ele>
        <time>2020-07-12T08:45:45Z</time>
      </trkpt>
      <trkpt lat="48.298921" lon="7.680207">
        <ele>214.0</ele>
        <time>2020-07-12T08:45:47Z</time>
      </trkpt>
      <trkpt lat="48.298876" lon="7.680087">
        <ele>214.0</ele>
        <time>2020-07-12T08:45:50Z</time>
      </trkpt>
      <trkpt lat="48.298812" lon="7.680015">
        <ele>214.0</ele>
        <time>2020-07-12T08:45:52Z</time>
      </trkpt>
      <trkpt lat="48.298759" lon="7.679936">
        <ele>214.0</ele>
        <time>2020-07-12T08:45:54Z</time>
      </trkpt>
      <trkpt lat="48.298693" lon="7.679833">
        <ele>214.0</ele>
        <time>2020-07-12T08:45:56Z</time>
      </trkpt>
      <trkpt lat="48.298617" lon="7.679715">
        <ele>213.0</ele>
        <time>2020-07-12T08:45:58Z</time>
      </trkpt>
      <trkpt lat="48.298537" lon="7.679577">
        <ele>213.0</ele>
        <time>2020-07-12T08:46:00Z</time>
      </trkpt>
      <trkpt lat="48.298462" lon="7.679447">
        <ele>213.0</ele>
        <time>2020-07-12T08:46:02Z</time>
      </trkpt>
      <trkpt lat="48.298383" lon="7.679309">
        <ele>213.0</ele>
        <time>2020-07-12T08:46:04Z</time>
      </trkpt>
      <trkpt lat="48.298307" lon="7.679164">
        <ele>213.0</ele>
        <time>2020-07-12T08:46:06Z</time>
      </trkpt>
      <trkpt lat="48.298225" lon="7.679028">
        <ele>213.0</ele>
        <time>2020-07-12T08:46:08Z</time>
      </trkpt>
      <trkpt lat="48.29814" lon="7.67889">
        <ele>213.0</ele>
        <time>2020-07-12T08:46:10Z</time>
      </trkpt>
      <trkpt lat="48.29805" lon="7.678763">
        <ele>213.0</ele>
        <time>2020-07-12T08:46:12Z</time>
      </trkpt>
      <trkpt lat="48.297957" lon="7.678646">
        <ele>213.0</ele>
        <time>2020-07-12T08:46:14Z</time>
      </trkpt>
      <trkpt lat="48.297865" lon="7.678531">
        <ele>213.0</ele>
        <time>2020-07-12T08:46:16Z</time>
      </trkpt>
      <trkpt lat="48.297774" lon="7.678417">
        <ele>213.0</ele>
        <time>2020-07-12T08:46:18Z</time>
      </trkpt>
      <trkpt lat="48.297677" lon="7.678313">
        <ele>213.0</ele>
        <time>2020-07-12T08:46:20Z</time>
      </trkpt>
      <trkpt lat="48.297577" lon="7.678214">
        <ele>213.0</ele>
        <time>2020-07-12T08:46:22Z</time>
      </trkpt>
      <trkpt lat="48.297481" lon="7.678117">
        <ele>213.0</ele>
        <time>2020-07-12T08:46:24Z</time>
      </trkpt>
      <trkpt lat="48.297383" lon="7.678026">
        <ele>213.0</ele>
        <time>2020-07-12T08:46:26Z</time>
      </trkpt>
      <trkpt lat="48.297286" lon="7.677936">
        <ele>213.0</ele>
        <time>2020-07-12T08:46:28Z</time>
      </trkpt>
      <trkpt lat="48.29718" lon="7.677856">
        <ele>212.0</ele>
        <time>2020-07-12T08:46:30Z</time>
      </trkpt>
      <trkpt lat="48.297074" lon="7.677777">
        <ele>212.0</ele>
        <time>2020-07-12T08:46:32Z</time>
      </trkpt>
      <trkpt lat="48.296958" lon="7.677689">
        <ele>212.0</ele>
        <time>2020-07-12T08:46:34Z</time>
      </trkpt>
      <trkpt lat="48.296833" lon="7.677599">
        <ele>211.0</ele>
        <time>2020-07-12T08:46:36Z</time>
      </trkpt>
      <trkpt lat="48.296692" lon="7.677513">
        <ele>211.0</ele>
        <time>2020-07-12T08:46:38Z</time>
      </trkpt>
      <trkpt lat="48.296551" lon="7.677444">
        <ele>211.0</ele>
        <time>2020-07-12T08:46:40Z</time>
      </trkpt>
      <trkpt lat="48.296407" lon="7.677385">
        <ele>210.0</ele>
        <time>2020-07-12T08:46:42Z</time>
      </trkpt>
      <trkpt lat="48.296269" lon="7.677323">
        <ele>210.0</ele>
        <time>2020-07-12T08:46:44Z</time>
      </trkpt>
      <trkpt lat="48.296123" lon="7.677266">
        <ele>210.0</ele>
        <time>2020-07-12T08:46:46Z</time>
      </trkpt>
      <trkpt lat="48.295984" lon="7.677215">
        <ele>209.0</ele>
        <time>2020-07-12T08:46:48Z</time>
      </trkpt>
      <trkpt lat="48.295849" lon="7.677173">
        <ele>209.0</ele>
        <time>2020-07-12T08:46:50Z</time>
      </trkpt>
      <trkpt lat="48.295711" lon="7.677131">
        <ele>209.0</ele>
        <time>2020-07-12T08:46:52Z</time>
      </trkpt>
      <trkpt lat="48.295569" lon="7.67709">
        <ele>210.0</ele>
        <time>2020-07-12T08:46:54Z</time>
      </trkpt>
      <trkpt lat="48.295427" lon="7.677042">
        <ele>210.0</ele>
        <time>2020-07-12T08:46:56Z</time>
      </trkpt>
      <trkpt lat="48.295293" lon="7.676994">
        <ele>210.0</ele>
        <time>2020-07-12T08:46:58Z</time>
      </trkpt>
      <trkpt lat="48.295157" lon="7.676953">
        <ele>210.0</ele>
        <time>2020-07-12T08:47:00Z</time>
      </trkpt>
      <trkpt lat="48.295021" lon="7.676916">
        <ele>210.0</ele>
        <time>2020-07-12T08:47:02Z</time>
      </trkpt>
      <trkpt lat="48.294883" lon="7.67687">
        <ele>210.0</ele>
        <time>2020-07-12T08:47:04Z</time>
      </trkpt>
      <trkpt lat="48.294749" lon="7.676825">
        <ele>210.0</ele>
        <time>2020-07-12T08:47:06Z</time>
      </trkpt>
      <trkpt lat="48.294616" lon="7.676779">
        <ele>210.0</ele>
        <time>2020-07-12T08:47:08Z</time>
      </trkpt>
      <trkpt lat="48.294484" lon="7.676729">
        <ele>210.0</ele>
        <time>2020-07-12T08:47:10Z</time>
      </trkpt>
      <trkpt lat="48.294354" lon="7.67669">
        <ele>209.0</ele>
        <time>2020-07-12T08:47:12Z</time>
      </trkpt>
      <trkpt lat="48.294223" lon="7.676646">
        <ele>209.0</ele>
        <time>2020-07-12T08:47:14Z</time>
      </trkpt>
      <trkpt lat="48.294092" lon="7.676602">
        <ele>208.0</ele>
        <time>2020-07-12T08:47:16Z</time>
      </trkpt>
      <trkpt lat="48.293956" lon="7.676562">
        <ele>208.0</ele>
        <time>2020-07-12T08:47:18Z</time>
      </trkpt>
      <trkpt lat="48.29382" lon="7.676518">
        <ele>209.0</ele>
        <time>2020-07-12T08:47:20Z</time>
      </trkpt>
      <trkpt lat="48.29369" lon="7.676477">
        <ele>209.0</ele>
        <time>2020-07-12T08:47:22Z</time>
      </trkpt>
      <trkpt lat="48.293561" lon="7.676434">
        <ele>209.0</ele>
        <time>2020-07-12T08:47:24Z</time>
      </trkpt>
      <trkpt lat="48.293427" lon="7.676392">
        <ele>209.0</ele>
        <time>2020-07-12T08:47:26Z</time>
      </trkpt>
      <trkpt lat="48.293293" lon="7.67634">
        <ele>208.0</ele>
        <time>2020-07-12T08:47:28Z</time>
      </trkpt>
      <trkpt lat="48.293155" lon="7.676302">
        <ele>209.0</ele>
        <time>2020-07-12T08:47:30Z</time>
      </trkpt>
      <trkpt lat="48.293027" lon="7.676259">
        <ele>209.0</ele>
        <time>2020-07-12T08:47:32Z</time>
      </trkpt>
      <trkpt lat="48.292894" lon="7.676228">
        <ele>209.0</ele>
        <time>2020-07-12T08:47:34Z</time>
      </trkpt>
      <trkpt lat="48.292763" lon="7.676193">
        <ele>209.0</ele>
        <time>2020-07-12T08:47:36Z</time>
      </trkpt>
      <trkpt lat="48.292642" lon="7.676152">
        <ele>209.0</ele>
        <time>2020-07-12T08:47:38Z</time>
      </trkpt>
      <trkpt lat="48.292513" lon="7.676108">
        <ele>209.0</ele>
        <time>2020-07-12T08:47:40Z</time>
      </trkpt>
      <trkpt lat="48.292378" lon="7.676068">
        <ele>209.0</ele>
        <time>2020-07-12T08:47:42Z</time>
      </trkpt>
      <trkpt lat="48.292251" lon="7.676028">
        <ele>208.0</ele>
        <time>2020-07-12T08:47:44Z</time>
      </trkpt>
      <trkpt lat="48.292122" lon="7.675996">
        <ele>209.0</ele>
        <time>2020-07-12T08:47:46Z</time>
      </trkpt>
      <trkpt lat="48.291992" lon="7.675949">
        <ele>209.0</ele>
        <time>2020-07-12T08:47:48Z</time>
      </trkpt>
      <trkpt lat="48.291859" lon="7.675909">
        <ele>209.0</ele>
        <time>2020-07-12T08:47:50Z</time>
      </trkpt>
      <trkpt lat="48.291736" lon="7.675855">
        <ele>209.0</ele>
        <time>2020-07-12T08:47:52Z</time>
      </trkpt>
      <trkpt lat="48.291612" lon="7.675796">
        <ele>209.0</ele>
        <time>2020-07-12T08:47:54Z</time>
      </trkpt>
      <trkpt lat="48.291491" lon="7.675734">
        <ele>209.0</ele>
        <time>2020-07-12T08:47:56Z</time>
      </trkpt>
      <trkpt lat="48.291377" lon="7.675668">
        <ele>209.0</ele>
        <time>2020-07-12T08:47:58Z</time>
      </trkpt>
      <trkpt lat="48.291267" lon="7.675583">
        <ele>209.0</ele>
        <time>2020-07-12T08:48:00Z</time>
      </trkpt>
      <trkpt lat="48.291157" lon="7.675495">
        <ele>209.0</ele>
        <time>2020-07-12T08:48:02Z</time>
      </trkpt>
      <trkpt lat="48.291047" lon="7.6754">
        <ele>210.0</ele>
        <time>2020-07-12T08:48:04Z</time>
      </trkpt>
      <trkpt lat="48.290944" lon="7.675294">
        <ele>210.0</ele>
        <time>2020-07-12T08:48:06Z</time>
      </trkpt>
      <trkpt lat="48.290838" lon="7.675186">
        <ele>210.0</ele>
        <time>2020-07-12T08:48:08Z</time>
      </trkpt>
      <trkpt lat="48.290742" lon="7.675079">
        <ele>211.0</ele>
        <time>2020-07-12T08:48:10Z</time>
      </trkpt>
      <trkpt lat="48.290646" lon="7.674946">
        <ele>211.0</ele>
        <time>2020-07-12T08:48:12Z</time>
      </trkpt>
      <trkpt lat="48.290542" lon="7.674815">
        <ele>211.0</ele>
        <time>2020-07-12T08:48:14Z</time>
      </trkpt>
      <trkpt lat="48.290452" lon="7.674688">
        <ele>211.0</ele>
        <time>2020-07-12T08:48:16Z</time>
      </trkpt>
      <trkpt lat="48.290365" lon="7.674551">
        <ele>211.0</ele>
        <time>2020-07-12T08:48:18Z</time>
      </trkpt>
      <trkpt lat="48.290272" lon="7.674424">
        <ele>211.0</ele>
        <time>2020-07-12T08:48:20Z</time>
      </trkpt>
      <trkpt lat="48.290181" lon="7.674299">
        <ele>211.0</ele>
        <time>2020-07-12T08:48:22Z</time>
      </trkpt>
      <trkpt lat="48.290089" lon="7.674173">
        <ele>212.0</ele>
        <time>2020-07-12T08:48:24Z</time>
      </trkpt>
      <trkpt lat="48.290004" lon="7.674042">
        <ele>212.0</ele>
        <time>2020-07-12T08:48:26Z</time>
      </trkpt>
      <trkpt lat="48.289922" lon="7.673916">
        <ele>213.0</ele>
        <time>2020-07-12T08:48:28Z</time>
      </trkpt>
      <trkpt lat="48.289834" lon="7.673789">
        <ele>212.0</ele>
        <time>2020-07-12T08:48:30Z</time>
      </trkpt>
      <trkpt lat="48.289752" lon="7.673669">
        <ele>212.0</ele>
        <time>2020-07-12T08:48:32Z</time>
      </trkpt>
      <trkpt lat="48.289672" lon="7.673544">
        <ele>211.0</ele>
        <time>2020-07-12T08:48:34Z</time>
      </trkpt>
      <trkpt lat="48.28959" lon="7.673419">
        <ele>212.0</ele>
        <time>2020-07-12T08:48:36Z</time>
      </trkpt>
      <trkpt lat="48.289501" lon="7.673294">
        <ele>212.0</ele>
        <time>2020-07-12T08:48:38Z</time>
      </trkpt>
      <trkpt lat="48.289408" lon="7.673176">
        <ele>211.0</ele>
        <time>2020-07-12T08:48:40Z</time>
      </trkpt>
      <trkpt lat="48.289312" lon="7.673053">
        <ele>211.0</ele>
        <time>2020-07-12T08:48:42Z</time>
      </trkpt>
      <trkpt lat="48.289226" lon="7.672933">
        <ele>212.0</ele>
        <time>2020-07-12T08:48:44Z</time>
      </trkpt>
      <trkpt lat="48.28914" lon="7.672817">
        <ele>212.0</ele>
        <time>2020-07-12T08:48:46Z</time>
      </trkpt>
      <trkpt lat="48.289057" lon="7.672708">
        <ele>212.0</ele>
        <time>2020-07-12T08:48:48Z</time>
      </trkpt>
      <trkpt lat="48.288968" lon="7.672595">
        <ele>212.0</ele>
        <time>2020-07-12T08:48:50Z</time>
      </trkpt>
      <trkpt lat="48.288874" lon="7.672465">
        <ele>212.0</ele>
        <time>2020-07-12T08:48:52Z</time>
      </trkpt>
      <trkpt lat="48.288789" lon="7.672355">
        <ele>213.0</ele>
        <time>2020-07-12T08:48:54Z</time>
      </trkpt>
      <trkpt lat="48.288698" lon="7.672256">
        <ele>213.0</ele>
        <time>2020-07-12T08:48:56Z</time>
      </trkpt>
      <trkpt lat="48.288609" lon="7.672162">
        <ele>213.0</ele>
        <time>2020-07-12T08:48:58Z</time>
      </trkpt>
      <trkpt lat="48.288518" lon="7.672065">
        <ele>213.0</ele>
        <time>2020-07-12T08:49:00Z</time>
      </trkpt>
      <trkpt lat="48.288442" lon="7.671962">
        <ele>213.0</ele>
        <time>2020-07-12T08:49:02Z</time>
      </trkpt>
      <trkpt lat="48.288368" lon="7.671837">
        <ele>212.0</ele>
        <time>2020-07-12T08:49:04Z</time>
      </trkpt>
      <trkpt lat="48.288356" lon="7.671673">
        <ele>212.0</ele>
        <time>2020-07-12T08:49:06Z</time>
      </trkpt>
      <trkpt lat="48.288369" lon="7.671517">
        <ele>211.0</ele>
        <time>2020-07-12T08:49:08Z</time>
      </trkpt>
      <trkpt lat="48.288396" lon="7.671343">
        <ele>212.0</ele>
        <time>2020-07-12T08:49:10Z</time>
      </trkpt>
      <trkpt lat="48.288433" lon="7.671179">
        <ele>211.0</ele>
        <time>2020-07-12T08:49:12Z</time>
      </trkpt>
      <trkpt lat="48.288474" lon="7.671013">
        <ele>211.0</ele>
        <time>2020-07-12T08:49:14Z</time>
      </trkpt>
      <trkpt lat="48.288519" lon="7.670851">
        <ele>211.0</ele>
        <time>2020-07-12T08:49:16Z</time>
      </trkpt>
      <trkpt lat="48.288564" lon="7.670686">
        <ele>211.0</ele>
        <time>2020-07-12T08:49:18Z</time>
      </trkpt>
      <trkpt lat="48.288603" lon="7.670519">
        <ele>211.0</ele>
        <time>2020-07-12T08:49:20Z</time>
      </trkpt>
      <trkpt lat="48.28864" lon="7.670344">
        <ele>211.0</ele>
        <time>2020-07-12T08:49:22Z</time>
      </trkpt>
      <trkpt lat="48.288674" lon="7.670181">
        <ele>211.0</ele>
        <time>2020-07-12T08:49:24Z</time>
      </trkpt>
      <trkpt lat="48.288713" lon="7.670007">
        <ele>211.0</ele>
        <time>2020-07-12T08:49:26Z</time>
      </trkpt>
      <trkpt lat="48.288752" lon="7.669834">
        <ele>210.0</ele>
        <time>2020-07-12T08:49:28Z</time>
      </trkpt>
      <trkpt lat="48.288795" lon="7.669661">
        <ele>210.0</ele>
        <time>2020-07-12T08:49:30Z</time>
      </trkpt>
      <trkpt lat="48.288835" lon="7.669495">
        <ele>210.0</ele>
        <time>2020-07-12T08:49:32Z</time>
      </trkpt>
      <trkpt lat="48.288871" lon="7.669317">
        <ele>210.0</ele>
        <time>2020-07-12T08:49:34Z</time>
      </trkpt>
      <trkpt lat="48.288912" lon="7.669137">
        <ele>210.0</ele>
        <time>2020-07-12T08:49:36Z</time>
      </trkpt>
      <trkpt lat="48.288952" lon="7.66897">
        <ele>210.0</ele>
        <time>2020-07-12T08:49:38Z</time>
      </trkpt>
      <trkpt lat="48.288994" lon="7.668798">
        <ele>211.0</ele>
        <time>2020-07-12T08:49:40Z</time>
      </trkpt>
      <trkpt lat="48.289033" lon="7.668625">
        <ele>211.0</ele>
        <time>2020-07-12T08:49:42Z</time>
      </trkpt>
      <trkpt lat="48.289069" lon="7.668461">
        <ele>212.0</ele>
        <time>2020-07-12T08:49:44Z</time>
      </trkpt>
      <trkpt lat="48.289111" lon="7.668296">
        <ele>212.0</ele>
        <time>2020-07-12T08:49:46Z</time>
      </trkpt>
      <trkpt lat="48.289149" lon="7.668131">
        <ele>212.0</ele>
        <time>2020-07-12T08:49:48Z</time>
      </trkpt>
      <trkpt lat="48.289185" lon="7.667973">
        <ele>212.0</ele>
        <time>2020-07-12T08:49:50Z</time>
      </trkpt>
      <trkpt lat="48.289222" lon="7.667807">
        <ele>211.0</ele>
        <time>2020-07-12T08:49:52Z</time>
      </trkpt>
      <trkpt lat="48.289256" lon="7.667639">
        <ele>211.0</ele>
        <time>2020-07-12T08:49:54Z</time>
      </trkpt>
      <trkpt lat="48.289289" lon="7.667474">
        <ele>211.0</ele>
        <time>2020-07-12T08:49:56Z</time>
      </trkpt>
      <trkpt lat="48.289326" lon="7.667312">
        <ele>212.0</ele>
        <time>2020-07-12T08:49:58Z</time>
      </trkpt>
      <trkpt lat="48.289362" lon="7.667146">
        <ele>212.0</ele>
        <time>2020-07-12T08:50:00Z</time>
      </trkpt>
      <trkpt lat="48.289426" lon="7.666906">
        <ele>212.0</ele>
        <time>2020-07-12T08:50:03Z</time>
      </trkpt>
      <trkpt lat="48.28947" lon="7.66674">
        <ele>212.0</ele>
        <time>2020-07-12T08:50:05Z</time>
      </trkpt>
      <trkpt lat="48.289505" lon="7.666584">
        <ele>212.0</ele>
        <time>2020-07-12T08:50:07Z</time>
      </trkpt>
      <trkpt lat="48.289537" lon="7.666432">
        <ele>212.0</ele>
        <time>2020-07-12T08:50:09Z</time>
      </trkpt>
      <trkpt lat="48.289567" lon="7.666274">
        <ele>212.0</ele>
        <time>2020-07-12T08:50:11Z</time>
      </trkpt>
      <trkpt lat="48.289607" lon="7.666108">
        <ele>212.0</ele>
        <time>2020-07-12T08:50:13Z</time>
      </trkpt>
      <trkpt lat="48.289642" lon="7.665936">
        <ele>212.0</ele>
        <time>2020-07-12T08:50:15Z</time>
      </trkpt>
      <trkpt lat="48.289671" lon="7.665769">
        <ele>212.0</ele>
        <time>2020-07-12T08:50:17Z</time>
      </trkpt>
      <trkpt lat="48.289695" lon="7.665611">
        <ele>212.0</ele>
        <time>2020-07-12T08:50:19Z</time>
      </trkpt>
      <trkpt lat="48.289723" lon="7.665436">
        <ele>212.0</ele>
        <time>2020-07-12T08:50:21Z</time>
      </trkpt>
      <trkpt lat="48.289754" lon="7.665253">
        <ele>211.0</ele>
        <time>2020-07-12T08:50:23Z</time>
      </trkpt>
      <trkpt lat="48.289758" lon="7.665062">
        <ele>211.0</ele>
        <time>2020-07-12T08:50:25Z</time>
      </trkpt>
      <trkpt lat="48.289732" lon="7.664896">
        <ele>210.0</ele>
        <time>2020-07-12T08:50:27Z</time>
      </trkpt>
      <trkpt lat="48.28968" lon="7.664736">
        <ele>210.0</ele>
        <time>2020-07-12T08:50:29Z</time>
      </trkpt>
      <trkpt lat="48.289625" lon="7.664584">
        <ele>210.0</ele>
        <time>2020-07-12T08:50:31Z</time>
      </trkpt>
      <trkpt lat="48.289571" lon="7.66443">
        <ele>210.0</ele>
        <time>2020-07-12T08:50:33Z</time>
      </trkpt>
      <trkpt lat="48.289517" lon="7.664277">
        <ele>210.0</ele>
        <time>2020-07-12T08:50:35Z</time>
      </trkpt>
      <trkpt lat="48.289467" lon="7.664116">
        <ele>210.0</ele>
        <time>2020-07-12T08:50:37Z</time>
      </trkpt>
      <trkpt lat="48.289415" lon="7.663959">
        <ele>210.0</ele>
        <time>2020-07-12T08:50:39Z</time>
      </trkpt>
      <trkpt lat="48.289367" lon="7.663799">
        <ele>210.0</ele>
        <time>2020-07-12T08:50:41Z</time>
      </trkpt>
      <trkpt lat="48.289329" lon="7.663635">
        <ele>210.0</ele>
        <time>2020-07-12T08:50:43Z</time>
      </trkpt>
      <trkpt lat="48.289358" lon="7.663465">
        <ele>211.0</ele>
        <time>2020-07-12T08:50:45Z</time>
      </trkpt>
      <trkpt lat="48.289406" lon="7.663302">
        <ele>211.0</ele>
        <time>2020-07-12T08:50:47Z</time>
      </trkpt>
      <trkpt lat="48.289466" lon="7.663148">
        <ele>212.0</ele>
        <time>2020-07-12T08:50:49Z</time>
      </trkpt>
      <trkpt lat="48.289543" lon="7.663005">
        <ele>212.0</ele>
        <time>2020-07-12T08:50:51Z</time>
      </trkpt>
      <trkpt lat="48.289616" lon="7.66287">
        <ele>213.0</ele>
        <time>2020-07-12T08:50:53Z</time>
      </trkpt>
      <trkpt lat="48.28969" lon="7.662746">
        <ele>212.0</ele>
        <time>2020-07-12T08:50:55Z</time>
      </trkpt>
      <trkpt lat="48.289754" lon="7.662611">
        <ele>212.0</ele>
        <time>2020-07-12T08:50:57Z</time>
      </trkpt>
      <trkpt lat="48.289818" lon="7.662476">
        <ele>212.0</ele>
        <time>2020-07-12T08:50:59Z</time>
      </trkpt>
      <trkpt lat="48.289892" lon="7.662351">
        <ele>212.0</ele>
        <time>2020-07-12T08:51:01Z</time>
      </trkpt>
      <trkpt lat="48.289959" lon="7.662234">
        <ele>212.0</ele>
        <time>2020-07-12T08:51:03Z</time>
      </trkpt>
      <trkpt lat="48.29002" lon="7.66212">
        <ele>212.0</ele>
        <time>2020-07-12T08:51:05Z</time>
      </trkpt>
      <trkpt lat="48.290078" lon="7.662003">
        <ele>212.0</ele>
        <time>2020-07-12T08:51:07Z</time>
      </trkpt>
      <trkpt lat="48.29013" lon="7.661885">
        <ele>212.0</ele>
        <time>2020-07-12T08:51:09Z</time>
      </trkpt>
      <trkpt lat="48.290177" lon="7.661767">
        <ele>213.0</ele>
        <time>2020-07-12T08:51:11Z</time>
      </trkpt>
      <trkpt lat="48.290224" lon="7.661649">
        <ele>213.0</ele>
        <time>2020-07-12T08:51:13Z</time>
      </trkpt>
      <trkpt lat="48.290276" lon="7.661553">
        <ele>213.0</ele>
        <time>2020-07-12T08:51:15Z</time>
      </trkpt>
      <trkpt lat="48.290333" lon="7.661472">
        <ele>213.0</ele>
        <time>2020-07-12T08:51:17Z</time>
      </trkpt>
      <trkpt lat="48.290384" lon="7.661393">
        <ele>213.0</ele>
        <time>2020-07-12T08:51:19Z</time>
      </trkpt>
      <trkpt lat="48.29039" lon="7.661283">
        <ele>213.0</ele>
        <time>2020-07-12T08:51:21Z</time>
      </trkpt>
      <trkpt lat="48.290344" lon="7.661186">
        <ele>213.0</ele>
        <time>2020-07-12T08:51:23Z</time>
      </trkpt>
      <trkpt lat="48.290256" lon="7.661116">
        <ele>213.0</ele>
        <time>2020-07-12T08:51:25Z</time>
      </trkpt>
      <trkpt lat="48.290198" lon="7.660981">
        <ele>212.0</ele>
        <time>2020-07-12T08:51:27Z</time>
      </trkpt>
      <trkpt lat="48.290156" lon="7.660846">
        <ele>212.0</ele>
        <time>2020-07-12T08:51:29Z</time>
      </trkpt>
      <trkpt lat="48.290124" lon="7.660698">
        <ele>212.0</ele>
        <time>2020-07-12T08:51:31Z</time>
      </trkpt>
      <trkpt lat="48.29009" lon="7.660561">
        <ele>212.0</ele>
        <time>2020-07-12T08:51:33Z</time>
      </trkpt>
      <trkpt lat="48.290045" lon="7.660416">
        <ele>212.0</ele>
        <time>2020-07-12T08:51:35Z</time>
      </trkpt>
      <trkpt lat="48.290001" lon="7.660265">
        <ele>212.0</ele>
        <time>2020-07-12T08:51:37Z</time>
      </trkpt>
      <trkpt lat="48.289959" lon="7.660111">
        <ele>212.0</ele>
        <time>2020-07-12T08:51:39Z</time>
      </trkpt>
      <trkpt lat="48.28992" lon="7.659951">
        <ele>212.0</ele>
        <time>2020-07-12T08:51:41Z</time>
      </trkpt>
      <trkpt lat="48.28988" lon="7.659795">
        <ele>212.0</ele>
        <time>2020-07-12T08:51:43Z</time>
      </trkpt>
      <trkpt lat="48.289834" lon="7.659643">
        <ele>212.0</ele>
        <time>2020-07-12T08:51:45Z</time>
      </trkpt>
      <trkpt lat="48.289789" lon="7.65949">
        <ele>212.0</ele>
        <time>2020-07-12T08:51:47Z</time>
      </trkpt>
      <trkpt lat="48.289748" lon="7.65935">
        <ele>212.0</ele>
        <time>2020-07-12T08:51:49Z</time>
      </trkpt>
      <trkpt lat="48.289697" lon="7.659209">
        <ele>212.0</ele>
        <time>2020-07-12T08:51:51Z</time>
      </trkpt>
      <trkpt lat="48.289632" lon="7.659077">
        <ele>212.0</ele>
        <time>2020-07-12T08:51:53Z</time>
      </trkpt>
      <trkpt lat="48.289561" lon="7.658952">
        <ele>212.0</ele>
        <time>2020-07-12T08:51:55Z</time>
      </trkpt>
      <trkpt lat="48.28948" lon="7.658837">
        <ele>212.0</ele>
        <time>2020-07-12T08:51:57Z</time>
      </trkpt>
      <trkpt lat="48.289404" lon="7.658728">
        <ele>213.0</ele>
        <time>2020-07-12T08:51:59Z</time>
      </trkpt>
      <trkpt lat="48.289325" lon="7.658626">
        <ele>212.0</ele>
        <time>2020-07-12T08:52:01Z</time>
      </trkpt>
      <trkpt lat="48.289243" lon="7.658532">
        <ele>212.0</ele>
        <time>2020-07-12T08:52:03Z</time>
      </trkpt>
      <trkpt lat="48.289155" lon="7.658436">
        <ele>212.0</ele>
        <time>2020-07-12T08:52:05Z</time>
      </trkpt>
      <trkpt lat="48.289074" lon="7.658342">
        <ele>212.0</ele>
        <time>2020-07-12T08:52:07Z</time>
      </trkpt>
      <trkpt lat="48.288979" lon="7.658253">
        <ele>212.0</ele>
        <time>2020-07-12T08:52:09Z</time>
      </trkpt>
      <trkpt lat="48.28889" lon="7.658152">
        <ele>212.0</ele>
        <time>2020-07-12T08:52:11Z</time>
      </trkpt>
      <trkpt lat="48.28881" lon="7.658038">
        <ele>212.0</ele>
        <time>2020-07-12T08:52:13Z</time>
      </trkpt>
      <trkpt lat="48.288743" lon="7.657892">
        <ele>211.0</ele>
        <time>2020-07-12T08:52:15Z</time>
      </trkpt>
      <trkpt lat="48.288707" lon="7.657718">
        <ele>212.0</ele>
        <time>2020-07-12T08:52:17Z</time>
      </trkpt>
      <trkpt lat="48.288695" lon="7.657522">
        <ele>212.0</ele>
        <time>2020-07-12T08:52:19Z</time>
      </trkpt>
      <trkpt lat="48.288707" lon="7.657331">
        <ele>212.0</ele>
        <time>2020-07-12T08:52:21Z</time>
      </trkpt>
      <trkpt lat="48.288721" lon="7.657146">
        <ele>212.0</ele>
        <time>2020-07-12T08:52:23Z</time>
      </trkpt>
      <trkpt lat="48.288735" lon="7.656973">
        <ele>212.0</ele>
        <time>2020-07-12T08:52:25Z</time>
      </trkpt>
      <trkpt lat="48.28875" lon="7.656801">
        <ele>212.0</ele>
        <time>2020-07-12T08:52:27Z</time>
      </trkpt>
      <trkpt lat="48.288762" lon="7.656642">
        <ele>212.0</ele>
        <time>2020-07-12T08:52:29Z</time>
      </trkpt>
      <trkpt lat="48.288771" lon="7.656492">
        <ele>212.0</ele>
        <time>2020-07-12T08:52:31Z</time>
      </trkpt>
      <trkpt lat="48.288793" lon="7.656352">
        <ele>212.0</ele>
        <time>2020-07-12T08:52:33Z</time>
      </trkpt>
      <trkpt lat="48.288813" lon="7.656206">
        <ele>212.0</ele>
        <time>2020-07-12T08:52:35Z</time>
      </trkpt>
      <trkpt lat="48.288824" lon="7.656064">
        <ele>211.0</ele>
        <time>2020-07-12T08:52:37Z</time>
      </trkpt>
      <trkpt lat="48.288832" lon="7.655946">
        <ele>211.0</ele>
        <time>2020-07-12T08:52:39Z</time>
      </trkpt>
      <trkpt lat="48.288843" lon="7.655819">
        <ele>211.0</ele>
        <time>2020-07-12T08:52:41Z</time>
      </trkpt>
      <trkpt lat="48.288848" lon="7.655696">
        <ele>211.0</ele>
        <time>2020-07-12T08:52:43Z</time>
      </trkpt>
      <trkpt lat="48.288859" lon="7.655577">
        <ele>211.0</ele>
        <time>2020-07-12T08:52:45Z</time>
      </trkpt>
      <trkpt lat="48.288873" lon="7.655458">
        <ele>212.0</ele>
        <time>2020-07-12T08:52:47Z</time>
      </trkpt>
      <trkpt lat="48.288889" lon="7.655324">
        <ele>212.0</ele>
        <time>2020-07-12T08:52:49Z</time>
      </trkpt>
      <trkpt lat="48.288897" lon="7.65518">
        <ele>212.0</ele>
        <time>2020-07-12T08:52:51Z</time>
      </trkpt>
      <trkpt lat="48.288909" lon="7.65503">
        <ele>212.0</ele>
        <time>2020-07-12T08:52:53Z</time>
      </trkpt>
      <trkpt lat="48.288924" lon="7.654881">
        <ele>212.0</ele>
        <time>2020-07-12T08:52:55Z</time>
      </trkpt>
      <trkpt lat="48.288936" lon="7.654727">
        <ele>212.0</ele>
        <time>2020-07-12T08:52:57Z</time>
      </trkpt>
      <trkpt lat="48.288948" lon="7.654575">
        <ele>212.0</ele>
        <time>2020-07-12T08:52:59Z</time>
      </trkpt>
      <trkpt lat="48.288956" lon="7.654417">
        <ele>212.0</ele>
        <time>2020-07-12T08:53:01Z</time>
      </trkpt>
      <trkpt lat="48.288962" lon="7.654253">
        <ele>213.0</ele>
        <time>2020-07-12T08:53:03Z</time>
      </trkpt>
      <trkpt lat="48.288961" lon="7.65408">
        <ele>213.0</ele>
        <time>2020-07-12T08:53:05Z</time>
      </trkpt>
      <trkpt lat="48.288962" lon="7.653908">
        <ele>213.0</ele>
        <time>2020-07-12T08:53:07Z</time>
      </trkpt>
      <trkpt lat="48.288959" lon="7.653728">
        <ele>214.0</ele>
        <time>2020-07-12T08:53:09Z</time>
      </trkpt>
      <trkpt lat="48.288948" lon="7.653562">
        <ele>214.0</ele>
        <time>2020-07-12T08:53:11Z</time>
      </trkpt>
      <trkpt lat="48.288933" lon="7.653397">
        <ele>214.0</ele>
        <time>2020-07-12T08:53:13Z</time>
      </trkpt>
      <trkpt lat="48.288911" lon="7.65323">
        <ele>214.0</ele>
        <time>2020-07-12T08:53:15Z</time>
      </trkpt>
      <trkpt lat="48.288898" lon="7.653073">
        <ele>214.0</ele>
        <time>2020-07-12T08:53:17Z</time>
      </trkpt>
      <trkpt lat="48.288878" lon="7.652911">
        <ele>213.0</ele>
        <time>2020-07-12T08:53:19Z</time>
      </trkpt>
      <trkpt lat="48.288838" lon="7.652679">
        <ele>214.0</ele>
        <time>2020-07-12T08:53:22Z</time>
      </trkpt>
      <trkpt lat="48.288803" lon="7.652524">
        <ele>214.0</ele>
        <time>2020-07-12T08:53:24Z</time>
      </trkpt>
      <trkpt lat="48.28876" lon="7.652374">
        <ele>214.0</ele>
        <time>2020-07-12T08:53:26Z</time>
      </trkpt>
      <trkpt lat="48.288713" lon="7.652221">
        <ele>213.0</ele>
        <time>2020-07-12T08:53:28Z</time>
      </trkpt>
      <trkpt lat="48.288694" lon="7.652144">
        <ele>213.0</ele>
        <time>2020-07-12T08:53:29Z</time>
      </trkpt>
      <trkpt lat="48.288629" lon="7.65192">
        <ele>213.0</ele>
        <time>2020-07-12T08:53:32Z</time>
      </trkpt>
      <trkpt lat="48.288585" lon="7.651766">
        <ele>213.0</ele>
        <time>2020-07-12T08:53:34Z</time>
      </trkpt>
      <trkpt lat="48.288543" lon="7.651608">
        <ele>213.0</ele>
        <time>2020-07-12T08:53:36Z</time>
      </trkpt>
      <trkpt lat="48.288499" lon="7.651459">
        <ele>213.0</ele>
        <time>2020-07-12T08:53:38Z</time>
      </trkpt>
      <trkpt lat="48.288453" lon="7.651308">
        <ele>212.0</ele>
        <time>2020-07-12T08:53:40Z</time>
      </trkpt>
      <trkpt lat="48.288411" lon="7.651161">
        <ele>213.0</ele>
        <time>2020-07-12T08:53:42Z</time>
      </trkpt>
      <trkpt lat="48.288373" lon="7.651017">
        <ele>213.0</ele>
        <time>2020-07-12T08:53:44Z</time>
      </trkpt>
      <trkpt lat="48.288333" lon="7.650868">
        <ele>213.0</ele>
        <time>2020-07-12T08:53:46Z</time>
      </trkpt>
      <trkpt lat="48.288292" lon="7.650716">
        <ele>213.0</ele>
        <time>2020-07-12T08:53:48Z</time>
      </trkpt>
      <trkpt lat="48.288248" lon="7.650554">
        <ele>213.0</ele>
        <time>2020-07-12T08:53:50Z</time>
      </trkpt>
      <trkpt lat="48.288204" lon="7.650398">
        <ele>212.0</ele>
        <time>2020-07-12T08:53:52Z</time>
      </trkpt>
      <trkpt lat="48.288158" lon="7.650224">
        <ele>212.0</ele>
        <time>2020-07-12T08:53:54Z</time>
      </trkpt>
      <trkpt lat="48.288108" lon="7.650045">
        <ele>212.0</ele>
        <time>2020-07-12T08:53:56Z</time>
      </trkpt>
      <trkpt lat="48.288058" lon="7.649874">
        <ele>212.0</ele>
        <time>2020-07-12T08:53:58Z</time>
      </trkpt>
      <trkpt lat="48.288009" lon="7.649716">
        <ele>212.0</ele>
        <time>2020-07-12T08:54:00Z</time>
      </trkpt>
      <trkpt lat="48.287965" lon="7.649549">
        <ele>212.0</ele>
        <time>2020-07-12T08:54:02Z</time>
      </trkpt>
      <trkpt lat="48.287914" lon="7.649392">
        <ele>212.0</ele>
        <time>2020-07-12T08:54:04Z</time>
      </trkpt>
      <trkpt lat="48.287869" lon="7.649237">
        <ele>213.0</ele>
        <time>2020-07-12T08:54:06Z</time>
      </trkpt>
      <trkpt lat="48.287824" lon="7.649076">
        <ele>212.0</ele>
        <time>2020-07-12T08:54:08Z</time>
      </trkpt>
      <trkpt lat="48.28778" lon="7.648917">
        <ele>212.0</ele>
        <time>2020-07-12T08:54:10Z</time>
      </trkpt>
      <trkpt lat="48.287732" lon="7.64876">
        <ele>212.0</ele>
        <time>2020-07-12T08:54:12Z</time>
      </trkpt>
      <trkpt lat="48.287694" lon="7.64861">
        <ele>212.0</ele>
        <time>2020-07-12T08:54:14Z</time>
      </trkpt>
      <trkpt lat="48.287652" lon="7.648457">
        <ele>213.0</ele>
        <time>2020-07-12T08:54:16Z</time>
      </trkpt>
      <trkpt lat="48.287609" lon="7.648293">
        <ele>213.0</ele>
        <time>2020-07-12T08:54:18Z</time>
      </trkpt>
      <trkpt lat="48.287567" lon="7.648138">
        <ele>213.0</ele>
        <time>2020-07-12T08:54:20Z</time>
      </trkpt>
      <trkpt lat="48.287521" lon="7.647977">
        <ele>212.0</ele>
        <time>2020-07-12T08:54:22Z</time>
      </trkpt>
      <trkpt lat="48.287477" lon="7.647816">
        <ele>212.0</ele>
        <time>2020-07-12T08:54:24Z</time>
      </trkpt>
      <trkpt lat="48.287433" lon="7.647652">
        <ele>212.0</ele>
        <time>2020-07-12T08:54:26Z</time>
      </trkpt>
      <trkpt lat="48.287388" lon="7.647493">
        <ele>212.0</ele>
        <time>2020-07-12T08:54:28Z</time>
      </trkpt>
      <trkpt lat="48.287346" lon="7.647338">
        <ele>212.0</ele>
        <time>2020-07-12T08:54:30Z</time>
      </trkpt>
      <trkpt lat="48.287307" lon="7.647174">
        <ele>212.0</ele>
        <time>2020-07-12T08:54:32Z</time>
      </trkpt>
      <trkpt lat="48.287268" lon="7.64701">
        <ele>212.0</ele>
        <time>2020-07-12T08:54:34Z</time>
      </trkpt>
      <trkpt lat="48.287221" lon="7.646849">
        <ele>212.0</ele>
        <time>2020-07-12T08:54:36Z</time>
      </trkpt>
      <trkpt lat="48.28717" lon="7.646692">
        <ele>212.0</ele>
        <time>2020-07-12T08:54:38Z</time>
      </trkpt>
      <trkpt lat="48.287119" lon="7.646536">
        <ele>212.0</ele>
        <time>2020-07-12T08:54:40Z</time>
      </trkpt>
      <trkpt lat="48.287059" lon="7.646386">
        <ele>213.0</ele>
        <time>2020-07-12T08:54:42Z</time>
      </trkpt>
      <trkpt lat="48.286997" lon="7.646235">
        <ele>213.0</ele>
        <time>2020-07-12T08:54:44Z</time>
      </trkpt>
      <trkpt lat="48.28693" lon="7.646081">
        <ele>212.0</ele>
        <time>2020-07-12T08:54:46Z</time>
      </trkpt>
      <trkpt lat="48.28686" lon="7.645931">
        <ele>212.0</ele>
        <time>2020-07-12T08:54:48Z</time>
      </trkpt>
      <trkpt lat="48.286788" lon="7.645787">
        <ele>212.0</ele>
        <time>2020-07-12T08:54:50Z</time>
      </trkpt>
      <trkpt lat="48.28672" lon="7.645633">
        <ele>213.0</ele>
        <time>2020-07-12T08:54:52Z</time>
      </trkpt>
      <trkpt lat="48.286655" lon="7.645471">
        <ele>213.0</ele>
        <time>2020-07-12T08:54:54Z</time>
      </trkpt>
      <trkpt lat="48.286587" lon="7.645317">
        <ele>213.0</ele>
        <time>2020-07-12T08:54:56Z</time>
      </trkpt>
      <trkpt lat="48.286521" lon="7.645162">
        <ele>213.0</ele>
        <time>2020-07-12T08:54:58Z</time>
      </trkpt>
      <trkpt lat="48.286462" lon="7.645005">
        <ele>213.0</ele>
        <time>2020-07-12T08:55:00Z</time>
      </trkpt>
      <trkpt lat="48.286399" lon="7.64485">
        <ele>214.0</ele>
        <time>2020-07-12T08:55:02Z</time>
      </trkpt>
      <trkpt lat="48.286339" lon="7.644691">
        <ele>214.0</ele>
        <time>2020-07-12T08:55:04Z</time>
      </trkpt>
      <trkpt lat="48.286282" lon="7.64453">
        <ele>214.0</ele>
        <time>2020-07-12T08:55:06Z</time>
      </trkpt>
      <trkpt lat="48.286221" lon="7.644365">
        <ele>214.0</ele>
        <time>2020-07-12T08:55:08Z</time>
      </trkpt>
      <trkpt lat="48.28616" lon="7.644197">
        <ele>214.0</ele>
        <time>2020-07-12T08:55:10Z</time>
      </trkpt>
      <trkpt lat="48.286073" lon="7.643936">
        <ele>214.0</ele>
        <time>2020-07-12T08:55:13Z</time>
      </trkpt>
      <trkpt lat="48.285984" lon="7.643692">
        <ele>214.0</ele>
        <time>2020-07-12T08:55:16Z</time>
      </trkpt>
      <trkpt lat="48.28592" lon="7.643531">
        <ele>214.0</ele>
        <time>2020-07-12T08:55:18Z</time>
      </trkpt>
      <trkpt lat="48.285824" lon="7.643284">
        <ele>214.0</ele>
        <time>2020-07-12T08:55:21Z</time>
      </trkpt>
      <trkpt lat="48.285763" lon="7.643114">
        <ele>213.0</ele>
        <time>2020-07-12T08:55:23Z</time>
      </trkpt>
      <trkpt lat="48.285698" lon="7.642956">
        <ele>213.0</ele>
        <time>2020-07-12T08:55:25Z</time>
      </trkpt>
      <trkpt lat="48.285636" lon="7.6428">
        <ele>213.0</ele>
        <time>2020-07-12T08:55:27Z</time>
      </trkpt>
      <trkpt lat="48.285575" lon="7.642633">
        <ele>213.0</ele>
        <time>2020-07-12T08:55:29Z</time>
      </trkpt>
      <trkpt lat="48.285511" lon="7.642472">
        <ele>213.0</ele>
        <time>2020-07-12T08:55:31Z</time>
      </trkpt>
      <trkpt lat="48.285444" lon="7.642312">
        <ele>213.0</ele>
        <time>2020-07-12T08:55:33Z</time>
      </trkpt>
      <trkpt lat="48.285382" lon="7.642152">
        <ele>213.0</ele>
        <time>2020-07-12T08:55:35Z</time>
      </trkpt>
      <trkpt lat="48.285322" lon="7.641987">
        <ele>212.0</ele>
        <time>2020-07-12T08:55:37Z</time>
      </trkpt>
      <trkpt lat="48.28526" lon="7.641827">
        <ele>212.0</ele>
        <time>2020-07-12T08:55:39Z</time>
      </trkpt>
      <trkpt lat="48.285196" lon="7.641663">
        <ele>213.0</ele>
        <time>2020-07-12T08:55:41Z</time>
      </trkpt>
      <trkpt lat="48.285136" lon="7.6415">
        <ele>213.0</ele>
        <time>2020-07-12T08:55:43Z</time>
      </trkpt>
      <trkpt lat="48.285074" lon="7.641342">
        <ele>214.0</ele>
        <time>2020-07-12T08:55:45Z</time>
      </trkpt>
      <trkpt lat="48.285016" lon="7.641187">
        <ele>214.0</ele>
        <time>2020-07-12T08:55:47Z</time>
      </trkpt>
      <trkpt lat="48.284953" lon="7.641028">
        <ele>215.0</ele>
        <time>2020-07-12T08:55:49Z</time>
      </trkpt>
      <trkpt lat="48.284892" lon="7.640876">
        <ele>215.0</ele>
        <time>2020-07-12T08:55:51Z</time>
      </trkpt>
      <trkpt lat="48.284835" lon="7.640718">
        <ele>215.0</ele>
        <time>2020-07-12T08:55:53Z</time>
      </trkpt>
      <trkpt lat="48.284775" lon="7.640557">
        <ele>214.0</ele>
        <time>2020-07-12T08:55:55Z</time>
      </trkpt>
      <trkpt lat="48.284717" lon="7.640392">
        <ele>215.0</ele>
        <time>2020-07-12T08:55:57Z</time>
      </trkpt>
      <trkpt lat="48.284656" lon="7.640235">
        <ele>214.0</ele>
        <time>2020-07-12T08:55:59Z</time>
      </trkpt>
      <trkpt lat="48.284597" lon="7.640086">
        <ele>214.0</ele>
        <time>2020-07-12T08:56:01Z</time>
      </trkpt>
      <trkpt lat="48.284542" lon="7.639934">
        <ele>213.0</ele>
        <time>2020-07-12T08:56:03Z</time>
      </trkpt>
      <trkpt lat="48.284486" lon="7.639791">
        <ele>213.0</ele>
        <time>2020-07-12T08:56:05Z</time>
      </trkpt>
      <trkpt lat="48.284415" lon="7.639644">
        <ele>213.0</ele>
        <time>2020-07-12T08:56:07Z</time>
      </trkpt>
      <trkpt lat="48.284354" lon="7.639504">
        <ele>213.0</ele>
        <time>2020-07-12T08:56:09Z</time>
      </trkpt>
      <trkpt lat="48.284287" lon="7.639361">
        <ele>213.0</ele>
        <time>2020-07-12T08:56:11Z</time>
      </trkpt>
      <trkpt lat="48.284221" lon="7.639206">
        <ele>213.0</ele>
        <time>2020-07-12T08:56:13Z</time>
      </trkpt>
      <trkpt lat="48.284159" lon="7.639061">
        <ele>213.0</ele>
        <time>2020-07-12T08:56:15Z</time>
      </trkpt>
      <trkpt lat="48.284089" lon="7.638913">
        <ele>213.0</ele>
        <time>2020-07-12T08:56:17Z</time>
      </trkpt>
      <trkpt lat="48.284022" lon="7.638769">
        <ele>213.0</ele>
        <time>2020-07-12T08:56:19Z</time>
      </trkpt>
      <trkpt lat="48.283953" lon="7.638623">
        <ele>213.0</ele>
        <time>2020-07-12T08:56:21Z</time>
      </trkpt>
      <trkpt lat="48.283883" lon="7.638478">
        <ele>214.0</ele>
        <time>2020-07-12T08:56:23Z</time>
      </trkpt>
      <trkpt lat="48.283805" lon="7.638339">
        <ele>214.0</ele>
        <time>2020-07-12T08:56:25Z</time>
      </trkpt>
      <trkpt lat="48.283739" lon="7.6382">
        <ele>214.0</ele>
        <time>2020-07-12T08:56:27Z</time>
      </trkpt>
      <trkpt lat="48.283676" lon="7.638053">
        <ele>214.0</ele>
        <time>2020-07-12T08:56:29Z</time>
      </trkpt>
      <trkpt lat="48.283609" lon="7.637906">
        <ele>214.0</ele>
        <time>2020-07-12T08:56:31Z</time>
      </trkpt>
      <trkpt lat="48.283537" lon="7.637769">
        <ele>214.0</ele>
        <time>2020-07-12T08:56:33Z</time>
      </trkpt>
      <trkpt lat="48.283469" lon="7.63762">
        <ele>215.0</ele>
        <time>2020-07-12T08:56:35Z</time>
      </trkpt>
      <trkpt lat="48.283403" lon="7.637473">
        <ele>214.0</ele>
        <time>2020-07-12T08:56:37Z</time>
      </trkpt>
      <trkpt lat="48.283346" lon="7.637329">
        <ele>214.0</ele>
        <time>2020-07-12T08:56:39Z</time>
      </trkpt>
      <trkpt lat="48.283282" lon="7.637186">
        <ele>214.0</ele>
        <time>2020-07-12T08:56:41Z</time>
      </trkpt>
      <trkpt lat="48.283223" lon="7.637039">
        <ele>214.0</ele>
        <time>2020-07-12T08:56:43Z</time>
      </trkpt>
      <trkpt lat="48.283158" lon="7.63689">
        <ele>214.0</ele>
        <time>2020-07-12T08:56:45Z</time>
      </trkpt>
      <trkpt lat="48.283099" lon="7.636734">
        <ele>213.0</ele>
        <time>2020-07-12T08:56:47Z</time>
      </trkpt>
      <trkpt lat="48.283043" lon="7.636581">
        <ele>213.0</ele>
        <time>2020-07-12T08:56:49Z</time>
      </trkpt>
      <trkpt lat="48.282981" lon="7.636432">
        <ele>213.0</ele>
        <time>2020-07-12T08:56:51Z</time>
      </trkpt>
      <trkpt lat="48.282925" lon="7.636276">
        <ele>213.0</ele>
        <time>2020-07-12T08:56:53Z</time>
      </trkpt>
      <trkpt lat="48.282876" lon="7.636118">
        <ele>213.0</ele>
        <time>2020-07-12T08:56:55Z</time>
      </trkpt>
      <trkpt lat="48.282826" lon="7.635955">
        <ele>214.0</ele>
        <time>2020-07-12T08:56:57Z</time>
      </trkpt>
      <trkpt lat="48.282781" lon="7.635795">
        <ele>214.0</ele>
        <time>2020-07-12T08:56:59Z</time>
      </trkpt>
      <trkpt lat="48.282733" lon="7.635631">
        <ele>213.0</ele>
        <time>2020-07-12T08:57:01Z</time>
      </trkpt>
      <trkpt lat="48.282691" lon="7.635461">
        <ele>213.0</ele>
        <time>2020-07-12T08:57:03Z</time>
      </trkpt>
      <trkpt lat="48.282657" lon="7.635291">
        <ele>213.0</ele>
        <time>2020-07-12T08:57:05Z</time>
      </trkpt>
      <trkpt lat="48.282636" lon="7.635123">
        <ele>213.0</ele>
        <time>2020-07-12T08:57:07Z</time>
      </trkpt>
      <trkpt lat="48.282616" lon="7.634954">
        <ele>214.0</ele>
        <time>2020-07-12T08:57:09Z</time>
      </trkpt>
      <trkpt lat="48.282607" lon="7.634793">
        <ele>214.0</ele>
        <time>2020-07-12T08:57:11Z</time>
      </trkpt>
      <trkpt lat="48.282604" lon="7.63463">
        <ele>214.0</ele>
        <time>2020-07-12T08:57:13Z</time>
      </trkpt>
      <trkpt lat="48.282602" lon="7.634469">
        <ele>214.0</ele>
        <time>2020-07-12T08:57:15Z</time>
      </trkpt>
      <trkpt lat="48.282594" lon="7.634309">
        <ele>215.0</ele>
        <time>2020-07-12T08:57:17Z</time>
      </trkpt>
      <trkpt lat="48.28259" lon="7.634146">
        <ele>215.0</ele>
        <time>2020-07-12T08:57:19Z</time>
      </trkpt>
      <trkpt lat="48.282579" lon="7.633976">
        <ele>215.0</ele>
        <time>2020-07-12T08:57:21Z</time>
      </trkpt>
      <trkpt lat="48.282565" lon="7.633819">
        <ele>215.0</ele>
        <time>2020-07-12T08:57:23Z</time>
      </trkpt>
      <trkpt lat="48.28255" lon="7.633659">
        <ele>216.0</ele>
        <time>2020-07-12T08:57:25Z</time>
      </trkpt>
      <trkpt lat="48.282524" lon="7.63351">
        <ele>215.0</ele>
        <time>2020-07-12T08:57:27Z</time>
      </trkpt>
      <trkpt lat="48.282492" lon="7.63337">
        <ele>216.0</ele>
        <time>2020-07-12T08:57:29Z</time>
      </trkpt>
      <trkpt lat="48.282453" lon="7.63321">
        <ele>215.0</ele>
        <time>2020-07-12T08:57:31Z</time>
      </trkpt>
      <trkpt lat="48.282414" lon="7.633055">
        <ele>216.0</ele>
        <time>2020-07-12T08:57:33Z</time>
      </trkpt>
      <trkpt lat="48.282367" lon="7.632892">
        <ele>215.0</ele>
        <time>2020-07-12T08:57:35Z</time>
      </trkpt>
      <trkpt lat="48.282321" lon="7.63273">
        <ele>215.0</ele>
        <time>2020-07-12T08:57:37Z</time>
      </trkpt>
      <trkpt lat="48.28228" lon="7.632576">
        <ele>214.0</ele>
        <time>2020-07-12T08:57:39Z</time>
      </trkpt>
      <trkpt lat="48.282233" lon="7.632425">
        <ele>214.0</ele>
        <time>2020-07-12T08:57:41Z</time>
      </trkpt>
      <trkpt lat="48.282192" lon="7.632292">
        <ele>214.0</ele>
        <time>2020-07-12T08:57:43Z</time>
      </trkpt>
      <trkpt lat="48.282156" lon="7.632159">
        <ele>214.0</ele>
        <time>2020-07-12T08:57:45Z</time>
      </trkpt>
      <trkpt lat="48.282098" lon="7.631947">
        <ele>214.0</ele>
        <time>2020-07-12T08:57:48Z</time>
      </trkpt>
      <trkpt lat="48.282055" lon="7.631803">
        <ele>213.0</ele>
        <time>2020-07-12T08:57:50Z</time>
      </trkpt>
      <trkpt lat="48.282012" lon="7.631662">
        <ele>213.0</ele>
        <time>2020-07-12T08:57:52Z</time>
      </trkpt>
      <trkpt lat="48.28196" lon="7.631516">
        <ele>214.0</ele>
        <time>2020-07-12T08:57:54Z</time>
      </trkpt>
      <trkpt lat="48.281919" lon="7.631373">
        <ele>214.0</ele>
        <time>2020-07-12T08:57:56Z</time>
      </trkpt>
      <trkpt lat="48.281871" lon="7.63122">
        <ele>214.0</ele>
        <time>2020-07-12T08:57:58Z</time>
      </trkpt>
      <trkpt lat="48.281829" lon="7.631067">
        <ele>214.0</ele>
        <time>2020-07-12T08:58:00Z</time>
      </trkpt>
      <trkpt lat="48.281785" lon="7.630917">
        <ele>215.0</ele>
        <time>2020-07-12T08:58:02Z</time>
      </trkpt>
      <trkpt lat="48.281744" lon="7.630752">
        <ele>215.0</ele>
        <time>2020-07-12T08:58:04Z</time>
      </trkpt>
      <trkpt lat="48.281702" lon="7.630596">
        <ele>214.0</ele>
        <time>2020-07-12T08:58:06Z</time>
      </trkpt>
      <trkpt lat="48.281655" lon="7.630431">
        <ele>214.0</ele>
        <time>2020-07-12T08:58:08Z</time>
      </trkpt>
      <trkpt lat="48.281623" lon="7.630272">
        <ele>214.0</ele>
        <time>2020-07-12T08:58:10Z</time>
      </trkpt>
      <trkpt lat="48.281588" lon="7.630118">
        <ele>214.0</ele>
        <time>2020-07-12T08:58:12Z</time>
      </trkpt>
      <trkpt lat="48.281558" lon="7.629959">
        <ele>214.0</ele>
        <time>2020-07-12T08:58:14Z</time>
      </trkpt>
      <trkpt lat="48.281526" lon="7.629802">
        <ele>214.0</ele>
        <time>2020-07-12T08:58:16Z</time>
      </trkpt>
      <trkpt lat="48.281509" lon="7.629635">
        <ele>214.0</ele>
        <time>2020-07-12T08:58:18Z</time>
      </trkpt>
      <trkpt lat="48.281501" lon="7.629472">
        <ele>213.0</ele>
        <time>2020-07-12T08:58:20Z</time>
      </trkpt>
      <trkpt lat="48.281491" lon="7.629311">
        <ele>213.0</ele>
        <time>2020-07-12T08:58:22Z</time>
      </trkpt>
      <trkpt lat="48.281481" lon="7.629142">
        <ele>213.0</ele>
        <time>2020-07-12T08:58:24Z</time>
      </trkpt>
      <trkpt lat="48.28148" lon="7.628977">
        <ele>213.0</ele>
        <time>2020-07-12T08:58:26Z</time>
      </trkpt>
      <trkpt lat="48.281484" lon="7.628811">
        <ele>213.0</ele>
        <time>2020-07-12T08:58:28Z</time>
      </trkpt>
      <trkpt lat="48.281495" lon="7.628661">
        <ele>213.0</ele>
        <time>2020-07-12T08:58:30Z</time>
      </trkpt>
      <trkpt lat="48.28151" lon="7.628505">
        <ele>213.0</ele>
        <time>2020-07-12T08:58:32Z</time>
      </trkpt>
      <trkpt lat="48.281519" lon="7.62835">
        <ele>213.0</ele>
        <time>2020-07-12T08:58:34Z</time>
      </trkpt>
      <trkpt lat="48.281537" lon="7.628184">
        <ele>213.0</ele>
        <time>2020-07-12T08:58:36Z</time>
      </trkpt>
      <trkpt lat="48.281553" lon="7.628027">
        <ele>213.0</ele>
        <time>2020-07-12T08:58:38Z</time>
      </trkpt>
      <trkpt lat="48.281559" lon="7.627867">
        <ele>212.0</ele>
        <time>2020-07-12T08:58:40Z</time>
      </trkpt>
      <trkpt lat="48.281568" lon="7.627698">
        <ele>213.0</ele>
        <time>2020-07-12T08:58:42Z</time>
      </trkpt>
      <trkpt lat="48.28158" lon="7.627529">
        <ele>213.0</ele>
        <time>2020-07-12T08:58:44Z</time>
      </trkpt>
      <trkpt lat="48.281589" lon="7.627366">
        <ele>213.0</ele>
        <time>2020-07-12T08:58:46Z</time>
      </trkpt>
      <trkpt lat="48.281593" lon="7.627208">
        <ele>213.0</ele>
        <time>2020-07-12T08:58:48Z</time>
      </trkpt>
      <trkpt lat="48.281601" lon="7.627048">
        <ele>213.0</ele>
        <time>2020-07-12T08:58:50Z</time>
      </trkpt>
      <trkpt lat="48.281603" lon="7.626893">
        <ele>214.0</ele>
        <time>2020-07-12T08:58:52Z</time>
      </trkpt>
      <trkpt lat="48.281609" lon="7.626744">
        <ele>213.0</ele>
        <time>2020-07-12T08:58:54Z</time>
      </trkpt>
      <trkpt lat="48.281615" lon="7.626594">
        <ele>213.0</ele>
        <time>2020-07-12T08:58:56Z</time>
      </trkpt>
      <trkpt lat="48.281613" lon="7.62644">
        <ele>213.0</ele>
        <time>2020-07-12T08:58:58Z</time>
      </trkpt>
      <trkpt lat="48.281616" lon="7.626292">
        <ele>213.0</ele>
        <time>2020-07-12T08:59:00Z</time>
      </trkpt>
      <trkpt lat="48.281616" lon="7.626142">
        <ele>213.0</ele>
        <time>2020-07-12T08:59:02Z</time>
      </trkpt>
      <trkpt lat="48.281613" lon="7.625988">
        <ele>213.0</ele>
        <time>2020-07-12T08:59:04Z</time>
      </trkpt>
      <trkpt lat="48.28161" lon="7.625832">
        <ele>213.0</ele>
        <time>2020-07-12T08:59:06Z</time>
      </trkpt>
      <trkpt lat="48.281591" lon="7.625591">
        <ele>214.0</ele>
        <time>2020-07-12T08:59:09Z</time>
      </trkpt>
      <trkpt lat="48.281573" lon="7.625433">
        <ele>214.0</ele>
        <time>2020-07-12T08:59:11Z</time>
      </trkpt>
      <trkpt lat="48.281556" lon="7.625271">
        <ele>214.0</ele>
        <time>2020-07-12T08:59:13Z</time>
      </trkpt>
      <trkpt lat="48.281538" lon="7.625109">
        <ele>213.0</ele>
        <time>2020-07-12T08:59:15Z</time>
      </trkpt>
      <trkpt lat="48.281521" lon="7.624948">
        <ele>214.0</ele>
        <time>2020-07-12T08:59:17Z</time>
      </trkpt>
      <trkpt lat="48.281507" lon="7.624795">
        <ele>213.0</ele>
        <time>2020-07-12T08:59:19Z</time>
      </trkpt>
      <trkpt lat="48.281484" lon="7.624628">
        <ele>213.0</ele>
        <time>2020-07-12T08:59:21Z</time>
      </trkpt>
      <trkpt lat="48.281453" lon="7.624478">
        <ele>213.0</ele>
        <time>2020-07-12T08:59:23Z</time>
      </trkpt>
      <trkpt lat="48.281432" lon="7.624332">
        <ele>214.0</ele>
        <time>2020-07-12T08:59:25Z</time>
      </trkpt>
      <trkpt lat="48.281405" lon="7.624181">
        <ele>214.0</ele>
        <time>2020-07-12T08:59:27Z</time>
      </trkpt>
      <trkpt lat="48.281374" lon="7.624025">
        <ele>214.0</ele>
        <time>2020-07-12T08:59:29Z</time>
      </trkpt>
      <trkpt lat="48.281347" lon="7.623866">
        <ele>213.0</ele>
        <time>2020-07-12T08:59:31Z</time>
      </trkpt>
      <trkpt lat="48.281323" lon="7.623708">
        <ele>214.0</ele>
        <time>2020-07-12T08:59:33Z</time>
      </trkpt>
      <trkpt lat="48.281293" lon="7.623548">
        <ele>214.0</ele>
        <time>2020-07-12T08:59:35Z</time>
      </trkpt>
      <trkpt lat="48.281257" lon="7.623388">
        <ele>214.0</ele>
        <time>2020-07-12T08:59:37Z</time>
      </trkpt>
      <trkpt lat="48.28122" lon="7.623229">
        <ele>214.0</ele>
        <time>2020-07-12T08:59:39Z</time>
      </trkpt>
      <trkpt lat="48.281179" lon="7.623077">
        <ele>214.0</ele>
        <time>2020-07-12T08:59:41Z</time>
      </trkpt>
      <trkpt lat="48.281142" lon="7.622933">
        <ele>214.0</ele>
        <time>2020-07-12T08:59:43Z</time>
      </trkpt>
      <trkpt lat="48.281111" lon="7.622783">
        <ele>213.0</ele>
        <time>2020-07-12T08:59:45Z</time>
      </trkpt>
      <trkpt lat="48.281072" lon="7.622637">
        <ele>212.0</ele>
        <time>2020-07-12T08:59:47Z</time>
      </trkpt>
      <trkpt lat="48.281034" lon="7.622485">
        <ele>212.0</ele>
        <time>2020-07-12T08:59:49Z</time>
      </trkpt>
      <trkpt lat="48.280989" lon="7.622343">
        <ele>213.0</ele>
        <time>2020-07-12T08:59:51Z</time>
      </trkpt>
      <trkpt lat="48.280951" lon="7.622203">
        <ele>213.0</ele>
        <time>2020-07-12T08:59:53Z</time>
      </trkpt>
      <trkpt lat="48.280914" lon="7.622064">
        <ele>214.0</ele>
        <time>2020-07-12T08:59:55Z</time>
      </trkpt>
      <trkpt lat="48.280896" lon="7.622001">
        <ele>214.0</ele>
        <time>2020-07-12T08:59:56Z</time>
      </trkpt>
      <trkpt lat="48.280866" lon="7.621873">
        <ele>214.0</ele>
        <time>2020-07-12T08:59:58Z</time>
      </trkpt>
      <trkpt lat="48.280842" lon="7.621734">
        <ele>214.0</ele>
        <time>2020-07-12T09:00:00Z</time>
      </trkpt>
      <trkpt lat="48.28083" lon="7.621593">
        <ele>214.0</ele>
        <time>2020-07-12T09:00:02Z</time>
      </trkpt>
      <trkpt lat="48.280827" lon="7.621405">
        <ele>214.0</ele>
        <time>2020-07-12T09:00:05Z</time>
      </trkpt>
      <trkpt lat="48.28083" lon="7.621277">
        <ele>215.0</ele>
        <time>2020-07-12T09:00:07Z</time>
      </trkpt>
      <trkpt lat="48.280836" lon="7.621213">
        <ele>215.0</ele>
        <time>2020-07-12T09:00:08Z</time>
      </trkpt>
      <trkpt lat="48.280858" lon="7.621105">
        <ele>215.0</ele>
        <time>2020-07-12T09:00:10Z</time>
      </trkpt>
      <trkpt lat="48.280889" lon="7.620994">
        <ele>215.0</ele>
        <time>2020-07-12T09:00:12Z</time>
      </trkpt>
      <trkpt lat="48.280912" lon="7.620874">
        <ele>214.0</ele>
        <time>2020-07-12T09:00:14Z</time>
      </trkpt>
      <trkpt lat="48.280927" lon="7.620817">
        <ele>215.0</ele>
        <time>2020-07-12T09:00:15Z</time>
      </trkpt>
      <trkpt lat="48.280944" lon="7.620757">
        <ele>215.0</ele>
        <time>2020-07-12T09:00:16Z</time>
      </trkpt>
      <trkpt lat="48.281005" lon="7.620565">
        <ele>215.0</ele>
        <time>2020-07-12T09:00:20Z</time>
      </trkpt>
      <trkpt lat="48.281033" lon="7.620487">
        <ele>215.0</ele>
        <time>2020-07-12T09:00:22Z</time>
      </trkpt>
      <trkpt lat="48.281061" lon="7.620394">
        <ele>216.0</ele>
        <time>2020-07-12T09:00:24Z</time>
      </trkpt>
      <trkpt lat="48.281113" lon="7.620243">
        <ele>216.0</ele>
        <time>2020-07-12T09:00:27Z</time>
      </trkpt>
      <trkpt lat="48.281124" lon="7.62019">
        <ele>217.0</ele>
        <time>2020-07-12T09:00:28Z</time>
      </trkpt>
      <trkpt lat="48.281151" lon="7.620089">
        <ele>217.0</ele>
        <time>2020-07-12T09:00:30Z</time>
      </trkpt>
      <trkpt lat="48.281196" lon="7.61991">
        <ele>217.0</ele>
        <time>2020-07-12T09:00:33Z</time>
      </trkpt>
      <trkpt lat="48.281223" lon="7.619777">
        <ele>217.0</ele>
        <time>2020-07-12T09:00:35Z</time>
      </trkpt>
      <trkpt lat="48.281235" lon="7.619572">
        <ele>216.0</ele>
        <time>2020-07-12T09:00:38Z</time>
      </trkpt>
      <trkpt lat="48.281224" lon="7.619417">
        <ele>215.0</ele>
        <time>2020-07-12T09:00:40Z</time>
      </trkpt>
      <trkpt lat="48.281198" lon="7.619265">
        <ele>214.0</ele>
        <time>2020-07-12T09:00:42Z</time>
      </trkpt>
      <trkpt lat="48.281189" lon="7.619195">
        <ele>214.0</ele>
        <time>2020-07-12T09:00:43Z</time>
      </trkpt>
      <trkpt lat="48.281168" lon="7.61908">
        <ele>213.0</ele>
        <time>2020-07-12T09:00:45Z</time>
      </trkpt>
      <trkpt lat="48.281177" lon="7.619004">
        <ele>213.0</ele>
        <time>2020-07-12T09:00:47Z</time>
      </trkpt>
      <trkpt lat="48.281213" lon="7.619025">
        <ele>213.0</ele>
        <time>2020-07-12T09:00:49Z</time>
      </trkpt>
      <trkpt lat="48.28123" lon="7.619093">
        <ele>213.0</ele>
        <time>2020-07-12T09:00:51Z</time>
      </trkpt>
      <trkpt lat="48.28124" lon="7.619136">
        <ele>213.0</ele>
        <time>2020-07-12T09:00:52Z</time>
      </trkpt>
      <trkpt lat="48.28126" lon="7.619258">
        <ele>213.0</ele>
        <time>2020-07-12T09:00:54Z</time>
      </trkpt>
      <trkpt lat="48.281296" lon="7.619468">
        <ele>213.0</ele>
        <time>2020-07-12T09:00:57Z</time>
      </trkpt>
      <trkpt lat="48.281316" lon="7.619602">
        <ele>212.0</ele>
        <time>2020-07-12T09:00:59Z</time>
      </trkpt>
      <trkpt lat="48.281317" lon="7.619671">
        <ele>212.0</ele>
        <time>2020-07-12T09:01:00Z</time>
      </trkpt>
      <trkpt lat="48.281297" lon="7.619874">
        <ele>213.0</ele>
        <time>2020-07-12T09:01:03Z</time>
      </trkpt>
      <trkpt lat="48.28128" lon="7.619999">
        <ele>213.0</ele>
        <time>2020-07-12T09:01:05Z</time>
      </trkpt>
      <trkpt lat="48.281259" lon="7.62011">
        <ele>213.0</ele>
        <time>2020-07-12T09:01:07Z</time>
      </trkpt>
      <trkpt lat="48.281236" lon="7.620225">
        <ele>212.0</ele>
        <time>2020-07-12T09:01:09Z</time>
      </trkpt>
      <trkpt lat="48.281221" lon="7.62033">
        <ele>212.0</ele>
        <time>2020-07-12T09:01:11Z</time>
      </trkpt>
      <trkpt lat="48.281196" lon="7.620482">
        <ele>213.0</ele>
        <time>2020-07-12T09:01:14Z</time>
      </trkpt>
      <trkpt lat="48.281177" lon="7.620511">
        <ele>213.0</ele>
        <time>2020-07-12T09:01:15Z</time>
      </trkpt>
      <trkpt lat="48.281087" lon="7.620529">
        <ele>213.0</ele>
        <time>2020-07-12T09:01:18Z</time>
      </trkpt>
      <trkpt lat="48.28102" lon="7.620502">
        <ele>213.0</ele>
        <time>2020-07-12T09:01:20Z</time>
      </trkpt>
      <trkpt lat="48.28095" lon="7.620424">
        <ele>213.0</ele>
        <time>2020-07-12T09:01:22Z</time>
      </trkpt>
      <trkpt lat="48.280882" lon="7.620363">
        <ele>214.0</ele>
        <time>2020-07-12T09:01:24Z</time>
      </trkpt>
      <trkpt lat="48.280848" lon="7.620344">
        <ele>214.0</ele>
        <time>2020-07-12T09:01:25Z</time>
      </trkpt>
      <trkpt lat="48.280747" lon="7.620267">
        <ele>216.0</ele>
        <time>2020-07-12T09:01:28Z</time>
      </trkpt>
      <trkpt lat="48.280682" lon="7.620213">
        <ele>216.0</ele>
        <time>2020-07-12T09:01:30Z</time>
      </trkpt>
      <trkpt lat="48.280626" lon="7.620141">
        <ele>216.0</ele>
        <time>2020-07-12T09:01:32Z</time>
      </trkpt>
      <trkpt lat="48.280577" lon="7.620059">
        <ele>216.0</ele>
        <time>2020-07-12T09:01:34Z</time>
      </trkpt>
      <trkpt lat="48.280503" lon="7.619963">
        <ele>216.0</ele>
        <time>2020-07-12T09:01:37Z</time>
      </trkpt>
      <trkpt lat="48.280472" lon="7.619936">
        <ele>217.0</ele>
        <time>2020-07-12T09:01:38Z</time>
      </trkpt>
      <trkpt lat="48.280357" lon="7.619846">
        <ele>216.0</ele>
        <time>2020-07-12T09:01:41Z</time>
      </trkpt>
      <trkpt lat="48.280266" lon="7.619785">
        <ele>216.0</ele>
        <time>2020-07-12T09:01:43Z</time>
      </trkpt>
      <trkpt lat="48.280184" lon="7.619717">
        <ele>216.0</ele>
        <time>2020-07-12T09:01:45Z</time>
      </trkpt>
      <trkpt lat="48.280104" lon="7.619658">
        <ele>217.0</ele>
        <time>2020-07-12T09:01:47Z</time>
      </trkpt>
      <trkpt lat="48.280008" lon="7.61962">
        <ele>216.0</ele>
        <time>2020-07-12T09:01:49Z</time>
      </trkpt>
      <trkpt lat="48.279961" lon="7.61959">
        <ele>216.0</ele>
        <time>2020-07-12T09:01:50Z</time>
      </trkpt>
      <trkpt lat="48.279829" lon="7.619477">
        <ele>216.0</ele>
        <time>2020-07-12T09:01:53Z</time>
      </trkpt>
      <trkpt lat="48.279693" lon="7.619372">
        <ele>217.0</ele>
        <time>2020-07-12T09:01:56Z</time>
      </trkpt>
      <trkpt lat="48.27956" lon="7.619269">
        <ele>216.0</ele>
        <time>2020-07-12T09:01:59Z</time>
      </trkpt>
      <trkpt lat="48.279478" lon="7.619209">
        <ele>216.0</ele>
        <time>2020-07-12T09:02:01Z</time>
      </trkpt>
      <trkpt lat="48.279386" lon="7.619141">
        <ele>216.0</ele>
        <time>2020-07-12T09:02:03Z</time>
      </trkpt>
      <trkpt lat="48.27929" lon="7.61907">
        <ele>216.0</ele>
        <time>2020-07-12T09:02:05Z</time>
      </trkpt>
      <trkpt lat="48.279194" lon="7.618988">
        <ele>216.0</ele>
        <time>2020-07-12T09:02:07Z</time>
      </trkpt>
      <trkpt lat="48.279096" lon="7.618907">
        <ele>216.0</ele>
        <time>2020-07-12T09:02:09Z</time>
      </trkpt>
      <trkpt lat="48.279005" lon="7.618835">
        <ele>217.0</ele>
        <time>2020-07-12T09:02:11Z</time>
      </trkpt>
      <trkpt lat="48.278913" lon="7.618764">
        <ele>217.0</ele>
        <time>2020-07-12T09:02:13Z</time>
      </trkpt>
      <trkpt lat="48.278824" lon="7.618682">
        <ele>217.0</ele>
        <time>2020-07-12T09:02:15Z</time>
      </trkpt>
      <trkpt lat="48.278732" lon="7.61861">
        <ele>216.0</ele>
        <time>2020-07-12T09:02:17Z</time>
      </trkpt>
      <trkpt lat="48.278634" lon="7.618535">
        <ele>217.0</ele>
        <time>2020-07-12T09:02:19Z</time>
      </trkpt>
      <trkpt lat="48.278536" lon="7.618468">
        <ele>217.0</ele>
        <time>2020-07-12T09:02:21Z</time>
      </trkpt>
      <trkpt lat="48.278431" lon="7.618398">
        <ele>218.0</ele>
        <time>2020-07-12T09:02:23Z</time>
      </trkpt>
      <trkpt lat="48.278328" lon="7.618321">
        <ele>217.0</ele>
        <time>2020-07-12T09:02:25Z</time>
      </trkpt>
      <trkpt lat="48.278219" lon="7.618248">
        <ele>218.0</ele>
        <time>2020-07-12T09:02:27Z</time>
      </trkpt>
      <trkpt lat="48.278116" lon="7.618178">
        <ele>217.0</ele>
        <time>2020-07-12T09:02:29Z</time>
      </trkpt>
      <trkpt lat="48.278018" lon="7.618101">
        <ele>217.0</ele>
        <time>2020-07-12T09:02:31Z</time>
      </trkpt>
      <trkpt lat="48.277925" lon="7.618011">
        <ele>216.0</ele>
        <time>2020-07-12T09:02:33Z</time>
      </trkpt>
      <trkpt lat="48.277823" lon="7.617944">
        <ele>216.0</ele>
        <time>2020-07-12T09:02:35Z</time>
      </trkpt>
      <trkpt lat="48.277722" lon="7.617853">
        <ele>216.0</ele>
        <time>2020-07-12T09:02:37Z</time>
      </trkpt>
      <trkpt lat="48.277623" lon="7.617763">
        <ele>215.0</ele>
        <time>2020-07-12T09:02:39Z</time>
      </trkpt>
      <trkpt lat="48.277479" lon="7.617634">
        <ele>214.0</ele>
        <time>2020-07-12T09:02:42Z</time>
      </trkpt>
      <trkpt lat="48.277384" lon="7.617549">
        <ele>215.0</ele>
        <time>2020-07-12T09:02:44Z</time>
      </trkpt>
      <trkpt lat="48.277282" lon="7.617468">
        <ele>215.0</ele>
        <time>2020-07-12T09:02:46Z</time>
      </trkpt>
      <trkpt lat="48.277181" lon="7.617386">
        <ele>215.0</ele>
        <time>2020-07-12T09:02:48Z</time>
      </trkpt>
      <trkpt lat="48.277082" lon="7.617305">
        <ele>215.0</ele>
        <time>2020-07-12T09:02:50Z</time>
      </trkpt>
      <trkpt lat="48.276995" lon="7.617219">
        <ele>215.0</ele>
        <time>2020-07-12T09:02:52Z</time>
      </trkpt>
      <trkpt lat="48.276901" lon="7.617146">
        <ele>215.0</ele>
        <time>2020-07-12T09:02:54Z</time>
      </trkpt>
      <trkpt lat="48.276794" lon="7.617081">
        <ele>216.0</ele>
        <time>2020-07-12T09:02:56Z</time>
      </trkpt>
      <trkpt lat="48.27669" lon="7.617008">
        <ele>216.0</ele>
        <time>2020-07-12T09:02:58Z</time>
      </trkpt>
      <trkpt lat="48.27659" lon="7.616937">
        <ele>216.0</ele>
        <time>2020-07-12T09:03:00Z</time>
      </trkpt>
      <trkpt lat="48.276497" lon="7.616871">
        <ele>216.0</ele>
        <time>2020-07-12T09:03:02Z</time>
      </trkpt>
      <trkpt lat="48.276394" lon="7.616807">
        <ele>216.0</ele>
        <time>2020-07-12T09:03:04Z</time>
      </trkpt>
      <trkpt lat="48.276293" lon="7.616746">
        <ele>216.0</ele>
        <time>2020-07-12T09:03:06Z</time>
      </trkpt>
      <trkpt lat="48.276196" lon="7.616663">
        <ele>215.0</ele>
        <time>2020-07-12T09:03:08Z</time>
      </trkpt>
      <trkpt lat="48.2761" lon="7.616603">
        <ele>215.0</ele>
        <time>2020-07-12T09:03:10Z</time>
      </trkpt>
      <trkpt lat="48.27601" lon="7.616541">
        <ele>216.0</ele>
        <time>2020-07-12T09:03:12Z</time>
      </trkpt>
      <trkpt lat="48.275919" lon="7.616475">
        <ele>216.0</ele>
        <time>2020-07-12T09:03:14Z</time>
      </trkpt>
      <trkpt lat="48.275828" lon="7.616398">
        <ele>216.0</ele>
        <time>2020-07-12T09:03:16Z</time>
      </trkpt>
      <trkpt lat="48.275733" lon="7.61631">
        <ele>216.0</ele>
        <time>2020-07-12T09:03:18Z</time>
      </trkpt>
      <trkpt lat="48.275633" lon="7.616237">
        <ele>216.0</ele>
        <time>2020-07-12T09:03:20Z</time>
      </trkpt>
      <trkpt lat="48.275534" lon="7.616159">
        <ele>217.0</ele>
        <time>2020-07-12T09:03:22Z</time>
      </trkpt>
      <trkpt lat="48.275428" lon="7.616077">
        <ele>217.0</ele>
        <time>2020-07-12T09:03:24Z</time>
      </trkpt>
      <trkpt lat="48.275323" lon="7.615997">
        <ele>217.0</ele>
        <time>2020-07-12T09:03:26Z</time>
      </trkpt>
      <trkpt lat="48.275218" lon="7.615924">
        <ele>217.0</ele>
        <time>2020-07-12T09:03:28Z</time>
      </trkpt>
      <trkpt lat="48.275114" lon="7.615844">
        <ele>217.0</ele>
        <time>2020-07-12T09:03:30Z</time>
      </trkpt>
      <trkpt lat="48.275008" lon="7.61577">
        <ele>217.0</ele>
        <time>2020-07-12T09:03:32Z</time>
      </trkpt>
      <trkpt lat="48.274897" lon="7.615698">
        <ele>216.0</ele>
        <time>2020-07-12T09:03:34Z</time>
      </trkpt>
      <trkpt lat="48.274789" lon="7.615613">
        <ele>216.0</ele>
        <time>2020-07-12T09:03:36Z</time>
      </trkpt>
      <trkpt lat="48.274681" lon="7.615535">
        <ele>216.0</ele>
        <time>2020-07-12T09:03:38Z</time>
      </trkpt>
      <trkpt lat="48.274572" lon="7.615453">
        <ele>216.0</ele>
        <time>2020-07-12T09:03:40Z</time>
      </trkpt>
      <trkpt lat="48.274465" lon="7.615378">
        <ele>216.0</ele>
        <time>2020-07-12T09:03:42Z</time>
      </trkpt>
      <trkpt lat="48.274361" lon="7.615296">
        <ele>216.0</ele>
        <time>2020-07-12T09:03:44Z</time>
      </trkpt>
      <trkpt lat="48.274246" lon="7.615207">
        <ele>216.0</ele>
        <time>2020-07-12T09:03:46Z</time>
      </trkpt>
      <trkpt lat="48.274141" lon="7.61511">
        <ele>215.0</ele>
        <time>2020-07-12T09:03:48Z</time>
      </trkpt>
      <trkpt lat="48.274034" lon="7.61501">
        <ele>215.0</ele>
        <time>2020-07-12T09:03:50Z</time>
      </trkpt>
      <trkpt lat="48.273929" lon="7.614928">
        <ele>215.0</ele>
        <time>2020-07-12T09:03:52Z</time>
      </trkpt>
      <trkpt lat="48.273818" lon="7.614857">
        <ele>215.0</ele>
        <time>2020-07-12T09:03:54Z</time>
      </trkpt>
      <trkpt lat="48.273717" lon="7.614783">
        <ele>214.0</ele>
        <time>2020-07-12T09:03:56Z</time>
      </trkpt>
      <trkpt lat="48.273616" lon="7.614712">
        <ele>214.0</ele>
        <time>2020-07-12T09:03:58Z</time>
      </trkpt>
      <trkpt lat="48.273512" lon="7.614644">
        <ele>214.0</ele>
        <time>2020-07-12T09:04:00Z</time>
      </trkpt>
      <trkpt lat="48.273403" lon="7.614569">
        <ele>214.0</ele>
        <time>2020-07-12T09:04:02Z</time>
      </trkpt>
      <trkpt lat="48.273302" lon="7.614482">
        <ele>214.0</ele>
        <time>2020-07-12T09:04:04Z</time>
      </trkpt>
      <trkpt lat="48.273201" lon="7.614403">
        <ele>215.0</ele>
        <time>2020-07-12T09:04:06Z</time>
      </trkpt>
      <trkpt lat="48.273102" lon="7.614317">
        <ele>214.0</ele>
        <time>2020-07-12T09:04:08Z</time>
      </trkpt>
      <trkpt lat="48.272995" lon="7.614231">
        <ele>214.0</ele>
        <time>2020-07-12T09:04:10Z</time>
      </trkpt>
      <trkpt lat="48.272879" lon="7.614132">
        <ele>214.0</ele>
        <time>2020-07-12T09:04:12Z</time>
      </trkpt>
      <trkpt lat="48.272773" lon="7.614055">
        <ele>214.0</ele>
        <time>2020-07-12T09:04:14Z</time>
      </trkpt>
      <trkpt lat="48.272606" lon="7.613927">
        <ele>214.0</ele>
        <time>2020-07-12T09:04:17Z</time>
      </trkpt>
      <trkpt lat="48.272493" lon="7.613844">
        <ele>214.0</ele>
        <time>2020-07-12T09:04:19Z</time>
      </trkpt>
      <trkpt lat="48.272381" lon="7.613765">
        <ele>214.0</ele>
        <time>2020-07-12T09:04:21Z</time>
      </trkpt>
      <trkpt lat="48.272271" lon="7.613687">
        <ele>214.0</ele>
        <time>2020-07-12T09:04:23Z</time>
      </trkpt>
      <trkpt lat="48.272164" lon="7.613603">
        <ele>214.0</ele>
        <time>2020-07-12T09:04:25Z</time>
      </trkpt>
      <trkpt lat="48.272057" lon="7.613519">
        <ele>214.0</ele>
        <time>2020-07-12T09:04:27Z</time>
      </trkpt>
      <trkpt lat="48.271954" lon="7.613433">
        <ele>214.0</ele>
        <time>2020-07-12T09:04:29Z</time>
      </trkpt>
      <trkpt lat="48.271898" lon="7.613393">
        <ele>214.0</ele>
        <time>2020-07-12T09:04:30Z</time>
      </trkpt>
      <trkpt lat="48.271792" lon="7.613313">
        <ele>213.0</ele>
        <time>2020-07-12T09:04:32Z</time>
      </trkpt>
      <trkpt lat="48.271738" lon="7.613275">
        <ele>213.0</ele>
        <time>2020-07-12T09:04:33Z</time>
      </trkpt>
      <trkpt lat="48.271685" lon="7.613236">
        <ele>213.0</ele>
        <time>2020-07-12T09:04:34Z</time>
      </trkpt>
      <trkpt lat="48.271582" lon="7.613153">
        <ele>213.0</ele>
        <time>2020-07-12T09:04:36Z</time>
      </trkpt>
      <trkpt lat="48.271486" lon="7.613068">
        <ele>212.0</ele>
        <time>2020-07-12T09:04:38Z</time>
      </trkpt>
      <trkpt lat="48.271378" lon="7.612997">
        <ele>212.0</ele>
        <time>2020-07-12T09:04:40Z</time>
      </trkpt>
      <trkpt lat="48.27122" lon="7.612887">
        <ele>212.0</ele>
        <time>2020-07-12T09:04:43Z</time>
      </trkpt>
      <trkpt lat="48.136592" lon="7.533894">
        <ele>230.0</ele>
        <time>2020-07-12T10:31:18Z</time>
      </trkpt>
      <trkpt lat="48.136592" lon="7.533894">
        <ele>230.0</ele>
        <time>2020-07-12T10:31:20Z</time>
      </trkpt>
      <trkpt lat="48.136592" lon="7.533894">
        <ele>230.0</ele>
        <time>2020-07-12T10:31:22Z</time>
      </trkpt>
      <trkpt lat="48.136592" lon="7.533894">
        <ele>230.0</ele>
        <time>2020-07-12T10:31:24Z</time>
      </trkpt>
      <trkpt lat="48.136595" lon="7.533905">
        <ele>230.0</ele>
        <time>2020-07-12T10:31:27Z</time>
      </trkpt>
      <trkpt lat="48.136596" lon="7.533904">
        <ele>230.0</ele>
        <time>2020-07-12T10:31:29Z</time>
      </trkpt>
      <trkpt lat="48.136599" lon="7.533899">
        <ele>231.0</ele>
        <time>2020-07-12T10:31:31Z</time>
      </trkpt>
      <trkpt lat="48.136599" lon="7.533899">
        <ele>231.0</ele>
        <time>2020-07-12T10:31:34Z</time>
      </trkpt>
      <trkpt lat="48.136599" lon="7.533899">
        <ele>231.0</ele>
        <time>2020-07-12T10:31:36Z</time>
      </trkpt>
      <trkpt lat="48.136599" lon="7.533899">
        <ele>231.0</ele>
        <time>2020-07-12T10:31:38Z</time>
      </trkpt>
      <trkpt lat="48.136582" lon="7.533915">
        <ele>229.0</ele>
        <time>2020-07-12T10:31:40Z</time>
      </trkpt>
      <trkpt lat="48.136528" lon="7.533909">
        <ele>228.0</ele>
        <time>2020-07-12T10:31:43Z</time>
      </trkpt>
      <trkpt lat="48.136468" lon="7.533906">
        <ele>230.0</ele>
        <time>2020-07-12T10:31:45Z</time>
      </trkpt>
      <trkpt lat="48.136438" lon="7.533901">
        <ele>230.0</ele>
        <time>2020-07-12T10:31:46Z</time>
      </trkpt>
      <trkpt lat="48.136299" lon="7.533882">
        <ele>231.0</ele>
        <time>2020-07-12T10:31:50Z</time>
      </trkpt>
      <trkpt lat="48.136219" lon="7.533885">
        <ele>232.0</ele>
        <time>2020-07-12T10:31:52Z</time>
      </trkpt>
      <trkpt lat="48.136116" lon="7.533891">
        <ele>234.0</ele>
        <time>2020-07-12T10:31:54Z</time>
      </trkpt>
      <trkpt lat="48.136025" lon="7.533888">
        <ele>234.0</ele>
        <time>2020-07-12T10:31:56Z</time>
      </trkpt>
      <trkpt lat="48.135938" lon="7.533892">
        <ele>234.0</ele>
        <time>2020-07-12T10:31:58Z</time>
      </trkpt>
      <trkpt lat="48.135857" lon="7.533889">
        <ele>234.0</ele>
        <time>2020-07-12T10:32:00Z</time>
      </trkpt>
      <trkpt lat="48.135785" lon="7.533887">
        <ele>234.0</ele>
        <time>2020-07-12T10:32:02Z</time>
      </trkpt>
      <trkpt lat="48.135719" lon="7.533893">
        <ele>234.0</ele>
        <time>2020-07-12T10:32:04Z</time>
      </trkpt>
      <trkpt lat="48.135593" lon="7.53391">
        <ele>233.0</ele>
        <time>2020-07-12T10:32:07Z</time>
      </trkpt>
      <trkpt lat="48.135509" lon="7.533919">
        <ele>232.0</ele>
        <time>2020-07-12T10:32:09Z</time>
      </trkpt>
      <trkpt lat="48.135421" lon="7.533918">
        <ele>233.0</ele>
        <time>2020-07-12T10:32:11Z</time>
      </trkpt>
      <trkpt lat="48.135324" lon="7.533904">
        <ele>232.0</ele>
        <time>2020-07-12T10:32:13Z</time>
      </trkpt>
      <trkpt lat="48.13523" lon="7.533891">
        <ele>231.0</ele>
        <time>2020-07-12T10:32:15Z</time>
      </trkpt>
      <trkpt lat="48.135078" lon="7.533862">
        <ele>231.0</ele>
        <time>2020-07-12T10:32:18Z</time>
      </trkpt>
      <trkpt lat="48.134981" lon="7.533847">
        <ele>231.0</ele>
        <time>2020-07-12T10:32:20Z</time>
      </trkpt>
      <trkpt lat="48.13493" lon="7.53384">
        <ele>231.0</ele>
        <time>2020-07-12T10:32:21Z</time>
      </trkpt>
      <trkpt lat="48.134723" lon="7.533813">
        <ele>231.0</ele>
        <time>2020-07-12T10:32:25Z</time>
      </trkpt>
      <trkpt lat="48.134617" lon="7.533813">
        <ele>231.0</ele>
        <time>2020-07-12T10:32:27Z</time>
      </trkpt>
      <trkpt lat="48.134514" lon="7.533804">
        <ele>231.0</ele>
        <time>2020-07-12T10:32:29Z</time>
      </trkpt>
      <trkpt lat="48.134408" lon="7.533791">
        <ele>231.0</ele>
        <time>2020-07-12T10:32:31Z</time>
      </trkpt>
      <trkpt lat="48.134301" lon="7.533791">
        <ele>231.0</ele>
        <time>2020-07-12T10:32:33Z</time>
      </trkpt>
      <trkpt lat="48.134133" lon="7.533789">
        <ele>231.0</ele>
        <time>2020-07-12T10:32:36Z</time>
      </trkpt>
      <trkpt lat="48.134019" lon="7.533786">
        <ele>231.0</ele>
        <time>2020-07-12T10:32:38Z</time>
      </trkpt>
      <trkpt lat="48.133911" lon="7.533779">
        <ele>231.0</ele>
        <time>2020-07-12T10:32:40Z</time>
      </trkpt>
      <trkpt lat="48.133804" lon="7.533782">
        <ele>231.0</ele>
        <time>2020-07-12T10:32:42Z</time>
      </trkpt>
      <trkpt lat="48.133699" lon="7.533777">
        <ele>231.0</ele>
        <time>2020-07-12T10:32:44Z</time>
      </trkpt>
      <trkpt lat="48.13359" lon="7.53377">
        <ele>231.0</ele>
        <time>2020-07-12T10:32:46Z</time>
      </trkpt>
      <trkpt lat="48.133473" lon="7.53376">
        <ele>231.0</ele>
        <time>2020-07-12T10:32:48Z</time>
      </trkpt>
      <trkpt lat="48.133365" lon="7.533755">
        <ele>231.0</ele>
        <time>2020-07-12T10:32:50Z</time>
      </trkpt>
      <trkpt lat="48.133306" lon="7.533759">
        <ele>231.0</ele>
        <time>2020-07-12T10:32:51Z</time>
      </trkpt>
      <trkpt lat="48.133143" lon="7.533746">
        <ele>232.0</ele>
        <time>2020-07-12T10:32:54Z</time>
      </trkpt>
      <trkpt lat="48.13303" lon="7.533749">
        <ele>232.0</ele>
        <time>2020-07-12T10:32:56Z</time>
      </trkpt>
      <trkpt lat="48.13292" lon="7.533741">
        <ele>232.0</ele>
        <time>2020-07-12T10:32:58Z</time>
      </trkpt>
      <trkpt lat="48.132756" lon="7.533732">
        <ele>232.0</ele>
        <time>2020-07-12T10:33:01Z</time>
      </trkpt>
      <trkpt lat="48.132644" lon="7.53373">
        <ele>232.0</ele>
        <time>2020-07-12T10:33:03Z</time>
      </trkpt>
      <trkpt lat="48.132532" lon="7.533735">
        <ele>231.0</ele>
        <time>2020-07-12T10:33:05Z</time>
      </trkpt>
      <trkpt lat="48.132421" lon="7.533738">
        <ele>231.0</ele>
        <time>2020-07-12T10:33:07Z</time>
      </trkpt>
      <trkpt lat="48.13226" lon="7.533738">
        <ele>231.0</ele>
        <time>2020-07-12T10:33:10Z</time>
      </trkpt>
      <trkpt lat="48.132153" lon="7.533741">
        <ele>231.0</ele>
        <time>2020-07-12T10:33:12Z</time>
      </trkpt>
      <trkpt lat="48.132044" lon="7.533729">
        <ele>231.0</ele>
        <time>2020-07-12T10:33:14Z</time>
      </trkpt>
      <trkpt lat="48.131873" lon="7.533702">
        <ele>231.0</ele>
        <time>2020-07-12T10:33:17Z</time>
      </trkpt>
      <trkpt lat="48.131758" lon="7.533691">
        <ele>231.0</ele>
        <time>2020-07-12T10:33:19Z</time>
      </trkpt>
      <trkpt lat="48.131699" lon="7.533689">
        <ele>230.0</ele>
        <time>2020-07-12T10:33:20Z</time>
      </trkpt>
      <trkpt lat="48.13152" lon="7.533687">
        <ele>231.0</ele>
        <time>2020-07-12T10:33:23Z</time>
      </trkpt>
      <trkpt lat="48.131402" lon="7.533684">
        <ele>231.0</ele>
        <time>2020-07-12T10:33:25Z</time>
      </trkpt>
      <trkpt lat="48.131289" lon="7.533684">
        <ele>231.0</ele>
        <time>2020-07-12T10:33:27Z</time>
      </trkpt>
      <trkpt lat="48.131178" lon="7.533687">
        <ele>231.0</ele>
        <time>2020-07-12T10:33:29Z</time>
      </trkpt>
      <trkpt lat="48.131058" lon="7.533666">
        <ele>231.0</ele>
        <time>2020-07-12T10:33:31Z</time>
      </trkpt>
      <trkpt lat="48.130945" lon="7.533647">
        <ele>231.0</ele>
        <time>2020-07-12T10:33:33Z</time>
      </trkpt>
      <trkpt lat="48.130828" lon="7.533629">
        <ele>231.0</ele>
        <time>2020-07-12T10:33:35Z</time>
      </trkpt>
      <trkpt lat="48.130711" lon="7.533616">
        <ele>231.0</ele>
        <time>2020-07-12T10:33:37Z</time>
      </trkpt>
      <trkpt lat="48.130598" lon="7.53361">
        <ele>230.0</ele>
        <time>2020-07-12T10:33:39Z</time>
      </trkpt>
      <trkpt lat="48.130484" lon="7.533606">
        <ele>230.0</ele>
        <time>2020-07-12T10:33:41Z</time>
      </trkpt>
      <trkpt lat="48.130372" lon="7.533607">
        <ele>230.0</ele>
        <time>2020-07-12T10:33:43Z</time>
      </trkpt>
      <trkpt lat="48.130263" lon="7.533609">
        <ele>231.0</ele>
        <time>2020-07-12T10:33:45Z</time>
      </trkpt>
      <trkpt lat="48.130152" lon="7.533608">
        <ele>231.0</ele>
        <time>2020-07-12T10:33:47Z</time>
      </trkpt>
      <trkpt lat="48.130044" lon="7.533599">
        <ele>231.0</ele>
        <time>2020-07-12T10:33:49Z</time>
      </trkpt>
      <trkpt lat="48.129928" lon="7.533592">
        <ele>231.0</ele>
        <time>2020-07-12T10:33:51Z</time>
      </trkpt>
      <trkpt lat="48.12981" lon="7.533582">
        <ele>231.0</ele>
        <time>2020-07-12T10:33:53Z</time>
      </trkpt>
      <trkpt lat="48.129634" lon="7.533571">
        <ele>230.0</ele>
        <time>2020-07-12T10:33:56Z</time>
      </trkpt>
      <trkpt lat="48.129523" lon="7.533558">
        <ele>231.0</ele>
        <time>2020-07-12T10:33:58Z</time>
      </trkpt>
      <trkpt lat="48.129343" lon="7.533561">
        <ele>231.0</ele>
        <time>2020-07-12T10:34:01Z</time>
      </trkpt>
      <trkpt lat="48.129226" lon="7.533553">
        <ele>232.0</ele>
        <time>2020-07-12T10:34:03Z</time>
      </trkpt>
      <trkpt lat="48.129114" lon="7.533552">
        <ele>232.0</ele>
        <time>2020-07-12T10:34:05Z</time>
      </trkpt>
      <trkpt lat="48.128993" lon="7.533545">
        <ele>232.0</ele>
        <time>2020-07-12T10:34:07Z</time>
      </trkpt>
      <trkpt lat="48.128876" lon="7.533543">
        <ele>232.0</ele>
        <time>2020-07-12T10:34:09Z</time>
      </trkpt>
      <trkpt lat="48.12875" lon="7.533539">
        <ele>232.0</ele>
        <time>2020-07-12T10:34:11Z</time>
      </trkpt>
      <trkpt lat="48.128634" lon="7.533527">
        <ele>232.0</ele>
        <time>2020-07-12T10:34:13Z</time>
      </trkpt>
      <trkpt lat="48.128527" lon="7.533527">
        <ele>231.0</ele>
        <time>2020-07-12T10:34:15Z</time>
      </trkpt>
      <trkpt lat="48.128365" lon="7.533521">
        <ele>232.0</ele>
        <time>2020-07-12T10:34:18Z</time>
      </trkpt>
      <trkpt lat="48.12826" lon="7.533511">
        <ele>232.0</ele>
        <time>2020-07-12T10:34:20Z</time>
      </trkpt>
      <trkpt lat="48.128152" lon="7.533494">
        <ele>232.0</ele>
        <time>2020-07-12T10:34:22Z</time>
      </trkpt>
      <trkpt lat="48.128095" lon="7.533487">
        <ele>232.0</ele>
        <time>2020-07-12T10:34:23Z</time>
      </trkpt>
      <trkpt lat="48.127927" lon="7.533485">
        <ele>233.0</ele>
        <time>2020-07-12T10:34:26Z</time>
      </trkpt>
      <trkpt lat="48.127822" lon="7.533475">
        <ele>233.0</ele>
        <time>2020-07-12T10:34:28Z</time>
      </trkpt>
      <trkpt lat="48.127711" lon="7.533462">
        <ele>233.0</ele>
        <time>2020-07-12T10:34:30Z</time>
      </trkpt>
      <trkpt lat="48.12754" lon="7.533464">
        <ele>233.0</ele>
        <time>2020-07-12T10:34:33Z</time>
      </trkpt>
      <trkpt lat="48.127428" lon="7.533464">
        <ele>233.0</ele>
        <time>2020-07-12T10:34:35Z</time>
      </trkpt>
      <trkpt lat="48.127314" lon="7.533456">
        <ele>234.0</ele>
        <time>2020-07-12T10:34:37Z</time>
      </trkpt>
      <trkpt lat="48.127209" lon="7.533438">
        <ele>234.0</ele>
        <time>2020-07-12T10:34:39Z</time>
      </trkpt>
      <trkpt lat="48.127036" lon="7.533417">
        <ele>233.0</ele>
        <time>2020-07-12T10:34:42Z</time>
      </trkpt>
      <trkpt lat="48.126924" lon="7.533422">
        <ele>233.0</ele>
        <time>2020-07-12T10:34:44Z</time>
      </trkpt>
      <trkpt lat="48.126815" lon="7.533419">
        <ele>233.0</ele>
        <time>2020-07-12T10:34:46Z</time>
      </trkpt>
      <trkpt lat="48.126648" lon="7.533421">
        <ele>233.0</ele>
        <time>2020-07-12T10:34:49Z</time>
      </trkpt>
      <trkpt lat="48.126531" lon="7.53342">
        <ele>234.0</ele>
        <time>2020-07-12T10:34:51Z</time>
      </trkpt>
      <trkpt lat="48.126474" lon="7.533421">
        <ele>234.0</ele>
        <time>2020-07-12T10:34:52Z</time>
      </trkpt>
      <trkpt lat="48.126314" lon="7.533407">
        <ele>233.0</ele>
        <time>2020-07-12T10:34:55Z</time>
      </trkpt>
      <trkpt lat="48.126199" lon="7.533403">
        <ele>233.0</ele>
        <time>2020-07-12T10:34:57Z</time>
      </trkpt>
      <trkpt lat="48.12609" lon="7.533391">
        <ele>233.0</ele>
        <time>2020-07-12T10:34:59Z</time>
      </trkpt>
      <trkpt lat="48.125976" lon="7.533385">
        <ele>233.0</ele>
        <time>2020-07-12T10:35:01Z</time>
      </trkpt>
      <trkpt lat="48.125859" lon="7.533381">
        <ele>233.0</ele>
        <time>2020-07-12T10:35:03Z</time>
      </trkpt>
      <trkpt lat="48.125747" lon="7.533381">
        <ele>232.0</ele>
        <time>2020-07-12T10:35:05Z</time>
      </trkpt>
      <trkpt lat="48.125639" lon="7.533385">
        <ele>232.0</ele>
        <time>2020-07-12T10:35:07Z</time>
      </trkpt>
      <trkpt lat="48.125529" lon="7.533371">
        <ele>232.0</ele>
        <time>2020-07-12T10:35:09Z</time>
      </trkpt>
      <trkpt lat="48.125357" lon="7.533356">
        <ele>231.0</ele>
        <time>2020-07-12T10:35:12Z</time>
      </trkpt>
      <trkpt lat="48.125245" lon="7.533353">
        <ele>231.0</ele>
        <time>2020-07-12T10:35:14Z</time>
      </trkpt>
      <trkpt lat="48.125133" lon="7.533345">
        <ele>231.0</ele>
        <time>2020-07-12T10:35:16Z</time>
      </trkpt>
      <trkpt lat="48.125015" lon="7.533305">
        <ele>231.0</ele>
        <time>2020-07-12T10:35:18Z</time>
      </trkpt>
      <trkpt lat="48.124846" lon="7.533221">
        <ele>231.0</ele>
        <time>2020-07-12T10:35:21Z</time>
      </trkpt>
      <trkpt lat="48.124736" lon="7.533212">
        <ele>231.0</ele>
        <time>2020-07-12T10:35:23Z</time>
      </trkpt>
      <trkpt lat="48.124624" lon="7.533215">
        <ele>232.0</ele>
        <time>2020-07-12T10:35:25Z</time>
      </trkpt>
      <trkpt lat="48.124513" lon="7.533216">
        <ele>232.0</ele>
        <time>2020-07-12T10:35:27Z</time>
      </trkpt>
      <trkpt lat="48.124342" lon="7.533215">
        <ele>233.0</ele>
        <time>2020-07-12T10:35:30Z</time>
      </trkpt>
      <trkpt lat="48.124229" lon="7.533212">
        <ele>233.0</ele>
        <time>2020-07-12T10:35:32Z</time>
      </trkpt>
      <trkpt lat="48.12412" lon="7.533209">
        <ele>233.0</ele>
        <time>2020-07-12T10:35:34Z</time>
      </trkpt>
      <trkpt lat="48.123962" lon="7.533199">
        <ele>233.0</ele>
        <time>2020-07-12T10:35:37Z</time>
      </trkpt>
      <trkpt lat="48.123848" lon="7.5332">
        <ele>233.0</ele>
        <time>2020-07-12T10:35:39Z</time>
      </trkpt>
      <trkpt lat="48.123736" lon="7.533199">
        <ele>233.0</ele>
        <time>2020-07-12T10:35:41Z</time>
      </trkpt>
      <trkpt lat="48.123623" lon="7.533191">
        <ele>233.0</ele>
        <time>2020-07-12T10:35:43Z</time>
      </trkpt>
      <trkpt lat="48.12345" lon="7.533186">
        <ele>232.0</ele>
        <time>2020-07-12T10:35:46Z</time>
      </trkpt>
      <trkpt lat="48.123396" lon="7.533175">
        <ele>232.0</ele>
        <time>2020-07-12T10:35:47Z</time>
      </trkpt>
      <trkpt lat="48.123241" lon="7.533164">
        <ele>233.0</ele>
        <time>2020-07-12T10:35:50Z</time>
      </trkpt>
      <trkpt lat="48.123119" lon="7.533167">
        <ele>232.0</ele>
        <time>2020-07-12T10:35:52Z</time>
      </trkpt>
      <trkpt lat="48.123001" lon="7.53316">
        <ele>232.0</ele>
        <time>2020-07-12T10:35:54Z</time>
      </trkpt>
      <trkpt lat="48.122892" lon="7.533159">
        <ele>232.0</ele>
        <time>2020-07-12T10:35:56Z</time>
      </trkpt>
      <trkpt lat="48.122779" lon="7.533165">
        <ele>232.0</ele>
        <time>2020-07-12T10:35:58Z</time>
      </trkpt>
      <trkpt lat="48.122658" lon="7.533179">
        <ele>232.0</ele>
        <time>2020-07-12T10:36:00Z</time>
      </trkpt>
      <trkpt lat="48.122533" lon="7.533179">
        <ele>231.0</ele>
        <time>2020-07-12T10:36:02Z</time>
      </trkpt>
      <trkpt lat="48.122416" lon="7.533176">
        <ele>231.0</ele>
        <time>2020-07-12T10:36:04Z</time>
      </trkpt>
      <trkpt lat="48.122298" lon="7.533172">
        <ele>232.0</ele>
        <time>2020-07-12T10:36:06Z</time>
      </trkpt>
      <trkpt lat="48.122186" lon="7.533173">
        <ele>232.0</ele>
        <time>2020-07-12T10:36:08Z</time>
      </trkpt>
      <trkpt lat="48.122073" lon="7.533165">
        <ele>232.0</ele>
        <time>2020-07-12T10:36:10Z</time>
      </trkpt>
      <trkpt lat="48.121957" lon="7.533149">
        <ele>232.0</ele>
        <time>2020-07-12T10:36:12Z</time>
      </trkpt>
      <trkpt lat="48.121792" lon="7.533139">
        <ele>233.0</ele>
        <time>2020-07-12T10:36:15Z</time>
      </trkpt>
      <trkpt lat="48.121675" lon="7.533147">
        <ele>233.0</ele>
        <time>2020-07-12T10:36:17Z</time>
      </trkpt>
      <trkpt lat="48.121552" lon="7.533137">
        <ele>233.0</ele>
        <time>2020-07-12T10:36:19Z</time>
      </trkpt>
      <trkpt lat="48.121371" lon="7.533127">
        <ele>234.0</ele>
        <time>2020-07-12T10:36:22Z</time>
      </trkpt>
      <trkpt lat="48.121255" lon="7.533117">
        <ele>234.0</ele>
        <time>2020-07-12T10:36:24Z</time>
      </trkpt>
      <trkpt lat="48.121077" lon="7.533096">
        <ele>234.0</ele>
        <time>2020-07-12T10:36:27Z</time>
      </trkpt>
      <trkpt lat="48.120966" lon="7.533096">
        <ele>234.0</ele>
        <time>2020-07-12T10:36:29Z</time>
      </trkpt>
      <trkpt lat="48.120848" lon="7.533099">
        <ele>234.0</ele>
        <time>2020-07-12T10:36:31Z</time>
      </trkpt>
      <trkpt lat="48.120729" lon="7.533104">
        <ele>234.0</ele>
        <time>2020-07-12T10:36:33Z</time>
      </trkpt>
      <trkpt lat="48.120611" lon="7.533098">
        <ele>234.0</ele>
        <time>2020-07-12T10:36:35Z</time>
      </trkpt>
      <trkpt lat="48.120495" lon="7.533087">
        <ele>234.0</ele>
        <time>2020-07-12T10:36:37Z</time>
      </trkpt>
      <trkpt lat="48.120325" lon="7.53307">
        <ele>233.0</ele>
        <time>2020-07-12T10:36:40Z</time>
      </trkpt>
      <trkpt lat="48.120268" lon="7.533062">
        <ele>233.0</ele>
        <time>2020-07-12T10:36:41Z</time>
      </trkpt>
      <trkpt lat="48.120096" lon="7.533053">
        <ele>232.0</ele>
        <time>2020-07-12T10:36:44Z</time>
      </trkpt>
      <trkpt lat="48.119979" lon="7.533047">
        <ele>233.0</ele>
        <time>2020-07-12T10:36:46Z</time>
      </trkpt>
      <trkpt lat="48.119872" lon="7.533045">
        <ele>233.0</ele>
        <time>2020-07-12T10:36:48Z</time>
      </trkpt>
      <trkpt lat="48.119766" lon="7.53305">
        <ele>233.0</ele>
        <time>2020-07-12T10:36:50Z</time>
      </trkpt>
      <trkpt lat="48.119663" lon="7.533049">
        <ele>233.0</ele>
        <time>2020-07-12T10:36:52Z</time>
      </trkpt>
      <trkpt lat="48.11957" lon="7.533041">
        <ele>233.0</ele>
        <time>2020-07-12T10:36:54Z</time>
      </trkpt>
      <trkpt lat="48.11947" lon="7.533031">
        <ele>233.0</ele>
        <time>2020-07-12T10:36:56Z</time>
      </trkpt>
      <trkpt lat="48.119298" lon="7.533023">
        <ele>233.0</ele>
        <time>2020-07-12T10:36:59Z</time>
      </trkpt>
      <trkpt lat="48.119184" lon="7.533017">
        <ele>232.0</ele>
        <time>2020-07-12T10:37:01Z</time>
      </trkpt>
      <trkpt lat="48.119076" lon="7.533016">
        <ele>232.0</ele>
        <time>2020-07-12T10:37:03Z</time>
      </trkpt>
      <trkpt lat="48.11891" lon="7.53301">
        <ele>231.0</ele>
        <time>2020-07-12T10:37:06Z</time>
      </trkpt>
      <trkpt lat="48.118806" lon="7.533">
        <ele>231.0</ele>
        <time>2020-07-12T10:37:08Z</time>
      </trkpt>
      <trkpt lat="48.118697" lon="7.532991">
        <ele>232.0</ele>
        <time>2020-07-12T10:37:10Z</time>
      </trkpt>
      <trkpt lat="48.118538" lon="7.532986">
        <ele>232.0</ele>
        <time>2020-07-12T10:37:13Z</time>
      </trkpt>
      <trkpt lat="48.118433" lon="7.532974">
        <ele>232.0</ele>
        <time>2020-07-12T10:37:15Z</time>
      </trkpt>
      <trkpt lat="48.118336" lon="7.53296">
        <ele>232.0</ele>
        <time>2020-07-12T10:37:17Z</time>
      </trkpt>
      <trkpt lat="48.118236" lon="7.532955">
        <ele>232.0</ele>
        <time>2020-07-12T10:37:19Z</time>
      </trkpt>
      <trkpt lat="48.118064" lon="7.532944">
        <ele>232.0</ele>
        <time>2020-07-12T10:37:22Z</time>
      </trkpt>
      <trkpt lat="48.117946" lon="7.532937">
        <ele>232.0</ele>
        <time>2020-07-12T10:37:24Z</time>
      </trkpt>
      <trkpt lat="48.117831" lon="7.532933">
        <ele>232.0</ele>
        <time>2020-07-12T10:37:26Z</time>
      </trkpt>
      <trkpt lat="48.117774" lon="7.532933">
        <ele>232.0</ele>
        <time>2020-07-12T10:37:27Z</time>
      </trkpt>
      <trkpt lat="48.117613" lon="7.532925">
        <ele>232.0</ele>
        <time>2020-07-12T10:37:30Z</time>
      </trkpt>
      <trkpt lat="48.117526" lon="7.532922">
        <ele>232.0</ele>
        <time>2020-07-12T10:37:32Z</time>
      </trkpt>
      <trkpt lat="48.11746" lon="7.532921">
        <ele>232.0</ele>
        <time>2020-07-12T10:37:34Z</time>
      </trkpt>
      <trkpt lat="48.117379" lon="7.532914">
        <ele>232.0</ele>
        <time>2020-07-12T10:37:37Z</time>
      </trkpt>
      <trkpt lat="48.117321" lon="7.532916">
        <ele>232.0</ele>
        <time>2020-07-12T10:37:39Z</time>
      </trkpt>
      <trkpt lat="48.117248" lon="7.532921">
        <ele>232.0</ele>
        <time>2020-07-12T10:37:41Z</time>
      </trkpt>
      <trkpt lat="48.117152" lon="7.532912">
        <ele>232.0</ele>
        <time>2020-07-12T10:37:43Z</time>
      </trkpt>
      <trkpt lat="48.117111" lon="7.532911">
        <ele>232.0</ele>
        <time>2020-07-12T10:37:44Z</time>
      </trkpt>
      <trkpt lat="48.116925" lon="7.532909">
        <ele>232.0</ele>
        <time>2020-07-12T10:37:48Z</time>
      </trkpt>
      <trkpt lat="48.116835" lon="7.532905">
        <ele>232.0</ele>
        <time>2020-07-12T10:37:50Z</time>
      </trkpt>
      <trkpt lat="48.116765" lon="7.532887">
        <ele>232.0</ele>
        <time>2020-07-12T10:37:52Z</time>
      </trkpt>
      <trkpt lat="48.116683" lon="7.532911">
        <ele>232.0</ele>
        <time>2020-07-12T10:37:55Z</time>
      </trkpt>
      <trkpt lat="48.116638" lon="7.532962">
        <ele>232.0</ele>
        <time>2020-07-12T10:37:57Z</time>
      </trkpt>
      <trkpt lat="48.11661" lon="7.532982">
        <ele>232.0</ele>
        <time>2020-07-12T10:37:58Z</time>
      </trkpt>
      <trkpt lat="48.116482" lon="7.532998">
        <ele>232.0</ele>
        <time>2020-07-12T10:38:01Z</time>
      </trkpt>
      <trkpt lat="48.116409" lon="7.532981">
        <ele>232.0</ele>
        <time>2020-07-12T10:38:03Z</time>
      </trkpt>
      <trkpt lat="48.116348" lon="7.532967">
        <ele>231.0</ele>
        <time>2020-07-12T10:38:05Z</time>
      </trkpt>
      <trkpt lat="48.116277" lon="7.532956">
        <ele>231.0</ele>
        <time>2020-07-12T10:38:07Z</time>
      </trkpt>
      <trkpt lat="48.116202" lon="7.532954">
        <ele>232.0</ele>
        <time>2020-07-12T10:38:09Z</time>
      </trkpt>
      <trkpt lat="48.116119" lon="7.532961">
        <ele>232.0</ele>
        <time>2020-07-12T10:38:11Z</time>
      </trkpt>
      <trkpt lat="48.116038" lon="7.532916">
        <ele>232.0</ele>
        <time>2020-07-12T10:38:13Z</time>
      </trkpt>
      <trkpt lat="48.115915" lon="7.532888">
        <ele>233.0</ele>
        <time>2020-07-12T10:38:16Z</time>
      </trkpt>
      <trkpt lat="48.115834" lon="7.532873">
        <ele>234.0</ele>
        <time>2020-07-12T10:38:18Z</time>
      </trkpt>
      <trkpt lat="48.115744" lon="7.532861">
        <ele>234.0</ele>
        <time>2020-07-12T10:38:20Z</time>
      </trkpt>
      <trkpt lat="48.115654" lon="7.53285">
        <ele>234.0</ele>
        <time>2020-07-12T10:38:22Z</time>
      </trkpt>
      <trkpt lat="48.11556" lon="7.532847">
        <ele>234.0</ele>
        <time>2020-07-12T10:38:24Z</time>
      </trkpt>
      <trkpt lat="48.115463" lon="7.53284">
        <ele>235.0</ele>
        <time>2020-07-12T10:38:26Z</time>
      </trkpt>
      <trkpt lat="48.115359" lon="7.532832">
        <ele>235.0</ele>
        <time>2020-07-12T10:38:28Z</time>
      </trkpt>
      <trkpt lat="48.115306" lon="7.532827">
        <ele>235.0</ele>
        <time>2020-07-12T10:38:29Z</time>
      </trkpt>
      <trkpt lat="48.115149" lon="7.532813">
        <ele>234.0</ele>
        <time>2020-07-12T10:38:32Z</time>
      </trkpt>
      <trkpt lat="48.115046" lon="7.532804">
        <ele>234.0</ele>
        <time>2020-07-12T10:38:34Z</time>
      </trkpt>
      <trkpt lat="48.11489" lon="7.532805">
        <ele>234.0</ele>
        <time>2020-07-12T10:38:37Z</time>
      </trkpt>
      <trkpt lat="48.114779" lon="7.532806">
        <ele>234.0</ele>
        <time>2020-07-12T10:38:39Z</time>
      </trkpt>
      <trkpt lat="48.114615" lon="7.532783">
        <ele>234.0</ele>
        <time>2020-07-12T10:38:42Z</time>
      </trkpt>
      <trkpt lat="48.114501" lon="7.53277">
        <ele>234.0</ele>
        <time>2020-07-12T10:38:44Z</time>
      </trkpt>
      <trkpt lat="48.114387" lon="7.53276">
        <ele>234.0</ele>
        <time>2020-07-12T10:38:46Z</time>
      </trkpt>
      <trkpt lat="48.114211" lon="7.532756">
        <ele>235.0</ele>
        <time>2020-07-12T10:38:49Z</time>
      </trkpt>
      <trkpt lat="48.1141" lon="7.532754">
        <ele>234.0</ele>
        <time>2020-07-12T10:38:51Z</time>
      </trkpt>
      <trkpt lat="48.113987" lon="7.532749">
        <ele>234.0</ele>
        <time>2020-07-12T10:38:53Z</time>
      </trkpt>
      <trkpt lat="48.113879" lon="7.532756">
        <ele>234.0</ele>
        <time>2020-07-12T10:38:55Z</time>
      </trkpt>
      <trkpt lat="48.113778" lon="7.532754">
        <ele>234.0</ele>
        <time>2020-07-12T10:38:57Z</time>
      </trkpt>
      <trkpt lat="48.11372" lon="7.532749">
        <ele>235.0</ele>
        <time>2020-07-12T10:38:58Z</time>
      </trkpt>
      <trkpt lat="48.113611" lon="7.532739">
        <ele>235.0</ele>
        <time>2020-07-12T10:39:00Z</time>
      </trkpt>
      <trkpt lat="48.113445" lon="7.53272">
        <ele>234.0</ele>
        <time>2020-07-12T10:39:03Z</time>
      </trkpt>
      <trkpt lat="48.11332" lon="7.532723">
        <ele>233.0</ele>
        <time>2020-07-12T10:39:05Z</time>
      </trkpt>
      <trkpt lat="48.113206" lon="7.532716">
        <ele>233.0</ele>
        <time>2020-07-12T10:39:07Z</time>
      </trkpt>
      <trkpt lat="48.113035" lon="7.532705">
        <ele>233.0</ele>
        <time>2020-07-12T10:39:10Z</time>
      </trkpt>
      <trkpt lat="48.112927" lon="7.532692">
        <ele>232.0</ele>
        <time>2020-07-12T10:39:12Z</time>
      </trkpt>
      <trkpt lat="48.11281" lon="7.532677">
        <ele>233.0</ele>
        <time>2020-07-12T10:39:14Z</time>
      </trkpt>
      <trkpt lat="48.112694" lon="7.532681">
        <ele>232.0</ele>
        <time>2020-07-12T10:39:16Z</time>
      </trkpt>
      <trkpt lat="48.112521" lon="7.532671">
        <ele>232.0</ele>
        <time>2020-07-12T10:39:19Z</time>
      </trkpt>
      <trkpt lat="48.112411" lon="7.53267">
        <ele>232.0</ele>
        <time>2020-07-12T10:39:21Z</time>
      </trkpt>
      <trkpt lat="48.112302" lon="7.532665">
        <ele>232.0</ele>
        <time>2020-07-12T10:39:23Z</time>
      </trkpt>
      <trkpt lat="48.11219" lon="7.532658">
        <ele>232.0</ele>
        <time>2020-07-12T10:39:25Z</time>
      </trkpt>
      <trkpt lat="48.11208" lon="7.532653">
        <ele>232.0</ele>
        <time>2020-07-12T10:39:27Z</time>
      </trkpt>
      <trkpt lat="48.111913" lon="7.532632">
        <ele>231.0</ele>
        <time>2020-07-12T10:39:30Z</time>
      </trkpt>
      <trkpt lat="48.111797" lon="7.532629">
        <ele>232.0</ele>
        <time>2020-07-12T10:39:32Z</time>
      </trkpt>
      <trkpt lat="48.111677" lon="7.532628">
        <ele>233.0</ele>
        <time>2020-07-12T10:39:34Z</time>
      </trkpt>
      <trkpt lat="48.111498" lon="7.532626">
        <ele>233.0</ele>
        <time>2020-07-12T10:39:37Z</time>
      </trkpt>
      <trkpt lat="48.111376" lon="7.532622">
        <ele>234.0</ele>
        <time>2020-07-12T10:39:39Z</time>
      </trkpt>
      <trkpt lat="48.111261" lon="7.532616">
        <ele>234.0</ele>
        <time>2020-07-12T10:39:41Z</time>
      </trkpt>
      <trkpt lat="48.111145" lon="7.532608">
        <ele>234.0</ele>
        <time>2020-07-12T10:39:43Z</time>
      </trkpt>
      <trkpt lat="48.11104" lon="7.532603">
        <ele>235.0</ele>
        <time>2020-07-12T10:39:45Z</time>
      </trkpt>
      <trkpt lat="48.110875" lon="7.532594">
        <ele>235.0</ele>
        <time>2020-07-12T10:39:48Z</time>
      </trkpt>
      <trkpt lat="48.110751" lon="7.532604">
        <ele>235.0</ele>
        <time>2020-07-12T10:39:50Z</time>
      </trkpt>
      <trkpt lat="48.110635" lon="7.532612">
        <ele>235.0</ele>
        <time>2020-07-12T10:39:52Z</time>
      </trkpt>
      <trkpt lat="48.110521" lon="7.532608">
        <ele>236.0</ele>
        <time>2020-07-12T10:39:54Z</time>
      </trkpt>
      <trkpt lat="48.110462" lon="7.532601">
        <ele>236.0</ele>
        <time>2020-07-12T10:39:55Z</time>
      </trkpt>
      <trkpt lat="48.110288" lon="7.532591">
        <ele>236.0</ele>
        <time>2020-07-12T10:39:58Z</time>
      </trkpt>
      <trkpt lat="48.110178" lon="7.532587">
        <ele>235.0</ele>
        <time>2020-07-12T10:40:00Z</time>
      </trkpt>
      <trkpt lat="48.11001" lon="7.532593">
        <ele>235.0</ele>
        <time>2020-07-12T10:40:03Z</time>
      </trkpt>
      <trkpt lat="48.109946" lon="7.532591">
        <ele>235.0</ele>
        <time>2020-07-12T10:40:04Z</time>
      </trkpt>
      <trkpt lat="48.109775" lon="7.53257">
        <ele>235.0</ele>
        <time>2020-07-12T10:40:07Z</time>
      </trkpt>
      <trkpt lat="48.109669" lon="7.532554">
        <ele>235.0</ele>
        <time>2020-07-12T10:40:09Z</time>
      </trkpt>
      <trkpt lat="48.109495" lon="7.532532">
        <ele>235.0</ele>
        <time>2020-07-12T10:40:12Z</time>
      </trkpt>
      <trkpt lat="48.109382" lon="7.532525">
        <ele>235.0</ele>
        <time>2020-07-12T10:40:14Z</time>
      </trkpt>
      <trkpt lat="48.109328" lon="7.532529">
        <ele>235.0</ele>
        <time>2020-07-12T10:40:15Z</time>
      </trkpt>
      <trkpt lat="48.109165" lon="7.532524">
        <ele>235.0</ele>
        <time>2020-07-12T10:40:18Z</time>
      </trkpt>
      <trkpt lat="48.109062" lon="7.53251">
        <ele>236.0</ele>
        <time>2020-07-12T10:40:20Z</time>
      </trkpt>
      <trkpt lat="48.108959" lon="7.532506">
        <ele>235.0</ele>
        <time>2020-07-12T10:40:22Z</time>
      </trkpt>
      <trkpt lat="48.108901" lon="7.532498">
        <ele>235.0</ele>
        <time>2020-07-12T10:40:23Z</time>
      </trkpt>
      <trkpt lat="48.108737" lon="7.532484">
        <ele>236.0</ele>
        <time>2020-07-12T10:40:26Z</time>
      </trkpt>
      <trkpt lat="48.108631" lon="7.532471">
        <ele>236.0</ele>
        <time>2020-07-12T10:40:28Z</time>
      </trkpt>
      <trkpt lat="48.108538" lon="7.532437">
        <ele>235.0</ele>
        <time>2020-07-12T10:40:30Z</time>
      </trkpt>
      <trkpt lat="48.108448" lon="7.532365">
        <ele>236.0</ele>
        <time>2020-07-12T10:40:32Z</time>
      </trkpt>
      <trkpt lat="48.108347" lon="7.532219">
        <ele>237.0</ele>
        <time>2020-07-12T10:40:35Z</time>
      </trkpt>
      <trkpt lat="48.108301" lon="7.532107">
        <ele>236.0</ele>
        <time>2020-07-12T10:40:37Z</time>
      </trkpt>
      <trkpt lat="48.108284" lon="7.531988">
        <ele>236.0</ele>
        <time>2020-07-12T10:40:39Z</time>
      </trkpt>
      <trkpt lat="48.108278" lon="7.531862">
        <ele>236.0</ele>
        <time>2020-07-12T10:40:41Z</time>
      </trkpt>
      <trkpt lat="48.10828" lon="7.531682">
        <ele>235.0</ele>
        <time>2020-07-12T10:40:43Z</time>
      </trkpt>
      <trkpt lat="48.108281" lon="7.531505">
        <ele>235.0</ele>
        <time>2020-07-12T10:40:45Z</time>
      </trkpt>
      <trkpt lat="48.108282" lon="7.531341">
        <ele>235.0</ele>
        <time>2020-07-12T10:40:47Z</time>
      </trkpt>
      <trkpt lat="48.108278" lon="7.531109">
        <ele>235.0</ele>
        <time>2020-07-12T10:40:50Z</time>
      </trkpt>
      <trkpt lat="48.108275" lon="7.530945">
        <ele>234.0</ele>
        <time>2020-07-12T10:40:52Z</time>
      </trkpt>
      <trkpt lat="48.108277" lon="7.53072">
        <ele>234.0</ele>
        <time>2020-07-12T10:40:55Z</time>
      </trkpt>
      <trkpt lat="48.108268" lon="7.53049">
        <ele>234.0</ele>
        <time>2020-07-12T10:40:58Z</time>
      </trkpt>
      <trkpt lat="48.108256" lon="7.530336">
        <ele>234.0</ele>
        <time>2020-07-12T10:41:00Z</time>
      </trkpt>
      <trkpt lat="48.108245" lon="7.530184">
        <ele>234.0</ele>
        <time>2020-07-12T10:41:02Z</time>
      </trkpt>
      <trkpt lat="48.10824" lon="7.530107">
        <ele>234.0</ele>
        <time>2020-07-12T10:41:03Z</time>
      </trkpt>
      <trkpt lat="48.108224" lon="7.52987">
        <ele>234.0</ele>
        <time>2020-07-12T10:41:06Z</time>
      </trkpt>
      <trkpt lat="48.108219" lon="7.52971">
        <ele>234.0</ele>
        <time>2020-07-12T10:41:08Z</time>
      </trkpt>
      <trkpt lat="48.108215" lon="7.529549">
        <ele>234.0</ele>
        <time>2020-07-12T10:41:10Z</time>
      </trkpt>
      <trkpt lat="48.108205" lon="7.529293">
        <ele>234.0</ele>
        <time>2020-07-12T10:41:13Z</time>
      </trkpt>
      <trkpt lat="48.108195" lon="7.529115">
        <ele>234.0</ele>
        <time>2020-07-12T10:41:15Z</time>
      </trkpt>
      <trkpt lat="48.108199" lon="7.528947">
        <ele>234.0</ele>
        <time>2020-07-12T10:41:17Z</time>
      </trkpt>
      <trkpt lat="48.108203" lon="7.52879">
        <ele>233.0</ele>
        <time>2020-07-12T10:41:19Z</time>
      </trkpt>
      <trkpt lat="48.108201" lon="7.528631">
        <ele>233.0</ele>
        <time>2020-07-12T10:41:21Z</time>
      </trkpt>
      <trkpt lat="48.108189" lon="7.528461">
        <ele>233.0</ele>
        <time>2020-07-12T10:41:23Z</time>
      </trkpt>
      <trkpt lat="48.108177" lon="7.528295">
        <ele>234.0</ele>
        <time>2020-07-12T10:41:25Z</time>
      </trkpt>
      <trkpt lat="48.108163" lon="7.528134">
        <ele>234.0</ele>
        <time>2020-07-12T10:41:27Z</time>
      </trkpt>
      <trkpt lat="48.108152" lon="7.527901">
        <ele>234.0</ele>
        <time>2020-07-12T10:41:30Z</time>
      </trkpt>
      <trkpt lat="48.108146" lon="7.527763">
        <ele>234.0</ele>
        <time>2020-07-12T10:41:32Z</time>
      </trkpt>
      <trkpt lat="48.108145" lon="7.527698">
        <ele>234.0</ele>
        <time>2020-07-12T10:41:33Z</time>
      </trkpt>
      <trkpt lat="48.108152" lon="7.527539">
        <ele>235.0</ele>
        <time>2020-07-12T10:41:36Z</time>
      </trkpt>
      <trkpt lat="48.108157" lon="7.527395">
        <ele>235.0</ele>
        <time>2020-07-12T10:41:39Z</time>
      </trkpt>
      <trkpt lat="48.108158" lon="7.527348">
        <ele>235.0</ele>
        <time>2020-07-12T10:41:40Z</time>
      </trkpt>
      <trkpt lat="48.108092" lon="7.527238">
        <ele>236.0</ele>
        <time>2020-07-12T10:41:44Z</time>
      </trkpt>
      <trkpt lat="48.108063" lon="7.527239">
        <ele>236.0</ele>
        <time>2020-07-12T10:41:45Z</time>
      </trkpt>
      <trkpt lat="48.107995" lon="7.527263">
        <ele>236.0</ele>
        <time>2020-07-12T10:41:48Z</time>
      </trkpt>
      <trkpt lat="48.107955" lon="7.527272">
        <ele>236.0</ele>
        <time>2020-07-12T10:41:50Z</time>
      </trkpt>
      <trkpt lat="48.107947" lon="7.52726">
        <ele>236.0</ele>
        <time>2020-07-12T10:41:51Z</time>
      </trkpt>
      <trkpt lat="48.107951" lon="7.527258">
        <ele>237.0</ele>
        <time>2020-07-12T10:41:54Z</time>
      </trkpt>
      <trkpt lat="48.107952" lon="7.527257">
        <ele>237.0</ele>
        <time>2020-07-12T10:41:56Z</time>
      </trkpt>
      <trkpt lat="48.107952" lon="7.527257">
        <ele>237.0</ele>
        <time>2020-07-12T10:41:58Z</time>
      </trkpt>
      <trkpt lat="48.107952" lon="7.527257">
        <ele>237.0</ele>
        <time>2020-07-12T10:43:35Z</time>
      </trkpt>
      <trkpt lat="48.107952" lon="7.527257">
        <ele>237.0</ele>
        <time>2020-07-12T10:43:37Z</time>
      </trkpt>
      <trkpt lat="48.107952" lon="7.527257">
        <ele>237.0</ele>
        <time>2020-07-12T10:43:39Z</time>
      </trkpt>
      <trkpt lat="48.107952" lon="7.527257">
        <ele>237.0</ele>
        <time>2020-07-12T10:43:41Z</time>
      </trkpt>
      <trkpt lat="48.107952" lon="7.527257">
        <ele>237.0</ele>
        <time>2020-07-12T10:43:43Z</time>
      </trkpt>
      <trkpt lat="48.107952" lon="7.527257">
        <ele>237.0</ele>
        <time>2020-07-12T10:43:45Z</time>
      </trkpt>
      <trkpt lat="48.107952" lon="7.527257">
        <ele>237.0</ele>
        <time>2020-07-12T10:43:48Z</time>
      </trkpt>
      <trkpt lat="48.107948" lon="7.527255">
        <ele>236.0</ele>
        <time>2020-07-12T10:43:51Z</time>
      </trkpt>
      <trkpt lat="48.107948" lon="7.527254">
        <ele>236.0</ele>
        <time>2020-07-12T10:43:53Z</time>
      </trkpt>
      <trkpt lat="48.107948" lon="7.527254">
        <ele>236.0</ele>
        <time>2020-07-12T10:43:56Z</time>
      </trkpt>
      <trkpt lat="48.107895" lon="7.527249">
        <ele>237.0</ele>
        <time>2020-07-12T10:43:59Z</time>
      </trkpt>
      <trkpt lat="48.107846" lon="7.527219">
        <ele>237.0</ele>
        <time>2020-07-12T10:44:01Z</time>
      </trkpt>
      <trkpt lat="48.107844" lon="7.527148">
        <ele>236.0</ele>
        <time>2020-07-12T10:44:03Z</time>
      </trkpt>
      <trkpt lat="48.107849" lon="7.527044">
        <ele>236.0</ele>
        <time>2020-07-12T10:44:05Z</time>
      </trkpt>
      <trkpt lat="48.107851" lon="7.526828">
        <ele>237.0</ele>
        <time>2020-07-12T10:44:08Z</time>
      </trkpt>
      <trkpt lat="48.107845" lon="7.526683">
        <ele>235.0</ele>
        <time>2020-07-12T10:44:10Z</time>
      </trkpt>
      <trkpt lat="48.107841" lon="7.526579">
        <ele>234.0</ele>
        <time>2020-07-12T10:44:12Z</time>
      </trkpt>
      <trkpt lat="48.107862" lon="7.526555">
        <ele>234.0</ele>
        <time>2020-07-12T10:44:14Z</time>
      </trkpt>
      <trkpt lat="48.107873" lon="7.526628">
        <ele>234.0</ele>
        <time>2020-07-12T10:44:16Z</time>
      </trkpt>
      <trkpt lat="48.107884" lon="7.526731">
        <ele>235.0</ele>
        <time>2020-07-12T10:44:18Z</time>
      </trkpt>
      <trkpt lat="48.107891" lon="7.526923">
        <ele>236.0</ele>
        <time>2020-07-12T10:44:21Z</time>
      </trkpt>
      <trkpt lat="48.107892" lon="7.527048">
        <ele>234.0</ele>
        <time>2020-07-12T10:44:23Z</time>
      </trkpt>
      <trkpt lat="48.107928" lon="7.52715">
        <ele>233.0</ele>
        <time>2020-07-12T10:44:25Z</time>
      </trkpt>
      <trkpt lat="48.107978" lon="7.527232">
        <ele>234.0</ele>
        <time>2020-07-12T10:44:27Z</time>
      </trkpt>
      <trkpt lat="48.107975" lon="7.52734">
        <ele>234.0</ele>
        <time>2020-07-12T10:44:29Z</time>
      </trkpt>
      <trkpt lat="48.107914" lon="7.527482">
        <ele>234.0</ele>
        <time>2020-07-12T10:44:32Z</time>
      </trkpt>
      <trkpt lat="48.10792" lon="7.527633">
        <ele>233.0</ele>
        <time>2020-07-12T10:44:34Z</time>
      </trkpt>
      <trkpt lat="48.107915" lon="7.527811">
        <ele>233.0</ele>
        <time>2020-07-12T10:44:36Z</time>
      </trkpt>
      <trkpt lat="48.107923" lon="7.527976">
        <ele>233.0</ele>
        <time>2020-07-12T10:44:38Z</time>
      </trkpt>
      <trkpt lat="48.107939" lon="7.528224">
        <ele>233.0</ele>
        <time>2020-07-12T10:44:41Z</time>
      </trkpt>
      <trkpt lat="48.107942" lon="7.528308">
        <ele>233.0</ele>
        <time>2020-07-12T10:44:42Z</time>
      </trkpt>
      <trkpt lat="48.107953" lon="7.528557">
        <ele>234.0</ele>
        <time>2020-07-12T10:44:45Z</time>
      </trkpt>
      <trkpt lat="48.107952" lon="7.528816">
        <ele>234.0</ele>
        <time>2020-07-12T10:44:48Z</time>
      </trkpt>
      <trkpt lat="48.107961" lon="7.528982">
        <ele>234.0</ele>
        <time>2020-07-12T10:44:50Z</time>
      </trkpt>
      <trkpt lat="48.107976" lon="7.529161">
        <ele>234.0</ele>
        <time>2020-07-12T10:44:52Z</time>
      </trkpt>
      <trkpt lat="48.107986" lon="7.529411">
        <ele>235.0</ele>
        <time>2020-07-12T10:44:55Z</time>
      </trkpt>
      <trkpt lat="48.108" lon="7.529584">
        <ele>234.0</ele>
        <time>2020-07-12T10:44:57Z</time>
      </trkpt>
      <trkpt lat="48.108005" lon="7.529749">
        <ele>234.0</ele>
        <time>2020-07-12T10:44:59Z</time>
      </trkpt>
      <trkpt lat="48.108016" lon="7.529908">
        <ele>234.0</ele>
        <time>2020-07-12T10:45:01Z</time>
      </trkpt>
      <trkpt lat="48.108025" lon="7.530073">
        <ele>235.0</ele>
        <time>2020-07-12T10:45:03Z</time>
      </trkpt>
      <trkpt lat="48.108029" lon="7.530247">
        <ele>235.0</ele>
        <time>2020-07-12T10:45:05Z</time>
      </trkpt>
      <trkpt lat="48.108024" lon="7.530419">
        <ele>234.0</ele>
        <time>2020-07-12T10:45:07Z</time>
      </trkpt>
      <trkpt lat="48.108031" lon="7.530666">
        <ele>234.0</ele>
        <time>2020-07-12T10:45:10Z</time>
      </trkpt>
      <trkpt lat="48.108029" lon="7.530831">
        <ele>233.0</ele>
        <time>2020-07-12T10:45:12Z</time>
      </trkpt>
      <trkpt lat="48.108034" lon="7.530994">
        <ele>233.0</ele>
        <time>2020-07-12T10:45:14Z</time>
      </trkpt>
      <trkpt lat="48.108041" lon="7.531154">
        <ele>233.0</ele>
        <time>2020-07-12T10:45:16Z</time>
      </trkpt>
      <trkpt lat="48.108051" lon="7.531306">
        <ele>233.0</ele>
        <time>2020-07-12T10:45:18Z</time>
      </trkpt>
      <trkpt lat="48.108057" lon="7.531456">
        <ele>233.0</ele>
        <time>2020-07-12T10:45:20Z</time>
      </trkpt>
      <trkpt lat="48.108058" lon="7.531605">
        <ele>233.0</ele>
        <time>2020-07-12T10:45:22Z</time>
      </trkpt>
      <trkpt lat="48.108064" lon="7.531752">
        <ele>232.0</ele>
        <time>2020-07-12T10:45:24Z</time>
      </trkpt>
      <trkpt lat="48.108077" lon="7.531969">
        <ele>232.0</ele>
        <time>2020-07-12T10:45:27Z</time>
      </trkpt>
      <trkpt lat="48.108067" lon="7.532104">
        <ele>232.0</ele>
        <time>2020-07-12T10:45:29Z</time>
      </trkpt>
      <trkpt lat="48.107976" lon="7.53223">
        <ele>233.0</ele>
        <time>2020-07-12T10:45:32Z</time>
      </trkpt>
      <trkpt lat="48.107921" lon="7.532249">
        <ele>233.0</ele>
        <time>2020-07-12T10:45:33Z</time>
      </trkpt>
      <trkpt lat="48.107758" lon="7.532296">
        <ele>233.0</ele>
        <time>2020-07-12T10:45:36Z</time>
      </trkpt>
      <trkpt lat="48.10759" lon="7.532337">
        <ele>233.0</ele>
        <time>2020-07-12T10:45:39Z</time>
      </trkpt>
      <trkpt lat="48.107476" lon="7.532355">
        <ele>232.0</ele>
        <time>2020-07-12T10:45:41Z</time>
      </trkpt>
      <trkpt lat="48.107367" lon="7.53237">
        <ele>232.0</ele>
        <time>2020-07-12T10:45:43Z</time>
      </trkpt>
      <trkpt lat="48.107201" lon="7.53239">
        <ele>233.0</ele>
        <time>2020-07-12T10:45:46Z</time>
      </trkpt>
      <trkpt lat="48.107147" lon="7.532388">
        <ele>233.0</ele>
        <time>2020-07-12T10:45:47Z</time>
      </trkpt>
      <trkpt lat="48.10698" lon="7.532398">
        <ele>233.0</ele>
        <time>2020-07-12T10:45:50Z</time>
      </trkpt>
      <trkpt lat="48.106872" lon="7.532406">
        <ele>233.0</ele>
        <time>2020-07-12T10:45:52Z</time>
      </trkpt>
      <trkpt lat="48.1067" lon="7.532404">
        <ele>232.0</ele>
        <time>2020-07-12T10:45:55Z</time>
      </trkpt>
      <trkpt lat="48.106586" lon="7.532404">
        <ele>232.0</ele>
        <time>2020-07-12T10:45:57Z</time>
      </trkpt>
      <trkpt lat="48.106474" lon="7.532402">
        <ele>232.0</ele>
        <time>2020-07-12T10:45:59Z</time>
      </trkpt>
      <trkpt lat="48.106363" lon="7.532403">
        <ele>231.0</ele>
        <time>2020-07-12T10:46:01Z</time>
      </trkpt>
      <trkpt lat="48.106256" lon="7.532408">
        <ele>231.0</ele>
        <time>2020-07-12T10:46:03Z</time>
      </trkpt>
      <trkpt lat="48.10608" lon="7.532396">
        <ele>231.0</ele>
        <time>2020-07-12T10:46:06Z</time>
      </trkpt>
      <trkpt lat="48.105962" lon="7.532388">
        <ele>231.0</ele>
        <time>2020-07-12T10:46:08Z</time>
      </trkpt>
      <trkpt lat="48.105846" lon="7.532377">
        <ele>231.0</ele>
        <time>2020-07-12T10:46:10Z</time>
      </trkpt>
      <trkpt lat="48.105735" lon="7.532357">
        <ele>232.0</ele>
        <time>2020-07-12T10:46:12Z</time>
      </trkpt>
      <trkpt lat="48.105627" lon="7.532355">
        <ele>232.0</ele>
        <time>2020-07-12T10:46:14Z</time>
      </trkpt>
      <trkpt lat="48.105513" lon="7.532355">
        <ele>232.0</ele>
        <time>2020-07-12T10:46:16Z</time>
      </trkpt>
      <trkpt lat="48.1054" lon="7.532353">
        <ele>232.0</ele>
        <time>2020-07-12T10:46:18Z</time>
      </trkpt>
      <trkpt lat="48.105288" lon="7.532345">
        <ele>233.0</ele>
        <time>2020-07-12T10:46:20Z</time>
      </trkpt>
      <trkpt lat="48.105178" lon="7.532342">
        <ele>233.0</ele>
        <time>2020-07-12T10:46:22Z</time>
      </trkpt>
      <trkpt lat="48.105014" lon="7.53233">
        <ele>233.0</ele>
        <time>2020-07-12T10:46:25Z</time>
      </trkpt>
      <trkpt lat="48.104898" lon="7.532307">
        <ele>233.0</ele>
        <time>2020-07-12T10:46:27Z</time>
      </trkpt>
      <trkpt lat="48.104779" lon="7.532299">
        <ele>233.0</ele>
        <time>2020-07-12T10:46:29Z</time>
      </trkpt>
      <trkpt lat="48.104599" lon="7.532293">
        <ele>233.0</ele>
        <time>2020-07-12T10:46:32Z</time>
      </trkpt>
      <trkpt lat="48.104485" lon="7.532283">
        <ele>233.0</ele>
        <time>2020-07-12T10:46:34Z</time>
      </trkpt>
      <trkpt lat="48.104363" lon="7.532286">
        <ele>233.0</ele>
        <time>2020-07-12T10:46:36Z</time>
      </trkpt>
      <trkpt lat="48.104238" lon="7.532276">
        <ele>233.0</ele>
        <time>2020-07-12T10:46:38Z</time>
      </trkpt>
      <trkpt lat="48.104114" lon="7.532268">
        <ele>233.0</ele>
        <time>2020-07-12T10:46:40Z</time>
      </trkpt>
      <trkpt lat="48.103988" lon="7.53226">
        <ele>232.0</ele>
        <time>2020-07-12T10:46:42Z</time>
      </trkpt>
      <trkpt lat="48.103853" lon="7.532257">
        <ele>232.0</ele>
        <time>2020-07-12T10:46:44Z</time>
      </trkpt>
      <trkpt lat="48.103728" lon="7.532257">
        <ele>232.0</ele>
        <time>2020-07-12T10:46:46Z</time>
      </trkpt>
      <trkpt lat="48.103594" lon="7.532257">
        <ele>232.0</ele>
        <time>2020-07-12T10:46:48Z</time>
      </trkpt>
      <trkpt lat="48.103465" lon="7.532243">
        <ele>231.0</ele>
        <time>2020-07-12T10:46:50Z</time>
      </trkpt>
      <trkpt lat="48.103334" lon="7.532233">
        <ele>231.0</ele>
        <time>2020-07-12T10:46:52Z</time>
      </trkpt>
      <trkpt lat="48.103204" lon="7.532234">
        <ele>230.0</ele>
        <time>2020-07-12T10:46:54Z</time>
      </trkpt>
      <trkpt lat="48.103082" lon="7.532236">
        <ele>230.0</ele>
        <time>2020-07-12T10:46:56Z</time>
      </trkpt>
      <trkpt lat="48.102958" lon="7.532238">
        <ele>230.0</ele>
        <time>2020-07-12T10:46:58Z</time>
      </trkpt>
      <trkpt lat="48.102832" lon="7.532224">
        <ele>230.0</ele>
        <time>2020-07-12T10:47:00Z</time>
      </trkpt>
      <trkpt lat="48.102717" lon="7.532205">
        <ele>230.0</ele>
        <time>2020-07-12T10:47:02Z</time>
      </trkpt>
      <trkpt lat="48.1026" lon="7.532197">
        <ele>230.0</ele>
        <time>2020-07-12T10:47:04Z</time>
      </trkpt>
      <trkpt lat="48.102482" lon="7.532188">
        <ele>230.0</ele>
        <time>2020-07-12T10:47:06Z</time>
      </trkpt>
      <trkpt lat="48.10236" lon="7.532184">
        <ele>230.0</ele>
        <time>2020-07-12T10:47:08Z</time>
      </trkpt>
      <trkpt lat="48.102242" lon="7.532181">
        <ele>230.0</ele>
        <time>2020-07-12T10:47:10Z</time>
      </trkpt>
      <trkpt lat="48.102116" lon="7.532166">
        <ele>230.0</ele>
        <time>2020-07-12T10:47:12Z</time>
      </trkpt>
      <trkpt lat="48.101934" lon="7.532161">
        <ele>231.0</ele>
        <time>2020-07-12T10:47:15Z</time>
      </trkpt>
      <trkpt lat="48.101822" lon="7.532156">
        <ele>231.0</ele>
        <time>2020-07-12T10:47:17Z</time>
      </trkpt>
      <trkpt lat="48.10171" lon="7.532159">
        <ele>231.0</ele>
        <time>2020-07-12T10:47:19Z</time>
      </trkpt>
      <trkpt lat="48.101589" lon="7.53216">
        <ele>232.0</ele>
        <time>2020-07-12T10:47:21Z</time>
      </trkpt>
      <trkpt lat="48.101466" lon="7.532152">
        <ele>232.0</ele>
        <time>2020-07-12T10:47:23Z</time>
      </trkpt>
      <trkpt lat="48.101403" lon="7.532149">
        <ele>232.0</ele>
        <time>2020-07-12T10:47:24Z</time>
      </trkpt>
      <trkpt lat="48.10122" lon="7.532144">
        <ele>232.0</ele>
        <time>2020-07-12T10:47:27Z</time>
      </trkpt>
      <trkpt lat="48.101041" lon="7.53214">
        <ele>233.0</ele>
        <time>2020-07-12T10:47:30Z</time>
      </trkpt>
      <trkpt lat="48.100922" lon="7.532132">
        <ele>233.0</ele>
        <time>2020-07-12T10:47:32Z</time>
      </trkpt>
      <trkpt lat="48.100802" lon="7.532126">
        <ele>233.0</ele>
        <time>2020-07-12T10:47:34Z</time>
      </trkpt>
      <trkpt lat="48.100676" lon="7.532105">
        <ele>233.0</ele>
        <time>2020-07-12T10:47:36Z</time>
      </trkpt>
      <trkpt lat="48.100557" lon="7.5321">
        <ele>233.0</ele>
        <time>2020-07-12T10:47:38Z</time>
      </trkpt>
      <trkpt lat="48.100434" lon="7.532097">
        <ele>233.0</ele>
        <time>2020-07-12T10:47:40Z</time>
      </trkpt>
      <trkpt lat="48.100261" lon="7.532086">
        <ele>233.0</ele>
        <time>2020-07-12T10:47:43Z</time>
      </trkpt>
      <trkpt lat="48.100142" lon="7.532089">
        <ele>233.0</ele>
        <time>2020-07-12T10:47:45Z</time>
      </trkpt>
      <trkpt lat="48.100023" lon="7.53208">
        <ele>233.0</ele>
        <time>2020-07-12T10:47:47Z</time>
      </trkpt>
      <trkpt lat="48.099907" lon="7.532067">
        <ele>233.0</ele>
        <time>2020-07-12T10:47:49Z</time>
      </trkpt>
      <trkpt lat="48.099788" lon="7.532059">
        <ele>233.0</ele>
        <time>2020-07-12T10:47:51Z</time>
      </trkpt>
      <trkpt lat="48.09961" lon="7.532045">
        <ele>233.0</ele>
        <time>2020-07-12T10:47:54Z</time>
      </trkpt>
      <trkpt lat="48.099494" lon="7.532037">
        <ele>233.0</ele>
        <time>2020-07-12T10:47:56Z</time>
      </trkpt>
      <trkpt lat="48.099378" lon="7.532028">
        <ele>233.0</ele>
        <time>2020-07-12T10:47:58Z</time>
      </trkpt>
      <trkpt lat="48.099206" lon="7.532021">
        <ele>233.0</ele>
        <time>2020-07-12T10:48:01Z</time>
      </trkpt>
      <trkpt lat="48.099088" lon="7.532019">
        <ele>234.0</ele>
        <time>2020-07-12T10:48:03Z</time>
      </trkpt>
      <trkpt lat="48.098973" lon="7.53201">
        <ele>234.0</ele>
        <time>2020-07-12T10:48:05Z</time>
      </trkpt>
      <trkpt lat="48.098853" lon="7.532">
        <ele>235.0</ele>
        <time>2020-07-12T10:48:07Z</time>
      </trkpt>
      <trkpt lat="48.098736" lon="7.532012">
        <ele>234.0</ele>
        <time>2020-07-12T10:48:09Z</time>
      </trkpt>
      <trkpt lat="48.098616" lon="7.532015">
        <ele>234.0</ele>
        <time>2020-07-12T10:48:11Z</time>
      </trkpt>
      <trkpt lat="48.098502" lon="7.532007">
        <ele>234.0</ele>
        <time>2020-07-12T10:48:13Z</time>
      </trkpt>
      <trkpt lat="48.098382" lon="7.531978">
        <ele>234.0</ele>
        <time>2020-07-12T10:48:15Z</time>
      </trkpt>
      <trkpt lat="48.098262" lon="7.531969">
        <ele>233.0</ele>
        <time>2020-07-12T10:48:17Z</time>
      </trkpt>
      <trkpt lat="48.098142" lon="7.531952">
        <ele>234.0</ele>
        <time>2020-07-12T10:48:19Z</time>
      </trkpt>
      <trkpt lat="48.097965" lon="7.531945">
        <ele>234.0</ele>
        <time>2020-07-12T10:48:22Z</time>
      </trkpt>
      <trkpt lat="48.097843" lon="7.531952">
        <ele>234.0</ele>
        <time>2020-07-12T10:48:24Z</time>
      </trkpt>
      <trkpt lat="48.097718" lon="7.531945">
        <ele>234.0</ele>
        <time>2020-07-12T10:48:26Z</time>
      </trkpt>
      <trkpt lat="48.097599" lon="7.531937">
        <ele>234.0</ele>
        <time>2020-07-12T10:48:28Z</time>
      </trkpt>
      <trkpt lat="48.09748" lon="7.531935">
        <ele>234.0</ele>
        <time>2020-07-12T10:48:30Z</time>
      </trkpt>
      <trkpt lat="48.097307" lon="7.531918">
        <ele>234.0</ele>
        <time>2020-07-12T10:48:33Z</time>
      </trkpt>
      <trkpt lat="48.09719" lon="7.531908">
        <ele>234.0</ele>
        <time>2020-07-12T10:48:35Z</time>
      </trkpt>
      <trkpt lat="48.097079" lon="7.531902">
        <ele>234.0</ele>
        <time>2020-07-12T10:48:37Z</time>
      </trkpt>
      <trkpt lat="48.096967" lon="7.531902">
        <ele>234.0</ele>
        <time>2020-07-12T10:48:39Z</time>
      </trkpt>
      <trkpt lat="48.096793" lon="7.531892">
        <ele>234.0</ele>
        <time>2020-07-12T10:48:42Z</time>
      </trkpt>
      <trkpt lat="48.096677" lon="7.531894">
        <ele>234.0</ele>
        <time>2020-07-12T10:48:44Z</time>
      </trkpt>
      <trkpt lat="48.096563" lon="7.531883">
        <ele>234.0</ele>
        <time>2020-07-12T10:48:46Z</time>
      </trkpt>
      <trkpt lat="48.096449" lon="7.531876">
        <ele>233.0</ele>
        <time>2020-07-12T10:48:48Z</time>
      </trkpt>
      <trkpt lat="48.096278" lon="7.531868">
        <ele>233.0</ele>
        <time>2020-07-12T10:48:51Z</time>
      </trkpt>
      <trkpt lat="48.096163" lon="7.531866">
        <ele>233.0</ele>
        <time>2020-07-12T10:48:53Z</time>
      </trkpt>
      <trkpt lat="48.095993" lon="7.531884">
        <ele>233.0</ele>
        <time>2020-07-12T10:48:56Z</time>
      </trkpt>
      <trkpt lat="48.095891" lon="7.53192">
        <ele>233.0</ele>
        <time>2020-07-12T10:48:58Z</time>
      </trkpt>
      <trkpt lat="48.095841" lon="7.531938">
        <ele>233.0</ele>
        <time>2020-07-12T10:48:59Z</time>
      </trkpt>
      <trkpt lat="48.095684" lon="7.531915">
        <ele>233.0</ele>
        <time>2020-07-12T10:49:02Z</time>
      </trkpt>
      <trkpt lat="48.095598" lon="7.531903">
        <ele>234.0</ele>
        <time>2020-07-12T10:49:04Z</time>
      </trkpt>
      <trkpt lat="48.095515" lon="7.531891">
        <ele>235.0</ele>
        <time>2020-07-12T10:49:06Z</time>
      </trkpt>
      <trkpt lat="48.095421" lon="7.531883">
        <ele>235.0</ele>
        <time>2020-07-12T10:49:08Z</time>
      </trkpt>
      <trkpt lat="48.09532" lon="7.531863">
        <ele>235.0</ele>
        <time>2020-07-12T10:49:10Z</time>
      </trkpt>
      <trkpt lat="48.095216" lon="7.531837">
        <ele>234.0</ele>
        <time>2020-07-12T10:49:12Z</time>
      </trkpt>
      <trkpt lat="48.09511" lon="7.531817">
        <ele>234.0</ele>
        <time>2020-07-12T10:49:14Z</time>
      </trkpt>
      <trkpt lat="48.094997" lon="7.531802">
        <ele>234.0</ele>
        <time>2020-07-12T10:49:16Z</time>
      </trkpt>
      <trkpt lat="48.094887" lon="7.531793">
        <ele>234.0</ele>
        <time>2020-07-12T10:49:18Z</time>
      </trkpt>
      <trkpt lat="48.094784" lon="7.531789">
        <ele>233.0</ele>
        <time>2020-07-12T10:49:20Z</time>
      </trkpt>
      <trkpt lat="48.094672" lon="7.531784">
        <ele>233.0</ele>
        <time>2020-07-12T10:49:22Z</time>
      </trkpt>
      <trkpt lat="48.09456" lon="7.531773">
        <ele>233.0</ele>
        <time>2020-07-12T10:49:24Z</time>
      </trkpt>
      <trkpt lat="48.09445" lon="7.531771">
        <ele>233.0</ele>
        <time>2020-07-12T10:49:26Z</time>
      </trkpt>
      <trkpt lat="48.094335" lon="7.531758">
        <ele>233.0</ele>
        <time>2020-07-12T10:49:28Z</time>
      </trkpt>
      <trkpt lat="48.094209" lon="7.531752">
        <ele>233.0</ele>
        <time>2020-07-12T10:49:30Z</time>
      </trkpt>
      <trkpt lat="48.094083" lon="7.531737">
        <ele>233.0</ele>
        <time>2020-07-12T10:49:32Z</time>
      </trkpt>
      <trkpt lat="48.093901" lon="7.531723">
        <ele>234.0</ele>
        <time>2020-07-12T10:49:35Z</time>
      </trkpt>
      <trkpt lat="48.093842" lon="7.531722">
        <ele>234.0</ele>
        <time>2020-07-12T10:49:36Z</time>
      </trkpt>
      <trkpt lat="48.093658" lon="7.531711">
        <ele>234.0</ele>
        <time>2020-07-12T10:49:39Z</time>
      </trkpt>
      <trkpt lat="48.093537" lon="7.531704">
        <ele>234.0</ele>
        <time>2020-07-12T10:49:41Z</time>
      </trkpt>
      <trkpt lat="48.093356" lon="7.531699">
        <ele>234.0</ele>
        <time>2020-07-12T10:49:44Z</time>
      </trkpt>
      <trkpt lat="48.093234" lon="7.531685">
        <ele>234.0</ele>
        <time>2020-07-12T10:49:46Z</time>
      </trkpt>
      <trkpt lat="48.093117" lon="7.531669">
        <ele>234.0</ele>
        <time>2020-07-12T10:49:48Z</time>
      </trkpt>
      <trkpt lat="48.092999" lon="7.531656">
        <ele>234.0</ele>
        <time>2020-07-12T10:49:50Z</time>
      </trkpt>
      <trkpt lat="48.092878" lon="7.531649">
        <ele>234.0</ele>
        <time>2020-07-12T10:49:52Z</time>
      </trkpt>
      <trkpt lat="48.092756" lon="7.531647">
        <ele>234.0</ele>
        <time>2020-07-12T10:49:54Z</time>
      </trkpt>
      <trkpt lat="48.092565" lon="7.531639">
        <ele>234.0</ele>
        <time>2020-07-12T10:49:57Z</time>
      </trkpt>
      <trkpt lat="48.092437" lon="7.53164">
        <ele>234.0</ele>
        <time>2020-07-12T10:49:59Z</time>
      </trkpt>
      <trkpt lat="48.092308" lon="7.53163">
        <ele>234.0</ele>
        <time>2020-07-12T10:50:01Z</time>
      </trkpt>
      <trkpt lat="48.092174" lon="7.531622">
        <ele>234.0</ele>
        <time>2020-07-12T10:50:03Z</time>
      </trkpt>
      <trkpt lat="48.092039" lon="7.531625">
        <ele>234.0</ele>
        <time>2020-07-12T10:50:05Z</time>
      </trkpt>
      <trkpt lat="48.091907" lon="7.531611">
        <ele>233.0</ele>
        <time>2020-07-12T10:50:07Z</time>
      </trkpt>
      <trkpt lat="48.091784" lon="7.531605">
        <ele>233.0</ele>
        <time>2020-07-12T10:50:09Z</time>
      </trkpt>
      <trkpt lat="48.091662" lon="7.531595">
        <ele>233.0</ele>
        <time>2020-07-12T10:50:11Z</time>
      </trkpt>
      <trkpt lat="48.091481" lon="7.53158">
        <ele>234.0</ele>
        <time>2020-07-12T10:50:14Z</time>
      </trkpt>
      <trkpt lat="48.091358" lon="7.531575">
        <ele>233.0</ele>
        <time>2020-07-12T10:50:16Z</time>
      </trkpt>
      <trkpt lat="48.091235" lon="7.531572">
        <ele>234.0</ele>
        <time>2020-07-12T10:50:18Z</time>
      </trkpt>
      <trkpt lat="48.09111" lon="7.531562">
        <ele>234.0</ele>
        <time>2020-07-12T10:50:20Z</time>
      </trkpt>
      <trkpt lat="48.090978" lon="7.531553">
        <ele>234.0</ele>
        <time>2020-07-12T10:50:22Z</time>
      </trkpt>
      <trkpt lat="48.090848" lon="7.531553">
        <ele>234.0</ele>
        <time>2020-07-12T10:50:24Z</time>
      </trkpt>
      <trkpt lat="48.090788" lon="7.531553">
        <ele>234.0</ele>
        <time>2020-07-12T10:50:25Z</time>
      </trkpt>
      <trkpt lat="48.090598" lon="7.531543">
        <ele>234.0</ele>
        <time>2020-07-12T10:50:28Z</time>
      </trkpt>
      <trkpt lat="48.090402" lon="7.531536">
        <ele>234.0</ele>
        <time>2020-07-12T10:50:31Z</time>
      </trkpt>
      <trkpt lat="48.09027" lon="7.531529">
        <ele>234.0</ele>
        <time>2020-07-12T10:50:33Z</time>
      </trkpt>
      <trkpt lat="48.090124" lon="7.531525">
        <ele>234.0</ele>
        <time>2020-07-12T10:50:35Z</time>
      </trkpt>
      <trkpt lat="48.089987" lon="7.53152">
        <ele>233.0</ele>
        <time>2020-07-12T10:50:37Z</time>
      </trkpt>
      <trkpt lat="48.08985" lon="7.531513">
        <ele>233.0</ele>
        <time>2020-07-12T10:50:39Z</time>
      </trkpt>
      <trkpt lat="48.089643" lon="7.5315">
        <ele>234.0</ele>
        <time>2020-07-12T10:50:42Z</time>
      </trkpt>
      <trkpt lat="48.089512" lon="7.531503">
        <ele>234.0</ele>
        <time>2020-07-12T10:50:44Z</time>
      </trkpt>
      <trkpt lat="48.089447" lon="7.531503">
        <ele>234.0</ele>
        <time>2020-07-12T10:50:45Z</time>
      </trkpt>
      <trkpt lat="48.08924" lon="7.531486">
        <ele>234.0</ele>
        <time>2020-07-12T10:50:48Z</time>
      </trkpt>
      <trkpt lat="48.08911" lon="7.531474">
        <ele>234.0</ele>
        <time>2020-07-12T10:50:50Z</time>
      </trkpt>
      <trkpt lat="48.088978" lon="7.531464">
        <ele>234.0</ele>
        <time>2020-07-12T10:50:52Z</time>
      </trkpt>
      <trkpt lat="48.088845" lon="7.531453">
        <ele>234.0</ele>
        <time>2020-07-12T10:50:54Z</time>
      </trkpt>
      <trkpt lat="48.088716" lon="7.531442">
        <ele>234.0</ele>
        <time>2020-07-12T10:50:56Z</time>
      </trkpt>
      <trkpt lat="48.088587" lon="7.531435">
        <ele>234.0</ele>
        <time>2020-07-12T10:50:58Z</time>
      </trkpt>
      <trkpt lat="48.088385" lon="7.531431">
        <ele>235.0</ele>
        <time>2020-07-12T10:51:01Z</time>
      </trkpt>
      <trkpt lat="48.088255" lon="7.53143">
        <ele>234.0</ele>
        <time>2020-07-12T10:51:03Z</time>
      </trkpt>
      <trkpt lat="48.088126" lon="7.531424">
        <ele>234.0</ele>
        <time>2020-07-12T10:51:05Z</time>
      </trkpt>
      <trkpt lat="48.088061" lon="7.531422">
        <ele>234.0</ele>
        <time>2020-07-12T10:51:06Z</time>
      </trkpt>
      <trkpt lat="48.087875" lon="7.531419">
        <ele>234.0</ele>
        <time>2020-07-12T10:51:09Z</time>
      </trkpt>
      <trkpt lat="48.087679" lon="7.531407">
        <ele>234.0</ele>
        <time>2020-07-12T10:51:12Z</time>
      </trkpt>
      <trkpt lat="48.087549" lon="7.531405">
        <ele>234.0</ele>
        <time>2020-07-12T10:51:14Z</time>
      </trkpt>
      <trkpt lat="48.087419" lon="7.531396">
        <ele>234.0</ele>
        <time>2020-07-12T10:51:16Z</time>
      </trkpt>
      <trkpt lat="48.087356" lon="7.531391">
        <ele>234.0</ele>
        <time>2020-07-12T10:51:17Z</time>
      </trkpt>
      <trkpt lat="48.087098" lon="7.531375">
        <ele>234.0</ele>
        <time>2020-07-12T10:51:21Z</time>
      </trkpt>
      <trkpt lat="48.086969" lon="7.531367">
        <ele>234.0</ele>
        <time>2020-07-12T10:51:23Z</time>
      </trkpt>
      <trkpt lat="48.086841" lon="7.531353">
        <ele>234.0</ele>
        <time>2020-07-12T10:51:25Z</time>
      </trkpt>
      <trkpt lat="48.086654" lon="7.53135">
        <ele>234.0</ele>
        <time>2020-07-12T10:51:28Z</time>
      </trkpt>
      <trkpt lat="48.086594" lon="7.53135">
        <ele>234.0</ele>
        <time>2020-07-12T10:51:29Z</time>
      </trkpt>
      <trkpt lat="48.086409" lon="7.531333">
        <ele>234.0</ele>
        <time>2020-07-12T10:51:32Z</time>
      </trkpt>
      <trkpt lat="48.086283" lon="7.531328">
        <ele>234.0</ele>
        <time>2020-07-12T10:51:34Z</time>
      </trkpt>
      <trkpt lat="48.086151" lon="7.531332">
        <ele>234.0</ele>
        <time>2020-07-12T10:51:36Z</time>
      </trkpt>
      <trkpt lat="48.086019" lon="7.531323">
        <ele>234.0</ele>
        <time>2020-07-12T10:51:38Z</time>
      </trkpt>
      <trkpt lat="48.08583" lon="7.531308">
        <ele>234.0</ele>
        <time>2020-07-12T10:51:41Z</time>
      </trkpt>
      <trkpt lat="48.085699" lon="7.531306">
        <ele>235.0</ele>
        <time>2020-07-12T10:51:43Z</time>
      </trkpt>
      <trkpt lat="48.085635" lon="7.531294">
        <ele>235.0</ele>
        <time>2020-07-12T10:51:44Z</time>
      </trkpt>
      <trkpt lat="48.085503" lon="7.531286">
        <ele>235.0</ele>
        <time>2020-07-12T10:51:46Z</time>
      </trkpt>
      <trkpt lat="48.085295" lon="7.53127">
        <ele>235.0</ele>
        <time>2020-07-12T10:51:49Z</time>
      </trkpt>
      <trkpt lat="48.085157" lon="7.531267">
        <ele>235.0</ele>
        <time>2020-07-12T10:51:51Z</time>
      </trkpt>
      <trkpt lat="48.085028" lon="7.53126">
        <ele>235.0</ele>
        <time>2020-07-12T10:51:53Z</time>
      </trkpt>
      <trkpt lat="48.084896" lon="7.531258">
        <ele>235.0</ele>
        <time>2020-07-12T10:51:55Z</time>
      </trkpt>
      <trkpt lat="48.084766" lon="7.531255">
        <ele>235.0</ele>
        <time>2020-07-12T10:51:57Z</time>
      </trkpt>
      <trkpt lat="48.084636" lon="7.531249">
        <ele>235.0</ele>
        <time>2020-07-12T10:51:59Z</time>
      </trkpt>
      <trkpt lat="48.08438" lon="7.531232">
        <ele>236.0</ele>
        <time>2020-07-12T10:52:03Z</time>
      </trkpt>
      <trkpt lat="48.084318" lon="7.531229">
        <ele>235.0</ele>
        <time>2020-07-12T10:52:04Z</time>
      </trkpt>
      <trkpt lat="48.084123" lon="7.53122">
        <ele>235.0</ele>
        <time>2020-07-12T10:52:07Z</time>
      </trkpt>
      <trkpt lat="48.083998" lon="7.531217">
        <ele>235.0</ele>
        <time>2020-07-12T10:52:09Z</time>
      </trkpt>
      <trkpt lat="48.083877" lon="7.531217">
        <ele>236.0</ele>
        <time>2020-07-12T10:52:11Z</time>
      </trkpt>
      <trkpt lat="48.083691" lon="7.531209">
        <ele>236.0</ele>
        <time>2020-07-12T10:52:14Z</time>
      </trkpt>
      <trkpt lat="48.083631" lon="7.531202">
        <ele>236.0</ele>
        <time>2020-07-12T10:52:15Z</time>
      </trkpt>
      <trkpt lat="48.08345" lon="7.53119">
        <ele>236.0</ele>
        <time>2020-07-12T10:52:18Z</time>
      </trkpt>
      <trkpt lat="48.083328" lon="7.531195">
        <ele>236.0</ele>
        <time>2020-07-12T10:52:20Z</time>
      </trkpt>
      <trkpt lat="48.083142" lon="7.531188">
        <ele>236.0</ele>
        <time>2020-07-12T10:52:23Z</time>
      </trkpt>
      <trkpt lat="48.083083" lon="7.531184">
        <ele>236.0</ele>
        <time>2020-07-12T10:52:24Z</time>
      </trkpt>
      <trkpt lat="48.082906" lon="7.531167">
        <ele>236.0</ele>
        <time>2020-07-12T10:52:27Z</time>
      </trkpt>
      <trkpt lat="48.08279" lon="7.531159">
        <ele>236.0</ele>
        <time>2020-07-12T10:52:29Z</time>
      </trkpt>
      <trkpt lat="48.082673" lon="7.531148">
        <ele>236.0</ele>
        <time>2020-07-12T10:52:31Z</time>
      </trkpt>
      <trkpt lat="48.082611" lon="7.53114">
        <ele>236.0</ele>
        <time>2020-07-12T10:52:32Z</time>
      </trkpt>
      <trkpt lat="48.082425" lon="7.531137">
        <ele>235.0</ele>
        <time>2020-07-12T10:52:35Z</time>
      </trkpt>
      <trkpt lat="48.082306" lon="7.531135">
        <ele>235.0</ele>
        <time>2020-07-12T10:52:37Z</time>
      </trkpt>
      <trkpt lat="48.082187" lon="7.531125">
        <ele>236.0</ele>
        <time>2020-07-12T10:52:39Z</time>
      </trkpt>
      <trkpt lat="48.082066" lon="7.531124">
        <ele>236.0</ele>
        <time>2020-07-12T10:52:41Z</time>
      </trkpt>
      <trkpt lat="48.081881" lon="7.531124">
        <ele>236.0</ele>
        <time>2020-07-12T10:52:44Z</time>
      </trkpt>
      <trkpt lat="48.081753" lon="7.531117">
        <ele>236.0</ele>
        <time>2020-07-12T10:52:46Z</time>
      </trkpt>
      <trkpt lat="48.081627" lon="7.531115">
        <ele>236.0</ele>
        <time>2020-07-12T10:52:48Z</time>
      </trkpt>
      <trkpt lat="48.081444" lon="7.531089">
        <ele>236.0</ele>
        <time>2020-07-12T10:52:51Z</time>
      </trkpt>
      <trkpt lat="48.08132" lon="7.531076">
        <ele>236.0</ele>
        <time>2020-07-12T10:52:53Z</time>
      </trkpt>
      <trkpt lat="48.081198" lon="7.531063">
        <ele>236.0</ele>
        <time>2020-07-12T10:52:55Z</time>
      </trkpt>
      <trkpt lat="48.081082" lon="7.531047">
        <ele>236.0</ele>
        <time>2020-07-12T10:52:57Z</time>
      </trkpt>
      <trkpt lat="48.080961" lon="7.531045">
        <ele>236.0</ele>
        <time>2020-07-12T10:52:59Z</time>
      </trkpt>
      <trkpt lat="48.080775" lon="7.531039">
        <ele>236.0</ele>
        <time>2020-07-12T10:53:02Z</time>
      </trkpt>
      <trkpt lat="48.080658" lon="7.531028">
        <ele>236.0</ele>
        <time>2020-07-12T10:53:04Z</time>
      </trkpt>
      <trkpt lat="48.080541" lon="7.531013">
        <ele>236.0</ele>
        <time>2020-07-12T10:53:06Z</time>
      </trkpt>
      <trkpt lat="48.080421" lon="7.531014">
        <ele>236.0</ele>
        <time>2020-07-12T10:53:08Z</time>
      </trkpt>
      <trkpt lat="48.080362" lon="7.531011">
        <ele>236.0</ele>
        <time>2020-07-12T10:53:09Z</time>
      </trkpt>
      <trkpt lat="48.080186" lon="7.531003">
        <ele>235.0</ele>
        <time>2020-07-12T10:53:12Z</time>
      </trkpt>
      <trkpt lat="48.080066" lon="7.531011">
        <ele>235.0</ele>
        <time>2020-07-12T10:53:14Z</time>
      </trkpt>
      <trkpt lat="48.079878" lon="7.531012">
        <ele>235.0</ele>
        <time>2020-07-12T10:53:17Z</time>
      </trkpt>
      <trkpt lat="48.079815" lon="7.531007">
        <ele>235.0</ele>
        <time>2020-07-12T10:53:18Z</time>
      </trkpt>
      <trkpt lat="48.079642" lon="7.530993">
        <ele>235.0</ele>
        <time>2020-07-12T10:53:21Z</time>
      </trkpt>
      <trkpt lat="48.079537" lon="7.530976">
        <ele>236.0</ele>
        <time>2020-07-12T10:53:23Z</time>
      </trkpt>
      <trkpt lat="48.079434" lon="7.530966">
        <ele>235.0</ele>
        <time>2020-07-12T10:53:25Z</time>
      </trkpt>
      <trkpt lat="48.079337" lon="7.530953">
        <ele>236.0</ele>
        <time>2020-07-12T10:53:27Z</time>
      </trkpt>
      <trkpt lat="48.079184" lon="7.53092">
        <ele>235.0</ele>
        <time>2020-07-12T10:53:30Z</time>
      </trkpt>
      <trkpt lat="48.079088" lon="7.530861">
        <ele>236.0</ele>
        <time>2020-07-12T10:53:32Z</time>
      </trkpt>
      <trkpt lat="48.078993" lon="7.530867">
        <ele>235.0</ele>
        <time>2020-07-12T10:53:34Z</time>
      </trkpt>
      <trkpt lat="48.078903" lon="7.530907">
        <ele>236.0</ele>
        <time>2020-07-12T10:53:36Z</time>
      </trkpt>
      <trkpt lat="48.078826" lon="7.530918">
        <ele>236.0</ele>
        <time>2020-07-12T10:53:38Z</time>
      </trkpt>
      <trkpt lat="48.078762" lon="7.530901">
        <ele>237.0</ele>
        <time>2020-07-12T10:53:40Z</time>
      </trkpt>
      <trkpt lat="48.078716" lon="7.530891">
        <ele>237.0</ele>
        <time>2020-07-12T10:53:42Z</time>
      </trkpt>
      <trkpt lat="48.078684" lon="7.530889">
        <ele>238.0</ele>
        <time>2020-07-12T10:53:44Z</time>
      </trkpt>
      <trkpt lat="48.078664" lon="7.53088">
        <ele>237.0</ele>
        <time>2020-07-12T10:53:46Z</time>
      </trkpt>
      <trkpt lat="48.078653" lon="7.53088">
        <ele>238.0</ele>
        <time>2020-07-12T10:53:48Z</time>
      </trkpt>
      <trkpt lat="48.078631" lon="7.530855">
        <ele>238.0</ele>
        <time>2020-07-12T10:53:50Z</time>
      </trkpt>
      <trkpt lat="48.078637" lon="7.530764">
        <ele>238.0</ele>
        <time>2020-07-12T10:53:52Z</time>
      </trkpt>
      <trkpt lat="48.078632" lon="7.530672">
        <ele>238.0</ele>
        <time>2020-07-12T10:53:54Z</time>
      </trkpt>
      <trkpt lat="48.078632" lon="7.530578">
        <ele>237.0</ele>
        <time>2020-07-12T10:53:56Z</time>
      </trkpt>
      <trkpt lat="48.078618" lon="7.530516">
        <ele>236.0</ele>
        <time>2020-07-12T10:53:58Z</time>
      </trkpt>
      <trkpt lat="48.078604" lon="7.530532">
        <ele>237.0</ele>
        <time>2020-07-12T10:54:00Z</time>
      </trkpt>
      <trkpt lat="48.0786" lon="7.530568">
        <ele>236.0</ele>
        <time>2020-07-12T10:54:02Z</time>
      </trkpt>
      <trkpt lat="48.078594" lon="7.530617">
        <ele>236.0</ele>
        <time>2020-07-12T10:54:04Z</time>
      </trkpt>
      <trkpt lat="48.078593" lon="7.530665">
        <ele>237.0</ele>
        <time>2020-07-12T10:54:06Z</time>
      </trkpt>
      <trkpt lat="48.078588" lon="7.530676">
        <ele>237.0</ele>
        <time>2020-07-12T10:54:07Z</time>
      </trkpt>
      <trkpt lat="48.078584" lon="7.530682">
        <ele>237.0</ele>
        <time>2020-07-12T10:54:10Z</time>
      </trkpt>
      <trkpt lat="48.078584" lon="7.530682">
        <ele>237.0</ele>
        <time>2020-07-12T10:54:12Z</time>
      </trkpt>
      <trkpt lat="48.078584" lon="7.530682">
        <ele>237.0</ele>
        <time>2020-07-12T10:54:14Z</time>
      </trkpt>
      <trkpt lat="48.078584" lon="7.530682">
        <ele>237.0</ele>
        <time>2020-07-12T10:54:18Z</time>
      </trkpt>
      <trkpt lat="48.078584" lon="7.530682">
        <ele>237.0</ele>
        <time>2020-07-12T10:54:20Z</time>
      </trkpt>
      <trkpt lat="48.078584" lon="7.530682">
        <ele>237.0</ele>
        <time>2020-07-12T10:54:22Z</time>
      </trkpt>
      <trkpt lat="48.078584" lon="7.530682">
        <ele>237.0</ele>
        <time>2020-07-12T10:54:24Z</time>
      </trkpt>
      <trkpt lat="48.078584" lon="7.530682">
        <ele>237.0</ele>
        <time>2020-07-12T10:54:25Z</time>
      </trkpt>
      <trkpt lat="48.078584" lon="7.530682">
        <ele>237.0</ele>
        <time>2020-07-12T10:54:28Z</time>
      </trkpt>
      <trkpt lat="48.078584" lon="7.530682">
        <ele>237.0</ele>
        <time>2020-07-12T10:54:30Z</time>
      </trkpt>
      <trkpt lat="48.078584" lon="7.530682">
        <ele>237.0</ele>
        <time>2020-07-12T10:54:32Z</time>
      </trkpt>
      <trkpt lat="48.078584" lon="7.530682">
        <ele>237.0</ele>
        <time>2020-07-12T10:54:33Z</time>
      </trkpt>
      <trkpt lat="48.078584" lon="7.530682">
        <ele>237.0</ele>
        <time>2020-07-12T10:54:36Z</time>
      </trkpt>
      <trkpt lat="48.078584" lon="7.530688">
        <ele>237.0</ele>
        <time>2020-07-12T10:54:39Z</time>
      </trkpt>
      <trkpt lat="48.078594" lon="7.5307">
        <ele>237.0</ele>
        <time>2020-07-12T10:54:41Z</time>
      </trkpt>
      <trkpt lat="48.078615" lon="7.53073">
        <ele>237.0</ele>
        <time>2020-07-12T10:54:43Z</time>
      </trkpt>
      <trkpt lat="48.078633" lon="7.530746">
        <ele>238.0</ele>
        <time>2020-07-12T10:54:44Z</time>
      </trkpt>
      <trkpt lat="48.078642" lon="7.53082">
        <ele>238.0</ele>
        <time>2020-07-12T10:54:47Z</time>
      </trkpt>
      <trkpt lat="48.07864" lon="7.530872">
        <ele>237.0</ele>
        <time>2020-07-12T10:54:49Z</time>
      </trkpt>
      <trkpt lat="48.078676" lon="7.530894">
        <ele>238.0</ele>
        <time>2020-07-12T10:54:51Z</time>
      </trkpt>
      <trkpt lat="48.078764" lon="7.530899">
        <ele>238.0</ele>
        <time>2020-07-12T10:54:54Z</time>
      </trkpt>
      <trkpt lat="48.078847" lon="7.530917">
        <ele>238.0</ele>
        <time>2020-07-12T10:54:56Z</time>
      </trkpt>
      <trkpt lat="48.07892" lon="7.530909">
        <ele>239.0</ele>
        <time>2020-07-12T10:54:58Z</time>
      </trkpt>
      <trkpt lat="48.07894" lon="7.53098">
        <ele>238.0</ele>
        <time>2020-07-12T10:55:00Z</time>
      </trkpt>
      <trkpt lat="48.078917" lon="7.531081">
        <ele>238.0</ele>
        <time>2020-07-12T10:55:02Z</time>
      </trkpt>
      <trkpt lat="48.078858" lon="7.531163">
        <ele>238.0</ele>
        <time>2020-07-12T10:55:04Z</time>
      </trkpt>
      <trkpt lat="48.078799" lon="7.531242">
        <ele>238.0</ele>
        <time>2020-07-12T10:55:06Z</time>
      </trkpt>
      <trkpt lat="48.078657" lon="7.531287">
        <ele>238.0</ele>
        <time>2020-07-12T10:55:09Z</time>
      </trkpt>
      <trkpt lat="48.078608" lon="7.531286">
        <ele>237.0</ele>
        <time>2020-07-12T10:55:10Z</time>
      </trkpt>
      <trkpt lat="48.07846" lon="7.5313">
        <ele>238.0</ele>
        <time>2020-07-12T10:55:13Z</time>
      </trkpt>
      <trkpt lat="48.078359" lon="7.531316">
        <ele>238.0</ele>
        <time>2020-07-12T10:55:15Z</time>
      </trkpt>
      <trkpt lat="48.078206" lon="7.531322">
        <ele>238.0</ele>
        <time>2020-07-12T10:55:18Z</time>
      </trkpt>
      <trkpt lat="48.078102" lon="7.531315">
        <ele>238.0</ele>
        <time>2020-07-12T10:55:20Z</time>
      </trkpt>
      <trkpt lat="48.07799" lon="7.531318">
        <ele>237.0</ele>
        <time>2020-07-12T10:55:22Z</time>
      </trkpt>
      <trkpt lat="48.077805" lon="7.531301">
        <ele>237.0</ele>
        <time>2020-07-12T10:55:25Z</time>
      </trkpt>
      <trkpt lat="48.07769" lon="7.531297">
        <ele>237.0</ele>
        <time>2020-07-12T10:55:27Z</time>
      </trkpt>
      <trkpt lat="48.07757" lon="7.531288">
        <ele>237.0</ele>
        <time>2020-07-12T10:55:29Z</time>
      </trkpt>
      <trkpt lat="48.077505" lon="7.531282">
        <ele>237.0</ele>
        <time>2020-07-12T10:55:30Z</time>
      </trkpt>
      <trkpt lat="48.077331" lon="7.531272">
        <ele>237.0</ele>
        <time>2020-07-12T10:55:33Z</time>
      </trkpt>
      <trkpt lat="48.077213" lon="7.531271">
        <ele>237.0</ele>
        <time>2020-07-12T10:55:35Z</time>
      </trkpt>
      <trkpt lat="48.077098" lon="7.53127">
        <ele>237.0</ele>
        <time>2020-07-12T10:55:37Z</time>
      </trkpt>
      <trkpt lat="48.07699" lon="7.531267">
        <ele>237.0</ele>
        <time>2020-07-12T10:55:39Z</time>
      </trkpt>
      <trkpt lat="48.076832" lon="7.531259">
        <ele>236.0</ele>
        <time>2020-07-12T10:55:42Z</time>
      </trkpt>
      <trkpt lat="48.076719" lon="7.531255">
        <ele>236.0</ele>
        <time>2020-07-12T10:55:44Z</time>
      </trkpt>
      <trkpt lat="48.076664" lon="7.531252">
        <ele>236.0</ele>
        <time>2020-07-12T10:55:45Z</time>
      </trkpt>
      <trkpt lat="48.076493" lon="7.531233">
        <ele>236.0</ele>
        <time>2020-07-12T10:55:48Z</time>
      </trkpt>
      <trkpt lat="48.076377" lon="7.53123">
        <ele>236.0</ele>
        <time>2020-07-12T10:55:50Z</time>
      </trkpt>
      <trkpt lat="48.076214" lon="7.531221">
        <ele>236.0</ele>
        <time>2020-07-12T10:55:53Z</time>
      </trkpt>
      <trkpt lat="48.076156" lon="7.531221">
        <ele>236.0</ele>
        <time>2020-07-12T10:55:54Z</time>
      </trkpt>
      <trkpt lat="48.075978" lon="7.531208">
        <ele>236.0</ele>
        <time>2020-07-12T10:55:57Z</time>
      </trkpt>
      <trkpt lat="48.075867" lon="7.531203">
        <ele>236.0</ele>
        <time>2020-07-12T10:55:59Z</time>
      </trkpt>
      <trkpt lat="48.075747" lon="7.5312">
        <ele>236.0</ele>
        <time>2020-07-12T10:56:01Z</time>
      </trkpt>
      <trkpt lat="48.075642" lon="7.531202">
        <ele>236.0</ele>
        <time>2020-07-12T10:56:03Z</time>
      </trkpt>
      <trkpt lat="48.07554" lon="7.531191">
        <ele>236.0</ele>
        <time>2020-07-12T10:56:05Z</time>
      </trkpt>
      <trkpt lat="48.075441" lon="7.531191">
        <ele>236.0</ele>
        <time>2020-07-12T10:56:07Z</time>
      </trkpt>
      <trkpt lat="48.075338" lon="7.531195">
        <ele>236.0</ele>
        <time>2020-07-12T10:56:09Z</time>
      </trkpt>
      <trkpt lat="48.075182" lon="7.531188">
        <ele>236.0</ele>
        <time>2020-07-12T10:56:12Z</time>
      </trkpt>
      <trkpt lat="48.075074" lon="7.531175">
        <ele>236.0</ele>
        <time>2020-07-12T10:56:14Z</time>
      </trkpt>
      <trkpt lat="48.074966" lon="7.531165">
        <ele>236.0</ele>
        <time>2020-07-12T10:56:16Z</time>
      </trkpt>
      <trkpt lat="48.074844" lon="7.531155">
        <ele>236.0</ele>
        <time>2020-07-12T10:56:18Z</time>
      </trkpt>
      <trkpt lat="48.074729" lon="7.53114">
        <ele>236.0</ele>
        <time>2020-07-12T10:56:20Z</time>
      </trkpt>
      <trkpt lat="48.074608" lon="7.531127">
        <ele>236.0</ele>
        <time>2020-07-12T10:56:22Z</time>
      </trkpt>
      <trkpt lat="48.074426" lon="7.531137">
        <ele>236.0</ele>
        <time>2020-07-12T10:56:25Z</time>
      </trkpt>
      <trkpt lat="48.074371" lon="7.531137">
        <ele>235.0</ele>
        <time>2020-07-12T10:56:26Z</time>
      </trkpt>
      <trkpt lat="48.074193" lon="7.531118">
        <ele>236.0</ele>
        <time>2020-07-12T10:56:29Z</time>
      </trkpt>
      <trkpt lat="48.074068" lon="7.531102">
        <ele>236.0</ele>
        <time>2020-07-12T10:56:31Z</time>
      </trkpt>
      <trkpt lat="48.073952" lon="7.5311">
        <ele>235.0</ele>
        <time>2020-07-12T10:56:33Z</time>
      </trkpt>
      <trkpt lat="48.073834" lon="7.531097">
        <ele>235.0</ele>
        <time>2020-07-12T10:56:35Z</time>
      </trkpt>
      <trkpt lat="48.073713" lon="7.531097">
        <ele>236.0</ele>
        <time>2020-07-12T10:56:37Z</time>
      </trkpt>
      <trkpt lat="48.073529" lon="7.531087">
        <ele>236.0</ele>
        <time>2020-07-12T10:56:40Z</time>
      </trkpt>
      <trkpt lat="48.07341" lon="7.531084">
        <ele>236.0</ele>
        <time>2020-07-12T10:56:42Z</time>
      </trkpt>
      <trkpt lat="48.073294" lon="7.531089">
        <ele>236.0</ele>
        <time>2020-07-12T10:56:44Z</time>
      </trkpt>
      <trkpt lat="48.073173" lon="7.531098">
        <ele>236.0</ele>
        <time>2020-07-12T10:56:46Z</time>
      </trkpt>
      <trkpt lat="48.073048" lon="7.531115">
        <ele>236.0</ele>
        <time>2020-07-12T10:56:48Z</time>
      </trkpt>
      <trkpt lat="48.07293" lon="7.531143">
        <ele>237.0</ele>
        <time>2020-07-12T10:56:50Z</time>
      </trkpt>
      <trkpt lat="48.072758" lon="7.531181">
        <ele>236.0</ele>
        <time>2020-07-12T10:56:53Z</time>
      </trkpt>
      <trkpt lat="48.072644" lon="7.531216">
        <ele>236.0</ele>
        <time>2020-07-12T10:56:55Z</time>
      </trkpt>
      <trkpt lat="48.072536" lon="7.531254">
        <ele>236.0</ele>
        <time>2020-07-12T10:56:57Z</time>
      </trkpt>
      <trkpt lat="48.072372" lon="7.531319">
        <ele>236.0</ele>
        <time>2020-07-12T10:57:00Z</time>
      </trkpt>
      <trkpt lat="48.07226" lon="7.531377">
        <ele>237.0</ele>
        <time>2020-07-12T10:57:02Z</time>
      </trkpt>
      <trkpt lat="48.072144" lon="7.53145">
        <ele>237.0</ele>
        <time>2020-07-12T10:57:04Z</time>
      </trkpt>
      <trkpt lat="48.072034" lon="7.531515">
        <ele>237.0</ele>
        <time>2020-07-12T10:57:06Z</time>
      </trkpt>
      <trkpt lat="48.071921" lon="7.531595">
        <ele>237.0</ele>
        <time>2020-07-12T10:57:08Z</time>
      </trkpt>
      <trkpt lat="48.071812" lon="7.53168">
        <ele>237.0</ele>
        <time>2020-07-12T10:57:10Z</time>
      </trkpt>
      <trkpt lat="48.071708" lon="7.531769">
        <ele>237.0</ele>
        <time>2020-07-12T10:57:12Z</time>
      </trkpt>
      <trkpt lat="48.071601" lon="7.531855">
        <ele>237.0</ele>
        <time>2020-07-12T10:57:14Z</time>
      </trkpt>
      <trkpt lat="48.071551" lon="7.531894">
        <ele>237.0</ele>
        <time>2020-07-12T10:57:15Z</time>
      </trkpt>
      <trkpt lat="48.071392" lon="7.532036">
        <ele>237.0</ele>
        <time>2020-07-12T10:57:18Z</time>
      </trkpt>
      <trkpt lat="48.071301" lon="7.532159">
        <ele>237.0</ele>
        <time>2020-07-12T10:57:20Z</time>
      </trkpt>
      <trkpt lat="48.071212" lon="7.532279">
        <ele>237.0</ele>
        <time>2020-07-12T10:57:22Z</time>
      </trkpt>
      <trkpt lat="48.07112" lon="7.532404">
        <ele>238.0</ele>
        <time>2020-07-12T10:57:24Z</time>
      </trkpt>
      <trkpt lat="48.070961" lon="7.532577">
        <ele>237.0</ele>
        <time>2020-07-12T10:57:27Z</time>
      </trkpt>
      <trkpt lat="48.070878" lon="7.532715">
        <ele>238.0</ele>
        <time>2020-07-12T10:57:29Z</time>
      </trkpt>
      <trkpt lat="48.070802" lon="7.53286">
        <ele>237.0</ele>
        <time>2020-07-12T10:57:31Z</time>
      </trkpt>
      <trkpt lat="48.070732" lon="7.533006">
        <ele>237.0</ele>
        <time>2020-07-12T10:57:33Z</time>
      </trkpt>
      <trkpt lat="48.070618" lon="7.533208">
        <ele>237.0</ele>
        <time>2020-07-12T10:57:36Z</time>
      </trkpt>
      <trkpt lat="48.070541" lon="7.533348">
        <ele>237.0</ele>
        <time>2020-07-12T10:57:38Z</time>
      </trkpt>
      <trkpt lat="48.070464" lon="7.533499">
        <ele>237.0</ele>
        <time>2020-07-12T10:57:40Z</time>
      </trkpt>
      <trkpt lat="48.07038" lon="7.533646">
        <ele>237.0</ele>
        <time>2020-07-12T10:57:42Z</time>
      </trkpt>
      <trkpt lat="48.070317" lon="7.533808">
        <ele>237.0</ele>
        <time>2020-07-12T10:57:44Z</time>
      </trkpt>
      <trkpt lat="48.070251" lon="7.533959">
        <ele>237.0</ele>
        <time>2020-07-12T10:57:46Z</time>
      </trkpt>
      <trkpt lat="48.07017" lon="7.534105">
        <ele>237.0</ele>
        <time>2020-07-12T10:57:48Z</time>
      </trkpt>
      <trkpt lat="48.070083" lon="7.534225">
        <ele>238.0</ele>
        <time>2020-07-12T10:57:50Z</time>
      </trkpt>
      <trkpt lat="48.069933" lon="7.534463">
        <ele>239.0</ele>
        <time>2020-07-12T10:57:54Z</time>
      </trkpt>
      <trkpt lat="48.069844" lon="7.534519">
        <ele>240.0</ele>
        <time>2020-07-12T10:57:56Z</time>
      </trkpt>
      <trkpt lat="48.069763" lon="7.534558">
        <ele>239.0</ele>
        <time>2020-07-12T10:57:58Z</time>
      </trkpt>
      <trkpt lat="48.069726" lon="7.534588">
        <ele>239.0</ele>
        <time>2020-07-12T10:57:59Z</time>
      </trkpt>
      <trkpt lat="48.06964" lon="7.534731">
        <ele>238.0</ele>
        <time>2020-07-12T10:58:02Z</time>
      </trkpt>
      <trkpt lat="48.069591" lon="7.534854">
        <ele>238.0</ele>
        <time>2020-07-12T10:58:04Z</time>
      </trkpt>
      <trkpt lat="48.069497" lon="7.535021">
        <ele>237.0</ele>
        <time>2020-07-12T10:58:07Z</time>
      </trkpt>
      <trkpt lat="48.069434" lon="7.535136">
        <ele>237.0</ele>
        <time>2020-07-12T10:58:09Z</time>
      </trkpt>
      <trkpt lat="48.069373" lon="7.535255">
        <ele>237.0</ele>
        <time>2020-07-12T10:58:11Z</time>
      </trkpt>
      <trkpt lat="48.069314" lon="7.535369">
        <ele>237.0</ele>
        <time>2020-07-12T10:58:13Z</time>
      </trkpt>
      <trkpt lat="48.069252" lon="7.535481">
        <ele>237.0</ele>
        <time>2020-07-12T10:58:15Z</time>
      </trkpt>
      <trkpt lat="48.069182" lon="7.535601">
        <ele>237.0</ele>
        <time>2020-07-12T10:58:17Z</time>
      </trkpt>
      <trkpt lat="48.069105" lon="7.535735">
        <ele>236.0</ele>
        <time>2020-07-12T10:58:19Z</time>
      </trkpt>
      <trkpt lat="48.069036" lon="7.535864">
        <ele>236.0</ele>
        <time>2020-07-12T10:58:21Z</time>
      </trkpt>
      <trkpt lat="48.068971" lon="7.535997">
        <ele>236.0</ele>
        <time>2020-07-12T10:58:23Z</time>
      </trkpt>
      <trkpt lat="48.068936" lon="7.536063">
        <ele>236.0</ele>
        <time>2020-07-12T10:58:24Z</time>
      </trkpt>
      <trkpt lat="48.068811" lon="7.536282">
        <ele>235.0</ele>
        <time>2020-07-12T10:58:27Z</time>
      </trkpt>
      <trkpt lat="48.068704" lon="7.536484">
        <ele>236.0</ele>
        <time>2020-07-12T10:58:30Z</time>
      </trkpt>
      <trkpt lat="48.068629" lon="7.536621">
        <ele>236.0</ele>
        <time>2020-07-12T10:58:32Z</time>
      </trkpt>
      <trkpt lat="48.068556" lon="7.536764">
        <ele>236.0</ele>
        <time>2020-07-12T10:58:34Z</time>
      </trkpt>
      <trkpt lat="48.068483" lon="7.536897">
        <ele>236.0</ele>
        <time>2020-07-12T10:58:36Z</time>
      </trkpt>
      <trkpt lat="48.068375" lon="7.537116">
        <ele>236.0</ele>
        <time>2020-07-12T10:58:39Z</time>
      </trkpt>
      <trkpt lat="48.068295" lon="7.537249">
        <ele>235.0</ele>
        <time>2020-07-12T10:58:41Z</time>
      </trkpt>
      <trkpt lat="48.068212" lon="7.537386">
        <ele>234.0</ele>
        <time>2020-07-12T10:58:43Z</time>
      </trkpt>
      <trkpt lat="48.068126" lon="7.537517">
        <ele>235.0</ele>
        <time>2020-07-12T10:58:45Z</time>
      </trkpt>
      <trkpt lat="48.068051" lon="7.537654">
        <ele>234.0</ele>
        <time>2020-07-12T10:58:47Z</time>
      </trkpt>
      <trkpt lat="48.067982" lon="7.53778">
        <ele>234.0</ele>
        <time>2020-07-12T10:58:49Z</time>
      </trkpt>
      <trkpt lat="48.067908" lon="7.537912">
        <ele>235.0</ele>
        <time>2020-07-12T10:58:51Z</time>
      </trkpt>
      <trkpt lat="48.0678" lon="7.538114">
        <ele>234.0</ele>
        <time>2020-07-12T10:58:54Z</time>
      </trkpt>
      <trkpt lat="48.067729" lon="7.538248">
        <ele>234.0</ele>
        <time>2020-07-12T10:58:56Z</time>
      </trkpt>
      <trkpt lat="48.067652" lon="7.538378">
        <ele>234.0</ele>
        <time>2020-07-12T10:58:58Z</time>
      </trkpt>
      <trkpt lat="48.067583" lon="7.5385">
        <ele>234.0</ele>
        <time>2020-07-12T10:59:00Z</time>
      </trkpt>
      <trkpt lat="48.067509" lon="7.538632">
        <ele>234.0</ele>
        <time>2020-07-12T10:59:02Z</time>
      </trkpt>
      <trkpt lat="48.06742" lon="7.538758">
        <ele>234.0</ele>
        <time>2020-07-12T10:59:04Z</time>
      </trkpt>
      <trkpt lat="48.067323" lon="7.538866">
        <ele>233.0</ele>
        <time>2020-07-12T10:59:06Z</time>
      </trkpt>
      <trkpt lat="48.067221" lon="7.538983">
        <ele>232.0</ele>
        <time>2020-07-12T10:59:08Z</time>
      </trkpt>
      <trkpt lat="48.067076" lon="7.539148">
        <ele>232.0</ele>
        <time>2020-07-12T10:59:11Z</time>
      </trkpt>
      <trkpt lat="48.066973" lon="7.539253">
        <ele>232.0</ele>
        <time>2020-07-12T10:59:13Z</time>
      </trkpt>
      <trkpt lat="48.06687" lon="7.539362">
        <ele>232.0</ele>
        <time>2020-07-12T10:59:15Z</time>
      </trkpt>
      <trkpt lat="48.066761" lon="7.539473">
        <ele>232.0</ele>
        <time>2020-07-12T10:59:17Z</time>
      </trkpt>
      <trkpt lat="48.066609" lon="7.539657">
        <ele>232.0</ele>
        <time>2020-07-12T10:59:20Z</time>
      </trkpt>
      <trkpt lat="48.066504" lon="7.539793">
        <ele>233.0</ele>
        <time>2020-07-12T10:59:22Z</time>
      </trkpt>
      <trkpt lat="48.066402" lon="7.539915">
        <ele>232.0</ele>
        <time>2020-07-12T10:59:24Z</time>
      </trkpt>
      <trkpt lat="48.066324" lon="7.540058">
        <ele>232.0</ele>
        <time>2020-07-12T10:59:26Z</time>
      </trkpt>
      <trkpt lat="48.066192" lon="7.540282">
        <ele>231.0</ele>
        <time>2020-07-12T10:59:29Z</time>
      </trkpt>
      <trkpt lat="48.066139" lon="7.540354">
        <ele>232.0</ele>
        <time>2020-07-12T10:59:30Z</time>
      </trkpt>
      <trkpt lat="48.065953" lon="7.540557">
        <ele>233.0</ele>
        <time>2020-07-12T10:59:33Z</time>
      </trkpt>
      <trkpt lat="48.065824" lon="7.540699">
        <ele>234.0</ele>
        <time>2020-07-12T10:59:35Z</time>
      </trkpt>
      <trkpt lat="48.065697" lon="7.54084">
        <ele>235.0</ele>
        <time>2020-07-12T10:59:37Z</time>
      </trkpt>
      <trkpt lat="48.065526" lon="7.541012">
        <ele>235.0</ele>
        <time>2020-07-12T10:59:40Z</time>
      </trkpt>
      <trkpt lat="48.06542" lon="7.541113">
        <ele>235.0</ele>
        <time>2020-07-12T10:59:42Z</time>
      </trkpt>
      <trkpt lat="48.06531" lon="7.541228">
        <ele>235.0</ele>
        <time>2020-07-12T10:59:44Z</time>
      </trkpt>
      <trkpt lat="48.065206" lon="7.541332">
        <ele>235.0</ele>
        <time>2020-07-12T10:59:46Z</time>
      </trkpt>
      <trkpt lat="48.065107" lon="7.541445">
        <ele>235.0</ele>
        <time>2020-07-12T10:59:48Z</time>
      </trkpt>
      <trkpt lat="48.064954" lon="7.541609">
        <ele>234.0</ele>
        <time>2020-07-12T10:59:51Z</time>
      </trkpt>
      <trkpt lat="48.064847" lon="7.54172">
        <ele>234.0</ele>
        <time>2020-07-12T10:59:53Z</time>
      </trkpt>
      <trkpt lat="48.064738" lon="7.541846">
        <ele>234.0</ele>
        <time>2020-07-12T10:59:55Z</time>
      </trkpt>
      <trkpt lat="48.064631" lon="7.541968">
        <ele>234.0</ele>
        <time>2020-07-12T10:59:57Z</time>
      </trkpt>
      <trkpt lat="48.064475" lon="7.542145">
        <ele>234.0</ele>
        <time>2020-07-12T11:00:00Z</time>
      </trkpt>
      <trkpt lat="48.064369" lon="7.542255">
        <ele>234.0</ele>
        <time>2020-07-12T11:00:02Z</time>
      </trkpt>
      <trkpt lat="48.064258" lon="7.542366">
        <ele>234.0</ele>
        <time>2020-07-12T11:00:04Z</time>
      </trkpt>
      <trkpt lat="48.064156" lon="7.54247">
        <ele>234.0</ele>
        <time>2020-07-12T11:00:06Z</time>
      </trkpt>
      <trkpt lat="48.064003" lon="7.542625">
        <ele>235.0</ele>
        <time>2020-07-12T11:00:09Z</time>
      </trkpt>
      <trkpt lat="48.063946" lon="7.542676">
        <ele>235.0</ele>
        <time>2020-07-12T11:00:10Z</time>
      </trkpt>
      <trkpt lat="48.063769" lon="7.542813">
        <ele>235.0</ele>
        <time>2020-07-12T11:00:13Z</time>
      </trkpt>
      <trkpt lat="48.063652" lon="7.542932">
        <ele>235.0</ele>
        <time>2020-07-12T11:00:15Z</time>
      </trkpt>
      <trkpt lat="48.063547" lon="7.543044">
        <ele>235.0</ele>
        <time>2020-07-12T11:00:17Z</time>
      </trkpt>
      <trkpt lat="48.063374" lon="7.543242">
        <ele>234.0</ele>
        <time>2020-07-12T11:00:20Z</time>
      </trkpt>
      <trkpt lat="48.063258" lon="7.543364">
        <ele>234.0</ele>
        <time>2020-07-12T11:00:22Z</time>
      </trkpt>
      <trkpt lat="48.063139" lon="7.543477">
        <ele>234.0</ele>
        <time>2020-07-12T11:00:24Z</time>
      </trkpt>
      <trkpt lat="48.063021" lon="7.543583">
        <ele>234.0</ele>
        <time>2020-07-12T11:00:26Z</time>
      </trkpt>
      <trkpt lat="48.06292" lon="7.543685">
        <ele>234.0</ele>
        <time>2020-07-12T11:00:28Z</time>
      </trkpt>
      <trkpt lat="48.062809" lon="7.543799">
        <ele>234.0</ele>
        <time>2020-07-12T11:00:30Z</time>
      </trkpt>
      <trkpt lat="48.062714" lon="7.543913">
        <ele>234.0</ele>
        <time>2020-07-12T11:00:32Z</time>
      </trkpt>
      <trkpt lat="48.062622" lon="7.54403">
        <ele>234.0</ele>
        <time>2020-07-12T11:00:34Z</time>
      </trkpt>
      <trkpt lat="48.062515" lon="7.544142">
        <ele>234.0</ele>
        <time>2020-07-12T11:00:36Z</time>
      </trkpt>
      <trkpt lat="48.062365" lon="7.544307">
        <ele>234.0</ele>
        <time>2020-07-12T11:00:39Z</time>
      </trkpt>
      <trkpt lat="48.062288" lon="7.544393">
        <ele>234.0</ele>
        <time>2020-07-12T11:00:41Z</time>
      </trkpt>
      <trkpt lat="48.062202" lon="7.544479">
        <ele>234.0</ele>
        <time>2020-07-12T11:00:43Z</time>
      </trkpt>
      <trkpt lat="48.062098" lon="7.544579">
        <ele>234.0</ele>
        <time>2020-07-12T11:00:45Z</time>
      </trkpt>
      <trkpt lat="48.062003" lon="7.544678">
        <ele>234.0</ele>
        <time>2020-07-12T11:00:47Z</time>
      </trkpt>
      <trkpt lat="48.061902" lon="7.544787">
        <ele>234.0</ele>
        <time>2020-07-12T11:00:49Z</time>
      </trkpt>
      <trkpt lat="48.061758" lon="7.544946">
        <ele>235.0</ele>
        <time>2020-07-12T11:00:52Z</time>
      </trkpt>
      <trkpt lat="48.061667" lon="7.545066">
        <ele>236.0</ele>
        <time>2020-07-12T11:00:54Z</time>
      </trkpt>
      <trkpt lat="48.061574" lon="7.545183">
        <ele>236.0</ele>
        <time>2020-07-12T11:00:56Z</time>
      </trkpt>
      <trkpt lat="48.061434" lon="7.545379">
        <ele>236.0</ele>
        <time>2020-07-12T11:00:59Z</time>
      </trkpt>
      <trkpt lat="48.061339" lon="7.545501">
        <ele>235.0</ele>
        <time>2020-07-12T11:01:01Z</time>
      </trkpt>
      <trkpt lat="48.061297" lon="7.545554">
        <ele>235.0</ele>
        <time>2020-07-12T11:01:02Z</time>
      </trkpt>
      <trkpt lat="48.061105" lon="7.545752">
        <ele>236.0</ele>
        <time>2020-07-12T11:01:06Z</time>
      </trkpt>
      <trkpt lat="48.061048" lon="7.545794">
        <ele>236.0</ele>
        <time>2020-07-12T11:01:07Z</time>
      </trkpt>
      <trkpt lat="48.060892" lon="7.545923">
        <ele>236.0</ele>
        <time>2020-07-12T11:01:10Z</time>
      </trkpt>
      <trkpt lat="48.060791" lon="7.546027">
        <ele>236.0</ele>
        <time>2020-07-12T11:01:12Z</time>
      </trkpt>
      <trkpt lat="48.060702" lon="7.546144">
        <ele>236.0</ele>
        <time>2020-07-12T11:01:14Z</time>
      </trkpt>
      <trkpt lat="48.060562" lon="7.546288">
        <ele>236.0</ele>
        <time>2020-07-12T11:01:17Z</time>
      </trkpt>
      <trkpt lat="48.060469" lon="7.546369">
        <ele>236.0</ele>
        <time>2020-07-12T11:01:19Z</time>
      </trkpt>
      <trkpt lat="48.060367" lon="7.54647">
        <ele>236.0</ele>
        <time>2020-07-12T11:01:21Z</time>
      </trkpt>
      <trkpt lat="48.06028" lon="7.546577">
        <ele>237.0</ele>
        <time>2020-07-12T11:01:23Z</time>
      </trkpt>
      <trkpt lat="48.060138" lon="7.546747">
        <ele>236.0</ele>
        <time>2020-07-12T11:01:26Z</time>
      </trkpt>
      <trkpt lat="48.060035" lon="7.546848">
        <ele>235.0</ele>
        <time>2020-07-12T11:01:28Z</time>
      </trkpt>
      <trkpt lat="48.059925" lon="7.54696">
        <ele>235.0</ele>
        <time>2020-07-12T11:01:30Z</time>
      </trkpt>
      <trkpt lat="48.059819" lon="7.547072">
        <ele>235.0</ele>
        <time>2020-07-12T11:01:32Z</time>
      </trkpt>
      <trkpt lat="48.059708" lon="7.547165">
        <ele>235.0</ele>
        <time>2020-07-12T11:01:34Z</time>
      </trkpt>
      <trkpt lat="48.059599" lon="7.547259">
        <ele>235.0</ele>
        <time>2020-07-12T11:01:36Z</time>
      </trkpt>
      <trkpt lat="48.059436" lon="7.547401">
        <ele>235.0</ele>
        <time>2020-07-12T11:01:39Z</time>
      </trkpt>
      <trkpt lat="48.059204" lon="7.547557">
        <ele>237.0</ele>
        <time>2020-07-12T11:01:43Z</time>
      </trkpt>
      <trkpt lat="48.059078" lon="7.547616">
        <ele>236.0</ele>
        <time>2020-07-12T11:01:45Z</time>
      </trkpt>
      <trkpt lat="48.058948" lon="7.547674">
        <ele>236.0</ele>
        <time>2020-07-12T11:01:47Z</time>
      </trkpt>
      <trkpt lat="48.058822" lon="7.547727">
        <ele>236.0</ele>
        <time>2020-07-12T11:01:49Z</time>
      </trkpt>
      <trkpt lat="48.05864" lon="7.547807">
        <ele>236.0</ele>
        <time>2020-07-12T11:01:52Z</time>
      </trkpt>
      <trkpt lat="48.058582" lon="7.547831">
        <ele>236.0</ele>
        <time>2020-07-12T11:01:53Z</time>
      </trkpt>
      <trkpt lat="48.058409" lon="7.547902">
        <ele>237.0</ele>
        <time>2020-07-12T11:01:56Z</time>
      </trkpt>
      <trkpt lat="48.058286" lon="7.547941">
        <ele>237.0</ele>
        <time>2020-07-12T11:01:58Z</time>
      </trkpt>
      <trkpt lat="48.058167" lon="7.547992">
        <ele>238.0</ele>
        <time>2020-07-12T11:02:00Z</time>
      </trkpt>
      <trkpt lat="48.058046" lon="7.54804">
        <ele>238.0</ele>
        <time>2020-07-12T11:02:02Z</time>
      </trkpt>
      <trkpt lat="48.05792" lon="7.54809">
        <ele>238.0</ele>
        <time>2020-07-12T11:02:04Z</time>
      </trkpt>
      <trkpt lat="48.057797" lon="7.548142">
        <ele>238.0</ele>
        <time>2020-07-12T11:02:06Z</time>
      </trkpt>
      <trkpt lat="48.057673" lon="7.548197">
        <ele>238.0</ele>
        <time>2020-07-12T11:02:08Z</time>
      </trkpt>
      <trkpt lat="48.057548" lon="7.548254">
        <ele>238.0</ele>
        <time>2020-07-12T11:02:10Z</time>
      </trkpt>
      <trkpt lat="48.057427" lon="7.548316">
        <ele>237.0</ele>
        <time>2020-07-12T11:02:12Z</time>
      </trkpt>
      <trkpt lat="48.057307" lon="7.548365">
        <ele>237.0</ele>
        <time>2020-07-12T11:02:14Z</time>
      </trkpt>
      <trkpt lat="48.057183" lon="7.548421">
        <ele>237.0</ele>
        <time>2020-07-12T11:02:16Z</time>
      </trkpt>
      <trkpt lat="48.057002" lon="7.548516">
        <ele>236.0</ele>
        <time>2020-07-12T11:02:19Z</time>
      </trkpt>
      <trkpt lat="48.056882" lon="7.54856">
        <ele>236.0</ele>
        <time>2020-07-12T11:02:21Z</time>
      </trkpt>
      <trkpt lat="48.056769" lon="7.548614">
        <ele>236.0</ele>
        <time>2020-07-12T11:02:23Z</time>
      </trkpt>
      <trkpt lat="48.056592" lon="7.548684">
        <ele>236.0</ele>
        <time>2020-07-12T11:02:26Z</time>
      </trkpt>
      <trkpt lat="48.056478" lon="7.548743">
        <ele>236.0</ele>
        <time>2020-07-12T11:02:28Z</time>
      </trkpt>
      <trkpt lat="48.056363" lon="7.548791">
        <ele>237.0</ele>
        <time>2020-07-12T11:02:30Z</time>
      </trkpt>
      <trkpt lat="48.056178" lon="7.548864">
        <ele>236.0</ele>
        <time>2020-07-12T11:02:33Z</time>
      </trkpt>
      <trkpt lat="48.056056" lon="7.548917">
        <ele>235.0</ele>
        <time>2020-07-12T11:02:35Z</time>
      </trkpt>
      <trkpt lat="48.05593" lon="7.548974">
        <ele>235.0</ele>
        <time>2020-07-12T11:02:37Z</time>
      </trkpt>
      <trkpt lat="48.055872" lon="7.549006">
        <ele>235.0</ele>
        <time>2020-07-12T11:02:38Z</time>
      </trkpt>
      <trkpt lat="48.05569" lon="7.549094">
        <ele>235.0</ele>
        <time>2020-07-12T11:02:41Z</time>
      </trkpt>
      <trkpt lat="48.055562" lon="7.549151">
        <ele>235.0</ele>
        <time>2020-07-12T11:02:43Z</time>
      </trkpt>
      <trkpt lat="48.055438" lon="7.549216">
        <ele>235.0</ele>
        <time>2020-07-12T11:02:45Z</time>
      </trkpt>
      <trkpt lat="48.055322" lon="7.549267">
        <ele>235.0</ele>
        <time>2020-07-12T11:02:47Z</time>
      </trkpt>
      <trkpt lat="48.055216" lon="7.549301">
        <ele>236.0</ele>
        <time>2020-07-12T11:02:49Z</time>
      </trkpt>
      <trkpt lat="48.055112" lon="7.549344">
        <ele>236.0</ele>
        <time>2020-07-12T11:02:51Z</time>
      </trkpt>
      <trkpt lat="48.055008" lon="7.549376">
        <ele>236.0</ele>
        <time>2020-07-12T11:02:53Z</time>
      </trkpt>
      <trkpt lat="48.054842" lon="7.549428">
        <ele>235.0</ele>
        <time>2020-07-12T11:02:56Z</time>
      </trkpt>
      <trkpt lat="48.05472" lon="7.549481">
        <ele>235.0</ele>
        <time>2020-07-12T11:02:58Z</time>
      </trkpt>
      <trkpt lat="48.054613" lon="7.549534">
        <ele>236.0</ele>
        <time>2020-07-12T11:03:00Z</time>
      </trkpt>
      <trkpt lat="48.054533" lon="7.549581">
        <ele>237.0</ele>
        <time>2020-07-12T11:03:02Z</time>
      </trkpt>
      <trkpt lat="48.054472" lon="7.549624">
        <ele>237.0</ele>
        <time>2020-07-12T11:03:04Z</time>
      </trkpt>
      <trkpt lat="48.054362" lon="7.549647">
        <ele>237.0</ele>
        <time>2020-07-12T11:03:07Z</time>
      </trkpt>
      <trkpt lat="48.054269" lon="7.549667">
        <ele>237.0</ele>
        <time>2020-07-12T11:03:09Z</time>
      </trkpt>
      <trkpt lat="48.054174" lon="7.549706">
        <ele>237.0</ele>
        <time>2020-07-12T11:03:11Z</time>
      </trkpt>
      <trkpt lat="48.054085" lon="7.549746">
        <ele>237.0</ele>
        <time>2020-07-12T11:03:13Z</time>
      </trkpt>
      <trkpt lat="48.053968" lon="7.549793">
        <ele>237.0</ele>
        <time>2020-07-12T11:03:16Z</time>
      </trkpt>
      <trkpt lat="48.053899" lon="7.549827">
        <ele>237.0</ele>
        <time>2020-07-12T11:03:18Z</time>
      </trkpt>
      <trkpt lat="48.053803" lon="7.549885">
        <ele>237.0</ele>
        <time>2020-07-12T11:03:20Z</time>
      </trkpt>
      <trkpt lat="48.053693" lon="7.549958">
        <ele>236.0</ele>
        <time>2020-07-12T11:03:22Z</time>
      </trkpt>
      <trkpt lat="48.053545" lon="7.550024">
        <ele>235.0</ele>
        <time>2020-07-12T11:03:25Z</time>
      </trkpt>
      <trkpt lat="48.05346" lon="7.550058">
        <ele>235.0</ele>
        <time>2020-07-12T11:03:27Z</time>
      </trkpt>
      <trkpt lat="48.053406" lon="7.550092">
        <ele>236.0</ele>
        <time>2020-07-12T11:03:29Z</time>
      </trkpt>
      <trkpt lat="48.053343" lon="7.550092">
        <ele>236.0</ele>
        <time>2020-07-12T11:03:31Z</time>
      </trkpt>
      <trkpt lat="48.053311" lon="7.550102">
        <ele>236.0</ele>
        <time>2020-07-12T11:03:32Z</time>
      </trkpt>
      <trkpt lat="48.053184" lon="7.550151">
        <ele>236.0</ele>
        <time>2020-07-12T11:03:36Z</time>
      </trkpt>
      <trkpt lat="48.053097" lon="7.550196">
        <ele>235.0</ele>
        <time>2020-07-12T11:03:38Z</time>
      </trkpt>
      <trkpt lat="48.053012" lon="7.55025">
        <ele>235.0</ele>
        <time>2020-07-12T11:03:40Z</time>
      </trkpt>
      <trkpt lat="48.052884" lon="7.55033">
        <ele>234.0</ele>
        <time>2020-07-12T11:03:42Z</time>
      </trkpt>
      <trkpt lat="48.052752" lon="7.55043">
        <ele>233.0</ele>
        <time>2020-07-12T11:03:44Z</time>
      </trkpt>
      <trkpt lat="48.052565" lon="7.550534">
        <ele>233.0</ele>
        <time>2020-07-12T11:03:47Z</time>
      </trkpt>
      <trkpt lat="48.052446" lon="7.550594">
        <ele>233.0</ele>
        <time>2020-07-12T11:03:49Z</time>
      </trkpt>
      <trkpt lat="48.052263" lon="7.550675">
        <ele>233.0</ele>
        <time>2020-07-12T11:03:52Z</time>
      </trkpt>
      <trkpt lat="48.052154" lon="7.550721">
        <ele>233.0</ele>
        <time>2020-07-12T11:03:54Z</time>
      </trkpt>
      <trkpt lat="48.052046" lon="7.550772">
        <ele>233.0</ele>
        <time>2020-07-12T11:03:56Z</time>
      </trkpt>
      <trkpt lat="48.051892" lon="7.550842">
        <ele>232.0</ele>
        <time>2020-07-12T11:03:59Z</time>
      </trkpt>
      <trkpt lat="48.051786" lon="7.550888">
        <ele>232.0</ele>
        <time>2020-07-12T11:04:01Z</time>
      </trkpt>
      <trkpt lat="48.051659" lon="7.550942">
        <ele>232.0</ele>
        <time>2020-07-12T11:04:03Z</time>
      </trkpt>
      <trkpt lat="48.051539" lon="7.551006">
        <ele>232.0</ele>
        <time>2020-07-12T11:04:05Z</time>
      </trkpt>
      <trkpt lat="48.051362" lon="7.551135">
        <ele>231.0</ele>
        <time>2020-07-12T11:04:08Z</time>
      </trkpt>
      <trkpt lat="48.051243" lon="7.551205">
        <ele>231.0</ele>
        <time>2020-07-12T11:04:10Z</time>
      </trkpt>
      <trkpt lat="48.051118" lon="7.551259">
        <ele>231.0</ele>
        <time>2020-07-12T11:04:12Z</time>
      </trkpt>
      <trkpt lat="48.050994" lon="7.551298">
        <ele>231.0</ele>
        <time>2020-07-12T11:04:14Z</time>
      </trkpt>
      <trkpt lat="48.050867" lon="7.551354">
        <ele>231.0</ele>
        <time>2020-07-12T11:04:16Z</time>
      </trkpt>
      <trkpt lat="48.050755" lon="7.551431">
        <ele>231.0</ele>
        <time>2020-07-12T11:04:18Z</time>
      </trkpt>
      <trkpt lat="48.050644" lon="7.551534">
        <ele>231.0</ele>
        <time>2020-07-12T11:04:20Z</time>
      </trkpt>
      <trkpt lat="48.050486" lon="7.551679">
        <ele>231.0</ele>
        <time>2020-07-12T11:04:23Z</time>
      </trkpt>
      <trkpt lat="48.05038" lon="7.551785">
        <ele>231.0</ele>
        <time>2020-07-12T11:04:25Z</time>
      </trkpt>
      <trkpt lat="48.050274" lon="7.551885">
        <ele>231.0</ele>
        <time>2020-07-12T11:04:27Z</time>
      </trkpt>
      <trkpt lat="48.050268" lon="7.551887">
        <ele>231.0</ele>
        <time>2020-07-12T11:04:29Z</time>
      </trkpt>
      <trkpt lat="48.050184" lon="7.551978">
        <ele>230.0</ele>
        <time>2020-07-12T11:04:31Z</time>
      </trkpt>
      <trkpt lat="48.050042" lon="7.552134">
        <ele>231.0</ele>
        <time>2020-07-12T11:04:33Z</time>
      </trkpt>
      <trkpt lat="48.049913" lon="7.552285">
        <ele>231.0</ele>
        <time>2020-07-12T11:04:35Z</time>
      </trkpt>
      <trkpt lat="48.049857" lon="7.552349">
        <ele>231.0</ele>
        <time>2020-07-12T11:04:36Z</time>
      </trkpt>
      <trkpt lat="48.049715" lon="7.552553">
        <ele>232.0</ele>
        <time>2020-07-12T11:04:39Z</time>
      </trkpt>
      <trkpt lat="48.049598" lon="7.552762">
        <ele>232.0</ele>
        <time>2020-07-12T11:04:42Z</time>
      </trkpt>
      <trkpt lat="48.04952" lon="7.552898">
        <ele>232.0</ele>
        <time>2020-07-12T11:04:44Z</time>
      </trkpt>
      <trkpt lat="48.049431" lon="7.55303">
        <ele>232.0</ele>
        <time>2020-07-12T11:04:46Z</time>
      </trkpt>
      <trkpt lat="48.049349" lon="7.553171">
        <ele>232.0</ele>
        <time>2020-07-12T11:04:48Z</time>
      </trkpt>
      <trkpt lat="48.049252" lon="7.553389">
        <ele>233.0</ele>
        <time>2020-07-12T11:04:51Z</time>
      </trkpt>
      <trkpt lat="48.049186" lon="7.553547">
        <ele>233.0</ele>
        <time>2020-07-12T11:04:53Z</time>
      </trkpt>
      <trkpt lat="48.049117" lon="7.553705">
        <ele>233.0</ele>
        <time>2020-07-12T11:04:55Z</time>
      </trkpt>
      <trkpt lat="48.049014" lon="7.553926">
        <ele>234.0</ele>
        <time>2020-07-12T11:04:58Z</time>
      </trkpt>
      <trkpt lat="48.048925" lon="7.554059">
        <ele>233.0</ele>
        <time>2020-07-12T11:05:00Z</time>
      </trkpt>
      <trkpt lat="48.048848" lon="7.554204">
        <ele>233.0</ele>
        <time>2020-07-12T11:05:02Z</time>
      </trkpt>
      <trkpt lat="48.048777" lon="7.554354">
        <ele>233.0</ele>
        <time>2020-07-12T11:05:04Z</time>
      </trkpt>
      <trkpt lat="48.048709" lon="7.554502">
        <ele>233.0</ele>
        <time>2020-07-12T11:05:06Z</time>
      </trkpt>
      <trkpt lat="48.048603" lon="7.554727">
        <ele>233.0</ele>
        <time>2020-07-12T11:05:09Z</time>
      </trkpt>
      <trkpt lat="48.048525" lon="7.55487">
        <ele>233.0</ele>
        <time>2020-07-12T11:05:11Z</time>
      </trkpt>
      <trkpt lat="48.048491" lon="7.554935">
        <ele>232.0</ele>
        <time>2020-07-12T11:05:12Z</time>
      </trkpt>
      <trkpt lat="48.048374" lon="7.555096">
        <ele>232.0</ele>
        <time>2020-07-12T11:05:15Z</time>
      </trkpt>
      <trkpt lat="48.048344" lon="7.555144">
        <ele>232.0</ele>
        <time>2020-07-12T11:05:16Z</time>
      </trkpt>
      <trkpt lat="48.048294" lon="7.55525">
        <ele>232.0</ele>
        <time>2020-07-12T11:05:19Z</time>
      </trkpt>
      <trkpt lat="48.048251" lon="7.555327">
        <ele>232.0</ele>
        <time>2020-07-12T11:05:21Z</time>
      </trkpt>
      <trkpt lat="48.048198" lon="7.555391">
        <ele>232.0</ele>
        <time>2020-07-12T11:05:23Z</time>
      </trkpt>
      <trkpt lat="48.048091" lon="7.555495">
        <ele>231.0</ele>
        <time>2020-07-12T11:05:26Z</time>
      </trkpt>
      <trkpt lat="48.048029" lon="7.555542">
        <ele>232.0</ele>
        <time>2020-07-12T11:05:28Z</time>
      </trkpt>
      <trkpt lat="48.047999" lon="7.555577">
        <ele>232.0</ele>
        <time>2020-07-12T11:05:30Z</time>
      </trkpt>
      <trkpt lat="48.047965" lon="7.555579">
        <ele>232.0</ele>
        <time>2020-07-12T11:05:32Z</time>
      </trkpt>
      <trkpt lat="48.047933" lon="7.555586">
        <ele>231.0</ele>
        <time>2020-07-12T11:05:35Z</time>
      </trkpt>
      <trkpt lat="48.047936" lon="7.555595">
        <ele>230.0</ele>
        <time>2020-07-12T11:05:37Z</time>
      </trkpt>
      <trkpt lat="48.047935" lon="7.555589">
        <ele>230.0</ele>
        <time>2020-07-12T11:05:38Z</time>
      </trkpt>
      <trkpt lat="48.047955" lon="7.555573">
        <ele>230.0</ele>
        <time>2020-07-12T11:05:41Z</time>
      </trkpt>
      <trkpt lat="48.047978" lon="7.55556">
        <ele>230.0</ele>
        <time>2020-07-12T11:05:43Z</time>
      </trkpt>
      <trkpt lat="48.048031" lon="7.555534">
        <ele>231.0</ele>
        <time>2020-07-12T11:05:46Z</time>
      </trkpt>
      <trkpt lat="48.048081" lon="7.555502">
        <ele>230.0</ele>
        <time>2020-07-12T11:05:48Z</time>
      </trkpt>
      <trkpt lat="48.048133" lon="7.555468">
        <ele>231.0</ele>
        <time>2020-07-12T11:05:50Z</time>
      </trkpt>
      <trkpt lat="48.048182" lon="7.55543">
        <ele>231.0</ele>
        <time>2020-07-12T11:05:52Z</time>
      </trkpt>
      <trkpt lat="48.04822" lon="7.555386">
        <ele>231.0</ele>
        <time>2020-07-12T11:05:54Z</time>
      </trkpt>
      <trkpt lat="48.048267" lon="7.555327">
        <ele>231.0</ele>
        <time>2020-07-12T11:05:56Z</time>
      </trkpt>
      <trkpt lat="48.0483" lon="7.555273">
        <ele>231.0</ele>
        <time>2020-07-12T11:05:58Z</time>
      </trkpt>
      <trkpt lat="48.048319" lon="7.555243">
        <ele>231.0</ele>
        <time>2020-07-12T11:06:00Z</time>
      </trkpt>
      <trkpt lat="48.048305" lon="7.555255">
        <ele>231.0</ele>
        <time>2020-07-12T11:06:02Z</time>
      </trkpt>
      <trkpt lat="48.048269" lon="7.555328">
        <ele>231.0</ele>
        <time>2020-07-12T11:06:05Z</time>
      </trkpt>
      <trkpt lat="48.048231" lon="7.555387">
        <ele>232.0</ele>
        <time>2020-07-12T11:06:07Z</time>
      </trkpt>
      <trkpt lat="48.048187" lon="7.555441">
        <ele>232.0</ele>
        <time>2020-07-12T11:06:09Z</time>
      </trkpt>
      <trkpt lat="48.048142" lon="7.555492">
        <ele>233.0</ele>
        <time>2020-07-12T11:06:11Z</time>
      </trkpt>
      <trkpt lat="48.048113" lon="7.555521">
        <ele>233.0</ele>
        <time>2020-07-12T11:06:12Z</time>
      </trkpt>
      <trkpt lat="48.047969" lon="7.55558">
        <ele>232.0</ele>
        <time>2020-07-12T11:06:15Z</time>
      </trkpt>
      <trkpt lat="48.04791" lon="7.55559">
        <ele>232.0</ele>
        <time>2020-07-12T11:06:16Z</time>
      </trkpt>
      <trkpt lat="48.047665" lon="7.555627">
        <ele>232.0</ele>
        <time>2020-07-12T11:06:20Z</time>
      </trkpt>
      <trkpt lat="48.04755" lon="7.555634">
        <ele>232.0</ele>
        <time>2020-07-12T11:06:22Z</time>
      </trkpt>
      <trkpt lat="48.047438" lon="7.55564">
        <ele>232.0</ele>
        <time>2020-07-12T11:06:24Z</time>
      </trkpt>
      <trkpt lat="48.047282" lon="7.555633">
        <ele>231.0</ele>
        <time>2020-07-12T11:06:27Z</time>
      </trkpt>
      <trkpt lat="48.047183" lon="7.555633">
        <ele>231.0</ele>
        <time>2020-07-12T11:06:29Z</time>
      </trkpt>
      <trkpt lat="48.047081" lon="7.555637">
        <ele>231.0</ele>
        <time>2020-07-12T11:06:31Z</time>
      </trkpt>
      <trkpt lat="48.046982" lon="7.555635">
        <ele>231.0</ele>
        <time>2020-07-12T11:06:33Z</time>
      </trkpt>
      <trkpt lat="48.046868" lon="7.555649">
        <ele>231.0</ele>
        <time>2020-07-12T11:06:36Z</time>
      </trkpt>
      <trkpt lat="48.046847" lon="7.555618">
        <ele>231.0</ele>
        <time>2020-07-12T11:06:38Z</time>
      </trkpt>
      <trkpt lat="48.046849" lon="7.55559">
        <ele>231.0</ele>
        <time>2020-07-12T11:06:39Z</time>
      </trkpt>
      <trkpt lat="48.046858" lon="7.555497">
        <ele>231.0</ele>
        <time>2020-07-12T11:06:42Z</time>
      </trkpt>
      <trkpt lat="48.046857" lon="7.555434">
        <ele>231.0</ele>
        <time>2020-07-12T11:06:44Z</time>
      </trkpt>
      <trkpt lat="48.046865" lon="7.555362">
        <ele>232.0</ele>
        <time>2020-07-12T11:06:46Z</time>
      </trkpt>
      <trkpt lat="48.046863" lon="7.555292">
        <ele>232.0</ele>
        <time>2020-07-12T11:06:48Z</time>
      </trkpt>
      <trkpt lat="48.046842" lon="7.555126">
        <ele>232.0</ele>
        <time>2020-07-12T11:06:51Z</time>
      </trkpt>
      <trkpt lat="48.04681" lon="7.554939">
        <ele>232.0</ele>
        <time>2020-07-12T11:06:54Z</time>
      </trkpt>
      <trkpt lat="48.046795" lon="7.554817">
        <ele>231.0</ele>
        <time>2020-07-12T11:06:56Z</time>
      </trkpt>
      <trkpt lat="48.046787" lon="7.554753">
        <ele>231.0</ele>
        <time>2020-07-12T11:06:57Z</time>
      </trkpt>
      <trkpt lat="48.046751" lon="7.554541">
        <ele>232.0</ele>
        <time>2020-07-12T11:07:00Z</time>
      </trkpt>
      <trkpt lat="48.04671" lon="7.55434">
        <ele>232.0</ele>
        <time>2020-07-12T11:07:03Z</time>
      </trkpt>
      <trkpt lat="48.046627" lon="7.554248">
        <ele>232.0</ele>
        <time>2020-07-12T11:07:05Z</time>
      </trkpt>
      <trkpt lat="48.046514" lon="7.554278">
        <ele>232.0</ele>
        <time>2020-07-12T11:07:07Z</time>
      </trkpt>
      <trkpt lat="48.046348" lon="7.554336">
        <ele>232.0</ele>
        <time>2020-07-12T11:07:10Z</time>
      </trkpt>
      <trkpt lat="48.046249" lon="7.554381">
        <ele>232.0</ele>
        <time>2020-07-12T11:07:12Z</time>
      </trkpt>
      <trkpt lat="48.046143" lon="7.554436">
        <ele>233.0</ele>
        <time>2020-07-12T11:07:14Z</time>
      </trkpt>
      <trkpt lat="48.045973" lon="7.554484">
        <ele>234.0</ele>
        <time>2020-07-12T11:07:17Z</time>
      </trkpt>
      <trkpt lat="48.045859" lon="7.554506">
        <ele>234.0</ele>
        <time>2020-07-12T11:07:19Z</time>
      </trkpt>
      <trkpt lat="48.045748" lon="7.554518">
        <ele>234.0</ele>
        <time>2020-07-12T11:07:21Z</time>
      </trkpt>
      <trkpt lat="48.045631" lon="7.554523">
        <ele>234.0</ele>
        <time>2020-07-12T11:07:23Z</time>
      </trkpt>
      <trkpt lat="48.045516" lon="7.554526">
        <ele>235.0</ele>
        <time>2020-07-12T11:07:25Z</time>
      </trkpt>
      <trkpt lat="48.0454" lon="7.554535">
        <ele>236.0</ele>
        <time>2020-07-12T11:07:27Z</time>
      </trkpt>
      <trkpt lat="48.045282" lon="7.554541">
        <ele>237.0</ele>
        <time>2020-07-12T11:07:29Z</time>
      </trkpt>
      <trkpt lat="48.045166" lon="7.554551">
        <ele>237.0</ele>
        <time>2020-07-12T11:07:31Z</time>
      </trkpt>
      <trkpt lat="48.045047" lon="7.554543">
        <ele>236.0</ele>
        <time>2020-07-12T11:07:33Z</time>
      </trkpt>
      <trkpt lat="48.044924" lon="7.554534">
        <ele>236.0</ele>
        <time>2020-07-12T11:07:35Z</time>
      </trkpt>
      <trkpt lat="48.04475" lon="7.554505">
        <ele>237.0</ele>
        <time>2020-07-12T11:07:38Z</time>
      </trkpt>
      <trkpt lat="48.044631" lon="7.554478">
        <ele>237.0</ele>
        <time>2020-07-12T11:07:40Z</time>
      </trkpt>
      <trkpt lat="48.044517" lon="7.554435">
        <ele>238.0</ele>
        <time>2020-07-12T11:07:42Z</time>
      </trkpt>
      <trkpt lat="48.0444" lon="7.55437">
        <ele>238.0</ele>
        <time>2020-07-12T11:07:44Z</time>
      </trkpt>
      <trkpt lat="48.044292" lon="7.554293">
        <ele>238.0</ele>
        <time>2020-07-12T11:07:46Z</time>
      </trkpt>
      <trkpt lat="48.044133" lon="7.554167">
        <ele>238.0</ele>
        <time>2020-07-12T11:07:49Z</time>
      </trkpt>
      <trkpt lat="48.04402" lon="7.554084">
        <ele>239.0</ele>
        <time>2020-07-12T11:07:51Z</time>
      </trkpt>
      <trkpt lat="48.043913" lon="7.553989">
        <ele>238.0</ele>
        <time>2020-07-12T11:07:53Z</time>
      </trkpt>
      <trkpt lat="48.043809" lon="7.553855">
        <ele>238.0</ele>
        <time>2020-07-12T11:07:55Z</time>
      </trkpt>
      <trkpt lat="48.043666" lon="7.553629">
        <ele>237.0</ele>
        <time>2020-07-12T11:07:58Z</time>
      </trkpt>
      <trkpt lat="48.043577" lon="7.553483">
        <ele>236.0</ele>
        <time>2020-07-12T11:08:00Z</time>
      </trkpt>
      <trkpt lat="48.04348" lon="7.553341">
        <ele>236.0</ele>
        <time>2020-07-12T11:08:02Z</time>
      </trkpt>
      <trkpt lat="48.043355" lon="7.553118">
        <ele>237.0</ele>
        <time>2020-07-12T11:08:05Z</time>
      </trkpt>
      <trkpt lat="48.043278" lon="7.55297">
        <ele>237.0</ele>
        <time>2020-07-12T11:08:07Z</time>
      </trkpt>
      <trkpt lat="48.043206" lon="7.55282">
        <ele>237.0</ele>
        <time>2020-07-12T11:08:09Z</time>
      </trkpt>
      <trkpt lat="48.043138" lon="7.552679">
        <ele>237.0</ele>
        <time>2020-07-12T11:08:11Z</time>
      </trkpt>
      <trkpt lat="48.043033" lon="7.55245">
        <ele>237.0</ele>
        <time>2020-07-12T11:08:14Z</time>
      </trkpt>
      <trkpt lat="48.042963" lon="7.5523">
        <ele>237.0</ele>
        <time>2020-07-12T11:08:16Z</time>
      </trkpt>
      <trkpt lat="48.042893" lon="7.552146">
        <ele>237.0</ele>
        <time>2020-07-12T11:08:18Z</time>
      </trkpt>
      <trkpt lat="48.042831" lon="7.551981">
        <ele>237.0</ele>
        <time>2020-07-12T11:08:20Z</time>
      </trkpt>
      <trkpt lat="48.042796" lon="7.551812">
        <ele>237.0</ele>
        <time>2020-07-12T11:08:22Z</time>
      </trkpt>
      <trkpt lat="48.042746" lon="7.551548">
        <ele>236.0</ele>
        <time>2020-07-12T11:08:25Z</time>
      </trkpt>
      <trkpt lat="48.042725" lon="7.551371">
        <ele>236.0</ele>
        <time>2020-07-12T11:08:27Z</time>
      </trkpt>
      <trkpt lat="48.04271" lon="7.551194">
        <ele>236.0</ele>
        <time>2020-07-12T11:08:29Z</time>
      </trkpt>
      <trkpt lat="48.042683" lon="7.551018">
        <ele>236.0</ele>
        <time>2020-07-12T11:08:31Z</time>
      </trkpt>
      <trkpt lat="48.042639" lon="7.550856">
        <ele>236.0</ele>
        <time>2020-07-12T11:08:33Z</time>
      </trkpt>
      <trkpt lat="48.042594" lon="7.550714">
        <ele>236.0</ele>
        <time>2020-07-12T11:08:35Z</time>
      </trkpt>
      <trkpt lat="48.042557" lon="7.550581">
        <ele>236.0</ele>
        <time>2020-07-12T11:08:37Z</time>
      </trkpt>
      <trkpt lat="48.04253" lon="7.550434">
        <ele>236.0</ele>
        <time>2020-07-12T11:08:39Z</time>
      </trkpt>
      <trkpt lat="48.042474" lon="7.550218">
        <ele>236.0</ele>
        <time>2020-07-12T11:08:42Z</time>
      </trkpt>
      <trkpt lat="48.042402" lon="7.550083">
        <ele>236.0</ele>
        <time>2020-07-12T11:08:44Z</time>
      </trkpt>
      <trkpt lat="48.042328" lon="7.549953">
        <ele>236.0</ele>
        <time>2020-07-12T11:08:46Z</time>
      </trkpt>
      <trkpt lat="48.042214" lon="7.549756">
        <ele>236.0</ele>
        <time>2020-07-12T11:08:49Z</time>
      </trkpt>
      <trkpt lat="48.042137" lon="7.549634">
        <ele>237.0</ele>
        <time>2020-07-12T11:08:51Z</time>
      </trkpt>
      <trkpt lat="48.042053" lon="7.54952">
        <ele>237.0</ele>
        <time>2020-07-12T11:08:53Z</time>
      </trkpt>
      <trkpt lat="48.041931" lon="7.549386">
        <ele>235.0</ele>
        <time>2020-07-12T11:08:56Z</time>
      </trkpt>
      <trkpt lat="48.041896" lon="7.549254">
        <ele>236.0</ele>
        <time>2020-07-12T11:08:58Z</time>
      </trkpt>
      <trkpt lat="48.041878" lon="7.549195">
        <ele>236.0</ele>
        <time>2020-07-12T11:08:59Z</time>
      </trkpt>
      <trkpt lat="48.041765" lon="7.54915">
        <ele>236.0</ele>
        <time>2020-07-12T11:09:02Z</time>
      </trkpt>
      <trkpt lat="48.041723" lon="7.549126">
        <ele>236.0</ele>
        <time>2020-07-12T11:09:04Z</time>
      </trkpt>
      <trkpt lat="48.04171" lon="7.549063">
        <ele>236.0</ele>
        <time>2020-07-12T11:09:06Z</time>
      </trkpt>
      <trkpt lat="48.041708" lon="7.548972">
        <ele>236.0</ele>
        <time>2020-07-12T11:09:09Z</time>
      </trkpt>
      <trkpt lat="48.041705" lon="7.548908">
        <ele>236.0</ele>
        <time>2020-07-12T11:09:11Z</time>
      </trkpt>
      <trkpt lat="48.041702" lon="7.548846">
        <ele>236.0</ele>
        <time>2020-07-12T11:09:13Z</time>
      </trkpt>
      <trkpt lat="48.041698" lon="7.548788">
        <ele>236.0</ele>
        <time>2020-07-12T11:09:15Z</time>
      </trkpt>
      <trkpt lat="48.041695" lon="7.548755">
        <ele>236.0</ele>
        <time>2020-07-12T11:09:16Z</time>
      </trkpt>
      <trkpt lat="48.041686" lon="7.548636">
        <ele>236.0</ele>
        <time>2020-07-12T11:09:19Z</time>
      </trkpt>
      <trkpt lat="48.041684" lon="7.548544">
        <ele>237.0</ele>
        <time>2020-07-12T11:09:21Z</time>
      </trkpt>
      <trkpt lat="48.041682" lon="7.548492">
        <ele>236.0</ele>
        <time>2020-07-12T11:09:22Z</time>
      </trkpt>
      <trkpt lat="48.041685" lon="7.548253">
        <ele>237.0</ele>
        <time>2020-07-12T11:09:26Z</time>
      </trkpt>
      <trkpt lat="48.041683" lon="7.548187">
        <ele>237.0</ele>
        <time>2020-07-12T11:09:27Z</time>
      </trkpt>
      <trkpt lat="48.041663" lon="7.547984">
        <ele>237.0</ele>
        <time>2020-07-12T11:09:30Z</time>
      </trkpt>
      <trkpt lat="48.041645" lon="7.547795">
        <ele>237.0</ele>
        <time>2020-07-12T11:09:33Z</time>
      </trkpt>
      <trkpt lat="48.041628" lon="7.547684">
        <ele>237.0</ele>
        <time>2020-07-12T11:09:35Z</time>
      </trkpt>
      <trkpt lat="48.041594" lon="7.547595">
        <ele>238.0</ele>
        <time>2020-07-12T11:09:37Z</time>
      </trkpt>
      <trkpt lat="48.041471" lon="7.547536">
        <ele>238.0</ele>
        <time>2020-07-12T11:09:40Z</time>
      </trkpt>
      <trkpt lat="48.041364" lon="7.547539">
        <ele>239.0</ele>
        <time>2020-07-12T11:09:42Z</time>
      </trkpt>
      <trkpt lat="48.041264" lon="7.547533">
        <ele>239.0</ele>
        <time>2020-07-12T11:09:44Z</time>
      </trkpt>
      <trkpt lat="48.041173" lon="7.547537">
        <ele>239.0</ele>
        <time>2020-07-12T11:09:46Z</time>
      </trkpt>
      <trkpt lat="48.041023" lon="7.547538">
        <ele>239.0</ele>
        <time>2020-07-12T11:09:49Z</time>
      </trkpt>
      <trkpt lat="48.040915" lon="7.547548">
        <ele>238.0</ele>
        <time>2020-07-12T11:09:51Z</time>
      </trkpt>
      <trkpt lat="48.040817" lon="7.547566">
        <ele>238.0</ele>
        <time>2020-07-12T11:09:53Z</time>
      </trkpt>
      <trkpt lat="48.040767" lon="7.54757">
        <ele>237.0</ele>
        <time>2020-07-12T11:09:54Z</time>
      </trkpt>
      <trkpt lat="48.040646" lon="7.547572">
        <ele>237.0</ele>
        <time>2020-07-12T11:09:57Z</time>
      </trkpt>
      <trkpt lat="48.040569" lon="7.54758">
        <ele>238.0</ele>
        <time>2020-07-12T11:09:59Z</time>
      </trkpt>
      <trkpt lat="48.040487" lon="7.547575">
        <ele>238.0</ele>
        <time>2020-07-12T11:10:01Z</time>
      </trkpt>
      <trkpt lat="48.040416" lon="7.547533">
        <ele>238.0</ele>
        <time>2020-07-12T11:10:03Z</time>
      </trkpt>
      <trkpt lat="48.04036" lon="7.547353">
        <ele>237.0</ele>
        <time>2020-07-12T11:10:06Z</time>
      </trkpt>
      <trkpt lat="48.040349" lon="7.54723">
        <ele>237.0</ele>
        <time>2020-07-12T11:10:08Z</time>
      </trkpt>
      <trkpt lat="48.04033" lon="7.547106">
        <ele>237.0</ele>
        <time>2020-07-12T11:10:10Z</time>
      </trkpt>
      <trkpt lat="48.040321" lon="7.547043">
        <ele>238.0</ele>
        <time>2020-07-12T11:10:11Z</time>
      </trkpt>
      <trkpt lat="48.040322" lon="7.54678">
        <ele>238.0</ele>
        <time>2020-07-12T11:10:15Z</time>
      </trkpt>
      <trkpt lat="48.040326" lon="7.546676">
        <ele>237.0</ele>
        <time>2020-07-12T11:10:17Z</time>
      </trkpt>
      <trkpt lat="48.04034" lon="7.546636">
        <ele>237.0</ele>
        <time>2020-07-12T11:10:19Z</time>
      </trkpt>
      <trkpt lat="48.040344" lon="7.546635">
        <ele>237.0</ele>
        <time>2020-07-12T11:10:21Z</time>
      </trkpt>
      <trkpt lat="48.040346" lon="7.546638">
        <ele>237.0</ele>
        <time>2020-07-12T11:10:23Z</time>
      </trkpt>
      <trkpt lat="48.040346" lon="7.546638">
        <ele>237.0</ele>
        <time>2020-07-12T11:10:25Z</time>
      </trkpt>
      <trkpt lat="48.040346" lon="7.546638">
        <ele>237.0</ele>
        <time>2020-07-12T11:10:27Z</time>
      </trkpt>
      <trkpt lat="48.040346" lon="7.546638">
        <ele>237.0</ele>
        <time>2020-07-12T11:10:49Z</time>
      </trkpt>
      <trkpt lat="48.040346" lon="7.546638">
        <ele>237.0</ele>
        <time>2020-07-12T11:10:51Z</time>
      </trkpt>
      <trkpt lat="48.040346" lon="7.546638">
        <ele>237.0</ele>
        <time>2020-07-12T11:10:54Z</time>
      </trkpt>
      <trkpt lat="48.040346" lon="7.546638">
        <ele>237.0</ele>
        <time>2020-07-12T11:10:56Z</time>
      </trkpt>
      <trkpt lat="48.040346" lon="7.546638">
        <ele>237.0</ele>
        <time>2020-07-12T11:10:59Z</time>
      </trkpt>
      <trkpt lat="48.040346" lon="7.546638">
        <ele>237.0</ele>
        <time>2020-07-12T11:11:02Z</time>
      </trkpt>
      <trkpt lat="48.040346" lon="7.546638">
        <ele>237.0</ele>
        <time>2020-07-12T11:11:03Z</time>
      </trkpt>
      <trkpt lat="48.040346" lon="7.546638">
        <ele>237.0</ele>
        <time>2020-07-12T11:11:07Z</time>
      </trkpt>
      <trkpt lat="48.040346" lon="7.546638">
        <ele>237.0</ele>
        <time>2020-07-12T11:11:09Z</time>
      </trkpt>
      <trkpt lat="48.040348" lon="7.546636">
        <ele>237.0</ele>
        <time>2020-07-12T11:11:11Z</time>
      </trkpt>
      <trkpt lat="48.040365" lon="7.546614">
        <ele>237.0</ele>
        <time>2020-07-12T11:11:13Z</time>
      </trkpt>
      <trkpt lat="48.040377" lon="7.546568">
        <ele>237.0</ele>
        <time>2020-07-12T11:11:15Z</time>
      </trkpt>
      <trkpt lat="48.040383" lon="7.546497">
        <ele>237.0</ele>
        <time>2020-07-12T11:11:17Z</time>
      </trkpt>
      <trkpt lat="48.040374" lon="7.546412">
        <ele>237.0</ele>
        <time>2020-07-12T11:11:19Z</time>
      </trkpt>
      <trkpt lat="48.040378" lon="7.546326">
        <ele>236.0</ele>
        <time>2020-07-12T11:11:21Z</time>
      </trkpt>
      <trkpt lat="48.040392" lon="7.546225">
        <ele>236.0</ele>
        <time>2020-07-12T11:11:23Z</time>
      </trkpt>
      <trkpt lat="48.040417" lon="7.546154">
        <ele>236.0</ele>
        <time>2020-07-12T11:11:25Z</time>
      </trkpt>
      <trkpt lat="48.04045" lon="7.54609">
        <ele>236.0</ele>
        <time>2020-07-12T11:11:27Z</time>
      </trkpt>
      <trkpt lat="48.04046" lon="7.545952">
        <ele>235.0</ele>
        <time>2020-07-12T11:11:30Z</time>
      </trkpt>
      <trkpt lat="48.04047" lon="7.545861">
        <ele>235.0</ele>
        <time>2020-07-12T11:11:32Z</time>
      </trkpt>
      <trkpt lat="48.040482" lon="7.545768">
        <ele>235.0</ele>
        <time>2020-07-12T11:11:34Z</time>
      </trkpt>
      <trkpt lat="48.040499" lon="7.545682">
        <ele>235.0</ele>
        <time>2020-07-12T11:11:36Z</time>
      </trkpt>
      <trkpt lat="48.040502" lon="7.545575">
        <ele>234.0</ele>
        <time>2020-07-12T11:11:39Z</time>
      </trkpt>
      <trkpt lat="48.040507" lon="7.545507">
        <ele>234.0</ele>
        <time>2020-07-12T11:11:41Z</time>
      </trkpt>
      <trkpt lat="48.040512" lon="7.545443">
        <ele>235.0</ele>
        <time>2020-07-12T11:11:43Z</time>
      </trkpt>
      <trkpt lat="48.040514" lon="7.545382">
        <ele>235.0</ele>
        <time>2020-07-12T11:11:45Z</time>
      </trkpt>
      <trkpt lat="48.040526" lon="7.545273">
        <ele>236.0</ele>
        <time>2020-07-12T11:11:48Z</time>
      </trkpt>
      <trkpt lat="48.040524" lon="7.545223">
        <ele>237.0</ele>
        <time>2020-07-12T11:11:50Z</time>
      </trkpt>
      <trkpt lat="48.040517" lon="7.545182">
        <ele>237.0</ele>
        <time>2020-07-12T11:11:52Z</time>
      </trkpt>
      <trkpt lat="48.040505" lon="7.545139">
        <ele>237.0</ele>
        <time>2020-07-12T11:11:54Z</time>
      </trkpt>
      <trkpt lat="48.040499" lon="7.545064">
        <ele>237.0</ele>
        <time>2020-07-12T11:11:56Z</time>
      </trkpt>
      <trkpt lat="48.040515" lon="7.544943">
        <ele>238.0</ele>
        <time>2020-07-12T11:11:59Z</time>
      </trkpt>
      <trkpt lat="48.040531" lon="7.544849">
        <ele>238.0</ele>
        <time>2020-07-12T11:12:01Z</time>
      </trkpt>
      <trkpt lat="48.040546" lon="7.544751">
        <ele>238.0</ele>
        <time>2020-07-12T11:12:03Z</time>
      </trkpt>
      <trkpt lat="48.040562" lon="7.544644">
        <ele>238.0</ele>
        <time>2020-07-12T11:12:05Z</time>
      </trkpt>
      <trkpt lat="48.04056" lon="7.544464">
        <ele>239.0</ele>
        <time>2020-07-12T11:12:08Z</time>
      </trkpt>
      <trkpt lat="48.040535" lon="7.54436">
        <ele>239.0</ele>
        <time>2020-07-12T11:12:10Z</time>
      </trkpt>
      <trkpt lat="48.040495" lon="7.544311">
        <ele>238.0</ele>
        <time>2020-07-12T11:12:12Z</time>
      </trkpt>
      <trkpt lat="48.040461" lon="7.544291">
        <ele>238.0</ele>
        <time>2020-07-12T11:12:14Z</time>
      </trkpt>
      <trkpt lat="48.040448" lon="7.54426">
        <ele>238.0</ele>
        <time>2020-07-12T11:12:16Z</time>
      </trkpt>
      <trkpt lat="48.040453" lon="7.54425">
        <ele>237.0</ele>
        <time>2020-07-12T11:12:18Z</time>
      </trkpt>
      <trkpt lat="48.040452" lon="7.544251">
        <ele>238.0</ele>
        <time>2020-07-12T11:12:20Z</time>
      </trkpt>
      <trkpt lat="48.040452" lon="7.544253">
        <ele>238.0</ele>
        <time>2020-07-12T11:12:22Z</time>
      </trkpt>
      <trkpt lat="48.040452" lon="7.544253">
        <ele>238.0</ele>
        <time>2020-07-12T11:12:25Z</time>
      </trkpt>
      <trkpt lat="48.040482" lon="7.544198">
        <ele>239.0</ele>
        <time>2020-07-12T11:19:40Z</time>
      </trkpt>
      <trkpt lat="48.040441" lon="7.544202">
        <ele>235.0</ele>
        <time>2020-07-12T11:19:42Z</time>
      </trkpt>
      <trkpt lat="48.040441" lon="7.544204">
        <ele>235.0</ele>
        <time>2020-07-12T11:19:44Z</time>
      </trkpt>
      <trkpt lat="48.040442" lon="7.544212">
        <ele>233.0</ele>
        <time>2020-07-12T11:19:46Z</time>
      </trkpt>
      <trkpt lat="48.040442" lon="7.544212">
        <ele>233.0</ele>
        <time>2020-07-12T11:19:48Z</time>
      </trkpt>
      <trkpt lat="48.040442" lon="7.544212">
        <ele>233.0</ele>
        <time>2020-07-12T11:19:50Z</time>
      </trkpt>
      <trkpt lat="48.040432" lon="7.54421">
        <ele>234.0</ele>
        <time>2020-07-12T11:19:52Z</time>
      </trkpt>
      <trkpt lat="48.040438" lon="7.544219">
        <ele>234.0</ele>
        <time>2020-07-12T11:19:54Z</time>
      </trkpt>
      <trkpt lat="48.040438" lon="7.544219">
        <ele>234.0</ele>
        <time>2020-07-12T11:19:55Z</time>
      </trkpt>
      <trkpt lat="48.040438" lon="7.544219">
        <ele>234.0</ele>
        <time>2020-07-12T11:19:58Z</time>
      </trkpt>
      <trkpt lat="48.040438" lon="7.544219">
        <ele>234.0</ele>
        <time>2020-07-12T11:20:00Z</time>
      </trkpt>
      <trkpt lat="48.040434" lon="7.544194">
        <ele>233.0</ele>
        <time>2020-07-12T11:20:02Z</time>
      </trkpt>
      <trkpt lat="48.040455" lon="7.544141">
        <ele>233.0</ele>
        <time>2020-07-12T11:20:04Z</time>
      </trkpt>
      <trkpt lat="48.040478" lon="7.544123">
        <ele>234.0</ele>
        <time>2020-07-12T11:20:05Z</time>
      </trkpt>
      <trkpt lat="48.040542" lon="7.544095">
        <ele>236.0</ele>
        <time>2020-07-12T11:20:08Z</time>
      </trkpt>
      <trkpt lat="48.040579" lon="7.54402">
        <ele>237.0</ele>
        <time>2020-07-12T11:20:10Z</time>
      </trkpt>
      <trkpt lat="48.040595" lon="7.543936">
        <ele>237.0</ele>
        <time>2020-07-12T11:20:12Z</time>
      </trkpt>
      <trkpt lat="48.040604" lon="7.543832">
        <ele>237.0</ele>
        <time>2020-07-12T11:20:14Z</time>
      </trkpt>
      <trkpt lat="48.04058" lon="7.543701">
        <ele>241.0</ele>
        <time>2020-07-12T11:20:16Z</time>
      </trkpt>
      <trkpt lat="48.040571" lon="7.54358">
        <ele>244.0</ele>
        <time>2020-07-12T11:20:18Z</time>
      </trkpt>
      <trkpt lat="48.040574" lon="7.543445">
        <ele>244.0</ele>
        <time>2020-07-12T11:20:20Z</time>
      </trkpt>
      <trkpt lat="48.040576" lon="7.543317">
        <ele>245.0</ele>
        <time>2020-07-12T11:20:22Z</time>
      </trkpt>
      <trkpt lat="48.040594" lon="7.543128">
        <ele>245.0</ele>
        <time>2020-07-12T11:20:25Z</time>
      </trkpt>
      <trkpt lat="48.04061" lon="7.542994">
        <ele>245.0</ele>
        <time>2020-07-12T11:20:27Z</time>
      </trkpt>
      <trkpt lat="48.040624" lon="7.542865">
        <ele>244.0</ele>
        <time>2020-07-12T11:20:29Z</time>
      </trkpt>
      <trkpt lat="48.040639" lon="7.542725">
        <ele>244.0</ele>
        <time>2020-07-12T11:20:31Z</time>
      </trkpt>
      <trkpt lat="48.040651" lon="7.542583">
        <ele>244.0</ele>
        <time>2020-07-12T11:20:33Z</time>
      </trkpt>
      <trkpt lat="48.040653" lon="7.542423">
        <ele>245.0</ele>
        <time>2020-07-12T11:20:35Z</time>
      </trkpt>
      <trkpt lat="48.04066" lon="7.542259">
        <ele>245.0</ele>
        <time>2020-07-12T11:20:37Z</time>
      </trkpt>
      <trkpt lat="48.040672" lon="7.542087">
        <ele>244.0</ele>
        <time>2020-07-12T11:20:39Z</time>
      </trkpt>
      <trkpt lat="48.040675" lon="7.541931">
        <ele>246.0</ele>
        <time>2020-07-12T11:20:41Z</time>
      </trkpt>
      <trkpt lat="48.040682" lon="7.541766">
        <ele>247.0</ele>
        <time>2020-07-12T11:20:43Z</time>
      </trkpt>
      <trkpt lat="48.040692" lon="7.541604">
        <ele>246.0</ele>
        <time>2020-07-12T11:20:45Z</time>
      </trkpt>
      <trkpt lat="48.040708" lon="7.54144">
        <ele>246.0</ele>
        <time>2020-07-12T11:20:47Z</time>
      </trkpt>
      <trkpt lat="48.04072" lon="7.541271">
        <ele>245.0</ele>
        <time>2020-07-12T11:20:49Z</time>
      </trkpt>
      <trkpt lat="48.040731" lon="7.5411">
        <ele>244.0</ele>
        <time>2020-07-12T11:20:51Z</time>
      </trkpt>
      <trkpt lat="48.040737" lon="7.540944">
        <ele>245.0</ele>
        <time>2020-07-12T11:20:53Z</time>
      </trkpt>
      <trkpt lat="48.040759" lon="7.540731">
        <ele>245.0</ele>
        <time>2020-07-12T11:20:56Z</time>
      </trkpt>
      <trkpt lat="48.040819" lon="7.540615">
        <ele>245.0</ele>
        <time>2020-07-12T11:20:58Z</time>
      </trkpt>
      <trkpt lat="48.040841" lon="7.540502">
        <ele>245.0</ele>
        <time>2020-07-12T11:21:00Z</time>
      </trkpt>
      <trkpt lat="48.040887" lon="7.540394">
        <ele>244.0</ele>
        <time>2020-07-12T11:21:02Z</time>
      </trkpt>
      <trkpt lat="48.040912" lon="7.540342">
        <ele>244.0</ele>
        <time>2020-07-12T11:21:03Z</time>
      </trkpt>
      <trkpt lat="48.04099" lon="7.540181">
        <ele>243.0</ele>
        <time>2020-07-12T11:21:06Z</time>
      </trkpt>
      <trkpt lat="48.041037" lon="7.540077">
        <ele>244.0</ele>
        <time>2020-07-12T11:21:08Z</time>
      </trkpt>
      <trkpt lat="48.041078" lon="7.539973">
        <ele>243.0</ele>
        <time>2020-07-12T11:21:10Z</time>
      </trkpt>
      <trkpt lat="48.041137" lon="7.539819">
        <ele>243.0</ele>
        <time>2020-07-12T11:21:13Z</time>
      </trkpt>
      <trkpt lat="48.041158" lon="7.539724">
        <ele>244.0</ele>
        <time>2020-07-12T11:21:15Z</time>
      </trkpt>
      <trkpt lat="48.041182" lon="7.539627">
        <ele>244.0</ele>
        <time>2020-07-12T11:21:17Z</time>
      </trkpt>
      <trkpt lat="48.041209" lon="7.539487">
        <ele>244.0</ele>
        <time>2020-07-12T11:21:20Z</time>
      </trkpt>
      <trkpt lat="48.041225" lon="7.539414">
        <ele>245.0</ele>
        <time>2020-07-12T11:21:22Z</time>
      </trkpt>
      <trkpt lat="48.041242" lon="7.539356">
        <ele>245.0</ele>
        <time>2020-07-12T11:21:24Z</time>
      </trkpt>
      <trkpt lat="48.041242" lon="7.539306">
        <ele>245.0</ele>
        <time>2020-07-12T11:21:26Z</time>
      </trkpt>
      <trkpt lat="48.041209" lon="7.53923">
        <ele>245.0</ele>
        <time>2020-07-12T11:21:29Z</time>
      </trkpt>
      <trkpt lat="48.041167" lon="7.539185">
        <ele>244.0</ele>
        <time>2020-07-12T11:21:31Z</time>
      </trkpt>
      <trkpt lat="48.041136" lon="7.539166">
        <ele>244.0</ele>
        <time>2020-07-12T11:21:32Z</time>
      </trkpt>
      <trkpt lat="48.041004" lon="7.539137">
        <ele>243.0</ele>
        <time>2020-07-12T11:21:36Z</time>
      </trkpt>
      <trkpt lat="48.040951" lon="7.53915">
        <ele>243.0</ele>
        <time>2020-07-12T11:21:37Z</time>
      </trkpt>
      <trkpt lat="48.040819" lon="7.539176">
        <ele>244.0</ele>
        <time>2020-07-12T11:21:40Z</time>
      </trkpt>
      <trkpt lat="48.040736" lon="7.539196">
        <ele>245.0</ele>
        <time>2020-07-12T11:21:42Z</time>
      </trkpt>
      <trkpt lat="48.040596" lon="7.53921">
        <ele>244.0</ele>
        <time>2020-07-12T11:21:45Z</time>
      </trkpt>
      <trkpt lat="48.040498" lon="7.539226">
        <ele>244.0</ele>
        <time>2020-07-12T11:21:47Z</time>
      </trkpt>
      <trkpt lat="48.040394" lon="7.539244">
        <ele>243.0</ele>
        <time>2020-07-12T11:21:49Z</time>
      </trkpt>
      <trkpt lat="48.040295" lon="7.539268">
        <ele>242.0</ele>
        <time>2020-07-12T11:21:51Z</time>
      </trkpt>
      <trkpt lat="48.040244" lon="7.539282">
        <ele>243.0</ele>
        <time>2020-07-12T11:21:52Z</time>
      </trkpt>
      <trkpt lat="48.040041" lon="7.539302">
        <ele>242.0</ele>
        <time>2020-07-12T11:21:56Z</time>
      </trkpt>
      <trkpt lat="48.039941" lon="7.539316">
        <ele>241.0</ele>
        <time>2020-07-12T11:21:58Z</time>
      </trkpt>
      <trkpt lat="48.039888" lon="7.539323">
        <ele>242.0</ele>
        <time>2020-07-12T11:21:59Z</time>
      </trkpt>
      <trkpt lat="48.039777" lon="7.539333">
        <ele>242.0</ele>
        <time>2020-07-12T11:22:01Z</time>
      </trkpt>
      <trkpt lat="48.039663" lon="7.539353">
        <ele>243.0</ele>
        <time>2020-07-12T11:22:03Z</time>
      </trkpt>
      <trkpt lat="48.039501" lon="7.539369">
        <ele>243.0</ele>
        <time>2020-07-12T11:22:06Z</time>
      </trkpt>
      <trkpt lat="48.039335" lon="7.539391">
        <ele>242.0</ele>
        <time>2020-07-12T11:22:09Z</time>
      </trkpt>
      <trkpt lat="48.039225" lon="7.539402">
        <ele>242.0</ele>
        <time>2020-07-12T11:22:11Z</time>
      </trkpt>
      <trkpt lat="48.039119" lon="7.539412">
        <ele>241.0</ele>
        <time>2020-07-12T11:22:13Z</time>
      </trkpt>
      <trkpt lat="48.039017" lon="7.539425">
        <ele>242.0</ele>
        <time>2020-07-12T11:22:15Z</time>
      </trkpt>
      <trkpt lat="48.03885" lon="7.539448">
        <ele>241.0</ele>
        <time>2020-07-12T11:22:18Z</time>
      </trkpt>
      <trkpt lat="48.038736" lon="7.539464">
        <ele>241.0</ele>
        <time>2020-07-12T11:22:20Z</time>
      </trkpt>
      <trkpt lat="48.038624" lon="7.539481">
        <ele>241.0</ele>
        <time>2020-07-12T11:22:22Z</time>
      </trkpt>
      <trkpt lat="48.03845" lon="7.5395">
        <ele>240.0</ele>
        <time>2020-07-12T11:22:25Z</time>
      </trkpt>
      <trkpt lat="48.03834" lon="7.539527">
        <ele>240.0</ele>
        <time>2020-07-12T11:22:27Z</time>
      </trkpt>
      <trkpt lat="48.038242" lon="7.539564">
        <ele>239.0</ele>
        <time>2020-07-12T11:22:29Z</time>
      </trkpt>
      <trkpt lat="48.038137" lon="7.539598">
        <ele>239.0</ele>
        <time>2020-07-12T11:22:31Z</time>
      </trkpt>
      <trkpt lat="48.038027" lon="7.539608">
        <ele>239.0</ele>
        <time>2020-07-12T11:22:33Z</time>
      </trkpt>
      <trkpt lat="48.037929" lon="7.539625">
        <ele>239.0</ele>
        <time>2020-07-12T11:22:35Z</time>
      </trkpt>
      <trkpt lat="48.03787" lon="7.539736">
        <ele>240.0</ele>
        <time>2020-07-12T11:22:37Z</time>
      </trkpt>
      <trkpt lat="48.037842" lon="7.53987">
        <ele>241.0</ele>
        <time>2020-07-12T11:22:39Z</time>
      </trkpt>
      <trkpt lat="48.037819" lon="7.540005">
        <ele>240.0</ele>
        <time>2020-07-12T11:22:41Z</time>
      </trkpt>
      <trkpt lat="48.037764" lon="7.540109">
        <ele>240.0</ele>
        <time>2020-07-12T11:22:43Z</time>
      </trkpt>
      <trkpt lat="48.037675" lon="7.54015">
        <ele>241.0</ele>
        <time>2020-07-12T11:22:45Z</time>
      </trkpt>
      <trkpt lat="48.037597" lon="7.540096">
        <ele>241.0</ele>
        <time>2020-07-12T11:22:47Z</time>
      </trkpt>
      <trkpt lat="48.03748" lon="7.539972">
        <ele>241.0</ele>
        <time>2020-07-12T11:22:50Z</time>
      </trkpt>
      <trkpt lat="48.037414" lon="7.539855">
        <ele>241.0</ele>
        <time>2020-07-12T11:22:52Z</time>
      </trkpt>
      <trkpt lat="48.03734" lon="7.53976">
        <ele>240.0</ele>
        <time>2020-07-12T11:22:54Z</time>
      </trkpt>
      <trkpt lat="48.037205" lon="7.539697">
        <ele>240.0</ele>
        <time>2020-07-12T11:22:57Z</time>
      </trkpt>
      <trkpt lat="48.037011" lon="7.539724">
        <ele>240.0</ele>
        <time>2020-07-12T11:23:01Z</time>
      </trkpt>
      <trkpt lat="48.036909" lon="7.539743">
        <ele>241.0</ele>
        <time>2020-07-12T11:23:03Z</time>
      </trkpt>
      <trkpt lat="48.036796" lon="7.539756">
        <ele>241.0</ele>
        <time>2020-07-12T11:23:05Z</time>
      </trkpt>
      <trkpt lat="48.036744" lon="7.539763">
        <ele>241.0</ele>
        <time>2020-07-12T11:23:06Z</time>
      </trkpt>
      <trkpt lat="48.036629" lon="7.539779">
        <ele>242.0</ele>
        <time>2020-07-12T11:23:08Z</time>
      </trkpt>
      <trkpt lat="48.036466" lon="7.539798">
        <ele>242.0</ele>
        <time>2020-07-12T11:23:11Z</time>
      </trkpt>
      <trkpt lat="48.036351" lon="7.5398">
        <ele>241.0</ele>
        <time>2020-07-12T11:23:13Z</time>
      </trkpt>
      <trkpt lat="48.036237" lon="7.539791">
        <ele>241.0</ele>
        <time>2020-07-12T11:23:15Z</time>
      </trkpt>
      <trkpt lat="48.03613" lon="7.539796">
        <ele>241.0</ele>
        <time>2020-07-12T11:23:17Z</time>
      </trkpt>
      <trkpt lat="48.036025" lon="7.539782">
        <ele>241.0</ele>
        <time>2020-07-12T11:23:19Z</time>
      </trkpt>
      <trkpt lat="48.035922" lon="7.539772">
        <ele>241.0</ele>
        <time>2020-07-12T11:23:21Z</time>
      </trkpt>
      <trkpt lat="48.035815" lon="7.539766">
        <ele>241.0</ele>
        <time>2020-07-12T11:23:23Z</time>
      </trkpt>
      <trkpt lat="48.035705" lon="7.539759">
        <ele>240.0</ele>
        <time>2020-07-12T11:23:25Z</time>
      </trkpt>
      <trkpt lat="48.035651" lon="7.539754">
        <ele>241.0</ele>
        <time>2020-07-12T11:23:26Z</time>
      </trkpt>
      <trkpt lat="48.035486" lon="7.539742">
        <ele>241.0</ele>
        <time>2020-07-12T11:23:29Z</time>
      </trkpt>
      <trkpt lat="48.035377" lon="7.539742">
        <ele>241.0</ele>
        <time>2020-07-12T11:23:31Z</time>
      </trkpt>
      <trkpt lat="48.035267" lon="7.539728">
        <ele>241.0</ele>
        <time>2020-07-12T11:23:33Z</time>
      </trkpt>
      <trkpt lat="48.035148" lon="7.539718">
        <ele>242.0</ele>
        <time>2020-07-12T11:23:35Z</time>
      </trkpt>
      <trkpt lat="48.035019" lon="7.539714">
        <ele>242.0</ele>
        <time>2020-07-12T11:23:37Z</time>
      </trkpt>
      <trkpt lat="48.03489" lon="7.53971">
        <ele>242.0</ele>
        <time>2020-07-12T11:23:39Z</time>
      </trkpt>
      <trkpt lat="48.034758" lon="7.539702">
        <ele>242.0</ele>
        <time>2020-07-12T11:23:41Z</time>
      </trkpt>
      <trkpt lat="48.034632" lon="7.539682">
        <ele>242.0</ele>
        <time>2020-07-12T11:23:43Z</time>
      </trkpt>
      <trkpt lat="48.034499" lon="7.539665">
        <ele>242.0</ele>
        <time>2020-07-12T11:23:45Z</time>
      </trkpt>
      <trkpt lat="48.034359" lon="7.539652">
        <ele>241.0</ele>
        <time>2020-07-12T11:23:47Z</time>
      </trkpt>
      <trkpt lat="48.034225" lon="7.539639">
        <ele>241.0</ele>
        <time>2020-07-12T11:23:49Z</time>
      </trkpt>
      <trkpt lat="48.034092" lon="7.539629">
        <ele>241.0</ele>
        <time>2020-07-12T11:23:51Z</time>
      </trkpt>
      <trkpt lat="48.033961" lon="7.539619">
        <ele>242.0</ele>
        <time>2020-07-12T11:23:53Z</time>
      </trkpt>
      <trkpt lat="48.033836" lon="7.539604">
        <ele>242.0</ele>
        <time>2020-07-12T11:23:55Z</time>
      </trkpt>
      <trkpt lat="48.033709" lon="7.539598">
        <ele>243.0</ele>
        <time>2020-07-12T11:23:57Z</time>
      </trkpt>
      <trkpt lat="48.033582" lon="7.539583">
        <ele>243.0</ele>
        <time>2020-07-12T11:23:59Z</time>
      </trkpt>
      <trkpt lat="48.03345" lon="7.539571">
        <ele>243.0</ele>
        <time>2020-07-12T11:24:01Z</time>
      </trkpt>
      <trkpt lat="48.033325" lon="7.539558">
        <ele>242.0</ele>
        <time>2020-07-12T11:24:03Z</time>
      </trkpt>
      <trkpt lat="48.033201" lon="7.539542">
        <ele>242.0</ele>
        <time>2020-07-12T11:24:05Z</time>
      </trkpt>
      <trkpt lat="48.033073" lon="7.53953">
        <ele>242.0</ele>
        <time>2020-07-12T11:24:07Z</time>
      </trkpt>
      <trkpt lat="48.03294" lon="7.539517">
        <ele>242.0</ele>
        <time>2020-07-12T11:24:09Z</time>
      </trkpt>
      <trkpt lat="48.032812" lon="7.53951">
        <ele>243.0</ele>
        <time>2020-07-12T11:24:11Z</time>
      </trkpt>
      <trkpt lat="48.032621" lon="7.539483">
        <ele>243.0</ele>
        <time>2020-07-12T11:24:14Z</time>
      </trkpt>
      <trkpt lat="48.032558" lon="7.539478">
        <ele>243.0</ele>
        <time>2020-07-12T11:24:15Z</time>
      </trkpt>
      <trkpt lat="48.032369" lon="7.539462">
        <ele>243.0</ele>
        <time>2020-07-12T11:24:18Z</time>
      </trkpt>
      <trkpt lat="48.032242" lon="7.539449">
        <ele>242.0</ele>
        <time>2020-07-12T11:24:20Z</time>
      </trkpt>
      <trkpt lat="48.03211" lon="7.539433">
        <ele>241.0</ele>
        <time>2020-07-12T11:24:22Z</time>
      </trkpt>
      <trkpt lat="48.031982" lon="7.539426">
        <ele>241.0</ele>
        <time>2020-07-12T11:24:24Z</time>
      </trkpt>
      <trkpt lat="48.03179" lon="7.539398">
        <ele>241.0</ele>
        <time>2020-07-12T11:24:27Z</time>
      </trkpt>
      <trkpt lat="48.03172" lon="7.539392">
        <ele>241.0</ele>
        <time>2020-07-12T11:24:28Z</time>
      </trkpt>
      <trkpt lat="48.031536" lon="7.53936">
        <ele>242.0</ele>
        <time>2020-07-12T11:24:31Z</time>
      </trkpt>
      <trkpt lat="48.031358" lon="7.539341">
        <ele>241.0</ele>
        <time>2020-07-12T11:24:34Z</time>
      </trkpt>
      <trkpt lat="48.031236" lon="7.53933">
        <ele>241.0</ele>
        <time>2020-07-12T11:24:36Z</time>
      </trkpt>
      <trkpt lat="48.031109" lon="7.539317">
        <ele>241.0</ele>
        <time>2020-07-12T11:24:38Z</time>
      </trkpt>
      <trkpt lat="48.030987" lon="7.539297">
        <ele>241.0</ele>
        <time>2020-07-12T11:24:40Z</time>
      </trkpt>
      <trkpt lat="48.030862" lon="7.539285">
        <ele>242.0</ele>
        <time>2020-07-12T11:24:42Z</time>
      </trkpt>
      <trkpt lat="48.030736" lon="7.539273">
        <ele>242.0</ele>
        <time>2020-07-12T11:24:44Z</time>
      </trkpt>
      <trkpt lat="48.030531" lon="7.539247">
        <ele>241.0</ele>
        <time>2020-07-12T11:24:47Z</time>
      </trkpt>
      <trkpt lat="48.03039" lon="7.53923">
        <ele>242.0</ele>
        <time>2020-07-12T11:24:49Z</time>
      </trkpt>
      <trkpt lat="48.030245" lon="7.539218">
        <ele>242.0</ele>
        <time>2020-07-12T11:24:51Z</time>
      </trkpt>
      <trkpt lat="48.030109" lon="7.539197">
        <ele>241.0</ele>
        <time>2020-07-12T11:24:53Z</time>
      </trkpt>
      <trkpt lat="48.029901" lon="7.539178">
        <ele>242.0</ele>
        <time>2020-07-12T11:24:56Z</time>
      </trkpt>
      <trkpt lat="48.029755" lon="7.539168">
        <ele>242.0</ele>
        <time>2020-07-12T11:24:58Z</time>
      </trkpt>
      <trkpt lat="48.029612" lon="7.539152">
        <ele>242.0</ele>
        <time>2020-07-12T11:25:00Z</time>
      </trkpt>
      <trkpt lat="48.029472" lon="7.539142">
        <ele>242.0</ele>
        <time>2020-07-12T11:25:02Z</time>
      </trkpt>
      <trkpt lat="48.029344" lon="7.539127">
        <ele>243.0</ele>
        <time>2020-07-12T11:25:04Z</time>
      </trkpt>
      <trkpt lat="48.029218" lon="7.539115">
        <ele>243.0</ele>
        <time>2020-07-12T11:25:06Z</time>
      </trkpt>
      <trkpt lat="48.029034" lon="7.539094">
        <ele>242.0</ele>
        <time>2020-07-12T11:25:09Z</time>
      </trkpt>
      <trkpt lat="48.02891" lon="7.539078">
        <ele>242.0</ele>
        <time>2020-07-12T11:25:11Z</time>
      </trkpt>
      <trkpt lat="48.028721" lon="7.539068">
        <ele>242.0</ele>
        <time>2020-07-12T11:25:14Z</time>
      </trkpt>
      <trkpt lat="48.028662" lon="7.539062">
        <ele>242.0</ele>
        <time>2020-07-12T11:25:15Z</time>
      </trkpt>
      <trkpt lat="48.028462" lon="7.53904">
        <ele>241.0</ele>
        <time>2020-07-12T11:25:18Z</time>
      </trkpt>
      <trkpt lat="48.028274" lon="7.539006">
        <ele>241.0</ele>
        <time>2020-07-12T11:25:21Z</time>
      </trkpt>
      <trkpt lat="48.02814" lon="7.53899">
        <ele>241.0</ele>
        <time>2020-07-12T11:25:23Z</time>
      </trkpt>
      <trkpt lat="48.02795" lon="7.538971">
        <ele>241.0</ele>
        <time>2020-07-12T11:25:26Z</time>
      </trkpt>
      <trkpt lat="48.027893" lon="7.538961">
        <ele>241.0</ele>
        <time>2020-07-12T11:25:27Z</time>
      </trkpt>
      <trkpt lat="48.027634" lon="7.538922">
        <ele>241.0</ele>
        <time>2020-07-12T11:25:31Z</time>
      </trkpt>
      <trkpt lat="48.027505" lon="7.538912">
        <ele>241.0</ele>
        <time>2020-07-12T11:25:33Z</time>
      </trkpt>
      <trkpt lat="48.027382" lon="7.538893">
        <ele>241.0</ele>
        <time>2020-07-12T11:25:35Z</time>
      </trkpt>
      <trkpt lat="48.027254" lon="7.538881">
        <ele>242.0</ele>
        <time>2020-07-12T11:25:37Z</time>
      </trkpt>
      <trkpt lat="48.027125" lon="7.53887">
        <ele>242.0</ele>
        <time>2020-07-12T11:25:39Z</time>
      </trkpt>
      <trkpt lat="48.026992" lon="7.538856">
        <ele>242.0</ele>
        <time>2020-07-12T11:25:41Z</time>
      </trkpt>
      <trkpt lat="48.026868" lon="7.538842">
        <ele>242.0</ele>
        <time>2020-07-12T11:25:43Z</time>
      </trkpt>
      <trkpt lat="48.026742" lon="7.538828">
        <ele>242.0</ele>
        <time>2020-07-12T11:25:45Z</time>
      </trkpt>
      <trkpt lat="48.026616" lon="7.538815">
        <ele>242.0</ele>
        <time>2020-07-12T11:25:47Z</time>
      </trkpt>
      <trkpt lat="48.026455" lon="7.538814">
        <ele>242.0</ele>
        <time>2020-07-12T11:25:50Z</time>
      </trkpt>
      <trkpt lat="48.026411" lon="7.538818">
        <ele>242.0</ele>
        <time>2020-07-12T11:25:51Z</time>
      </trkpt>
      <trkpt lat="48.026269" lon="7.538801">
        <ele>242.0</ele>
        <time>2020-07-12T11:25:54Z</time>
      </trkpt>
      <trkpt lat="48.026133" lon="7.538791">
        <ele>242.0</ele>
        <time>2020-07-12T11:25:57Z</time>
      </trkpt>
      <trkpt lat="48.026044" lon="7.538769">
        <ele>241.0</ele>
        <time>2020-07-12T11:26:01Z</time>
      </trkpt>
      <trkpt lat="48.026047" lon="7.53877">
        <ele>241.0</ele>
        <time>2020-07-12T11:26:03Z</time>
      </trkpt>
      <trkpt lat="48.026045" lon="7.538772">
        <ele>241.0</ele>
        <time>2020-07-12T11:26:05Z</time>
      </trkpt>
      <trkpt lat="48.026045" lon="7.538772">
        <ele>241.0</ele>
        <time>2020-07-12T11:26:07Z</time>
      </trkpt>
      <trkpt lat="48.026045" lon="7.538772">
        <ele>241.0</ele>
        <time>2020-07-12T11:26:09Z</time>
      </trkpt>
      <trkpt lat="48.026045" lon="7.538772">
        <ele>241.0</ele>
        <time>2020-07-12T11:26:41Z</time>
      </trkpt>
      <trkpt lat="48.026045" lon="7.538772">
        <ele>241.0</ele>
        <time>2020-07-12T11:26:43Z</time>
      </trkpt>
      <trkpt lat="48.026047" lon="7.538766">
        <ele>241.0</ele>
        <time>2020-07-12T11:26:45Z</time>
      </trkpt>
      <trkpt lat="48.026047" lon="7.538766">
        <ele>241.0</ele>
        <time>2020-07-12T11:26:47Z</time>
      </trkpt>
      <trkpt lat="48.026047" lon="7.538766">
        <ele>241.0</ele>
        <time>2020-07-12T11:26:49Z</time>
      </trkpt>
      <trkpt lat="48.026047" lon="7.538766">
        <ele>241.0</ele>
        <time>2020-07-12T11:26:51Z</time>
      </trkpt>
      <trkpt lat="48.026047" lon="7.538766">
        <ele>241.0</ele>
        <time>2020-07-12T11:26:53Z</time>
      </trkpt>
      <trkpt lat="48.026047" lon="7.538766">
        <ele>241.0</ele>
        <time>2020-07-12T11:26:55Z</time>
      </trkpt>
      <trkpt lat="48.026047" lon="7.538766">
        <ele>241.0</ele>
        <time>2020-07-12T11:26:57Z</time>
      </trkpt>
      <trkpt lat="48.026047" lon="7.538766">
        <ele>241.0</ele>
        <time>2020-07-12T11:26:59Z</time>
      </trkpt>
      <trkpt lat="48.026047" lon="7.538766">
        <ele>241.0</ele>
        <time>2020-07-12T11:27:01Z</time>
      </trkpt>
      <trkpt lat="48.026044" lon="7.538762">
        <ele>241.0</ele>
        <time>2020-07-12T11:27:03Z</time>
      </trkpt>
      <trkpt lat="48.026022" lon="7.538758">
        <ele>241.0</ele>
        <time>2020-07-12T11:27:05Z</time>
      </trkpt>
      <trkpt lat="48.025976" lon="7.538758">
        <ele>241.0</ele>
        <time>2020-07-12T11:27:07Z</time>
      </trkpt>
      <trkpt lat="48.025919" lon="7.538746">
        <ele>241.0</ele>
        <time>2020-07-12T11:27:09Z</time>
      </trkpt>
      <trkpt lat="48.025863" lon="7.538735">
        <ele>242.0</ele>
        <time>2020-07-12T11:27:11Z</time>
      </trkpt>
      <trkpt lat="48.025793" lon="7.538733">
        <ele>242.0</ele>
        <time>2020-07-12T11:27:13Z</time>
      </trkpt>
      <trkpt lat="48.025756" lon="7.538733">
        <ele>242.0</ele>
        <time>2020-07-12T11:27:14Z</time>
      </trkpt>
      <trkpt lat="48.025633" lon="7.538722">
        <ele>244.0</ele>
        <time>2020-07-12T11:27:17Z</time>
      </trkpt>
      <trkpt lat="48.025545" lon="7.538704">
        <ele>244.0</ele>
        <time>2020-07-12T11:27:19Z</time>
      </trkpt>
      <trkpt lat="48.025455" lon="7.538686">
        <ele>244.0</ele>
        <time>2020-07-12T11:27:21Z</time>
      </trkpt>
      <trkpt lat="48.025315" lon="7.538657">
        <ele>244.0</ele>
        <time>2020-07-12T11:27:24Z</time>
      </trkpt>
      <trkpt lat="48.025267" lon="7.538647">
        <ele>244.0</ele>
        <time>2020-07-12T11:27:25Z</time>
      </trkpt>
      <trkpt lat="48.025169" lon="7.538624">
        <ele>244.0</ele>
        <time>2020-07-12T11:27:27Z</time>
      </trkpt>
      <trkpt lat="48.025009" lon="7.538593">
        <ele>244.0</ele>
        <time>2020-07-12T11:27:30Z</time>
      </trkpt>
      <trkpt lat="48.024956" lon="7.53858">
        <ele>244.0</ele>
        <time>2020-07-12T11:27:31Z</time>
      </trkpt>
      <trkpt lat="48.024798" lon="7.538548">
        <ele>244.0</ele>
        <time>2020-07-12T11:27:34Z</time>
      </trkpt>
      <trkpt lat="48.024693" lon="7.538534">
        <ele>244.0</ele>
        <time>2020-07-12T11:27:36Z</time>
      </trkpt>
      <trkpt lat="48.024588" lon="7.538512">
        <ele>244.0</ele>
        <time>2020-07-12T11:27:38Z</time>
      </trkpt>
      <trkpt lat="48.02443" lon="7.538487">
        <ele>244.0</ele>
        <time>2020-07-12T11:27:41Z</time>
      </trkpt>
      <trkpt lat="48.024317" lon="7.538471">
        <ele>244.0</ele>
        <time>2020-07-12T11:27:43Z</time>
      </trkpt>
      <trkpt lat="48.0242" lon="7.538465">
        <ele>244.0</ele>
        <time>2020-07-12T11:27:45Z</time>
      </trkpt>
      <trkpt lat="48.02408" lon="7.538469">
        <ele>244.0</ele>
        <time>2020-07-12T11:27:47Z</time>
      </trkpt>
      <trkpt lat="48.023896" lon="7.538476">
        <ele>244.0</ele>
        <time>2020-07-12T11:27:50Z</time>
      </trkpt>
      <trkpt lat="48.023772" lon="7.53849">
        <ele>244.0</ele>
        <time>2020-07-12T11:27:52Z</time>
      </trkpt>
      <trkpt lat="48.023658" lon="7.538503">
        <ele>244.0</ele>
        <time>2020-07-12T11:27:54Z</time>
      </trkpt>
      <trkpt lat="48.023547" lon="7.53852">
        <ele>244.0</ele>
        <time>2020-07-12T11:27:56Z</time>
      </trkpt>
      <trkpt lat="48.023429" lon="7.538538">
        <ele>244.0</ele>
        <time>2020-07-12T11:27:58Z</time>
      </trkpt>
      <trkpt lat="48.023308" lon="7.538555">
        <ele>244.0</ele>
        <time>2020-07-12T11:28:00Z</time>
      </trkpt>
      <trkpt lat="48.02319" lon="7.538583">
        <ele>244.0</ele>
        <time>2020-07-12T11:28:02Z</time>
      </trkpt>
      <trkpt lat="48.023079" lon="7.538625">
        <ele>244.0</ele>
        <time>2020-07-12T11:28:04Z</time>
      </trkpt>
      <trkpt lat="48.022909" lon="7.538679">
        <ele>244.0</ele>
        <time>2020-07-12T11:28:07Z</time>
      </trkpt>
      <trkpt lat="48.022794" lon="7.53872">
        <ele>244.0</ele>
        <time>2020-07-12T11:28:09Z</time>
      </trkpt>
      <trkpt lat="48.022672" lon="7.538757">
        <ele>244.0</ele>
        <time>2020-07-12T11:28:11Z</time>
      </trkpt>
      <trkpt lat="48.022549" lon="7.53878">
        <ele>244.0</ele>
        <time>2020-07-12T11:28:13Z</time>
      </trkpt>
      <trkpt lat="48.022486" lon="7.538792">
        <ele>244.0</ele>
        <time>2020-07-12T11:28:14Z</time>
      </trkpt>
      <trkpt lat="48.022295" lon="7.538825">
        <ele>243.0</ele>
        <time>2020-07-12T11:28:17Z</time>
      </trkpt>
      <trkpt lat="48.022165" lon="7.538844">
        <ele>243.0</ele>
        <time>2020-07-12T11:28:19Z</time>
      </trkpt>
      <trkpt lat="48.02203" lon="7.538862">
        <ele>243.0</ele>
        <time>2020-07-12T11:28:21Z</time>
      </trkpt>
      <trkpt lat="48.021897" lon="7.538877">
        <ele>243.0</ele>
        <time>2020-07-12T11:28:23Z</time>
      </trkpt>
      <trkpt lat="48.021764" lon="7.538892">
        <ele>243.0</ele>
        <time>2020-07-12T11:28:25Z</time>
      </trkpt>
      <trkpt lat="48.021626" lon="7.538908">
        <ele>243.0</ele>
        <time>2020-07-12T11:28:27Z</time>
      </trkpt>
      <trkpt lat="48.021496" lon="7.538931">
        <ele>243.0</ele>
        <time>2020-07-12T11:28:29Z</time>
      </trkpt>
      <trkpt lat="48.021362" lon="7.538945">
        <ele>242.0</ele>
        <time>2020-07-12T11:28:31Z</time>
      </trkpt>
      <trkpt lat="48.021225" lon="7.538956">
        <ele>242.0</ele>
        <time>2020-07-12T11:28:33Z</time>
      </trkpt>
      <trkpt lat="48.021092" lon="7.538967">
        <ele>242.0</ele>
        <time>2020-07-12T11:28:35Z</time>
      </trkpt>
      <trkpt lat="48.02096" lon="7.538984">
        <ele>242.0</ele>
        <time>2020-07-12T11:28:37Z</time>
      </trkpt>
      <trkpt lat="48.020828" lon="7.539009">
        <ele>242.0</ele>
        <time>2020-07-12T11:28:39Z</time>
      </trkpt>
      <trkpt lat="48.020697" lon="7.539025">
        <ele>243.0</ele>
        <time>2020-07-12T11:28:41Z</time>
      </trkpt>
      <trkpt lat="48.020489" lon="7.539047">
        <ele>243.0</ele>
        <time>2020-07-12T11:28:44Z</time>
      </trkpt>
      <trkpt lat="48.020424" lon="7.539054">
        <ele>243.0</ele>
        <time>2020-07-12T11:28:45Z</time>
      </trkpt>
      <trkpt lat="48.0203" lon="7.53907">
        <ele>243.0</ele>
        <time>2020-07-12T11:28:47Z</time>
      </trkpt>
      <trkpt lat="48.020172" lon="7.539096">
        <ele>243.0</ele>
        <time>2020-07-12T11:28:49Z</time>
      </trkpt>
      <trkpt lat="48.019978" lon="7.53912">
        <ele>243.0</ele>
        <time>2020-07-12T11:28:52Z</time>
      </trkpt>
      <trkpt lat="48.01985" lon="7.539131">
        <ele>243.0</ele>
        <time>2020-07-12T11:28:54Z</time>
      </trkpt>
      <trkpt lat="48.019718" lon="7.539145">
        <ele>242.0</ele>
        <time>2020-07-12T11:28:56Z</time>
      </trkpt>
      <trkpt lat="48.019585" lon="7.539149">
        <ele>242.0</ele>
        <time>2020-07-12T11:28:58Z</time>
      </trkpt>
      <trkpt lat="48.019461" lon="7.539141">
        <ele>242.0</ele>
        <time>2020-07-12T11:29:00Z</time>
      </trkpt>
      <trkpt lat="48.019335" lon="7.539132">
        <ele>242.0</ele>
        <time>2020-07-12T11:29:02Z</time>
      </trkpt>
      <trkpt lat="48.019151" lon="7.53911">
        <ele>242.0</ele>
        <time>2020-07-12T11:29:05Z</time>
      </trkpt>
      <trkpt lat="48.019039" lon="7.539094">
        <ele>242.0</ele>
        <time>2020-07-12T11:29:07Z</time>
      </trkpt>
      <trkpt lat="48.018967" lon="7.539075">
        <ele>242.0</ele>
        <time>2020-07-12T11:29:09Z</time>
      </trkpt>
      <trkpt lat="48.018932" lon="7.539051">
        <ele>242.0</ele>
        <time>2020-07-12T11:29:11Z</time>
      </trkpt>
      <trkpt lat="48.018897" lon="7.539012">
        <ele>242.0</ele>
        <time>2020-07-12T11:29:13Z</time>
      </trkpt>
      <trkpt lat="48.018821" lon="7.538998">
        <ele>242.0</ele>
        <time>2020-07-12T11:29:16Z</time>
      </trkpt>
      <trkpt lat="48.018775" lon="7.538959">
        <ele>243.0</ele>
        <time>2020-07-12T11:29:18Z</time>
      </trkpt>
      <trkpt lat="48.018726" lon="7.538955">
        <ele>243.0</ele>
        <time>2020-07-12T11:29:20Z</time>
      </trkpt>
      <trkpt lat="48.018675" lon="7.53899">
        <ele>243.0</ele>
        <time>2020-07-12T11:29:22Z</time>
      </trkpt>
      <trkpt lat="48.018607" lon="7.538997">
        <ele>243.0</ele>
        <time>2020-07-12T11:29:24Z</time>
      </trkpt>
      <trkpt lat="48.018538" lon="7.538966">
        <ele>243.0</ele>
        <time>2020-07-12T11:29:26Z</time>
      </trkpt>
      <trkpt lat="48.018452" lon="7.538914">
        <ele>243.0</ele>
        <time>2020-07-12T11:29:28Z</time>
      </trkpt>
      <trkpt lat="48.018368" lon="7.538874">
        <ele>243.0</ele>
        <time>2020-07-12T11:29:30Z</time>
      </trkpt>
      <trkpt lat="48.018281" lon="7.538847">
        <ele>243.0</ele>
        <time>2020-07-12T11:29:32Z</time>
      </trkpt>
      <trkpt lat="48.018133" lon="7.538838">
        <ele>243.0</ele>
        <time>2020-07-12T11:29:35Z</time>
      </trkpt>
      <trkpt lat="48.018024" lon="7.538827">
        <ele>243.0</ele>
        <time>2020-07-12T11:29:37Z</time>
      </trkpt>
      <trkpt lat="48.01792" lon="7.538789">
        <ele>242.0</ele>
        <time>2020-07-12T11:29:39Z</time>
      </trkpt>
      <trkpt lat="48.017865" lon="7.538774">
        <ele>242.0</ele>
        <time>2020-07-12T11:29:40Z</time>
      </trkpt>
      <trkpt lat="48.017756" lon="7.538742">
        <ele>243.0</ele>
        <time>2020-07-12T11:29:42Z</time>
      </trkpt>
      <trkpt lat="48.017581" lon="7.538714">
        <ele>243.0</ele>
        <time>2020-07-12T11:29:45Z</time>
      </trkpt>
      <trkpt lat="48.017467" lon="7.538679">
        <ele>242.0</ele>
        <time>2020-07-12T11:29:47Z</time>
      </trkpt>
      <trkpt lat="48.017357" lon="7.538635">
        <ele>242.0</ele>
        <time>2020-07-12T11:29:49Z</time>
      </trkpt>
      <trkpt lat="48.017244" lon="7.538599">
        <ele>243.0</ele>
        <time>2020-07-12T11:29:51Z</time>
      </trkpt>
      <trkpt lat="48.017132" lon="7.538563">
        <ele>243.0</ele>
        <time>2020-07-12T11:29:53Z</time>
      </trkpt>
      <trkpt lat="48.016964" lon="7.538505">
        <ele>243.0</ele>
        <time>2020-07-12T11:29:56Z</time>
      </trkpt>
      <trkpt lat="48.016846" lon="7.538472">
        <ele>243.0</ele>
        <time>2020-07-12T11:29:58Z</time>
      </trkpt>
      <trkpt lat="48.01673" lon="7.538436">
        <ele>243.0</ele>
        <time>2020-07-12T11:30:00Z</time>
      </trkpt>
      <trkpt lat="48.01661" lon="7.538405">
        <ele>242.0</ele>
        <time>2020-07-12T11:30:02Z</time>
      </trkpt>
      <trkpt lat="48.01643" lon="7.53837">
        <ele>243.0</ele>
        <time>2020-07-12T11:30:05Z</time>
      </trkpt>
      <trkpt lat="48.016309" lon="7.538346">
        <ele>242.0</ele>
        <time>2020-07-12T11:30:07Z</time>
      </trkpt>
      <trkpt lat="48.016186" lon="7.53829">
        <ele>242.0</ele>
        <time>2020-07-12T11:30:09Z</time>
      </trkpt>
      <trkpt lat="48.016065" lon="7.538243">
        <ele>242.0</ele>
        <time>2020-07-12T11:30:11Z</time>
      </trkpt>
      <trkpt lat="48.015952" lon="7.538204">
        <ele>242.0</ele>
        <time>2020-07-12T11:30:13Z</time>
      </trkpt>
      <trkpt lat="48.015839" lon="7.538167">
        <ele>242.0</ele>
        <time>2020-07-12T11:30:15Z</time>
      </trkpt>
      <trkpt lat="48.015716" lon="7.538133">
        <ele>242.0</ele>
        <time>2020-07-12T11:30:17Z</time>
      </trkpt>
      <trkpt lat="48.015593" lon="7.538115">
        <ele>242.0</ele>
        <time>2020-07-12T11:30:19Z</time>
      </trkpt>
      <trkpt lat="48.015474" lon="7.538088">
        <ele>242.0</ele>
        <time>2020-07-12T11:30:21Z</time>
      </trkpt>
      <trkpt lat="48.01535" lon="7.53807">
        <ele>243.0</ele>
        <time>2020-07-12T11:30:23Z</time>
      </trkpt>
      <trkpt lat="48.015227" lon="7.538049">
        <ele>244.0</ele>
        <time>2020-07-12T11:30:25Z</time>
      </trkpt>
      <trkpt lat="48.015099" lon="7.538028">
        <ele>244.0</ele>
        <time>2020-07-12T11:30:27Z</time>
      </trkpt>
      <trkpt lat="48.014909" lon="7.538004">
        <ele>244.0</ele>
        <time>2020-07-12T11:30:30Z</time>
      </trkpt>
      <trkpt lat="48.014847" lon="7.537994">
        <ele>244.0</ele>
        <time>2020-07-12T11:30:31Z</time>
      </trkpt>
      <trkpt lat="48.014721" lon="7.537988">
        <ele>244.0</ele>
        <time>2020-07-12T11:30:33Z</time>
      </trkpt>
      <trkpt lat="48.014602" lon="7.537973">
        <ele>244.0</ele>
        <time>2020-07-12T11:30:35Z</time>
      </trkpt>
      <trkpt lat="48.014484" lon="7.537947">
        <ele>244.0</ele>
        <time>2020-07-12T11:30:37Z</time>
      </trkpt>
      <trkpt lat="48.014376" lon="7.537886">
        <ele>244.0</ele>
        <time>2020-07-12T11:30:39Z</time>
      </trkpt>
      <trkpt lat="48.01423" lon="7.537803">
        <ele>244.0</ele>
        <time>2020-07-12T11:30:42Z</time>
      </trkpt>
      <trkpt lat="48.014151" lon="7.537814">
        <ele>244.0</ele>
        <time>2020-07-12T11:30:44Z</time>
      </trkpt>
      <trkpt lat="48.014073" lon="7.537857">
        <ele>244.0</ele>
        <time>2020-07-12T11:30:46Z</time>
      </trkpt>
      <trkpt lat="48.01403" lon="7.53789">
        <ele>243.0</ele>
        <time>2020-07-12T11:30:47Z</time>
      </trkpt>
      <trkpt lat="48.013887" lon="7.537885">
        <ele>243.0</ele>
        <time>2020-07-12T11:30:50Z</time>
      </trkpt>
      <trkpt lat="48.013791" lon="7.537881">
        <ele>244.0</ele>
        <time>2020-07-12T11:30:52Z</time>
      </trkpt>
      <trkpt lat="48.013687" lon="7.537888">
        <ele>244.0</ele>
        <time>2020-07-12T11:30:54Z</time>
      </trkpt>
      <trkpt lat="48.013585" lon="7.537905">
        <ele>244.0</ele>
        <time>2020-07-12T11:30:56Z</time>
      </trkpt>
      <trkpt lat="48.013479" lon="7.537906">
        <ele>244.0</ele>
        <time>2020-07-12T11:30:58Z</time>
      </trkpt>
      <trkpt lat="48.013365" lon="7.537888">
        <ele>244.0</ele>
        <time>2020-07-12T11:31:00Z</time>
      </trkpt>
      <trkpt lat="48.013307" lon="7.537879">
        <ele>244.0</ele>
        <time>2020-07-12T11:31:01Z</time>
      </trkpt>
      <trkpt lat="48.013135" lon="7.537861">
        <ele>244.0</ele>
        <time>2020-07-12T11:31:04Z</time>
      </trkpt>
      <trkpt lat="48.013016" lon="7.53785">
        <ele>243.0</ele>
        <time>2020-07-12T11:31:06Z</time>
      </trkpt>
      <trkpt lat="48.012905" lon="7.537836">
        <ele>243.0</ele>
        <time>2020-07-12T11:31:08Z</time>
      </trkpt>
      <trkpt lat="48.012789" lon="7.537824">
        <ele>243.0</ele>
        <time>2020-07-12T11:31:10Z</time>
      </trkpt>
      <trkpt lat="48.012701" lon="7.537914">
        <ele>243.0</ele>
        <time>2020-07-12T11:31:12Z</time>
      </trkpt>
      <trkpt lat="48.012608" lon="7.538115">
        <ele>243.0</ele>
        <time>2020-07-12T11:31:15Z</time>
      </trkpt>
      <trkpt lat="48.012544" lon="7.538256">
        <ele>243.0</ele>
        <time>2020-07-12T11:31:17Z</time>
      </trkpt>
      <trkpt lat="48.012476" lon="7.538403">
        <ele>243.0</ele>
        <time>2020-07-12T11:31:19Z</time>
      </trkpt>
      <trkpt lat="48.012404" lon="7.53855">
        <ele>243.0</ele>
        <time>2020-07-12T11:31:21Z</time>
      </trkpt>
      <trkpt lat="48.01233" lon="7.538708">
        <ele>242.0</ele>
        <time>2020-07-12T11:31:23Z</time>
      </trkpt>
      <trkpt lat="48.012258" lon="7.538869">
        <ele>242.0</ele>
        <time>2020-07-12T11:31:25Z</time>
      </trkpt>
      <trkpt lat="48.012184" lon="7.539017">
        <ele>241.0</ele>
        <time>2020-07-12T11:31:27Z</time>
      </trkpt>
      <trkpt lat="48.012102" lon="7.539163">
        <ele>241.0</ele>
        <time>2020-07-12T11:31:29Z</time>
      </trkpt>
      <trkpt lat="48.01203" lon="7.539313">
        <ele>241.0</ele>
        <time>2020-07-12T11:31:31Z</time>
      </trkpt>
      <trkpt lat="48.011961" lon="7.539461">
        <ele>241.0</ele>
        <time>2020-07-12T11:31:33Z</time>
      </trkpt>
      <trkpt lat="48.011894" lon="7.539612">
        <ele>241.0</ele>
        <time>2020-07-12T11:31:35Z</time>
      </trkpt>
      <trkpt lat="48.011827" lon="7.539774">
        <ele>241.0</ele>
        <time>2020-07-12T11:31:37Z</time>
      </trkpt>
      <trkpt lat="48.011756" lon="7.539927">
        <ele>241.0</ele>
        <time>2020-07-12T11:31:39Z</time>
      </trkpt>
      <trkpt lat="48.011702" lon="7.54009">
        <ele>241.0</ele>
        <time>2020-07-12T11:31:41Z</time>
      </trkpt>
      <trkpt lat="48.011639" lon="7.540244">
        <ele>241.0</ele>
        <time>2020-07-12T11:31:43Z</time>
      </trkpt>
      <trkpt lat="48.011571" lon="7.540392">
        <ele>241.0</ele>
        <time>2020-07-12T11:31:45Z</time>
      </trkpt>
      <trkpt lat="48.0115" lon="7.540537">
        <ele>241.0</ele>
        <time>2020-07-12T11:31:47Z</time>
      </trkpt>
      <trkpt lat="48.011429" lon="7.540687">
        <ele>241.0</ele>
        <time>2020-07-12T11:31:49Z</time>
      </trkpt>
      <trkpt lat="48.011363" lon="7.540837">
        <ele>240.0</ele>
        <time>2020-07-12T11:31:51Z</time>
      </trkpt>
      <trkpt lat="48.011264" lon="7.541067">
        <ele>241.0</ele>
        <time>2020-07-12T11:31:54Z</time>
      </trkpt>
      <trkpt lat="48.011228" lon="7.541142">
        <ele>240.0</ele>
        <time>2020-07-12T11:31:55Z</time>
      </trkpt>
      <trkpt lat="48.011133" lon="7.541364">
        <ele>240.0</ele>
        <time>2020-07-12T11:31:58Z</time>
      </trkpt>
      <trkpt lat="48.011067" lon="7.541505">
        <ele>240.0</ele>
        <time>2020-07-12T11:32:00Z</time>
      </trkpt>
      <trkpt lat="48.010967" lon="7.541725">
        <ele>239.0</ele>
        <time>2020-07-12T11:32:03Z</time>
      </trkpt>
      <trkpt lat="48.010873" lon="7.541841">
        <ele>239.0</ele>
        <time>2020-07-12T11:32:05Z</time>
      </trkpt>
      <trkpt lat="48.010776" lon="7.541927">
        <ele>240.0</ele>
        <time>2020-07-12T11:32:07Z</time>
      </trkpt>
      <trkpt lat="48.010734" lon="7.542082">
        <ele>241.0</ele>
        <time>2020-07-12T11:32:09Z</time>
      </trkpt>
      <trkpt lat="48.010729" lon="7.542255">
        <ele>242.0</ele>
        <time>2020-07-12T11:32:11Z</time>
      </trkpt>
      <trkpt lat="48.010688" lon="7.542418">
        <ele>243.0</ele>
        <time>2020-07-12T11:32:13Z</time>
      </trkpt>
      <trkpt lat="48.010624" lon="7.542549">
        <ele>243.0</ele>
        <time>2020-07-12T11:32:15Z</time>
      </trkpt>
      <trkpt lat="48.010558" lon="7.542682">
        <ele>242.0</ele>
        <time>2020-07-12T11:32:17Z</time>
      </trkpt>
      <trkpt lat="48.010494" lon="7.542817">
        <ele>241.0</ele>
        <time>2020-07-12T11:32:19Z</time>
      </trkpt>
      <trkpt lat="48.010401" lon="7.543028">
        <ele>241.0</ele>
        <time>2020-07-12T11:32:22Z</time>
      </trkpt>
      <trkpt lat="48.010338" lon="7.543168">
        <ele>241.0</ele>
        <time>2020-07-12T11:32:24Z</time>
      </trkpt>
      <trkpt lat="48.010275" lon="7.543302">
        <ele>241.0</ele>
        <time>2020-07-12T11:32:26Z</time>
      </trkpt>
      <trkpt lat="48.010181" lon="7.543512">
        <ele>241.0</ele>
        <time>2020-07-12T11:32:29Z</time>
      </trkpt>
      <trkpt lat="48.010138" lon="7.543663">
        <ele>241.0</ele>
        <time>2020-07-12T11:32:31Z</time>
      </trkpt>
      <trkpt lat="48.010125" lon="7.543809">
        <ele>241.0</ele>
        <time>2020-07-12T11:32:33Z</time>
      </trkpt>
      <trkpt lat="48.010082" lon="7.54388">
        <ele>242.0</ele>
        <time>2020-07-12T11:32:35Z</time>
      </trkpt>
      <trkpt lat="48.010025" lon="7.543891">
        <ele>242.0</ele>
        <time>2020-07-12T11:32:37Z</time>
      </trkpt>
      <trkpt lat="48.009978" lon="7.543932">
        <ele>242.0</ele>
        <time>2020-07-12T11:32:39Z</time>
      </trkpt>
      <trkpt lat="48.009953" lon="7.543999">
        <ele>242.0</ele>
        <time>2020-07-12T11:32:41Z</time>
      </trkpt>
      <trkpt lat="48.009904" lon="7.544053">
        <ele>242.0</ele>
        <time>2020-07-12T11:32:43Z</time>
      </trkpt>
      <trkpt lat="48.009798" lon="7.544176">
        <ele>241.0</ele>
        <time>2020-07-12T11:32:46Z</time>
      </trkpt>
      <trkpt lat="48.009718" lon="7.544282">
        <ele>241.0</ele>
        <time>2020-07-12T11:32:48Z</time>
      </trkpt>
      <trkpt lat="48.009619" lon="7.5444">
        <ele>241.0</ele>
        <time>2020-07-12T11:32:50Z</time>
      </trkpt>
      <trkpt lat="48.009568" lon="7.544468">
        <ele>240.0</ele>
        <time>2020-07-12T11:32:51Z</time>
      </trkpt>
      <trkpt lat="48.009406" lon="7.544667">
        <ele>239.0</ele>
        <time>2020-07-12T11:32:54Z</time>
      </trkpt>
      <trkpt lat="48.009299" lon="7.544801">
        <ele>239.0</ele>
        <time>2020-07-12T11:32:56Z</time>
      </trkpt>
      <trkpt lat="48.009192" lon="7.54492">
        <ele>240.0</ele>
        <time>2020-07-12T11:32:58Z</time>
      </trkpt>
      <trkpt lat="48.009107" lon="7.545108">
        <ele>239.0</ele>
        <time>2020-07-12T11:33:01Z</time>
      </trkpt>
      <trkpt lat="48.009084" lon="7.545204">
        <ele>241.0</ele>
        <time>2020-07-12T11:33:03Z</time>
      </trkpt>
      <trkpt lat="48.009022" lon="7.545323">
        <ele>241.0</ele>
        <time>2020-07-12T11:33:06Z</time>
      </trkpt>
      <trkpt lat="48.008983" lon="7.545407">
        <ele>241.0</ele>
        <time>2020-07-12T11:33:08Z</time>
      </trkpt>
      <trkpt lat="48.008942" lon="7.545467">
        <ele>242.0</ele>
        <time>2020-07-12T11:33:10Z</time>
      </trkpt>
      <trkpt lat="48.008875" lon="7.545418">
        <ele>241.0</ele>
        <time>2020-07-12T11:33:13Z</time>
      </trkpt>
      <trkpt lat="48.008817" lon="7.54539">
        <ele>242.0</ele>
        <time>2020-07-12T11:33:15Z</time>
      </trkpt>
      <trkpt lat="48.008733" lon="7.54546">
        <ele>241.0</ele>
        <time>2020-07-12T11:33:17Z</time>
      </trkpt>
      <trkpt lat="48.008683" lon="7.545575">
        <ele>241.0</ele>
        <time>2020-07-12T11:33:19Z</time>
      </trkpt>
      <trkpt lat="48.008628" lon="7.545694">
        <ele>241.0</ele>
        <time>2020-07-12T11:33:21Z</time>
      </trkpt>
      <trkpt lat="48.008546" lon="7.545892">
        <ele>240.0</ele>
        <time>2020-07-12T11:33:24Z</time>
      </trkpt>
      <trkpt lat="48.008491" lon="7.546031">
        <ele>240.0</ele>
        <time>2020-07-12T11:33:26Z</time>
      </trkpt>
      <trkpt lat="48.008435" lon="7.546171">
        <ele>240.0</ele>
        <time>2020-07-12T11:33:28Z</time>
      </trkpt>
      <trkpt lat="48.008386" lon="7.546312">
        <ele>240.0</ele>
        <time>2020-07-12T11:33:30Z</time>
      </trkpt>
      <trkpt lat="48.008314" lon="7.546503">
        <ele>240.0</ele>
        <time>2020-07-12T11:33:33Z</time>
      </trkpt>
      <trkpt lat="48.008276" lon="7.546641">
        <ele>240.0</ele>
        <time>2020-07-12T11:33:35Z</time>
      </trkpt>
      <trkpt lat="48.008245" lon="7.546786">
        <ele>241.0</ele>
        <time>2020-07-12T11:33:37Z</time>
      </trkpt>
      <trkpt lat="48.008225" lon="7.546939">
        <ele>241.0</ele>
        <time>2020-07-12T11:33:39Z</time>
      </trkpt>
      <trkpt lat="48.008217" lon="7.547102">
        <ele>241.0</ele>
        <time>2020-07-12T11:33:41Z</time>
      </trkpt>
      <trkpt lat="48.008205" lon="7.547278">
        <ele>241.0</ele>
        <time>2020-07-12T11:33:43Z</time>
      </trkpt>
      <trkpt lat="48.008195" lon="7.547449">
        <ele>240.0</ele>
        <time>2020-07-12T11:33:45Z</time>
      </trkpt>
      <trkpt lat="48.008186" lon="7.54771">
        <ele>241.0</ele>
        <time>2020-07-12T11:33:48Z</time>
      </trkpt>
      <trkpt lat="48.00817" lon="7.547982">
        <ele>241.0</ele>
        <time>2020-07-12T11:33:51Z</time>
      </trkpt>
      <trkpt lat="48.008149" lon="7.54824">
        <ele>241.0</ele>
        <time>2020-07-12T11:33:54Z</time>
      </trkpt>
      <trkpt lat="48.008138" lon="7.548412">
        <ele>241.0</ele>
        <time>2020-07-12T11:33:56Z</time>
      </trkpt>
      <trkpt lat="48.008131" lon="7.548578">
        <ele>241.0</ele>
        <time>2020-07-12T11:33:58Z</time>
      </trkpt>
      <trkpt lat="48.008122" lon="7.548748">
        <ele>241.0</ele>
        <time>2020-07-12T11:34:00Z</time>
      </trkpt>
      <trkpt lat="48.008115" lon="7.548925">
        <ele>241.0</ele>
        <time>2020-07-12T11:34:02Z</time>
      </trkpt>
      <trkpt lat="48.008101" lon="7.549088">
        <ele>241.0</ele>
        <time>2020-07-12T11:34:04Z</time>
      </trkpt>
      <trkpt lat="48.008098" lon="7.549256">
        <ele>241.0</ele>
        <time>2020-07-12T11:34:06Z</time>
      </trkpt>
      <trkpt lat="48.008089" lon="7.549424">
        <ele>241.0</ele>
        <time>2020-07-12T11:34:08Z</time>
      </trkpt>
      <trkpt lat="48.008082" lon="7.549589">
        <ele>241.0</ele>
        <time>2020-07-12T11:34:10Z</time>
      </trkpt>
      <trkpt lat="48.008075" lon="7.549756">
        <ele>242.0</ele>
        <time>2020-07-12T11:34:12Z</time>
      </trkpt>
      <trkpt lat="48.00807" lon="7.550016">
        <ele>242.0</ele>
        <time>2020-07-12T11:34:15Z</time>
      </trkpt>
      <trkpt lat="48.008061" lon="7.550199">
        <ele>241.0</ele>
        <time>2020-07-12T11:34:17Z</time>
      </trkpt>
      <trkpt lat="48.008055" lon="7.550382">
        <ele>241.0</ele>
        <time>2020-07-12T11:34:19Z</time>
      </trkpt>
      <trkpt lat="48.00805" lon="7.550559">
        <ele>241.0</ele>
        <time>2020-07-12T11:34:21Z</time>
      </trkpt>
      <trkpt lat="48.008042" lon="7.550741">
        <ele>241.0</ele>
        <time>2020-07-12T11:34:23Z</time>
      </trkpt>
      <trkpt lat="48.008027" lon="7.550996">
        <ele>240.0</ele>
        <time>2020-07-12T11:34:26Z</time>
      </trkpt>
      <trkpt lat="48.008016" lon="7.551167">
        <ele>241.0</ele>
        <time>2020-07-12T11:34:28Z</time>
      </trkpt>
      <trkpt lat="48.008013" lon="7.551251">
        <ele>241.0</ele>
        <time>2020-07-12T11:34:29Z</time>
      </trkpt>
      <trkpt lat="48.008002" lon="7.551489">
        <ele>241.0</ele>
        <time>2020-07-12T11:34:32Z</time>
      </trkpt>
      <trkpt lat="48.007987" lon="7.551707">
        <ele>241.0</ele>
        <time>2020-07-12T11:34:35Z</time>
      </trkpt>
      <trkpt lat="48.007985" lon="7.551778">
        <ele>241.0</ele>
        <time>2020-07-12T11:34:36Z</time>
      </trkpt>
      <trkpt lat="48.007972" lon="7.552008">
        <ele>241.0</ele>
        <time>2020-07-12T11:34:39Z</time>
      </trkpt>
      <trkpt lat="48.007953" lon="7.552244">
        <ele>241.0</ele>
        <time>2020-07-12T11:34:42Z</time>
      </trkpt>
      <trkpt lat="48.007941" lon="7.552399">
        <ele>241.0</ele>
        <time>2020-07-12T11:34:44Z</time>
      </trkpt>
      <trkpt lat="48.007923" lon="7.552548">
        <ele>241.0</ele>
        <time>2020-07-12T11:34:46Z</time>
      </trkpt>
      <trkpt lat="48.007893" lon="7.552702">
        <ele>241.0</ele>
        <time>2020-07-12T11:34:48Z</time>
      </trkpt>
      <trkpt lat="48.00784" lon="7.552915">
        <ele>241.0</ele>
        <time>2020-07-12T11:34:51Z</time>
      </trkpt>
      <trkpt lat="48.007803" lon="7.553066">
        <ele>241.0</ele>
        <time>2020-07-12T11:34:53Z</time>
      </trkpt>
      <trkpt lat="48.00776" lon="7.553212">
        <ele>241.0</ele>
        <time>2020-07-12T11:34:55Z</time>
      </trkpt>
      <trkpt lat="48.007741" lon="7.553284">
        <ele>241.0</ele>
        <time>2020-07-12T11:34:56Z</time>
      </trkpt>
      <trkpt lat="48.007681" lon="7.553494">
        <ele>241.0</ele>
        <time>2020-07-12T11:34:59Z</time>
      </trkpt>
      <trkpt lat="48.007643" lon="7.553642">
        <ele>241.0</ele>
        <time>2020-07-12T11:35:01Z</time>
      </trkpt>
      <trkpt lat="48.007602" lon="7.553785">
        <ele>241.0</ele>
        <time>2020-07-12T11:35:03Z</time>
      </trkpt>
      <trkpt lat="48.007539" lon="7.554004">
        <ele>241.0</ele>
        <time>2020-07-12T11:35:06Z</time>
      </trkpt>
      <trkpt lat="48.007502" lon="7.554153">
        <ele>242.0</ele>
        <time>2020-07-12T11:35:08Z</time>
      </trkpt>
      <trkpt lat="48.007467" lon="7.554306">
        <ele>242.0</ele>
        <time>2020-07-12T11:35:10Z</time>
      </trkpt>
      <trkpt lat="48.007427" lon="7.554469">
        <ele>241.0</ele>
        <time>2020-07-12T11:35:12Z</time>
      </trkpt>
      <trkpt lat="48.007389" lon="7.554634">
        <ele>241.0</ele>
        <time>2020-07-12T11:35:14Z</time>
      </trkpt>
      <trkpt lat="48.007325" lon="7.554896">
        <ele>241.0</ele>
        <time>2020-07-12T11:35:17Z</time>
      </trkpt>
      <trkpt lat="48.007304" lon="7.554977">
        <ele>241.0</ele>
        <time>2020-07-12T11:35:18Z</time>
      </trkpt>
      <trkpt lat="48.007229" lon="7.555212">
        <ele>241.0</ele>
        <time>2020-07-12T11:35:21Z</time>
      </trkpt>
      <trkpt lat="48.007171" lon="7.555353">
        <ele>240.0</ele>
        <time>2020-07-12T11:35:23Z</time>
      </trkpt>
      <trkpt lat="48.007098" lon="7.555455">
        <ele>241.0</ele>
        <time>2020-07-12T11:35:25Z</time>
      </trkpt>
      <trkpt lat="48.00698" lon="7.555578">
        <ele>240.0</ele>
        <time>2020-07-12T11:35:28Z</time>
      </trkpt>
      <trkpt lat="48.006896" lon="7.555627">
        <ele>240.0</ele>
        <time>2020-07-12T11:35:30Z</time>
      </trkpt>
      <trkpt lat="48.006851" lon="7.555611">
        <ele>240.0</ele>
        <time>2020-07-12T11:35:31Z</time>
      </trkpt>
      <trkpt lat="48.006746" lon="7.55547">
        <ele>240.0</ele>
        <time>2020-07-12T11:35:34Z</time>
      </trkpt>
      <trkpt lat="48.00662" lon="7.555343">
        <ele>241.0</ele>
        <time>2020-07-12T11:35:37Z</time>
      </trkpt>
      <trkpt lat="48.006529" lon="7.555244">
        <ele>241.0</ele>
        <time>2020-07-12T11:35:39Z</time>
      </trkpt>
      <trkpt lat="48.006435" lon="7.555152">
        <ele>241.0</ele>
        <time>2020-07-12T11:35:41Z</time>
      </trkpt>
      <trkpt lat="48.006292" lon="7.554992">
        <ele>241.0</ele>
        <time>2020-07-12T11:35:44Z</time>
      </trkpt>
      <trkpt lat="48.006205" lon="7.554898">
        <ele>241.0</ele>
        <time>2020-07-12T11:35:46Z</time>
      </trkpt>
      <trkpt lat="48.006113" lon="7.554793">
        <ele>241.0</ele>
        <time>2020-07-12T11:35:48Z</time>
      </trkpt>
      <trkpt lat="48.006015" lon="7.554689">
        <ele>240.0</ele>
        <time>2020-07-12T11:35:50Z</time>
      </trkpt>
      <trkpt lat="48.005922" lon="7.554586">
        <ele>241.0</ele>
        <time>2020-07-12T11:35:52Z</time>
      </trkpt>
      <trkpt lat="48.005817" lon="7.554478">
        <ele>240.0</ele>
        <time>2020-07-12T11:35:54Z</time>
      </trkpt>
      <trkpt lat="48.005714" lon="7.554361">
        <ele>240.0</ele>
        <time>2020-07-12T11:35:56Z</time>
      </trkpt>
      <trkpt lat="48.005613" lon="7.554245">
        <ele>241.0</ele>
        <time>2020-07-12T11:35:58Z</time>
      </trkpt>
      <trkpt lat="48.005513" lon="7.554133">
        <ele>240.0</ele>
        <time>2020-07-12T11:36:00Z</time>
      </trkpt>
      <trkpt lat="48.005413" lon="7.554031">
        <ele>240.0</ele>
        <time>2020-07-12T11:36:02Z</time>
      </trkpt>
      <trkpt lat="48.005317" lon="7.553917">
        <ele>240.0</ele>
        <time>2020-07-12T11:36:04Z</time>
      </trkpt>
      <trkpt lat="48.005218" lon="7.553805">
        <ele>239.0</ele>
        <time>2020-07-12T11:36:06Z</time>
      </trkpt>
      <trkpt lat="48.005122" lon="7.553686">
        <ele>239.0</ele>
        <time>2020-07-12T11:36:08Z</time>
      </trkpt>
      <trkpt lat="48.005022" lon="7.553576">
        <ele>240.0</ele>
        <time>2020-07-12T11:36:10Z</time>
      </trkpt>
      <trkpt lat="48.004926" lon="7.553471">
        <ele>239.0</ele>
        <time>2020-07-12T11:36:12Z</time>
      </trkpt>
      <trkpt lat="48.004832" lon="7.55336">
        <ele>240.0</ele>
        <time>2020-07-12T11:36:14Z</time>
      </trkpt>
      <trkpt lat="48.004734" lon="7.553238">
        <ele>240.0</ele>
        <time>2020-07-12T11:36:16Z</time>
      </trkpt>
      <trkpt lat="48.004634" lon="7.55313">
        <ele>240.0</ele>
        <time>2020-07-12T11:36:18Z</time>
      </trkpt>
      <trkpt lat="48.004528" lon="7.553024">
        <ele>240.0</ele>
        <time>2020-07-12T11:36:20Z</time>
      </trkpt>
      <trkpt lat="48.004377" lon="7.552871">
        <ele>240.0</ele>
        <time>2020-07-12T11:36:23Z</time>
      </trkpt>
      <trkpt lat="48.004274" lon="7.552763">
        <ele>240.0</ele>
        <time>2020-07-12T11:36:25Z</time>
      </trkpt>
      <trkpt lat="48.004172" lon="7.552647">
        <ele>239.0</ele>
        <time>2020-07-12T11:36:27Z</time>
      </trkpt>
      <trkpt lat="48.004071" lon="7.552533">
        <ele>240.0</ele>
        <time>2020-07-12T11:36:29Z</time>
      </trkpt>
      <trkpt lat="48.003966" lon="7.552427">
        <ele>240.0</ele>
        <time>2020-07-12T11:36:31Z</time>
      </trkpt>
      <trkpt lat="48.003857" lon="7.552328">
        <ele>240.0</ele>
        <time>2020-07-12T11:36:33Z</time>
      </trkpt>
      <trkpt lat="48.003747" lon="7.552223">
        <ele>240.0</ele>
        <time>2020-07-12T11:36:35Z</time>
      </trkpt>
      <trkpt lat="48.003693" lon="7.552165">
        <ele>240.0</ele>
        <time>2020-07-12T11:36:36Z</time>
      </trkpt>
      <trkpt lat="48.003534" lon="7.552003">
        <ele>240.0</ele>
        <time>2020-07-12T11:36:39Z</time>
      </trkpt>
      <trkpt lat="48.003429" lon="7.551902">
        <ele>240.0</ele>
        <time>2020-07-12T11:36:41Z</time>
      </trkpt>
      <trkpt lat="48.003316" lon="7.551799">
        <ele>240.0</ele>
        <time>2020-07-12T11:36:43Z</time>
      </trkpt>
      <trkpt lat="48.003208" lon="7.551705">
        <ele>240.0</ele>
        <time>2020-07-12T11:36:45Z</time>
      </trkpt>
      <trkpt lat="48.003039" lon="7.551561">
        <ele>241.0</ele>
        <time>2020-07-12T11:36:48Z</time>
      </trkpt>
      <trkpt lat="48.002929" lon="7.551471">
        <ele>241.0</ele>
        <time>2020-07-12T11:36:50Z</time>
      </trkpt>
      <trkpt lat="48.002765" lon="7.551345">
        <ele>241.0</ele>
        <time>2020-07-12T11:36:53Z</time>
      </trkpt>
      <trkpt lat="48.002603" lon="7.551216">
        <ele>241.0</ele>
        <time>2020-07-12T11:36:56Z</time>
      </trkpt>
      <trkpt lat="48.002488" lon="7.551131">
        <ele>241.0</ele>
        <time>2020-07-12T11:36:58Z</time>
      </trkpt>
      <trkpt lat="48.002377" lon="7.551047">
        <ele>241.0</ele>
        <time>2020-07-12T11:37:00Z</time>
      </trkpt>
      <trkpt lat="48.002206" lon="7.550922">
        <ele>241.0</ele>
        <time>2020-07-12T11:37:03Z</time>
      </trkpt>
      <trkpt lat="48.002091" lon="7.550853">
        <ele>241.0</ele>
        <time>2020-07-12T11:37:05Z</time>
      </trkpt>
      <trkpt lat="48.001924" lon="7.550747">
        <ele>241.0</ele>
        <time>2020-07-12T11:37:08Z</time>
      </trkpt>
      <trkpt lat="48.001821" lon="7.550686">
        <ele>241.0</ele>
        <time>2020-07-12T11:37:10Z</time>
      </trkpt>
      <trkpt lat="48.001712" lon="7.550624">
        <ele>242.0</ele>
        <time>2020-07-12T11:37:12Z</time>
      </trkpt>
      <trkpt lat="48.001597" lon="7.550573">
        <ele>241.0</ele>
        <time>2020-07-12T11:37:14Z</time>
      </trkpt>
      <trkpt lat="48.00148" lon="7.550517">
        <ele>241.0</ele>
        <time>2020-07-12T11:37:16Z</time>
      </trkpt>
      <trkpt lat="48.001364" lon="7.550457">
        <ele>241.0</ele>
        <time>2020-07-12T11:37:18Z</time>
      </trkpt>
      <trkpt lat="48.001207" lon="7.550363">
        <ele>242.0</ele>
        <time>2020-07-12T11:37:21Z</time>
      </trkpt>
      <trkpt lat="48.001099" lon="7.550306">
        <ele>242.0</ele>
        <time>2020-07-12T11:37:23Z</time>
      </trkpt>
      <trkpt lat="48.000986" lon="7.550245">
        <ele>242.0</ele>
        <time>2020-07-12T11:37:25Z</time>
      </trkpt>
      <trkpt lat="48.000875" lon="7.55019">
        <ele>242.0</ele>
        <time>2020-07-12T11:37:27Z</time>
      </trkpt>
      <trkpt lat="48.00076" lon="7.550141">
        <ele>242.0</ele>
        <time>2020-07-12T11:37:29Z</time>
      </trkpt>
      <trkpt lat="48.000647" lon="7.550097">
        <ele>242.0</ele>
        <time>2020-07-12T11:37:31Z</time>
      </trkpt>
      <trkpt lat="48.000526" lon="7.550052">
        <ele>241.0</ele>
        <time>2020-07-12T11:37:33Z</time>
      </trkpt>
      <trkpt lat="48.000404" lon="7.550013">
        <ele>242.0</ele>
        <time>2020-07-12T11:37:35Z</time>
      </trkpt>
      <trkpt lat="48.000232" lon="7.549947">
        <ele>242.0</ele>
        <time>2020-07-12T11:37:38Z</time>
      </trkpt>
      <trkpt lat="48.00005" lon="7.54989">
        <ele>242.0</ele>
        <time>2020-07-12T11:37:41Z</time>
      </trkpt>
      <trkpt lat="47.999929" lon="7.549856">
        <ele>242.0</ele>
        <time>2020-07-12T11:37:43Z</time>
      </trkpt>
      <trkpt lat="47.999807" lon="7.549823">
        <ele>243.0</ele>
        <time>2020-07-12T11:37:45Z</time>
      </trkpt>
      <trkpt lat="47.99962" lon="7.549778">
        <ele>243.0</ele>
        <time>2020-07-12T11:37:48Z</time>
      </trkpt>
      <trkpt lat="47.999379" lon="7.549726">
        <ele>244.0</ele>
        <time>2020-07-12T11:37:52Z</time>
      </trkpt>
      <trkpt lat="47.999256" lon="7.549692">
        <ele>244.0</ele>
        <time>2020-07-12T11:37:54Z</time>
      </trkpt>
      <trkpt lat="47.999141" lon="7.549668">
        <ele>244.0</ele>
        <time>2020-07-12T11:37:56Z</time>
      </trkpt>
      <trkpt lat="47.998963" lon="7.549634">
        <ele>243.0</ele>
        <time>2020-07-12T11:37:59Z</time>
      </trkpt>
      <trkpt lat="47.998838" lon="7.549619">
        <ele>243.0</ele>
        <time>2020-07-12T11:38:01Z</time>
      </trkpt>
      <trkpt lat="47.998716" lon="7.549602">
        <ele>244.0</ele>
        <time>2020-07-12T11:38:03Z</time>
      </trkpt>
      <trkpt lat="47.998594" lon="7.549586">
        <ele>244.0</ele>
        <time>2020-07-12T11:38:05Z</time>
      </trkpt>
      <trkpt lat="47.998475" lon="7.549569">
        <ele>245.0</ele>
        <time>2020-07-12T11:38:07Z</time>
      </trkpt>
      <trkpt lat="47.99829" lon="7.549561">
        <ele>245.0</ele>
        <time>2020-07-12T11:38:10Z</time>
      </trkpt>
      <trkpt lat="47.998172" lon="7.549551">
        <ele>245.0</ele>
        <time>2020-07-12T11:38:12Z</time>
      </trkpt>
      <trkpt lat="47.998045" lon="7.549544">
        <ele>244.0</ele>
        <time>2020-07-12T11:38:14Z</time>
      </trkpt>
      <trkpt lat="47.997922" lon="7.549545">
        <ele>244.0</ele>
        <time>2020-07-12T11:38:16Z</time>
      </trkpt>
      <trkpt lat="47.997802" lon="7.549538">
        <ele>244.0</ele>
        <time>2020-07-12T11:38:18Z</time>
      </trkpt>
      <trkpt lat="47.997681" lon="7.549538">
        <ele>244.0</ele>
        <time>2020-07-12T11:38:20Z</time>
      </trkpt>
      <trkpt lat="47.99756" lon="7.549536">
        <ele>244.0</ele>
        <time>2020-07-12T11:38:22Z</time>
      </trkpt>
      <trkpt lat="47.997442" lon="7.549543">
        <ele>244.0</ele>
        <time>2020-07-12T11:38:24Z</time>
      </trkpt>
      <trkpt lat="47.997328" lon="7.549558">
        <ele>244.0</ele>
        <time>2020-07-12T11:38:26Z</time>
      </trkpt>
      <trkpt lat="47.997157" lon="7.549572">
        <ele>244.0</ele>
        <time>2020-07-12T11:38:29Z</time>
      </trkpt>
      <trkpt lat="47.997036" lon="7.549584">
        <ele>244.0</ele>
        <time>2020-07-12T11:38:31Z</time>
      </trkpt>
      <trkpt lat="47.996921" lon="7.549597">
        <ele>244.0</ele>
        <time>2020-07-12T11:38:33Z</time>
      </trkpt>
      <trkpt lat="47.996801" lon="7.549607">
        <ele>244.0</ele>
        <time>2020-07-12T11:38:35Z</time>
      </trkpt>
      <trkpt lat="47.996618" lon="7.549627">
        <ele>244.0</ele>
        <time>2020-07-12T11:38:38Z</time>
      </trkpt>
      <trkpt lat="47.996502" lon="7.54964">
        <ele>245.0</ele>
        <time>2020-07-12T11:38:40Z</time>
      </trkpt>
      <trkpt lat="47.996385" lon="7.549646">
        <ele>245.0</ele>
        <time>2020-07-12T11:38:42Z</time>
      </trkpt>
      <trkpt lat="47.996267" lon="7.549658">
        <ele>245.0</ele>
        <time>2020-07-12T11:38:44Z</time>
      </trkpt>
      <trkpt lat="47.996082" lon="7.54967">
        <ele>245.0</ele>
        <time>2020-07-12T11:38:47Z</time>
      </trkpt>
      <trkpt lat="47.995962" lon="7.549679">
        <ele>245.0</ele>
        <time>2020-07-12T11:38:49Z</time>
      </trkpt>
      <trkpt lat="47.995835" lon="7.549692">
        <ele>245.0</ele>
        <time>2020-07-12T11:38:51Z</time>
      </trkpt>
      <trkpt lat="47.995712" lon="7.549714">
        <ele>245.0</ele>
        <time>2020-07-12T11:38:53Z</time>
      </trkpt>
      <trkpt lat="47.995586" lon="7.549747">
        <ele>245.0</ele>
        <time>2020-07-12T11:38:55Z</time>
      </trkpt>
      <trkpt lat="47.995401" lon="7.549775">
        <ele>245.0</ele>
        <time>2020-07-12T11:38:58Z</time>
      </trkpt>
      <trkpt lat="47.99528" lon="7.549787">
        <ele>245.0</ele>
        <time>2020-07-12T11:39:00Z</time>
      </trkpt>
      <trkpt lat="47.995159" lon="7.549797">
        <ele>245.0</ele>
        <time>2020-07-12T11:39:02Z</time>
      </trkpt>
      <trkpt lat="47.995038" lon="7.549805">
        <ele>245.0</ele>
        <time>2020-07-12T11:39:04Z</time>
      </trkpt>
      <trkpt lat="47.994922" lon="7.549805">
        <ele>245.0</ele>
        <time>2020-07-12T11:39:06Z</time>
      </trkpt>
      <trkpt lat="47.994801" lon="7.549813">
        <ele>245.0</ele>
        <time>2020-07-12T11:39:08Z</time>
      </trkpt>
      <trkpt lat="47.994678" lon="7.549824">
        <ele>245.0</ele>
        <time>2020-07-12T11:39:10Z</time>
      </trkpt>
      <trkpt lat="47.994553" lon="7.549842">
        <ele>245.0</ele>
        <time>2020-07-12T11:39:12Z</time>
      </trkpt>
      <trkpt lat="47.994382" lon="7.549848">
        <ele>245.0</ele>
        <time>2020-07-12T11:39:15Z</time>
      </trkpt>
      <trkpt lat="47.994263" lon="7.549852">
        <ele>245.0</ele>
        <time>2020-07-12T11:39:17Z</time>
      </trkpt>
      <trkpt lat="47.99414" lon="7.549867">
        <ele>245.0</ele>
        <time>2020-07-12T11:39:19Z</time>
      </trkpt>
      <trkpt lat="47.994022" lon="7.549878">
        <ele>245.0</ele>
        <time>2020-07-12T11:39:21Z</time>
      </trkpt>
      <trkpt lat="47.993838" lon="7.549909">
        <ele>245.0</ele>
        <time>2020-07-12T11:39:24Z</time>
      </trkpt>
      <trkpt lat="47.993722" lon="7.549921">
        <ele>245.0</ele>
        <time>2020-07-12T11:39:26Z</time>
      </trkpt>
      <trkpt lat="47.993609" lon="7.549938">
        <ele>245.0</ele>
        <time>2020-07-12T11:39:28Z</time>
      </trkpt>
      <trkpt lat="47.993454" lon="7.549958">
        <ele>244.0</ele>
        <time>2020-07-12T11:39:31Z</time>
      </trkpt>
      <trkpt lat="47.993403" lon="7.549958">
        <ele>244.0</ele>
        <time>2020-07-12T11:39:32Z</time>
      </trkpt>
      <trkpt lat="47.993246" lon="7.549975">
        <ele>243.0</ele>
        <time>2020-07-12T11:39:35Z</time>
      </trkpt>
      <trkpt lat="47.993138" lon="7.549984">
        <ele>243.0</ele>
        <time>2020-07-12T11:39:37Z</time>
      </trkpt>
      <trkpt lat="47.993033" lon="7.549995">
        <ele>243.0</ele>
        <time>2020-07-12T11:39:39Z</time>
      </trkpt>
      <trkpt lat="47.99288" lon="7.550019">
        <ele>243.0</ele>
        <time>2020-07-12T11:39:42Z</time>
      </trkpt>
      <trkpt lat="47.992776" lon="7.550029">
        <ele>244.0</ele>
        <time>2020-07-12T11:39:44Z</time>
      </trkpt>
      <trkpt lat="47.992671" lon="7.550042">
        <ele>245.0</ele>
        <time>2020-07-12T11:39:46Z</time>
      </trkpt>
      <trkpt lat="47.992565" lon="7.550061">
        <ele>245.0</ele>
        <time>2020-07-12T11:39:48Z</time>
      </trkpt>
      <trkpt lat="47.992463" lon="7.550064">
        <ele>244.0</ele>
        <time>2020-07-12T11:39:50Z</time>
      </trkpt>
      <trkpt lat="47.992352" lon="7.550081">
        <ele>244.0</ele>
        <time>2020-07-12T11:39:52Z</time>
      </trkpt>
      <trkpt lat="47.992239" lon="7.550105">
        <ele>244.0</ele>
        <time>2020-07-12T11:39:54Z</time>
      </trkpt>
      <trkpt lat="47.992066" lon="7.55013">
        <ele>245.0</ele>
        <time>2020-07-12T11:39:57Z</time>
      </trkpt>
      <trkpt lat="47.991956" lon="7.550141">
        <ele>245.0</ele>
        <time>2020-07-12T11:39:59Z</time>
      </trkpt>
      <trkpt lat="47.991841" lon="7.550155">
        <ele>245.0</ele>
        <time>2020-07-12T11:40:01Z</time>
      </trkpt>
      <trkpt lat="47.991729" lon="7.550164">
        <ele>245.0</ele>
        <time>2020-07-12T11:40:03Z</time>
      </trkpt>
      <trkpt lat="47.991561" lon="7.550177">
        <ele>246.0</ele>
        <time>2020-07-12T11:40:06Z</time>
      </trkpt>
      <trkpt lat="47.991451" lon="7.550191">
        <ele>246.0</ele>
        <time>2020-07-12T11:40:08Z</time>
      </trkpt>
      <trkpt lat="47.991337" lon="7.550203">
        <ele>246.0</ele>
        <time>2020-07-12T11:40:10Z</time>
      </trkpt>
      <trkpt lat="47.99117" lon="7.550222">
        <ele>246.0</ele>
        <time>2020-07-12T11:40:13Z</time>
      </trkpt>
      <trkpt lat="47.991058" lon="7.550242">
        <ele>246.0</ele>
        <time>2020-07-12T11:40:15Z</time>
      </trkpt>
      <trkpt lat="47.99094" lon="7.550261">
        <ele>246.0</ele>
        <time>2020-07-12T11:40:17Z</time>
      </trkpt>
      <trkpt lat="47.990822" lon="7.550272">
        <ele>246.0</ele>
        <time>2020-07-12T11:40:19Z</time>
      </trkpt>
      <trkpt lat="47.990653" lon="7.550297">
        <ele>246.0</ele>
        <time>2020-07-12T11:40:22Z</time>
      </trkpt>
      <trkpt lat="47.99054" lon="7.550313">
        <ele>246.0</ele>
        <time>2020-07-12T11:40:24Z</time>
      </trkpt>
      <trkpt lat="47.990425" lon="7.550336">
        <ele>246.0</ele>
        <time>2020-07-12T11:40:26Z</time>
      </trkpt>
      <trkpt lat="47.990247" lon="7.550355">
        <ele>247.0</ele>
        <time>2020-07-12T11:40:29Z</time>
      </trkpt>
      <trkpt lat="47.990125" lon="7.550361">
        <ele>246.0</ele>
        <time>2020-07-12T11:40:31Z</time>
      </trkpt>
      <trkpt lat="47.990005" lon="7.550377">
        <ele>246.0</ele>
        <time>2020-07-12T11:40:33Z</time>
      </trkpt>
      <trkpt lat="47.989893" lon="7.550396">
        <ele>246.0</ele>
        <time>2020-07-12T11:40:35Z</time>
      </trkpt>
      <trkpt lat="47.989775" lon="7.55041">
        <ele>245.0</ele>
        <time>2020-07-12T11:40:37Z</time>
      </trkpt>
      <trkpt lat="47.989665" lon="7.550402">
        <ele>246.0</ele>
        <time>2020-07-12T11:40:39Z</time>
      </trkpt>
      <trkpt lat="47.989565" lon="7.550421">
        <ele>246.0</ele>
        <time>2020-07-12T11:40:41Z</time>
      </trkpt>
      <trkpt lat="47.98948" lon="7.550398">
        <ele>247.0</ele>
        <time>2020-07-12T11:40:43Z</time>
      </trkpt>
      <trkpt lat="47.989421" lon="7.550385">
        <ele>247.0</ele>
        <time>2020-07-12T11:40:45Z</time>
      </trkpt>
      <trkpt lat="47.989421" lon="7.55042">
        <ele>247.0</ele>
        <time>2020-07-12T11:40:47Z</time>
      </trkpt>
      <trkpt lat="47.989429" lon="7.550515">
        <ele>246.0</ele>
        <time>2020-07-12T11:40:50Z</time>
      </trkpt>
      <trkpt lat="47.989433" lon="7.55061">
        <ele>246.0</ele>
        <time>2020-07-12T11:40:52Z</time>
      </trkpt>
      <trkpt lat="47.989435" lon="7.550713">
        <ele>246.0</ele>
        <time>2020-07-12T11:40:54Z</time>
      </trkpt>
      <trkpt lat="47.989437" lon="7.550899">
        <ele>247.0</ele>
        <time>2020-07-12T11:40:57Z</time>
      </trkpt>
      <trkpt lat="47.989434" lon="7.55104">
        <ele>247.0</ele>
        <time>2020-07-12T11:40:59Z</time>
      </trkpt>
      <trkpt lat="47.989444" lon="7.551192">
        <ele>247.0</ele>
        <time>2020-07-12T11:41:01Z</time>
      </trkpt>
      <trkpt lat="47.989454" lon="7.551342">
        <ele>245.0</ele>
        <time>2020-07-12T11:41:03Z</time>
      </trkpt>
      <trkpt lat="47.989456" lon="7.551493">
        <ele>245.0</ele>
        <time>2020-07-12T11:41:05Z</time>
      </trkpt>
      <trkpt lat="47.989461" lon="7.551644">
        <ele>244.0</ele>
        <time>2020-07-12T11:41:07Z</time>
      </trkpt>
      <trkpt lat="47.989458" lon="7.551809">
        <ele>244.0</ele>
        <time>2020-07-12T11:41:09Z</time>
      </trkpt>
      <trkpt lat="47.989455" lon="7.551981">
        <ele>243.0</ele>
        <time>2020-07-12T11:41:11Z</time>
      </trkpt>
      <trkpt lat="47.98945" lon="7.552166">
        <ele>243.0</ele>
        <time>2020-07-12T11:41:13Z</time>
      </trkpt>
      <trkpt lat="47.98944" lon="7.552342">
        <ele>243.0</ele>
        <time>2020-07-12T11:41:15Z</time>
      </trkpt>
      <trkpt lat="47.989435" lon="7.552509">
        <ele>243.0</ele>
        <time>2020-07-12T11:41:17Z</time>
      </trkpt>
      <trkpt lat="47.989431" lon="7.552665">
        <ele>243.0</ele>
        <time>2020-07-12T11:41:19Z</time>
      </trkpt>
      <trkpt lat="47.989436" lon="7.552805">
        <ele>243.0</ele>
        <time>2020-07-12T11:41:21Z</time>
      </trkpt>
      <trkpt lat="47.989436" lon="7.552881">
        <ele>242.0</ele>
        <time>2020-07-12T11:41:22Z</time>
      </trkpt>
      <trkpt lat="47.989423" lon="7.553155">
        <ele>242.0</ele>
        <time>2020-07-12T11:41:26Z</time>
      </trkpt>
      <trkpt lat="47.98942" lon="7.553275">
        <ele>242.0</ele>
        <time>2020-07-12T11:41:28Z</time>
      </trkpt>
      <trkpt lat="47.989419" lon="7.55341">
        <ele>242.0</ele>
        <time>2020-07-12T11:41:30Z</time>
      </trkpt>
      <trkpt lat="47.989421" lon="7.553613">
        <ele>242.0</ele>
        <time>2020-07-12T11:41:33Z</time>
      </trkpt>
      <trkpt lat="47.989411" lon="7.553687">
        <ele>242.0</ele>
        <time>2020-07-12T11:41:34Z</time>
      </trkpt>
      <trkpt lat="47.989345" lon="7.553876">
        <ele>242.0</ele>
        <time>2020-07-12T11:41:37Z</time>
      </trkpt>
      <trkpt lat="47.989325" lon="7.554015">
        <ele>241.0</ele>
        <time>2020-07-12T11:41:39Z</time>
      </trkpt>
      <trkpt lat="47.98933" lon="7.55415">
        <ele>242.0</ele>
        <time>2020-07-12T11:41:41Z</time>
      </trkpt>
      <trkpt lat="47.98935" lon="7.554276">
        <ele>242.0</ele>
        <time>2020-07-12T11:41:43Z</time>
      </trkpt>
      <trkpt lat="47.989374" lon="7.554397">
        <ele>242.0</ele>
        <time>2020-07-12T11:41:45Z</time>
      </trkpt>
      <trkpt lat="47.9894" lon="7.554591">
        <ele>244.0</ele>
        <time>2020-07-12T11:41:48Z</time>
      </trkpt>
      <trkpt lat="47.989419" lon="7.554717">
        <ele>243.0</ele>
        <time>2020-07-12T11:41:50Z</time>
      </trkpt>
      <trkpt lat="47.989427" lon="7.554853">
        <ele>243.0</ele>
        <time>2020-07-12T11:41:52Z</time>
      </trkpt>
      <trkpt lat="47.989422" lon="7.554994">
        <ele>243.0</ele>
        <time>2020-07-12T11:41:54Z</time>
      </trkpt>
      <trkpt lat="47.98941" lon="7.555138">
        <ele>243.0</ele>
        <time>2020-07-12T11:41:56Z</time>
      </trkpt>
      <trkpt lat="47.989416" lon="7.555283">
        <ele>243.0</ele>
        <time>2020-07-12T11:41:58Z</time>
      </trkpt>
      <trkpt lat="47.989418" lon="7.555426">
        <ele>243.0</ele>
        <time>2020-07-12T11:42:00Z</time>
      </trkpt>
      <trkpt lat="47.989402" lon="7.555569">
        <ele>243.0</ele>
        <time>2020-07-12T11:42:02Z</time>
      </trkpt>
      <trkpt lat="47.989396" lon="7.555711">
        <ele>242.0</ele>
        <time>2020-07-12T11:42:04Z</time>
      </trkpt>
      <trkpt lat="47.989395" lon="7.555862">
        <ele>242.0</ele>
        <time>2020-07-12T11:42:06Z</time>
      </trkpt>
      <trkpt lat="47.989406" lon="7.556023">
        <ele>242.0</ele>
        <time>2020-07-12T11:42:08Z</time>
      </trkpt>
      <trkpt lat="47.989424" lon="7.556179">
        <ele>242.0</ele>
        <time>2020-07-12T11:42:10Z</time>
      </trkpt>
      <trkpt lat="47.989442" lon="7.556413">
        <ele>243.0</ele>
        <time>2020-07-12T11:42:13Z</time>
      </trkpt>
      <trkpt lat="47.989457" lon="7.556571">
        <ele>243.0</ele>
        <time>2020-07-12T11:42:15Z</time>
      </trkpt>
      <trkpt lat="47.98947" lon="7.556731">
        <ele>244.0</ele>
        <time>2020-07-12T11:42:17Z</time>
      </trkpt>
      <trkpt lat="47.989481" lon="7.556871">
        <ele>243.0</ele>
        <time>2020-07-12T11:42:19Z</time>
      </trkpt>
      <trkpt lat="47.989491" lon="7.556939">
        <ele>243.0</ele>
        <time>2020-07-12T11:42:20Z</time>
      </trkpt>
      <trkpt lat="47.989502" lon="7.55714">
        <ele>243.0</ele>
        <time>2020-07-12T11:42:23Z</time>
      </trkpt>
      <trkpt lat="47.989508" lon="7.557276">
        <ele>243.0</ele>
        <time>2020-07-12T11:42:25Z</time>
      </trkpt>
      <trkpt lat="47.989532" lon="7.557422">
        <ele>242.0</ele>
        <time>2020-07-12T11:42:27Z</time>
      </trkpt>
      <trkpt lat="47.989572" lon="7.557638">
        <ele>243.0</ele>
        <time>2020-07-12T11:42:30Z</time>
      </trkpt>
      <trkpt lat="47.9896" lon="7.557774">
        <ele>243.0</ele>
        <time>2020-07-12T11:42:32Z</time>
      </trkpt>
      <trkpt lat="47.989624" lon="7.557921">
        <ele>243.0</ele>
        <time>2020-07-12T11:42:34Z</time>
      </trkpt>
      <trkpt lat="47.98966" lon="7.558132">
        <ele>242.0</ele>
        <time>2020-07-12T11:42:37Z</time>
      </trkpt>
      <trkpt lat="47.989685" lon="7.55828">
        <ele>242.0</ele>
        <time>2020-07-12T11:42:39Z</time>
      </trkpt>
      <trkpt lat="47.98971" lon="7.558435">
        <ele>242.0</ele>
        <time>2020-07-12T11:42:41Z</time>
      </trkpt>
      <trkpt lat="47.989743" lon="7.558581">
        <ele>242.0</ele>
        <time>2020-07-12T11:42:43Z</time>
      </trkpt>
      <trkpt lat="47.989768" lon="7.558731">
        <ele>242.0</ele>
        <time>2020-07-12T11:42:45Z</time>
      </trkpt>
      <trkpt lat="47.989784" lon="7.55888">
        <ele>242.0</ele>
        <time>2020-07-12T11:42:47Z</time>
      </trkpt>
      <trkpt lat="47.98981" lon="7.559017">
        <ele>242.0</ele>
        <time>2020-07-12T11:42:49Z</time>
      </trkpt>
      <trkpt lat="47.989831" lon="7.559158">
        <ele>242.0</ele>
        <time>2020-07-12T11:42:51Z</time>
      </trkpt>
      <trkpt lat="47.989874" lon="7.559369">
        <ele>242.0</ele>
        <time>2020-07-12T11:42:54Z</time>
      </trkpt>
      <trkpt lat="47.9899" lon="7.55952">
        <ele>242.0</ele>
        <time>2020-07-12T11:42:56Z</time>
      </trkpt>
      <trkpt lat="47.98992" lon="7.55966">
        <ele>243.0</ele>
        <time>2020-07-12T11:42:58Z</time>
      </trkpt>
      <trkpt lat="47.989943" lon="7.559804">
        <ele>243.0</ele>
        <time>2020-07-12T11:43:00Z</time>
      </trkpt>
      <trkpt lat="47.989969" lon="7.55996">
        <ele>243.0</ele>
        <time>2020-07-12T11:43:02Z</time>
      </trkpt>
      <trkpt lat="47.989992" lon="7.560115">
        <ele>244.0</ele>
        <time>2020-07-12T11:43:04Z</time>
      </trkpt>
      <trkpt lat="47.990017" lon="7.560339">
        <ele>244.0</ele>
        <time>2020-07-12T11:43:07Z</time>
      </trkpt>
      <trkpt lat="47.990018" lon="7.560481">
        <ele>244.0</ele>
        <time>2020-07-12T11:43:09Z</time>
      </trkpt>
      <trkpt lat="47.99002" lon="7.560701">
        <ele>244.0</ele>
        <time>2020-07-12T11:43:12Z</time>
      </trkpt>
      <trkpt lat="47.990015" lon="7.560855">
        <ele>243.0</ele>
        <time>2020-07-12T11:43:14Z</time>
      </trkpt>
      <trkpt lat="47.989972" lon="7.561076">
        <ele>243.0</ele>
        <time>2020-07-12T11:43:17Z</time>
      </trkpt>
      <trkpt lat="47.989929" lon="7.561297">
        <ele>242.0</ele>
        <time>2020-07-12T11:43:20Z</time>
      </trkpt>
      <trkpt lat="47.989905" lon="7.561509">
        <ele>242.0</ele>
        <time>2020-07-12T11:43:23Z</time>
      </trkpt>
      <trkpt lat="47.989904" lon="7.561663">
        <ele>242.0</ele>
        <time>2020-07-12T11:43:25Z</time>
      </trkpt>
      <trkpt lat="47.989906" lon="7.561824">
        <ele>242.0</ele>
        <time>2020-07-12T11:43:27Z</time>
      </trkpt>
      <trkpt lat="47.989908" lon="7.561902">
        <ele>242.0</ele>
        <time>2020-07-12T11:43:28Z</time>
      </trkpt>
      <trkpt lat="47.989916" lon="7.562129">
        <ele>243.0</ele>
        <time>2020-07-12T11:43:31Z</time>
      </trkpt>
      <trkpt lat="47.989922" lon="7.562284">
        <ele>243.0</ele>
        <time>2020-07-12T11:43:33Z</time>
      </trkpt>
      <trkpt lat="47.989928" lon="7.56244">
        <ele>244.0</ele>
        <time>2020-07-12T11:43:35Z</time>
      </trkpt>
      <trkpt lat="47.989934" lon="7.562604">
        <ele>244.0</ele>
        <time>2020-07-12T11:43:37Z</time>
      </trkpt>
      <trkpt lat="47.989937" lon="7.562683">
        <ele>244.0</ele>
        <time>2020-07-12T11:43:38Z</time>
      </trkpt>
      <trkpt lat="47.989945" lon="7.562915">
        <ele>244.0</ele>
        <time>2020-07-12T11:43:41Z</time>
      </trkpt>
      <trkpt lat="47.989953" lon="7.563072">
        <ele>244.0</ele>
        <time>2020-07-12T11:43:43Z</time>
      </trkpt>
      <trkpt lat="47.989956" lon="7.563226">
        <ele>244.0</ele>
        <time>2020-07-12T11:43:45Z</time>
      </trkpt>
      <trkpt lat="47.989959" lon="7.563374">
        <ele>244.0</ele>
        <time>2020-07-12T11:43:47Z</time>
      </trkpt>
      <trkpt lat="47.98996" lon="7.563519">
        <ele>244.0</ele>
        <time>2020-07-12T11:43:49Z</time>
      </trkpt>
      <trkpt lat="47.989959" lon="7.563756">
        <ele>245.0</ele>
        <time>2020-07-12T11:43:52Z</time>
      </trkpt>
      <trkpt lat="47.989958" lon="7.563912">
        <ele>245.0</ele>
        <time>2020-07-12T11:43:54Z</time>
      </trkpt>
      <trkpt lat="47.989958" lon="7.564068">
        <ele>245.0</ele>
        <time>2020-07-12T11:43:56Z</time>
      </trkpt>
      <trkpt lat="47.989958" lon="7.564222">
        <ele>245.0</ele>
        <time>2020-07-12T11:43:58Z</time>
      </trkpt>
      <trkpt lat="47.98996" lon="7.564452">
        <ele>245.0</ele>
        <time>2020-07-12T11:44:01Z</time>
      </trkpt>
      <trkpt lat="47.989963" lon="7.564609">
        <ele>245.0</ele>
        <time>2020-07-12T11:44:03Z</time>
      </trkpt>
      <trkpt lat="47.989962" lon="7.56477">
        <ele>245.0</ele>
        <time>2020-07-12T11:44:05Z</time>
      </trkpt>
      <trkpt lat="47.989971" lon="7.564939">
        <ele>245.0</ele>
        <time>2020-07-12T11:44:07Z</time>
      </trkpt>
      <trkpt lat="47.989986" lon="7.565107">
        <ele>245.0</ele>
        <time>2020-07-12T11:44:09Z</time>
      </trkpt>
      <trkpt lat="47.989996" lon="7.56527">
        <ele>245.0</ele>
        <time>2020-07-12T11:44:11Z</time>
      </trkpt>
      <trkpt lat="47.989993" lon="7.565528">
        <ele>245.0</ele>
        <time>2020-07-12T11:44:14Z</time>
      </trkpt>
      <trkpt lat="47.990002" lon="7.565692">
        <ele>245.0</ele>
        <time>2020-07-12T11:44:16Z</time>
      </trkpt>
      <trkpt lat="47.99001" lon="7.565854">
        <ele>245.0</ele>
        <time>2020-07-12T11:44:18Z</time>
      </trkpt>
      <trkpt lat="47.990017" lon="7.566017">
        <ele>245.0</ele>
        <time>2020-07-12T11:44:20Z</time>
      </trkpt>
      <trkpt lat="47.990031" lon="7.566185">
        <ele>245.0</ele>
        <time>2020-07-12T11:44:22Z</time>
      </trkpt>
      <trkpt lat="47.990041" lon="7.566355">
        <ele>246.0</ele>
        <time>2020-07-12T11:44:24Z</time>
      </trkpt>
      <trkpt lat="47.990045" lon="7.566521">
        <ele>245.0</ele>
        <time>2020-07-12T11:44:26Z</time>
      </trkpt>
      <trkpt lat="47.990051" lon="7.56669">
        <ele>245.0</ele>
        <time>2020-07-12T11:44:28Z</time>
      </trkpt>
      <trkpt lat="47.990073" lon="7.566945">
        <ele>245.0</ele>
        <time>2020-07-12T11:44:31Z</time>
      </trkpt>
      <trkpt lat="47.99008" lon="7.567111">
        <ele>245.0</ele>
        <time>2020-07-12T11:44:33Z</time>
      </trkpt>
      <trkpt lat="47.990084" lon="7.567278">
        <ele>245.0</ele>
        <time>2020-07-12T11:44:35Z</time>
      </trkpt>
      <trkpt lat="47.990086" lon="7.56744">
        <ele>245.0</ele>
        <time>2020-07-12T11:44:37Z</time>
      </trkpt>
      <trkpt lat="47.990098" lon="7.567607">
        <ele>245.0</ele>
        <time>2020-07-12T11:44:39Z</time>
      </trkpt>
      <trkpt lat="47.99011" lon="7.567854">
        <ele>245.0</ele>
        <time>2020-07-12T11:44:42Z</time>
      </trkpt>
      <trkpt lat="47.990122" lon="7.568021">
        <ele>246.0</ele>
        <time>2020-07-12T11:44:44Z</time>
      </trkpt>
      <trkpt lat="47.990134" lon="7.568188">
        <ele>246.0</ele>
        <time>2020-07-12T11:44:46Z</time>
      </trkpt>
      <trkpt lat="47.990139" lon="7.568274">
        <ele>246.0</ele>
        <time>2020-07-12T11:44:47Z</time>
      </trkpt>
      <trkpt lat="47.990151" lon="7.568519">
        <ele>247.0</ele>
        <time>2020-07-12T11:44:50Z</time>
      </trkpt>
      <trkpt lat="47.99015" lon="7.568678">
        <ele>246.0</ele>
        <time>2020-07-12T11:44:52Z</time>
      </trkpt>
      <trkpt lat="47.990158" lon="7.568841">
        <ele>246.0</ele>
        <time>2020-07-12T11:44:54Z</time>
      </trkpt>
      <trkpt lat="47.99017" lon="7.569007">
        <ele>246.0</ele>
        <time>2020-07-12T11:44:56Z</time>
      </trkpt>
      <trkpt lat="47.990169" lon="7.569174">
        <ele>246.0</ele>
        <time>2020-07-12T11:44:58Z</time>
      </trkpt>
      <trkpt lat="47.99017" lon="7.569341">
        <ele>245.0</ele>
        <time>2020-07-12T11:45:00Z</time>
      </trkpt>
      <trkpt lat="47.990178" lon="7.569499">
        <ele>245.0</ele>
        <time>2020-07-12T11:45:02Z</time>
      </trkpt>
      <trkpt lat="47.990186" lon="7.569652">
        <ele>244.0</ele>
        <time>2020-07-12T11:45:04Z</time>
      </trkpt>
      <trkpt lat="47.990187" lon="7.569798">
        <ele>244.0</ele>
        <time>2020-07-12T11:45:06Z</time>
      </trkpt>
      <trkpt lat="47.990199" lon="7.570032">
        <ele>244.0</ele>
        <time>2020-07-12T11:45:09Z</time>
      </trkpt>
      <trkpt lat="47.990199" lon="7.570179">
        <ele>244.0</ele>
        <time>2020-07-12T11:45:11Z</time>
      </trkpt>
      <trkpt lat="47.990202" lon="7.570336">
        <ele>244.0</ele>
        <time>2020-07-12T11:45:13Z</time>
      </trkpt>
      <trkpt lat="47.990204" lon="7.570416">
        <ele>244.0</ele>
        <time>2020-07-12T11:45:14Z</time>
      </trkpt>
      <trkpt lat="47.990221" lon="7.570652">
        <ele>243.0</ele>
        <time>2020-07-12T11:45:17Z</time>
      </trkpt>
      <trkpt lat="47.990221" lon="7.570891">
        <ele>243.0</ele>
        <time>2020-07-12T11:45:20Z</time>
      </trkpt>
      <trkpt lat="47.990219" lon="7.570976">
        <ele>243.0</ele>
        <time>2020-07-12T11:45:21Z</time>
      </trkpt>
      <trkpt lat="47.990194" lon="7.57123">
        <ele>243.0</ele>
        <time>2020-07-12T11:45:24Z</time>
      </trkpt>
      <trkpt lat="47.990138" lon="7.571491">
        <ele>243.0</ele>
        <time>2020-07-12T11:45:27Z</time>
      </trkpt>
      <trkpt lat="47.990099" lon="7.571658">
        <ele>242.0</ele>
        <time>2020-07-12T11:45:29Z</time>
      </trkpt>
      <trkpt lat="47.990038" lon="7.5719">
        <ele>242.0</ele>
        <time>2020-07-12T11:45:32Z</time>
      </trkpt>
      <trkpt lat="47.989998" lon="7.572065">
        <ele>242.0</ele>
        <time>2020-07-12T11:45:34Z</time>
      </trkpt>
      <trkpt lat="47.98998" lon="7.572145">
        <ele>242.0</ele>
        <time>2020-07-12T11:45:35Z</time>
      </trkpt>
      <trkpt lat="47.989913" lon="7.572373">
        <ele>241.0</ele>
        <time>2020-07-12T11:45:38Z</time>
      </trkpt>
      <trkpt lat="47.989878" lon="7.572527">
        <ele>242.0</ele>
        <time>2020-07-12T11:45:40Z</time>
      </trkpt>
      <trkpt lat="47.989837" lon="7.57267">
        <ele>242.0</ele>
        <time>2020-07-12T11:45:42Z</time>
      </trkpt>
      <trkpt lat="47.989806" lon="7.57281">
        <ele>242.0</ele>
        <time>2020-07-12T11:45:44Z</time>
      </trkpt>
      <trkpt lat="47.989749" lon="7.573032">
        <ele>242.0</ele>
        <time>2020-07-12T11:45:47Z</time>
      </trkpt>
      <trkpt lat="47.989716" lon="7.57318">
        <ele>242.0</ele>
        <time>2020-07-12T11:45:49Z</time>
      </trkpt>
      <trkpt lat="47.989678" lon="7.573339">
        <ele>242.0</ele>
        <time>2020-07-12T11:45:51Z</time>
      </trkpt>
      <trkpt lat="47.989641" lon="7.573492">
        <ele>243.0</ele>
        <time>2020-07-12T11:45:53Z</time>
      </trkpt>
      <trkpt lat="47.9896" lon="7.573655">
        <ele>242.0</ele>
        <time>2020-07-12T11:45:55Z</time>
      </trkpt>
      <trkpt lat="47.989535" lon="7.573891">
        <ele>242.0</ele>
        <time>2020-07-12T11:45:58Z</time>
      </trkpt>
      <trkpt lat="47.989489" lon="7.574049">
        <ele>242.0</ele>
        <time>2020-07-12T11:46:00Z</time>
      </trkpt>
      <trkpt lat="47.989443" lon="7.574202">
        <ele>242.0</ele>
        <time>2020-07-12T11:46:02Z</time>
      </trkpt>
      <trkpt lat="47.989388" lon="7.57436">
        <ele>242.0</ele>
        <time>2020-07-12T11:46:04Z</time>
      </trkpt>
      <trkpt lat="47.989313" lon="7.574592">
        <ele>242.0</ele>
        <time>2020-07-12T11:46:07Z</time>
      </trkpt>
      <trkpt lat="47.98926" lon="7.574741">
        <ele>242.0</ele>
        <time>2020-07-12T11:46:09Z</time>
      </trkpt>
      <trkpt lat="47.98921" lon="7.574893">
        <ele>242.0</ele>
        <time>2020-07-12T11:46:11Z</time>
      </trkpt>
      <trkpt lat="47.989185" lon="7.574971">
        <ele>242.0</ele>
        <time>2020-07-12T11:46:12Z</time>
      </trkpt>
      <trkpt lat="47.989109" lon="7.575192">
        <ele>242.0</ele>
        <time>2020-07-12T11:46:15Z</time>
      </trkpt>
      <trkpt lat="47.98906" lon="7.575347">
        <ele>242.0</ele>
        <time>2020-07-12T11:46:17Z</time>
      </trkpt>
      <trkpt lat="47.989015" lon="7.575492">
        <ele>242.0</ele>
        <time>2020-07-12T11:46:19Z</time>
      </trkpt>
      <trkpt lat="47.98897" lon="7.575639">
        <ele>242.0</ele>
        <time>2020-07-12T11:46:21Z</time>
      </trkpt>
      <trkpt lat="47.988896" lon="7.575864">
        <ele>242.0</ele>
        <time>2020-07-12T11:46:24Z</time>
      </trkpt>
      <trkpt lat="47.988848" lon="7.576004">
        <ele>242.0</ele>
        <time>2020-07-12T11:46:26Z</time>
      </trkpt>
      <trkpt lat="47.988825" lon="7.576076">
        <ele>242.0</ele>
        <time>2020-07-12T11:46:27Z</time>
      </trkpt>
      <trkpt lat="47.988756" lon="7.576288">
        <ele>242.0</ele>
        <time>2020-07-12T11:46:30Z</time>
      </trkpt>
      <trkpt lat="47.988706" lon="7.576423">
        <ele>243.0</ele>
        <time>2020-07-12T11:46:32Z</time>
      </trkpt>
      <trkpt lat="47.988659" lon="7.576571">
        <ele>242.0</ele>
        <time>2020-07-12T11:46:34Z</time>
      </trkpt>
      <trkpt lat="47.988589" lon="7.576784">
        <ele>242.0</ele>
        <time>2020-07-12T11:46:37Z</time>
      </trkpt>
      <trkpt lat="47.988546" lon="7.576916">
        <ele>242.0</ele>
        <time>2020-07-12T11:46:39Z</time>
      </trkpt>
      <trkpt lat="47.988499" lon="7.577053">
        <ele>242.0</ele>
        <time>2020-07-12T11:46:41Z</time>
      </trkpt>
      <trkpt lat="47.988474" lon="7.577125">
        <ele>242.0</ele>
        <time>2020-07-12T11:46:42Z</time>
      </trkpt>
      <trkpt lat="47.988399" lon="7.577342">
        <ele>242.0</ele>
        <time>2020-07-12T11:46:45Z</time>
      </trkpt>
      <trkpt lat="47.988331" lon="7.577559">
        <ele>242.0</ele>
        <time>2020-07-12T11:46:48Z</time>
      </trkpt>
      <trkpt lat="47.988256" lon="7.577775">
        <ele>242.0</ele>
        <time>2020-07-12T11:46:51Z</time>
      </trkpt>
      <trkpt lat="47.988213" lon="7.577921">
        <ele>242.0</ele>
        <time>2020-07-12T11:46:53Z</time>
      </trkpt>
      <trkpt lat="47.988164" lon="7.578078">
        <ele>242.0</ele>
        <time>2020-07-12T11:46:55Z</time>
      </trkpt>
      <trkpt lat="47.988127" lon="7.578236">
        <ele>242.0</ele>
        <time>2020-07-12T11:46:57Z</time>
      </trkpt>
      <trkpt lat="47.988079" lon="7.578398">
        <ele>242.0</ele>
        <time>2020-07-12T11:46:59Z</time>
      </trkpt>
      <trkpt lat="47.988034" lon="7.578559">
        <ele>242.0</ele>
        <time>2020-07-12T11:47:01Z</time>
      </trkpt>
      <trkpt lat="47.987989" lon="7.578711">
        <ele>242.0</ele>
        <time>2020-07-12T11:47:03Z</time>
      </trkpt>
      <trkpt lat="47.987959" lon="7.578859">
        <ele>242.0</ele>
        <time>2020-07-12T11:47:05Z</time>
      </trkpt>
      <trkpt lat="47.987923" lon="7.579009">
        <ele>243.0</ele>
        <time>2020-07-12T11:47:07Z</time>
      </trkpt>
      <trkpt lat="47.987882" lon="7.579157">
        <ele>243.0</ele>
        <time>2020-07-12T11:47:09Z</time>
      </trkpt>
      <trkpt lat="47.987839" lon="7.579307">
        <ele>243.0</ele>
        <time>2020-07-12T11:47:11Z</time>
      </trkpt>
      <trkpt lat="47.987806" lon="7.579455">
        <ele>243.0</ele>
        <time>2020-07-12T11:47:13Z</time>
      </trkpt>
      <trkpt lat="47.987774" lon="7.579606">
        <ele>243.0</ele>
        <time>2020-07-12T11:47:15Z</time>
      </trkpt>
      <trkpt lat="47.987742" lon="7.57975">
        <ele>243.0</ele>
        <time>2020-07-12T11:47:17Z</time>
      </trkpt>
      <trkpt lat="47.98771" lon="7.579894">
        <ele>243.0</ele>
        <time>2020-07-12T11:47:19Z</time>
      </trkpt>
      <trkpt lat="47.987674" lon="7.580036">
        <ele>243.0</ele>
        <time>2020-07-12T11:47:21Z</time>
      </trkpt>
      <trkpt lat="47.987634" lon="7.580172">
        <ele>243.0</ele>
        <time>2020-07-12T11:47:23Z</time>
      </trkpt>
      <trkpt lat="47.987607" lon="7.58031">
        <ele>243.0</ele>
        <time>2020-07-12T11:47:25Z</time>
      </trkpt>
      <trkpt lat="47.987574" lon="7.580452">
        <ele>243.0</ele>
        <time>2020-07-12T11:47:27Z</time>
      </trkpt>
      <trkpt lat="47.987538" lon="7.580587">
        <ele>243.0</ele>
        <time>2020-07-12T11:47:29Z</time>
      </trkpt>
      <trkpt lat="47.987503" lon="7.580736">
        <ele>243.0</ele>
        <time>2020-07-12T11:47:31Z</time>
      </trkpt>
      <trkpt lat="47.987469" lon="7.580882">
        <ele>243.0</ele>
        <time>2020-07-12T11:47:33Z</time>
      </trkpt>
      <trkpt lat="47.987429" lon="7.581019">
        <ele>242.0</ele>
        <time>2020-07-12T11:47:35Z</time>
      </trkpt>
      <trkpt lat="47.987394" lon="7.581166">
        <ele>242.0</ele>
        <time>2020-07-12T11:47:37Z</time>
      </trkpt>
      <trkpt lat="47.98737" lon="7.58131">
        <ele>242.0</ele>
        <time>2020-07-12T11:47:39Z</time>
      </trkpt>
      <trkpt lat="47.987337" lon="7.581469">
        <ele>242.0</ele>
        <time>2020-07-12T11:47:41Z</time>
      </trkpt>
      <trkpt lat="47.987309" lon="7.581631">
        <ele>242.0</ele>
        <time>2020-07-12T11:47:43Z</time>
      </trkpt>
      <trkpt lat="47.987294" lon="7.581779">
        <ele>242.0</ele>
        <time>2020-07-12T11:47:45Z</time>
      </trkpt>
      <trkpt lat="47.987273" lon="7.581923">
        <ele>242.0</ele>
        <time>2020-07-12T11:47:47Z</time>
      </trkpt>
      <trkpt lat="47.987251" lon="7.582058">
        <ele>242.0</ele>
        <time>2020-07-12T11:47:49Z</time>
      </trkpt>
      <trkpt lat="47.987239" lon="7.582184">
        <ele>242.0</ele>
        <time>2020-07-12T11:47:51Z</time>
      </trkpt>
      <trkpt lat="47.987209" lon="7.582309">
        <ele>241.0</ele>
        <time>2020-07-12T11:47:53Z</time>
      </trkpt>
      <trkpt lat="47.987176" lon="7.582486">
        <ele>241.0</ele>
        <time>2020-07-12T11:47:56Z</time>
      </trkpt>
      <trkpt lat="47.987162" lon="7.5826">
        <ele>242.0</ele>
        <time>2020-07-12T11:47:58Z</time>
      </trkpt>
      <trkpt lat="47.987138" lon="7.582711">
        <ele>242.0</ele>
        <time>2020-07-12T11:48:00Z</time>
      </trkpt>
      <trkpt lat="47.987124" lon="7.58277">
        <ele>242.0</ele>
        <time>2020-07-12T11:48:01Z</time>
      </trkpt>
      <trkpt lat="47.987083" lon="7.582958">
        <ele>242.0</ele>
        <time>2020-07-12T11:48:04Z</time>
      </trkpt>
      <trkpt lat="47.987054" lon="7.583097">
        <ele>241.0</ele>
        <time>2020-07-12T11:48:06Z</time>
      </trkpt>
      <trkpt lat="47.987026" lon="7.583231">
        <ele>242.0</ele>
        <time>2020-07-12T11:48:08Z</time>
      </trkpt>
      <trkpt lat="47.987004" lon="7.583371">
        <ele>242.0</ele>
        <time>2020-07-12T11:48:10Z</time>
      </trkpt>
      <trkpt lat="47.986978" lon="7.583526">
        <ele>242.0</ele>
        <time>2020-07-12T11:48:12Z</time>
      </trkpt>
      <trkpt lat="47.986947" lon="7.583671">
        <ele>242.0</ele>
        <time>2020-07-12T11:48:14Z</time>
      </trkpt>
      <trkpt lat="47.986911" lon="7.583812">
        <ele>242.0</ele>
        <time>2020-07-12T11:48:16Z</time>
      </trkpt>
      <trkpt lat="47.986869" lon="7.583955">
        <ele>242.0</ele>
        <time>2020-07-12T11:48:18Z</time>
      </trkpt>
      <trkpt lat="47.986816" lon="7.584099">
        <ele>242.0</ele>
        <time>2020-07-12T11:48:20Z</time>
      </trkpt>
      <trkpt lat="47.986787" lon="7.584172">
        <ele>242.0</ele>
        <time>2020-07-12T11:48:21Z</time>
      </trkpt>
      <trkpt lat="47.986688" lon="7.584367">
        <ele>241.0</ele>
        <time>2020-07-12T11:48:24Z</time>
      </trkpt>
      <trkpt lat="47.986619" lon="7.584508">
        <ele>242.0</ele>
        <time>2020-07-12T11:48:26Z</time>
      </trkpt>
      <trkpt lat="47.986551" lon="7.584646">
        <ele>242.0</ele>
        <time>2020-07-12T11:48:28Z</time>
      </trkpt>
      <trkpt lat="47.986478" lon="7.58478">
        <ele>242.0</ele>
        <time>2020-07-12T11:48:30Z</time>
      </trkpt>
      <trkpt lat="47.986359" lon="7.584978">
        <ele>243.0</ele>
        <time>2020-07-12T11:48:33Z</time>
      </trkpt>
      <trkpt lat="47.986257" lon="7.585167">
        <ele>242.0</ele>
        <time>2020-07-12T11:48:36Z</time>
      </trkpt>
      <trkpt lat="47.986191" lon="7.585292">
        <ele>242.0</ele>
        <time>2020-07-12T11:48:38Z</time>
      </trkpt>
      <trkpt lat="47.986098" lon="7.585487">
        <ele>241.0</ele>
        <time>2020-07-12T11:48:41Z</time>
      </trkpt>
      <trkpt lat="47.986069" lon="7.585551">
        <ele>241.0</ele>
        <time>2020-07-12T11:48:42Z</time>
      </trkpt>
      <trkpt lat="47.985983" lon="7.585848">
        <ele>241.0</ele>
        <time>2020-07-12T11:48:46Z</time>
      </trkpt>
      <trkpt lat="47.985958" lon="7.586018">
        <ele>241.0</ele>
        <time>2020-07-12T11:48:48Z</time>
      </trkpt>
      <trkpt lat="47.985948" lon="7.586284">
        <ele>241.0</ele>
        <time>2020-07-12T11:48:51Z</time>
      </trkpt>
      <trkpt lat="47.985954" lon="7.586454">
        <ele>241.0</ele>
        <time>2020-07-12T11:48:53Z</time>
      </trkpt>
      <trkpt lat="47.985958" lon="7.586617">
        <ele>241.0</ele>
        <time>2020-07-12T11:48:55Z</time>
      </trkpt>
      <trkpt lat="47.985962" lon="7.58678">
        <ele>241.0</ele>
        <time>2020-07-12T11:48:57Z</time>
      </trkpt>
      <trkpt lat="47.985969" lon="7.586934">
        <ele>242.0</ele>
        <time>2020-07-12T11:48:59Z</time>
      </trkpt>
      <trkpt lat="47.985972" lon="7.587095">
        <ele>242.0</ele>
        <time>2020-07-12T11:49:01Z</time>
      </trkpt>
      <trkpt lat="47.985978" lon="7.587255">
        <ele>242.0</ele>
        <time>2020-07-12T11:49:03Z</time>
      </trkpt>
      <trkpt lat="47.985983" lon="7.58741">
        <ele>242.0</ele>
        <time>2020-07-12T11:49:05Z</time>
      </trkpt>
      <trkpt lat="47.985981" lon="7.58756">
        <ele>243.0</ele>
        <time>2020-07-12T11:49:07Z</time>
      </trkpt>
      <trkpt lat="47.985977" lon="7.587707">
        <ele>243.0</ele>
        <time>2020-07-12T11:49:09Z</time>
      </trkpt>
      <trkpt lat="47.985963" lon="7.587861">
        <ele>243.0</ele>
        <time>2020-07-12T11:49:11Z</time>
      </trkpt>
      <trkpt lat="47.985922" lon="7.58809">
        <ele>242.0</ele>
        <time>2020-07-12T11:49:14Z</time>
      </trkpt>
      <trkpt lat="47.985893" lon="7.588246">
        <ele>243.0</ele>
        <time>2020-07-12T11:49:16Z</time>
      </trkpt>
      <trkpt lat="47.98585" lon="7.588388">
        <ele>243.0</ele>
        <time>2020-07-12T11:49:18Z</time>
      </trkpt>
      <trkpt lat="47.985797" lon="7.588532">
        <ele>243.0</ele>
        <time>2020-07-12T11:49:20Z</time>
      </trkpt>
      <trkpt lat="47.985712" lon="7.588737">
        <ele>244.0</ele>
        <time>2020-07-12T11:49:23Z</time>
      </trkpt>
      <trkpt lat="47.985685" lon="7.588803">
        <ele>244.0</ele>
        <time>2020-07-12T11:49:24Z</time>
      </trkpt>
      <trkpt lat="47.985593" lon="7.589014">
        <ele>244.0</ele>
        <time>2020-07-12T11:49:27Z</time>
      </trkpt>
      <trkpt lat="47.985538" lon="7.589156">
        <ele>243.0</ele>
        <time>2020-07-12T11:49:29Z</time>
      </trkpt>
      <trkpt lat="47.985454" lon="7.58936">
        <ele>243.0</ele>
        <time>2020-07-12T11:49:32Z</time>
      </trkpt>
      <trkpt lat="47.985426" lon="7.589424">
        <ele>243.0</ele>
        <time>2020-07-12T11:49:33Z</time>
      </trkpt>
      <trkpt lat="47.985346" lon="7.589631">
        <ele>241.0</ele>
        <time>2020-07-12T11:49:36Z</time>
      </trkpt>
      <trkpt lat="47.985288" lon="7.589762">
        <ele>241.0</ele>
        <time>2020-07-12T11:49:38Z</time>
      </trkpt>
      <trkpt lat="47.985235" lon="7.589899">
        <ele>241.0</ele>
        <time>2020-07-12T11:49:40Z</time>
      </trkpt>
      <trkpt lat="47.985175" lon="7.590036">
        <ele>242.0</ele>
        <time>2020-07-12T11:49:42Z</time>
      </trkpt>
      <trkpt lat="47.985116" lon="7.590165">
        <ele>242.0</ele>
        <time>2020-07-12T11:49:44Z</time>
      </trkpt>
      <trkpt lat="47.985055" lon="7.590304">
        <ele>242.0</ele>
        <time>2020-07-12T11:49:46Z</time>
      </trkpt>
      <trkpt lat="47.985001" lon="7.590444">
        <ele>242.0</ele>
        <time>2020-07-12T11:49:48Z</time>
      </trkpt>
      <trkpt lat="47.984941" lon="7.590597">
        <ele>242.0</ele>
        <time>2020-07-12T11:49:50Z</time>
      </trkpt>
      <trkpt lat="47.984883" lon="7.590735">
        <ele>241.0</ele>
        <time>2020-07-12T11:49:52Z</time>
      </trkpt>
      <trkpt lat="47.984828" lon="7.590871">
        <ele>240.0</ele>
        <time>2020-07-12T11:49:54Z</time>
      </trkpt>
      <trkpt lat="47.98476" lon="7.591009">
        <ele>240.0</ele>
        <time>2020-07-12T11:49:56Z</time>
      </trkpt>
      <trkpt lat="47.98469" lon="7.591149">
        <ele>241.0</ele>
        <time>2020-07-12T11:49:58Z</time>
      </trkpt>
      <trkpt lat="47.984618" lon="7.591297">
        <ele>241.0</ele>
        <time>2020-07-12T11:50:00Z</time>
      </trkpt>
      <trkpt lat="47.984546" lon="7.591441">
        <ele>242.0</ele>
        <time>2020-07-12T11:50:02Z</time>
      </trkpt>
      <trkpt lat="47.984476" lon="7.591581">
        <ele>242.0</ele>
        <time>2020-07-12T11:50:04Z</time>
      </trkpt>
      <trkpt lat="47.984373" lon="7.59179">
        <ele>242.0</ele>
        <time>2020-07-12T11:50:07Z</time>
      </trkpt>
      <trkpt lat="47.984295" lon="7.591926">
        <ele>242.0</ele>
        <time>2020-07-12T11:50:09Z</time>
      </trkpt>
      <trkpt lat="47.984204" lon="7.592043">
        <ele>242.0</ele>
        <time>2020-07-12T11:50:11Z</time>
      </trkpt>
      <trkpt lat="47.984113" lon="7.592131">
        <ele>243.0</ele>
        <time>2020-07-12T11:50:13Z</time>
      </trkpt>
      <trkpt lat="47.984015" lon="7.5922">
        <ele>243.0</ele>
        <time>2020-07-12T11:50:15Z</time>
      </trkpt>
      <trkpt lat="47.983916" lon="7.592259">
        <ele>243.0</ele>
        <time>2020-07-12T11:50:17Z</time>
      </trkpt>
      <trkpt lat="47.983813" lon="7.592303">
        <ele>243.0</ele>
        <time>2020-07-12T11:50:19Z</time>
      </trkpt>
      <trkpt lat="47.983704" lon="7.592355">
        <ele>243.0</ele>
        <time>2020-07-12T11:50:21Z</time>
      </trkpt>
      <trkpt lat="47.983597" lon="7.592393">
        <ele>243.0</ele>
        <time>2020-07-12T11:50:23Z</time>
      </trkpt>
      <trkpt lat="47.983488" lon="7.592434">
        <ele>244.0</ele>
        <time>2020-07-12T11:50:25Z</time>
      </trkpt>
      <trkpt lat="47.983378" lon="7.592471">
        <ele>244.0</ele>
        <time>2020-07-12T11:50:27Z</time>
      </trkpt>
      <trkpt lat="47.983273" lon="7.592511">
        <ele>244.0</ele>
        <time>2020-07-12T11:50:29Z</time>
      </trkpt>
      <trkpt lat="47.983164" lon="7.592538">
        <ele>244.0</ele>
        <time>2020-07-12T11:50:31Z</time>
      </trkpt>
      <trkpt lat="47.983055" lon="7.592571">
        <ele>243.0</ele>
        <time>2020-07-12T11:50:33Z</time>
      </trkpt>
      <trkpt lat="47.982945" lon="7.592611">
        <ele>244.0</ele>
        <time>2020-07-12T11:50:35Z</time>
      </trkpt>
      <trkpt lat="47.982836" lon="7.592656">
        <ele>244.0</ele>
        <time>2020-07-12T11:50:37Z</time>
      </trkpt>
      <trkpt lat="47.982733" lon="7.592731">
        <ele>243.0</ele>
        <time>2020-07-12T11:50:39Z</time>
      </trkpt>
      <trkpt lat="47.98264" lon="7.592818">
        <ele>243.0</ele>
        <time>2020-07-12T11:50:41Z</time>
      </trkpt>
      <trkpt lat="47.982564" lon="7.59292">
        <ele>243.0</ele>
        <time>2020-07-12T11:50:43Z</time>
      </trkpt>
      <trkpt lat="47.982461" lon="7.593104">
        <ele>243.0</ele>
        <time>2020-07-12T11:50:46Z</time>
      </trkpt>
      <trkpt lat="47.982398" lon="7.593239">
        <ele>243.0</ele>
        <time>2020-07-12T11:50:48Z</time>
      </trkpt>
      <trkpt lat="47.982336" lon="7.593376">
        <ele>243.0</ele>
        <time>2020-07-12T11:50:50Z</time>
      </trkpt>
      <trkpt lat="47.982242" lon="7.593576">
        <ele>243.0</ele>
        <time>2020-07-12T11:50:53Z</time>
      </trkpt>
      <trkpt lat="47.982184" lon="7.593708">
        <ele>242.0</ele>
        <time>2020-07-12T11:50:55Z</time>
      </trkpt>
      <trkpt lat="47.98212" lon="7.593836">
        <ele>242.0</ele>
        <time>2020-07-12T11:50:57Z</time>
      </trkpt>
      <trkpt lat="47.982059" lon="7.593969">
        <ele>242.0</ele>
        <time>2020-07-12T11:50:59Z</time>
      </trkpt>
      <trkpt lat="47.981995" lon="7.594096">
        <ele>243.0</ele>
        <time>2020-07-12T11:51:01Z</time>
      </trkpt>
      <trkpt lat="47.981928" lon="7.594229">
        <ele>243.0</ele>
        <time>2020-07-12T11:51:03Z</time>
      </trkpt>
      <trkpt lat="47.981866" lon="7.594352">
        <ele>243.0</ele>
        <time>2020-07-12T11:51:05Z</time>
      </trkpt>
      <trkpt lat="47.981801" lon="7.594477">
        <ele>243.0</ele>
        <time>2020-07-12T11:51:07Z</time>
      </trkpt>
      <trkpt lat="47.981738" lon="7.594603">
        <ele>242.0</ele>
        <time>2020-07-12T11:51:09Z</time>
      </trkpt>
      <trkpt lat="47.981668" lon="7.594727">
        <ele>242.0</ele>
        <time>2020-07-12T11:51:11Z</time>
      </trkpt>
      <trkpt lat="47.981594" lon="7.594862">
        <ele>242.0</ele>
        <time>2020-07-12T11:51:13Z</time>
      </trkpt>
      <trkpt lat="47.98152" lon="7.594997">
        <ele>242.0</ele>
        <time>2020-07-12T11:51:15Z</time>
      </trkpt>
      <trkpt lat="47.981442" lon="7.59513">
        <ele>242.0</ele>
        <time>2020-07-12T11:51:17Z</time>
      </trkpt>
      <trkpt lat="47.981349" lon="7.595234">
        <ele>242.0</ele>
        <time>2020-07-12T11:51:19Z</time>
      </trkpt>
      <trkpt lat="47.98119" lon="7.595351">
        <ele>242.0</ele>
        <time>2020-07-12T11:51:22Z</time>
      </trkpt>
      <trkpt lat="47.981082" lon="7.595405">
        <ele>242.0</ele>
        <time>2020-07-12T11:51:24Z</time>
      </trkpt>
      <trkpt lat="47.980924" lon="7.595453">
        <ele>241.0</ele>
        <time>2020-07-12T11:51:27Z</time>
      </trkpt>
      <trkpt lat="47.980809" lon="7.595486">
        <ele>242.0</ele>
        <time>2020-07-12T11:51:29Z</time>
      </trkpt>
      <trkpt lat="47.98064" lon="7.595521">
        <ele>242.0</ele>
        <time>2020-07-12T11:51:32Z</time>
      </trkpt>
      <trkpt lat="47.980518" lon="7.595541">
        <ele>242.0</ele>
        <time>2020-07-12T11:51:34Z</time>
      </trkpt>
      <trkpt lat="47.980348" lon="7.595568">
        <ele>242.0</ele>
        <time>2020-07-12T11:51:37Z</time>
      </trkpt>
      <trkpt lat="47.980241" lon="7.595593">
        <ele>243.0</ele>
        <time>2020-07-12T11:51:39Z</time>
      </trkpt>
      <trkpt lat="47.98014" lon="7.595616">
        <ele>244.0</ele>
        <time>2020-07-12T11:51:41Z</time>
      </trkpt>
      <trkpt lat="47.980048" lon="7.595644">
        <ele>244.0</ele>
        <time>2020-07-12T11:51:43Z</time>
      </trkpt>
      <trkpt lat="47.979956" lon="7.595683">
        <ele>244.0</ele>
        <time>2020-07-12T11:51:45Z</time>
      </trkpt>
      <trkpt lat="47.97983" lon="7.595745">
        <ele>244.0</ele>
        <time>2020-07-12T11:51:48Z</time>
      </trkpt>
      <trkpt lat="47.979754" lon="7.595808">
        <ele>245.0</ele>
        <time>2020-07-12T11:51:50Z</time>
      </trkpt>
      <trkpt lat="47.979685" lon="7.595875">
        <ele>244.0</ele>
        <time>2020-07-12T11:51:52Z</time>
      </trkpt>
      <trkpt lat="47.979634" lon="7.595965">
        <ele>243.0</ele>
        <time>2020-07-12T11:51:54Z</time>
      </trkpt>
      <trkpt lat="47.979573" lon="7.596068">
        <ele>242.0</ele>
        <time>2020-07-12T11:51:56Z</time>
      </trkpt>
      <trkpt lat="47.979515" lon="7.596184">
        <ele>241.0</ele>
        <time>2020-07-12T11:51:58Z</time>
      </trkpt>
      <trkpt lat="47.979468" lon="7.596307">
        <ele>241.0</ele>
        <time>2020-07-12T11:52:00Z</time>
      </trkpt>
      <trkpt lat="47.979431" lon="7.596429">
        <ele>242.0</ele>
        <time>2020-07-12T11:52:02Z</time>
      </trkpt>
      <trkpt lat="47.979402" lon="7.596556">
        <ele>242.0</ele>
        <time>2020-07-12T11:52:04Z</time>
      </trkpt>
      <trkpt lat="47.979334" lon="7.596616">
        <ele>242.0</ele>
        <time>2020-07-12T11:52:06Z</time>
      </trkpt>
      <trkpt lat="47.979246" lon="7.596574">
        <ele>242.0</ele>
        <time>2020-07-12T11:52:08Z</time>
      </trkpt>
      <trkpt lat="47.979162" lon="7.596524">
        <ele>242.0</ele>
        <time>2020-07-12T11:52:10Z</time>
      </trkpt>
      <trkpt lat="47.979081" lon="7.596487">
        <ele>242.0</ele>
        <time>2020-07-12T11:52:12Z</time>
      </trkpt>
      <trkpt lat="47.978991" lon="7.596449">
        <ele>242.0</ele>
        <time>2020-07-12T11:52:14Z</time>
      </trkpt>
      <trkpt lat="47.978906" lon="7.596403">
        <ele>243.0</ele>
        <time>2020-07-12T11:52:16Z</time>
      </trkpt>
      <trkpt lat="47.978821" lon="7.596348">
        <ele>243.0</ele>
        <time>2020-07-12T11:52:18Z</time>
      </trkpt>
      <trkpt lat="47.978734" lon="7.596298">
        <ele>243.0</ele>
        <time>2020-07-12T11:52:20Z</time>
      </trkpt>
      <trkpt lat="47.978665" lon="7.59626">
        <ele>243.0</ele>
        <time>2020-07-12T11:52:22Z</time>
      </trkpt>
      <trkpt lat="47.978606" lon="7.59622">
        <ele>243.0</ele>
        <time>2020-07-12T11:52:24Z</time>
      </trkpt>
      <trkpt lat="47.978582" lon="7.596207">
        <ele>243.0</ele>
        <time>2020-07-12T11:52:26Z</time>
      </trkpt>
      <trkpt lat="47.978573" lon="7.596204">
        <ele>243.0</ele>
        <time>2020-07-12T11:52:28Z</time>
      </trkpt>
      <trkpt lat="47.978556" lon="7.596201">
        <ele>243.0</ele>
        <time>2020-07-12T11:52:30Z</time>
      </trkpt>
      <trkpt lat="47.978521" lon="7.596197">
        <ele>243.0</ele>
        <time>2020-07-12T11:52:32Z</time>
      </trkpt>
      <trkpt lat="47.978491" lon="7.596184">
        <ele>243.0</ele>
        <time>2020-07-12T11:52:34Z</time>
      </trkpt>
      <trkpt lat="47.978469" lon="7.596172">
        <ele>244.0</ele>
        <time>2020-07-12T11:52:36Z</time>
      </trkpt>
      <trkpt lat="47.978446" lon="7.596182">
        <ele>244.0</ele>
        <time>2020-07-12T11:52:38Z</time>
      </trkpt>
      <trkpt lat="47.97841" lon="7.596194">
        <ele>243.0</ele>
        <time>2020-07-12T11:52:40Z</time>
      </trkpt>
      <trkpt lat="47.97839" lon="7.596219">
        <ele>243.0</ele>
        <time>2020-07-12T11:52:42Z</time>
      </trkpt>
      <trkpt lat="47.978382" lon="7.596246">
        <ele>243.0</ele>
        <time>2020-07-12T11:52:44Z</time>
      </trkpt>
      <trkpt lat="47.978375" lon="7.596278">
        <ele>243.0</ele>
        <time>2020-07-12T11:52:46Z</time>
      </trkpt>
      <trkpt lat="47.978371" lon="7.596304">
        <ele>243.0</ele>
        <time>2020-07-12T11:52:48Z</time>
      </trkpt>
      <trkpt lat="47.978369" lon="7.596318">
        <ele>243.0</ele>
        <time>2020-07-12T11:52:50Z</time>
      </trkpt>
      <trkpt lat="47.97837" lon="7.596312">
        <ele>244.0</ele>
        <time>2020-07-12T11:52:52Z</time>
      </trkpt>
      <trkpt lat="47.978381" lon="7.596307">
        <ele>244.0</ele>
        <time>2020-07-12T11:59:11Z</time>
      </trkpt>
      <trkpt lat="47.978381" lon="7.596307">
        <ele>244.0</ele>
        <time>2020-07-12T11:59:13Z</time>
      </trkpt>
      <trkpt lat="47.978381" lon="7.596307">
        <ele>244.0</ele>
        <time>2020-07-12T11:59:15Z</time>
      </trkpt>
      <trkpt lat="47.978381" lon="7.596307">
        <ele>244.0</ele>
        <time>2020-07-12T11:59:17Z</time>
      </trkpt>
      <trkpt lat="47.978381" lon="7.596307">
        <ele>244.0</ele>
        <time>2020-07-12T11:59:19Z</time>
      </trkpt>
      <trkpt lat="47.978381" lon="7.596307">
        <ele>244.0</ele>
        <time>2020-07-12T11:59:21Z</time>
      </trkpt>
      <trkpt lat="47.978381" lon="7.596307">
        <ele>244.0</ele>
        <time>2020-07-12T11:59:23Z</time>
      </trkpt>
      <trkpt lat="47.978381" lon="7.596307">
        <ele>244.0</ele>
        <time>2020-07-12T11:59:25Z</time>
      </trkpt>
      <trkpt lat="47.978381" lon="7.596307">
        <ele>244.0</ele>
        <time>2020-07-12T11:59:27Z</time>
      </trkpt>
      <trkpt lat="47.978382" lon="7.596286">
        <ele>244.0</ele>
        <time>2020-07-12T11:59:29Z</time>
      </trkpt>
      <trkpt lat="47.978388" lon="7.596265">
        <ele>244.0</ele>
        <time>2020-07-12T11:59:32Z</time>
      </trkpt>
      <trkpt lat="47.97839" lon="7.596241">
        <ele>244.0</ele>
        <time>2020-07-12T11:59:34Z</time>
      </trkpt>
      <trkpt lat="47.978396" lon="7.596212">
        <ele>244.0</ele>
        <time>2020-07-12T11:59:36Z</time>
      </trkpt>
      <trkpt lat="47.978394" lon="7.596181">
        <ele>245.0</ele>
        <time>2020-07-12T11:59:38Z</time>
      </trkpt>
      <trkpt lat="47.978404" lon="7.596152">
        <ele>245.0</ele>
        <time>2020-07-12T11:59:40Z</time>
      </trkpt>
      <trkpt lat="47.978405" lon="7.596122">
        <ele>244.0</ele>
        <time>2020-07-12T11:59:42Z</time>
      </trkpt>
      <trkpt lat="47.978413" lon="7.596082">
        <ele>243.0</ele>
        <time>2020-07-12T11:59:44Z</time>
      </trkpt>
      <trkpt lat="47.978423" lon="7.596041">
        <ele>243.0</ele>
        <time>2020-07-12T11:59:46Z</time>
      </trkpt>
      <trkpt lat="47.978425" lon="7.596003">
        <ele>243.0</ele>
        <time>2020-07-12T11:59:48Z</time>
      </trkpt>
      <trkpt lat="47.978437" lon="7.595964">
        <ele>243.0</ele>
        <time>2020-07-12T11:59:50Z</time>
      </trkpt>
      <trkpt lat="47.978447" lon="7.595923">
        <ele>244.0</ele>
        <time>2020-07-12T11:59:52Z</time>
      </trkpt>
      <trkpt lat="47.978457" lon="7.595879">
        <ele>245.0</ele>
        <time>2020-07-12T11:59:54Z</time>
      </trkpt>
      <trkpt lat="47.978471" lon="7.595837">
        <ele>245.0</ele>
        <time>2020-07-12T11:59:56Z</time>
      </trkpt>
      <trkpt lat="47.978484" lon="7.595797">
        <ele>244.0</ele>
        <time>2020-07-12T11:59:58Z</time>
      </trkpt>
      <trkpt lat="47.978491" lon="7.595759">
        <ele>244.0</ele>
        <time>2020-07-12T12:00:00Z</time>
      </trkpt>
      <trkpt lat="47.978497" lon="7.595731">
        <ele>244.0</ele>
        <time>2020-07-12T12:00:02Z</time>
      </trkpt>
      <trkpt lat="47.978498" lon="7.595706">
        <ele>245.0</ele>
        <time>2020-07-12T12:00:04Z</time>
      </trkpt>
      <trkpt lat="47.978501" lon="7.595678">
        <ele>246.0</ele>
        <time>2020-07-12T12:00:06Z</time>
      </trkpt>
      <trkpt lat="47.978507" lon="7.595663">
        <ele>246.0</ele>
        <time>2020-07-12T12:00:07Z</time>
      </trkpt>
      <trkpt lat="47.978523" lon="7.59562">
        <ele>246.0</ele>
        <time>2020-07-12T12:00:10Z</time>
      </trkpt>
      <trkpt lat="47.97853" lon="7.59559">
        <ele>247.0</ele>
        <time>2020-07-12T12:00:12Z</time>
      </trkpt>
      <trkpt lat="47.978537" lon="7.595558">
        <ele>247.0</ele>
        <time>2020-07-12T12:00:14Z</time>
      </trkpt>
      <trkpt lat="47.978538" lon="7.595516">
        <ele>246.0</ele>
        <time>2020-07-12T12:00:16Z</time>
      </trkpt>
      <trkpt lat="47.978539" lon="7.595479">
        <ele>245.0</ele>
        <time>2020-07-12T12:00:18Z</time>
      </trkpt>
      <trkpt lat="47.978535" lon="7.595449">
        <ele>245.0</ele>
        <time>2020-07-12T12:00:20Z</time>
      </trkpt>
      <trkpt lat="47.978522" lon="7.595439">
        <ele>245.0</ele>
        <time>2020-07-12T12:00:22Z</time>
      </trkpt>
      <trkpt lat="47.978513" lon="7.595431">
        <ele>246.0</ele>
        <time>2020-07-12T12:00:24Z</time>
      </trkpt>
      <trkpt lat="47.978509" lon="7.595388">
        <ele>246.0</ele>
        <time>2020-07-12T12:00:27Z</time>
      </trkpt>
      <trkpt lat="47.97851" lon="7.595358">
        <ele>247.0</ele>
        <time>2020-07-12T12:00:29Z</time>
      </trkpt>
      <trkpt lat="47.978511" lon="7.595346">
        <ele>247.0</ele>
        <time>2020-07-12T12:00:31Z</time>
      </trkpt>
      <trkpt lat="47.978512" lon="7.595349">
        <ele>247.0</ele>
        <time>2020-07-12T12:00:33Z</time>
      </trkpt>
      <trkpt lat="47.978512" lon="7.595349">
        <ele>247.0</ele>
        <time>2020-07-12T12:00:35Z</time>
      </trkpt>
    </trkseg>
  </trk>
</gpx>
